<?xml version="1.0" encoding="UTF-8" standalone="no" ?>
<gpx xmlns="http://www.topografix.com/GPX/1/1" xmlns:xsi="http://www.w3.org/2001/XMLSchema-instance" xsi:schemaLocation="http://www.topografix.com/GPX/1/1 http://www.topografix.com/GPX/1/1/gpx.xsd" version="1.1" creator="VisuGPX - https://www.visugpx.com">
  <metadata>
    <name>Corrençon-en-Vercors Trail - Trail de la Fleur du Roy 2024-07-14 </name>
    <desc><![CDATA[Corrençon-en-Vercors Trail - Trail de la Fleur du Roy 2024-07-14 ]]></desc>
  </metadata>
  <trk>
    <name><![CDATA[Corrençon-en-Vercors Trail - Trail de la Fleur du Roy 2024-07-14]]></name>
    <desc><![CDATA[Corrençon-en-Vercors Trail - Trail de la Fleur du Roy 2024-07-14 ]]></desc>
    <trkseg>
      <trkpt lat="45.03207" lon="5.52506">
        <ele>1100.5999755859</ele>
        <time>2024-07-14T06:31:08.000Z</time>
      </trkpt>
      <trkpt lat="45.03208" lon="5.52506">
        <ele>1100.5999755859</ele>
        <time>2024-07-14T06:31:09.000Z</time>
      </trkpt>
      <trkpt lat="45.03209" lon="5.52507">
        <ele>1100.5999755859</ele>
        <time>2024-07-14T06:31:10.000Z</time>
      </trkpt>
      <trkpt lat="45.03211" lon="5.52509">
        <ele>1100.5999755859</ele>
        <time>2024-07-14T06:31:11.000Z</time>
      </trkpt>
      <trkpt lat="45.03214" lon="5.5251">
        <ele>1100.8000488281</ele>
        <time>2024-07-14T06:31:12.000Z</time>
      </trkpt>
      <trkpt lat="45.03217" lon="5.52512">
        <ele>1100.8000488281</ele>
        <time>2024-07-14T06:31:13.000Z</time>
      </trkpt>
      <trkpt lat="45.03219" lon="5.52514">
        <ele>1101</ele>
        <time>2024-07-14T06:31:14.000Z</time>
      </trkpt>
      <trkpt lat="45.03222" lon="5.52516">
        <ele>1101</ele>
        <time>2024-07-14T06:31:15.000Z</time>
      </trkpt>
      <trkpt lat="45.03224" lon="5.52518">
        <ele>1101</ele>
        <time>2024-07-14T06:31:16.000Z</time>
      </trkpt>
      <trkpt lat="45.03227" lon="5.5252">
        <ele>1101</ele>
        <time>2024-07-14T06:31:17.000Z</time>
      </trkpt>
      <trkpt lat="45.03229" lon="5.52522">
        <ele>1101</ele>
        <time>2024-07-14T06:31:18.000Z</time>
      </trkpt>
      <trkpt lat="45.03231" lon="5.52526">
        <ele>1101.1999511719</ele>
        <time>2024-07-14T06:31:19.000Z</time>
      </trkpt>
      <trkpt lat="45.03232" lon="5.52529">
        <ele>1101.1999511719</ele>
        <time>2024-07-14T06:31:20.000Z</time>
      </trkpt>
      <trkpt lat="45.03233" lon="5.52534">
        <ele>1101.1999511719</ele>
        <time>2024-07-14T06:31:21.000Z</time>
      </trkpt>
      <trkpt lat="45.03233" lon="5.52538">
        <ele>1101.4000244141</ele>
        <time>2024-07-14T06:31:22.000Z</time>
      </trkpt>
      <trkpt lat="45.03232" lon="5.52542">
        <ele>1101.4000244141</ele>
        <time>2024-07-14T06:31:23.000Z</time>
      </trkpt>
      <trkpt lat="45.03231" lon="5.52547">
        <ele>1101.4000244141</ele>
        <time>2024-07-14T06:31:24.000Z</time>
      </trkpt>
      <trkpt lat="45.03229" lon="5.52551">
        <ele>1101.5999755859</ele>
        <time>2024-07-14T06:31:25.000Z</time>
      </trkpt>
      <trkpt lat="45.03228" lon="5.52555">
        <ele>1101.5999755859</ele>
        <time>2024-07-14T06:31:26.000Z</time>
      </trkpt>
      <trkpt lat="45.03226" lon="5.52559">
        <ele>1101.5999755859</ele>
        <time>2024-07-14T06:31:27.000Z</time>
      </trkpt>
      <trkpt lat="45.03224" lon="5.52564">
        <ele>1101.5999755859</ele>
        <time>2024-07-14T06:31:28.000Z</time>
      </trkpt>
      <trkpt lat="45.03223" lon="5.52567">
        <ele>1101.5999755859</ele>
        <time>2024-07-14T06:31:29.000Z</time>
      </trkpt>
      <trkpt lat="45.03221" lon="5.52572">
        <ele>1101.4000244141</ele>
        <time>2024-07-14T06:31:30.000Z</time>
      </trkpt>
      <trkpt lat="45.0322" lon="5.52575">
        <ele>1101.4000244141</ele>
        <time>2024-07-14T06:31:31.000Z</time>
      </trkpt>
      <trkpt lat="45.03218" lon="5.52579">
        <ele>1101.5999755859</ele>
        <time>2024-07-14T06:31:32.000Z</time>
      </trkpt>
      <trkpt lat="45.03217" lon="5.52582">
        <ele>1101.5999755859</ele>
        <time>2024-07-14T06:31:33.000Z</time>
      </trkpt>
      <trkpt lat="45.03215" lon="5.52585">
        <ele>1101.5999755859</ele>
        <time>2024-07-14T06:31:34.000Z</time>
      </trkpt>
      <trkpt lat="45.03213" lon="5.52589">
        <ele>1101.8000488281</ele>
        <time>2024-07-14T06:31:35.000Z</time>
      </trkpt>
      <trkpt lat="45.03212" lon="5.52593">
        <ele>1101.8000488281</ele>
        <time>2024-07-14T06:31:36.000Z</time>
      </trkpt>
      <trkpt lat="45.0321" lon="5.52596">
        <ele>1101.8000488281</ele>
        <time>2024-07-14T06:31:37.000Z</time>
      </trkpt>
      <trkpt lat="45.03208" lon="5.526">
        <ele>1101.8000488281</ele>
        <time>2024-07-14T06:31:38.000Z</time>
      </trkpt>
      <trkpt lat="45.03207" lon="5.52603">
        <ele>1102</ele>
        <time>2024-07-14T06:31:39.000Z</time>
      </trkpt>
      <trkpt lat="45.03205" lon="5.52607">
        <ele>1102</ele>
        <time>2024-07-14T06:31:40.000Z</time>
      </trkpt>
      <trkpt lat="45.03203" lon="5.5261">
        <ele>1102.1999511719</ele>
        <time>2024-07-14T06:31:41.000Z</time>
      </trkpt>
      <trkpt lat="45.03201" lon="5.52615">
        <ele>1102.1999511719</ele>
        <time>2024-07-14T06:31:42.000Z</time>
      </trkpt>
      <trkpt lat="45.032" lon="5.52618">
        <ele>1102.4000244141</ele>
        <time>2024-07-14T06:31:43.000Z</time>
      </trkpt>
      <trkpt lat="45.03198" lon="5.52622">
        <ele>1102.4000244141</ele>
        <time>2024-07-14T06:31:44.000Z</time>
      </trkpt>
      <trkpt lat="45.03196" lon="5.52625">
        <ele>1102.5999755859</ele>
        <time>2024-07-14T06:31:45.000Z</time>
      </trkpt>
      <trkpt lat="45.03195" lon="5.52629">
        <ele>1102.5999755859</ele>
        <time>2024-07-14T06:31:46.000Z</time>
      </trkpt>
      <trkpt lat="45.03193" lon="5.52633">
        <ele>1102.8000488281</ele>
        <time>2024-07-14T06:31:47.000Z</time>
      </trkpt>
      <trkpt lat="45.03192" lon="5.52636">
        <ele>1103.1999511719</ele>
        <time>2024-07-14T06:31:48.000Z</time>
      </trkpt>
      <trkpt lat="45.0319" lon="5.5264">
        <ele>1103.1999511719</ele>
        <time>2024-07-14T06:31:49.000Z</time>
      </trkpt>
      <trkpt lat="45.03189" lon="5.52643">
        <ele>1103.4000244141</ele>
        <time>2024-07-14T06:31:50.000Z</time>
      </trkpt>
      <trkpt lat="45.03187" lon="5.52646">
        <ele>1103.8000488281</ele>
        <time>2024-07-14T06:31:51.000Z</time>
      </trkpt>
      <trkpt lat="45.03186" lon="5.52649">
        <ele>1103.8000488281</ele>
        <time>2024-07-14T06:31:52.000Z</time>
      </trkpt>
      <trkpt lat="45.03185" lon="5.52652">
        <ele>1104</ele>
        <time>2024-07-14T06:31:53.000Z</time>
      </trkpt>
      <trkpt lat="45.03184" lon="5.52656">
        <ele>1104.1999511719</ele>
        <time>2024-07-14T06:31:54.000Z</time>
      </trkpt>
      <trkpt lat="45.03182" lon="5.52659">
        <ele>1104.8000488281</ele>
        <time>2024-07-14T06:31:55.000Z</time>
      </trkpt>
      <trkpt lat="45.03181" lon="5.52662">
        <ele>1105</ele>
        <time>2024-07-14T06:31:56.000Z</time>
      </trkpt>
      <trkpt lat="45.0318" lon="5.52665">
        <ele>1105.1999511719</ele>
        <time>2024-07-14T06:31:57.000Z</time>
      </trkpt>
      <trkpt lat="45.03178" lon="5.52669">
        <ele>1105.4000244141</ele>
        <time>2024-07-14T06:31:58.000Z</time>
      </trkpt>
      <trkpt lat="45.03177" lon="5.52672">
        <ele>1106</ele>
        <time>2024-07-14T06:31:59.000Z</time>
      </trkpt>
      <trkpt lat="45.03175" lon="5.52676">
        <ele>1106</ele>
        <time>2024-07-14T06:32:00.000Z</time>
      </trkpt>
      <trkpt lat="45.03174" lon="5.52679">
        <ele>1106.1999511719</ele>
        <time>2024-07-14T06:32:01.000Z</time>
      </trkpt>
      <trkpt lat="45.03172" lon="5.52682">
        <ele>1106.4000244141</ele>
        <time>2024-07-14T06:32:02.000Z</time>
      </trkpt>
      <trkpt lat="45.0317" lon="5.52685">
        <ele>1106.5999755859</ele>
        <time>2024-07-14T06:32:03.000Z</time>
      </trkpt>
      <trkpt lat="45.03167" lon="5.52688">
        <ele>1107</ele>
        <time>2024-07-14T06:32:04.000Z</time>
      </trkpt>
      <trkpt lat="45.03165" lon="5.5269">
        <ele>1107.1999511719</ele>
        <time>2024-07-14T06:32:05.000Z</time>
      </trkpt>
      <trkpt lat="45.03162" lon="5.52692">
        <ele>1107.1999511719</ele>
        <time>2024-07-14T06:32:06.000Z</time>
      </trkpt>
      <trkpt lat="45.03159" lon="5.52693">
        <ele>1107.1999511719</ele>
        <time>2024-07-14T06:32:07.000Z</time>
      </trkpt>
      <trkpt lat="45.03156" lon="5.52694">
        <ele>1107.1999511719</ele>
        <time>2024-07-14T06:32:08.000Z</time>
      </trkpt>
      <trkpt lat="45.03153" lon="5.52695">
        <ele>1107.1999511719</ele>
        <time>2024-07-14T06:32:09.000Z</time>
      </trkpt>
      <trkpt lat="45.03151" lon="5.52695">
        <ele>1107.1999511719</ele>
        <time>2024-07-14T06:32:10.000Z</time>
      </trkpt>
      <trkpt lat="45.03148" lon="5.52697">
        <ele>1107.1999511719</ele>
        <time>2024-07-14T06:32:11.000Z</time>
      </trkpt>
      <trkpt lat="45.03146" lon="5.52699">
        <ele>1107.1999511719</ele>
        <time>2024-07-14T06:32:12.000Z</time>
      </trkpt>
      <trkpt lat="45.03143" lon="5.52702">
        <ele>1107.1999511719</ele>
        <time>2024-07-14T06:32:13.000Z</time>
      </trkpt>
      <trkpt lat="45.0314" lon="5.52704">
        <ele>1107.1999511719</ele>
        <time>2024-07-14T06:32:14.000Z</time>
      </trkpt>
      <trkpt lat="45.03137" lon="5.52705">
        <ele>1107</ele>
        <time>2024-07-14T06:32:15.000Z</time>
      </trkpt>
      <trkpt lat="45.03134" lon="5.52707">
        <ele>1106.8000488281</ele>
        <time>2024-07-14T06:32:16.000Z</time>
      </trkpt>
      <trkpt lat="45.03131" lon="5.52709">
        <ele>1106.5999755859</ele>
        <time>2024-07-14T06:32:17.000Z</time>
      </trkpt>
      <trkpt lat="45.03128" lon="5.52711">
        <ele>1106.4000244141</ele>
        <time>2024-07-14T06:32:18.000Z</time>
      </trkpt>
      <trkpt lat="45.03125" lon="5.52714">
        <ele>1106.1999511719</ele>
        <time>2024-07-14T06:32:19.000Z</time>
      </trkpt>
      <trkpt lat="45.03122" lon="5.52716">
        <ele>1106.1999511719</ele>
        <time>2024-07-14T06:32:20.000Z</time>
      </trkpt>
      <trkpt lat="45.03119" lon="5.52718">
        <ele>1106</ele>
        <time>2024-07-14T06:32:21.000Z</time>
      </trkpt>
      <trkpt lat="45.03116" lon="5.52721">
        <ele>1105.8000488281</ele>
        <time>2024-07-14T06:32:22.000Z</time>
      </trkpt>
      <trkpt lat="45.03113" lon="5.52724">
        <ele>1105.5999755859</ele>
        <time>2024-07-14T06:32:23.000Z</time>
      </trkpt>
      <trkpt lat="45.0311" lon="5.52727">
        <ele>1105.4000244141</ele>
        <time>2024-07-14T06:32:24.000Z</time>
      </trkpt>
      <trkpt lat="45.03107" lon="5.5273">
        <ele>1105.1999511719</ele>
        <time>2024-07-14T06:32:25.000Z</time>
      </trkpt>
      <trkpt lat="45.03104" lon="5.52733">
        <ele>1105.1999511719</ele>
        <time>2024-07-14T06:32:26.000Z</time>
      </trkpt>
      <trkpt lat="45.03101" lon="5.52736">
        <ele>1105</ele>
        <time>2024-07-14T06:32:27.000Z</time>
      </trkpt>
      <trkpt lat="45.03099" lon="5.52739">
        <ele>1104.5999755859</ele>
        <time>2024-07-14T06:32:28.000Z</time>
      </trkpt>
      <trkpt lat="45.03097" lon="5.52741">
        <ele>1104.4000244141</ele>
        <time>2024-07-14T06:32:29.000Z</time>
      </trkpt>
      <trkpt lat="45.03094" lon="5.52745">
        <ele>1104.1999511719</ele>
        <time>2024-07-14T06:32:30.000Z</time>
      </trkpt>
      <trkpt lat="45.03092" lon="5.52748">
        <ele>1104.1999511719</ele>
        <time>2024-07-14T06:32:31.000Z</time>
      </trkpt>
      <trkpt lat="45.0309" lon="5.52751">
        <ele>1104</ele>
        <time>2024-07-14T06:32:32.000Z</time>
      </trkpt>
      <trkpt lat="45.03088" lon="5.52754">
        <ele>1104</ele>
        <time>2024-07-14T06:32:33.000Z</time>
      </trkpt>
      <trkpt lat="45.03085" lon="5.52756">
        <ele>1104</ele>
        <time>2024-07-14T06:32:34.000Z</time>
      </trkpt>
      <trkpt lat="45.03083" lon="5.52758">
        <ele>1104</ele>
        <time>2024-07-14T06:32:35.000Z</time>
      </trkpt>
      <trkpt lat="45.0308" lon="5.52759">
        <ele>1104</ele>
        <time>2024-07-14T06:32:36.000Z</time>
      </trkpt>
      <trkpt lat="45.03077" lon="5.52761">
        <ele>1104</ele>
        <time>2024-07-14T06:32:37.000Z</time>
      </trkpt>
      <trkpt lat="45.03075" lon="5.52763">
        <ele>1104.1999511719</ele>
        <time>2024-07-14T06:32:38.000Z</time>
      </trkpt>
      <trkpt lat="45.03072" lon="5.52764">
        <ele>1104.1999511719</ele>
        <time>2024-07-14T06:32:39.000Z</time>
      </trkpt>
      <trkpt lat="45.03069" lon="5.52765">
        <ele>1104.1999511719</ele>
        <time>2024-07-14T06:32:40.000Z</time>
      </trkpt>
      <trkpt lat="45.03066" lon="5.52765">
        <ele>1104.4000244141</ele>
        <time>2024-07-14T06:32:41.000Z</time>
      </trkpt>
      <trkpt lat="45.03063" lon="5.52766">
        <ele>1104.5999755859</ele>
        <time>2024-07-14T06:32:42.000Z</time>
      </trkpt>
      <trkpt lat="45.0306" lon="5.52767">
        <ele>1104.5999755859</ele>
        <time>2024-07-14T06:32:43.000Z</time>
      </trkpt>
      <trkpt lat="45.03057" lon="5.52767">
        <ele>1104.8000488281</ele>
        <time>2024-07-14T06:32:44.000Z</time>
      </trkpt>
      <trkpt lat="45.03055" lon="5.52768">
        <ele>1105</ele>
        <time>2024-07-14T06:32:45.000Z</time>
      </trkpt>
      <trkpt lat="45.03052" lon="5.52769">
        <ele>1105.1999511719</ele>
        <time>2024-07-14T06:32:46.000Z</time>
      </trkpt>
      <trkpt lat="45.0305" lon="5.5277">
        <ele>1105.4000244141</ele>
        <time>2024-07-14T06:32:47.000Z</time>
      </trkpt>
      <trkpt lat="45.03047" lon="5.5277">
        <ele>1105.5999755859</ele>
        <time>2024-07-14T06:32:48.000Z</time>
      </trkpt>
      <trkpt lat="45.03044" lon="5.52771">
        <ele>1105.8000488281</ele>
        <time>2024-07-14T06:32:49.000Z</time>
      </trkpt>
      <trkpt lat="45.03041" lon="5.52771">
        <ele>1106</ele>
        <time>2024-07-14T06:32:50.000Z</time>
      </trkpt>
      <trkpt lat="45.03039" lon="5.52772">
        <ele>1106</ele>
        <time>2024-07-14T06:32:51.000Z</time>
      </trkpt>
      <trkpt lat="45.03036" lon="5.52773">
        <ele>1106.4000244141</ele>
        <time>2024-07-14T06:32:52.000Z</time>
      </trkpt>
      <trkpt lat="45.03033" lon="5.52774">
        <ele>1106.5999755859</ele>
        <time>2024-07-14T06:32:53.000Z</time>
      </trkpt>
      <trkpt lat="45.03031" lon="5.52774">
        <ele>1106.5999755859</ele>
        <time>2024-07-14T06:32:54.000Z</time>
      </trkpt>
      <trkpt lat="45.03028" lon="5.52775">
        <ele>1106.8000488281</ele>
        <time>2024-07-14T06:32:55.000Z</time>
      </trkpt>
      <trkpt lat="45.03025" lon="5.52775">
        <ele>1107</ele>
        <time>2024-07-14T06:32:56.000Z</time>
      </trkpt>
      <trkpt lat="45.03023" lon="5.52776">
        <ele>1107.1999511719</ele>
        <time>2024-07-14T06:32:57.000Z</time>
      </trkpt>
      <trkpt lat="45.0302" lon="5.52776">
        <ele>1107.4000244141</ele>
        <time>2024-07-14T06:32:58.000Z</time>
      </trkpt>
      <trkpt lat="45.03017" lon="5.52777">
        <ele>1107.4000244141</ele>
        <time>2024-07-14T06:32:59.000Z</time>
      </trkpt>
      <trkpt lat="45.03015" lon="5.52778">
        <ele>1107.5999755859</ele>
        <time>2024-07-14T06:33:00.000Z</time>
      </trkpt>
      <trkpt lat="45.03012" lon="5.52779">
        <ele>1107.5999755859</ele>
        <time>2024-07-14T06:33:01.000Z</time>
      </trkpt>
      <trkpt lat="45.03009" lon="5.52779">
        <ele>1107.8000488281</ele>
        <time>2024-07-14T06:33:02.000Z</time>
      </trkpt>
      <trkpt lat="45.03006" lon="5.5278">
        <ele>1108</ele>
        <time>2024-07-14T06:33:03.000Z</time>
      </trkpt>
      <trkpt lat="45.03003" lon="5.5278">
        <ele>1108.1999511719</ele>
        <time>2024-07-14T06:33:04.000Z</time>
      </trkpt>
      <trkpt lat="45.03001" lon="5.52781">
        <ele>1108.1999511719</ele>
        <time>2024-07-14T06:33:05.000Z</time>
      </trkpt>
      <trkpt lat="45.02998" lon="5.52781">
        <ele>1108.4000244141</ele>
        <time>2024-07-14T06:33:06.000Z</time>
      </trkpt>
      <trkpt lat="45.02995" lon="5.52781">
        <ele>1108.5999755859</ele>
        <time>2024-07-14T06:33:07.000Z</time>
      </trkpt>
      <trkpt lat="45.02992" lon="5.52781">
        <ele>1108.8000488281</ele>
        <time>2024-07-14T06:33:08.000Z</time>
      </trkpt>
      <trkpt lat="45.02989" lon="5.52781">
        <ele>1108.8000488281</ele>
        <time>2024-07-14T06:33:09.000Z</time>
      </trkpt>
      <trkpt lat="45.02986" lon="5.52781">
        <ele>1109</ele>
        <time>2024-07-14T06:33:10.000Z</time>
      </trkpt>
      <trkpt lat="45.02984" lon="5.52781">
        <ele>1109</ele>
        <time>2024-07-14T06:33:11.000Z</time>
      </trkpt>
      <trkpt lat="45.02981" lon="5.52781">
        <ele>1109.1999511719</ele>
        <time>2024-07-14T06:33:12.000Z</time>
      </trkpt>
      <trkpt lat="45.02978" lon="5.52782">
        <ele>1109.1999511719</ele>
        <time>2024-07-14T06:33:13.000Z</time>
      </trkpt>
      <trkpt lat="45.02975" lon="5.52782">
        <ele>1109.4000244141</ele>
        <time>2024-07-14T06:33:14.000Z</time>
      </trkpt>
      <trkpt lat="45.02973" lon="5.52782">
        <ele>1109.5999755859</ele>
        <time>2024-07-14T06:33:15.000Z</time>
      </trkpt>
      <trkpt lat="45.0297" lon="5.52783">
        <ele>1109.8000488281</ele>
        <time>2024-07-14T06:33:16.000Z</time>
      </trkpt>
      <trkpt lat="45.02967" lon="5.52783">
        <ele>1110</ele>
        <time>2024-07-14T06:33:17.000Z</time>
      </trkpt>
      <trkpt lat="45.02965" lon="5.52783">
        <ele>1110</ele>
        <time>2024-07-14T06:33:18.000Z</time>
      </trkpt>
      <trkpt lat="45.02962" lon="5.52783">
        <ele>1110.1999511719</ele>
        <time>2024-07-14T06:33:19.000Z</time>
      </trkpt>
      <trkpt lat="45.02959" lon="5.52782">
        <ele>1110.4000244141</ele>
        <time>2024-07-14T06:33:20.000Z</time>
      </trkpt>
      <trkpt lat="45.02956" lon="5.52782">
        <ele>1110.5999755859</ele>
        <time>2024-07-14T06:33:21.000Z</time>
      </trkpt>
      <trkpt lat="45.02953" lon="5.52781">
        <ele>1110.5999755859</ele>
        <time>2024-07-14T06:33:22.000Z</time>
      </trkpt>
      <trkpt lat="45.0295" lon="5.52781">
        <ele>1110.8000488281</ele>
        <time>2024-07-14T06:33:23.000Z</time>
      </trkpt>
      <trkpt lat="45.02947" lon="5.5278">
        <ele>1111</ele>
        <time>2024-07-14T06:33:24.000Z</time>
      </trkpt>
      <trkpt lat="45.02945" lon="5.5278">
        <ele>1111</ele>
        <time>2024-07-14T06:33:25.000Z</time>
      </trkpt>
      <trkpt lat="45.02943" lon="5.5278">
        <ele>1111.1999511719</ele>
        <time>2024-07-14T06:33:26.000Z</time>
      </trkpt>
      <trkpt lat="45.0294" lon="5.5278">
        <ele>1111.4000244141</ele>
        <time>2024-07-14T06:33:27.000Z</time>
      </trkpt>
      <trkpt lat="45.02938" lon="5.5278">
        <ele>1111.5999755859</ele>
        <time>2024-07-14T06:33:28.000Z</time>
      </trkpt>
      <trkpt lat="45.02936" lon="5.52781">
        <ele>1111.8000488281</ele>
        <time>2024-07-14T06:33:29.000Z</time>
      </trkpt>
      <trkpt lat="45.02933" lon="5.52781">
        <ele>1111.8000488281</ele>
        <time>2024-07-14T06:33:30.000Z</time>
      </trkpt>
      <trkpt lat="45.02931" lon="5.5278">
        <ele>1112.1999511719</ele>
        <time>2024-07-14T06:33:31.000Z</time>
      </trkpt>
      <trkpt lat="45.02929" lon="5.52779">
        <ele>1112.5999755859</ele>
        <time>2024-07-14T06:33:32.000Z</time>
      </trkpt>
      <trkpt lat="45.02927" lon="5.52777">
        <ele>1112.8000488281</ele>
        <time>2024-07-14T06:33:33.000Z</time>
      </trkpt>
      <trkpt lat="45.02926" lon="5.52773">
        <ele>1113</ele>
        <time>2024-07-14T06:33:34.000Z</time>
      </trkpt>
      <trkpt lat="45.02925" lon="5.52769">
        <ele>1113</ele>
        <time>2024-07-14T06:33:35.000Z</time>
      </trkpt>
      <trkpt lat="45.02924" lon="5.52766">
        <ele>1113</ele>
        <time>2024-07-14T06:33:36.000Z</time>
      </trkpt>
      <trkpt lat="45.02923" lon="5.52763">
        <ele>1113</ele>
        <time>2024-07-14T06:33:37.000Z</time>
      </trkpt>
      <trkpt lat="45.02922" lon="5.5276">
        <ele>1113</ele>
        <time>2024-07-14T06:33:38.000Z</time>
      </trkpt>
      <trkpt lat="45.02921" lon="5.52756">
        <ele>1112.8000488281</ele>
        <time>2024-07-14T06:33:39.000Z</time>
      </trkpt>
      <trkpt lat="45.0292" lon="5.52753">
        <ele>1112.8000488281</ele>
        <time>2024-07-14T06:33:40.000Z</time>
      </trkpt>
      <trkpt lat="45.02919" lon="5.52751">
        <ele>1112.8000488281</ele>
        <time>2024-07-14T06:33:41.000Z</time>
      </trkpt>
      <trkpt lat="45.02917" lon="5.52748">
        <ele>1112.8000488281</ele>
        <time>2024-07-14T06:33:42.000Z</time>
      </trkpt>
      <trkpt lat="45.02916" lon="5.52746">
        <ele>1112.8000488281</ele>
        <time>2024-07-14T06:33:43.000Z</time>
      </trkpt>
      <trkpt lat="45.02914" lon="5.52744">
        <ele>1113</ele>
        <time>2024-07-14T06:33:44.000Z</time>
      </trkpt>
      <trkpt lat="45.02912" lon="5.52743">
        <ele>1113</ele>
        <time>2024-07-14T06:33:45.000Z</time>
      </trkpt>
      <trkpt lat="45.0291" lon="5.52741">
        <ele>1113.1999511719</ele>
        <time>2024-07-14T06:33:46.000Z</time>
      </trkpt>
      <trkpt lat="45.02908" lon="5.5274">
        <ele>1113.4000244141</ele>
        <time>2024-07-14T06:33:47.000Z</time>
      </trkpt>
      <trkpt lat="45.02906" lon="5.52738">
        <ele>1113.5999755859</ele>
        <time>2024-07-14T06:33:48.000Z</time>
      </trkpt>
      <trkpt lat="45.02904" lon="5.52736">
        <ele>1113.8000488281</ele>
        <time>2024-07-14T06:33:49.000Z</time>
      </trkpt>
      <trkpt lat="45.02902" lon="5.52735">
        <ele>1114</ele>
        <time>2024-07-14T06:33:50.000Z</time>
      </trkpt>
      <trkpt lat="45.02901" lon="5.52733">
        <ele>1114.1999511719</ele>
        <time>2024-07-14T06:33:51.000Z</time>
      </trkpt>
      <trkpt lat="45.02899" lon="5.52731">
        <ele>1114.5999755859</ele>
        <time>2024-07-14T06:33:52.000Z</time>
      </trkpt>
      <trkpt lat="45.02898" lon="5.5273">
        <ele>1114.8000488281</ele>
        <time>2024-07-14T06:33:53.000Z</time>
      </trkpt>
      <trkpt lat="45.02896" lon="5.52728">
        <ele>1114.8000488281</ele>
        <time>2024-07-14T06:33:54.000Z</time>
      </trkpt>
      <trkpt lat="45.02895" lon="5.52726">
        <ele>1115.1999511719</ele>
        <time>2024-07-14T06:33:55.000Z</time>
      </trkpt>
      <trkpt lat="45.02893" lon="5.52725">
        <ele>1115.4000244141</ele>
        <time>2024-07-14T06:33:56.000Z</time>
      </trkpt>
      <trkpt lat="45.02891" lon="5.52723">
        <ele>1115.4000244141</ele>
        <time>2024-07-14T06:33:57.000Z</time>
      </trkpt>
      <trkpt lat="45.0289" lon="5.52721">
        <ele>1115.5999755859</ele>
        <time>2024-07-14T06:33:58.000Z</time>
      </trkpt>
      <trkpt lat="45.02888" lon="5.52719">
        <ele>1115.5999755859</ele>
        <time>2024-07-14T06:33:59.000Z</time>
      </trkpt>
      <trkpt lat="45.02886" lon="5.52716">
        <ele>1116</ele>
        <time>2024-07-14T06:34:00.000Z</time>
      </trkpt>
      <trkpt lat="45.02884" lon="5.52714">
        <ele>1116.1999511719</ele>
        <time>2024-07-14T06:34:01.000Z</time>
      </trkpt>
      <trkpt lat="45.02882" lon="5.52712">
        <ele>1116.4000244141</ele>
        <time>2024-07-14T06:34:02.000Z</time>
      </trkpt>
      <trkpt lat="45.0288" lon="5.5271">
        <ele>1116.5999755859</ele>
        <time>2024-07-14T06:34:03.000Z</time>
      </trkpt>
      <trkpt lat="45.02879" lon="5.52708">
        <ele>1116.5999755859</ele>
        <time>2024-07-14T06:34:04.000Z</time>
      </trkpt>
      <trkpt lat="45.02877" lon="5.52706">
        <ele>1116.5999755859</ele>
        <time>2024-07-14T06:34:05.000Z</time>
      </trkpt>
      <trkpt lat="45.02874" lon="5.52704">
        <ele>1116.5999755859</ele>
        <time>2024-07-14T06:34:06.000Z</time>
      </trkpt>
      <trkpt lat="45.02872" lon="5.52703">
        <ele>1116.4000244141</ele>
        <time>2024-07-14T06:34:07.000Z</time>
      </trkpt>
      <trkpt lat="45.02869" lon="5.52702">
        <ele>1116.4000244141</ele>
        <time>2024-07-14T06:34:08.000Z</time>
      </trkpt>
      <trkpt lat="45.02867" lon="5.527">
        <ele>1116.1999511719</ele>
        <time>2024-07-14T06:34:09.000Z</time>
      </trkpt>
      <trkpt lat="45.02865" lon="5.52698">
        <ele>1116.1999511719</ele>
        <time>2024-07-14T06:34:10.000Z</time>
      </trkpt>
      <trkpt lat="45.02862" lon="5.52697">
        <ele>1116</ele>
        <time>2024-07-14T06:34:11.000Z</time>
      </trkpt>
      <trkpt lat="45.0286" lon="5.52695">
        <ele>1116</ele>
        <time>2024-07-14T06:34:12.000Z</time>
      </trkpt>
      <trkpt lat="45.02857" lon="5.52694">
        <ele>1116</ele>
        <time>2024-07-14T06:34:13.000Z</time>
      </trkpt>
      <trkpt lat="45.02854" lon="5.52692">
        <ele>1116</ele>
        <time>2024-07-14T06:34:14.000Z</time>
      </trkpt>
      <trkpt lat="45.02852" lon="5.52691">
        <ele>1116</ele>
        <time>2024-07-14T06:34:15.000Z</time>
      </trkpt>
      <trkpt lat="45.02849" lon="5.52689">
        <ele>1116</ele>
        <time>2024-07-14T06:34:16.000Z</time>
      </trkpt>
      <trkpt lat="45.02847" lon="5.52688">
        <ele>1116.1999511719</ele>
        <time>2024-07-14T06:34:17.000Z</time>
      </trkpt>
      <trkpt lat="45.02845" lon="5.52687">
        <ele>1116.4000244141</ele>
        <time>2024-07-14T06:34:18.000Z</time>
      </trkpt>
      <trkpt lat="45.02842" lon="5.52686">
        <ele>1116.4000244141</ele>
        <time>2024-07-14T06:34:19.000Z</time>
      </trkpt>
      <trkpt lat="45.0284" lon="5.52685">
        <ele>1116.5999755859</ele>
        <time>2024-07-14T06:34:20.000Z</time>
      </trkpt>
      <trkpt lat="45.02838" lon="5.52684">
        <ele>1116.8000488281</ele>
        <time>2024-07-14T06:34:21.000Z</time>
      </trkpt>
      <trkpt lat="45.02836" lon="5.52682">
        <ele>1117.1999511719</ele>
        <time>2024-07-14T06:34:22.000Z</time>
      </trkpt>
      <trkpt lat="45.02834" lon="5.52681">
        <ele>1117.4000244141</ele>
        <time>2024-07-14T06:34:23.000Z</time>
      </trkpt>
      <trkpt lat="45.02831" lon="5.5268">
        <ele>1117.4000244141</ele>
        <time>2024-07-14T06:34:24.000Z</time>
      </trkpt>
      <trkpt lat="45.02828" lon="5.52679">
        <ele>1117.5999755859</ele>
        <time>2024-07-14T06:34:25.000Z</time>
      </trkpt>
      <trkpt lat="45.02826" lon="5.52678">
        <ele>1117.8000488281</ele>
        <time>2024-07-14T06:34:26.000Z</time>
      </trkpt>
      <trkpt lat="45.02824" lon="5.52675">
        <ele>1118</ele>
        <time>2024-07-14T06:34:27.000Z</time>
      </trkpt>
      <trkpt lat="45.02822" lon="5.52672">
        <ele>1118</ele>
        <time>2024-07-14T06:34:28.000Z</time>
      </trkpt>
      <trkpt lat="45.02821" lon="5.5267">
        <ele>1118.1999511719</ele>
        <time>2024-07-14T06:34:29.000Z</time>
      </trkpt>
      <trkpt lat="45.02819" lon="5.52667">
        <ele>1118.1999511719</ele>
        <time>2024-07-14T06:34:30.000Z</time>
      </trkpt>
      <trkpt lat="45.02817" lon="5.52665">
        <ele>1118.4000244141</ele>
        <time>2024-07-14T06:34:31.000Z</time>
      </trkpt>
      <trkpt lat="45.02816" lon="5.52663">
        <ele>1118.8000488281</ele>
        <time>2024-07-14T06:34:32.000Z</time>
      </trkpt>
      <trkpt lat="45.02814" lon="5.5266">
        <ele>1119.1999511719</ele>
        <time>2024-07-14T06:34:33.000Z</time>
      </trkpt>
      <trkpt lat="45.02812" lon="5.52658">
        <ele>1119.4000244141</ele>
        <time>2024-07-14T06:34:34.000Z</time>
      </trkpt>
      <trkpt lat="45.0281" lon="5.52655">
        <ele>1119.5999755859</ele>
        <time>2024-07-14T06:34:35.000Z</time>
      </trkpt>
      <trkpt lat="45.02809" lon="5.52652">
        <ele>1119.8000488281</ele>
        <time>2024-07-14T06:34:36.000Z</time>
      </trkpt>
      <trkpt lat="45.02807" lon="5.5265">
        <ele>1120</ele>
        <time>2024-07-14T06:34:37.000Z</time>
      </trkpt>
      <trkpt lat="45.02805" lon="5.52646">
        <ele>1120.1999511719</ele>
        <time>2024-07-14T06:34:38.000Z</time>
      </trkpt>
      <trkpt lat="45.02804" lon="5.52643">
        <ele>1120.4000244141</ele>
        <time>2024-07-14T06:34:39.000Z</time>
      </trkpt>
      <trkpt lat="45.02803" lon="5.52639">
        <ele>1120.4000244141</ele>
        <time>2024-07-14T06:34:40.000Z</time>
      </trkpt>
      <trkpt lat="45.02801" lon="5.52635">
        <ele>1120.5999755859</ele>
        <time>2024-07-14T06:34:41.000Z</time>
      </trkpt>
      <trkpt lat="45.028" lon="5.52631">
        <ele>1120.5999755859</ele>
        <time>2024-07-14T06:34:42.000Z</time>
      </trkpt>
      <trkpt lat="45.02799" lon="5.52627">
        <ele>1120.5999755859</ele>
        <time>2024-07-14T06:34:43.000Z</time>
      </trkpt>
      <trkpt lat="45.02798" lon="5.52623">
        <ele>1120.5999755859</ele>
        <time>2024-07-14T06:34:44.000Z</time>
      </trkpt>
      <trkpt lat="45.02798" lon="5.52619">
        <ele>1120.8000488281</ele>
        <time>2024-07-14T06:34:45.000Z</time>
      </trkpt>
      <trkpt lat="45.02797" lon="5.52614">
        <ele>1120.8000488281</ele>
        <time>2024-07-14T06:34:46.000Z</time>
      </trkpt>
      <trkpt lat="45.02797" lon="5.5261">
        <ele>1120.8000488281</ele>
        <time>2024-07-14T06:34:47.000Z</time>
      </trkpt>
      <trkpt lat="45.02796" lon="5.52606">
        <ele>1120.8000488281</ele>
        <time>2024-07-14T06:34:48.000Z</time>
      </trkpt>
      <trkpt lat="45.02796" lon="5.52602">
        <ele>1120.8000488281</ele>
        <time>2024-07-14T06:34:49.000Z</time>
      </trkpt>
      <trkpt lat="45.02796" lon="5.52598">
        <ele>1121</ele>
        <time>2024-07-14T06:34:50.000Z</time>
      </trkpt>
      <trkpt lat="45.02796" lon="5.52594">
        <ele>1121.1999511719</ele>
        <time>2024-07-14T06:34:51.000Z</time>
      </trkpt>
      <trkpt lat="45.02796" lon="5.5259">
        <ele>1121.1999511719</ele>
        <time>2024-07-14T06:34:52.000Z</time>
      </trkpt>
      <trkpt lat="45.02796" lon="5.52587">
        <ele>1121.4000244141</ele>
        <time>2024-07-14T06:34:53.000Z</time>
      </trkpt>
      <trkpt lat="45.02796" lon="5.52583">
        <ele>1121.4000244141</ele>
        <time>2024-07-14T06:34:54.000Z</time>
      </trkpt>
      <trkpt lat="45.02796" lon="5.5258">
        <ele>1121.4000244141</ele>
        <time>2024-07-14T06:34:55.000Z</time>
      </trkpt>
      <trkpt lat="45.02796" lon="5.52576">
        <ele>1121.4000244141</ele>
        <time>2024-07-14T06:34:56.000Z</time>
      </trkpt>
      <trkpt lat="45.02795" lon="5.52572">
        <ele>1121.4000244141</ele>
        <time>2024-07-14T06:34:57.000Z</time>
      </trkpt>
      <trkpt lat="45.02795" lon="5.52568">
        <ele>1121.5999755859</ele>
        <time>2024-07-14T06:34:58.000Z</time>
      </trkpt>
      <trkpt lat="45.02795" lon="5.52564">
        <ele>1121.8000488281</ele>
        <time>2024-07-14T06:34:59.000Z</time>
      </trkpt>
      <trkpt lat="45.02795" lon="5.5256">
        <ele>1121.8000488281</ele>
        <time>2024-07-14T06:35:00.000Z</time>
      </trkpt>
      <trkpt lat="45.02794" lon="5.52556">
        <ele>1122</ele>
        <time>2024-07-14T06:35:01.000Z</time>
      </trkpt>
      <trkpt lat="45.02794" lon="5.52552">
        <ele>1122</ele>
        <time>2024-07-14T06:35:02.000Z</time>
      </trkpt>
      <trkpt lat="45.02794" lon="5.52548">
        <ele>1122.1999511719</ele>
        <time>2024-07-14T06:35:03.000Z</time>
      </trkpt>
      <trkpt lat="45.02794" lon="5.52544">
        <ele>1122.4000244141</ele>
        <time>2024-07-14T06:35:04.000Z</time>
      </trkpt>
      <trkpt lat="45.02794" lon="5.5254">
        <ele>1122.5999755859</ele>
        <time>2024-07-14T06:35:05.000Z</time>
      </trkpt>
      <trkpt lat="45.02794" lon="5.52537">
        <ele>1122.5999755859</ele>
        <time>2024-07-14T06:35:06.000Z</time>
      </trkpt>
      <trkpt lat="45.02793" lon="5.52533">
        <ele>1122.8000488281</ele>
        <time>2024-07-14T06:35:07.000Z</time>
      </trkpt>
      <trkpt lat="45.02793" lon="5.52529">
        <ele>1123</ele>
        <time>2024-07-14T06:35:08.000Z</time>
      </trkpt>
      <trkpt lat="45.02793" lon="5.52525">
        <ele>1123</ele>
        <time>2024-07-14T06:35:09.000Z</time>
      </trkpt>
      <trkpt lat="45.02793" lon="5.52521">
        <ele>1123</ele>
        <time>2024-07-14T06:35:10.000Z</time>
      </trkpt>
      <trkpt lat="45.02793" lon="5.52517">
        <ele>1123</ele>
        <time>2024-07-14T06:35:11.000Z</time>
      </trkpt>
      <trkpt lat="45.02793" lon="5.52513">
        <ele>1123</ele>
        <time>2024-07-14T06:35:12.000Z</time>
      </trkpt>
      <trkpt lat="45.02793" lon="5.52508">
        <ele>1123</ele>
        <time>2024-07-14T06:35:13.000Z</time>
      </trkpt>
      <trkpt lat="45.02794" lon="5.52505">
        <ele>1123</ele>
        <time>2024-07-14T06:35:14.000Z</time>
      </trkpt>
      <trkpt lat="45.02794" lon="5.525">
        <ele>1123</ele>
        <time>2024-07-14T06:35:15.000Z</time>
      </trkpt>
      <trkpt lat="45.02793" lon="5.52496">
        <ele>1123</ele>
        <time>2024-07-14T06:35:16.000Z</time>
      </trkpt>
      <trkpt lat="45.02793" lon="5.52492">
        <ele>1122.8000488281</ele>
        <time>2024-07-14T06:35:17.000Z</time>
      </trkpt>
      <trkpt lat="45.02792" lon="5.52489">
        <ele>1122.5999755859</ele>
        <time>2024-07-14T06:35:18.000Z</time>
      </trkpt>
      <trkpt lat="45.02791" lon="5.52485">
        <ele>1122.4000244141</ele>
        <time>2024-07-14T06:35:19.000Z</time>
      </trkpt>
      <trkpt lat="45.0279" lon="5.52481">
        <ele>1122.4000244141</ele>
        <time>2024-07-14T06:35:20.000Z</time>
      </trkpt>
      <trkpt lat="45.02789" lon="5.52477">
        <ele>1122.4000244141</ele>
        <time>2024-07-14T06:35:21.000Z</time>
      </trkpt>
      <trkpt lat="45.02788" lon="5.52474">
        <ele>1122.4000244141</ele>
        <time>2024-07-14T06:35:22.000Z</time>
      </trkpt>
      <trkpt lat="45.02786" lon="5.5247">
        <ele>1122.4000244141</ele>
        <time>2024-07-14T06:35:23.000Z</time>
      </trkpt>
      <trkpt lat="45.02785" lon="5.52468">
        <ele>1122.4000244141</ele>
        <time>2024-07-14T06:35:24.000Z</time>
      </trkpt>
      <trkpt lat="45.02783" lon="5.52465">
        <ele>1122.4000244141</ele>
        <time>2024-07-14T06:35:25.000Z</time>
      </trkpt>
      <trkpt lat="45.02781" lon="5.52462">
        <ele>1122.4000244141</ele>
        <time>2024-07-14T06:35:26.000Z</time>
      </trkpt>
      <trkpt lat="45.02779" lon="5.52459">
        <ele>1122.4000244141</ele>
        <time>2024-07-14T06:35:27.000Z</time>
      </trkpt>
      <trkpt lat="45.02777" lon="5.52456">
        <ele>1122.5999755859</ele>
        <time>2024-07-14T06:35:28.000Z</time>
      </trkpt>
      <trkpt lat="45.02776" lon="5.52452">
        <ele>1122.8000488281</ele>
        <time>2024-07-14T06:35:29.000Z</time>
      </trkpt>
      <trkpt lat="45.02774" lon="5.52449">
        <ele>1123</ele>
        <time>2024-07-14T06:35:30.000Z</time>
      </trkpt>
      <trkpt lat="45.02773" lon="5.52445">
        <ele>1123</ele>
        <time>2024-07-14T06:35:31.000Z</time>
      </trkpt>
      <trkpt lat="45.02772" lon="5.52442">
        <ele>1123</ele>
        <time>2024-07-14T06:35:32.000Z</time>
      </trkpt>
      <trkpt lat="45.02771" lon="5.52438">
        <ele>1123</ele>
        <time>2024-07-14T06:35:33.000Z</time>
      </trkpt>
      <trkpt lat="45.0277" lon="5.52434">
        <ele>1123.1999511719</ele>
        <time>2024-07-14T06:35:34.000Z</time>
      </trkpt>
      <trkpt lat="45.02769" lon="5.52431">
        <ele>1123.1999511719</ele>
        <time>2024-07-14T06:35:35.000Z</time>
      </trkpt>
      <trkpt lat="45.02768" lon="5.52428">
        <ele>1123.4000244141</ele>
        <time>2024-07-14T06:35:36.000Z</time>
      </trkpt>
      <trkpt lat="45.02767" lon="5.52424">
        <ele>1123.4000244141</ele>
        <time>2024-07-14T06:35:37.000Z</time>
      </trkpt>
      <trkpt lat="45.02766" lon="5.52421">
        <ele>1123.4000244141</ele>
        <time>2024-07-14T06:35:38.000Z</time>
      </trkpt>
      <trkpt lat="45.02764" lon="5.52417">
        <ele>1123.4000244141</ele>
        <time>2024-07-14T06:35:39.000Z</time>
      </trkpt>
      <trkpt lat="45.02764" lon="5.52413">
        <ele>1123.4000244141</ele>
        <time>2024-07-14T06:35:40.000Z</time>
      </trkpt>
      <trkpt lat="45.02762" lon="5.52409">
        <ele>1123.4000244141</ele>
        <time>2024-07-14T06:35:41.000Z</time>
      </trkpt>
      <trkpt lat="45.02761" lon="5.52405">
        <ele>1123.4000244141</ele>
        <time>2024-07-14T06:35:42.000Z</time>
      </trkpt>
      <trkpt lat="45.02759" lon="5.52402">
        <ele>1123.4000244141</ele>
        <time>2024-07-14T06:35:43.000Z</time>
      </trkpt>
      <trkpt lat="45.02758" lon="5.52399">
        <ele>1123.4000244141</ele>
        <time>2024-07-14T06:35:44.000Z</time>
      </trkpt>
      <trkpt lat="45.02757" lon="5.52395">
        <ele>1123.4000244141</ele>
        <time>2024-07-14T06:35:45.000Z</time>
      </trkpt>
      <trkpt lat="45.02755" lon="5.52391">
        <ele>1123.5999755859</ele>
        <time>2024-07-14T06:35:46.000Z</time>
      </trkpt>
      <trkpt lat="45.02754" lon="5.52387">
        <ele>1123.5999755859</ele>
        <time>2024-07-14T06:35:47.000Z</time>
      </trkpt>
      <trkpt lat="45.02752" lon="5.52384">
        <ele>1123.5999755859</ele>
        <time>2024-07-14T06:35:48.000Z</time>
      </trkpt>
      <trkpt lat="45.02751" lon="5.5238">
        <ele>1123.8000488281</ele>
        <time>2024-07-14T06:35:49.000Z</time>
      </trkpt>
      <trkpt lat="45.02749" lon="5.52377">
        <ele>1123.8000488281</ele>
        <time>2024-07-14T06:35:50.000Z</time>
      </trkpt>
      <trkpt lat="45.02748" lon="5.52374">
        <ele>1123.8000488281</ele>
        <time>2024-07-14T06:35:51.000Z</time>
      </trkpt>
      <trkpt lat="45.02746" lon="5.5237">
        <ele>1124</ele>
        <time>2024-07-14T06:35:52.000Z</time>
      </trkpt>
      <trkpt lat="45.02745" lon="5.52367">
        <ele>1124</ele>
        <time>2024-07-14T06:35:53.000Z</time>
      </trkpt>
      <trkpt lat="45.02744" lon="5.52364">
        <ele>1124</ele>
        <time>2024-07-14T06:35:54.000Z</time>
      </trkpt>
      <trkpt lat="45.02742" lon="5.5236">
        <ele>1124.1999511719</ele>
        <time>2024-07-14T06:35:55.000Z</time>
      </trkpt>
      <trkpt lat="45.02741" lon="5.52357">
        <ele>1124.1999511719</ele>
        <time>2024-07-14T06:35:56.000Z</time>
      </trkpt>
      <trkpt lat="45.0274" lon="5.52353">
        <ele>1124.1999511719</ele>
        <time>2024-07-14T06:35:57.000Z</time>
      </trkpt>
      <trkpt lat="45.02738" lon="5.52349">
        <ele>1124.1999511719</ele>
        <time>2024-07-14T06:35:58.000Z</time>
      </trkpt>
      <trkpt lat="45.02737" lon="5.52346">
        <ele>1124.1999511719</ele>
        <time>2024-07-14T06:35:59.000Z</time>
      </trkpt>
      <trkpt lat="45.02735" lon="5.52342">
        <ele>1124.1999511719</ele>
        <time>2024-07-14T06:36:00.000Z</time>
      </trkpt>
      <trkpt lat="45.02734" lon="5.52339">
        <ele>1124.1999511719</ele>
        <time>2024-07-14T06:36:01.000Z</time>
      </trkpt>
      <trkpt lat="45.02733" lon="5.52335">
        <ele>1124.1999511719</ele>
        <time>2024-07-14T06:36:02.000Z</time>
      </trkpt>
      <trkpt lat="45.02732" lon="5.52331">
        <ele>1124.1999511719</ele>
        <time>2024-07-14T06:36:03.000Z</time>
      </trkpt>
      <trkpt lat="45.02731" lon="5.52328">
        <ele>1124.1999511719</ele>
        <time>2024-07-14T06:36:04.000Z</time>
      </trkpt>
      <trkpt lat="45.02729" lon="5.52324">
        <ele>1124.1999511719</ele>
        <time>2024-07-14T06:36:05.000Z</time>
      </trkpt>
      <trkpt lat="45.02728" lon="5.5232">
        <ele>1124.1999511719</ele>
        <time>2024-07-14T06:36:06.000Z</time>
      </trkpt>
      <trkpt lat="45.02727" lon="5.52317">
        <ele>1124.1999511719</ele>
        <time>2024-07-14T06:36:07.000Z</time>
      </trkpt>
      <trkpt lat="45.02726" lon="5.52313">
        <ele>1124.1999511719</ele>
        <time>2024-07-14T06:36:08.000Z</time>
      </trkpt>
      <trkpt lat="45.02725" lon="5.5231">
        <ele>1124.1999511719</ele>
        <time>2024-07-14T06:36:09.000Z</time>
      </trkpt>
      <trkpt lat="45.02723" lon="5.52307">
        <ele>1124.1999511719</ele>
        <time>2024-07-14T06:36:10.000Z</time>
      </trkpt>
      <trkpt lat="45.02722" lon="5.52304">
        <ele>1124.1999511719</ele>
        <time>2024-07-14T06:36:11.000Z</time>
      </trkpt>
      <trkpt lat="45.0272" lon="5.52301">
        <ele>1124.1999511719</ele>
        <time>2024-07-14T06:36:12.000Z</time>
      </trkpt>
      <trkpt lat="45.02719" lon="5.52297">
        <ele>1124.1999511719</ele>
        <time>2024-07-14T06:36:13.000Z</time>
      </trkpt>
      <trkpt lat="45.02717" lon="5.52293">
        <ele>1124.1999511719</ele>
        <time>2024-07-14T06:36:14.000Z</time>
      </trkpt>
      <trkpt lat="45.02715" lon="5.5229">
        <ele>1124.1999511719</ele>
        <time>2024-07-14T06:36:15.000Z</time>
      </trkpt>
      <trkpt lat="45.02714" lon="5.52286">
        <ele>1124.1999511719</ele>
        <time>2024-07-14T06:36:16.000Z</time>
      </trkpt>
      <trkpt lat="45.02712" lon="5.52283">
        <ele>1124.1999511719</ele>
        <time>2024-07-14T06:36:17.000Z</time>
      </trkpt>
      <trkpt lat="45.02711" lon="5.52279">
        <ele>1124.1999511719</ele>
        <time>2024-07-14T06:36:18.000Z</time>
      </trkpt>
      <trkpt lat="45.0271" lon="5.52275">
        <ele>1124.1999511719</ele>
        <time>2024-07-14T06:36:19.000Z</time>
      </trkpt>
      <trkpt lat="45.02709" lon="5.52271">
        <ele>1124.4000244141</ele>
        <time>2024-07-14T06:36:20.000Z</time>
      </trkpt>
      <trkpt lat="45.02708" lon="5.52267">
        <ele>1124.4000244141</ele>
        <time>2024-07-14T06:36:21.000Z</time>
      </trkpt>
      <trkpt lat="45.02706" lon="5.52264">
        <ele>1124.4000244141</ele>
        <time>2024-07-14T06:36:22.000Z</time>
      </trkpt>
      <trkpt lat="45.02705" lon="5.5226">
        <ele>1124.4000244141</ele>
        <time>2024-07-14T06:36:23.000Z</time>
      </trkpt>
      <trkpt lat="45.02704" lon="5.52256">
        <ele>1124.4000244141</ele>
        <time>2024-07-14T06:36:24.000Z</time>
      </trkpt>
      <trkpt lat="45.02703" lon="5.52253">
        <ele>1124.4000244141</ele>
        <time>2024-07-14T06:36:25.000Z</time>
      </trkpt>
      <trkpt lat="45.02702" lon="5.52249">
        <ele>1124.4000244141</ele>
        <time>2024-07-14T06:36:26.000Z</time>
      </trkpt>
      <trkpt lat="45.027" lon="5.52246">
        <ele>1124.4000244141</ele>
        <time>2024-07-14T06:36:27.000Z</time>
      </trkpt>
      <trkpt lat="45.02698" lon="5.52243">
        <ele>1124.4000244141</ele>
        <time>2024-07-14T06:36:28.000Z</time>
      </trkpt>
      <trkpt lat="45.02696" lon="5.5224">
        <ele>1124.4000244141</ele>
        <time>2024-07-14T06:36:29.000Z</time>
      </trkpt>
      <trkpt lat="45.02695" lon="5.52237">
        <ele>1124.4000244141</ele>
        <time>2024-07-14T06:36:30.000Z</time>
      </trkpt>
      <trkpt lat="45.02693" lon="5.52235">
        <ele>1124.4000244141</ele>
        <time>2024-07-14T06:36:31.000Z</time>
      </trkpt>
      <trkpt lat="45.02691" lon="5.52233">
        <ele>1124.4000244141</ele>
        <time>2024-07-14T06:36:32.000Z</time>
      </trkpt>
      <trkpt lat="45.0269" lon="5.52232">
        <ele>1124.4000244141</ele>
        <time>2024-07-14T06:36:33.000Z</time>
      </trkpt>
      <trkpt lat="45.02689" lon="5.5223">
        <ele>1124.4000244141</ele>
        <time>2024-07-14T06:36:34.000Z</time>
      </trkpt>
      <trkpt lat="45.02687" lon="5.52228">
        <ele>1124.4000244141</ele>
        <time>2024-07-14T06:36:35.000Z</time>
      </trkpt>
      <trkpt lat="45.02686" lon="5.52226">
        <ele>1124.5999755859</ele>
        <time>2024-07-14T06:36:36.000Z</time>
      </trkpt>
      <trkpt lat="45.02684" lon="5.52225">
        <ele>1124.8000488281</ele>
        <time>2024-07-14T06:36:37.000Z</time>
      </trkpt>
      <trkpt lat="45.02682" lon="5.52224">
        <ele>1125</ele>
        <time>2024-07-14T06:36:38.000Z</time>
      </trkpt>
      <trkpt lat="45.02681" lon="5.52223">
        <ele>1125.1999511719</ele>
        <time>2024-07-14T06:36:39.000Z</time>
      </trkpt>
      <trkpt lat="45.02678" lon="5.52222">
        <ele>1125.4000244141</ele>
        <time>2024-07-14T06:36:40.000Z</time>
      </trkpt>
      <trkpt lat="45.02676" lon="5.52221">
        <ele>1125.8000488281</ele>
        <time>2024-07-14T06:36:41.000Z</time>
      </trkpt>
      <trkpt lat="45.02674" lon="5.5222">
        <ele>1126</ele>
        <time>2024-07-14T06:36:42.000Z</time>
      </trkpt>
      <trkpt lat="45.02671" lon="5.52218">
        <ele>1126.1999511719</ele>
        <time>2024-07-14T06:36:43.000Z</time>
      </trkpt>
      <trkpt lat="45.02669" lon="5.52216">
        <ele>1126.1999511719</ele>
        <time>2024-07-14T06:36:44.000Z</time>
      </trkpt>
      <trkpt lat="45.02666" lon="5.52214">
        <ele>1126.4000244141</ele>
        <time>2024-07-14T06:36:45.000Z</time>
      </trkpt>
      <trkpt lat="45.02664" lon="5.52213">
        <ele>1126.5999755859</ele>
        <time>2024-07-14T06:36:46.000Z</time>
      </trkpt>
      <trkpt lat="45.02662" lon="5.52212">
        <ele>1126.5999755859</ele>
        <time>2024-07-14T06:36:47.000Z</time>
      </trkpt>
      <trkpt lat="45.02659" lon="5.5221">
        <ele>1126.8000488281</ele>
        <time>2024-07-14T06:36:48.000Z</time>
      </trkpt>
      <trkpt lat="45.02657" lon="5.52209">
        <ele>1126.8000488281</ele>
        <time>2024-07-14T06:36:49.000Z</time>
      </trkpt>
      <trkpt lat="45.02655" lon="5.52207">
        <ele>1126.8000488281</ele>
        <time>2024-07-14T06:36:50.000Z</time>
      </trkpt>
      <trkpt lat="45.02653" lon="5.52205">
        <ele>1127.1999511719</ele>
        <time>2024-07-14T06:36:51.000Z</time>
      </trkpt>
      <trkpt lat="45.02651" lon="5.52204">
        <ele>1127.5999755859</ele>
        <time>2024-07-14T06:36:52.000Z</time>
      </trkpt>
      <trkpt lat="45.02648" lon="5.52201">
        <ele>1127.8000488281</ele>
        <time>2024-07-14T06:36:53.000Z</time>
      </trkpt>
      <trkpt lat="45.02646" lon="5.52199">
        <ele>1128</ele>
        <time>2024-07-14T06:36:54.000Z</time>
      </trkpt>
      <trkpt lat="45.02645" lon="5.52197">
        <ele>1128.1999511719</ele>
        <time>2024-07-14T06:36:55.000Z</time>
      </trkpt>
      <trkpt lat="45.02642" lon="5.52194">
        <ele>1128.4000244141</ele>
        <time>2024-07-14T06:36:56.000Z</time>
      </trkpt>
      <trkpt lat="45.02641" lon="5.52191">
        <ele>1128.4000244141</ele>
        <time>2024-07-14T06:36:57.000Z</time>
      </trkpt>
      <trkpt lat="45.02639" lon="5.52188">
        <ele>1128.4000244141</ele>
        <time>2024-07-14T06:36:58.000Z</time>
      </trkpt>
      <trkpt lat="45.02637" lon="5.52185">
        <ele>1128.5999755859</ele>
        <time>2024-07-14T06:36:59.000Z</time>
      </trkpt>
      <trkpt lat="45.02635" lon="5.52183">
        <ele>1128.5999755859</ele>
        <time>2024-07-14T06:37:00.000Z</time>
      </trkpt>
      <trkpt lat="45.02633" lon="5.5218">
        <ele>1128.8000488281</ele>
        <time>2024-07-14T06:37:01.000Z</time>
      </trkpt>
      <trkpt lat="45.02631" lon="5.52176">
        <ele>1129</ele>
        <time>2024-07-14T06:37:02.000Z</time>
      </trkpt>
      <trkpt lat="45.02629" lon="5.52174">
        <ele>1129.1999511719</ele>
        <time>2024-07-14T06:37:03.000Z</time>
      </trkpt>
      <trkpt lat="45.02627" lon="5.52171">
        <ele>1129.1999511719</ele>
        <time>2024-07-14T06:37:04.000Z</time>
      </trkpt>
      <trkpt lat="45.02626" lon="5.52168">
        <ele>1129.1999511719</ele>
        <time>2024-07-14T06:37:05.000Z</time>
      </trkpt>
      <trkpt lat="45.02624" lon="5.52166">
        <ele>1129.1999511719</ele>
        <time>2024-07-14T06:37:06.000Z</time>
      </trkpt>
      <trkpt lat="45.02622" lon="5.52163">
        <ele>1129.1999511719</ele>
        <time>2024-07-14T06:37:07.000Z</time>
      </trkpt>
      <trkpt lat="45.02621" lon="5.52161">
        <ele>1129.1999511719</ele>
        <time>2024-07-14T06:37:08.000Z</time>
      </trkpt>
      <trkpt lat="45.02619" lon="5.52158">
        <ele>1129.1999511719</ele>
        <time>2024-07-14T06:37:09.000Z</time>
      </trkpt>
      <trkpt lat="45.02617" lon="5.52155">
        <ele>1129.1999511719</ele>
        <time>2024-07-14T06:37:10.000Z</time>
      </trkpt>
      <trkpt lat="45.02615" lon="5.52153">
        <ele>1129.1999511719</ele>
        <time>2024-07-14T06:37:11.000Z</time>
      </trkpt>
      <trkpt lat="45.02613" lon="5.52151">
        <ele>1129.1999511719</ele>
        <time>2024-07-14T06:37:12.000Z</time>
      </trkpt>
      <trkpt lat="45.0261" lon="5.52148">
        <ele>1129</ele>
        <time>2024-07-14T06:37:13.000Z</time>
      </trkpt>
      <trkpt lat="45.02608" lon="5.52145">
        <ele>1129</ele>
        <time>2024-07-14T06:37:14.000Z</time>
      </trkpt>
      <trkpt lat="45.02606" lon="5.52143">
        <ele>1129</ele>
        <time>2024-07-14T06:37:15.000Z</time>
      </trkpt>
      <trkpt lat="45.02603" lon="5.52141">
        <ele>1129</ele>
        <time>2024-07-14T06:37:16.000Z</time>
      </trkpt>
      <trkpt lat="45.02601" lon="5.5214">
        <ele>1129</ele>
        <time>2024-07-14T06:37:17.000Z</time>
      </trkpt>
      <trkpt lat="45.02599" lon="5.52138">
        <ele>1129</ele>
        <time>2024-07-14T06:37:18.000Z</time>
      </trkpt>
      <trkpt lat="45.02597" lon="5.52137">
        <ele>1129</ele>
        <time>2024-07-14T06:37:19.000Z</time>
      </trkpt>
      <trkpt lat="45.02595" lon="5.52135">
        <ele>1129.1999511719</ele>
        <time>2024-07-14T06:37:20.000Z</time>
      </trkpt>
      <trkpt lat="45.02592" lon="5.52133">
        <ele>1129.1999511719</ele>
        <time>2024-07-14T06:37:21.000Z</time>
      </trkpt>
      <trkpt lat="45.0259" lon="5.52131">
        <ele>1129.1999511719</ele>
        <time>2024-07-14T06:37:22.000Z</time>
      </trkpt>
      <trkpt lat="45.02588" lon="5.52129">
        <ele>1129.4000244141</ele>
        <time>2024-07-14T06:37:23.000Z</time>
      </trkpt>
      <trkpt lat="45.02586" lon="5.52127">
        <ele>1129.5999755859</ele>
        <time>2024-07-14T06:37:24.000Z</time>
      </trkpt>
      <trkpt lat="45.02584" lon="5.52125">
        <ele>1129.5999755859</ele>
        <time>2024-07-14T06:37:25.000Z</time>
      </trkpt>
      <trkpt lat="45.02582" lon="5.52122">
        <ele>1130</ele>
        <time>2024-07-14T06:37:26.000Z</time>
      </trkpt>
      <trkpt lat="45.0258" lon="5.5212">
        <ele>1130.1999511719</ele>
        <time>2024-07-14T06:37:27.000Z</time>
      </trkpt>
      <trkpt lat="45.02578" lon="5.52117">
        <ele>1130.4000244141</ele>
        <time>2024-07-14T06:37:28.000Z</time>
      </trkpt>
      <trkpt lat="45.02576" lon="5.52114">
        <ele>1130.5999755859</ele>
        <time>2024-07-14T06:37:29.000Z</time>
      </trkpt>
      <trkpt lat="45.02575" lon="5.52111">
        <ele>1130.5999755859</ele>
        <time>2024-07-14T06:37:30.000Z</time>
      </trkpt>
      <trkpt lat="45.02574" lon="5.52107">
        <ele>1131</ele>
        <time>2024-07-14T06:37:31.000Z</time>
      </trkpt>
      <trkpt lat="45.02574" lon="5.52103">
        <ele>1131</ele>
        <time>2024-07-14T06:37:32.000Z</time>
      </trkpt>
      <trkpt lat="45.02575" lon="5.521">
        <ele>1131.1999511719</ele>
        <time>2024-07-14T06:37:33.000Z</time>
      </trkpt>
      <trkpt lat="45.02576" lon="5.52096">
        <ele>1131.1999511719</ele>
        <time>2024-07-14T06:37:34.000Z</time>
      </trkpt>
      <trkpt lat="45.02577" lon="5.52093">
        <ele>1131.1999511719</ele>
        <time>2024-07-14T06:37:35.000Z</time>
      </trkpt>
      <trkpt lat="45.02579" lon="5.5209">
        <ele>1131.1999511719</ele>
        <time>2024-07-14T06:37:36.000Z</time>
      </trkpt>
      <trkpt lat="45.02581" lon="5.52088">
        <ele>1131.1999511719</ele>
        <time>2024-07-14T06:37:37.000Z</time>
      </trkpt>
      <trkpt lat="45.02584" lon="5.52085">
        <ele>1131.1999511719</ele>
        <time>2024-07-14T06:37:38.000Z</time>
      </trkpt>
      <trkpt lat="45.02586" lon="5.52083">
        <ele>1130.8000488281</ele>
        <time>2024-07-14T06:37:39.000Z</time>
      </trkpt>
      <trkpt lat="45.02588" lon="5.52081">
        <ele>1130.5999755859</ele>
        <time>2024-07-14T06:37:40.000Z</time>
      </trkpt>
      <trkpt lat="45.02591" lon="5.52079">
        <ele>1130.4000244141</ele>
        <time>2024-07-14T06:37:41.000Z</time>
      </trkpt>
      <trkpt lat="45.02593" lon="5.52078">
        <ele>1130.1999511719</ele>
        <time>2024-07-14T06:37:42.000Z</time>
      </trkpt>
      <trkpt lat="45.02596" lon="5.52076">
        <ele>1130</ele>
        <time>2024-07-14T06:37:43.000Z</time>
      </trkpt>
      <trkpt lat="45.02599" lon="5.52073">
        <ele>1129.5999755859</ele>
        <time>2024-07-14T06:37:44.000Z</time>
      </trkpt>
      <trkpt lat="45.02601" lon="5.52071">
        <ele>1129.1999511719</ele>
        <time>2024-07-14T06:37:45.000Z</time>
      </trkpt>
      <trkpt lat="45.02604" lon="5.52068">
        <ele>1128.5999755859</ele>
        <time>2024-07-14T06:37:46.000Z</time>
      </trkpt>
      <trkpt lat="45.02606" lon="5.52066">
        <ele>1128.4000244141</ele>
        <time>2024-07-14T06:37:47.000Z</time>
      </trkpt>
      <trkpt lat="45.02608" lon="5.52064">
        <ele>1128.1999511719</ele>
        <time>2024-07-14T06:37:48.000Z</time>
      </trkpt>
      <trkpt lat="45.02608" lon="5.5206">
        <ele>1128.1999511719</ele>
        <time>2024-07-14T06:37:49.000Z</time>
      </trkpt>
      <trkpt lat="45.02607" lon="5.52056">
        <ele>1128</ele>
        <time>2024-07-14T06:37:50.000Z</time>
      </trkpt>
      <trkpt lat="45.02606" lon="5.52053">
        <ele>1128</ele>
        <time>2024-07-14T06:37:51.000Z</time>
      </trkpt>
      <trkpt lat="45.02605" lon="5.52049">
        <ele>1127.8000488281</ele>
        <time>2024-07-14T06:37:52.000Z</time>
      </trkpt>
      <trkpt lat="45.02604" lon="5.52046">
        <ele>1127.4000244141</ele>
        <time>2024-07-14T06:37:53.000Z</time>
      </trkpt>
      <trkpt lat="45.02603" lon="5.52043">
        <ele>1127.4000244141</ele>
        <time>2024-07-14T06:37:54.000Z</time>
      </trkpt>
      <trkpt lat="45.02601" lon="5.52041">
        <ele>1127.4000244141</ele>
        <time>2024-07-14T06:37:55.000Z</time>
      </trkpt>
      <trkpt lat="45.026" lon="5.52038">
        <ele>1127.4000244141</ele>
        <time>2024-07-14T06:37:56.000Z</time>
      </trkpt>
      <trkpt lat="45.02598" lon="5.52036">
        <ele>1127.4000244141</ele>
        <time>2024-07-14T06:37:57.000Z</time>
      </trkpt>
      <trkpt lat="45.02597" lon="5.52034">
        <ele>1127.5999755859</ele>
        <time>2024-07-14T06:37:58.000Z</time>
      </trkpt>
      <trkpt lat="45.02596" lon="5.52031">
        <ele>1128</ele>
        <time>2024-07-14T06:37:59.000Z</time>
      </trkpt>
      <trkpt lat="45.02595" lon="5.52029">
        <ele>1128.1999511719</ele>
        <time>2024-07-14T06:38:00.000Z</time>
      </trkpt>
      <trkpt lat="45.02594" lon="5.52026">
        <ele>1128.5999755859</ele>
        <time>2024-07-14T06:38:01.000Z</time>
      </trkpt>
      <trkpt lat="45.02593" lon="5.52024">
        <ele>1129</ele>
        <time>2024-07-14T06:38:02.000Z</time>
      </trkpt>
      <trkpt lat="45.02592" lon="5.52022">
        <ele>1129.1999511719</ele>
        <time>2024-07-14T06:38:03.000Z</time>
      </trkpt>
      <trkpt lat="45.0259" lon="5.5202">
        <ele>1129.5999755859</ele>
        <time>2024-07-14T06:38:04.000Z</time>
      </trkpt>
      <trkpt lat="45.02589" lon="5.52018">
        <ele>1129.8000488281</ele>
        <time>2024-07-14T06:38:05.000Z</time>
      </trkpt>
      <trkpt lat="45.02588" lon="5.52017">
        <ele>1130.1999511719</ele>
        <time>2024-07-14T06:38:06.000Z</time>
      </trkpt>
      <trkpt lat="45.02586" lon="5.52015">
        <ele>1130.1999511719</ele>
        <time>2024-07-14T06:38:07.000Z</time>
      </trkpt>
      <trkpt lat="45.02585" lon="5.52013">
        <ele>1130.5999755859</ele>
        <time>2024-07-14T06:38:08.000Z</time>
      </trkpt>
      <trkpt lat="45.02584" lon="5.52011">
        <ele>1131</ele>
        <time>2024-07-14T06:38:09.000Z</time>
      </trkpt>
      <trkpt lat="45.02582" lon="5.5201">
        <ele>1131.1999511719</ele>
        <time>2024-07-14T06:38:10.000Z</time>
      </trkpt>
      <trkpt lat="45.02581" lon="5.52007">
        <ele>1131.8000488281</ele>
        <time>2024-07-14T06:38:11.000Z</time>
      </trkpt>
      <trkpt lat="45.0258" lon="5.52005">
        <ele>1131.8000488281</ele>
        <time>2024-07-14T06:38:12.000Z</time>
      </trkpt>
      <trkpt lat="45.02579" lon="5.52003">
        <ele>1132.1999511719</ele>
        <time>2024-07-14T06:38:13.000Z</time>
      </trkpt>
      <trkpt lat="45.02577" lon="5.52002">
        <ele>1132.4000244141</ele>
        <time>2024-07-14T06:38:14.000Z</time>
      </trkpt>
      <trkpt lat="45.02576" lon="5.52">
        <ele>1132.8000488281</ele>
        <time>2024-07-14T06:38:15.000Z</time>
      </trkpt>
      <trkpt lat="45.02574" lon="5.51999">
        <ele>1132.8000488281</ele>
        <time>2024-07-14T06:38:16.000Z</time>
      </trkpt>
      <trkpt lat="45.02572" lon="5.51997">
        <ele>1133.4000244141</ele>
        <time>2024-07-14T06:38:17.000Z</time>
      </trkpt>
      <trkpt lat="45.02571" lon="5.51996">
        <ele>1133.4000244141</ele>
        <time>2024-07-14T06:38:18.000Z</time>
      </trkpt>
      <trkpt lat="45.0257" lon="5.51995">
        <ele>1133.5999755859</ele>
        <time>2024-07-14T06:38:19.000Z</time>
      </trkpt>
      <trkpt lat="45.02568" lon="5.51994">
        <ele>1133.8000488281</ele>
        <time>2024-07-14T06:38:20.000Z</time>
      </trkpt>
      <trkpt lat="45.02566" lon="5.51994">
        <ele>1134</ele>
        <time>2024-07-14T06:38:21.000Z</time>
      </trkpt>
      <trkpt lat="45.02565" lon="5.51993">
        <ele>1134.4000244141</ele>
        <time>2024-07-14T06:38:22.000Z</time>
      </trkpt>
      <trkpt lat="45.02563" lon="5.51993">
        <ele>1134.5999755859</ele>
        <time>2024-07-14T06:38:23.000Z</time>
      </trkpt>
      <trkpt lat="45.02562" lon="5.51992">
        <ele>1135</ele>
        <time>2024-07-14T06:38:24.000Z</time>
      </trkpt>
      <trkpt lat="45.0256" lon="5.51991">
        <ele>1135</ele>
        <time>2024-07-14T06:38:25.000Z</time>
      </trkpt>
      <trkpt lat="45.02559" lon="5.51989">
        <ele>1135.1999511719</ele>
        <time>2024-07-14T06:38:26.000Z</time>
      </trkpt>
      <trkpt lat="45.02558" lon="5.51988">
        <ele>1135.4000244141</ele>
        <time>2024-07-14T06:38:27.000Z</time>
      </trkpt>
      <trkpt lat="45.02556" lon="5.51987">
        <ele>1135.8000488281</ele>
        <time>2024-07-14T06:38:28.000Z</time>
      </trkpt>
      <trkpt lat="45.02554" lon="5.51986">
        <ele>1136.1999511719</ele>
        <time>2024-07-14T06:38:29.000Z</time>
      </trkpt>
      <trkpt lat="45.02553" lon="5.51984">
        <ele>1136.4000244141</ele>
        <time>2024-07-14T06:38:30.000Z</time>
      </trkpt>
      <trkpt lat="45.02551" lon="5.51984">
        <ele>1136.8000488281</ele>
        <time>2024-07-14T06:38:31.000Z</time>
      </trkpt>
      <trkpt lat="45.0255" lon="5.51982">
        <ele>1137.1999511719</ele>
        <time>2024-07-14T06:38:32.000Z</time>
      </trkpt>
      <trkpt lat="45.02549" lon="5.5198">
        <ele>1137.4000244141</ele>
        <time>2024-07-14T06:38:33.000Z</time>
      </trkpt>
      <trkpt lat="45.02547" lon="5.51979">
        <ele>1137.5999755859</ele>
        <time>2024-07-14T06:38:34.000Z</time>
      </trkpt>
      <trkpt lat="45.02546" lon="5.51977">
        <ele>1138</ele>
        <time>2024-07-14T06:38:35.000Z</time>
      </trkpt>
      <trkpt lat="45.02545" lon="5.51974">
        <ele>1138.1999511719</ele>
        <time>2024-07-14T06:38:36.000Z</time>
      </trkpt>
      <trkpt lat="45.02543" lon="5.51972">
        <ele>1138.4000244141</ele>
        <time>2024-07-14T06:38:37.000Z</time>
      </trkpt>
      <trkpt lat="45.02542" lon="5.51971">
        <ele>1138.5999755859</ele>
        <time>2024-07-14T06:38:38.000Z</time>
      </trkpt>
      <trkpt lat="45.0254" lon="5.51969">
        <ele>1138.8000488281</ele>
        <time>2024-07-14T06:38:39.000Z</time>
      </trkpt>
      <trkpt lat="45.02538" lon="5.51967">
        <ele>1139.1999511719</ele>
        <time>2024-07-14T06:38:40.000Z</time>
      </trkpt>
      <trkpt lat="45.02537" lon="5.51965">
        <ele>1139.4000244141</ele>
        <time>2024-07-14T06:38:41.000Z</time>
      </trkpt>
      <trkpt lat="45.02535" lon="5.51964">
        <ele>1139.5999755859</ele>
        <time>2024-07-14T06:38:42.000Z</time>
      </trkpt>
      <trkpt lat="45.02532" lon="5.51962">
        <ele>1139.5999755859</ele>
        <time>2024-07-14T06:38:43.000Z</time>
      </trkpt>
      <trkpt lat="45.0253" lon="5.5196">
        <ele>1139.5999755859</ele>
        <time>2024-07-14T06:38:44.000Z</time>
      </trkpt>
      <trkpt lat="45.02527" lon="5.51958">
        <ele>1139.5999755859</ele>
        <time>2024-07-14T06:38:45.000Z</time>
      </trkpt>
      <trkpt lat="45.02525" lon="5.51956">
        <ele>1139.5999755859</ele>
        <time>2024-07-14T06:38:46.000Z</time>
      </trkpt>
      <trkpt lat="45.02523" lon="5.51955">
        <ele>1139.5999755859</ele>
        <time>2024-07-14T06:38:47.000Z</time>
      </trkpt>
      <trkpt lat="45.02521" lon="5.51952">
        <ele>1139.5999755859</ele>
        <time>2024-07-14T06:38:48.000Z</time>
      </trkpt>
      <trkpt lat="45.02519" lon="5.51949">
        <ele>1139.5999755859</ele>
        <time>2024-07-14T06:38:49.000Z</time>
      </trkpt>
      <trkpt lat="45.02517" lon="5.51947">
        <ele>1139.5999755859</ele>
        <time>2024-07-14T06:38:50.000Z</time>
      </trkpt>
      <trkpt lat="45.02516" lon="5.51943">
        <ele>1139.5999755859</ele>
        <time>2024-07-14T06:38:51.000Z</time>
      </trkpt>
      <trkpt lat="45.02515" lon="5.5194">
        <ele>1139.5999755859</ele>
        <time>2024-07-14T06:38:52.000Z</time>
      </trkpt>
      <trkpt lat="45.02514" lon="5.51937">
        <ele>1140</ele>
        <time>2024-07-14T06:38:53.000Z</time>
      </trkpt>
      <trkpt lat="45.02513" lon="5.51934">
        <ele>1140.1999511719</ele>
        <time>2024-07-14T06:38:54.000Z</time>
      </trkpt>
      <trkpt lat="45.02512" lon="5.51931">
        <ele>1140.1999511719</ele>
        <time>2024-07-14T06:38:55.000Z</time>
      </trkpt>
      <trkpt lat="45.02511" lon="5.51929">
        <ele>1140.5999755859</ele>
        <time>2024-07-14T06:38:56.000Z</time>
      </trkpt>
      <trkpt lat="45.0251" lon="5.51926">
        <ele>1140.8000488281</ele>
        <time>2024-07-14T06:38:57.000Z</time>
      </trkpt>
      <trkpt lat="45.02509" lon="5.51924">
        <ele>1141.1999511719</ele>
        <time>2024-07-14T06:38:58.000Z</time>
      </trkpt>
      <trkpt lat="45.02508" lon="5.51922">
        <ele>1141.1999511719</ele>
        <time>2024-07-14T06:38:59.000Z</time>
      </trkpt>
      <trkpt lat="45.02507" lon="5.51919">
        <ele>1141.4000244141</ele>
        <time>2024-07-14T06:39:00.000Z</time>
      </trkpt>
      <trkpt lat="45.02506" lon="5.51916">
        <ele>1141.5999755859</ele>
        <time>2024-07-14T06:39:01.000Z</time>
      </trkpt>
      <trkpt lat="45.02505" lon="5.51914">
        <ele>1141.8000488281</ele>
        <time>2024-07-14T06:39:02.000Z</time>
      </trkpt>
      <trkpt lat="45.02505" lon="5.51911">
        <ele>1142</ele>
        <time>2024-07-14T06:39:03.000Z</time>
      </trkpt>
      <trkpt lat="45.02504" lon="5.51908">
        <ele>1142</ele>
        <time>2024-07-14T06:39:04.000Z</time>
      </trkpt>
      <trkpt lat="45.02503" lon="5.51906">
        <ele>1142.4000244141</ele>
        <time>2024-07-14T06:39:05.000Z</time>
      </trkpt>
      <trkpt lat="45.02502" lon="5.51904">
        <ele>1142.8000488281</ele>
        <time>2024-07-14T06:39:06.000Z</time>
      </trkpt>
      <trkpt lat="45.02502" lon="5.51901">
        <ele>1143</ele>
        <time>2024-07-14T06:39:07.000Z</time>
      </trkpt>
      <trkpt lat="45.02501" lon="5.51899">
        <ele>1143.1999511719</ele>
        <time>2024-07-14T06:39:08.000Z</time>
      </trkpt>
      <trkpt lat="45.025" lon="5.51897">
        <ele>1143.4000244141</ele>
        <time>2024-07-14T06:39:09.000Z</time>
      </trkpt>
      <trkpt lat="45.02499" lon="5.51895">
        <ele>1143.5999755859</ele>
        <time>2024-07-14T06:39:10.000Z</time>
      </trkpt>
      <trkpt lat="45.02498" lon="5.51893">
        <ele>1143.8000488281</ele>
        <time>2024-07-14T06:39:11.000Z</time>
      </trkpt>
      <trkpt lat="45.02497" lon="5.51891">
        <ele>1144</ele>
        <time>2024-07-14T06:39:12.000Z</time>
      </trkpt>
      <trkpt lat="45.02496" lon="5.51889">
        <ele>1144.1999511719</ele>
        <time>2024-07-14T06:39:13.000Z</time>
      </trkpt>
      <trkpt lat="45.02495" lon="5.51886">
        <ele>1144.5999755859</ele>
        <time>2024-07-14T06:39:14.000Z</time>
      </trkpt>
      <trkpt lat="45.02493" lon="5.51885">
        <ele>1144.8000488281</ele>
        <time>2024-07-14T06:39:15.000Z</time>
      </trkpt>
      <trkpt lat="45.02492" lon="5.51883">
        <ele>1144.8000488281</ele>
        <time>2024-07-14T06:39:16.000Z</time>
      </trkpt>
      <trkpt lat="45.0249" lon="5.51881">
        <ele>1145</ele>
        <time>2024-07-14T06:39:17.000Z</time>
      </trkpt>
      <trkpt lat="45.02489" lon="5.51879">
        <ele>1145</ele>
        <time>2024-07-14T06:39:18.000Z</time>
      </trkpt>
      <trkpt lat="45.02487" lon="5.51877">
        <ele>1145.4000244141</ele>
        <time>2024-07-14T06:39:19.000Z</time>
      </trkpt>
      <trkpt lat="45.02486" lon="5.51874">
        <ele>1145.5999755859</ele>
        <time>2024-07-14T06:39:20.000Z</time>
      </trkpt>
      <trkpt lat="45.02485" lon="5.51873">
        <ele>1145.8000488281</ele>
        <time>2024-07-14T06:39:21.000Z</time>
      </trkpt>
      <trkpt lat="45.02484" lon="5.51871">
        <ele>1146.1999511719</ele>
        <time>2024-07-14T06:39:22.000Z</time>
      </trkpt>
      <trkpt lat="45.02482" lon="5.5187">
        <ele>1146.4000244141</ele>
        <time>2024-07-14T06:39:23.000Z</time>
      </trkpt>
      <trkpt lat="45.0248" lon="5.51869">
        <ele>1146.8000488281</ele>
        <time>2024-07-14T06:39:24.000Z</time>
      </trkpt>
      <trkpt lat="45.02478" lon="5.51868">
        <ele>1147.1999511719</ele>
        <time>2024-07-14T06:39:25.000Z</time>
      </trkpt>
      <trkpt lat="45.02476" lon="5.51865">
        <ele>1147.4000244141</ele>
        <time>2024-07-14T06:39:26.000Z</time>
      </trkpt>
      <trkpt lat="45.02474" lon="5.51863">
        <ele>1147.5999755859</ele>
        <time>2024-07-14T06:39:27.000Z</time>
      </trkpt>
      <trkpt lat="45.02472" lon="5.51861">
        <ele>1148</ele>
        <time>2024-07-14T06:39:28.000Z</time>
      </trkpt>
      <trkpt lat="45.02471" lon="5.51857">
        <ele>1148.1999511719</ele>
        <time>2024-07-14T06:39:29.000Z</time>
      </trkpt>
      <trkpt lat="45.02469" lon="5.51855">
        <ele>1148.4000244141</ele>
        <time>2024-07-14T06:39:30.000Z</time>
      </trkpt>
      <trkpt lat="45.02468" lon="5.51852">
        <ele>1148.4000244141</ele>
        <time>2024-07-14T06:39:31.000Z</time>
      </trkpt>
      <trkpt lat="45.02466" lon="5.51848">
        <ele>1148.4000244141</ele>
        <time>2024-07-14T06:39:32.000Z</time>
      </trkpt>
      <trkpt lat="45.02465" lon="5.51846">
        <ele>1148.4000244141</ele>
        <time>2024-07-14T06:39:33.000Z</time>
      </trkpt>
      <trkpt lat="45.02464" lon="5.51843">
        <ele>1148.4000244141</ele>
        <time>2024-07-14T06:39:34.000Z</time>
      </trkpt>
      <trkpt lat="45.02463" lon="5.5184">
        <ele>1148.4000244141</ele>
        <time>2024-07-14T06:39:35.000Z</time>
      </trkpt>
      <trkpt lat="45.02462" lon="5.51838">
        <ele>1148.4000244141</ele>
        <time>2024-07-14T06:39:36.000Z</time>
      </trkpt>
      <trkpt lat="45.0246" lon="5.51835">
        <ele>1148.1999511719</ele>
        <time>2024-07-14T06:39:37.000Z</time>
      </trkpt>
      <trkpt lat="45.02459" lon="5.51833">
        <ele>1148</ele>
        <time>2024-07-14T06:39:38.000Z</time>
      </trkpt>
      <trkpt lat="45.02457" lon="5.5183">
        <ele>1147.8000488281</ele>
        <time>2024-07-14T06:39:39.000Z</time>
      </trkpt>
      <trkpt lat="45.02455" lon="5.51826">
        <ele>1147.4000244141</ele>
        <time>2024-07-14T06:39:40.000Z</time>
      </trkpt>
      <trkpt lat="45.02453" lon="5.51823">
        <ele>1147</ele>
        <time>2024-07-14T06:39:41.000Z</time>
      </trkpt>
      <trkpt lat="45.02451" lon="5.5182">
        <ele>1146.5999755859</ele>
        <time>2024-07-14T06:39:42.000Z</time>
      </trkpt>
      <trkpt lat="45.02449" lon="5.51817">
        <ele>1146.1999511719</ele>
        <time>2024-07-14T06:39:43.000Z</time>
      </trkpt>
      <trkpt lat="45.02448" lon="5.51814">
        <ele>1145.8000488281</ele>
        <time>2024-07-14T06:39:44.000Z</time>
      </trkpt>
      <trkpt lat="45.02446" lon="5.5181">
        <ele>1145.8000488281</ele>
        <time>2024-07-14T06:39:45.000Z</time>
      </trkpt>
      <trkpt lat="45.02444" lon="5.51807">
        <ele>1145.8000488281</ele>
        <time>2024-07-14T06:39:46.000Z</time>
      </trkpt>
      <trkpt lat="45.02443" lon="5.51804">
        <ele>1145.8000488281</ele>
        <time>2024-07-14T06:39:47.000Z</time>
      </trkpt>
      <trkpt lat="45.02441" lon="5.51801">
        <ele>1145.8000488281</ele>
        <time>2024-07-14T06:39:48.000Z</time>
      </trkpt>
      <trkpt lat="45.0244" lon="5.51797">
        <ele>1145.8000488281</ele>
        <time>2024-07-14T06:39:49.000Z</time>
      </trkpt>
      <trkpt lat="45.02438" lon="5.51794">
        <ele>1145.5999755859</ele>
        <time>2024-07-14T06:39:50.000Z</time>
      </trkpt>
      <trkpt lat="45.02436" lon="5.5179">
        <ele>1145.5999755859</ele>
        <time>2024-07-14T06:39:51.000Z</time>
      </trkpt>
      <trkpt lat="45.02435" lon="5.51787">
        <ele>1145.5999755859</ele>
        <time>2024-07-14T06:39:52.000Z</time>
      </trkpt>
      <trkpt lat="45.02433" lon="5.51784">
        <ele>1145.8000488281</ele>
        <time>2024-07-14T06:39:53.000Z</time>
      </trkpt>
      <trkpt lat="45.02431" lon="5.51782">
        <ele>1145.8000488281</ele>
        <time>2024-07-14T06:39:54.000Z</time>
      </trkpt>
      <trkpt lat="45.02429" lon="5.5178">
        <ele>1146</ele>
        <time>2024-07-14T06:39:55.000Z</time>
      </trkpt>
      <trkpt lat="45.02427" lon="5.51778">
        <ele>1146.1999511719</ele>
        <time>2024-07-14T06:39:56.000Z</time>
      </trkpt>
      <trkpt lat="45.02425" lon="5.51777">
        <ele>1146.4000244141</ele>
        <time>2024-07-14T06:39:57.000Z</time>
      </trkpt>
      <trkpt lat="45.02422" lon="5.51775">
        <ele>1146.5999755859</ele>
        <time>2024-07-14T06:39:58.000Z</time>
      </trkpt>
      <trkpt lat="45.0242" lon="5.51773">
        <ele>1146.5999755859</ele>
        <time>2024-07-14T06:39:59.000Z</time>
      </trkpt>
      <trkpt lat="45.02418" lon="5.51772">
        <ele>1146.8000488281</ele>
        <time>2024-07-14T06:40:00.000Z</time>
      </trkpt>
      <trkpt lat="45.02416" lon="5.5177">
        <ele>1147</ele>
        <time>2024-07-14T06:40:01.000Z</time>
      </trkpt>
      <trkpt lat="45.02414" lon="5.51768">
        <ele>1147</ele>
        <time>2024-07-14T06:40:02.000Z</time>
      </trkpt>
      <trkpt lat="45.02412" lon="5.51767">
        <ele>1147.1999511719</ele>
        <time>2024-07-14T06:40:03.000Z</time>
      </trkpt>
      <trkpt lat="45.02409" lon="5.51765">
        <ele>1147.4000244141</ele>
        <time>2024-07-14T06:40:04.000Z</time>
      </trkpt>
      <trkpt lat="45.02408" lon="5.51765">
        <ele>1147.5999755859</ele>
        <time>2024-07-14T06:40:05.000Z</time>
      </trkpt>
      <trkpt lat="45.02405" lon="5.51764">
        <ele>1147.5999755859</ele>
        <time>2024-07-14T06:40:06.000Z</time>
      </trkpt>
      <trkpt lat="45.02403" lon="5.51763">
        <ele>1148</ele>
        <time>2024-07-14T06:40:07.000Z</time>
      </trkpt>
      <trkpt lat="45.02402" lon="5.51762">
        <ele>1148</ele>
        <time>2024-07-14T06:40:08.000Z</time>
      </trkpt>
      <trkpt lat="45.02399" lon="5.51761">
        <ele>1148</ele>
        <time>2024-07-14T06:40:09.000Z</time>
      </trkpt>
      <trkpt lat="45.02397" lon="5.5176">
        <ele>1148.1999511719</ele>
        <time>2024-07-14T06:40:10.000Z</time>
      </trkpt>
      <trkpt lat="45.02395" lon="5.51759">
        <ele>1148.1999511719</ele>
        <time>2024-07-14T06:40:11.000Z</time>
      </trkpt>
      <trkpt lat="45.02392" lon="5.51758">
        <ele>1148.4000244141</ele>
        <time>2024-07-14T06:40:12.000Z</time>
      </trkpt>
      <trkpt lat="45.0239" lon="5.51758">
        <ele>1148.5999755859</ele>
        <time>2024-07-14T06:40:13.000Z</time>
      </trkpt>
      <trkpt lat="45.02387" lon="5.51757">
        <ele>1148.8000488281</ele>
        <time>2024-07-14T06:40:14.000Z</time>
      </trkpt>
      <trkpt lat="45.02384" lon="5.51757">
        <ele>1149</ele>
        <time>2024-07-14T06:40:15.000Z</time>
      </trkpt>
      <trkpt lat="45.02382" lon="5.51757">
        <ele>1149.1999511719</ele>
        <time>2024-07-14T06:40:16.000Z</time>
      </trkpt>
      <trkpt lat="45.02379" lon="5.51757">
        <ele>1149.4000244141</ele>
        <time>2024-07-14T06:40:17.000Z</time>
      </trkpt>
      <trkpt lat="45.02377" lon="5.51756">
        <ele>1149.5999755859</ele>
        <time>2024-07-14T06:40:18.000Z</time>
      </trkpt>
      <trkpt lat="45.02375" lon="5.51756">
        <ele>1149.5999755859</ele>
        <time>2024-07-14T06:40:19.000Z</time>
      </trkpt>
      <trkpt lat="45.02371" lon="5.51756">
        <ele>1149.5999755859</ele>
        <time>2024-07-14T06:40:20.000Z</time>
      </trkpt>
      <trkpt lat="45.02369" lon="5.51756">
        <ele>1149.8000488281</ele>
        <time>2024-07-14T06:40:21.000Z</time>
      </trkpt>
      <trkpt lat="45.02366" lon="5.51756">
        <ele>1149.8000488281</ele>
        <time>2024-07-14T06:40:22.000Z</time>
      </trkpt>
      <trkpt lat="45.02363" lon="5.51755">
        <ele>1150</ele>
        <time>2024-07-14T06:40:23.000Z</time>
      </trkpt>
      <trkpt lat="45.02361" lon="5.51755">
        <ele>1150</ele>
        <time>2024-07-14T06:40:24.000Z</time>
      </trkpt>
      <trkpt lat="45.02358" lon="5.51754">
        <ele>1150.1999511719</ele>
        <time>2024-07-14T06:40:25.000Z</time>
      </trkpt>
      <trkpt lat="45.02356" lon="5.51753">
        <ele>1150.1999511719</ele>
        <time>2024-07-14T06:40:26.000Z</time>
      </trkpt>
      <trkpt lat="45.02353" lon="5.51752">
        <ele>1150.1999511719</ele>
        <time>2024-07-14T06:40:27.000Z</time>
      </trkpt>
      <trkpt lat="45.0235" lon="5.51751">
        <ele>1150.1999511719</ele>
        <time>2024-07-14T06:40:28.000Z</time>
      </trkpt>
      <trkpt lat="45.02348" lon="5.51748">
        <ele>1150.1999511719</ele>
        <time>2024-07-14T06:40:29.000Z</time>
      </trkpt>
      <trkpt lat="45.02345" lon="5.51746">
        <ele>1150.4000244141</ele>
        <time>2024-07-14T06:40:30.000Z</time>
      </trkpt>
      <trkpt lat="45.02343" lon="5.51744">
        <ele>1150.4000244141</ele>
        <time>2024-07-14T06:40:31.000Z</time>
      </trkpt>
      <trkpt lat="45.02341" lon="5.51741">
        <ele>1150.4000244141</ele>
        <time>2024-07-14T06:40:32.000Z</time>
      </trkpt>
      <trkpt lat="45.02339" lon="5.51739">
        <ele>1150.4000244141</ele>
        <time>2024-07-14T06:40:33.000Z</time>
      </trkpt>
      <trkpt lat="45.02337" lon="5.51737">
        <ele>1150.5999755859</ele>
        <time>2024-07-14T06:40:34.000Z</time>
      </trkpt>
      <trkpt lat="45.02335" lon="5.51735">
        <ele>1150.8000488281</ele>
        <time>2024-07-14T06:40:35.000Z</time>
      </trkpt>
      <trkpt lat="45.02333" lon="5.51733">
        <ele>1151</ele>
        <time>2024-07-14T06:40:36.000Z</time>
      </trkpt>
      <trkpt lat="45.02331" lon="5.5173">
        <ele>1151.1999511719</ele>
        <time>2024-07-14T06:40:37.000Z</time>
      </trkpt>
      <trkpt lat="45.0233" lon="5.51728">
        <ele>1151.4000244141</ele>
        <time>2024-07-14T06:40:38.000Z</time>
      </trkpt>
      <trkpt lat="45.02329" lon="5.51725">
        <ele>1151.5999755859</ele>
        <time>2024-07-14T06:40:39.000Z</time>
      </trkpt>
      <trkpt lat="45.02328" lon="5.51722">
        <ele>1151.8000488281</ele>
        <time>2024-07-14T06:40:40.000Z</time>
      </trkpt>
      <trkpt lat="45.02326" lon="5.5172">
        <ele>1152.1999511719</ele>
        <time>2024-07-14T06:40:41.000Z</time>
      </trkpt>
      <trkpt lat="45.02325" lon="5.51717">
        <ele>1152.1999511719</ele>
        <time>2024-07-14T06:40:42.000Z</time>
      </trkpt>
      <trkpt lat="45.02324" lon="5.51715">
        <ele>1152.4000244141</ele>
        <time>2024-07-14T06:40:43.000Z</time>
      </trkpt>
      <trkpt lat="45.02323" lon="5.51713">
        <ele>1152.5999755859</ele>
        <time>2024-07-14T06:40:44.000Z</time>
      </trkpt>
      <trkpt lat="45.02322" lon="5.51711">
        <ele>1152.5999755859</ele>
        <time>2024-07-14T06:40:45.000Z</time>
      </trkpt>
      <trkpt lat="45.02321" lon="5.51708">
        <ele>1153</ele>
        <time>2024-07-14T06:40:46.000Z</time>
      </trkpt>
      <trkpt lat="45.02321" lon="5.51706">
        <ele>1153.4000244141</ele>
        <time>2024-07-14T06:40:47.000Z</time>
      </trkpt>
      <trkpt lat="45.02321" lon="5.51703">
        <ele>1154</ele>
        <time>2024-07-14T06:40:48.000Z</time>
      </trkpt>
      <trkpt lat="45.02322" lon="5.517">
        <ele>1154.4000244141</ele>
        <time>2024-07-14T06:40:49.000Z</time>
      </trkpt>
      <trkpt lat="45.02323" lon="5.51698">
        <ele>1154.8000488281</ele>
        <time>2024-07-14T06:40:50.000Z</time>
      </trkpt>
      <trkpt lat="45.02323" lon="5.51696">
        <ele>1155.1999511719</ele>
        <time>2024-07-14T06:40:51.000Z</time>
      </trkpt>
      <trkpt lat="45.02324" lon="5.51695">
        <ele>1155.5999755859</ele>
        <time>2024-07-14T06:40:52.000Z</time>
      </trkpt>
      <trkpt lat="45.02324" lon="5.51693">
        <ele>1156</ele>
        <time>2024-07-14T06:40:53.000Z</time>
      </trkpt>
      <trkpt lat="45.02325" lon="5.5169">
        <ele>1156.4000244141</ele>
        <time>2024-07-14T06:40:54.000Z</time>
      </trkpt>
      <trkpt lat="45.02325" lon="5.51689">
        <ele>1157</ele>
        <time>2024-07-14T06:40:55.000Z</time>
      </trkpt>
      <trkpt lat="45.02325" lon="5.51687">
        <ele>1157.1999511719</ele>
        <time>2024-07-14T06:40:56.000Z</time>
      </trkpt>
      <trkpt lat="45.02326" lon="5.51685">
        <ele>1157.5999755859</ele>
        <time>2024-07-14T06:40:57.000Z</time>
      </trkpt>
      <trkpt lat="45.02327" lon="5.51683">
        <ele>1158.1999511719</ele>
        <time>2024-07-14T06:40:58.000Z</time>
      </trkpt>
      <trkpt lat="45.02327" lon="5.51681">
        <ele>1158.5999755859</ele>
        <time>2024-07-14T06:40:59.000Z</time>
      </trkpt>
      <trkpt lat="45.02328" lon="5.51678">
        <ele>1158.8000488281</ele>
        <time>2024-07-14T06:41:00.000Z</time>
      </trkpt>
      <trkpt lat="45.02329" lon="5.51676">
        <ele>1159</ele>
        <time>2024-07-14T06:41:01.000Z</time>
      </trkpt>
      <trkpt lat="45.02331" lon="5.51674">
        <ele>1159.5999755859</ele>
        <time>2024-07-14T06:41:02.000Z</time>
      </trkpt>
      <trkpt lat="45.02332" lon="5.51672">
        <ele>1159.8000488281</ele>
        <time>2024-07-14T06:41:03.000Z</time>
      </trkpt>
      <trkpt lat="45.02335" lon="5.51671">
        <ele>1160</ele>
        <time>2024-07-14T06:41:04.000Z</time>
      </trkpt>
      <trkpt lat="45.02337" lon="5.5167">
        <ele>1160.1999511719</ele>
        <time>2024-07-14T06:41:05.000Z</time>
      </trkpt>
      <trkpt lat="45.02339" lon="5.51669">
        <ele>1160.4000244141</ele>
        <time>2024-07-14T06:41:06.000Z</time>
      </trkpt>
      <trkpt lat="45.02341" lon="5.51669">
        <ele>1160.5999755859</ele>
        <time>2024-07-14T06:41:07.000Z</time>
      </trkpt>
      <trkpt lat="45.02344" lon="5.51668">
        <ele>1160.8000488281</ele>
        <time>2024-07-14T06:41:08.000Z</time>
      </trkpt>
      <trkpt lat="45.02346" lon="5.51667">
        <ele>1160.8000488281</ele>
        <time>2024-07-14T06:41:09.000Z</time>
      </trkpt>
      <trkpt lat="45.02349" lon="5.51667">
        <ele>1161</ele>
        <time>2024-07-14T06:41:10.000Z</time>
      </trkpt>
      <trkpt lat="45.02352" lon="5.51666">
        <ele>1161</ele>
        <time>2024-07-14T06:41:11.000Z</time>
      </trkpt>
      <trkpt lat="45.02354" lon="5.51665">
        <ele>1161.1999511719</ele>
        <time>2024-07-14T06:41:12.000Z</time>
      </trkpt>
      <trkpt lat="45.02357" lon="5.51664">
        <ele>1161.1999511719</ele>
        <time>2024-07-14T06:41:13.000Z</time>
      </trkpt>
      <trkpt lat="45.02359" lon="5.51664">
        <ele>1161.1999511719</ele>
        <time>2024-07-14T06:41:14.000Z</time>
      </trkpt>
      <trkpt lat="45.02362" lon="5.51663">
        <ele>1161.4000244141</ele>
        <time>2024-07-14T06:41:15.000Z</time>
      </trkpt>
      <trkpt lat="45.02364" lon="5.51662">
        <ele>1161.4000244141</ele>
        <time>2024-07-14T06:41:16.000Z</time>
      </trkpt>
      <trkpt lat="45.02366" lon="5.5166">
        <ele>1161.4000244141</ele>
        <time>2024-07-14T06:41:17.000Z</time>
      </trkpt>
      <trkpt lat="45.02368" lon="5.51658">
        <ele>1161.4000244141</ele>
        <time>2024-07-14T06:41:18.000Z</time>
      </trkpt>
      <trkpt lat="45.0237" lon="5.51654">
        <ele>1161.4000244141</ele>
        <time>2024-07-14T06:41:19.000Z</time>
      </trkpt>
      <trkpt lat="45.0237" lon="5.51652">
        <ele>1161.4000244141</ele>
        <time>2024-07-14T06:41:20.000Z</time>
      </trkpt>
      <trkpt lat="45.02371" lon="5.51649">
        <ele>1161.4000244141</ele>
        <time>2024-07-14T06:41:21.000Z</time>
      </trkpt>
      <trkpt lat="45.0237" lon="5.51646">
        <ele>1161.5999755859</ele>
        <time>2024-07-14T06:41:22.000Z</time>
      </trkpt>
      <trkpt lat="45.02369" lon="5.51644">
        <ele>1161.5999755859</ele>
        <time>2024-07-14T06:41:23.000Z</time>
      </trkpt>
      <trkpt lat="45.02368" lon="5.51641">
        <ele>1161.8000488281</ele>
        <time>2024-07-14T06:41:24.000Z</time>
      </trkpt>
      <trkpt lat="45.02366" lon="5.51639">
        <ele>1162</ele>
        <time>2024-07-14T06:41:25.000Z</time>
      </trkpt>
      <trkpt lat="45.02365" lon="5.51638">
        <ele>1162.4000244141</ele>
        <time>2024-07-14T06:41:26.000Z</time>
      </trkpt>
      <trkpt lat="45.02364" lon="5.51636">
        <ele>1162.5999755859</ele>
        <time>2024-07-14T06:41:27.000Z</time>
      </trkpt>
      <trkpt lat="45.02364" lon="5.51633">
        <ele>1163</ele>
        <time>2024-07-14T06:41:28.000Z</time>
      </trkpt>
      <trkpt lat="45.02363" lon="5.51631">
        <ele>1163.4000244141</ele>
        <time>2024-07-14T06:41:29.000Z</time>
      </trkpt>
      <trkpt lat="45.02363" lon="5.51629">
        <ele>1163.8000488281</ele>
        <time>2024-07-14T06:41:30.000Z</time>
      </trkpt>
      <trkpt lat="45.02363" lon="5.51626">
        <ele>1164.1999511719</ele>
        <time>2024-07-14T06:41:31.000Z</time>
      </trkpt>
      <trkpt lat="45.02364" lon="5.51624">
        <ele>1164.4000244141</ele>
        <time>2024-07-14T06:41:32.000Z</time>
      </trkpt>
      <trkpt lat="45.02364" lon="5.51622">
        <ele>1164.8000488281</ele>
        <time>2024-07-14T06:41:33.000Z</time>
      </trkpt>
      <trkpt lat="45.02365" lon="5.51619">
        <ele>1165</ele>
        <time>2024-07-14T06:41:34.000Z</time>
      </trkpt>
      <trkpt lat="45.02367" lon="5.51618">
        <ele>1165.1999511719</ele>
        <time>2024-07-14T06:41:35.000Z</time>
      </trkpt>
      <trkpt lat="45.02368" lon="5.51616">
        <ele>1165.5999755859</ele>
        <time>2024-07-14T06:41:36.000Z</time>
      </trkpt>
      <trkpt lat="45.02369" lon="5.51614">
        <ele>1166</ele>
        <time>2024-07-14T06:41:37.000Z</time>
      </trkpt>
      <trkpt lat="45.0237" lon="5.51612">
        <ele>1166.4000244141</ele>
        <time>2024-07-14T06:41:38.000Z</time>
      </trkpt>
      <trkpt lat="45.02372" lon="5.5161">
        <ele>1166.8000488281</ele>
        <time>2024-07-14T06:41:39.000Z</time>
      </trkpt>
      <trkpt lat="45.02373" lon="5.51607">
        <ele>1167</ele>
        <time>2024-07-14T06:41:40.000Z</time>
      </trkpt>
      <trkpt lat="45.02374" lon="5.51605">
        <ele>1167.4000244141</ele>
        <time>2024-07-14T06:41:41.000Z</time>
      </trkpt>
      <trkpt lat="45.02375" lon="5.51603">
        <ele>1167.5999755859</ele>
        <time>2024-07-14T06:41:42.000Z</time>
      </trkpt>
      <trkpt lat="45.02376" lon="5.51601">
        <ele>1168</ele>
        <time>2024-07-14T06:41:43.000Z</time>
      </trkpt>
      <trkpt lat="45.02378" lon="5.516">
        <ele>1168.4000244141</ele>
        <time>2024-07-14T06:41:44.000Z</time>
      </trkpt>
      <trkpt lat="45.0238" lon="5.51599">
        <ele>1168.8000488281</ele>
        <time>2024-07-14T06:41:45.000Z</time>
      </trkpt>
      <trkpt lat="45.02382" lon="5.51598">
        <ele>1169</ele>
        <time>2024-07-14T06:41:46.000Z</time>
      </trkpt>
      <trkpt lat="45.02384" lon="5.51597">
        <ele>1169</ele>
        <time>2024-07-14T06:41:47.000Z</time>
      </trkpt>
      <trkpt lat="45.02386" lon="5.51595">
        <ele>1169.1999511719</ele>
        <time>2024-07-14T06:41:48.000Z</time>
      </trkpt>
      <trkpt lat="45.02388" lon="5.51595">
        <ele>1169.1999511719</ele>
        <time>2024-07-14T06:41:49.000Z</time>
      </trkpt>
      <trkpt lat="45.02391" lon="5.51594">
        <ele>1169.4000244141</ele>
        <time>2024-07-14T06:41:50.000Z</time>
      </trkpt>
      <trkpt lat="45.02393" lon="5.51593">
        <ele>1169.4000244141</ele>
        <time>2024-07-14T06:41:51.000Z</time>
      </trkpt>
      <trkpt lat="45.02394" lon="5.51593">
        <ele>1169.5999755859</ele>
        <time>2024-07-14T06:41:52.000Z</time>
      </trkpt>
      <trkpt lat="45.02396" lon="5.51592">
        <ele>1169.5999755859</ele>
        <time>2024-07-14T06:41:53.000Z</time>
      </trkpt>
      <trkpt lat="45.02398" lon="5.51592">
        <ele>1169.8000488281</ele>
        <time>2024-07-14T06:41:54.000Z</time>
      </trkpt>
      <trkpt lat="45.024" lon="5.51592">
        <ele>1170</ele>
        <time>2024-07-14T06:41:55.000Z</time>
      </trkpt>
      <trkpt lat="45.02402" lon="5.51592">
        <ele>1170.4000244141</ele>
        <time>2024-07-14T06:41:56.000Z</time>
      </trkpt>
      <trkpt lat="45.02404" lon="5.51591">
        <ele>1170.4000244141</ele>
        <time>2024-07-14T06:41:57.000Z</time>
      </trkpt>
      <trkpt lat="45.02406" lon="5.51591">
        <ele>1170.8000488281</ele>
        <time>2024-07-14T06:41:58.000Z</time>
      </trkpt>
      <trkpt lat="45.02408" lon="5.5159">
        <ele>1171</ele>
        <time>2024-07-14T06:41:59.000Z</time>
      </trkpt>
      <trkpt lat="45.0241" lon="5.5159">
        <ele>1171.4000244141</ele>
        <time>2024-07-14T06:42:00.000Z</time>
      </trkpt>
      <trkpt lat="45.02412" lon="5.51589">
        <ele>1171.5999755859</ele>
        <time>2024-07-14T06:42:01.000Z</time>
      </trkpt>
      <trkpt lat="45.02414" lon="5.51589">
        <ele>1171.8000488281</ele>
        <time>2024-07-14T06:42:02.000Z</time>
      </trkpt>
      <trkpt lat="45.02417" lon="5.51588">
        <ele>1172</ele>
        <time>2024-07-14T06:42:03.000Z</time>
      </trkpt>
      <trkpt lat="45.02419" lon="5.51587">
        <ele>1172</ele>
        <time>2024-07-14T06:42:04.000Z</time>
      </trkpt>
      <trkpt lat="45.0242" lon="5.51586">
        <ele>1172.1999511719</ele>
        <time>2024-07-14T06:42:05.000Z</time>
      </trkpt>
      <trkpt lat="45.02423" lon="5.51584">
        <ele>1172.1999511719</ele>
        <time>2024-07-14T06:42:06.000Z</time>
      </trkpt>
      <trkpt lat="45.02424" lon="5.51583">
        <ele>1172.1999511719</ele>
        <time>2024-07-14T06:42:07.000Z</time>
      </trkpt>
      <trkpt lat="45.02426" lon="5.51581">
        <ele>1172.4000244141</ele>
        <time>2024-07-14T06:42:08.000Z</time>
      </trkpt>
      <trkpt lat="45.02427" lon="5.51579">
        <ele>1172.4000244141</ele>
        <time>2024-07-14T06:42:09.000Z</time>
      </trkpt>
      <trkpt lat="45.0243" lon="5.51578">
        <ele>1172.8000488281</ele>
        <time>2024-07-14T06:42:10.000Z</time>
      </trkpt>
      <trkpt lat="45.02432" lon="5.51577">
        <ele>1173</ele>
        <time>2024-07-14T06:42:11.000Z</time>
      </trkpt>
      <trkpt lat="45.02434" lon="5.51577">
        <ele>1173.1999511719</ele>
        <time>2024-07-14T06:42:12.000Z</time>
      </trkpt>
      <trkpt lat="45.02436" lon="5.51575">
        <ele>1173.4000244141</ele>
        <time>2024-07-14T06:42:13.000Z</time>
      </trkpt>
      <trkpt lat="45.02439" lon="5.51575">
        <ele>1173.5999755859</ele>
        <time>2024-07-14T06:42:14.000Z</time>
      </trkpt>
      <trkpt lat="45.02441" lon="5.51575">
        <ele>1173.5999755859</ele>
        <time>2024-07-14T06:42:15.000Z</time>
      </trkpt>
      <trkpt lat="45.02443" lon="5.51574">
        <ele>1173.8000488281</ele>
        <time>2024-07-14T06:42:16.000Z</time>
      </trkpt>
      <trkpt lat="45.02445" lon="5.51573">
        <ele>1173.8000488281</ele>
        <time>2024-07-14T06:42:17.000Z</time>
      </trkpt>
      <trkpt lat="45.02447" lon="5.51573">
        <ele>1174</ele>
        <time>2024-07-14T06:42:18.000Z</time>
      </trkpt>
      <trkpt lat="45.0245" lon="5.51573">
        <ele>1174</ele>
        <time>2024-07-14T06:42:19.000Z</time>
      </trkpt>
      <trkpt lat="45.02452" lon="5.51573">
        <ele>1174.1999511719</ele>
        <time>2024-07-14T06:42:20.000Z</time>
      </trkpt>
      <trkpt lat="45.02453" lon="5.51575">
        <ele>1174.4000244141</ele>
        <time>2024-07-14T06:42:21.000Z</time>
      </trkpt>
      <trkpt lat="45.02455" lon="5.51576">
        <ele>1174.5999755859</ele>
        <time>2024-07-14T06:42:22.000Z</time>
      </trkpt>
      <trkpt lat="45.02457" lon="5.51578">
        <ele>1174.8000488281</ele>
        <time>2024-07-14T06:42:23.000Z</time>
      </trkpt>
      <trkpt lat="45.02459" lon="5.5158">
        <ele>1174.8000488281</ele>
        <time>2024-07-14T06:42:24.000Z</time>
      </trkpt>
      <trkpt lat="45.02461" lon="5.51581">
        <ele>1174.8000488281</ele>
        <time>2024-07-14T06:42:25.000Z</time>
      </trkpt>
      <trkpt lat="45.02463" lon="5.51581">
        <ele>1174.8000488281</ele>
        <time>2024-07-14T06:42:26.000Z</time>
      </trkpt>
      <trkpt lat="45.02465" lon="5.5158">
        <ele>1174.8000488281</ele>
        <time>2024-07-14T06:42:27.000Z</time>
      </trkpt>
      <trkpt lat="45.02467" lon="5.5158">
        <ele>1174.5999755859</ele>
        <time>2024-07-14T06:42:28.000Z</time>
      </trkpt>
      <trkpt lat="45.02468" lon="5.5158">
        <ele>1174.5999755859</ele>
        <time>2024-07-14T06:42:29.000Z</time>
      </trkpt>
      <trkpt lat="45.0247" lon="5.5158">
        <ele>1174.5999755859</ele>
        <time>2024-07-14T06:42:30.000Z</time>
      </trkpt>
      <trkpt lat="45.02472" lon="5.51582">
        <ele>1174.5999755859</ele>
        <time>2024-07-14T06:42:31.000Z</time>
      </trkpt>
      <trkpt lat="45.02474" lon="5.51584">
        <ele>1174.8000488281</ele>
        <time>2024-07-14T06:42:32.000Z</time>
      </trkpt>
      <trkpt lat="45.02476" lon="5.51586">
        <ele>1174.8000488281</ele>
        <time>2024-07-14T06:42:33.000Z</time>
      </trkpt>
      <trkpt lat="45.02478" lon="5.51589">
        <ele>1174.8000488281</ele>
        <time>2024-07-14T06:42:34.000Z</time>
      </trkpt>
      <trkpt lat="45.0248" lon="5.5159">
        <ele>1174.8000488281</ele>
        <time>2024-07-14T06:42:35.000Z</time>
      </trkpt>
      <trkpt lat="45.02482" lon="5.51591">
        <ele>1174.5999755859</ele>
        <time>2024-07-14T06:42:36.000Z</time>
      </trkpt>
      <trkpt lat="45.02484" lon="5.51591">
        <ele>1174.5999755859</ele>
        <time>2024-07-14T06:42:37.000Z</time>
      </trkpt>
      <trkpt lat="45.02485" lon="5.51591">
        <ele>1174.5999755859</ele>
        <time>2024-07-14T06:42:38.000Z</time>
      </trkpt>
      <trkpt lat="45.02487" lon="5.51592">
        <ele>1174.5999755859</ele>
        <time>2024-07-14T06:42:39.000Z</time>
      </trkpt>
      <trkpt lat="45.02489" lon="5.51591">
        <ele>1174.5999755859</ele>
        <time>2024-07-14T06:42:40.000Z</time>
      </trkpt>
      <trkpt lat="45.02491" lon="5.51592">
        <ele>1174.5999755859</ele>
        <time>2024-07-14T06:42:41.000Z</time>
      </trkpt>
      <trkpt lat="45.02494" lon="5.51592">
        <ele>1175</ele>
        <time>2024-07-14T06:42:42.000Z</time>
      </trkpt>
      <trkpt lat="45.02496" lon="5.51594">
        <ele>1175.1999511719</ele>
        <time>2024-07-14T06:42:43.000Z</time>
      </trkpt>
      <trkpt lat="45.02499" lon="5.51596">
        <ele>1175.4000244141</ele>
        <time>2024-07-14T06:42:44.000Z</time>
      </trkpt>
      <trkpt lat="45.02501" lon="5.51597">
        <ele>1175.4000244141</ele>
        <time>2024-07-14T06:42:45.000Z</time>
      </trkpt>
      <trkpt lat="45.02503" lon="5.51599">
        <ele>1175.4000244141</ele>
        <time>2024-07-14T06:42:46.000Z</time>
      </trkpt>
      <trkpt lat="45.02505" lon="5.51599">
        <ele>1175.4000244141</ele>
        <time>2024-07-14T06:42:47.000Z</time>
      </trkpt>
      <trkpt lat="45.02508" lon="5.51599">
        <ele>1175.4000244141</ele>
        <time>2024-07-14T06:42:48.000Z</time>
      </trkpt>
      <trkpt lat="45.0251" lon="5.51598">
        <ele>1175.4000244141</ele>
        <time>2024-07-14T06:42:49.000Z</time>
      </trkpt>
      <trkpt lat="45.02513" lon="5.51597">
        <ele>1175.4000244141</ele>
        <time>2024-07-14T06:42:50.000Z</time>
      </trkpt>
      <trkpt lat="45.02515" lon="5.51596">
        <ele>1175.5999755859</ele>
        <time>2024-07-14T06:42:51.000Z</time>
      </trkpt>
      <trkpt lat="45.02517" lon="5.51595">
        <ele>1175.5999755859</ele>
        <time>2024-07-14T06:42:52.000Z</time>
      </trkpt>
      <trkpt lat="45.02519" lon="5.51594">
        <ele>1175.5999755859</ele>
        <time>2024-07-14T06:42:53.000Z</time>
      </trkpt>
      <trkpt lat="45.02521" lon="5.51593">
        <ele>1176</ele>
        <time>2024-07-14T06:42:54.000Z</time>
      </trkpt>
      <trkpt lat="45.02523" lon="5.51593">
        <ele>1176.4000244141</ele>
        <time>2024-07-14T06:42:55.000Z</time>
      </trkpt>
      <trkpt lat="45.02525" lon="5.51592">
        <ele>1176.4000244141</ele>
        <time>2024-07-14T06:42:56.000Z</time>
      </trkpt>
      <trkpt lat="45.02527" lon="5.51591">
        <ele>1176.5999755859</ele>
        <time>2024-07-14T06:42:57.000Z</time>
      </trkpt>
      <trkpt lat="45.02529" lon="5.51591">
        <ele>1176.8000488281</ele>
        <time>2024-07-14T06:42:58.000Z</time>
      </trkpt>
      <trkpt lat="45.02532" lon="5.51591">
        <ele>1177</ele>
        <time>2024-07-14T06:42:59.000Z</time>
      </trkpt>
      <trkpt lat="45.02534" lon="5.5159">
        <ele>1177.1999511719</ele>
        <time>2024-07-14T06:43:00.000Z</time>
      </trkpt>
      <trkpt lat="45.02536" lon="5.5159">
        <ele>1177.4000244141</ele>
        <time>2024-07-14T06:43:01.000Z</time>
      </trkpt>
      <trkpt lat="45.02538" lon="5.5159">
        <ele>1177.5999755859</ele>
        <time>2024-07-14T06:43:02.000Z</time>
      </trkpt>
      <trkpt lat="45.02541" lon="5.5159">
        <ele>1177.8000488281</ele>
        <time>2024-07-14T06:43:03.000Z</time>
      </trkpt>
      <trkpt lat="45.02543" lon="5.51589">
        <ele>1178.1999511719</ele>
        <time>2024-07-14T06:43:04.000Z</time>
      </trkpt>
      <trkpt lat="45.02545" lon="5.51589">
        <ele>1178.4000244141</ele>
        <time>2024-07-14T06:43:05.000Z</time>
      </trkpt>
      <trkpt lat="45.02547" lon="5.51589">
        <ele>1178.5999755859</ele>
        <time>2024-07-14T06:43:06.000Z</time>
      </trkpt>
      <trkpt lat="45.0255" lon="5.51589">
        <ele>1178.8000488281</ele>
        <time>2024-07-14T06:43:07.000Z</time>
      </trkpt>
      <trkpt lat="45.02552" lon="5.5159">
        <ele>1179</ele>
        <time>2024-07-14T06:43:08.000Z</time>
      </trkpt>
      <trkpt lat="45.02554" lon="5.5159">
        <ele>1179.1999511719</ele>
        <time>2024-07-14T06:43:09.000Z</time>
      </trkpt>
      <trkpt lat="45.02557" lon="5.51591">
        <ele>1179.1999511719</ele>
        <time>2024-07-14T06:43:10.000Z</time>
      </trkpt>
      <trkpt lat="45.02559" lon="5.51591">
        <ele>1179.4000244141</ele>
        <time>2024-07-14T06:43:11.000Z</time>
      </trkpt>
      <trkpt lat="45.02561" lon="5.5159">
        <ele>1179.5999755859</ele>
        <time>2024-07-14T06:43:12.000Z</time>
      </trkpt>
      <trkpt lat="45.02563" lon="5.51589">
        <ele>1180</ele>
        <time>2024-07-14T06:43:13.000Z</time>
      </trkpt>
      <trkpt lat="45.02565" lon="5.51589">
        <ele>1180</ele>
        <time>2024-07-14T06:43:14.000Z</time>
      </trkpt>
      <trkpt lat="45.02567" lon="5.51588">
        <ele>1180.1999511719</ele>
        <time>2024-07-14T06:43:15.000Z</time>
      </trkpt>
      <trkpt lat="45.0257" lon="5.51587">
        <ele>1180.1999511719</ele>
        <time>2024-07-14T06:43:16.000Z</time>
      </trkpt>
      <trkpt lat="45.02571" lon="5.51586">
        <ele>1180.4000244141</ele>
        <time>2024-07-14T06:43:17.000Z</time>
      </trkpt>
      <trkpt lat="45.02573" lon="5.51585">
        <ele>1180.8000488281</ele>
        <time>2024-07-14T06:43:18.000Z</time>
      </trkpt>
      <trkpt lat="45.02575" lon="5.51583">
        <ele>1181.1999511719</ele>
        <time>2024-07-14T06:43:19.000Z</time>
      </trkpt>
      <trkpt lat="45.02576" lon="5.51582">
        <ele>1181.4000244141</ele>
        <time>2024-07-14T06:43:20.000Z</time>
      </trkpt>
      <trkpt lat="45.02578" lon="5.51581">
        <ele>1181.5999755859</ele>
        <time>2024-07-14T06:43:21.000Z</time>
      </trkpt>
      <trkpt lat="45.0258" lon="5.5158">
        <ele>1181.8000488281</ele>
        <time>2024-07-14T06:43:22.000Z</time>
      </trkpt>
      <trkpt lat="45.02582" lon="5.51579">
        <ele>1181.8000488281</ele>
        <time>2024-07-14T06:43:23.000Z</time>
      </trkpt>
      <trkpt lat="45.02583" lon="5.51578">
        <ele>1182</ele>
        <time>2024-07-14T06:43:24.000Z</time>
      </trkpt>
      <trkpt lat="45.02585" lon="5.51577">
        <ele>1182.4000244141</ele>
        <time>2024-07-14T06:43:25.000Z</time>
      </trkpt>
      <trkpt lat="45.02587" lon="5.51577">
        <ele>1182.8000488281</ele>
        <time>2024-07-14T06:43:26.000Z</time>
      </trkpt>
      <trkpt lat="45.02588" lon="5.51576">
        <ele>1183</ele>
        <time>2024-07-14T06:43:27.000Z</time>
      </trkpt>
      <trkpt lat="45.0259" lon="5.51574">
        <ele>1183</ele>
        <time>2024-07-14T06:43:28.000Z</time>
      </trkpt>
      <trkpt lat="45.02591" lon="5.51573">
        <ele>1183</ele>
        <time>2024-07-14T06:43:29.000Z</time>
      </trkpt>
      <trkpt lat="45.02593" lon="5.51572">
        <ele>1183.4000244141</ele>
        <time>2024-07-14T06:43:30.000Z</time>
      </trkpt>
      <trkpt lat="45.02594" lon="5.51571">
        <ele>1183.8000488281</ele>
        <time>2024-07-14T06:43:31.000Z</time>
      </trkpt>
      <trkpt lat="45.02596" lon="5.5157">
        <ele>1184.1999511719</ele>
        <time>2024-07-14T06:43:32.000Z</time>
      </trkpt>
      <trkpt lat="45.02598" lon="5.51569">
        <ele>1184.4000244141</ele>
        <time>2024-07-14T06:43:33.000Z</time>
      </trkpt>
      <trkpt lat="45.02599" lon="5.51568">
        <ele>1184.8000488281</ele>
        <time>2024-07-14T06:43:34.000Z</time>
      </trkpt>
      <trkpt lat="45.02601" lon="5.51567">
        <ele>1185</ele>
        <time>2024-07-14T06:43:35.000Z</time>
      </trkpt>
      <trkpt lat="45.02604" lon="5.51566">
        <ele>1185.4000244141</ele>
        <time>2024-07-14T06:43:36.000Z</time>
      </trkpt>
      <trkpt lat="45.02605" lon="5.51565">
        <ele>1185.8000488281</ele>
        <time>2024-07-14T06:43:37.000Z</time>
      </trkpt>
      <trkpt lat="45.02607" lon="5.51565">
        <ele>1186</ele>
        <time>2024-07-14T06:43:38.000Z</time>
      </trkpt>
      <trkpt lat="45.02609" lon="5.51565">
        <ele>1186</ele>
        <time>2024-07-14T06:43:39.000Z</time>
      </trkpt>
      <trkpt lat="45.02611" lon="5.51564">
        <ele>1186.1999511719</ele>
        <time>2024-07-14T06:43:40.000Z</time>
      </trkpt>
      <trkpt lat="45.02613" lon="5.51564">
        <ele>1186.4000244141</ele>
        <time>2024-07-14T06:43:41.000Z</time>
      </trkpt>
      <trkpt lat="45.02615" lon="5.51564">
        <ele>1186.5999755859</ele>
        <time>2024-07-14T06:43:42.000Z</time>
      </trkpt>
      <trkpt lat="45.02617" lon="5.51563">
        <ele>1187</ele>
        <time>2024-07-14T06:43:43.000Z</time>
      </trkpt>
      <trkpt lat="45.02619" lon="5.51562">
        <ele>1187</ele>
        <time>2024-07-14T06:43:44.000Z</time>
      </trkpt>
      <trkpt lat="45.0262" lon="5.5156">
        <ele>1187.4000244141</ele>
        <time>2024-07-14T06:43:45.000Z</time>
      </trkpt>
      <trkpt lat="45.02622" lon="5.51559">
        <ele>1187.5999755859</ele>
        <time>2024-07-14T06:43:46.000Z</time>
      </trkpt>
      <trkpt lat="45.02624" lon="5.51558">
        <ele>1187.8000488281</ele>
        <time>2024-07-14T06:43:47.000Z</time>
      </trkpt>
      <trkpt lat="45.02625" lon="5.51557">
        <ele>1188.1999511719</ele>
        <time>2024-07-14T06:43:48.000Z</time>
      </trkpt>
      <trkpt lat="45.02627" lon="5.51556">
        <ele>1188.4000244141</ele>
        <time>2024-07-14T06:43:49.000Z</time>
      </trkpt>
      <trkpt lat="45.02629" lon="5.51555">
        <ele>1188.8000488281</ele>
        <time>2024-07-14T06:43:50.000Z</time>
      </trkpt>
      <trkpt lat="45.0263" lon="5.51553">
        <ele>1188.8000488281</ele>
        <time>2024-07-14T06:43:51.000Z</time>
      </trkpt>
      <trkpt lat="45.02632" lon="5.51552">
        <ele>1189.1999511719</ele>
        <time>2024-07-14T06:43:52.000Z</time>
      </trkpt>
      <trkpt lat="45.02633" lon="5.51551">
        <ele>1189.4000244141</ele>
        <time>2024-07-14T06:43:53.000Z</time>
      </trkpt>
      <trkpt lat="45.02635" lon="5.5155">
        <ele>1189.4000244141</ele>
        <time>2024-07-14T06:43:54.000Z</time>
      </trkpt>
      <trkpt lat="45.02637" lon="5.51548">
        <ele>1189.5999755859</ele>
        <time>2024-07-14T06:43:55.000Z</time>
      </trkpt>
      <trkpt lat="45.02639" lon="5.51546">
        <ele>1189.8000488281</ele>
        <time>2024-07-14T06:43:56.000Z</time>
      </trkpt>
      <trkpt lat="45.0264" lon="5.51545">
        <ele>1190.1999511719</ele>
        <time>2024-07-14T06:43:57.000Z</time>
      </trkpt>
      <trkpt lat="45.02642" lon="5.51543">
        <ele>1190.4000244141</ele>
        <time>2024-07-14T06:43:58.000Z</time>
      </trkpt>
      <trkpt lat="45.02644" lon="5.51542">
        <ele>1190.8000488281</ele>
        <time>2024-07-14T06:43:59.000Z</time>
      </trkpt>
      <trkpt lat="45.02645" lon="5.51541">
        <ele>1191</ele>
        <time>2024-07-14T06:44:00.000Z</time>
      </trkpt>
      <trkpt lat="45.02648" lon="5.5154">
        <ele>1191.1999511719</ele>
        <time>2024-07-14T06:44:01.000Z</time>
      </trkpt>
      <trkpt lat="45.02649" lon="5.51539">
        <ele>1191.4000244141</ele>
        <time>2024-07-14T06:44:02.000Z</time>
      </trkpt>
      <trkpt lat="45.02651" lon="5.51539">
        <ele>1191.5999755859</ele>
        <time>2024-07-14T06:44:03.000Z</time>
      </trkpt>
      <trkpt lat="45.02654" lon="5.51538">
        <ele>1191.8000488281</ele>
        <time>2024-07-14T06:44:04.000Z</time>
      </trkpt>
      <trkpt lat="45.02656" lon="5.51537">
        <ele>1192</ele>
        <time>2024-07-14T06:44:05.000Z</time>
      </trkpt>
      <trkpt lat="45.02658" lon="5.51536">
        <ele>1192.1999511719</ele>
        <time>2024-07-14T06:44:06.000Z</time>
      </trkpt>
      <trkpt lat="45.0266" lon="5.51535">
        <ele>1192.4000244141</ele>
        <time>2024-07-14T06:44:07.000Z</time>
      </trkpt>
      <trkpt lat="45.02662" lon="5.51535">
        <ele>1192.4000244141</ele>
        <time>2024-07-14T06:44:08.000Z</time>
      </trkpt>
      <trkpt lat="45.02664" lon="5.51535">
        <ele>1192.5999755859</ele>
        <time>2024-07-14T06:44:09.000Z</time>
      </trkpt>
      <trkpt lat="45.02665" lon="5.51535">
        <ele>1193</ele>
        <time>2024-07-14T06:44:10.000Z</time>
      </trkpt>
      <trkpt lat="45.02668" lon="5.51535">
        <ele>1193.1999511719</ele>
        <time>2024-07-14T06:44:11.000Z</time>
      </trkpt>
      <trkpt lat="45.0267" lon="5.51535">
        <ele>1193.4000244141</ele>
        <time>2024-07-14T06:44:12.000Z</time>
      </trkpt>
      <trkpt lat="45.02672" lon="5.51535">
        <ele>1193.5999755859</ele>
        <time>2024-07-14T06:44:13.000Z</time>
      </trkpt>
      <trkpt lat="45.02674" lon="5.51535">
        <ele>1193.8000488281</ele>
        <time>2024-07-14T06:44:14.000Z</time>
      </trkpt>
      <trkpt lat="45.02675" lon="5.51536">
        <ele>1193.8000488281</ele>
        <time>2024-07-14T06:44:15.000Z</time>
      </trkpt>
      <trkpt lat="45.02677" lon="5.51537">
        <ele>1193.8000488281</ele>
        <time>2024-07-14T06:44:16.000Z</time>
      </trkpt>
      <trkpt lat="45.02679" lon="5.51538">
        <ele>1194</ele>
        <time>2024-07-14T06:44:17.000Z</time>
      </trkpt>
      <trkpt lat="45.02681" lon="5.5154">
        <ele>1194</ele>
        <time>2024-07-14T06:44:18.000Z</time>
      </trkpt>
      <trkpt lat="45.02683" lon="5.51543">
        <ele>1194</ele>
        <time>2024-07-14T06:44:19.000Z</time>
      </trkpt>
      <trkpt lat="45.02685" lon="5.51545">
        <ele>1194</ele>
        <time>2024-07-14T06:44:20.000Z</time>
      </trkpt>
      <trkpt lat="45.02687" lon="5.51548">
        <ele>1193.8000488281</ele>
        <time>2024-07-14T06:44:21.000Z</time>
      </trkpt>
      <trkpt lat="45.02689" lon="5.51551">
        <ele>1193.8000488281</ele>
        <time>2024-07-14T06:44:22.000Z</time>
      </trkpt>
      <trkpt lat="45.02691" lon="5.51554">
        <ele>1193.8000488281</ele>
        <time>2024-07-14T06:44:23.000Z</time>
      </trkpt>
      <trkpt lat="45.02692" lon="5.51558">
        <ele>1193.8000488281</ele>
        <time>2024-07-14T06:44:24.000Z</time>
      </trkpt>
      <trkpt lat="45.02693" lon="5.51561">
        <ele>1193.5999755859</ele>
        <time>2024-07-14T06:44:25.000Z</time>
      </trkpt>
      <trkpt lat="45.02694" lon="5.51564">
        <ele>1193.1999511719</ele>
        <time>2024-07-14T06:44:26.000Z</time>
      </trkpt>
      <trkpt lat="45.02695" lon="5.51567">
        <ele>1192.8000488281</ele>
        <time>2024-07-14T06:44:27.000Z</time>
      </trkpt>
      <trkpt lat="45.02695" lon="5.5157">
        <ele>1192.8000488281</ele>
        <time>2024-07-14T06:44:28.000Z</time>
      </trkpt>
      <trkpt lat="45.02696" lon="5.51573">
        <ele>1192.5999755859</ele>
        <time>2024-07-14T06:44:29.000Z</time>
      </trkpt>
      <trkpt lat="45.02696" lon="5.51576">
        <ele>1192.5999755859</ele>
        <time>2024-07-14T06:44:30.000Z</time>
      </trkpt>
      <trkpt lat="45.02697" lon="5.51579">
        <ele>1192.4000244141</ele>
        <time>2024-07-14T06:44:31.000Z</time>
      </trkpt>
      <trkpt lat="45.02699" lon="5.51581">
        <ele>1192.1999511719</ele>
        <time>2024-07-14T06:44:32.000Z</time>
      </trkpt>
      <trkpt lat="45.02701" lon="5.51583">
        <ele>1192</ele>
        <time>2024-07-14T06:44:33.000Z</time>
      </trkpt>
      <trkpt lat="45.02703" lon="5.51586">
        <ele>1191.8000488281</ele>
        <time>2024-07-14T06:44:34.000Z</time>
      </trkpt>
      <trkpt lat="45.02705" lon="5.51589">
        <ele>1191.4000244141</ele>
        <time>2024-07-14T06:44:35.000Z</time>
      </trkpt>
      <trkpt lat="45.02708" lon="5.51591">
        <ele>1191</ele>
        <time>2024-07-14T06:44:36.000Z</time>
      </trkpt>
      <trkpt lat="45.0271" lon="5.51593">
        <ele>1190.5999755859</ele>
        <time>2024-07-14T06:44:37.000Z</time>
      </trkpt>
      <trkpt lat="45.02713" lon="5.51595">
        <ele>1190.5999755859</ele>
        <time>2024-07-14T06:44:38.000Z</time>
      </trkpt>
      <trkpt lat="45.02715" lon="5.51597">
        <ele>1190.4000244141</ele>
        <time>2024-07-14T06:44:39.000Z</time>
      </trkpt>
      <trkpt lat="45.02718" lon="5.51598">
        <ele>1190.4000244141</ele>
        <time>2024-07-14T06:44:40.000Z</time>
      </trkpt>
      <trkpt lat="45.02721" lon="5.51598">
        <ele>1190.1999511719</ele>
        <time>2024-07-14T06:44:41.000Z</time>
      </trkpt>
      <trkpt lat="45.02723" lon="5.51599">
        <ele>1190.1999511719</ele>
        <time>2024-07-14T06:44:42.000Z</time>
      </trkpt>
      <trkpt lat="45.02726" lon="5.51599">
        <ele>1190</ele>
        <time>2024-07-14T06:44:43.000Z</time>
      </trkpt>
      <trkpt lat="45.02729" lon="5.51599">
        <ele>1189.8000488281</ele>
        <time>2024-07-14T06:44:44.000Z</time>
      </trkpt>
      <trkpt lat="45.02731" lon="5.51599">
        <ele>1189.8000488281</ele>
        <time>2024-07-14T06:44:45.000Z</time>
      </trkpt>
      <trkpt lat="45.02734" lon="5.51599">
        <ele>1189.8000488281</ele>
        <time>2024-07-14T06:44:46.000Z</time>
      </trkpt>
      <trkpt lat="45.02737" lon="5.51599">
        <ele>1189.5999755859</ele>
        <time>2024-07-14T06:44:47.000Z</time>
      </trkpt>
      <trkpt lat="45.02738" lon="5.51598">
        <ele>1189.5999755859</ele>
        <time>2024-07-14T06:44:48.000Z</time>
      </trkpt>
      <trkpt lat="45.02741" lon="5.51599">
        <ele>1189.8000488281</ele>
        <time>2024-07-14T06:44:49.000Z</time>
      </trkpt>
      <trkpt lat="45.02743" lon="5.516">
        <ele>1189.8000488281</ele>
        <time>2024-07-14T06:44:50.000Z</time>
      </trkpt>
      <trkpt lat="45.02746" lon="5.51601">
        <ele>1190</ele>
        <time>2024-07-14T06:44:51.000Z</time>
      </trkpt>
      <trkpt lat="45.02748" lon="5.51602">
        <ele>1190.1999511719</ele>
        <time>2024-07-14T06:44:52.000Z</time>
      </trkpt>
      <trkpt lat="45.02751" lon="5.51603">
        <ele>1190.1999511719</ele>
        <time>2024-07-14T06:44:53.000Z</time>
      </trkpt>
      <trkpt lat="45.02753" lon="5.51605">
        <ele>1190.1999511719</ele>
        <time>2024-07-14T06:44:54.000Z</time>
      </trkpt>
      <trkpt lat="45.02756" lon="5.51605">
        <ele>1190</ele>
        <time>2024-07-14T06:44:55.000Z</time>
      </trkpt>
      <trkpt lat="45.02758" lon="5.51606">
        <ele>1190</ele>
        <time>2024-07-14T06:44:56.000Z</time>
      </trkpt>
      <trkpt lat="45.02761" lon="5.51606">
        <ele>1190</ele>
        <time>2024-07-14T06:44:57.000Z</time>
      </trkpt>
      <trkpt lat="45.02764" lon="5.51606">
        <ele>1189.8000488281</ele>
        <time>2024-07-14T06:44:58.000Z</time>
      </trkpt>
      <trkpt lat="45.02766" lon="5.51606">
        <ele>1189.8000488281</ele>
        <time>2024-07-14T06:44:59.000Z</time>
      </trkpt>
      <trkpt lat="45.02769" lon="5.51606">
        <ele>1189.8000488281</ele>
        <time>2024-07-14T06:45:00.000Z</time>
      </trkpt>
      <trkpt lat="45.02771" lon="5.51605">
        <ele>1189.8000488281</ele>
        <time>2024-07-14T06:45:01.000Z</time>
      </trkpt>
      <trkpt lat="45.02773" lon="5.51605">
        <ele>1189.8000488281</ele>
        <time>2024-07-14T06:45:02.000Z</time>
      </trkpt>
      <trkpt lat="45.02775" lon="5.51604">
        <ele>1190</ele>
        <time>2024-07-14T06:45:03.000Z</time>
      </trkpt>
      <trkpt lat="45.02777" lon="5.51603">
        <ele>1190</ele>
        <time>2024-07-14T06:45:04.000Z</time>
      </trkpt>
      <trkpt lat="45.02778" lon="5.51602">
        <ele>1190.1999511719</ele>
        <time>2024-07-14T06:45:05.000Z</time>
      </trkpt>
      <trkpt lat="45.02781" lon="5.51601">
        <ele>1190.1999511719</ele>
        <time>2024-07-14T06:45:06.000Z</time>
      </trkpt>
      <trkpt lat="45.02783" lon="5.51601">
        <ele>1190.5999755859</ele>
        <time>2024-07-14T06:45:07.000Z</time>
      </trkpt>
      <trkpt lat="45.02784" lon="5.516">
        <ele>1191</ele>
        <time>2024-07-14T06:45:08.000Z</time>
      </trkpt>
      <trkpt lat="45.02786" lon="5.51599">
        <ele>1191.4000244141</ele>
        <time>2024-07-14T06:45:09.000Z</time>
      </trkpt>
      <trkpt lat="45.02788" lon="5.51598">
        <ele>1191.5999755859</ele>
        <time>2024-07-14T06:45:10.000Z</time>
      </trkpt>
      <trkpt lat="45.0279" lon="5.51598">
        <ele>1191.8000488281</ele>
        <time>2024-07-14T06:45:11.000Z</time>
      </trkpt>
      <trkpt lat="45.02792" lon="5.51597">
        <ele>1192</ele>
        <time>2024-07-14T06:45:12.000Z</time>
      </trkpt>
      <trkpt lat="45.02794" lon="5.51597">
        <ele>1192.4000244141</ele>
        <time>2024-07-14T06:45:13.000Z</time>
      </trkpt>
      <trkpt lat="45.02795" lon="5.51596">
        <ele>1192.4000244141</ele>
        <time>2024-07-14T06:45:14.000Z</time>
      </trkpt>
      <trkpt lat="45.02797" lon="5.51596">
        <ele>1192.8000488281</ele>
        <time>2024-07-14T06:45:15.000Z</time>
      </trkpt>
      <trkpt lat="45.02798" lon="5.51595">
        <ele>1193</ele>
        <time>2024-07-14T06:45:16.000Z</time>
      </trkpt>
      <trkpt lat="45.028" lon="5.51593">
        <ele>1193.4000244141</ele>
        <time>2024-07-14T06:45:17.000Z</time>
      </trkpt>
      <trkpt lat="45.02801" lon="5.51591">
        <ele>1193.5999755859</ele>
        <time>2024-07-14T06:45:18.000Z</time>
      </trkpt>
      <trkpt lat="45.02803" lon="5.51589">
        <ele>1193.8000488281</ele>
        <time>2024-07-14T06:45:19.000Z</time>
      </trkpt>
      <trkpt lat="45.02804" lon="5.51587">
        <ele>1194</ele>
        <time>2024-07-14T06:45:20.000Z</time>
      </trkpt>
      <trkpt lat="45.02806" lon="5.51585">
        <ele>1194.4000244141</ele>
        <time>2024-07-14T06:45:21.000Z</time>
      </trkpt>
      <trkpt lat="45.02808" lon="5.51583">
        <ele>1194.5999755859</ele>
        <time>2024-07-14T06:45:22.000Z</time>
      </trkpt>
      <trkpt lat="45.0281" lon="5.51583">
        <ele>1195</ele>
        <time>2024-07-14T06:45:23.000Z</time>
      </trkpt>
      <trkpt lat="45.02812" lon="5.51582">
        <ele>1195.1999511719</ele>
        <time>2024-07-14T06:45:24.000Z</time>
      </trkpt>
      <trkpt lat="45.02814" lon="5.51581">
        <ele>1195.5999755859</ele>
        <time>2024-07-14T06:45:25.000Z</time>
      </trkpt>
      <trkpt lat="45.02816" lon="5.51581">
        <ele>1195.8000488281</ele>
        <time>2024-07-14T06:45:26.000Z</time>
      </trkpt>
      <trkpt lat="45.02817" lon="5.5158">
        <ele>1196</ele>
        <time>2024-07-14T06:45:27.000Z</time>
      </trkpt>
      <trkpt lat="45.02819" lon="5.5158">
        <ele>1196.1999511719</ele>
        <time>2024-07-14T06:45:28.000Z</time>
      </trkpt>
      <trkpt lat="45.02821" lon="5.51579">
        <ele>1196.1999511719</ele>
        <time>2024-07-14T06:45:29.000Z</time>
      </trkpt>
      <trkpt lat="45.02822" lon="5.51577">
        <ele>1196.4000244141</ele>
        <time>2024-07-14T06:45:30.000Z</time>
      </trkpt>
      <trkpt lat="45.02822" lon="5.51576">
        <ele>1196.5999755859</ele>
        <time>2024-07-14T06:45:31.000Z</time>
      </trkpt>
      <trkpt lat="45.02822" lon="5.51575">
        <ele>1197</ele>
        <time>2024-07-14T06:45:32.000Z</time>
      </trkpt>
      <trkpt lat="45.02821" lon="5.51572">
        <ele>1197.1999511719</ele>
        <time>2024-07-14T06:45:33.000Z</time>
      </trkpt>
      <trkpt lat="45.02821" lon="5.51569">
        <ele>1197.5999755859</ele>
        <time>2024-07-14T06:45:34.000Z</time>
      </trkpt>
      <trkpt lat="45.02821" lon="5.51567">
        <ele>1198</ele>
        <time>2024-07-14T06:45:35.000Z</time>
      </trkpt>
      <trkpt lat="45.02821" lon="5.51564">
        <ele>1198.1999511719</ele>
        <time>2024-07-14T06:45:36.000Z</time>
      </trkpt>
      <trkpt lat="45.02822" lon="5.51561">
        <ele>1198.4000244141</ele>
        <time>2024-07-14T06:45:37.000Z</time>
      </trkpt>
      <trkpt lat="45.02822" lon="5.51558">
        <ele>1198.5999755859</ele>
        <time>2024-07-14T06:45:38.000Z</time>
      </trkpt>
      <trkpt lat="45.02822" lon="5.51555">
        <ele>1198.5999755859</ele>
        <time>2024-07-14T06:45:39.000Z</time>
      </trkpt>
      <trkpt lat="45.02822" lon="5.51552">
        <ele>1198.5999755859</ele>
        <time>2024-07-14T06:45:40.000Z</time>
      </trkpt>
      <trkpt lat="45.02822" lon="5.51549">
        <ele>1198.5999755859</ele>
        <time>2024-07-14T06:45:41.000Z</time>
      </trkpt>
      <trkpt lat="45.02823" lon="5.51546">
        <ele>1198.5999755859</ele>
        <time>2024-07-14T06:45:42.000Z</time>
      </trkpt>
      <trkpt lat="45.02824" lon="5.51543">
        <ele>1198.5999755859</ele>
        <time>2024-07-14T06:45:43.000Z</time>
      </trkpt>
      <trkpt lat="45.02825" lon="5.5154">
        <ele>1198.5999755859</ele>
        <time>2024-07-14T06:45:44.000Z</time>
      </trkpt>
      <trkpt lat="45.02826" lon="5.51537">
        <ele>1198.5999755859</ele>
        <time>2024-07-14T06:45:45.000Z</time>
      </trkpt>
      <trkpt lat="45.02827" lon="5.51535">
        <ele>1198.8000488281</ele>
        <time>2024-07-14T06:45:46.000Z</time>
      </trkpt>
      <trkpt lat="45.02828" lon="5.51532">
        <ele>1198.8000488281</ele>
        <time>2024-07-14T06:45:47.000Z</time>
      </trkpt>
      <trkpt lat="45.0283" lon="5.51529">
        <ele>1198.8000488281</ele>
        <time>2024-07-14T06:45:48.000Z</time>
      </trkpt>
      <trkpt lat="45.02832" lon="5.51527">
        <ele>1199</ele>
        <time>2024-07-14T06:45:49.000Z</time>
      </trkpt>
      <trkpt lat="45.02833" lon="5.51525">
        <ele>1199</ele>
        <time>2024-07-14T06:45:50.000Z</time>
      </trkpt>
      <trkpt lat="45.02835" lon="5.51523">
        <ele>1199.1999511719</ele>
        <time>2024-07-14T06:45:51.000Z</time>
      </trkpt>
      <trkpt lat="45.02837" lon="5.51522">
        <ele>1199.4000244141</ele>
        <time>2024-07-14T06:45:52.000Z</time>
      </trkpt>
      <trkpt lat="45.02839" lon="5.51521">
        <ele>1199.8000488281</ele>
        <time>2024-07-14T06:45:53.000Z</time>
      </trkpt>
      <trkpt lat="45.02841" lon="5.5152">
        <ele>1200</ele>
        <time>2024-07-14T06:45:54.000Z</time>
      </trkpt>
      <trkpt lat="45.02842" lon="5.5152">
        <ele>1200</ele>
        <time>2024-07-14T06:45:55.000Z</time>
      </trkpt>
      <trkpt lat="45.02843" lon="5.51519">
        <ele>1200.1999511719</ele>
        <time>2024-07-14T06:45:56.000Z</time>
      </trkpt>
      <trkpt lat="45.02844" lon="5.51518">
        <ele>1200.4000244141</ele>
        <time>2024-07-14T06:45:57.000Z</time>
      </trkpt>
      <trkpt lat="45.02846" lon="5.51517">
        <ele>1200.8000488281</ele>
        <time>2024-07-14T06:45:58.000Z</time>
      </trkpt>
      <trkpt lat="45.02847" lon="5.51516">
        <ele>1201</ele>
        <time>2024-07-14T06:45:59.000Z</time>
      </trkpt>
      <trkpt lat="45.02849" lon="5.51514">
        <ele>1201.1999511719</ele>
        <time>2024-07-14T06:46:00.000Z</time>
      </trkpt>
      <trkpt lat="45.0285" lon="5.51513">
        <ele>1201.4000244141</ele>
        <time>2024-07-14T06:46:01.000Z</time>
      </trkpt>
      <trkpt lat="45.02852" lon="5.51512">
        <ele>1201.5999755859</ele>
        <time>2024-07-14T06:46:02.000Z</time>
      </trkpt>
      <trkpt lat="45.02854" lon="5.51511">
        <ele>1201.8000488281</ele>
        <time>2024-07-14T06:46:03.000Z</time>
      </trkpt>
      <trkpt lat="45.02856" lon="5.5151">
        <ele>1202</ele>
        <time>2024-07-14T06:46:04.000Z</time>
      </trkpt>
      <trkpt lat="45.02858" lon="5.51509">
        <ele>1202.1999511719</ele>
        <time>2024-07-14T06:46:05.000Z</time>
      </trkpt>
      <trkpt lat="45.0286" lon="5.51508">
        <ele>1202.4000244141</ele>
        <time>2024-07-14T06:46:06.000Z</time>
      </trkpt>
      <trkpt lat="45.02861" lon="5.51507">
        <ele>1202.5999755859</ele>
        <time>2024-07-14T06:46:07.000Z</time>
      </trkpt>
      <trkpt lat="45.02864" lon="5.51506">
        <ele>1203</ele>
        <time>2024-07-14T06:46:08.000Z</time>
      </trkpt>
      <trkpt lat="45.02866" lon="5.51505">
        <ele>1203.4000244141</ele>
        <time>2024-07-14T06:46:09.000Z</time>
      </trkpt>
      <trkpt lat="45.02868" lon="5.51504">
        <ele>1203.5999755859</ele>
        <time>2024-07-14T06:46:10.000Z</time>
      </trkpt>
      <trkpt lat="45.02869" lon="5.51503">
        <ele>1203.8000488281</ele>
        <time>2024-07-14T06:46:11.000Z</time>
      </trkpt>
      <trkpt lat="45.02871" lon="5.51502">
        <ele>1204</ele>
        <time>2024-07-14T06:46:12.000Z</time>
      </trkpt>
      <trkpt lat="45.02873" lon="5.515">
        <ele>1204.1999511719</ele>
        <time>2024-07-14T06:46:13.000Z</time>
      </trkpt>
      <trkpt lat="45.02874" lon="5.51499">
        <ele>1204.1999511719</ele>
        <time>2024-07-14T06:46:14.000Z</time>
      </trkpt>
      <trkpt lat="45.02876" lon="5.51497">
        <ele>1204.4000244141</ele>
        <time>2024-07-14T06:46:15.000Z</time>
      </trkpt>
      <trkpt lat="45.02878" lon="5.51496">
        <ele>1204.8000488281</ele>
        <time>2024-07-14T06:46:16.000Z</time>
      </trkpt>
      <trkpt lat="45.02879" lon="5.51495">
        <ele>1205.1999511719</ele>
        <time>2024-07-14T06:46:17.000Z</time>
      </trkpt>
      <trkpt lat="45.02881" lon="5.51493">
        <ele>1205.4000244141</ele>
        <time>2024-07-14T06:46:18.000Z</time>
      </trkpt>
      <trkpt lat="45.02882" lon="5.51492">
        <ele>1205.5999755859</ele>
        <time>2024-07-14T06:46:19.000Z</time>
      </trkpt>
      <trkpt lat="45.02884" lon="5.5149">
        <ele>1205.8000488281</ele>
        <time>2024-07-14T06:46:20.000Z</time>
      </trkpt>
      <trkpt lat="45.02885" lon="5.51489">
        <ele>1206</ele>
        <time>2024-07-14T06:46:21.000Z</time>
      </trkpt>
      <trkpt lat="45.02885" lon="5.51488">
        <ele>1206.1999511719</ele>
        <time>2024-07-14T06:46:22.000Z</time>
      </trkpt>
      <trkpt lat="45.02886" lon="5.51487">
        <ele>1206.8000488281</ele>
        <time>2024-07-14T06:46:23.000Z</time>
      </trkpt>
      <trkpt lat="45.02887" lon="5.51485">
        <ele>1207</ele>
        <time>2024-07-14T06:46:24.000Z</time>
      </trkpt>
      <trkpt lat="45.02888" lon="5.51484">
        <ele>1207.4000244141</ele>
        <time>2024-07-14T06:46:25.000Z</time>
      </trkpt>
      <trkpt lat="45.02889" lon="5.51483">
        <ele>1207.8000488281</ele>
        <time>2024-07-14T06:46:26.000Z</time>
      </trkpt>
      <trkpt lat="45.0289" lon="5.51482">
        <ele>1208</ele>
        <time>2024-07-14T06:46:27.000Z</time>
      </trkpt>
      <trkpt lat="45.02892" lon="5.5148">
        <ele>1208.1999511719</ele>
        <time>2024-07-14T06:46:28.000Z</time>
      </trkpt>
      <trkpt lat="45.02893" lon="5.51478">
        <ele>1208.5999755859</ele>
        <time>2024-07-14T06:46:29.000Z</time>
      </trkpt>
      <trkpt lat="45.02894" lon="5.51477">
        <ele>1209</ele>
        <time>2024-07-14T06:46:30.000Z</time>
      </trkpt>
      <trkpt lat="45.02895" lon="5.51475">
        <ele>1209</ele>
        <time>2024-07-14T06:46:31.000Z</time>
      </trkpt>
      <trkpt lat="45.02896" lon="5.51474">
        <ele>1209.1999511719</ele>
        <time>2024-07-14T06:46:32.000Z</time>
      </trkpt>
      <trkpt lat="45.02898" lon="5.51472">
        <ele>1209.4000244141</ele>
        <time>2024-07-14T06:46:33.000Z</time>
      </trkpt>
      <trkpt lat="45.02899" lon="5.51471">
        <ele>1209.8000488281</ele>
        <time>2024-07-14T06:46:34.000Z</time>
      </trkpt>
      <trkpt lat="45.029" lon="5.51469">
        <ele>1210</ele>
        <time>2024-07-14T06:46:35.000Z</time>
      </trkpt>
      <trkpt lat="45.02901" lon="5.51467">
        <ele>1210.1999511719</ele>
        <time>2024-07-14T06:46:36.000Z</time>
      </trkpt>
      <trkpt lat="45.02902" lon="5.51466">
        <ele>1210.4000244141</ele>
        <time>2024-07-14T06:46:37.000Z</time>
      </trkpt>
      <trkpt lat="45.02902" lon="5.51465">
        <ele>1210.5999755859</ele>
        <time>2024-07-14T06:46:38.000Z</time>
      </trkpt>
      <trkpt lat="45.02903" lon="5.51464">
        <ele>1211</ele>
        <time>2024-07-14T06:46:39.000Z</time>
      </trkpt>
      <trkpt lat="45.02904" lon="5.51462">
        <ele>1211.1999511719</ele>
        <time>2024-07-14T06:46:40.000Z</time>
      </trkpt>
      <trkpt lat="45.02905" lon="5.5146">
        <ele>1211.4000244141</ele>
        <time>2024-07-14T06:46:41.000Z</time>
      </trkpt>
      <trkpt lat="45.02907" lon="5.51457">
        <ele>1211.8000488281</ele>
        <time>2024-07-14T06:46:42.000Z</time>
      </trkpt>
      <trkpt lat="45.02908" lon="5.51454">
        <ele>1212</ele>
        <time>2024-07-14T06:46:43.000Z</time>
      </trkpt>
      <trkpt lat="45.02909" lon="5.51452">
        <ele>1212.4000244141</ele>
        <time>2024-07-14T06:46:44.000Z</time>
      </trkpt>
      <trkpt lat="45.0291" lon="5.5145">
        <ele>1212.8000488281</ele>
        <time>2024-07-14T06:46:45.000Z</time>
      </trkpt>
      <trkpt lat="45.02911" lon="5.51449">
        <ele>1213.1999511719</ele>
        <time>2024-07-14T06:46:46.000Z</time>
      </trkpt>
      <trkpt lat="45.02912" lon="5.51446">
        <ele>1213.4000244141</ele>
        <time>2024-07-14T06:46:47.000Z</time>
      </trkpt>
      <trkpt lat="45.02913" lon="5.51444">
        <ele>1213.8000488281</ele>
        <time>2024-07-14T06:46:48.000Z</time>
      </trkpt>
      <trkpt lat="45.02914" lon="5.51442">
        <ele>1214</ele>
        <time>2024-07-14T06:46:49.000Z</time>
      </trkpt>
      <trkpt lat="45.02915" lon="5.51441">
        <ele>1214.1999511719</ele>
        <time>2024-07-14T06:46:50.000Z</time>
      </trkpt>
      <trkpt lat="45.02916" lon="5.5144">
        <ele>1214.5999755859</ele>
        <time>2024-07-14T06:46:51.000Z</time>
      </trkpt>
      <trkpt lat="45.02918" lon="5.51439">
        <ele>1215</ele>
        <time>2024-07-14T06:46:52.000Z</time>
      </trkpt>
      <trkpt lat="45.0292" lon="5.51438">
        <ele>1215.1999511719</ele>
        <time>2024-07-14T06:46:53.000Z</time>
      </trkpt>
      <trkpt lat="45.02921" lon="5.51437">
        <ele>1215.4000244141</ele>
        <time>2024-07-14T06:46:54.000Z</time>
      </trkpt>
      <trkpt lat="45.02923" lon="5.51435">
        <ele>1215.5999755859</ele>
        <time>2024-07-14T06:46:55.000Z</time>
      </trkpt>
      <trkpt lat="45.02924" lon="5.51434">
        <ele>1216</ele>
        <time>2024-07-14T06:46:56.000Z</time>
      </trkpt>
      <trkpt lat="45.02925" lon="5.51432">
        <ele>1216.1999511719</ele>
        <time>2024-07-14T06:46:57.000Z</time>
      </trkpt>
      <trkpt lat="45.02926" lon="5.51431">
        <ele>1216.5999755859</ele>
        <time>2024-07-14T06:46:58.000Z</time>
      </trkpt>
      <trkpt lat="45.02928" lon="5.5143">
        <ele>1216.8000488281</ele>
        <time>2024-07-14T06:46:59.000Z</time>
      </trkpt>
      <trkpt lat="45.02929" lon="5.51428">
        <ele>1217</ele>
        <time>2024-07-14T06:47:00.000Z</time>
      </trkpt>
      <trkpt lat="45.0293" lon="5.51427">
        <ele>1217.4000244141</ele>
        <time>2024-07-14T06:47:01.000Z</time>
      </trkpt>
      <trkpt lat="45.02931" lon="5.51426">
        <ele>1217.5999755859</ele>
        <time>2024-07-14T06:47:02.000Z</time>
      </trkpt>
      <trkpt lat="45.02933" lon="5.51425">
        <ele>1217.8000488281</ele>
        <time>2024-07-14T06:47:03.000Z</time>
      </trkpt>
      <trkpt lat="45.02934" lon="5.51423">
        <ele>1218.1999511719</ele>
        <time>2024-07-14T06:47:04.000Z</time>
      </trkpt>
      <trkpt lat="45.02936" lon="5.51422">
        <ele>1218.1999511719</ele>
        <time>2024-07-14T06:47:05.000Z</time>
      </trkpt>
      <trkpt lat="45.02937" lon="5.5142">
        <ele>1218.5999755859</ele>
        <time>2024-07-14T06:47:06.000Z</time>
      </trkpt>
      <trkpt lat="45.02938" lon="5.51419">
        <ele>1218.8000488281</ele>
        <time>2024-07-14T06:47:07.000Z</time>
      </trkpt>
      <trkpt lat="45.02939" lon="5.51418">
        <ele>1219</ele>
        <time>2024-07-14T06:47:08.000Z</time>
      </trkpt>
      <trkpt lat="45.0294" lon="5.51416">
        <ele>1219.1999511719</ele>
        <time>2024-07-14T06:47:09.000Z</time>
      </trkpt>
      <trkpt lat="45.02941" lon="5.51414">
        <ele>1219.5999755859</ele>
        <time>2024-07-14T06:47:10.000Z</time>
      </trkpt>
      <trkpt lat="45.02942" lon="5.51413">
        <ele>1219.8000488281</ele>
        <time>2024-07-14T06:47:11.000Z</time>
      </trkpt>
      <trkpt lat="45.02944" lon="5.51412">
        <ele>1220.1999511719</ele>
        <time>2024-07-14T06:47:12.000Z</time>
      </trkpt>
      <trkpt lat="45.02946" lon="5.5141">
        <ele>1220.4000244141</ele>
        <time>2024-07-14T06:47:13.000Z</time>
      </trkpt>
      <trkpt lat="45.02947" lon="5.51409">
        <ele>1220.5999755859</ele>
        <time>2024-07-14T06:47:14.000Z</time>
      </trkpt>
      <trkpt lat="45.02948" lon="5.51407">
        <ele>1220.8000488281</ele>
        <time>2024-07-14T06:47:15.000Z</time>
      </trkpt>
      <trkpt lat="45.0295" lon="5.51406">
        <ele>1221</ele>
        <time>2024-07-14T06:47:16.000Z</time>
      </trkpt>
      <trkpt lat="45.02951" lon="5.51405">
        <ele>1221.1999511719</ele>
        <time>2024-07-14T06:47:17.000Z</time>
      </trkpt>
      <trkpt lat="45.02953" lon="5.51403">
        <ele>1221.5999755859</ele>
        <time>2024-07-14T06:47:18.000Z</time>
      </trkpt>
      <trkpt lat="45.02955" lon="5.51402">
        <ele>1221.8000488281</ele>
        <time>2024-07-14T06:47:19.000Z</time>
      </trkpt>
      <trkpt lat="45.02956" lon="5.51401">
        <ele>1222</ele>
        <time>2024-07-14T06:47:20.000Z</time>
      </trkpt>
      <trkpt lat="45.02958" lon="5.514">
        <ele>1222.1999511719</ele>
        <time>2024-07-14T06:47:21.000Z</time>
      </trkpt>
      <trkpt lat="45.0296" lon="5.51398">
        <ele>1222.5999755859</ele>
        <time>2024-07-14T06:47:22.000Z</time>
      </trkpt>
      <trkpt lat="45.02961" lon="5.51397">
        <ele>1222.5999755859</ele>
        <time>2024-07-14T06:47:23.000Z</time>
      </trkpt>
      <trkpt lat="45.02963" lon="5.51396">
        <ele>1222.8000488281</ele>
        <time>2024-07-14T06:47:24.000Z</time>
      </trkpt>
      <trkpt lat="45.02964" lon="5.51395">
        <ele>1223</ele>
        <time>2024-07-14T06:47:25.000Z</time>
      </trkpt>
      <trkpt lat="45.02966" lon="5.51394">
        <ele>1223.1999511719</ele>
        <time>2024-07-14T06:47:26.000Z</time>
      </trkpt>
      <trkpt lat="45.02967" lon="5.51393">
        <ele>1223.4000244141</ele>
        <time>2024-07-14T06:47:27.000Z</time>
      </trkpt>
      <trkpt lat="45.0297" lon="5.51391">
        <ele>1223.8000488281</ele>
        <time>2024-07-14T06:47:28.000Z</time>
      </trkpt>
      <trkpt lat="45.02971" lon="5.5139">
        <ele>1224</ele>
        <time>2024-07-14T06:47:29.000Z</time>
      </trkpt>
      <trkpt lat="45.02973" lon="5.51389">
        <ele>1224</ele>
        <time>2024-07-14T06:47:30.000Z</time>
      </trkpt>
      <trkpt lat="45.02974" lon="5.51388">
        <ele>1224.4000244141</ele>
        <time>2024-07-14T06:47:31.000Z</time>
      </trkpt>
      <trkpt lat="45.02975" lon="5.51387">
        <ele>1224.5999755859</ele>
        <time>2024-07-14T06:47:32.000Z</time>
      </trkpt>
      <trkpt lat="45.02977" lon="5.51385">
        <ele>1225</ele>
        <time>2024-07-14T06:47:33.000Z</time>
      </trkpt>
      <trkpt lat="45.02978" lon="5.51384">
        <ele>1225.1999511719</ele>
        <time>2024-07-14T06:47:34.000Z</time>
      </trkpt>
      <trkpt lat="45.02979" lon="5.51383">
        <ele>1225.4000244141</ele>
        <time>2024-07-14T06:47:35.000Z</time>
      </trkpt>
      <trkpt lat="45.02981" lon="5.51381">
        <ele>1225.5999755859</ele>
        <time>2024-07-14T06:47:36.000Z</time>
      </trkpt>
      <trkpt lat="45.02983" lon="5.5138">
        <ele>1225.8000488281</ele>
        <time>2024-07-14T06:47:37.000Z</time>
      </trkpt>
      <trkpt lat="45.02984" lon="5.51379">
        <ele>1226</ele>
        <time>2024-07-14T06:47:38.000Z</time>
      </trkpt>
      <trkpt lat="45.02987" lon="5.51378">
        <ele>1226.1999511719</ele>
        <time>2024-07-14T06:47:39.000Z</time>
      </trkpt>
      <trkpt lat="45.02989" lon="5.51377">
        <ele>1226.4000244141</ele>
        <time>2024-07-14T06:47:40.000Z</time>
      </trkpt>
      <trkpt lat="45.02991" lon="5.51377">
        <ele>1226.5999755859</ele>
        <time>2024-07-14T06:47:41.000Z</time>
      </trkpt>
      <trkpt lat="45.02992" lon="5.51376">
        <ele>1227</ele>
        <time>2024-07-14T06:47:42.000Z</time>
      </trkpt>
      <trkpt lat="45.02994" lon="5.51375">
        <ele>1227.4000244141</ele>
        <time>2024-07-14T06:47:43.000Z</time>
      </trkpt>
      <trkpt lat="45.02996" lon="5.51375">
        <ele>1227.8000488281</ele>
        <time>2024-07-14T06:47:44.000Z</time>
      </trkpt>
      <trkpt lat="45.02998" lon="5.51374">
        <ele>1228</ele>
        <time>2024-07-14T06:47:45.000Z</time>
      </trkpt>
      <trkpt lat="45.03" lon="5.51373">
        <ele>1228.1999511719</ele>
        <time>2024-07-14T06:47:46.000Z</time>
      </trkpt>
      <trkpt lat="45.03001" lon="5.51373">
        <ele>1228.4000244141</ele>
        <time>2024-07-14T06:47:47.000Z</time>
      </trkpt>
      <trkpt lat="45.03003" lon="5.51373">
        <ele>1228.5999755859</ele>
        <time>2024-07-14T06:47:48.000Z</time>
      </trkpt>
      <trkpt lat="45.03005" lon="5.51373">
        <ele>1228.8000488281</ele>
        <time>2024-07-14T06:47:49.000Z</time>
      </trkpt>
      <trkpt lat="45.03007" lon="5.51374">
        <ele>1228.8000488281</ele>
        <time>2024-07-14T06:47:50.000Z</time>
      </trkpt>
      <trkpt lat="45.03009" lon="5.51376">
        <ele>1228.8000488281</ele>
        <time>2024-07-14T06:47:51.000Z</time>
      </trkpt>
      <trkpt lat="45.03011" lon="5.51377">
        <ele>1228.8000488281</ele>
        <time>2024-07-14T06:47:52.000Z</time>
      </trkpt>
      <trkpt lat="45.03013" lon="5.5138">
        <ele>1229</ele>
        <time>2024-07-14T06:47:53.000Z</time>
      </trkpt>
      <trkpt lat="45.03015" lon="5.51382">
        <ele>1229</ele>
        <time>2024-07-14T06:47:54.000Z</time>
      </trkpt>
      <trkpt lat="45.03016" lon="5.51384">
        <ele>1228.8000488281</ele>
        <time>2024-07-14T06:47:55.000Z</time>
      </trkpt>
      <trkpt lat="45.03019" lon="5.51385">
        <ele>1228.4000244141</ele>
        <time>2024-07-14T06:47:56.000Z</time>
      </trkpt>
      <trkpt lat="45.03021" lon="5.51386">
        <ele>1228.4000244141</ele>
        <time>2024-07-14T06:47:57.000Z</time>
      </trkpt>
      <trkpt lat="45.03023" lon="5.51386">
        <ele>1228.4000244141</ele>
        <time>2024-07-14T06:47:58.000Z</time>
      </trkpt>
      <trkpt lat="45.03024" lon="5.51386">
        <ele>1228.4000244141</ele>
        <time>2024-07-14T06:47:59.000Z</time>
      </trkpt>
      <trkpt lat="45.03026" lon="5.51385">
        <ele>1228.4000244141</ele>
        <time>2024-07-14T06:48:00.000Z</time>
      </trkpt>
      <trkpt lat="45.03028" lon="5.51384">
        <ele>1228.5999755859</ele>
        <time>2024-07-14T06:48:01.000Z</time>
      </trkpt>
      <trkpt lat="45.03029" lon="5.51383">
        <ele>1229</ele>
        <time>2024-07-14T06:48:02.000Z</time>
      </trkpt>
      <trkpt lat="45.03031" lon="5.51383">
        <ele>1229</ele>
        <time>2024-07-14T06:48:03.000Z</time>
      </trkpt>
      <trkpt lat="45.03033" lon="5.51382">
        <ele>1229.4000244141</ele>
        <time>2024-07-14T06:48:04.000Z</time>
      </trkpt>
      <trkpt lat="45.03035" lon="5.51381">
        <ele>1229.8000488281</ele>
        <time>2024-07-14T06:48:05.000Z</time>
      </trkpt>
      <trkpt lat="45.03036" lon="5.51381">
        <ele>1229.8000488281</ele>
        <time>2024-07-14T06:48:06.000Z</time>
      </trkpt>
      <trkpt lat="45.03038" lon="5.5138">
        <ele>1230</ele>
        <time>2024-07-14T06:48:07.000Z</time>
      </trkpt>
      <trkpt lat="45.0304" lon="5.51379">
        <ele>1230.1999511719</ele>
        <time>2024-07-14T06:48:08.000Z</time>
      </trkpt>
      <trkpt lat="45.03042" lon="5.51379">
        <ele>1230.1999511719</ele>
        <time>2024-07-14T06:48:09.000Z</time>
      </trkpt>
      <trkpt lat="45.03044" lon="5.51378">
        <ele>1230.5999755859</ele>
        <time>2024-07-14T06:48:10.000Z</time>
      </trkpt>
      <trkpt lat="45.03046" lon="5.51377">
        <ele>1230.8000488281</ele>
        <time>2024-07-14T06:48:11.000Z</time>
      </trkpt>
      <trkpt lat="45.03049" lon="5.51376">
        <ele>1231.1999511719</ele>
        <time>2024-07-14T06:48:12.000Z</time>
      </trkpt>
      <trkpt lat="45.03051" lon="5.51376">
        <ele>1231.4000244141</ele>
        <time>2024-07-14T06:48:13.000Z</time>
      </trkpt>
      <trkpt lat="45.03053" lon="5.51376">
        <ele>1231.5999755859</ele>
        <time>2024-07-14T06:48:14.000Z</time>
      </trkpt>
      <trkpt lat="45.03055" lon="5.51376">
        <ele>1231.5999755859</ele>
        <time>2024-07-14T06:48:15.000Z</time>
      </trkpt>
      <trkpt lat="45.03058" lon="5.51376">
        <ele>1231.8000488281</ele>
        <time>2024-07-14T06:48:16.000Z</time>
      </trkpt>
      <trkpt lat="45.0306" lon="5.51375">
        <ele>1231.8000488281</ele>
        <time>2024-07-14T06:48:17.000Z</time>
      </trkpt>
      <trkpt lat="45.03062" lon="5.51375">
        <ele>1231.8000488281</ele>
        <time>2024-07-14T06:48:18.000Z</time>
      </trkpt>
      <trkpt lat="45.03064" lon="5.51375">
        <ele>1232</ele>
        <time>2024-07-14T06:48:19.000Z</time>
      </trkpt>
      <trkpt lat="45.03066" lon="5.51374">
        <ele>1232.1999511719</ele>
        <time>2024-07-14T06:48:20.000Z</time>
      </trkpt>
      <trkpt lat="45.03068" lon="5.51374">
        <ele>1232.1999511719</ele>
        <time>2024-07-14T06:48:21.000Z</time>
      </trkpt>
      <trkpt lat="45.0307" lon="5.51374">
        <ele>1232.4000244141</ele>
        <time>2024-07-14T06:48:22.000Z</time>
      </trkpt>
      <trkpt lat="45.03072" lon="5.51374">
        <ele>1232.8000488281</ele>
        <time>2024-07-14T06:48:23.000Z</time>
      </trkpt>
      <trkpt lat="45.03074" lon="5.51374">
        <ele>1232.8000488281</ele>
        <time>2024-07-14T06:48:24.000Z</time>
      </trkpt>
      <trkpt lat="45.03076" lon="5.51375">
        <ele>1233.1999511719</ele>
        <time>2024-07-14T06:48:25.000Z</time>
      </trkpt>
      <trkpt lat="45.03078" lon="5.51376">
        <ele>1233.4000244141</ele>
        <time>2024-07-14T06:48:26.000Z</time>
      </trkpt>
      <trkpt lat="45.0308" lon="5.51376">
        <ele>1233.4000244141</ele>
        <time>2024-07-14T06:48:27.000Z</time>
      </trkpt>
      <trkpt lat="45.03082" lon="5.51377">
        <ele>1233.4000244141</ele>
        <time>2024-07-14T06:48:28.000Z</time>
      </trkpt>
      <trkpt lat="45.03084" lon="5.51376">
        <ele>1233.4000244141</ele>
        <time>2024-07-14T06:48:29.000Z</time>
      </trkpt>
      <trkpt lat="45.03086" lon="5.51376">
        <ele>1233.4000244141</ele>
        <time>2024-07-14T06:48:30.000Z</time>
      </trkpt>
      <trkpt lat="45.03088" lon="5.51376">
        <ele>1233.5999755859</ele>
        <time>2024-07-14T06:48:31.000Z</time>
      </trkpt>
      <trkpt lat="45.0309" lon="5.51375">
        <ele>1233.5999755859</ele>
        <time>2024-07-14T06:48:32.000Z</time>
      </trkpt>
      <trkpt lat="45.03092" lon="5.51375">
        <ele>1233.5999755859</ele>
        <time>2024-07-14T06:48:33.000Z</time>
      </trkpt>
      <trkpt lat="45.03094" lon="5.51373">
        <ele>1233.8000488281</ele>
        <time>2024-07-14T06:48:34.000Z</time>
      </trkpt>
      <trkpt lat="45.03096" lon="5.51373">
        <ele>1233.8000488281</ele>
        <time>2024-07-14T06:48:35.000Z</time>
      </trkpt>
      <trkpt lat="45.03097" lon="5.51372">
        <ele>1234</ele>
        <time>2024-07-14T06:48:36.000Z</time>
      </trkpt>
      <trkpt lat="45.03098" lon="5.51372">
        <ele>1234.4000244141</ele>
        <time>2024-07-14T06:48:37.000Z</time>
      </trkpt>
      <trkpt lat="45.031" lon="5.51371">
        <ele>1234.8000488281</ele>
        <time>2024-07-14T06:48:38.000Z</time>
      </trkpt>
      <trkpt lat="45.03102" lon="5.5137">
        <ele>1235.1999511719</ele>
        <time>2024-07-14T06:48:39.000Z</time>
      </trkpt>
      <trkpt lat="45.03103" lon="5.5137">
        <ele>1235.4000244141</ele>
        <time>2024-07-14T06:48:40.000Z</time>
      </trkpt>
      <trkpt lat="45.03104" lon="5.51369">
        <ele>1235.4000244141</ele>
        <time>2024-07-14T06:48:41.000Z</time>
      </trkpt>
      <trkpt lat="45.03106" lon="5.51368">
        <ele>1235.8000488281</ele>
        <time>2024-07-14T06:48:42.000Z</time>
      </trkpt>
      <trkpt lat="45.03108" lon="5.51367">
        <ele>1236.1999511719</ele>
        <time>2024-07-14T06:48:43.000Z</time>
      </trkpt>
      <trkpt lat="45.0311" lon="5.51366">
        <ele>1236.4000244141</ele>
        <time>2024-07-14T06:48:44.000Z</time>
      </trkpt>
      <trkpt lat="45.03111" lon="5.51365">
        <ele>1236.5999755859</ele>
        <time>2024-07-14T06:48:45.000Z</time>
      </trkpt>
      <trkpt lat="45.03112" lon="5.51364">
        <ele>1237</ele>
        <time>2024-07-14T06:48:46.000Z</time>
      </trkpt>
      <trkpt lat="45.03114" lon="5.51362">
        <ele>1237.1999511719</ele>
        <time>2024-07-14T06:48:47.000Z</time>
      </trkpt>
      <trkpt lat="45.03115" lon="5.5136">
        <ele>1237.8000488281</ele>
        <time>2024-07-14T06:48:48.000Z</time>
      </trkpt>
      <trkpt lat="45.03116" lon="5.51359">
        <ele>1238</ele>
        <time>2024-07-14T06:48:49.000Z</time>
      </trkpt>
      <trkpt lat="45.03118" lon="5.51358">
        <ele>1238.1999511719</ele>
        <time>2024-07-14T06:48:50.000Z</time>
      </trkpt>
      <trkpt lat="45.03119" lon="5.51357">
        <ele>1238.5999755859</ele>
        <time>2024-07-14T06:48:51.000Z</time>
      </trkpt>
      <trkpt lat="45.03121" lon="5.51356">
        <ele>1239</ele>
        <time>2024-07-14T06:48:52.000Z</time>
      </trkpt>
      <trkpt lat="45.03123" lon="5.51355">
        <ele>1239.4000244141</ele>
        <time>2024-07-14T06:48:53.000Z</time>
      </trkpt>
      <trkpt lat="45.03125" lon="5.51355">
        <ele>1239.8000488281</ele>
        <time>2024-07-14T06:48:54.000Z</time>
      </trkpt>
      <trkpt lat="45.03127" lon="5.51355">
        <ele>1240.1999511719</ele>
        <time>2024-07-14T06:48:55.000Z</time>
      </trkpt>
      <trkpt lat="45.03129" lon="5.51355">
        <ele>1240.4000244141</ele>
        <time>2024-07-14T06:48:56.000Z</time>
      </trkpt>
      <trkpt lat="45.03131" lon="5.51354">
        <ele>1240.5999755859</ele>
        <time>2024-07-14T06:48:57.000Z</time>
      </trkpt>
      <trkpt lat="45.03133" lon="5.51353">
        <ele>1240.8000488281</ele>
        <time>2024-07-14T06:48:58.000Z</time>
      </trkpt>
      <trkpt lat="45.03135" lon="5.51353">
        <ele>1241.1999511719</ele>
        <time>2024-07-14T06:48:59.000Z</time>
      </trkpt>
      <trkpt lat="45.03136" lon="5.51353">
        <ele>1241.1999511719</ele>
        <time>2024-07-14T06:49:00.000Z</time>
      </trkpt>
      <trkpt lat="45.03138" lon="5.51351">
        <ele>1241.4000244141</ele>
        <time>2024-07-14T06:49:01.000Z</time>
      </trkpt>
      <trkpt lat="45.03139" lon="5.5135">
        <ele>1241.4000244141</ele>
        <time>2024-07-14T06:49:02.000Z</time>
      </trkpt>
      <trkpt lat="45.0314" lon="5.51349">
        <ele>1241.5999755859</ele>
        <time>2024-07-14T06:49:03.000Z</time>
      </trkpt>
      <trkpt lat="45.03141" lon="5.51348">
        <ele>1241.8000488281</ele>
        <time>2024-07-14T06:49:04.000Z</time>
      </trkpt>
      <trkpt lat="45.03143" lon="5.51347">
        <ele>1242</ele>
        <time>2024-07-14T06:49:05.000Z</time>
      </trkpt>
      <trkpt lat="45.03145" lon="5.51346">
        <ele>1242.4000244141</ele>
        <time>2024-07-14T06:49:06.000Z</time>
      </trkpt>
      <trkpt lat="45.03146" lon="5.51346">
        <ele>1242.5999755859</ele>
        <time>2024-07-14T06:49:07.000Z</time>
      </trkpt>
      <trkpt lat="45.03147" lon="5.51345">
        <ele>1243</ele>
        <time>2024-07-14T06:49:08.000Z</time>
      </trkpt>
      <trkpt lat="45.03148" lon="5.51345">
        <ele>1243</ele>
        <time>2024-07-14T06:49:09.000Z</time>
      </trkpt>
      <trkpt lat="45.03149" lon="5.51344">
        <ele>1243.4000244141</ele>
        <time>2024-07-14T06:49:10.000Z</time>
      </trkpt>
      <trkpt lat="45.03151" lon="5.51343">
        <ele>1243.5999755859</ele>
        <time>2024-07-14T06:49:11.000Z</time>
      </trkpt>
      <trkpt lat="45.03153" lon="5.51343">
        <ele>1243.5999755859</ele>
        <time>2024-07-14T06:49:12.000Z</time>
      </trkpt>
      <trkpt lat="45.03154" lon="5.51342">
        <ele>1244</ele>
        <time>2024-07-14T06:49:13.000Z</time>
      </trkpt>
      <trkpt lat="45.03156" lon="5.51341">
        <ele>1244.4000244141</ele>
        <time>2024-07-14T06:49:14.000Z</time>
      </trkpt>
      <trkpt lat="45.03158" lon="5.5134">
        <ele>1244.5999755859</ele>
        <time>2024-07-14T06:49:15.000Z</time>
      </trkpt>
      <trkpt lat="45.03159" lon="5.51339">
        <ele>1244.5999755859</ele>
        <time>2024-07-14T06:49:16.000Z</time>
      </trkpt>
      <trkpt lat="45.0316" lon="5.51337">
        <ele>1244.8000488281</ele>
        <time>2024-07-14T06:49:17.000Z</time>
      </trkpt>
      <trkpt lat="45.03162" lon="5.51336">
        <ele>1245</ele>
        <time>2024-07-14T06:49:18.000Z</time>
      </trkpt>
      <trkpt lat="45.03163" lon="5.51335">
        <ele>1245.1999511719</ele>
        <time>2024-07-14T06:49:19.000Z</time>
      </trkpt>
      <trkpt lat="45.03164" lon="5.51334">
        <ele>1245.4000244141</ele>
        <time>2024-07-14T06:49:20.000Z</time>
      </trkpt>
      <trkpt lat="45.03165" lon="5.51333">
        <ele>1245.5999755859</ele>
        <time>2024-07-14T06:49:21.000Z</time>
      </trkpt>
      <trkpt lat="45.03167" lon="5.51332">
        <ele>1246</ele>
        <time>2024-07-14T06:49:22.000Z</time>
      </trkpt>
      <trkpt lat="45.03169" lon="5.51331">
        <ele>1246</ele>
        <time>2024-07-14T06:49:23.000Z</time>
      </trkpt>
      <trkpt lat="45.0317" lon="5.51331">
        <ele>1246.4000244141</ele>
        <time>2024-07-14T06:49:24.000Z</time>
      </trkpt>
      <trkpt lat="45.03171" lon="5.5133">
        <ele>1246.8000488281</ele>
        <time>2024-07-14T06:49:25.000Z</time>
      </trkpt>
      <trkpt lat="45.03172" lon="5.51328">
        <ele>1246.8000488281</ele>
        <time>2024-07-14T06:49:26.000Z</time>
      </trkpt>
      <trkpt lat="45.03174" lon="5.51327">
        <ele>1247</ele>
        <time>2024-07-14T06:49:27.000Z</time>
      </trkpt>
      <trkpt lat="45.03175" lon="5.51325">
        <ele>1247.4000244141</ele>
        <time>2024-07-14T06:49:28.000Z</time>
      </trkpt>
      <trkpt lat="45.03176" lon="5.51324">
        <ele>1247.8000488281</ele>
        <time>2024-07-14T06:49:29.000Z</time>
      </trkpt>
      <trkpt lat="45.03177" lon="5.51322">
        <ele>1248</ele>
        <time>2024-07-14T06:49:30.000Z</time>
      </trkpt>
      <trkpt lat="45.03179" lon="5.51321">
        <ele>1248.5999755859</ele>
        <time>2024-07-14T06:49:31.000Z</time>
      </trkpt>
      <trkpt lat="45.03181" lon="5.51321">
        <ele>1248.8000488281</ele>
        <time>2024-07-14T06:49:32.000Z</time>
      </trkpt>
      <trkpt lat="45.03182" lon="5.5132">
        <ele>1249</ele>
        <time>2024-07-14T06:49:33.000Z</time>
      </trkpt>
      <trkpt lat="45.03184" lon="5.5132">
        <ele>1249.4000244141</ele>
        <time>2024-07-14T06:49:34.000Z</time>
      </trkpt>
      <trkpt lat="45.03186" lon="5.5132">
        <ele>1249.5999755859</ele>
        <time>2024-07-14T06:49:35.000Z</time>
      </trkpt>
      <trkpt lat="45.03188" lon="5.51319">
        <ele>1249.8000488281</ele>
        <time>2024-07-14T06:49:36.000Z</time>
      </trkpt>
      <trkpt lat="45.0319" lon="5.51319">
        <ele>1250</ele>
        <time>2024-07-14T06:49:37.000Z</time>
      </trkpt>
      <trkpt lat="45.03191" lon="5.51318">
        <ele>1250.1999511719</ele>
        <time>2024-07-14T06:49:38.000Z</time>
      </trkpt>
      <trkpt lat="45.03193" lon="5.51318">
        <ele>1250.1999511719</ele>
        <time>2024-07-14T06:49:39.000Z</time>
      </trkpt>
      <trkpt lat="45.03195" lon="5.51318">
        <ele>1250.5999755859</ele>
        <time>2024-07-14T06:49:40.000Z</time>
      </trkpt>
      <trkpt lat="45.03197" lon="5.51318">
        <ele>1250.5999755859</ele>
        <time>2024-07-14T06:49:41.000Z</time>
      </trkpt>
      <trkpt lat="45.03198" lon="5.51318">
        <ele>1250.8000488281</ele>
        <time>2024-07-14T06:49:42.000Z</time>
      </trkpt>
      <trkpt lat="45.032" lon="5.51318">
        <ele>1251</ele>
        <time>2024-07-14T06:49:43.000Z</time>
      </trkpt>
      <trkpt lat="45.03202" lon="5.51318">
        <ele>1251.1999511719</ele>
        <time>2024-07-14T06:49:44.000Z</time>
      </trkpt>
      <trkpt lat="45.03204" lon="5.51319">
        <ele>1251.4000244141</ele>
        <time>2024-07-14T06:49:45.000Z</time>
      </trkpt>
      <trkpt lat="45.03206" lon="5.5132">
        <ele>1251.5999755859</ele>
        <time>2024-07-14T06:49:46.000Z</time>
      </trkpt>
      <trkpt lat="45.03208" lon="5.5132">
        <ele>1251.5999755859</ele>
        <time>2024-07-14T06:49:47.000Z</time>
      </trkpt>
      <trkpt lat="45.03211" lon="5.51321">
        <ele>1251.5999755859</ele>
        <time>2024-07-14T06:49:48.000Z</time>
      </trkpt>
      <trkpt lat="45.03213" lon="5.51322">
        <ele>1251.5999755859</ele>
        <time>2024-07-14T06:49:49.000Z</time>
      </trkpt>
      <trkpt lat="45.03215" lon="5.51323">
        <ele>1251.8000488281</ele>
        <time>2024-07-14T06:49:50.000Z</time>
      </trkpt>
      <trkpt lat="45.03217" lon="5.51323">
        <ele>1251.8000488281</ele>
        <time>2024-07-14T06:49:51.000Z</time>
      </trkpt>
      <trkpt lat="45.03219" lon="5.51324">
        <ele>1251.8000488281</ele>
        <time>2024-07-14T06:49:52.000Z</time>
      </trkpt>
      <trkpt lat="45.03221" lon="5.51324">
        <ele>1251.8000488281</ele>
        <time>2024-07-14T06:49:53.000Z</time>
      </trkpt>
      <trkpt lat="45.03223" lon="5.51323">
        <ele>1251.8000488281</ele>
        <time>2024-07-14T06:49:54.000Z</time>
      </trkpt>
      <trkpt lat="45.03225" lon="5.51323">
        <ele>1252</ele>
        <time>2024-07-14T06:49:55.000Z</time>
      </trkpt>
      <trkpt lat="45.03227" lon="5.51322">
        <ele>1252.1999511719</ele>
        <time>2024-07-14T06:49:56.000Z</time>
      </trkpt>
      <trkpt lat="45.03228" lon="5.51322">
        <ele>1252.4000244141</ele>
        <time>2024-07-14T06:49:57.000Z</time>
      </trkpt>
      <trkpt lat="45.0323" lon="5.51322">
        <ele>1252.8000488281</ele>
        <time>2024-07-14T06:49:58.000Z</time>
      </trkpt>
      <trkpt lat="45.03232" lon="5.51321">
        <ele>1253.1999511719</ele>
        <time>2024-07-14T06:49:59.000Z</time>
      </trkpt>
      <trkpt lat="45.03234" lon="5.51321">
        <ele>1253.4000244141</ele>
        <time>2024-07-14T06:50:00.000Z</time>
      </trkpt>
      <trkpt lat="45.03235" lon="5.5132">
        <ele>1253.5999755859</ele>
        <time>2024-07-14T06:50:01.000Z</time>
      </trkpt>
      <trkpt lat="45.03237" lon="5.51319">
        <ele>1254</ele>
        <time>2024-07-14T06:50:02.000Z</time>
      </trkpt>
      <trkpt lat="45.03238" lon="5.51319">
        <ele>1254.1999511719</ele>
        <time>2024-07-14T06:50:03.000Z</time>
      </trkpt>
      <trkpt lat="45.0324" lon="5.51318">
        <ele>1254.1999511719</ele>
        <time>2024-07-14T06:50:04.000Z</time>
      </trkpt>
      <trkpt lat="45.03241" lon="5.51317">
        <ele>1254.4000244141</ele>
        <time>2024-07-14T06:50:05.000Z</time>
      </trkpt>
      <trkpt lat="45.03243" lon="5.51316">
        <ele>1254.5999755859</ele>
        <time>2024-07-14T06:50:06.000Z</time>
      </trkpt>
      <trkpt lat="45.03245" lon="5.51315">
        <ele>1254.8000488281</ele>
        <time>2024-07-14T06:50:07.000Z</time>
      </trkpt>
      <trkpt lat="45.03247" lon="5.51314">
        <ele>1255.4000244141</ele>
        <time>2024-07-14T06:50:08.000Z</time>
      </trkpt>
      <trkpt lat="45.03249" lon="5.51313">
        <ele>1255.8000488281</ele>
        <time>2024-07-14T06:50:09.000Z</time>
      </trkpt>
      <trkpt lat="45.0325" lon="5.51312">
        <ele>1255.8000488281</ele>
        <time>2024-07-14T06:50:10.000Z</time>
      </trkpt>
      <trkpt lat="45.03252" lon="5.51311">
        <ele>1256.1999511719</ele>
        <time>2024-07-14T06:50:11.000Z</time>
      </trkpt>
      <trkpt lat="45.03254" lon="5.51311">
        <ele>1256.4000244141</ele>
        <time>2024-07-14T06:50:12.000Z</time>
      </trkpt>
      <trkpt lat="45.03256" lon="5.5131">
        <ele>1256.4000244141</ele>
        <time>2024-07-14T06:50:13.000Z</time>
      </trkpt>
      <trkpt lat="45.03258" lon="5.51309">
        <ele>1256.8000488281</ele>
        <time>2024-07-14T06:50:14.000Z</time>
      </trkpt>
      <trkpt lat="45.03259" lon="5.51309">
        <ele>1257</ele>
        <time>2024-07-14T06:50:15.000Z</time>
      </trkpt>
      <trkpt lat="45.03261" lon="5.51308">
        <ele>1257.5999755859</ele>
        <time>2024-07-14T06:50:16.000Z</time>
      </trkpt>
      <trkpt lat="45.03262" lon="5.51307">
        <ele>1257.5999755859</ele>
        <time>2024-07-14T06:50:17.000Z</time>
      </trkpt>
      <trkpt lat="45.03264" lon="5.51306">
        <ele>1257.8000488281</ele>
        <time>2024-07-14T06:50:18.000Z</time>
      </trkpt>
      <trkpt lat="45.03265" lon="5.51305">
        <ele>1258</ele>
        <time>2024-07-14T06:50:19.000Z</time>
      </trkpt>
      <trkpt lat="45.03267" lon="5.51305">
        <ele>1258.1999511719</ele>
        <time>2024-07-14T06:50:20.000Z</time>
      </trkpt>
      <trkpt lat="45.03269" lon="5.51304">
        <ele>1258.5999755859</ele>
        <time>2024-07-14T06:50:21.000Z</time>
      </trkpt>
      <trkpt lat="45.03271" lon="5.51305">
        <ele>1258.8000488281</ele>
        <time>2024-07-14T06:50:22.000Z</time>
      </trkpt>
      <trkpt lat="45.03273" lon="5.51305">
        <ele>1259</ele>
        <time>2024-07-14T06:50:23.000Z</time>
      </trkpt>
      <trkpt lat="45.03276" lon="5.51305">
        <ele>1259.1999511719</ele>
        <time>2024-07-14T06:50:24.000Z</time>
      </trkpt>
      <trkpt lat="45.03278" lon="5.51305">
        <ele>1259.1999511719</ele>
        <time>2024-07-14T06:50:25.000Z</time>
      </trkpt>
      <trkpt lat="45.0328" lon="5.51305">
        <ele>1259.4000244141</ele>
        <time>2024-07-14T06:50:26.000Z</time>
      </trkpt>
      <trkpt lat="45.03282" lon="5.51305">
        <ele>1259.5999755859</ele>
        <time>2024-07-14T06:50:27.000Z</time>
      </trkpt>
      <trkpt lat="45.03285" lon="5.51306">
        <ele>1259.8000488281</ele>
        <time>2024-07-14T06:50:28.000Z</time>
      </trkpt>
      <trkpt lat="45.03287" lon="5.51305">
        <ele>1260</ele>
        <time>2024-07-14T06:50:29.000Z</time>
      </trkpt>
      <trkpt lat="45.03289" lon="5.51305">
        <ele>1260.4000244141</ele>
        <time>2024-07-14T06:50:30.000Z</time>
      </trkpt>
      <trkpt lat="45.03291" lon="5.51305">
        <ele>1260.5999755859</ele>
        <time>2024-07-14T06:50:31.000Z</time>
      </trkpt>
      <trkpt lat="45.03293" lon="5.51304">
        <ele>1260.5999755859</ele>
        <time>2024-07-14T06:50:32.000Z</time>
      </trkpt>
      <trkpt lat="45.03295" lon="5.51304">
        <ele>1260.5999755859</ele>
        <time>2024-07-14T06:50:33.000Z</time>
      </trkpt>
      <trkpt lat="45.03298" lon="5.51304">
        <ele>1260.8000488281</ele>
        <time>2024-07-14T06:50:34.000Z</time>
      </trkpt>
      <trkpt lat="45.033" lon="5.51305">
        <ele>1261</ele>
        <time>2024-07-14T06:50:35.000Z</time>
      </trkpt>
      <trkpt lat="45.03302" lon="5.51306">
        <ele>1261.1999511719</ele>
        <time>2024-07-14T06:50:36.000Z</time>
      </trkpt>
      <trkpt lat="45.03304" lon="5.51306">
        <ele>1261.4000244141</ele>
        <time>2024-07-14T06:50:37.000Z</time>
      </trkpt>
      <trkpt lat="45.03306" lon="5.51306">
        <ele>1261.4000244141</ele>
        <time>2024-07-14T06:50:38.000Z</time>
      </trkpt>
      <trkpt lat="45.03308" lon="5.51307">
        <ele>1261.4000244141</ele>
        <time>2024-07-14T06:50:39.000Z</time>
      </trkpt>
      <trkpt lat="45.0331" lon="5.51307">
        <ele>1261.5999755859</ele>
        <time>2024-07-14T06:50:40.000Z</time>
      </trkpt>
      <trkpt lat="45.03312" lon="5.51306">
        <ele>1261.5999755859</ele>
        <time>2024-07-14T06:50:41.000Z</time>
      </trkpt>
      <trkpt lat="45.03314" lon="5.51305">
        <ele>1261.5999755859</ele>
        <time>2024-07-14T06:50:42.000Z</time>
      </trkpt>
      <trkpt lat="45.03316" lon="5.51304">
        <ele>1261.8000488281</ele>
        <time>2024-07-14T06:50:43.000Z</time>
      </trkpt>
      <trkpt lat="45.03318" lon="5.51303">
        <ele>1262</ele>
        <time>2024-07-14T06:50:44.000Z</time>
      </trkpt>
      <trkpt lat="45.03319" lon="5.51303">
        <ele>1262.1999511719</ele>
        <time>2024-07-14T06:50:45.000Z</time>
      </trkpt>
      <trkpt lat="45.03321" lon="5.51302">
        <ele>1262.1999511719</ele>
        <time>2024-07-14T06:50:46.000Z</time>
      </trkpt>
      <trkpt lat="45.03323" lon="5.513">
        <ele>1262.4000244141</ele>
        <time>2024-07-14T06:50:47.000Z</time>
      </trkpt>
      <trkpt lat="45.03325" lon="5.51299">
        <ele>1262.4000244141</ele>
        <time>2024-07-14T06:50:48.000Z</time>
      </trkpt>
      <trkpt lat="45.03328" lon="5.51298">
        <ele>1262.5999755859</ele>
        <time>2024-07-14T06:50:49.000Z</time>
      </trkpt>
      <trkpt lat="45.0333" lon="5.51297">
        <ele>1262.5999755859</ele>
        <time>2024-07-14T06:50:50.000Z</time>
      </trkpt>
      <trkpt lat="45.03331" lon="5.51297">
        <ele>1262.8000488281</ele>
        <time>2024-07-14T06:50:51.000Z</time>
      </trkpt>
      <trkpt lat="45.03333" lon="5.51296">
        <ele>1262.8000488281</ele>
        <time>2024-07-14T06:50:52.000Z</time>
      </trkpt>
      <trkpt lat="45.03335" lon="5.51295">
        <ele>1263</ele>
        <time>2024-07-14T06:50:53.000Z</time>
      </trkpt>
      <trkpt lat="45.03337" lon="5.51294">
        <ele>1263.1999511719</ele>
        <time>2024-07-14T06:50:54.000Z</time>
      </trkpt>
      <trkpt lat="45.03338" lon="5.51293">
        <ele>1263.1999511719</ele>
        <time>2024-07-14T06:50:55.000Z</time>
      </trkpt>
      <trkpt lat="45.0334" lon="5.51291">
        <ele>1263.4000244141</ele>
        <time>2024-07-14T06:50:56.000Z</time>
      </trkpt>
      <trkpt lat="45.03341" lon="5.5129">
        <ele>1263.4000244141</ele>
        <time>2024-07-14T06:50:57.000Z</time>
      </trkpt>
      <trkpt lat="45.03343" lon="5.51289">
        <ele>1263.5999755859</ele>
        <time>2024-07-14T06:50:58.000Z</time>
      </trkpt>
      <trkpt lat="45.03345" lon="5.51288">
        <ele>1263.8000488281</ele>
        <time>2024-07-14T06:50:59.000Z</time>
      </trkpt>
      <trkpt lat="45.03347" lon="5.51287">
        <ele>1263.8000488281</ele>
        <time>2024-07-14T06:51:00.000Z</time>
      </trkpt>
      <trkpt lat="45.0335" lon="5.51286">
        <ele>1264</ele>
        <time>2024-07-14T06:51:01.000Z</time>
      </trkpt>
      <trkpt lat="45.03352" lon="5.51285">
        <ele>1264</ele>
        <time>2024-07-14T06:51:02.000Z</time>
      </trkpt>
      <trkpt lat="45.03354" lon="5.51283">
        <ele>1264.1999511719</ele>
        <time>2024-07-14T06:51:03.000Z</time>
      </trkpt>
      <trkpt lat="45.03357" lon="5.51283">
        <ele>1264.4000244141</ele>
        <time>2024-07-14T06:51:04.000Z</time>
      </trkpt>
      <trkpt lat="45.03359" lon="5.51284">
        <ele>1264.4000244141</ele>
        <time>2024-07-14T06:51:05.000Z</time>
      </trkpt>
      <trkpt lat="45.03361" lon="5.51285">
        <ele>1264.4000244141</ele>
        <time>2024-07-14T06:51:06.000Z</time>
      </trkpt>
      <trkpt lat="45.03363" lon="5.51286">
        <ele>1264.4000244141</ele>
        <time>2024-07-14T06:51:07.000Z</time>
      </trkpt>
      <trkpt lat="45.03365" lon="5.51288">
        <ele>1264.1999511719</ele>
        <time>2024-07-14T06:51:08.000Z</time>
      </trkpt>
      <trkpt lat="45.03367" lon="5.5129">
        <ele>1264</ele>
        <time>2024-07-14T06:51:09.000Z</time>
      </trkpt>
      <trkpt lat="45.03369" lon="5.51293">
        <ele>1263.8000488281</ele>
        <time>2024-07-14T06:51:10.000Z</time>
      </trkpt>
      <trkpt lat="45.03371" lon="5.51295">
        <ele>1263.5999755859</ele>
        <time>2024-07-14T06:51:11.000Z</time>
      </trkpt>
      <trkpt lat="45.03374" lon="5.51297">
        <ele>1263.5999755859</ele>
        <time>2024-07-14T06:51:12.000Z</time>
      </trkpt>
      <trkpt lat="45.03377" lon="5.51298">
        <ele>1263.5999755859</ele>
        <time>2024-07-14T06:51:13.000Z</time>
      </trkpt>
      <trkpt lat="45.03379" lon="5.51299">
        <ele>1263.4000244141</ele>
        <time>2024-07-14T06:51:14.000Z</time>
      </trkpt>
      <trkpt lat="45.03382" lon="5.513">
        <ele>1263.4000244141</ele>
        <time>2024-07-14T06:51:15.000Z</time>
      </trkpt>
      <trkpt lat="45.03385" lon="5.513">
        <ele>1263.1999511719</ele>
        <time>2024-07-14T06:51:16.000Z</time>
      </trkpt>
      <trkpt lat="45.03387" lon="5.51301">
        <ele>1262.8000488281</ele>
        <time>2024-07-14T06:51:17.000Z</time>
      </trkpt>
      <trkpt lat="45.0339" lon="5.51301">
        <ele>1262.8000488281</ele>
        <time>2024-07-14T06:51:18.000Z</time>
      </trkpt>
      <trkpt lat="45.03392" lon="5.51301">
        <ele>1262.5999755859</ele>
        <time>2024-07-14T06:51:19.000Z</time>
      </trkpt>
      <trkpt lat="45.03395" lon="5.51301">
        <ele>1262.5999755859</ele>
        <time>2024-07-14T06:51:20.000Z</time>
      </trkpt>
      <trkpt lat="45.03397" lon="5.51301">
        <ele>1262.5999755859</ele>
        <time>2024-07-14T06:51:21.000Z</time>
      </trkpt>
      <trkpt lat="45.03399" lon="5.51299">
        <ele>1262.5999755859</ele>
        <time>2024-07-14T06:51:22.000Z</time>
      </trkpt>
      <trkpt lat="45.03402" lon="5.51299">
        <ele>1262.5999755859</ele>
        <time>2024-07-14T06:51:23.000Z</time>
      </trkpt>
      <trkpt lat="45.03405" lon="5.51298">
        <ele>1263</ele>
        <time>2024-07-14T06:51:24.000Z</time>
      </trkpt>
      <trkpt lat="45.03407" lon="5.51298">
        <ele>1263</ele>
        <time>2024-07-14T06:51:25.000Z</time>
      </trkpt>
      <trkpt lat="45.03411" lon="5.51297">
        <ele>1263.4000244141</ele>
        <time>2024-07-14T06:51:26.000Z</time>
      </trkpt>
      <trkpt lat="45.03413" lon="5.51297">
        <ele>1263.5999755859</ele>
        <time>2024-07-14T06:51:27.000Z</time>
      </trkpt>
      <trkpt lat="45.03416" lon="5.51296">
        <ele>1263.5999755859</ele>
        <time>2024-07-14T06:51:28.000Z</time>
      </trkpt>
      <trkpt lat="45.03419" lon="5.51296">
        <ele>1263.5999755859</ele>
        <time>2024-07-14T06:51:29.000Z</time>
      </trkpt>
      <trkpt lat="45.03421" lon="5.51296">
        <ele>1263.8000488281</ele>
        <time>2024-07-14T06:51:30.000Z</time>
      </trkpt>
      <trkpt lat="45.03424" lon="5.51295">
        <ele>1263.8000488281</ele>
        <time>2024-07-14T06:51:31.000Z</time>
      </trkpt>
      <trkpt lat="45.03426" lon="5.51296">
        <ele>1263.8000488281</ele>
        <time>2024-07-14T06:51:32.000Z</time>
      </trkpt>
      <trkpt lat="45.03429" lon="5.51296">
        <ele>1264</ele>
        <time>2024-07-14T06:51:33.000Z</time>
      </trkpt>
      <trkpt lat="45.03432" lon="5.51296">
        <ele>1264</ele>
        <time>2024-07-14T06:51:34.000Z</time>
      </trkpt>
      <trkpt lat="45.03434" lon="5.51295">
        <ele>1264</ele>
        <time>2024-07-14T06:51:35.000Z</time>
      </trkpt>
      <trkpt lat="45.03436" lon="5.51294">
        <ele>1264.1999511719</ele>
        <time>2024-07-14T06:51:36.000Z</time>
      </trkpt>
      <trkpt lat="45.03438" lon="5.51293">
        <ele>1264.1999511719</ele>
        <time>2024-07-14T06:51:37.000Z</time>
      </trkpt>
      <trkpt lat="45.03441" lon="5.51292">
        <ele>1264.1999511719</ele>
        <time>2024-07-14T06:51:38.000Z</time>
      </trkpt>
      <trkpt lat="45.03443" lon="5.51291">
        <ele>1264.1999511719</ele>
        <time>2024-07-14T06:51:39.000Z</time>
      </trkpt>
      <trkpt lat="45.03446" lon="5.5129">
        <ele>1264.1999511719</ele>
        <time>2024-07-14T06:51:40.000Z</time>
      </trkpt>
      <trkpt lat="45.03449" lon="5.51288">
        <ele>1264.1999511719</ele>
        <time>2024-07-14T06:51:41.000Z</time>
      </trkpt>
      <trkpt lat="45.03451" lon="5.51287">
        <ele>1263.8000488281</ele>
        <time>2024-07-14T06:51:42.000Z</time>
      </trkpt>
      <trkpt lat="45.03454" lon="5.51286">
        <ele>1263.4000244141</ele>
        <time>2024-07-14T06:51:43.000Z</time>
      </trkpt>
      <trkpt lat="45.03457" lon="5.51285">
        <ele>1263</ele>
        <time>2024-07-14T06:51:44.000Z</time>
      </trkpt>
      <trkpt lat="45.0346" lon="5.51283">
        <ele>1262.5999755859</ele>
        <time>2024-07-14T06:51:45.000Z</time>
      </trkpt>
      <trkpt lat="45.03463" lon="5.51282">
        <ele>1262.1999511719</ele>
        <time>2024-07-14T06:51:46.000Z</time>
      </trkpt>
      <trkpt lat="45.03466" lon="5.51281">
        <ele>1261.8000488281</ele>
        <time>2024-07-14T06:51:47.000Z</time>
      </trkpt>
      <trkpt lat="45.03469" lon="5.5128">
        <ele>1261.5999755859</ele>
        <time>2024-07-14T06:51:48.000Z</time>
      </trkpt>
      <trkpt lat="45.03471" lon="5.51278">
        <ele>1261.5999755859</ele>
        <time>2024-07-14T06:51:49.000Z</time>
      </trkpt>
      <trkpt lat="45.03473" lon="5.51276">
        <ele>1261.4000244141</ele>
        <time>2024-07-14T06:51:50.000Z</time>
      </trkpt>
      <trkpt lat="45.03475" lon="5.51274">
        <ele>1261.1999511719</ele>
        <time>2024-07-14T06:51:51.000Z</time>
      </trkpt>
      <trkpt lat="45.03476" lon="5.51272">
        <ele>1260.8000488281</ele>
        <time>2024-07-14T06:51:52.000Z</time>
      </trkpt>
      <trkpt lat="45.03478" lon="5.51269">
        <ele>1260.5999755859</ele>
        <time>2024-07-14T06:51:53.000Z</time>
      </trkpt>
      <trkpt lat="45.03479" lon="5.51267">
        <ele>1260.1999511719</ele>
        <time>2024-07-14T06:51:54.000Z</time>
      </trkpt>
      <trkpt lat="45.0348" lon="5.51265">
        <ele>1260.1999511719</ele>
        <time>2024-07-14T06:51:55.000Z</time>
      </trkpt>
      <trkpt lat="45.0348" lon="5.51262">
        <ele>1259.8000488281</ele>
        <time>2024-07-14T06:51:56.000Z</time>
      </trkpt>
      <trkpt lat="45.03479" lon="5.5126">
        <ele>1259.4000244141</ele>
        <time>2024-07-14T06:51:57.000Z</time>
      </trkpt>
      <trkpt lat="45.03477" lon="5.5126">
        <ele>1259</ele>
        <time>2024-07-14T06:51:58.000Z</time>
      </trkpt>
      <trkpt lat="45.03475" lon="5.5126">
        <ele>1258.4000244141</ele>
        <time>2024-07-14T06:51:59.000Z</time>
      </trkpt>
      <trkpt lat="45.03473" lon="5.5126">
        <ele>1258.1999511719</ele>
        <time>2024-07-14T06:52:00.000Z</time>
      </trkpt>
      <trkpt lat="45.0347" lon="5.51259">
        <ele>1258</ele>
        <time>2024-07-14T06:52:01.000Z</time>
      </trkpt>
      <trkpt lat="45.03468" lon="5.51257">
        <ele>1258</ele>
        <time>2024-07-14T06:52:02.000Z</time>
      </trkpt>
      <trkpt lat="45.03465" lon="5.51256">
        <ele>1257.5999755859</ele>
        <time>2024-07-14T06:52:03.000Z</time>
      </trkpt>
      <trkpt lat="45.03463" lon="5.51254">
        <ele>1257.1999511719</ele>
        <time>2024-07-14T06:52:04.000Z</time>
      </trkpt>
      <trkpt lat="45.03461" lon="5.51251">
        <ele>1256.5999755859</ele>
        <time>2024-07-14T06:52:05.000Z</time>
      </trkpt>
      <trkpt lat="45.0346" lon="5.51248">
        <ele>1256</ele>
        <time>2024-07-14T06:52:06.000Z</time>
      </trkpt>
      <trkpt lat="45.03459" lon="5.51245">
        <ele>1255.8000488281</ele>
        <time>2024-07-14T06:52:07.000Z</time>
      </trkpt>
      <trkpt lat="45.03458" lon="5.51242">
        <ele>1255.4000244141</ele>
        <time>2024-07-14T06:52:08.000Z</time>
      </trkpt>
      <trkpt lat="45.03457" lon="5.51238">
        <ele>1255.1999511719</ele>
        <time>2024-07-14T06:52:09.000Z</time>
      </trkpt>
      <trkpt lat="45.03457" lon="5.51234">
        <ele>1255</ele>
        <time>2024-07-14T06:52:10.000Z</time>
      </trkpt>
      <trkpt lat="45.03457" lon="5.5123">
        <ele>1254.5999755859</ele>
        <time>2024-07-14T06:52:11.000Z</time>
      </trkpt>
      <trkpt lat="45.03456" lon="5.51227">
        <ele>1254.1999511719</ele>
        <time>2024-07-14T06:52:12.000Z</time>
      </trkpt>
      <trkpt lat="45.03456" lon="5.51224">
        <ele>1253.5999755859</ele>
        <time>2024-07-14T06:52:13.000Z</time>
      </trkpt>
      <trkpt lat="45.03456" lon="5.51222">
        <ele>1253.1999511719</ele>
        <time>2024-07-14T06:52:14.000Z</time>
      </trkpt>
      <trkpt lat="45.03456" lon="5.5122">
        <ele>1252.5999755859</ele>
        <time>2024-07-14T06:52:15.000Z</time>
      </trkpt>
      <trkpt lat="45.03456" lon="5.51218">
        <ele>1252.4000244141</ele>
        <time>2024-07-14T06:52:16.000Z</time>
      </trkpt>
      <trkpt lat="45.03456" lon="5.51216">
        <ele>1252.1999511719</ele>
        <time>2024-07-14T06:52:17.000Z</time>
      </trkpt>
      <trkpt lat="45.03455" lon="5.51214">
        <ele>1252</ele>
        <time>2024-07-14T06:52:18.000Z</time>
      </trkpt>
      <trkpt lat="45.03455" lon="5.51213">
        <ele>1251.5999755859</ele>
        <time>2024-07-14T06:52:19.000Z</time>
      </trkpt>
      <trkpt lat="45.03455" lon="5.51211">
        <ele>1251.4000244141</ele>
        <time>2024-07-14T06:52:20.000Z</time>
      </trkpt>
      <trkpt lat="45.03454" lon="5.5121">
        <ele>1251</ele>
        <time>2024-07-14T06:52:21.000Z</time>
      </trkpt>
      <trkpt lat="45.03454" lon="5.51208">
        <ele>1250.5999755859</ele>
        <time>2024-07-14T06:52:22.000Z</time>
      </trkpt>
      <trkpt lat="45.03454" lon="5.51207">
        <ele>1250.1999511719</ele>
        <time>2024-07-14T06:52:23.000Z</time>
      </trkpt>
      <trkpt lat="45.03454" lon="5.51206">
        <ele>1250</ele>
        <time>2024-07-14T06:52:24.000Z</time>
      </trkpt>
      <trkpt lat="45.03454" lon="5.51205">
        <ele>1250</ele>
        <time>2024-07-14T06:52:25.000Z</time>
      </trkpt>
      <trkpt lat="45.03454" lon="5.51203">
        <ele>1249.5999755859</ele>
        <time>2024-07-14T06:52:26.000Z</time>
      </trkpt>
      <trkpt lat="45.03454" lon="5.512">
        <ele>1249.1999511719</ele>
        <time>2024-07-14T06:52:27.000Z</time>
      </trkpt>
      <trkpt lat="45.03455" lon="5.51199">
        <ele>1248.5999755859</ele>
        <time>2024-07-14T06:52:28.000Z</time>
      </trkpt>
      <trkpt lat="45.03455" lon="5.51197">
        <ele>1248.1999511719</ele>
        <time>2024-07-14T06:52:29.000Z</time>
      </trkpt>
      <trkpt lat="45.03456" lon="5.51194">
        <ele>1247.8000488281</ele>
        <time>2024-07-14T06:52:30.000Z</time>
      </trkpt>
      <trkpt lat="45.03457" lon="5.51191">
        <ele>1247.4000244141</ele>
        <time>2024-07-14T06:52:31.000Z</time>
      </trkpt>
      <trkpt lat="45.03458" lon="5.51188">
        <ele>1247.1999511719</ele>
        <time>2024-07-14T06:52:32.000Z</time>
      </trkpt>
      <trkpt lat="45.03458" lon="5.51184">
        <ele>1247</ele>
        <time>2024-07-14T06:52:33.000Z</time>
      </trkpt>
      <trkpt lat="45.0346" lon="5.5118">
        <ele>1246.5999755859</ele>
        <time>2024-07-14T06:52:34.000Z</time>
      </trkpt>
      <trkpt lat="45.03461" lon="5.51177">
        <ele>1246.1999511719</ele>
        <time>2024-07-14T06:52:35.000Z</time>
      </trkpt>
      <trkpt lat="45.03461" lon="5.51174">
        <ele>1245.8000488281</ele>
        <time>2024-07-14T06:52:36.000Z</time>
      </trkpt>
      <trkpt lat="45.03462" lon="5.51171">
        <ele>1245.5999755859</ele>
        <time>2024-07-14T06:52:37.000Z</time>
      </trkpt>
      <trkpt lat="45.03462" lon="5.51168">
        <ele>1245.4000244141</ele>
        <time>2024-07-14T06:52:38.000Z</time>
      </trkpt>
      <trkpt lat="45.03463" lon="5.51166">
        <ele>1245.1999511719</ele>
        <time>2024-07-14T06:52:39.000Z</time>
      </trkpt>
      <trkpt lat="45.03464" lon="5.51164">
        <ele>1245</ele>
        <time>2024-07-14T06:52:40.000Z</time>
      </trkpt>
      <trkpt lat="45.03465" lon="5.51162">
        <ele>1245</ele>
        <time>2024-07-14T06:52:41.000Z</time>
      </trkpt>
      <trkpt lat="45.03466" lon="5.51159">
        <ele>1245</ele>
        <time>2024-07-14T06:52:42.000Z</time>
      </trkpt>
      <trkpt lat="45.03468" lon="5.51156">
        <ele>1244.5999755859</ele>
        <time>2024-07-14T06:52:43.000Z</time>
      </trkpt>
      <trkpt lat="45.03469" lon="5.51152">
        <ele>1244.4000244141</ele>
        <time>2024-07-14T06:52:44.000Z</time>
      </trkpt>
      <trkpt lat="45.03471" lon="5.5115">
        <ele>1244.1999511719</ele>
        <time>2024-07-14T06:52:45.000Z</time>
      </trkpt>
      <trkpt lat="45.03472" lon="5.51147">
        <ele>1243.8000488281</ele>
        <time>2024-07-14T06:52:46.000Z</time>
      </trkpt>
      <trkpt lat="45.03474" lon="5.51146">
        <ele>1243.4000244141</ele>
        <time>2024-07-14T06:52:47.000Z</time>
      </trkpt>
      <trkpt lat="45.03475" lon="5.51144">
        <ele>1243.1999511719</ele>
        <time>2024-07-14T06:52:48.000Z</time>
      </trkpt>
      <trkpt lat="45.03476" lon="5.51143">
        <ele>1242.8000488281</ele>
        <time>2024-07-14T06:52:49.000Z</time>
      </trkpt>
      <trkpt lat="45.03478" lon="5.51141">
        <ele>1242.5999755859</ele>
        <time>2024-07-14T06:52:50.000Z</time>
      </trkpt>
      <trkpt lat="45.0348" lon="5.51139">
        <ele>1242.5999755859</ele>
        <time>2024-07-14T06:52:51.000Z</time>
      </trkpt>
      <trkpt lat="45.03482" lon="5.51138">
        <ele>1242.4000244141</ele>
        <time>2024-07-14T06:52:52.000Z</time>
      </trkpt>
      <trkpt lat="45.03485" lon="5.51137">
        <ele>1242.1999511719</ele>
        <time>2024-07-14T06:52:53.000Z</time>
      </trkpt>
      <trkpt lat="45.03486" lon="5.51137">
        <ele>1242</ele>
        <time>2024-07-14T06:52:54.000Z</time>
      </trkpt>
      <trkpt lat="45.03488" lon="5.51137">
        <ele>1241.4000244141</ele>
        <time>2024-07-14T06:52:55.000Z</time>
      </trkpt>
      <trkpt lat="45.03489" lon="5.51137">
        <ele>1241</ele>
        <time>2024-07-14T06:52:56.000Z</time>
      </trkpt>
      <trkpt lat="45.03492" lon="5.51137">
        <ele>1240.8000488281</ele>
        <time>2024-07-14T06:52:57.000Z</time>
      </trkpt>
      <trkpt lat="45.03493" lon="5.51136">
        <ele>1240.5999755859</ele>
        <time>2024-07-14T06:52:58.000Z</time>
      </trkpt>
      <trkpt lat="45.03495" lon="5.51136">
        <ele>1240.4000244141</ele>
        <time>2024-07-14T06:52:59.000Z</time>
      </trkpt>
      <trkpt lat="45.03496" lon="5.51135">
        <ele>1240</ele>
        <time>2024-07-14T06:53:00.000Z</time>
      </trkpt>
      <trkpt lat="45.03498" lon="5.51132">
        <ele>1239.8000488281</ele>
        <time>2024-07-14T06:53:01.000Z</time>
      </trkpt>
      <trkpt lat="45.03499" lon="5.5113">
        <ele>1239.5999755859</ele>
        <time>2024-07-14T06:53:02.000Z</time>
      </trkpt>
      <trkpt lat="45.03499" lon="5.51127">
        <ele>1239.5999755859</ele>
        <time>2024-07-14T06:53:03.000Z</time>
      </trkpt>
      <trkpt lat="45.03499" lon="5.51123">
        <ele>1239.4000244141</ele>
        <time>2024-07-14T06:53:04.000Z</time>
      </trkpt>
      <trkpt lat="45.03499" lon="5.5112">
        <ele>1239.4000244141</ele>
        <time>2024-07-14T06:53:05.000Z</time>
      </trkpt>
      <trkpt lat="45.03499" lon="5.51116">
        <ele>1239.1999511719</ele>
        <time>2024-07-14T06:53:06.000Z</time>
      </trkpt>
      <trkpt lat="45.03498" lon="5.51113">
        <ele>1239.1999511719</ele>
        <time>2024-07-14T06:53:07.000Z</time>
      </trkpt>
      <trkpt lat="45.03497" lon="5.51111">
        <ele>1239</ele>
        <time>2024-07-14T06:53:08.000Z</time>
      </trkpt>
      <trkpt lat="45.03497" lon="5.51106">
        <ele>1239</ele>
        <time>2024-07-14T06:53:09.000Z</time>
      </trkpt>
      <trkpt lat="45.03496" lon="5.51102">
        <ele>1238.4000244141</ele>
        <time>2024-07-14T06:53:10.000Z</time>
      </trkpt>
      <trkpt lat="45.03496" lon="5.51097">
        <ele>1238</ele>
        <time>2024-07-14T06:53:11.000Z</time>
      </trkpt>
      <trkpt lat="45.03497" lon="5.51093">
        <ele>1237.5999755859</ele>
        <time>2024-07-14T06:53:12.000Z</time>
      </trkpt>
      <trkpt lat="45.03497" lon="5.51089">
        <ele>1237.5999755859</ele>
        <time>2024-07-14T06:53:13.000Z</time>
      </trkpt>
      <trkpt lat="45.03499" lon="5.51086">
        <ele>1237.4000244141</ele>
        <time>2024-07-14T06:53:14.000Z</time>
      </trkpt>
      <trkpt lat="45.035" lon="5.51083">
        <ele>1237.4000244141</ele>
        <time>2024-07-14T06:53:15.000Z</time>
      </trkpt>
      <trkpt lat="45.03502" lon="5.51081">
        <ele>1237.4000244141</ele>
        <time>2024-07-14T06:53:16.000Z</time>
      </trkpt>
      <trkpt lat="45.03504" lon="5.51079">
        <ele>1237.5999755859</ele>
        <time>2024-07-14T06:53:17.000Z</time>
      </trkpt>
      <trkpt lat="45.03506" lon="5.51078">
        <ele>1237.8000488281</ele>
        <time>2024-07-14T06:53:18.000Z</time>
      </trkpt>
      <trkpt lat="45.03508" lon="5.51076">
        <ele>1238</ele>
        <time>2024-07-14T06:53:19.000Z</time>
      </trkpt>
      <trkpt lat="45.0351" lon="5.51074">
        <ele>1238.1999511719</ele>
        <time>2024-07-14T06:53:20.000Z</time>
      </trkpt>
      <trkpt lat="45.03511" lon="5.51072">
        <ele>1238.5999755859</ele>
        <time>2024-07-14T06:53:21.000Z</time>
      </trkpt>
      <trkpt lat="45.03513" lon="5.51071">
        <ele>1238.8000488281</ele>
        <time>2024-07-14T06:53:22.000Z</time>
      </trkpt>
      <trkpt lat="45.03514" lon="5.51069">
        <ele>1239</ele>
        <time>2024-07-14T06:53:23.000Z</time>
      </trkpt>
      <trkpt lat="45.03516" lon="5.51067">
        <ele>1239.4000244141</ele>
        <time>2024-07-14T06:53:24.000Z</time>
      </trkpt>
      <trkpt lat="45.03517" lon="5.51065">
        <ele>1239.8000488281</ele>
        <time>2024-07-14T06:53:25.000Z</time>
      </trkpt>
      <trkpt lat="45.03518" lon="5.51063">
        <ele>1240</ele>
        <time>2024-07-14T06:53:26.000Z</time>
      </trkpt>
      <trkpt lat="45.03518" lon="5.5106">
        <ele>1240.4000244141</ele>
        <time>2024-07-14T06:53:27.000Z</time>
      </trkpt>
      <trkpt lat="45.03519" lon="5.51058">
        <ele>1240.5999755859</ele>
        <time>2024-07-14T06:53:28.000Z</time>
      </trkpt>
      <trkpt lat="45.0352" lon="5.51056">
        <ele>1241</ele>
        <time>2024-07-14T06:53:29.000Z</time>
      </trkpt>
      <trkpt lat="45.03522" lon="5.51054">
        <ele>1241.4000244141</ele>
        <time>2024-07-14T06:53:30.000Z</time>
      </trkpt>
      <trkpt lat="45.03523" lon="5.51053">
        <ele>1241.8000488281</ele>
        <time>2024-07-14T06:53:31.000Z</time>
      </trkpt>
      <trkpt lat="45.03524" lon="5.51051">
        <ele>1242</ele>
        <time>2024-07-14T06:53:32.000Z</time>
      </trkpt>
      <trkpt lat="45.03524" lon="5.51049">
        <ele>1242.1999511719</ele>
        <time>2024-07-14T06:53:33.000Z</time>
      </trkpt>
      <trkpt lat="45.03525" lon="5.51046">
        <ele>1242.4000244141</ele>
        <time>2024-07-14T06:53:34.000Z</time>
      </trkpt>
      <trkpt lat="45.03525" lon="5.51044">
        <ele>1242.5999755859</ele>
        <time>2024-07-14T06:53:35.000Z</time>
      </trkpt>
      <trkpt lat="45.03526" lon="5.51042">
        <ele>1243</ele>
        <time>2024-07-14T06:53:36.000Z</time>
      </trkpt>
      <trkpt lat="45.03527" lon="5.5104">
        <ele>1243.1999511719</ele>
        <time>2024-07-14T06:53:37.000Z</time>
      </trkpt>
      <trkpt lat="45.03527" lon="5.51038">
        <ele>1243.5999755859</ele>
        <time>2024-07-14T06:53:38.000Z</time>
      </trkpt>
      <trkpt lat="45.03528" lon="5.51036">
        <ele>1244</ele>
        <time>2024-07-14T06:53:39.000Z</time>
      </trkpt>
      <trkpt lat="45.0353" lon="5.51034">
        <ele>1244.5999755859</ele>
        <time>2024-07-14T06:53:40.000Z</time>
      </trkpt>
      <trkpt lat="45.0353" lon="5.51033">
        <ele>1245</ele>
        <time>2024-07-14T06:53:41.000Z</time>
      </trkpt>
      <trkpt lat="45.03531" lon="5.51032">
        <ele>1245</ele>
        <time>2024-07-14T06:53:42.000Z</time>
      </trkpt>
      <trkpt lat="45.03532" lon="5.5103">
        <ele>1245</ele>
        <time>2024-07-14T06:53:43.000Z</time>
      </trkpt>
      <trkpt lat="45.03532" lon="5.51028">
        <ele>1245</ele>
        <time>2024-07-14T06:53:44.000Z</time>
      </trkpt>
      <trkpt lat="45.03532" lon="5.51026">
        <ele>1245</ele>
        <time>2024-07-14T06:53:45.000Z</time>
      </trkpt>
      <trkpt lat="45.03532" lon="5.51025">
        <ele>1245</ele>
        <time>2024-07-14T06:53:46.000Z</time>
      </trkpt>
      <trkpt lat="45.03532" lon="5.51021">
        <ele>1245</ele>
        <time>2024-07-14T06:53:47.000Z</time>
      </trkpt>
      <trkpt lat="45.03532" lon="5.51018">
        <ele>1244.5999755859</ele>
        <time>2024-07-14T06:53:48.000Z</time>
      </trkpt>
      <trkpt lat="45.03531" lon="5.51014">
        <ele>1244.4000244141</ele>
        <time>2024-07-14T06:53:49.000Z</time>
      </trkpt>
      <trkpt lat="45.03531" lon="5.5101">
        <ele>1244.1999511719</ele>
        <time>2024-07-14T06:53:50.000Z</time>
      </trkpt>
      <trkpt lat="45.03531" lon="5.51006">
        <ele>1243.8000488281</ele>
        <time>2024-07-14T06:53:51.000Z</time>
      </trkpt>
      <trkpt lat="45.03532" lon="5.51003">
        <ele>1243.8000488281</ele>
        <time>2024-07-14T06:53:52.000Z</time>
      </trkpt>
      <trkpt lat="45.03533" lon="5.50999">
        <ele>1243.8000488281</ele>
        <time>2024-07-14T06:53:53.000Z</time>
      </trkpt>
      <trkpt lat="45.03534" lon="5.50997">
        <ele>1243.8000488281</ele>
        <time>2024-07-14T06:53:54.000Z</time>
      </trkpt>
      <trkpt lat="45.03535" lon="5.50994">
        <ele>1243.8000488281</ele>
        <time>2024-07-14T06:53:55.000Z</time>
      </trkpt>
      <trkpt lat="45.03536" lon="5.50991">
        <ele>1244</ele>
        <time>2024-07-14T06:53:56.000Z</time>
      </trkpt>
      <trkpt lat="45.03538" lon="5.50989">
        <ele>1244.1999511719</ele>
        <time>2024-07-14T06:53:57.000Z</time>
      </trkpt>
      <trkpt lat="45.03539" lon="5.50987">
        <ele>1244.4000244141</ele>
        <time>2024-07-14T06:53:58.000Z</time>
      </trkpt>
      <trkpt lat="45.03541" lon="5.50985">
        <ele>1244.4000244141</ele>
        <time>2024-07-14T06:53:59.000Z</time>
      </trkpt>
      <trkpt lat="45.03542" lon="5.50983">
        <ele>1244.4000244141</ele>
        <time>2024-07-14T06:54:00.000Z</time>
      </trkpt>
      <trkpt lat="45.03544" lon="5.50981">
        <ele>1244.5999755859</ele>
        <time>2024-07-14T06:54:01.000Z</time>
      </trkpt>
      <trkpt lat="45.03545" lon="5.50979">
        <ele>1244.5999755859</ele>
        <time>2024-07-14T06:54:02.000Z</time>
      </trkpt>
      <trkpt lat="45.03546" lon="5.50977">
        <ele>1244.8000488281</ele>
        <time>2024-07-14T06:54:03.000Z</time>
      </trkpt>
      <trkpt lat="45.03548" lon="5.50976">
        <ele>1245</ele>
        <time>2024-07-14T06:54:04.000Z</time>
      </trkpt>
      <trkpt lat="45.03548" lon="5.50973">
        <ele>1245.4000244141</ele>
        <time>2024-07-14T06:54:05.000Z</time>
      </trkpt>
      <trkpt lat="45.03548" lon="5.50971">
        <ele>1245.8000488281</ele>
        <time>2024-07-14T06:54:06.000Z</time>
      </trkpt>
      <trkpt lat="45.03548" lon="5.50969">
        <ele>1246.1999511719</ele>
        <time>2024-07-14T06:54:07.000Z</time>
      </trkpt>
      <trkpt lat="45.03547" lon="5.50966">
        <ele>1246.4000244141</ele>
        <time>2024-07-14T06:54:08.000Z</time>
      </trkpt>
      <trkpt lat="45.03547" lon="5.50965">
        <ele>1246.8000488281</ele>
        <time>2024-07-14T06:54:09.000Z</time>
      </trkpt>
      <trkpt lat="45.03547" lon="5.50963">
        <ele>1247.1999511719</ele>
        <time>2024-07-14T06:54:10.000Z</time>
      </trkpt>
      <trkpt lat="45.03546" lon="5.50962">
        <ele>1247.4000244141</ele>
        <time>2024-07-14T06:54:11.000Z</time>
      </trkpt>
      <trkpt lat="45.03546" lon="5.5096">
        <ele>1247.4000244141</ele>
        <time>2024-07-14T06:54:12.000Z</time>
      </trkpt>
      <trkpt lat="45.03546" lon="5.50958">
        <ele>1247.4000244141</ele>
        <time>2024-07-14T06:54:13.000Z</time>
      </trkpt>
      <trkpt lat="45.03546" lon="5.50955">
        <ele>1247.4000244141</ele>
        <time>2024-07-14T06:54:14.000Z</time>
      </trkpt>
      <trkpt lat="45.03546" lon="5.50953">
        <ele>1247.4000244141</ele>
        <time>2024-07-14T06:54:15.000Z</time>
      </trkpt>
      <trkpt lat="45.03546" lon="5.5095">
        <ele>1247.1999511719</ele>
        <time>2024-07-14T06:54:16.000Z</time>
      </trkpt>
      <trkpt lat="45.03547" lon="5.50947">
        <ele>1247</ele>
        <time>2024-07-14T06:54:17.000Z</time>
      </trkpt>
      <trkpt lat="45.03548" lon="5.50944">
        <ele>1247</ele>
        <time>2024-07-14T06:54:18.000Z</time>
      </trkpt>
      <trkpt lat="45.03549" lon="5.50941">
        <ele>1246.4000244141</ele>
        <time>2024-07-14T06:54:19.000Z</time>
      </trkpt>
      <trkpt lat="45.03551" lon="5.50938">
        <ele>1246</ele>
        <time>2024-07-14T06:54:20.000Z</time>
      </trkpt>
      <trkpt lat="45.03552" lon="5.50937">
        <ele>1246</ele>
        <time>2024-07-14T06:54:21.000Z</time>
      </trkpt>
      <trkpt lat="45.03554" lon="5.50935">
        <ele>1246</ele>
        <time>2024-07-14T06:54:22.000Z</time>
      </trkpt>
      <trkpt lat="45.03555" lon="5.50934">
        <ele>1246</ele>
        <time>2024-07-14T06:54:23.000Z</time>
      </trkpt>
      <trkpt lat="45.03557" lon="5.50932">
        <ele>1246</ele>
        <time>2024-07-14T06:54:24.000Z</time>
      </trkpt>
      <trkpt lat="45.03558" lon="5.50931">
        <ele>1246</ele>
        <time>2024-07-14T06:54:25.000Z</time>
      </trkpt>
      <trkpt lat="45.0356" lon="5.50929">
        <ele>1246.1999511719</ele>
        <time>2024-07-14T06:54:26.000Z</time>
      </trkpt>
      <trkpt lat="45.03562" lon="5.50927">
        <ele>1246.1999511719</ele>
        <time>2024-07-14T06:54:27.000Z</time>
      </trkpt>
      <trkpt lat="45.03563" lon="5.50925">
        <ele>1246.1999511719</ele>
        <time>2024-07-14T06:54:28.000Z</time>
      </trkpt>
      <trkpt lat="45.03565" lon="5.50924">
        <ele>1246.1999511719</ele>
        <time>2024-07-14T06:54:29.000Z</time>
      </trkpt>
      <trkpt lat="45.03566" lon="5.50923">
        <ele>1246.1999511719</ele>
        <time>2024-07-14T06:54:30.000Z</time>
      </trkpt>
      <trkpt lat="45.03567" lon="5.50922">
        <ele>1246.1999511719</ele>
        <time>2024-07-14T06:54:31.000Z</time>
      </trkpt>
      <trkpt lat="45.03569" lon="5.5092">
        <ele>1246.4000244141</ele>
        <time>2024-07-14T06:54:32.000Z</time>
      </trkpt>
      <trkpt lat="45.03571" lon="5.50919">
        <ele>1246.4000244141</ele>
        <time>2024-07-14T06:54:33.000Z</time>
      </trkpt>
      <trkpt lat="45.03573" lon="5.50918">
        <ele>1246.5999755859</ele>
        <time>2024-07-14T06:54:34.000Z</time>
      </trkpt>
      <trkpt lat="45.03575" lon="5.50918">
        <ele>1246.8000488281</ele>
        <time>2024-07-14T06:54:35.000Z</time>
      </trkpt>
      <trkpt lat="45.03576" lon="5.50918">
        <ele>1246.8000488281</ele>
        <time>2024-07-14T06:54:36.000Z</time>
      </trkpt>
      <trkpt lat="45.03578" lon="5.50918">
        <ele>1247</ele>
        <time>2024-07-14T06:54:37.000Z</time>
      </trkpt>
      <trkpt lat="45.0358" lon="5.50918">
        <ele>1247</ele>
        <time>2024-07-14T06:54:38.000Z</time>
      </trkpt>
      <trkpt lat="45.03583" lon="5.50918">
        <ele>1247.4000244141</ele>
        <time>2024-07-14T06:54:39.000Z</time>
      </trkpt>
      <trkpt lat="45.03585" lon="5.50919">
        <ele>1247.4000244141</ele>
        <time>2024-07-14T06:54:40.000Z</time>
      </trkpt>
      <trkpt lat="45.03588" lon="5.50919">
        <ele>1247.5999755859</ele>
        <time>2024-07-14T06:54:41.000Z</time>
      </trkpt>
      <trkpt lat="45.0359" lon="5.50918">
        <ele>1247.5999755859</ele>
        <time>2024-07-14T06:54:42.000Z</time>
      </trkpt>
      <trkpt lat="45.03591" lon="5.50917">
        <ele>1247.8000488281</ele>
        <time>2024-07-14T06:54:43.000Z</time>
      </trkpt>
      <trkpt lat="45.03594" lon="5.50917">
        <ele>1248</ele>
        <time>2024-07-14T06:54:44.000Z</time>
      </trkpt>
      <trkpt lat="45.03596" lon="5.50917">
        <ele>1248.4000244141</ele>
        <time>2024-07-14T06:54:45.000Z</time>
      </trkpt>
      <trkpt lat="45.03599" lon="5.50917">
        <ele>1248.5999755859</ele>
        <time>2024-07-14T06:54:46.000Z</time>
      </trkpt>
      <trkpt lat="45.03601" lon="5.50917">
        <ele>1248.8000488281</ele>
        <time>2024-07-14T06:54:47.000Z</time>
      </trkpt>
      <trkpt lat="45.03603" lon="5.50917">
        <ele>1248.8000488281</ele>
        <time>2024-07-14T06:54:48.000Z</time>
      </trkpt>
      <trkpt lat="45.03605" lon="5.50916">
        <ele>1249</ele>
        <time>2024-07-14T06:54:49.000Z</time>
      </trkpt>
      <trkpt lat="45.03607" lon="5.50916">
        <ele>1249.1999511719</ele>
        <time>2024-07-14T06:54:50.000Z</time>
      </trkpt>
      <trkpt lat="45.0361" lon="5.50916">
        <ele>1249.4000244141</ele>
        <time>2024-07-14T06:54:51.000Z</time>
      </trkpt>
      <trkpt lat="45.03612" lon="5.50916">
        <ele>1249.4000244141</ele>
        <time>2024-07-14T06:54:52.000Z</time>
      </trkpt>
      <trkpt lat="45.03614" lon="5.50917">
        <ele>1249.4000244141</ele>
        <time>2024-07-14T06:54:53.000Z</time>
      </trkpt>
      <trkpt lat="45.03617" lon="5.50917">
        <ele>1249.5999755859</ele>
        <time>2024-07-14T06:54:54.000Z</time>
      </trkpt>
      <trkpt lat="45.03618" lon="5.50918">
        <ele>1249.5999755859</ele>
        <time>2024-07-14T06:54:55.000Z</time>
      </trkpt>
      <trkpt lat="45.03621" lon="5.50918">
        <ele>1249.5999755859</ele>
        <time>2024-07-14T06:54:56.000Z</time>
      </trkpt>
      <trkpt lat="45.03622" lon="5.50918">
        <ele>1249.8000488281</ele>
        <time>2024-07-14T06:54:57.000Z</time>
      </trkpt>
      <trkpt lat="45.03625" lon="5.50918">
        <ele>1249.8000488281</ele>
        <time>2024-07-14T06:54:58.000Z</time>
      </trkpt>
      <trkpt lat="45.03627" lon="5.50918">
        <ele>1250</ele>
        <time>2024-07-14T06:54:59.000Z</time>
      </trkpt>
      <trkpt lat="45.0363" lon="5.50917">
        <ele>1250</ele>
        <time>2024-07-14T06:55:00.000Z</time>
      </trkpt>
      <trkpt lat="45.03632" lon="5.50916">
        <ele>1250.1999511719</ele>
        <time>2024-07-14T06:55:01.000Z</time>
      </trkpt>
      <trkpt lat="45.03635" lon="5.50915">
        <ele>1250.1999511719</ele>
        <time>2024-07-14T06:55:02.000Z</time>
      </trkpt>
      <trkpt lat="45.03637" lon="5.50914">
        <ele>1250.1999511719</ele>
        <time>2024-07-14T06:55:03.000Z</time>
      </trkpt>
      <trkpt lat="45.03639" lon="5.50912">
        <ele>1250.1999511719</ele>
        <time>2024-07-14T06:55:04.000Z</time>
      </trkpt>
      <trkpt lat="45.03641" lon="5.50911">
        <ele>1250.1999511719</ele>
        <time>2024-07-14T06:55:05.000Z</time>
      </trkpt>
      <trkpt lat="45.03643" lon="5.50909">
        <ele>1250.1999511719</ele>
        <time>2024-07-14T06:55:06.000Z</time>
      </trkpt>
      <trkpt lat="45.03646" lon="5.50907">
        <ele>1250.1999511719</ele>
        <time>2024-07-14T06:55:07.000Z</time>
      </trkpt>
      <trkpt lat="45.03649" lon="5.50905">
        <ele>1250</ele>
        <time>2024-07-14T06:55:08.000Z</time>
      </trkpt>
      <trkpt lat="45.03651" lon="5.50904">
        <ele>1250</ele>
        <time>2024-07-14T06:55:09.000Z</time>
      </trkpt>
      <trkpt lat="45.03654" lon="5.50904">
        <ele>1249.8000488281</ele>
        <time>2024-07-14T06:55:10.000Z</time>
      </trkpt>
      <trkpt lat="45.03656" lon="5.50903">
        <ele>1249.8000488281</ele>
        <time>2024-07-14T06:55:11.000Z</time>
      </trkpt>
      <trkpt lat="45.03657" lon="5.50904">
        <ele>1249.8000488281</ele>
        <time>2024-07-14T06:55:12.000Z</time>
      </trkpt>
      <trkpt lat="45.03659" lon="5.50905">
        <ele>1249.8000488281</ele>
        <time>2024-07-14T06:55:13.000Z</time>
      </trkpt>
      <trkpt lat="45.03662" lon="5.50905">
        <ele>1250</ele>
        <time>2024-07-14T06:55:14.000Z</time>
      </trkpt>
      <trkpt lat="45.03664" lon="5.50905">
        <ele>1250.1999511719</ele>
        <time>2024-07-14T06:55:15.000Z</time>
      </trkpt>
      <trkpt lat="45.03666" lon="5.50906">
        <ele>1250.1999511719</ele>
        <time>2024-07-14T06:55:16.000Z</time>
      </trkpt>
      <trkpt lat="45.03669" lon="5.50906">
        <ele>1250.4000244141</ele>
        <time>2024-07-14T06:55:17.000Z</time>
      </trkpt>
      <trkpt lat="45.03671" lon="5.50906">
        <ele>1250.4000244141</ele>
        <time>2024-07-14T06:55:18.000Z</time>
      </trkpt>
      <trkpt lat="45.03672" lon="5.50905">
        <ele>1250.5999755859</ele>
        <time>2024-07-14T06:55:19.000Z</time>
      </trkpt>
      <trkpt lat="45.03674" lon="5.50902">
        <ele>1250.8000488281</ele>
        <time>2024-07-14T06:55:20.000Z</time>
      </trkpt>
      <trkpt lat="45.03675" lon="5.50899">
        <ele>1250.8000488281</ele>
        <time>2024-07-14T06:55:21.000Z</time>
      </trkpt>
      <trkpt lat="45.03676" lon="5.50896">
        <ele>1250.8000488281</ele>
        <time>2024-07-14T06:55:22.000Z</time>
      </trkpt>
      <trkpt lat="45.03676" lon="5.50893">
        <ele>1250.5999755859</ele>
        <time>2024-07-14T06:55:23.000Z</time>
      </trkpt>
      <trkpt lat="45.03677" lon="5.50889">
        <ele>1250.5999755859</ele>
        <time>2024-07-14T06:55:24.000Z</time>
      </trkpt>
      <trkpt lat="45.03678" lon="5.50886">
        <ele>1250.4000244141</ele>
        <time>2024-07-14T06:55:25.000Z</time>
      </trkpt>
      <trkpt lat="45.03678" lon="5.50883">
        <ele>1250.1999511719</ele>
        <time>2024-07-14T06:55:26.000Z</time>
      </trkpt>
      <trkpt lat="45.03678" lon="5.50879">
        <ele>1250</ele>
        <time>2024-07-14T06:55:27.000Z</time>
      </trkpt>
      <trkpt lat="45.03678" lon="5.50875">
        <ele>1249.8000488281</ele>
        <time>2024-07-14T06:55:28.000Z</time>
      </trkpt>
      <trkpt lat="45.03678" lon="5.50872">
        <ele>1249.4000244141</ele>
        <time>2024-07-14T06:55:29.000Z</time>
      </trkpt>
      <trkpt lat="45.03678" lon="5.50869">
        <ele>1249</ele>
        <time>2024-07-14T06:55:30.000Z</time>
      </trkpt>
      <trkpt lat="45.03678" lon="5.50866">
        <ele>1248.8000488281</ele>
        <time>2024-07-14T06:55:31.000Z</time>
      </trkpt>
      <trkpt lat="45.03678" lon="5.50864">
        <ele>1248.5999755859</ele>
        <time>2024-07-14T06:55:32.000Z</time>
      </trkpt>
      <trkpt lat="45.03678" lon="5.50861">
        <ele>1248.5999755859</ele>
        <time>2024-07-14T06:55:33.000Z</time>
      </trkpt>
      <trkpt lat="45.03678" lon="5.50857">
        <ele>1248.4000244141</ele>
        <time>2024-07-14T06:55:34.000Z</time>
      </trkpt>
      <trkpt lat="45.03677" lon="5.50855">
        <ele>1248.1999511719</ele>
        <time>2024-07-14T06:55:35.000Z</time>
      </trkpt>
      <trkpt lat="45.03677" lon="5.50851">
        <ele>1247.8000488281</ele>
        <time>2024-07-14T06:55:36.000Z</time>
      </trkpt>
      <trkpt lat="45.03678" lon="5.50848">
        <ele>1247.5999755859</ele>
        <time>2024-07-14T06:55:37.000Z</time>
      </trkpt>
      <trkpt lat="45.03678" lon="5.50844">
        <ele>1247.1999511719</ele>
        <time>2024-07-14T06:55:38.000Z</time>
      </trkpt>
      <trkpt lat="45.03679" lon="5.5084">
        <ele>1247</ele>
        <time>2024-07-14T06:55:39.000Z</time>
      </trkpt>
      <trkpt lat="45.0368" lon="5.50836">
        <ele>1246.5999755859</ele>
        <time>2024-07-14T06:55:40.000Z</time>
      </trkpt>
      <trkpt lat="45.03681" lon="5.50832">
        <ele>1245.8000488281</ele>
        <time>2024-07-14T06:55:41.000Z</time>
      </trkpt>
      <trkpt lat="45.03681" lon="5.50828">
        <ele>1245.5999755859</ele>
        <time>2024-07-14T06:55:42.000Z</time>
      </trkpt>
      <trkpt lat="45.03682" lon="5.50824">
        <ele>1245.5999755859</ele>
        <time>2024-07-14T06:55:43.000Z</time>
      </trkpt>
      <trkpt lat="45.03682" lon="5.5082">
        <ele>1245.5999755859</ele>
        <time>2024-07-14T06:55:44.000Z</time>
      </trkpt>
      <trkpt lat="45.03682" lon="5.50816">
        <ele>1245.4000244141</ele>
        <time>2024-07-14T06:55:45.000Z</time>
      </trkpt>
      <trkpt lat="45.03682" lon="5.50812">
        <ele>1245.1999511719</ele>
        <time>2024-07-14T06:55:46.000Z</time>
      </trkpt>
      <trkpt lat="45.03682" lon="5.50808">
        <ele>1245.1999511719</ele>
        <time>2024-07-14T06:55:47.000Z</time>
      </trkpt>
      <trkpt lat="45.03682" lon="5.50804">
        <ele>1244.8000488281</ele>
        <time>2024-07-14T06:55:48.000Z</time>
      </trkpt>
      <trkpt lat="45.03682" lon="5.50799">
        <ele>1244.4000244141</ele>
        <time>2024-07-14T06:55:49.000Z</time>
      </trkpt>
      <trkpt lat="45.03682" lon="5.50796">
        <ele>1244.4000244141</ele>
        <time>2024-07-14T06:55:50.000Z</time>
      </trkpt>
      <trkpt lat="45.03682" lon="5.50793">
        <ele>1244.4000244141</ele>
        <time>2024-07-14T06:55:51.000Z</time>
      </trkpt>
      <trkpt lat="45.03682" lon="5.50789">
        <ele>1244.1999511719</ele>
        <time>2024-07-14T06:55:52.000Z</time>
      </trkpt>
      <trkpt lat="45.03683" lon="5.50786">
        <ele>1244.1999511719</ele>
        <time>2024-07-14T06:55:53.000Z</time>
      </trkpt>
      <trkpt lat="45.03683" lon="5.50783">
        <ele>1244.1999511719</ele>
        <time>2024-07-14T06:55:54.000Z</time>
      </trkpt>
      <trkpt lat="45.03684" lon="5.5078">
        <ele>1244.1999511719</ele>
        <time>2024-07-14T06:55:55.000Z</time>
      </trkpt>
      <trkpt lat="45.03684" lon="5.50777">
        <ele>1244.1999511719</ele>
        <time>2024-07-14T06:55:56.000Z</time>
      </trkpt>
      <trkpt lat="45.03684" lon="5.50774">
        <ele>1244.1999511719</ele>
        <time>2024-07-14T06:55:57.000Z</time>
      </trkpt>
      <trkpt lat="45.03683" lon="5.5077">
        <ele>1244</ele>
        <time>2024-07-14T06:55:58.000Z</time>
      </trkpt>
      <trkpt lat="45.03682" lon="5.50767">
        <ele>1244</ele>
        <time>2024-07-14T06:55:59.000Z</time>
      </trkpt>
      <trkpt lat="45.03682" lon="5.50764">
        <ele>1243.8000488281</ele>
        <time>2024-07-14T06:56:00.000Z</time>
      </trkpt>
      <trkpt lat="45.03681" lon="5.5076">
        <ele>1243.8000488281</ele>
        <time>2024-07-14T06:56:01.000Z</time>
      </trkpt>
      <trkpt lat="45.0368" lon="5.50757">
        <ele>1244</ele>
        <time>2024-07-14T06:56:02.000Z</time>
      </trkpt>
      <trkpt lat="45.03678" lon="5.50754">
        <ele>1244</ele>
        <time>2024-07-14T06:56:03.000Z</time>
      </trkpt>
      <trkpt lat="45.03678" lon="5.50751">
        <ele>1244.1999511719</ele>
        <time>2024-07-14T06:56:04.000Z</time>
      </trkpt>
      <trkpt lat="45.03677" lon="5.50747">
        <ele>1244.4000244141</ele>
        <time>2024-07-14T06:56:05.000Z</time>
      </trkpt>
      <trkpt lat="45.03676" lon="5.50744">
        <ele>1244.4000244141</ele>
        <time>2024-07-14T06:56:06.000Z</time>
      </trkpt>
      <trkpt lat="45.03676" lon="5.50741">
        <ele>1244.4000244141</ele>
        <time>2024-07-14T06:56:07.000Z</time>
      </trkpt>
      <trkpt lat="45.03675" lon="5.50737">
        <ele>1244.5999755859</ele>
        <time>2024-07-14T06:56:08.000Z</time>
      </trkpt>
      <trkpt lat="45.03675" lon="5.50734">
        <ele>1244.5999755859</ele>
        <time>2024-07-14T06:56:09.000Z</time>
      </trkpt>
      <trkpt lat="45.03675" lon="5.5073">
        <ele>1244.5999755859</ele>
        <time>2024-07-14T06:56:10.000Z</time>
      </trkpt>
      <trkpt lat="45.03676" lon="5.50727">
        <ele>1244.5999755859</ele>
        <time>2024-07-14T06:56:11.000Z</time>
      </trkpt>
      <trkpt lat="45.03676" lon="5.50724">
        <ele>1244.8000488281</ele>
        <time>2024-07-14T06:56:12.000Z</time>
      </trkpt>
      <trkpt lat="45.03676" lon="5.50721">
        <ele>1245</ele>
        <time>2024-07-14T06:56:13.000Z</time>
      </trkpt>
      <trkpt lat="45.03677" lon="5.50717">
        <ele>1245.1999511719</ele>
        <time>2024-07-14T06:56:14.000Z</time>
      </trkpt>
      <trkpt lat="45.03677" lon="5.50714">
        <ele>1245.4000244141</ele>
        <time>2024-07-14T06:56:15.000Z</time>
      </trkpt>
      <trkpt lat="45.03678" lon="5.5071">
        <ele>1245.8000488281</ele>
        <time>2024-07-14T06:56:16.000Z</time>
      </trkpt>
      <trkpt lat="45.03678" lon="5.50707">
        <ele>1245.8000488281</ele>
        <time>2024-07-14T06:56:17.000Z</time>
      </trkpt>
      <trkpt lat="45.03678" lon="5.50704">
        <ele>1246.1999511719</ele>
        <time>2024-07-14T06:56:18.000Z</time>
      </trkpt>
      <trkpt lat="45.03678" lon="5.50702">
        <ele>1246.4000244141</ele>
        <time>2024-07-14T06:56:19.000Z</time>
      </trkpt>
      <trkpt lat="45.03678" lon="5.50699">
        <ele>1246.4000244141</ele>
        <time>2024-07-14T06:56:20.000Z</time>
      </trkpt>
      <trkpt lat="45.03678" lon="5.50696">
        <ele>1246.5999755859</ele>
        <time>2024-07-14T06:56:21.000Z</time>
      </trkpt>
      <trkpt lat="45.03678" lon="5.50693">
        <ele>1246.8000488281</ele>
        <time>2024-07-14T06:56:22.000Z</time>
      </trkpt>
      <trkpt lat="45.03677" lon="5.5069">
        <ele>1247</ele>
        <time>2024-07-14T06:56:23.000Z</time>
      </trkpt>
      <trkpt lat="45.03677" lon="5.50687">
        <ele>1247.1999511719</ele>
        <time>2024-07-14T06:56:24.000Z</time>
      </trkpt>
      <trkpt lat="45.03676" lon="5.50683">
        <ele>1247.4000244141</ele>
        <time>2024-07-14T06:56:25.000Z</time>
      </trkpt>
      <trkpt lat="45.03675" lon="5.5068">
        <ele>1247.4000244141</ele>
        <time>2024-07-14T06:56:26.000Z</time>
      </trkpt>
      <trkpt lat="45.03675" lon="5.50677">
        <ele>1247.5999755859</ele>
        <time>2024-07-14T06:56:27.000Z</time>
      </trkpt>
      <trkpt lat="45.03674" lon="5.50674">
        <ele>1247.5999755859</ele>
        <time>2024-07-14T06:56:28.000Z</time>
      </trkpt>
      <trkpt lat="45.03673" lon="5.50672">
        <ele>1247.8000488281</ele>
        <time>2024-07-14T06:56:29.000Z</time>
      </trkpt>
      <trkpt lat="45.03672" lon="5.50669">
        <ele>1248</ele>
        <time>2024-07-14T06:56:30.000Z</time>
      </trkpt>
      <trkpt lat="45.03671" lon="5.50666">
        <ele>1248.1999511719</ele>
        <time>2024-07-14T06:56:31.000Z</time>
      </trkpt>
      <trkpt lat="45.03671" lon="5.50663">
        <ele>1248.4000244141</ele>
        <time>2024-07-14T06:56:32.000Z</time>
      </trkpt>
      <trkpt lat="45.03671" lon="5.5066">
        <ele>1248.5999755859</ele>
        <time>2024-07-14T06:56:33.000Z</time>
      </trkpt>
      <trkpt lat="45.03671" lon="5.50656">
        <ele>1248.5999755859</ele>
        <time>2024-07-14T06:56:34.000Z</time>
      </trkpt>
      <trkpt lat="45.03671" lon="5.50652">
        <ele>1248.5999755859</ele>
        <time>2024-07-14T06:56:35.000Z</time>
      </trkpt>
      <trkpt lat="45.03671" lon="5.50649">
        <ele>1248.8000488281</ele>
        <time>2024-07-14T06:56:36.000Z</time>
      </trkpt>
      <trkpt lat="45.03671" lon="5.50646">
        <ele>1248.8000488281</ele>
        <time>2024-07-14T06:56:37.000Z</time>
      </trkpt>
      <trkpt lat="45.0367" lon="5.50643">
        <ele>1249</ele>
        <time>2024-07-14T06:56:38.000Z</time>
      </trkpt>
      <trkpt lat="45.0367" lon="5.50641">
        <ele>1249</ele>
        <time>2024-07-14T06:56:39.000Z</time>
      </trkpt>
      <trkpt lat="45.03669" lon="5.50639">
        <ele>1249</ele>
        <time>2024-07-14T06:56:40.000Z</time>
      </trkpt>
      <trkpt lat="45.03669" lon="5.50638">
        <ele>1249.1999511719</ele>
        <time>2024-07-14T06:56:41.000Z</time>
      </trkpt>
      <trkpt lat="45.03668" lon="5.50636">
        <ele>1249.5999755859</ele>
        <time>2024-07-14T06:56:42.000Z</time>
      </trkpt>
      <trkpt lat="45.03667" lon="5.50633">
        <ele>1249.8000488281</ele>
        <time>2024-07-14T06:56:43.000Z</time>
      </trkpt>
      <trkpt lat="45.03667" lon="5.50632">
        <ele>1250.1999511719</ele>
        <time>2024-07-14T06:56:44.000Z</time>
      </trkpt>
      <trkpt lat="45.03666" lon="5.5063">
        <ele>1250.4000244141</ele>
        <time>2024-07-14T06:56:45.000Z</time>
      </trkpt>
      <trkpt lat="45.03666" lon="5.50627">
        <ele>1250.8000488281</ele>
        <time>2024-07-14T06:56:46.000Z</time>
      </trkpt>
      <trkpt lat="45.03665" lon="5.50625">
        <ele>1251</ele>
        <time>2024-07-14T06:56:47.000Z</time>
      </trkpt>
      <trkpt lat="45.03665" lon="5.50623">
        <ele>1251.5999755859</ele>
        <time>2024-07-14T06:56:48.000Z</time>
      </trkpt>
      <trkpt lat="45.03664" lon="5.5062">
        <ele>1251.8000488281</ele>
        <time>2024-07-14T06:56:49.000Z</time>
      </trkpt>
      <trkpt lat="45.03663" lon="5.50617">
        <ele>1252.1999511719</ele>
        <time>2024-07-14T06:56:50.000Z</time>
      </trkpt>
      <trkpt lat="45.03662" lon="5.50615">
        <ele>1252.5999755859</ele>
        <time>2024-07-14T06:56:51.000Z</time>
      </trkpt>
      <trkpt lat="45.03661" lon="5.50613">
        <ele>1252.5999755859</ele>
        <time>2024-07-14T06:56:52.000Z</time>
      </trkpt>
      <trkpt lat="45.0366" lon="5.50611">
        <ele>1252.8000488281</ele>
        <time>2024-07-14T06:56:53.000Z</time>
      </trkpt>
      <trkpt lat="45.03659" lon="5.50609">
        <ele>1253</ele>
        <time>2024-07-14T06:56:54.000Z</time>
      </trkpt>
      <trkpt lat="45.03658" lon="5.50606">
        <ele>1253.4000244141</ele>
        <time>2024-07-14T06:56:55.000Z</time>
      </trkpt>
      <trkpt lat="45.03656" lon="5.50604">
        <ele>1253.5999755859</ele>
        <time>2024-07-14T06:56:56.000Z</time>
      </trkpt>
      <trkpt lat="45.03655" lon="5.50601">
        <ele>1253.8000488281</ele>
        <time>2024-07-14T06:56:57.000Z</time>
      </trkpt>
      <trkpt lat="45.03655" lon="5.50598">
        <ele>1254</ele>
        <time>2024-07-14T06:56:58.000Z</time>
      </trkpt>
      <trkpt lat="45.03653" lon="5.50596">
        <ele>1254.1999511719</ele>
        <time>2024-07-14T06:56:59.000Z</time>
      </trkpt>
      <trkpt lat="45.03652" lon="5.50593">
        <ele>1254.4000244141</ele>
        <time>2024-07-14T06:57:00.000Z</time>
      </trkpt>
      <trkpt lat="45.03651" lon="5.50591">
        <ele>1254.5999755859</ele>
        <time>2024-07-14T06:57:01.000Z</time>
      </trkpt>
      <trkpt lat="45.0365" lon="5.50589">
        <ele>1254.5999755859</ele>
        <time>2024-07-14T06:57:02.000Z</time>
      </trkpt>
      <trkpt lat="45.03648" lon="5.50587">
        <ele>1254.5999755859</ele>
        <time>2024-07-14T06:57:03.000Z</time>
      </trkpt>
      <trkpt lat="45.03647" lon="5.50584">
        <ele>1254.5999755859</ele>
        <time>2024-07-14T06:57:04.000Z</time>
      </trkpt>
      <trkpt lat="45.03646" lon="5.50582">
        <ele>1254.8000488281</ele>
        <time>2024-07-14T06:57:05.000Z</time>
      </trkpt>
      <trkpt lat="45.03646" lon="5.50579">
        <ele>1254.8000488281</ele>
        <time>2024-07-14T06:57:06.000Z</time>
      </trkpt>
      <trkpt lat="45.03645" lon="5.50576">
        <ele>1255</ele>
        <time>2024-07-14T06:57:07.000Z</time>
      </trkpt>
      <trkpt lat="45.03645" lon="5.50573">
        <ele>1255</ele>
        <time>2024-07-14T06:57:08.000Z</time>
      </trkpt>
      <trkpt lat="45.03645" lon="5.5057">
        <ele>1255.1999511719</ele>
        <time>2024-07-14T06:57:09.000Z</time>
      </trkpt>
      <trkpt lat="45.03644" lon="5.50566">
        <ele>1255.1999511719</ele>
        <time>2024-07-14T06:57:10.000Z</time>
      </trkpt>
      <trkpt lat="45.03644" lon="5.50563">
        <ele>1255.1999511719</ele>
        <time>2024-07-14T06:57:11.000Z</time>
      </trkpt>
      <trkpt lat="45.03644" lon="5.50559">
        <ele>1255.4000244141</ele>
        <time>2024-07-14T06:57:12.000Z</time>
      </trkpt>
      <trkpt lat="45.03644" lon="5.50556">
        <ele>1255.4000244141</ele>
        <time>2024-07-14T06:57:13.000Z</time>
      </trkpt>
      <trkpt lat="45.03644" lon="5.50553">
        <ele>1255.4000244141</ele>
        <time>2024-07-14T06:57:14.000Z</time>
      </trkpt>
      <trkpt lat="45.03644" lon="5.5055">
        <ele>1255.5999755859</ele>
        <time>2024-07-14T06:57:15.000Z</time>
      </trkpt>
      <trkpt lat="45.03644" lon="5.50548">
        <ele>1255.5999755859</ele>
        <time>2024-07-14T06:57:16.000Z</time>
      </trkpt>
      <trkpt lat="45.03643" lon="5.50544">
        <ele>1255.5999755859</ele>
        <time>2024-07-14T06:57:17.000Z</time>
      </trkpt>
      <trkpt lat="45.03643" lon="5.50541">
        <ele>1255.8000488281</ele>
        <time>2024-07-14T06:57:18.000Z</time>
      </trkpt>
      <trkpt lat="45.03642" lon="5.50538">
        <ele>1255.8000488281</ele>
        <time>2024-07-14T06:57:19.000Z</time>
      </trkpt>
      <trkpt lat="45.03642" lon="5.50535">
        <ele>1255.8000488281</ele>
        <time>2024-07-14T06:57:20.000Z</time>
      </trkpt>
      <trkpt lat="45.03641" lon="5.50532">
        <ele>1255.5999755859</ele>
        <time>2024-07-14T06:57:21.000Z</time>
      </trkpt>
      <trkpt lat="45.03639" lon="5.50529">
        <ele>1255.5999755859</ele>
        <time>2024-07-14T06:57:22.000Z</time>
      </trkpt>
      <trkpt lat="45.03638" lon="5.50526">
        <ele>1255.5999755859</ele>
        <time>2024-07-14T06:57:23.000Z</time>
      </trkpt>
      <trkpt lat="45.03637" lon="5.50523">
        <ele>1255.1999511719</ele>
        <time>2024-07-14T06:57:24.000Z</time>
      </trkpt>
      <trkpt lat="45.03636" lon="5.5052">
        <ele>1254.8000488281</ele>
        <time>2024-07-14T06:57:25.000Z</time>
      </trkpt>
      <trkpt lat="45.03635" lon="5.50517">
        <ele>1254.5999755859</ele>
        <time>2024-07-14T06:57:26.000Z</time>
      </trkpt>
      <trkpt lat="45.03634" lon="5.50513">
        <ele>1254.1999511719</ele>
        <time>2024-07-14T06:57:27.000Z</time>
      </trkpt>
      <trkpt lat="45.03633" lon="5.5051">
        <ele>1254.1999511719</ele>
        <time>2024-07-14T06:57:28.000Z</time>
      </trkpt>
      <trkpt lat="45.03633" lon="5.50506">
        <ele>1253.8000488281</ele>
        <time>2024-07-14T06:57:29.000Z</time>
      </trkpt>
      <trkpt lat="45.03632" lon="5.50502">
        <ele>1253.1999511719</ele>
        <time>2024-07-14T06:57:30.000Z</time>
      </trkpt>
      <trkpt lat="45.03632" lon="5.50498">
        <ele>1252.8000488281</ele>
        <time>2024-07-14T06:57:31.000Z</time>
      </trkpt>
      <trkpt lat="45.03631" lon="5.50495">
        <ele>1252.4000244141</ele>
        <time>2024-07-14T06:57:32.000Z</time>
      </trkpt>
      <trkpt lat="45.03631" lon="5.50491">
        <ele>1252.4000244141</ele>
        <time>2024-07-14T06:57:33.000Z</time>
      </trkpt>
      <trkpt lat="45.03631" lon="5.50489">
        <ele>1252.4000244141</ele>
        <time>2024-07-14T06:57:34.000Z</time>
      </trkpt>
      <trkpt lat="45.0363" lon="5.50486">
        <ele>1252.4000244141</ele>
        <time>2024-07-14T06:57:35.000Z</time>
      </trkpt>
      <trkpt lat="45.0363" lon="5.50484">
        <ele>1252.4000244141</ele>
        <time>2024-07-14T06:57:36.000Z</time>
      </trkpt>
      <trkpt lat="45.0363" lon="5.50482">
        <ele>1252.5999755859</ele>
        <time>2024-07-14T06:57:37.000Z</time>
      </trkpt>
      <trkpt lat="45.03629" lon="5.50479">
        <ele>1252.8000488281</ele>
        <time>2024-07-14T06:57:38.000Z</time>
      </trkpt>
      <trkpt lat="45.03629" lon="5.50477">
        <ele>1253.1999511719</ele>
        <time>2024-07-14T06:57:39.000Z</time>
      </trkpt>
      <trkpt lat="45.03628" lon="5.50475">
        <ele>1253.4000244141</ele>
        <time>2024-07-14T06:57:40.000Z</time>
      </trkpt>
      <trkpt lat="45.03628" lon="5.50474">
        <ele>1253.8000488281</ele>
        <time>2024-07-14T06:57:41.000Z</time>
      </trkpt>
      <trkpt lat="45.03628" lon="5.50471">
        <ele>1254.1999511719</ele>
        <time>2024-07-14T06:57:42.000Z</time>
      </trkpt>
      <trkpt lat="45.03628" lon="5.50469">
        <ele>1254.5999755859</ele>
        <time>2024-07-14T06:57:43.000Z</time>
      </trkpt>
      <trkpt lat="45.03628" lon="5.50468">
        <ele>1255</ele>
        <time>2024-07-14T06:57:44.000Z</time>
      </trkpt>
      <trkpt lat="45.03627" lon="5.50466">
        <ele>1255.1999511719</ele>
        <time>2024-07-14T06:57:45.000Z</time>
      </trkpt>
      <trkpt lat="45.03627" lon="5.50464">
        <ele>1255.5999755859</ele>
        <time>2024-07-14T06:57:46.000Z</time>
      </trkpt>
      <trkpt lat="45.03627" lon="5.50461">
        <ele>1255.8000488281</ele>
        <time>2024-07-14T06:57:47.000Z</time>
      </trkpt>
      <trkpt lat="45.03627" lon="5.50459">
        <ele>1256.1999511719</ele>
        <time>2024-07-14T06:57:48.000Z</time>
      </trkpt>
      <trkpt lat="45.03626" lon="5.50456">
        <ele>1256.4000244141</ele>
        <time>2024-07-14T06:57:49.000Z</time>
      </trkpt>
      <trkpt lat="45.03626" lon="5.50454">
        <ele>1256.8000488281</ele>
        <time>2024-07-14T06:57:50.000Z</time>
      </trkpt>
      <trkpt lat="45.03625" lon="5.50452">
        <ele>1257</ele>
        <time>2024-07-14T06:57:51.000Z</time>
      </trkpt>
      <trkpt lat="45.03625" lon="5.50449">
        <ele>1257.4000244141</ele>
        <time>2024-07-14T06:57:52.000Z</time>
      </trkpt>
      <trkpt lat="45.03624" lon="5.50446">
        <ele>1257.5999755859</ele>
        <time>2024-07-14T06:57:53.000Z</time>
      </trkpt>
      <trkpt lat="45.03624" lon="5.50443">
        <ele>1257.5999755859</ele>
        <time>2024-07-14T06:57:54.000Z</time>
      </trkpt>
      <trkpt lat="45.03623" lon="5.50441">
        <ele>1257.5999755859</ele>
        <time>2024-07-14T06:57:55.000Z</time>
      </trkpt>
      <trkpt lat="45.03622" lon="5.50438">
        <ele>1257.8000488281</ele>
        <time>2024-07-14T06:57:56.000Z</time>
      </trkpt>
      <trkpt lat="45.03622" lon="5.50435">
        <ele>1257.8000488281</ele>
        <time>2024-07-14T06:57:57.000Z</time>
      </trkpt>
      <trkpt lat="45.03622" lon="5.50433">
        <ele>1258.1999511719</ele>
        <time>2024-07-14T06:57:58.000Z</time>
      </trkpt>
      <trkpt lat="45.03622" lon="5.5043">
        <ele>1258.4000244141</ele>
        <time>2024-07-14T06:57:59.000Z</time>
      </trkpt>
      <trkpt lat="45.03622" lon="5.50427">
        <ele>1258.5999755859</ele>
        <time>2024-07-14T06:58:00.000Z</time>
      </trkpt>
      <trkpt lat="45.03621" lon="5.50425">
        <ele>1259</ele>
        <time>2024-07-14T06:58:01.000Z</time>
      </trkpt>
      <trkpt lat="45.03621" lon="5.50424">
        <ele>1259.1999511719</ele>
        <time>2024-07-14T06:58:02.000Z</time>
      </trkpt>
      <trkpt lat="45.0362" lon="5.50421">
        <ele>1259.1999511719</ele>
        <time>2024-07-14T06:58:03.000Z</time>
      </trkpt>
      <trkpt lat="45.0362" lon="5.50418">
        <ele>1259.1999511719</ele>
        <time>2024-07-14T06:58:04.000Z</time>
      </trkpt>
      <trkpt lat="45.03619" lon="5.50415">
        <ele>1259.5999755859</ele>
        <time>2024-07-14T06:58:05.000Z</time>
      </trkpt>
      <trkpt lat="45.03618" lon="5.50412">
        <ele>1259.8000488281</ele>
        <time>2024-07-14T06:58:06.000Z</time>
      </trkpt>
      <trkpt lat="45.03617" lon="5.50409">
        <ele>1260</ele>
        <time>2024-07-14T06:58:07.000Z</time>
      </trkpt>
      <trkpt lat="45.03616" lon="5.50407">
        <ele>1260</ele>
        <time>2024-07-14T06:58:08.000Z</time>
      </trkpt>
      <trkpt lat="45.03615" lon="5.50404">
        <ele>1260.1999511719</ele>
        <time>2024-07-14T06:58:09.000Z</time>
      </trkpt>
      <trkpt lat="45.03615" lon="5.50401">
        <ele>1260.1999511719</ele>
        <time>2024-07-14T06:58:10.000Z</time>
      </trkpt>
      <trkpt lat="45.03614" lon="5.50398">
        <ele>1260.4000244141</ele>
        <time>2024-07-14T06:58:11.000Z</time>
      </trkpt>
      <trkpt lat="45.03613" lon="5.50396">
        <ele>1260.4000244141</ele>
        <time>2024-07-14T06:58:12.000Z</time>
      </trkpt>
      <trkpt lat="45.03613" lon="5.50394">
        <ele>1260.5999755859</ele>
        <time>2024-07-14T06:58:13.000Z</time>
      </trkpt>
      <trkpt lat="45.03612" lon="5.50391">
        <ele>1260.8000488281</ele>
        <time>2024-07-14T06:58:14.000Z</time>
      </trkpt>
      <trkpt lat="45.03611" lon="5.50388">
        <ele>1261</ele>
        <time>2024-07-14T06:58:15.000Z</time>
      </trkpt>
      <trkpt lat="45.03611" lon="5.50386">
        <ele>1261.1999511719</ele>
        <time>2024-07-14T06:58:16.000Z</time>
      </trkpt>
      <trkpt lat="45.03609" lon="5.50384">
        <ele>1261.4000244141</ele>
        <time>2024-07-14T06:58:17.000Z</time>
      </trkpt>
      <trkpt lat="45.03608" lon="5.50383">
        <ele>1261.5999755859</ele>
        <time>2024-07-14T06:58:18.000Z</time>
      </trkpt>
      <trkpt lat="45.03606" lon="5.50381">
        <ele>1262</ele>
        <time>2024-07-14T06:58:19.000Z</time>
      </trkpt>
      <trkpt lat="45.03604" lon="5.50381">
        <ele>1262.1999511719</ele>
        <time>2024-07-14T06:58:20.000Z</time>
      </trkpt>
      <trkpt lat="45.03602" lon="5.50382">
        <ele>1262.4000244141</ele>
        <time>2024-07-14T06:58:21.000Z</time>
      </trkpt>
      <trkpt lat="45.036" lon="5.50382">
        <ele>1262.4000244141</ele>
        <time>2024-07-14T06:58:22.000Z</time>
      </trkpt>
      <trkpt lat="45.03597" lon="5.50384">
        <ele>1262.4000244141</ele>
        <time>2024-07-14T06:58:23.000Z</time>
      </trkpt>
      <trkpt lat="45.03595" lon="5.50384">
        <ele>1262.4000244141</ele>
        <time>2024-07-14T06:58:24.000Z</time>
      </trkpt>
      <trkpt lat="45.03593" lon="5.50384">
        <ele>1262.4000244141</ele>
        <time>2024-07-14T06:58:25.000Z</time>
      </trkpt>
      <trkpt lat="45.03591" lon="5.50384">
        <ele>1262.4000244141</ele>
        <time>2024-07-14T06:58:26.000Z</time>
      </trkpt>
      <trkpt lat="45.03589" lon="5.50384">
        <ele>1262.4000244141</ele>
        <time>2024-07-14T06:58:27.000Z</time>
      </trkpt>
      <trkpt lat="45.03586" lon="5.50383">
        <ele>1262.4000244141</ele>
        <time>2024-07-14T06:58:28.000Z</time>
      </trkpt>
      <trkpt lat="45.03584" lon="5.50382">
        <ele>1262.4000244141</ele>
        <time>2024-07-14T06:58:29.000Z</time>
      </trkpt>
      <trkpt lat="45.03582" lon="5.5038">
        <ele>1262.5999755859</ele>
        <time>2024-07-14T06:58:30.000Z</time>
      </trkpt>
      <trkpt lat="45.0358" lon="5.50379">
        <ele>1262.5999755859</ele>
        <time>2024-07-14T06:58:31.000Z</time>
      </trkpt>
      <trkpt lat="45.03579" lon="5.50376">
        <ele>1262.5999755859</ele>
        <time>2024-07-14T06:58:32.000Z</time>
      </trkpt>
      <trkpt lat="45.03577" lon="5.50374">
        <ele>1262.8000488281</ele>
        <time>2024-07-14T06:58:33.000Z</time>
      </trkpt>
      <trkpt lat="45.03576" lon="5.50371">
        <ele>1262.8000488281</ele>
        <time>2024-07-14T06:58:34.000Z</time>
      </trkpt>
      <trkpt lat="45.03575" lon="5.50369">
        <ele>1263.1999511719</ele>
        <time>2024-07-14T06:58:35.000Z</time>
      </trkpt>
      <trkpt lat="45.03574" lon="5.50366">
        <ele>1263.5999755859</ele>
        <time>2024-07-14T06:58:36.000Z</time>
      </trkpt>
      <trkpt lat="45.03574" lon="5.50363">
        <ele>1263.8000488281</ele>
        <time>2024-07-14T06:58:37.000Z</time>
      </trkpt>
      <trkpt lat="45.03575" lon="5.5036">
        <ele>1264</ele>
        <time>2024-07-14T06:58:38.000Z</time>
      </trkpt>
      <trkpt lat="45.03575" lon="5.50358">
        <ele>1264.4000244141</ele>
        <time>2024-07-14T06:58:39.000Z</time>
      </trkpt>
      <trkpt lat="45.03576" lon="5.50356">
        <ele>1264.5999755859</ele>
        <time>2024-07-14T06:58:40.000Z</time>
      </trkpt>
      <trkpt lat="45.03577" lon="5.50354">
        <ele>1265</ele>
        <time>2024-07-14T06:58:41.000Z</time>
      </trkpt>
      <trkpt lat="45.03579" lon="5.50352">
        <ele>1265.1999511719</ele>
        <time>2024-07-14T06:58:42.000Z</time>
      </trkpt>
      <trkpt lat="45.03579" lon="5.5035">
        <ele>1265.4000244141</ele>
        <time>2024-07-14T06:58:43.000Z</time>
      </trkpt>
      <trkpt lat="45.0358" lon="5.50348">
        <ele>1265.8000488281</ele>
        <time>2024-07-14T06:58:44.000Z</time>
      </trkpt>
      <trkpt lat="45.0358" lon="5.50347">
        <ele>1266</ele>
        <time>2024-07-14T06:58:45.000Z</time>
      </trkpt>
      <trkpt lat="45.0358" lon="5.50345">
        <ele>1266</ele>
        <time>2024-07-14T06:58:46.000Z</time>
      </trkpt>
      <trkpt lat="45.03581" lon="5.50343">
        <ele>1266.4000244141</ele>
        <time>2024-07-14T06:58:47.000Z</time>
      </trkpt>
      <trkpt lat="45.03583" lon="5.50341">
        <ele>1266.5999755859</ele>
        <time>2024-07-14T06:58:48.000Z</time>
      </trkpt>
      <trkpt lat="45.03584" lon="5.50339">
        <ele>1266.8000488281</ele>
        <time>2024-07-14T06:58:49.000Z</time>
      </trkpt>
      <trkpt lat="45.03584" lon="5.50338">
        <ele>1267</ele>
        <time>2024-07-14T06:58:50.000Z</time>
      </trkpt>
      <trkpt lat="45.03584" lon="5.50336">
        <ele>1267.1999511719</ele>
        <time>2024-07-14T06:58:51.000Z</time>
      </trkpt>
      <trkpt lat="45.03584" lon="5.50334">
        <ele>1267.4000244141</ele>
        <time>2024-07-14T06:58:52.000Z</time>
      </trkpt>
      <trkpt lat="45.03585" lon="5.50332">
        <ele>1267.8000488281</ele>
        <time>2024-07-14T06:58:53.000Z</time>
      </trkpt>
      <trkpt lat="45.03585" lon="5.50331">
        <ele>1268</ele>
        <time>2024-07-14T06:58:54.000Z</time>
      </trkpt>
      <trkpt lat="45.03585" lon="5.50329">
        <ele>1268.4000244141</ele>
        <time>2024-07-14T06:58:55.000Z</time>
      </trkpt>
      <trkpt lat="45.03585" lon="5.50327">
        <ele>1268.5999755859</ele>
        <time>2024-07-14T06:58:56.000Z</time>
      </trkpt>
      <trkpt lat="45.03585" lon="5.50325">
        <ele>1269</ele>
        <time>2024-07-14T06:58:57.000Z</time>
      </trkpt>
      <trkpt lat="45.03586" lon="5.50323">
        <ele>1269.1999511719</ele>
        <time>2024-07-14T06:58:58.000Z</time>
      </trkpt>
      <trkpt lat="45.03586" lon="5.50321">
        <ele>1269.5999755859</ele>
        <time>2024-07-14T06:58:59.000Z</time>
      </trkpt>
      <trkpt lat="45.03586" lon="5.5032">
        <ele>1270</ele>
        <time>2024-07-14T06:59:00.000Z</time>
      </trkpt>
      <trkpt lat="45.03586" lon="5.50319">
        <ele>1270</ele>
        <time>2024-07-14T06:59:01.000Z</time>
      </trkpt>
      <trkpt lat="45.03585" lon="5.50317">
        <ele>1270.4000244141</ele>
        <time>2024-07-14T06:59:02.000Z</time>
      </trkpt>
      <trkpt lat="45.03585" lon="5.50314">
        <ele>1270.5999755859</ele>
        <time>2024-07-14T06:59:03.000Z</time>
      </trkpt>
      <trkpt lat="45.03585" lon="5.50312">
        <ele>1270.8000488281</ele>
        <time>2024-07-14T06:59:04.000Z</time>
      </trkpt>
      <trkpt lat="45.03586" lon="5.5031">
        <ele>1271</ele>
        <time>2024-07-14T06:59:05.000Z</time>
      </trkpt>
      <trkpt lat="45.03586" lon="5.50308">
        <ele>1271.1999511719</ele>
        <time>2024-07-14T06:59:06.000Z</time>
      </trkpt>
      <trkpt lat="45.03586" lon="5.50307">
        <ele>1271.5999755859</ele>
        <time>2024-07-14T06:59:07.000Z</time>
      </trkpt>
      <trkpt lat="45.03587" lon="5.50305">
        <ele>1271.8000488281</ele>
        <time>2024-07-14T06:59:08.000Z</time>
      </trkpt>
      <trkpt lat="45.03588" lon="5.50303">
        <ele>1272.1999511719</ele>
        <time>2024-07-14T06:59:09.000Z</time>
      </trkpt>
      <trkpt lat="45.03588" lon="5.50302">
        <ele>1272.4000244141</ele>
        <time>2024-07-14T06:59:10.000Z</time>
      </trkpt>
      <trkpt lat="45.03589" lon="5.503">
        <ele>1272.5999755859</ele>
        <time>2024-07-14T06:59:11.000Z</time>
      </trkpt>
      <trkpt lat="45.03589" lon="5.50299">
        <ele>1273</ele>
        <time>2024-07-14T06:59:12.000Z</time>
      </trkpt>
      <trkpt lat="45.03589" lon="5.50297">
        <ele>1273.1999511719</ele>
        <time>2024-07-14T06:59:13.000Z</time>
      </trkpt>
      <trkpt lat="45.0359" lon="5.50295">
        <ele>1273.4000244141</ele>
        <time>2024-07-14T06:59:14.000Z</time>
      </trkpt>
      <trkpt lat="45.0359" lon="5.50293">
        <ele>1273.8000488281</ele>
        <time>2024-07-14T06:59:15.000Z</time>
      </trkpt>
      <trkpt lat="45.03591" lon="5.50292">
        <ele>1274</ele>
        <time>2024-07-14T06:59:16.000Z</time>
      </trkpt>
      <trkpt lat="45.03591" lon="5.5029">
        <ele>1274.1999511719</ele>
        <time>2024-07-14T06:59:17.000Z</time>
      </trkpt>
      <trkpt lat="45.03591" lon="5.50289">
        <ele>1274.4000244141</ele>
        <time>2024-07-14T06:59:18.000Z</time>
      </trkpt>
      <trkpt lat="45.03591" lon="5.50288">
        <ele>1274.5999755859</ele>
        <time>2024-07-14T06:59:19.000Z</time>
      </trkpt>
      <trkpt lat="45.03591" lon="5.50286">
        <ele>1275</ele>
        <time>2024-07-14T06:59:20.000Z</time>
      </trkpt>
      <trkpt lat="45.03591" lon="5.50285">
        <ele>1275.1999511719</ele>
        <time>2024-07-14T06:59:21.000Z</time>
      </trkpt>
      <trkpt lat="45.03591" lon="5.50283">
        <ele>1275.4000244141</ele>
        <time>2024-07-14T06:59:22.000Z</time>
      </trkpt>
      <trkpt lat="45.0359" lon="5.50282">
        <ele>1275.8000488281</ele>
        <time>2024-07-14T06:59:23.000Z</time>
      </trkpt>
      <trkpt lat="45.0359" lon="5.50281">
        <ele>1276</ele>
        <time>2024-07-14T06:59:24.000Z</time>
      </trkpt>
      <trkpt lat="45.0359" lon="5.5028">
        <ele>1276.1999511719</ele>
        <time>2024-07-14T06:59:25.000Z</time>
      </trkpt>
      <trkpt lat="45.03589" lon="5.50279">
        <ele>1276.4000244141</ele>
        <time>2024-07-14T06:59:26.000Z</time>
      </trkpt>
      <trkpt lat="45.03588" lon="5.50278">
        <ele>1276.8000488281</ele>
        <time>2024-07-14T06:59:27.000Z</time>
      </trkpt>
      <trkpt lat="45.03587" lon="5.50277">
        <ele>1277.1999511719</ele>
        <time>2024-07-14T06:59:28.000Z</time>
      </trkpt>
      <trkpt lat="45.03586" lon="5.50276">
        <ele>1277.4000244141</ele>
        <time>2024-07-14T06:59:29.000Z</time>
      </trkpt>
      <trkpt lat="45.03585" lon="5.50275">
        <ele>1277.5999755859</ele>
        <time>2024-07-14T06:59:30.000Z</time>
      </trkpt>
      <trkpt lat="45.03585" lon="5.50274">
        <ele>1277.8000488281</ele>
        <time>2024-07-14T06:59:31.000Z</time>
      </trkpt>
      <trkpt lat="45.03584" lon="5.50274">
        <ele>1278.1999511719</ele>
        <time>2024-07-14T06:59:32.000Z</time>
      </trkpt>
      <trkpt lat="45.03583" lon="5.50273">
        <ele>1278.4000244141</ele>
        <time>2024-07-14T06:59:33.000Z</time>
      </trkpt>
      <trkpt lat="45.03581" lon="5.50271">
        <ele>1278.8000488281</ele>
        <time>2024-07-14T06:59:34.000Z</time>
      </trkpt>
      <trkpt lat="45.03579" lon="5.5027">
        <ele>1279</ele>
        <time>2024-07-14T06:59:35.000Z</time>
      </trkpt>
      <trkpt lat="45.03578" lon="5.50269">
        <ele>1279</ele>
        <time>2024-07-14T06:59:36.000Z</time>
      </trkpt>
      <trkpt lat="45.03576" lon="5.50267">
        <ele>1279.4000244141</ele>
        <time>2024-07-14T06:59:37.000Z</time>
      </trkpt>
      <trkpt lat="45.03575" lon="5.50266">
        <ele>1279.5999755859</ele>
        <time>2024-07-14T06:59:38.000Z</time>
      </trkpt>
      <trkpt lat="45.03573" lon="5.50266">
        <ele>1279.8000488281</ele>
        <time>2024-07-14T06:59:39.000Z</time>
      </trkpt>
      <trkpt lat="45.03572" lon="5.50265">
        <ele>1280.1999511719</ele>
        <time>2024-07-14T06:59:40.000Z</time>
      </trkpt>
      <trkpt lat="45.0357" lon="5.50265">
        <ele>1280.1999511719</ele>
        <time>2024-07-14T06:59:41.000Z</time>
      </trkpt>
      <trkpt lat="45.03569" lon="5.50264">
        <ele>1280.4000244141</ele>
        <time>2024-07-14T06:59:42.000Z</time>
      </trkpt>
      <trkpt lat="45.03568" lon="5.50263">
        <ele>1280.5999755859</ele>
        <time>2024-07-14T06:59:43.000Z</time>
      </trkpt>
      <trkpt lat="45.03567" lon="5.50262">
        <ele>1280.8000488281</ele>
        <time>2024-07-14T06:59:44.000Z</time>
      </trkpt>
      <trkpt lat="45.03566" lon="5.50261">
        <ele>1281</ele>
        <time>2024-07-14T06:59:45.000Z</time>
      </trkpt>
      <trkpt lat="45.03564" lon="5.5026">
        <ele>1281.1999511719</ele>
        <time>2024-07-14T06:59:46.000Z</time>
      </trkpt>
      <trkpt lat="45.03563" lon="5.50259">
        <ele>1281.4000244141</ele>
        <time>2024-07-14T06:59:47.000Z</time>
      </trkpt>
      <trkpt lat="45.03562" lon="5.50258">
        <ele>1281.5999755859</ele>
        <time>2024-07-14T06:59:48.000Z</time>
      </trkpt>
      <trkpt lat="45.03561" lon="5.50257">
        <ele>1281.8000488281</ele>
        <time>2024-07-14T06:59:49.000Z</time>
      </trkpt>
      <trkpt lat="45.0356" lon="5.50255">
        <ele>1282.1999511719</ele>
        <time>2024-07-14T06:59:50.000Z</time>
      </trkpt>
      <trkpt lat="45.03558" lon="5.50254">
        <ele>1282.4000244141</ele>
        <time>2024-07-14T06:59:51.000Z</time>
      </trkpt>
      <trkpt lat="45.03557" lon="5.50252">
        <ele>1282.4000244141</ele>
        <time>2024-07-14T06:59:52.000Z</time>
      </trkpt>
      <trkpt lat="45.03557" lon="5.50251">
        <ele>1282.5999755859</ele>
        <time>2024-07-14T06:59:53.000Z</time>
      </trkpt>
      <trkpt lat="45.03556" lon="5.5025">
        <ele>1282.5999755859</ele>
        <time>2024-07-14T06:59:54.000Z</time>
      </trkpt>
      <trkpt lat="45.03555" lon="5.50249">
        <ele>1283.1999511719</ele>
        <time>2024-07-14T06:59:55.000Z</time>
      </trkpt>
      <trkpt lat="45.03554" lon="5.50248">
        <ele>1283.5999755859</ele>
        <time>2024-07-14T06:59:56.000Z</time>
      </trkpt>
      <trkpt lat="45.03552" lon="5.50248">
        <ele>1283.8000488281</ele>
        <time>2024-07-14T06:59:57.000Z</time>
      </trkpt>
      <trkpt lat="45.03551" lon="5.50248">
        <ele>1284.1999511719</ele>
        <time>2024-07-14T06:59:58.000Z</time>
      </trkpt>
      <trkpt lat="45.0355" lon="5.50247">
        <ele>1284.1999511719</ele>
        <time>2024-07-14T06:59:59.000Z</time>
      </trkpt>
      <trkpt lat="45.03548" lon="5.50247">
        <ele>1284.1999511719</ele>
        <time>2024-07-14T07:00:00.000Z</time>
      </trkpt>
      <trkpt lat="45.03547" lon="5.50246">
        <ele>1284.5999755859</ele>
        <time>2024-07-14T07:00:01.000Z</time>
      </trkpt>
      <trkpt lat="45.03545" lon="5.50245">
        <ele>1284.8000488281</ele>
        <time>2024-07-14T07:00:02.000Z</time>
      </trkpt>
      <trkpt lat="45.03544" lon="5.50245">
        <ele>1285</ele>
        <time>2024-07-14T07:00:03.000Z</time>
      </trkpt>
      <trkpt lat="45.03543" lon="5.50244">
        <ele>1285.1999511719</ele>
        <time>2024-07-14T07:00:04.000Z</time>
      </trkpt>
      <trkpt lat="45.03541" lon="5.50244">
        <ele>1285.4000244141</ele>
        <time>2024-07-14T07:00:05.000Z</time>
      </trkpt>
      <trkpt lat="45.0354" lon="5.50243">
        <ele>1285.5999755859</ele>
        <time>2024-07-14T07:00:06.000Z</time>
      </trkpt>
      <trkpt lat="45.03538" lon="5.50243">
        <ele>1285.5999755859</ele>
        <time>2024-07-14T07:00:07.000Z</time>
      </trkpt>
      <trkpt lat="45.03536" lon="5.50242">
        <ele>1285.8000488281</ele>
        <time>2024-07-14T07:00:08.000Z</time>
      </trkpt>
      <trkpt lat="45.03535" lon="5.50242">
        <ele>1286</ele>
        <time>2024-07-14T07:00:09.000Z</time>
      </trkpt>
      <trkpt lat="45.03533" lon="5.50241">
        <ele>1286.1999511719</ele>
        <time>2024-07-14T07:00:10.000Z</time>
      </trkpt>
      <trkpt lat="45.03531" lon="5.5024">
        <ele>1286.1999511719</ele>
        <time>2024-07-14T07:00:11.000Z</time>
      </trkpt>
      <trkpt lat="45.0353" lon="5.5024">
        <ele>1286.4000244141</ele>
        <time>2024-07-14T07:00:12.000Z</time>
      </trkpt>
      <trkpt lat="45.03529" lon="5.50239">
        <ele>1286.5999755859</ele>
        <time>2024-07-14T07:00:13.000Z</time>
      </trkpt>
      <trkpt lat="45.03527" lon="5.5024">
        <ele>1286.8000488281</ele>
        <time>2024-07-14T07:00:14.000Z</time>
      </trkpt>
      <trkpt lat="45.03525" lon="5.5024">
        <ele>1287</ele>
        <time>2024-07-14T07:00:15.000Z</time>
      </trkpt>
      <trkpt lat="45.03523" lon="5.5024">
        <ele>1287.1999511719</ele>
        <time>2024-07-14T07:00:16.000Z</time>
      </trkpt>
      <trkpt lat="45.03521" lon="5.5024">
        <ele>1287.1999511719</ele>
        <time>2024-07-14T07:00:17.000Z</time>
      </trkpt>
      <trkpt lat="45.03519" lon="5.50241">
        <ele>1287.8000488281</ele>
        <time>2024-07-14T07:00:18.000Z</time>
      </trkpt>
      <trkpt lat="45.03517" lon="5.50241">
        <ele>1287.8000488281</ele>
        <time>2024-07-14T07:00:19.000Z</time>
      </trkpt>
      <trkpt lat="45.03514" lon="5.50242">
        <ele>1287.8000488281</ele>
        <time>2024-07-14T07:00:20.000Z</time>
      </trkpt>
      <trkpt lat="45.03511" lon="5.50243">
        <ele>1287.8000488281</ele>
        <time>2024-07-14T07:00:21.000Z</time>
      </trkpt>
      <trkpt lat="45.03509" lon="5.50243">
        <ele>1287.8000488281</ele>
        <time>2024-07-14T07:00:22.000Z</time>
      </trkpt>
      <trkpt lat="45.03507" lon="5.50244">
        <ele>1287.5999755859</ele>
        <time>2024-07-14T07:00:23.000Z</time>
      </trkpt>
      <trkpt lat="45.03504" lon="5.50244">
        <ele>1287.4000244141</ele>
        <time>2024-07-14T07:00:24.000Z</time>
      </trkpt>
      <trkpt lat="45.03503" lon="5.50245">
        <ele>1287.4000244141</ele>
        <time>2024-07-14T07:00:25.000Z</time>
      </trkpt>
      <trkpt lat="45.03501" lon="5.50245">
        <ele>1287.4000244141</ele>
        <time>2024-07-14T07:00:26.000Z</time>
      </trkpt>
      <trkpt lat="45.03498" lon="5.50246">
        <ele>1287.4000244141</ele>
        <time>2024-07-14T07:00:27.000Z</time>
      </trkpt>
      <trkpt lat="45.03496" lon="5.50246">
        <ele>1287.4000244141</ele>
        <time>2024-07-14T07:00:28.000Z</time>
      </trkpt>
      <trkpt lat="45.03494" lon="5.50246">
        <ele>1287.5999755859</ele>
        <time>2024-07-14T07:00:29.000Z</time>
      </trkpt>
      <trkpt lat="45.03491" lon="5.50245">
        <ele>1287.8000488281</ele>
        <time>2024-07-14T07:00:30.000Z</time>
      </trkpt>
      <trkpt lat="45.03489" lon="5.50244">
        <ele>1288.1999511719</ele>
        <time>2024-07-14T07:00:31.000Z</time>
      </trkpt>
      <trkpt lat="45.03486" lon="5.50242">
        <ele>1288.4000244141</ele>
        <time>2024-07-14T07:00:32.000Z</time>
      </trkpt>
      <trkpt lat="45.03484" lon="5.50239">
        <ele>1288.5999755859</ele>
        <time>2024-07-14T07:00:33.000Z</time>
      </trkpt>
      <trkpt lat="45.03482" lon="5.50237">
        <ele>1288.5999755859</ele>
        <time>2024-07-14T07:00:34.000Z</time>
      </trkpt>
      <trkpt lat="45.03481" lon="5.50236">
        <ele>1288.8000488281</ele>
        <time>2024-07-14T07:00:35.000Z</time>
      </trkpt>
      <trkpt lat="45.03479" lon="5.50234">
        <ele>1288.8000488281</ele>
        <time>2024-07-14T07:00:36.000Z</time>
      </trkpt>
      <trkpt lat="45.03478" lon="5.50232">
        <ele>1289</ele>
        <time>2024-07-14T07:00:37.000Z</time>
      </trkpt>
      <trkpt lat="45.03477" lon="5.5023">
        <ele>1289.1999511719</ele>
        <time>2024-07-14T07:00:38.000Z</time>
      </trkpt>
      <trkpt lat="45.03476" lon="5.50228">
        <ele>1289.5999755859</ele>
        <time>2024-07-14T07:00:39.000Z</time>
      </trkpt>
      <trkpt lat="45.03475" lon="5.50226">
        <ele>1289.8000488281</ele>
        <time>2024-07-14T07:00:40.000Z</time>
      </trkpt>
      <trkpt lat="45.03474" lon="5.50223">
        <ele>1289.8000488281</ele>
        <time>2024-07-14T07:00:41.000Z</time>
      </trkpt>
      <trkpt lat="45.03474" lon="5.50221">
        <ele>1290.1999511719</ele>
        <time>2024-07-14T07:00:42.000Z</time>
      </trkpt>
      <trkpt lat="45.03474" lon="5.50219">
        <ele>1290.4000244141</ele>
        <time>2024-07-14T07:00:43.000Z</time>
      </trkpt>
      <trkpt lat="45.03473" lon="5.50216">
        <ele>1290.5999755859</ele>
        <time>2024-07-14T07:00:44.000Z</time>
      </trkpt>
      <trkpt lat="45.03473" lon="5.50214">
        <ele>1291</ele>
        <time>2024-07-14T07:00:45.000Z</time>
      </trkpt>
      <trkpt lat="45.03473" lon="5.50212">
        <ele>1291.1999511719</ele>
        <time>2024-07-14T07:00:46.000Z</time>
      </trkpt>
      <trkpt lat="45.03472" lon="5.50209">
        <ele>1291.4000244141</ele>
        <time>2024-07-14T07:00:47.000Z</time>
      </trkpt>
      <trkpt lat="45.03471" lon="5.50206">
        <ele>1291.8000488281</ele>
        <time>2024-07-14T07:00:48.000Z</time>
      </trkpt>
      <trkpt lat="45.03471" lon="5.50205">
        <ele>1292</ele>
        <time>2024-07-14T07:00:49.000Z</time>
      </trkpt>
      <trkpt lat="45.0347" lon="5.50203">
        <ele>1292.1999511719</ele>
        <time>2024-07-14T07:00:50.000Z</time>
      </trkpt>
      <trkpt lat="45.03469" lon="5.50201">
        <ele>1292.1999511719</ele>
        <time>2024-07-14T07:00:51.000Z</time>
      </trkpt>
      <trkpt lat="45.03468" lon="5.502">
        <ele>1292.4000244141</ele>
        <time>2024-07-14T07:00:52.000Z</time>
      </trkpt>
      <trkpt lat="45.03467" lon="5.50199">
        <ele>1292.8000488281</ele>
        <time>2024-07-14T07:00:53.000Z</time>
      </trkpt>
      <trkpt lat="45.03466" lon="5.50198">
        <ele>1293</ele>
        <time>2024-07-14T07:00:54.000Z</time>
      </trkpt>
      <trkpt lat="45.03464" lon="5.50196">
        <ele>1293.4000244141</ele>
        <time>2024-07-14T07:00:55.000Z</time>
      </trkpt>
      <trkpt lat="45.03462" lon="5.50195">
        <ele>1293.4000244141</ele>
        <time>2024-07-14T07:00:56.000Z</time>
      </trkpt>
      <trkpt lat="45.03461" lon="5.50194">
        <ele>1293.8000488281</ele>
        <time>2024-07-14T07:00:57.000Z</time>
      </trkpt>
      <trkpt lat="45.0346" lon="5.50194">
        <ele>1294</ele>
        <time>2024-07-14T07:00:58.000Z</time>
      </trkpt>
      <trkpt lat="45.03459" lon="5.50194">
        <ele>1294.1999511719</ele>
        <time>2024-07-14T07:00:59.000Z</time>
      </trkpt>
      <trkpt lat="45.03458" lon="5.50193">
        <ele>1294.5999755859</ele>
        <time>2024-07-14T07:01:00.000Z</time>
      </trkpt>
      <trkpt lat="45.03457" lon="5.50193">
        <ele>1294.8000488281</ele>
        <time>2024-07-14T07:01:01.000Z</time>
      </trkpt>
      <trkpt lat="45.03456" lon="5.50192">
        <ele>1295.1999511719</ele>
        <time>2024-07-14T07:01:02.000Z</time>
      </trkpt>
      <trkpt lat="45.03455" lon="5.50192">
        <ele>1295.4000244141</ele>
        <time>2024-07-14T07:01:03.000Z</time>
      </trkpt>
      <trkpt lat="45.03454" lon="5.50191">
        <ele>1295.8000488281</ele>
        <time>2024-07-14T07:01:04.000Z</time>
      </trkpt>
      <trkpt lat="45.03452" lon="5.50189">
        <ele>1296</ele>
        <time>2024-07-14T07:01:05.000Z</time>
      </trkpt>
      <trkpt lat="45.03451" lon="5.50188">
        <ele>1296.4000244141</ele>
        <time>2024-07-14T07:01:06.000Z</time>
      </trkpt>
      <trkpt lat="45.03449" lon="5.50187">
        <ele>1296.5999755859</ele>
        <time>2024-07-14T07:01:07.000Z</time>
      </trkpt>
      <trkpt lat="45.03448" lon="5.50185">
        <ele>1296.8000488281</ele>
        <time>2024-07-14T07:01:08.000Z</time>
      </trkpt>
      <trkpt lat="45.03447" lon="5.50184">
        <ele>1296.8000488281</ele>
        <time>2024-07-14T07:01:09.000Z</time>
      </trkpt>
      <trkpt lat="45.03445" lon="5.50182">
        <ele>1296.8000488281</ele>
        <time>2024-07-14T07:01:10.000Z</time>
      </trkpt>
      <trkpt lat="45.03444" lon="5.50179">
        <ele>1296.8000488281</ele>
        <time>2024-07-14T07:01:11.000Z</time>
      </trkpt>
      <trkpt lat="45.03442" lon="5.50177">
        <ele>1296.5999755859</ele>
        <time>2024-07-14T07:01:12.000Z</time>
      </trkpt>
      <trkpt lat="45.03441" lon="5.50175">
        <ele>1296.4000244141</ele>
        <time>2024-07-14T07:01:13.000Z</time>
      </trkpt>
      <trkpt lat="45.0344" lon="5.50173">
        <ele>1296.4000244141</ele>
        <time>2024-07-14T07:01:14.000Z</time>
      </trkpt>
      <trkpt lat="45.03439" lon="5.50169">
        <ele>1296.4000244141</ele>
        <time>2024-07-14T07:01:15.000Z</time>
      </trkpt>
      <trkpt lat="45.03437" lon="5.50167">
        <ele>1296.4000244141</ele>
        <time>2024-07-14T07:01:16.000Z</time>
      </trkpt>
      <trkpt lat="45.03436" lon="5.50165">
        <ele>1296.8000488281</ele>
        <time>2024-07-14T07:01:17.000Z</time>
      </trkpt>
      <trkpt lat="45.03435" lon="5.50162">
        <ele>1297</ele>
        <time>2024-07-14T07:01:18.000Z</time>
      </trkpt>
      <trkpt lat="45.03434" lon="5.5016">
        <ele>1297.1999511719</ele>
        <time>2024-07-14T07:01:19.000Z</time>
      </trkpt>
      <trkpt lat="45.03432" lon="5.50157">
        <ele>1297.4000244141</ele>
        <time>2024-07-14T07:01:20.000Z</time>
      </trkpt>
      <trkpt lat="45.03431" lon="5.50156">
        <ele>1297.5999755859</ele>
        <time>2024-07-14T07:01:21.000Z</time>
      </trkpt>
      <trkpt lat="45.0343" lon="5.50154">
        <ele>1297.8000488281</ele>
        <time>2024-07-14T07:01:22.000Z</time>
      </trkpt>
      <trkpt lat="45.03429" lon="5.50152">
        <ele>1297.8000488281</ele>
        <time>2024-07-14T07:01:23.000Z</time>
      </trkpt>
      <trkpt lat="45.03428" lon="5.50151">
        <ele>1297.8000488281</ele>
        <time>2024-07-14T07:01:24.000Z</time>
      </trkpt>
      <trkpt lat="45.03427" lon="5.50149">
        <ele>1297.8000488281</ele>
        <time>2024-07-14T07:01:25.000Z</time>
      </trkpt>
      <trkpt lat="45.03426" lon="5.50147">
        <ele>1297.8000488281</ele>
        <time>2024-07-14T07:01:26.000Z</time>
      </trkpt>
      <trkpt lat="45.03424" lon="5.50143">
        <ele>1297.4000244141</ele>
        <time>2024-07-14T07:01:27.000Z</time>
      </trkpt>
      <trkpt lat="45.03424" lon="5.5014">
        <ele>1297.4000244141</ele>
        <time>2024-07-14T07:01:28.000Z</time>
      </trkpt>
      <trkpt lat="45.03424" lon="5.50137">
        <ele>1297</ele>
        <time>2024-07-14T07:01:29.000Z</time>
      </trkpt>
      <trkpt lat="45.03424" lon="5.50132">
        <ele>1296.5999755859</ele>
        <time>2024-07-14T07:01:30.000Z</time>
      </trkpt>
      <trkpt lat="45.03424" lon="5.50128">
        <ele>1296.5999755859</ele>
        <time>2024-07-14T07:01:31.000Z</time>
      </trkpt>
      <trkpt lat="45.03425" lon="5.50124">
        <ele>1296.5999755859</ele>
        <time>2024-07-14T07:01:32.000Z</time>
      </trkpt>
      <trkpt lat="45.03425" lon="5.5012">
        <ele>1296.5999755859</ele>
        <time>2024-07-14T07:01:33.000Z</time>
      </trkpt>
      <trkpt lat="45.03426" lon="5.50116">
        <ele>1296.5999755859</ele>
        <time>2024-07-14T07:01:34.000Z</time>
      </trkpt>
      <trkpt lat="45.03426" lon="5.50113">
        <ele>1296.8000488281</ele>
        <time>2024-07-14T07:01:35.000Z</time>
      </trkpt>
      <trkpt lat="45.03426" lon="5.50111">
        <ele>1297</ele>
        <time>2024-07-14T07:01:36.000Z</time>
      </trkpt>
      <trkpt lat="45.03426" lon="5.50107">
        <ele>1297.1999511719</ele>
        <time>2024-07-14T07:01:37.000Z</time>
      </trkpt>
      <trkpt lat="45.03427" lon="5.50104">
        <ele>1297.4000244141</ele>
        <time>2024-07-14T07:01:38.000Z</time>
      </trkpt>
      <trkpt lat="45.03427" lon="5.50101">
        <ele>1297.5999755859</ele>
        <time>2024-07-14T07:01:39.000Z</time>
      </trkpt>
      <trkpt lat="45.03427" lon="5.50098">
        <ele>1297.8000488281</ele>
        <time>2024-07-14T07:01:40.000Z</time>
      </trkpt>
      <trkpt lat="45.03428" lon="5.50096">
        <ele>1297.8000488281</ele>
        <time>2024-07-14T07:01:41.000Z</time>
      </trkpt>
      <trkpt lat="45.03428" lon="5.50093">
        <ele>1298</ele>
        <time>2024-07-14T07:01:42.000Z</time>
      </trkpt>
      <trkpt lat="45.03429" lon="5.50091">
        <ele>1298.1999511719</ele>
        <time>2024-07-14T07:01:43.000Z</time>
      </trkpt>
      <trkpt lat="45.03429" lon="5.50088">
        <ele>1298.4000244141</ele>
        <time>2024-07-14T07:01:44.000Z</time>
      </trkpt>
      <trkpt lat="45.03429" lon="5.50086">
        <ele>1298.4000244141</ele>
        <time>2024-07-14T07:01:45.000Z</time>
      </trkpt>
      <trkpt lat="45.0343" lon="5.50083">
        <ele>1298.8000488281</ele>
        <time>2024-07-14T07:01:46.000Z</time>
      </trkpt>
      <trkpt lat="45.03431" lon="5.5008">
        <ele>1299</ele>
        <time>2024-07-14T07:01:47.000Z</time>
      </trkpt>
      <trkpt lat="45.03432" lon="5.50077">
        <ele>1299.1999511719</ele>
        <time>2024-07-14T07:01:48.000Z</time>
      </trkpt>
      <trkpt lat="45.03433" lon="5.50074">
        <ele>1299.5999755859</ele>
        <time>2024-07-14T07:01:49.000Z</time>
      </trkpt>
      <trkpt lat="45.03434" lon="5.50071">
        <ele>1299.5999755859</ele>
        <time>2024-07-14T07:01:50.000Z</time>
      </trkpt>
      <trkpt lat="45.03434" lon="5.50069">
        <ele>1299.8000488281</ele>
        <time>2024-07-14T07:01:51.000Z</time>
      </trkpt>
      <trkpt lat="45.03435" lon="5.50067">
        <ele>1299.8000488281</ele>
        <time>2024-07-14T07:01:52.000Z</time>
      </trkpt>
      <trkpt lat="45.03436" lon="5.50064">
        <ele>1299.8000488281</ele>
        <time>2024-07-14T07:01:53.000Z</time>
      </trkpt>
      <trkpt lat="45.03436" lon="5.50062">
        <ele>1300</ele>
        <time>2024-07-14T07:01:54.000Z</time>
      </trkpt>
      <trkpt lat="45.03437" lon="5.5006">
        <ele>1300.4000244141</ele>
        <time>2024-07-14T07:01:55.000Z</time>
      </trkpt>
      <trkpt lat="45.03437" lon="5.50058">
        <ele>1300.5999755859</ele>
        <time>2024-07-14T07:01:56.000Z</time>
      </trkpt>
      <trkpt lat="45.03437" lon="5.50056">
        <ele>1300.8000488281</ele>
        <time>2024-07-14T07:01:57.000Z</time>
      </trkpt>
      <trkpt lat="45.03438" lon="5.50054">
        <ele>1301.1999511719</ele>
        <time>2024-07-14T07:01:58.000Z</time>
      </trkpt>
      <trkpt lat="45.03438" lon="5.50052">
        <ele>1301.4000244141</ele>
        <time>2024-07-14T07:01:59.000Z</time>
      </trkpt>
      <trkpt lat="45.03438" lon="5.50049">
        <ele>1301.5999755859</ele>
        <time>2024-07-14T07:02:00.000Z</time>
      </trkpt>
      <trkpt lat="45.03439" lon="5.50047">
        <ele>1301.8000488281</ele>
        <time>2024-07-14T07:02:01.000Z</time>
      </trkpt>
      <trkpt lat="45.03439" lon="5.50045">
        <ele>1302</ele>
        <time>2024-07-14T07:02:02.000Z</time>
      </trkpt>
      <trkpt lat="45.0344" lon="5.50043">
        <ele>1302.1999511719</ele>
        <time>2024-07-14T07:02:03.000Z</time>
      </trkpt>
      <trkpt lat="45.03442" lon="5.5004">
        <ele>1302.4000244141</ele>
        <time>2024-07-14T07:02:04.000Z</time>
      </trkpt>
      <trkpt lat="45.03442" lon="5.50039">
        <ele>1302.5999755859</ele>
        <time>2024-07-14T07:02:05.000Z</time>
      </trkpt>
      <trkpt lat="45.03443" lon="5.50037">
        <ele>1302.8000488281</ele>
        <time>2024-07-14T07:02:06.000Z</time>
      </trkpt>
      <trkpt lat="45.03444" lon="5.50034">
        <ele>1303.1999511719</ele>
        <time>2024-07-14T07:02:07.000Z</time>
      </trkpt>
      <trkpt lat="45.03445" lon="5.50031">
        <ele>1303.4000244141</ele>
        <time>2024-07-14T07:02:08.000Z</time>
      </trkpt>
      <trkpt lat="45.03446" lon="5.50029">
        <ele>1303.5999755859</ele>
        <time>2024-07-14T07:02:09.000Z</time>
      </trkpt>
      <trkpt lat="45.03447" lon="5.50027">
        <ele>1303.5999755859</ele>
        <time>2024-07-14T07:02:10.000Z</time>
      </trkpt>
      <trkpt lat="45.03449" lon="5.50025">
        <ele>1304</ele>
        <time>2024-07-14T07:02:11.000Z</time>
      </trkpt>
      <trkpt lat="45.0345" lon="5.50023">
        <ele>1304.4000244141</ele>
        <time>2024-07-14T07:02:12.000Z</time>
      </trkpt>
      <trkpt lat="45.03451" lon="5.50021">
        <ele>1304.5999755859</ele>
        <time>2024-07-14T07:02:13.000Z</time>
      </trkpt>
      <trkpt lat="45.03452" lon="5.50019">
        <ele>1305</ele>
        <time>2024-07-14T07:02:14.000Z</time>
      </trkpt>
      <trkpt lat="45.03454" lon="5.50018">
        <ele>1305.1999511719</ele>
        <time>2024-07-14T07:02:15.000Z</time>
      </trkpt>
      <trkpt lat="45.03455" lon="5.50016">
        <ele>1305.4000244141</ele>
        <time>2024-07-14T07:02:16.000Z</time>
      </trkpt>
      <trkpt lat="45.03457" lon="5.50015">
        <ele>1305.5999755859</ele>
        <time>2024-07-14T07:02:17.000Z</time>
      </trkpt>
      <trkpt lat="45.03458" lon="5.50013">
        <ele>1305.8000488281</ele>
        <time>2024-07-14T07:02:18.000Z</time>
      </trkpt>
      <trkpt lat="45.0346" lon="5.50011">
        <ele>1306</ele>
        <time>2024-07-14T07:02:19.000Z</time>
      </trkpt>
      <trkpt lat="45.03462" lon="5.50009">
        <ele>1306.1999511719</ele>
        <time>2024-07-14T07:02:20.000Z</time>
      </trkpt>
      <trkpt lat="45.03464" lon="5.50008">
        <ele>1306.1999511719</ele>
        <time>2024-07-14T07:02:21.000Z</time>
      </trkpt>
      <trkpt lat="45.03466" lon="5.50006">
        <ele>1306.1999511719</ele>
        <time>2024-07-14T07:02:22.000Z</time>
      </trkpt>
      <trkpt lat="45.03469" lon="5.50003">
        <ele>1306.4000244141</ele>
        <time>2024-07-14T07:02:23.000Z</time>
      </trkpt>
      <trkpt lat="45.03471" lon="5.50001">
        <ele>1306.4000244141</ele>
        <time>2024-07-14T07:02:24.000Z</time>
      </trkpt>
      <trkpt lat="45.03473" lon="5.49998">
        <ele>1306.1999511719</ele>
        <time>2024-07-14T07:02:25.000Z</time>
      </trkpt>
      <trkpt lat="45.03474" lon="5.49996">
        <ele>1306</ele>
        <time>2024-07-14T07:02:26.000Z</time>
      </trkpt>
      <trkpt lat="45.03476" lon="5.49994">
        <ele>1306</ele>
        <time>2024-07-14T07:02:27.000Z</time>
      </trkpt>
      <trkpt lat="45.03477" lon="5.49991">
        <ele>1306</ele>
        <time>2024-07-14T07:02:28.000Z</time>
      </trkpt>
      <trkpt lat="45.03479" lon="5.49989">
        <ele>1305.8000488281</ele>
        <time>2024-07-14T07:02:29.000Z</time>
      </trkpt>
      <trkpt lat="45.0348" lon="5.49986">
        <ele>1306</ele>
        <time>2024-07-14T07:02:30.000Z</time>
      </trkpt>
      <trkpt lat="45.03481" lon="5.49983">
        <ele>1305.8000488281</ele>
        <time>2024-07-14T07:02:31.000Z</time>
      </trkpt>
      <trkpt lat="45.03482" lon="5.49979">
        <ele>1305.8000488281</ele>
        <time>2024-07-14T07:02:32.000Z</time>
      </trkpt>
      <trkpt lat="45.03482" lon="5.49976">
        <ele>1306</ele>
        <time>2024-07-14T07:02:33.000Z</time>
      </trkpt>
      <trkpt lat="45.03483" lon="5.49973">
        <ele>1306</ele>
        <time>2024-07-14T07:02:34.000Z</time>
      </trkpt>
      <trkpt lat="45.03483" lon="5.4997">
        <ele>1306</ele>
        <time>2024-07-14T07:02:35.000Z</time>
      </trkpt>
      <trkpt lat="45.03483" lon="5.49966">
        <ele>1306.1999511719</ele>
        <time>2024-07-14T07:02:36.000Z</time>
      </trkpt>
      <trkpt lat="45.03483" lon="5.49962">
        <ele>1306.1999511719</ele>
        <time>2024-07-14T07:02:37.000Z</time>
      </trkpt>
      <trkpt lat="45.03482" lon="5.49959">
        <ele>1306.4000244141</ele>
        <time>2024-07-14T07:02:38.000Z</time>
      </trkpt>
      <trkpt lat="45.03482" lon="5.49955">
        <ele>1306.4000244141</ele>
        <time>2024-07-14T07:02:39.000Z</time>
      </trkpt>
      <trkpt lat="45.03481" lon="5.49952">
        <ele>1306.4000244141</ele>
        <time>2024-07-14T07:02:40.000Z</time>
      </trkpt>
      <trkpt lat="45.0348" lon="5.49949">
        <ele>1306.1999511719</ele>
        <time>2024-07-14T07:02:41.000Z</time>
      </trkpt>
      <trkpt lat="45.0348" lon="5.49945">
        <ele>1306</ele>
        <time>2024-07-14T07:02:42.000Z</time>
      </trkpt>
      <trkpt lat="45.03479" lon="5.49941">
        <ele>1306</ele>
        <time>2024-07-14T07:02:43.000Z</time>
      </trkpt>
      <trkpt lat="45.03478" lon="5.49938">
        <ele>1305.8000488281</ele>
        <time>2024-07-14T07:02:44.000Z</time>
      </trkpt>
      <trkpt lat="45.03477" lon="5.49934">
        <ele>1305.4000244141</ele>
        <time>2024-07-14T07:02:45.000Z</time>
      </trkpt>
      <trkpt lat="45.03476" lon="5.4993">
        <ele>1305.1999511719</ele>
        <time>2024-07-14T07:02:46.000Z</time>
      </trkpt>
      <trkpt lat="45.03475" lon="5.49927">
        <ele>1305</ele>
        <time>2024-07-14T07:02:47.000Z</time>
      </trkpt>
      <trkpt lat="45.03473" lon="5.49923">
        <ele>1304.8000488281</ele>
        <time>2024-07-14T07:02:48.000Z</time>
      </trkpt>
      <trkpt lat="45.03472" lon="5.4992">
        <ele>1304.5999755859</ele>
        <time>2024-07-14T07:02:49.000Z</time>
      </trkpt>
      <trkpt lat="45.03471" lon="5.49916">
        <ele>1304.5999755859</ele>
        <time>2024-07-14T07:02:50.000Z</time>
      </trkpt>
      <trkpt lat="45.03469" lon="5.49913">
        <ele>1304.5999755859</ele>
        <time>2024-07-14T07:02:51.000Z</time>
      </trkpt>
      <trkpt lat="45.03468" lon="5.4991">
        <ele>1304.4000244141</ele>
        <time>2024-07-14T07:02:52.000Z</time>
      </trkpt>
      <trkpt lat="45.03466" lon="5.49907">
        <ele>1304.4000244141</ele>
        <time>2024-07-14T07:02:53.000Z</time>
      </trkpt>
      <trkpt lat="45.03464" lon="5.49904">
        <ele>1304.1999511719</ele>
        <time>2024-07-14T07:02:54.000Z</time>
      </trkpt>
      <trkpt lat="45.03462" lon="5.49901">
        <ele>1304.1999511719</ele>
        <time>2024-07-14T07:02:55.000Z</time>
      </trkpt>
      <trkpt lat="45.0346" lon="5.49898">
        <ele>1303.5999755859</ele>
        <time>2024-07-14T07:02:56.000Z</time>
      </trkpt>
      <trkpt lat="45.03459" lon="5.49895">
        <ele>1303.1999511719</ele>
        <time>2024-07-14T07:02:57.000Z</time>
      </trkpt>
      <trkpt lat="45.03457" lon="5.49892">
        <ele>1303</ele>
        <time>2024-07-14T07:02:58.000Z</time>
      </trkpt>
      <trkpt lat="45.03455" lon="5.49889">
        <ele>1303</ele>
        <time>2024-07-14T07:02:59.000Z</time>
      </trkpt>
      <trkpt lat="45.03454" lon="5.49886">
        <ele>1302.8000488281</ele>
        <time>2024-07-14T07:03:00.000Z</time>
      </trkpt>
      <trkpt lat="45.03452" lon="5.49882">
        <ele>1302.8000488281</ele>
        <time>2024-07-14T07:03:01.000Z</time>
      </trkpt>
      <trkpt lat="45.03451" lon="5.49879">
        <ele>1302.8000488281</ele>
        <time>2024-07-14T07:03:02.000Z</time>
      </trkpt>
      <trkpt lat="45.03449" lon="5.49876">
        <ele>1302.8000488281</ele>
        <time>2024-07-14T07:03:03.000Z</time>
      </trkpt>
      <trkpt lat="45.03448" lon="5.49873">
        <ele>1302.8000488281</ele>
        <time>2024-07-14T07:03:04.000Z</time>
      </trkpt>
      <trkpt lat="45.03446" lon="5.4987">
        <ele>1302.8000488281</ele>
        <time>2024-07-14T07:03:05.000Z</time>
      </trkpt>
      <trkpt lat="45.03444" lon="5.49867">
        <ele>1303</ele>
        <time>2024-07-14T07:03:06.000Z</time>
      </trkpt>
      <trkpt lat="45.03442" lon="5.49864">
        <ele>1303</ele>
        <time>2024-07-14T07:03:07.000Z</time>
      </trkpt>
      <trkpt lat="45.03441" lon="5.49861">
        <ele>1303</ele>
        <time>2024-07-14T07:03:08.000Z</time>
      </trkpt>
      <trkpt lat="45.03439" lon="5.49858">
        <ele>1303.1999511719</ele>
        <time>2024-07-14T07:03:09.000Z</time>
      </trkpt>
      <trkpt lat="45.03437" lon="5.49855">
        <ele>1303.1999511719</ele>
        <time>2024-07-14T07:03:10.000Z</time>
      </trkpt>
      <trkpt lat="45.03436" lon="5.49852">
        <ele>1303.1999511719</ele>
        <time>2024-07-14T07:03:11.000Z</time>
      </trkpt>
      <trkpt lat="45.03434" lon="5.4985">
        <ele>1303.1999511719</ele>
        <time>2024-07-14T07:03:12.000Z</time>
      </trkpt>
      <trkpt lat="45.03433" lon="5.49848">
        <ele>1303.1999511719</ele>
        <time>2024-07-14T07:03:13.000Z</time>
      </trkpt>
      <trkpt lat="45.0343" lon="5.49845">
        <ele>1303.1999511719</ele>
        <time>2024-07-14T07:03:14.000Z</time>
      </trkpt>
      <trkpt lat="45.03429" lon="5.49842">
        <ele>1303.4000244141</ele>
        <time>2024-07-14T07:03:15.000Z</time>
      </trkpt>
      <trkpt lat="45.03427" lon="5.49839">
        <ele>1303.4000244141</ele>
        <time>2024-07-14T07:03:16.000Z</time>
      </trkpt>
      <trkpt lat="45.03425" lon="5.49836">
        <ele>1303.4000244141</ele>
        <time>2024-07-14T07:03:17.000Z</time>
      </trkpt>
      <trkpt lat="45.03423" lon="5.49834">
        <ele>1303.4000244141</ele>
        <time>2024-07-14T07:03:18.000Z</time>
      </trkpt>
      <trkpt lat="45.03422" lon="5.4983">
        <ele>1303.5999755859</ele>
        <time>2024-07-14T07:03:19.000Z</time>
      </trkpt>
      <trkpt lat="45.0342" lon="5.49828">
        <ele>1303.5999755859</ele>
        <time>2024-07-14T07:03:20.000Z</time>
      </trkpt>
      <trkpt lat="45.03418" lon="5.49824">
        <ele>1303.8000488281</ele>
        <time>2024-07-14T07:03:21.000Z</time>
      </trkpt>
      <trkpt lat="45.03417" lon="5.49822">
        <ele>1303.8000488281</ele>
        <time>2024-07-14T07:03:22.000Z</time>
      </trkpt>
      <trkpt lat="45.03416" lon="5.49819">
        <ele>1304</ele>
        <time>2024-07-14T07:03:23.000Z</time>
      </trkpt>
      <trkpt lat="45.03415" lon="5.49816">
        <ele>1304</ele>
        <time>2024-07-14T07:03:24.000Z</time>
      </trkpt>
      <trkpt lat="45.03414" lon="5.49814">
        <ele>1304.1999511719</ele>
        <time>2024-07-14T07:03:25.000Z</time>
      </trkpt>
      <trkpt lat="45.03412" lon="5.49811">
        <ele>1304.4000244141</ele>
        <time>2024-07-14T07:03:26.000Z</time>
      </trkpt>
      <trkpt lat="45.03411" lon="5.49809">
        <ele>1304.5999755859</ele>
        <time>2024-07-14T07:03:27.000Z</time>
      </trkpt>
      <trkpt lat="45.0341" lon="5.49806">
        <ele>1304.8000488281</ele>
        <time>2024-07-14T07:03:28.000Z</time>
      </trkpt>
      <trkpt lat="45.03409" lon="5.49803">
        <ele>1305.1999511719</ele>
        <time>2024-07-14T07:03:29.000Z</time>
      </trkpt>
      <trkpt lat="45.03409" lon="5.498">
        <ele>1305.4000244141</ele>
        <time>2024-07-14T07:03:30.000Z</time>
      </trkpt>
      <trkpt lat="45.03408" lon="5.49796">
        <ele>1305.5999755859</ele>
        <time>2024-07-14T07:03:31.000Z</time>
      </trkpt>
      <trkpt lat="45.03408" lon="5.49793">
        <ele>1306</ele>
        <time>2024-07-14T07:03:32.000Z</time>
      </trkpt>
      <trkpt lat="45.03408" lon="5.49789">
        <ele>1306.1999511719</ele>
        <time>2024-07-14T07:03:33.000Z</time>
      </trkpt>
      <trkpt lat="45.03407" lon="5.49785">
        <ele>1306.4000244141</ele>
        <time>2024-07-14T07:03:34.000Z</time>
      </trkpt>
      <trkpt lat="45.03407" lon="5.49782">
        <ele>1306.5999755859</ele>
        <time>2024-07-14T07:03:35.000Z</time>
      </trkpt>
      <trkpt lat="45.03407" lon="5.49778">
        <ele>1306.8000488281</ele>
        <time>2024-07-14T07:03:36.000Z</time>
      </trkpt>
      <trkpt lat="45.03407" lon="5.49775">
        <ele>1307.4000244141</ele>
        <time>2024-07-14T07:03:37.000Z</time>
      </trkpt>
      <trkpt lat="45.03407" lon="5.49771">
        <ele>1307.4000244141</ele>
        <time>2024-07-14T07:03:38.000Z</time>
      </trkpt>
      <trkpt lat="45.03407" lon="5.49767">
        <ele>1307.5999755859</ele>
        <time>2024-07-14T07:03:39.000Z</time>
      </trkpt>
      <trkpt lat="45.03407" lon="5.49763">
        <ele>1307.5999755859</ele>
        <time>2024-07-14T07:03:40.000Z</time>
      </trkpt>
      <trkpt lat="45.03407" lon="5.49759">
        <ele>1307.8000488281</ele>
        <time>2024-07-14T07:03:41.000Z</time>
      </trkpt>
      <trkpt lat="45.03407" lon="5.49754">
        <ele>1308</ele>
        <time>2024-07-14T07:03:42.000Z</time>
      </trkpt>
      <trkpt lat="45.03407" lon="5.4975">
        <ele>1308</ele>
        <time>2024-07-14T07:03:43.000Z</time>
      </trkpt>
      <trkpt lat="45.03407" lon="5.49746">
        <ele>1308</ele>
        <time>2024-07-14T07:03:44.000Z</time>
      </trkpt>
      <trkpt lat="45.03408" lon="5.49742">
        <ele>1308</ele>
        <time>2024-07-14T07:03:45.000Z</time>
      </trkpt>
      <trkpt lat="45.03408" lon="5.49738">
        <ele>1308</ele>
        <time>2024-07-14T07:03:46.000Z</time>
      </trkpt>
      <trkpt lat="45.03409" lon="5.49734">
        <ele>1308.1999511719</ele>
        <time>2024-07-14T07:03:47.000Z</time>
      </trkpt>
      <trkpt lat="45.03409" lon="5.4973">
        <ele>1308.1999511719</ele>
        <time>2024-07-14T07:03:48.000Z</time>
      </trkpt>
      <trkpt lat="45.0341" lon="5.49728">
        <ele>1308.4000244141</ele>
        <time>2024-07-14T07:03:49.000Z</time>
      </trkpt>
      <trkpt lat="45.03411" lon="5.49724">
        <ele>1308.4000244141</ele>
        <time>2024-07-14T07:03:50.000Z</time>
      </trkpt>
      <trkpt lat="45.03411" lon="5.49721">
        <ele>1308.5999755859</ele>
        <time>2024-07-14T07:03:51.000Z</time>
      </trkpt>
      <trkpt lat="45.03412" lon="5.49718">
        <ele>1308.8000488281</ele>
        <time>2024-07-14T07:03:52.000Z</time>
      </trkpt>
      <trkpt lat="45.03413" lon="5.49715">
        <ele>1309.1999511719</ele>
        <time>2024-07-14T07:03:53.000Z</time>
      </trkpt>
      <trkpt lat="45.03414" lon="5.49713">
        <ele>1309.4000244141</ele>
        <time>2024-07-14T07:03:54.000Z</time>
      </trkpt>
      <trkpt lat="45.03415" lon="5.49711">
        <ele>1309.8000488281</ele>
        <time>2024-07-14T07:03:55.000Z</time>
      </trkpt>
      <trkpt lat="45.03416" lon="5.49708">
        <ele>1309.8000488281</ele>
        <time>2024-07-14T07:03:56.000Z</time>
      </trkpt>
      <trkpt lat="45.03417" lon="5.49706">
        <ele>1310</ele>
        <time>2024-07-14T07:03:57.000Z</time>
      </trkpt>
      <trkpt lat="45.03418" lon="5.49703">
        <ele>1310.1999511719</ele>
        <time>2024-07-14T07:03:58.000Z</time>
      </trkpt>
      <trkpt lat="45.03419" lon="5.49701">
        <ele>1310.4000244141</ele>
        <time>2024-07-14T07:03:59.000Z</time>
      </trkpt>
      <trkpt lat="45.0342" lon="5.49699">
        <ele>1310.5999755859</ele>
        <time>2024-07-14T07:04:00.000Z</time>
      </trkpt>
      <trkpt lat="45.03421" lon="5.49696">
        <ele>1310.8000488281</ele>
        <time>2024-07-14T07:04:01.000Z</time>
      </trkpt>
      <trkpt lat="45.03422" lon="5.49693">
        <ele>1311</ele>
        <time>2024-07-14T07:04:02.000Z</time>
      </trkpt>
      <trkpt lat="45.03423" lon="5.4969">
        <ele>1311.4000244141</ele>
        <time>2024-07-14T07:04:03.000Z</time>
      </trkpt>
      <trkpt lat="45.03424" lon="5.49687">
        <ele>1311.5999755859</ele>
        <time>2024-07-14T07:04:04.000Z</time>
      </trkpt>
      <trkpt lat="45.03424" lon="5.49685">
        <ele>1311.8000488281</ele>
        <time>2024-07-14T07:04:05.000Z</time>
      </trkpt>
      <trkpt lat="45.03424" lon="5.49683">
        <ele>1312</ele>
        <time>2024-07-14T07:04:06.000Z</time>
      </trkpt>
      <trkpt lat="45.03424" lon="5.4968">
        <ele>1312.1999511719</ele>
        <time>2024-07-14T07:04:07.000Z</time>
      </trkpt>
      <trkpt lat="45.03423" lon="5.49678">
        <ele>1312.4000244141</ele>
        <time>2024-07-14T07:04:08.000Z</time>
      </trkpt>
      <trkpt lat="45.03423" lon="5.49675">
        <ele>1312.5999755859</ele>
        <time>2024-07-14T07:04:09.000Z</time>
      </trkpt>
      <trkpt lat="45.03422" lon="5.49673">
        <ele>1312.8000488281</ele>
        <time>2024-07-14T07:04:10.000Z</time>
      </trkpt>
      <trkpt lat="45.03421" lon="5.49671">
        <ele>1313</ele>
        <time>2024-07-14T07:04:11.000Z</time>
      </trkpt>
      <trkpt lat="45.0342" lon="5.49669">
        <ele>1313.1999511719</ele>
        <time>2024-07-14T07:04:12.000Z</time>
      </trkpt>
      <trkpt lat="45.03419" lon="5.49668">
        <ele>1313.4000244141</ele>
        <time>2024-07-14T07:04:13.000Z</time>
      </trkpt>
      <trkpt lat="45.03417" lon="5.49667">
        <ele>1313.5999755859</ele>
        <time>2024-07-14T07:04:14.000Z</time>
      </trkpt>
      <trkpt lat="45.03416" lon="5.49666">
        <ele>1313.8000488281</ele>
        <time>2024-07-14T07:04:15.000Z</time>
      </trkpt>
      <trkpt lat="45.03414" lon="5.49665">
        <ele>1314</ele>
        <time>2024-07-14T07:04:16.000Z</time>
      </trkpt>
      <trkpt lat="45.03413" lon="5.49664">
        <ele>1314.1999511719</ele>
        <time>2024-07-14T07:04:17.000Z</time>
      </trkpt>
      <trkpt lat="45.03412" lon="5.49662">
        <ele>1314.4000244141</ele>
        <time>2024-07-14T07:04:18.000Z</time>
      </trkpt>
      <trkpt lat="45.03411" lon="5.4966">
        <ele>1314.5999755859</ele>
        <time>2024-07-14T07:04:19.000Z</time>
      </trkpt>
      <trkpt lat="45.03411" lon="5.49658">
        <ele>1314.5999755859</ele>
        <time>2024-07-14T07:04:20.000Z</time>
      </trkpt>
      <trkpt lat="45.03411" lon="5.49656">
        <ele>1314.8000488281</ele>
        <time>2024-07-14T07:04:21.000Z</time>
      </trkpt>
      <trkpt lat="45.03411" lon="5.49655">
        <ele>1315</ele>
        <time>2024-07-14T07:04:22.000Z</time>
      </trkpt>
      <trkpt lat="45.03411" lon="5.49653">
        <ele>1315.1999511719</ele>
        <time>2024-07-14T07:04:23.000Z</time>
      </trkpt>
      <trkpt lat="45.03412" lon="5.49651">
        <ele>1315.5999755859</ele>
        <time>2024-07-14T07:04:24.000Z</time>
      </trkpt>
      <trkpt lat="45.03412" lon="5.49649">
        <ele>1315.8000488281</ele>
        <time>2024-07-14T07:04:25.000Z</time>
      </trkpt>
      <trkpt lat="45.03414" lon="5.49648">
        <ele>1316</ele>
        <time>2024-07-14T07:04:26.000Z</time>
      </trkpt>
      <trkpt lat="45.03415" lon="5.49646">
        <ele>1316.4000244141</ele>
        <time>2024-07-14T07:04:27.000Z</time>
      </trkpt>
      <trkpt lat="45.03415" lon="5.49645">
        <ele>1316.5999755859</ele>
        <time>2024-07-14T07:04:28.000Z</time>
      </trkpt>
      <trkpt lat="45.03415" lon="5.49645">
        <ele>1317</ele>
        <time>2024-07-14T07:04:29.000Z</time>
      </trkpt>
      <trkpt lat="45.03416" lon="5.49643">
        <ele>1317.4000244141</ele>
        <time>2024-07-14T07:04:30.000Z</time>
      </trkpt>
      <trkpt lat="45.03416" lon="5.49642">
        <ele>1317.5999755859</ele>
        <time>2024-07-14T07:04:31.000Z</time>
      </trkpt>
      <trkpt lat="45.03417" lon="5.49641">
        <ele>1317.8000488281</ele>
        <time>2024-07-14T07:04:32.000Z</time>
      </trkpt>
      <trkpt lat="45.03418" lon="5.4964">
        <ele>1318.1999511719</ele>
        <time>2024-07-14T07:04:33.000Z</time>
      </trkpt>
      <trkpt lat="45.03418" lon="5.4964">
        <ele>1318.4000244141</ele>
        <time>2024-07-14T07:04:34.000Z</time>
      </trkpt>
      <trkpt lat="45.03418" lon="5.49639">
        <ele>1318.5999755859</ele>
        <time>2024-07-14T07:04:35.000Z</time>
      </trkpt>
      <trkpt lat="45.03418" lon="5.49638">
        <ele>1319.1999511719</ele>
        <time>2024-07-14T07:04:36.000Z</time>
      </trkpt>
      <trkpt lat="45.03418" lon="5.49637">
        <ele>1319.4000244141</ele>
        <time>2024-07-14T07:04:37.000Z</time>
      </trkpt>
      <trkpt lat="45.03419" lon="5.49636">
        <ele>1319.5999755859</ele>
        <time>2024-07-14T07:04:38.000Z</time>
      </trkpt>
      <trkpt lat="45.03421" lon="5.49634">
        <ele>1320</ele>
        <time>2024-07-14T07:04:39.000Z</time>
      </trkpt>
      <trkpt lat="45.03422" lon="5.49632">
        <ele>1320.1999511719</ele>
        <time>2024-07-14T07:04:40.000Z</time>
      </trkpt>
      <trkpt lat="45.03422" lon="5.49632">
        <ele>1320.4000244141</ele>
        <time>2024-07-14T07:04:41.000Z</time>
      </trkpt>
      <trkpt lat="45.03423" lon="5.49631">
        <ele>1320.5999755859</ele>
        <time>2024-07-14T07:04:42.000Z</time>
      </trkpt>
      <trkpt lat="45.03424" lon="5.49631">
        <ele>1321</ele>
        <time>2024-07-14T07:04:43.000Z</time>
      </trkpt>
      <trkpt lat="45.03425" lon="5.49631">
        <ele>1321.4000244141</ele>
        <time>2024-07-14T07:04:44.000Z</time>
      </trkpt>
      <trkpt lat="45.03427" lon="5.4963">
        <ele>1321.5999755859</ele>
        <time>2024-07-14T07:04:45.000Z</time>
      </trkpt>
      <trkpt lat="45.03428" lon="5.4963">
        <ele>1322</ele>
        <time>2024-07-14T07:04:46.000Z</time>
      </trkpt>
      <trkpt lat="45.0343" lon="5.4963">
        <ele>1322</ele>
        <time>2024-07-14T07:04:47.000Z</time>
      </trkpt>
      <trkpt lat="45.03432" lon="5.49629">
        <ele>1322.1999511719</ele>
        <time>2024-07-14T07:04:48.000Z</time>
      </trkpt>
      <trkpt lat="45.03433" lon="5.49629">
        <ele>1322.4000244141</ele>
        <time>2024-07-14T07:04:49.000Z</time>
      </trkpt>
      <trkpt lat="45.03435" lon="5.49629">
        <ele>1322.5999755859</ele>
        <time>2024-07-14T07:04:50.000Z</time>
      </trkpt>
      <trkpt lat="45.03436" lon="5.49628">
        <ele>1322.8000488281</ele>
        <time>2024-07-14T07:04:51.000Z</time>
      </trkpt>
      <trkpt lat="45.03437" lon="5.49627">
        <ele>1323</ele>
        <time>2024-07-14T07:04:52.000Z</time>
      </trkpt>
      <trkpt lat="45.03439" lon="5.49626">
        <ele>1323.4000244141</ele>
        <time>2024-07-14T07:04:53.000Z</time>
      </trkpt>
      <trkpt lat="45.03441" lon="5.49626">
        <ele>1323.4000244141</ele>
        <time>2024-07-14T07:04:54.000Z</time>
      </trkpt>
      <trkpt lat="45.03442" lon="5.49625">
        <ele>1323.5999755859</ele>
        <time>2024-07-14T07:04:55.000Z</time>
      </trkpt>
      <trkpt lat="45.03442" lon="5.49625">
        <ele>1323.8000488281</ele>
        <time>2024-07-14T07:04:56.000Z</time>
      </trkpt>
      <trkpt lat="45.03443" lon="5.49624">
        <ele>1324</ele>
        <time>2024-07-14T07:04:57.000Z</time>
      </trkpt>
      <trkpt lat="45.03445" lon="5.49623">
        <ele>1324.4000244141</ele>
        <time>2024-07-14T07:04:58.000Z</time>
      </trkpt>
      <trkpt lat="45.03446" lon="5.49622">
        <ele>1324.4000244141</ele>
        <time>2024-07-14T07:04:59.000Z</time>
      </trkpt>
      <trkpt lat="45.03447" lon="5.49621">
        <ele>1324.5999755859</ele>
        <time>2024-07-14T07:05:00.000Z</time>
      </trkpt>
      <trkpt lat="45.03448" lon="5.49621">
        <ele>1324.8000488281</ele>
        <time>2024-07-14T07:05:01.000Z</time>
      </trkpt>
      <trkpt lat="45.03448" lon="5.4962">
        <ele>1325</ele>
        <time>2024-07-14T07:05:02.000Z</time>
      </trkpt>
      <trkpt lat="45.0345" lon="5.49618">
        <ele>1325.1999511719</ele>
        <time>2024-07-14T07:05:03.000Z</time>
      </trkpt>
      <trkpt lat="45.0345" lon="5.49618">
        <ele>1325.4000244141</ele>
        <time>2024-07-14T07:05:04.000Z</time>
      </trkpt>
      <trkpt lat="45.03451" lon="5.49616">
        <ele>1325.5999755859</ele>
        <time>2024-07-14T07:05:05.000Z</time>
      </trkpt>
      <trkpt lat="45.03452" lon="5.49615">
        <ele>1325.8000488281</ele>
        <time>2024-07-14T07:05:06.000Z</time>
      </trkpt>
      <trkpt lat="45.03453" lon="5.49614">
        <ele>1326</ele>
        <time>2024-07-14T07:05:07.000Z</time>
      </trkpt>
      <trkpt lat="45.03454" lon="5.49613">
        <ele>1326.4000244141</ele>
        <time>2024-07-14T07:05:08.000Z</time>
      </trkpt>
      <trkpt lat="45.03455" lon="5.49613">
        <ele>1326.5999755859</ele>
        <time>2024-07-14T07:05:09.000Z</time>
      </trkpt>
      <trkpt lat="45.03457" lon="5.49612">
        <ele>1326.8000488281</ele>
        <time>2024-07-14T07:05:10.000Z</time>
      </trkpt>
      <trkpt lat="45.03458" lon="5.49611">
        <ele>1327</ele>
        <time>2024-07-14T07:05:11.000Z</time>
      </trkpt>
      <trkpt lat="45.0346" lon="5.49609">
        <ele>1327.4000244141</ele>
        <time>2024-07-14T07:05:12.000Z</time>
      </trkpt>
      <trkpt lat="45.03461" lon="5.49608">
        <ele>1327.8000488281</ele>
        <time>2024-07-14T07:05:13.000Z</time>
      </trkpt>
      <trkpt lat="45.03462" lon="5.49608">
        <ele>1327.8000488281</ele>
        <time>2024-07-14T07:05:14.000Z</time>
      </trkpt>
      <trkpt lat="45.03463" lon="5.49607">
        <ele>1328</ele>
        <time>2024-07-14T07:05:15.000Z</time>
      </trkpt>
      <trkpt lat="45.03464" lon="5.49607">
        <ele>1328.4000244141</ele>
        <time>2024-07-14T07:05:16.000Z</time>
      </trkpt>
      <trkpt lat="45.03465" lon="5.49606">
        <ele>1328.4000244141</ele>
        <time>2024-07-14T07:05:17.000Z</time>
      </trkpt>
      <trkpt lat="45.03465" lon="5.49605">
        <ele>1328.5999755859</ele>
        <time>2024-07-14T07:05:18.000Z</time>
      </trkpt>
      <trkpt lat="45.03466" lon="5.49604">
        <ele>1328.8000488281</ele>
        <time>2024-07-14T07:05:19.000Z</time>
      </trkpt>
      <trkpt lat="45.03467" lon="5.49604">
        <ele>1329</ele>
        <time>2024-07-14T07:05:20.000Z</time>
      </trkpt>
      <trkpt lat="45.03468" lon="5.49603">
        <ele>1329.1999511719</ele>
        <time>2024-07-14T07:05:21.000Z</time>
      </trkpt>
      <trkpt lat="45.03469" lon="5.49601">
        <ele>1329.5999755859</ele>
        <time>2024-07-14T07:05:22.000Z</time>
      </trkpt>
      <trkpt lat="45.03472" lon="5.496">
        <ele>1329.8000488281</ele>
        <time>2024-07-14T07:05:23.000Z</time>
      </trkpt>
      <trkpt lat="45.03473" lon="5.49599">
        <ele>1330</ele>
        <time>2024-07-14T07:05:24.000Z</time>
      </trkpt>
      <trkpt lat="45.03475" lon="5.49598">
        <ele>1330.1999511719</ele>
        <time>2024-07-14T07:05:25.000Z</time>
      </trkpt>
      <trkpt lat="45.03476" lon="5.49597">
        <ele>1330.4000244141</ele>
        <time>2024-07-14T07:05:26.000Z</time>
      </trkpt>
      <trkpt lat="45.03478" lon="5.49596">
        <ele>1330.5999755859</ele>
        <time>2024-07-14T07:05:27.000Z</time>
      </trkpt>
      <trkpt lat="45.0348" lon="5.49596">
        <ele>1331</ele>
        <time>2024-07-14T07:05:28.000Z</time>
      </trkpt>
      <trkpt lat="45.03482" lon="5.49596">
        <ele>1331.1999511719</ele>
        <time>2024-07-14T07:05:29.000Z</time>
      </trkpt>
      <trkpt lat="45.03483" lon="5.49596">
        <ele>1331.4000244141</ele>
        <time>2024-07-14T07:05:30.000Z</time>
      </trkpt>
      <trkpt lat="45.03484" lon="5.49595">
        <ele>1331.5999755859</ele>
        <time>2024-07-14T07:05:31.000Z</time>
      </trkpt>
      <trkpt lat="45.03485" lon="5.49595">
        <ele>1331.8000488281</ele>
        <time>2024-07-14T07:05:32.000Z</time>
      </trkpt>
      <trkpt lat="45.03486" lon="5.49595">
        <ele>1332</ele>
        <time>2024-07-14T07:05:33.000Z</time>
      </trkpt>
      <trkpt lat="45.03487" lon="5.49595">
        <ele>1332</ele>
        <time>2024-07-14T07:05:34.000Z</time>
      </trkpt>
      <trkpt lat="45.03488" lon="5.49593">
        <ele>1332.1999511719</ele>
        <time>2024-07-14T07:05:35.000Z</time>
      </trkpt>
      <trkpt lat="45.03488" lon="5.49592">
        <ele>1332.4000244141</ele>
        <time>2024-07-14T07:05:36.000Z</time>
      </trkpt>
      <trkpt lat="45.03488" lon="5.49591">
        <ele>1332.5999755859</ele>
        <time>2024-07-14T07:05:37.000Z</time>
      </trkpt>
      <trkpt lat="45.03488" lon="5.49589">
        <ele>1332.8000488281</ele>
        <time>2024-07-14T07:05:38.000Z</time>
      </trkpt>
      <trkpt lat="45.03487" lon="5.49587">
        <ele>1333.1999511719</ele>
        <time>2024-07-14T07:05:39.000Z</time>
      </trkpt>
      <trkpt lat="45.03486" lon="5.49586">
        <ele>1333.5999755859</ele>
        <time>2024-07-14T07:05:40.000Z</time>
      </trkpt>
      <trkpt lat="45.03485" lon="5.49585">
        <ele>1334.1999511719</ele>
        <time>2024-07-14T07:05:41.000Z</time>
      </trkpt>
      <trkpt lat="45.03484" lon="5.49585">
        <ele>1334.4000244141</ele>
        <time>2024-07-14T07:05:42.000Z</time>
      </trkpt>
      <trkpt lat="45.03483" lon="5.49584">
        <ele>1334.8000488281</ele>
        <time>2024-07-14T07:05:43.000Z</time>
      </trkpt>
      <trkpt lat="45.03482" lon="5.49582">
        <ele>1335.1999511719</ele>
        <time>2024-07-14T07:05:44.000Z</time>
      </trkpt>
      <trkpt lat="45.03481" lon="5.49581">
        <ele>1335.5999755859</ele>
        <time>2024-07-14T07:05:45.000Z</time>
      </trkpt>
      <trkpt lat="45.0348" lon="5.4958">
        <ele>1335.8000488281</ele>
        <time>2024-07-14T07:05:46.000Z</time>
      </trkpt>
      <trkpt lat="45.03479" lon="5.49579">
        <ele>1336</ele>
        <time>2024-07-14T07:05:47.000Z</time>
      </trkpt>
      <trkpt lat="45.03478" lon="5.49578">
        <ele>1336.1999511719</ele>
        <time>2024-07-14T07:05:48.000Z</time>
      </trkpt>
      <trkpt lat="45.03477" lon="5.49577">
        <ele>1336.4000244141</ele>
        <time>2024-07-14T07:05:49.000Z</time>
      </trkpt>
      <trkpt lat="45.03476" lon="5.49577">
        <ele>1336.5999755859</ele>
        <time>2024-07-14T07:05:50.000Z</time>
      </trkpt>
      <trkpt lat="45.03475" lon="5.49576">
        <ele>1337.1999511719</ele>
        <time>2024-07-14T07:05:51.000Z</time>
      </trkpt>
      <trkpt lat="45.03475" lon="5.49575">
        <ele>1337.4000244141</ele>
        <time>2024-07-14T07:05:52.000Z</time>
      </trkpt>
      <trkpt lat="45.03474" lon="5.49574">
        <ele>1337.5999755859</ele>
        <time>2024-07-14T07:05:53.000Z</time>
      </trkpt>
      <trkpt lat="45.03474" lon="5.49573">
        <ele>1338</ele>
        <time>2024-07-14T07:05:54.000Z</time>
      </trkpt>
      <trkpt lat="45.03473" lon="5.49571">
        <ele>1338.1999511719</ele>
        <time>2024-07-14T07:05:55.000Z</time>
      </trkpt>
      <trkpt lat="45.03472" lon="5.49571">
        <ele>1338.5999755859</ele>
        <time>2024-07-14T07:05:56.000Z</time>
      </trkpt>
      <trkpt lat="45.03471" lon="5.4957">
        <ele>1338.8000488281</ele>
        <time>2024-07-14T07:05:57.000Z</time>
      </trkpt>
      <trkpt lat="45.0347" lon="5.4957">
        <ele>1339.1999511719</ele>
        <time>2024-07-14T07:05:58.000Z</time>
      </trkpt>
      <trkpt lat="45.03469" lon="5.49569">
        <ele>1339.4000244141</ele>
        <time>2024-07-14T07:05:59.000Z</time>
      </trkpt>
      <trkpt lat="45.03468" lon="5.49569">
        <ele>1339.5999755859</ele>
        <time>2024-07-14T07:06:00.000Z</time>
      </trkpt>
      <trkpt lat="45.03467" lon="5.49568">
        <ele>1340</ele>
        <time>2024-07-14T07:06:01.000Z</time>
      </trkpt>
      <trkpt lat="45.03466" lon="5.49567">
        <ele>1340.1999511719</ele>
        <time>2024-07-14T07:06:02.000Z</time>
      </trkpt>
      <trkpt lat="45.03466" lon="5.49566">
        <ele>1340.4000244141</ele>
        <time>2024-07-14T07:06:03.000Z</time>
      </trkpt>
      <trkpt lat="45.03465" lon="5.49565">
        <ele>1340.5999755859</ele>
        <time>2024-07-14T07:06:04.000Z</time>
      </trkpt>
      <trkpt lat="45.03464" lon="5.49563">
        <ele>1340.8000488281</ele>
        <time>2024-07-14T07:06:05.000Z</time>
      </trkpt>
      <trkpt lat="45.03463" lon="5.49562">
        <ele>1341.1999511719</ele>
        <time>2024-07-14T07:06:06.000Z</time>
      </trkpt>
      <trkpt lat="45.03463" lon="5.4956">
        <ele>1341.5999755859</ele>
        <time>2024-07-14T07:06:07.000Z</time>
      </trkpt>
      <trkpt lat="45.03464" lon="5.49558">
        <ele>1342</ele>
        <time>2024-07-14T07:06:08.000Z</time>
      </trkpt>
      <trkpt lat="45.03465" lon="5.49556">
        <ele>1342.4000244141</ele>
        <time>2024-07-14T07:06:09.000Z</time>
      </trkpt>
      <trkpt lat="45.03466" lon="5.49554">
        <ele>1342.5999755859</ele>
        <time>2024-07-14T07:06:10.000Z</time>
      </trkpt>
      <trkpt lat="45.03467" lon="5.49552">
        <ele>1342.8000488281</ele>
        <time>2024-07-14T07:06:11.000Z</time>
      </trkpt>
      <trkpt lat="45.03468" lon="5.49552">
        <ele>1343</ele>
        <time>2024-07-14T07:06:12.000Z</time>
      </trkpt>
      <trkpt lat="45.03469" lon="5.49551">
        <ele>1343.1999511719</ele>
        <time>2024-07-14T07:06:13.000Z</time>
      </trkpt>
      <trkpt lat="45.0347" lon="5.4955">
        <ele>1343.5999755859</ele>
        <time>2024-07-14T07:06:14.000Z</time>
      </trkpt>
      <trkpt lat="45.0347" lon="5.49549">
        <ele>1344</ele>
        <time>2024-07-14T07:06:15.000Z</time>
      </trkpt>
      <trkpt lat="45.0347" lon="5.49549">
        <ele>1344.1999511719</ele>
        <time>2024-07-14T07:06:16.000Z</time>
      </trkpt>
      <trkpt lat="45.03471" lon="5.49548">
        <ele>1344.1999511719</ele>
        <time>2024-07-14T07:06:17.000Z</time>
      </trkpt>
      <trkpt lat="45.03471" lon="5.49547">
        <ele>1344.5999755859</ele>
        <time>2024-07-14T07:06:18.000Z</time>
      </trkpt>
      <trkpt lat="45.03472" lon="5.49546">
        <ele>1344.8000488281</ele>
        <time>2024-07-14T07:06:19.000Z</time>
      </trkpt>
      <trkpt lat="45.03472" lon="5.49544">
        <ele>1345</ele>
        <time>2024-07-14T07:06:20.000Z</time>
      </trkpt>
      <trkpt lat="45.03473" lon="5.49542">
        <ele>1345.1999511719</ele>
        <time>2024-07-14T07:06:21.000Z</time>
      </trkpt>
      <trkpt lat="45.03474" lon="5.49541">
        <ele>1345.5999755859</ele>
        <time>2024-07-14T07:06:22.000Z</time>
      </trkpt>
      <trkpt lat="45.03474" lon="5.49539">
        <ele>1345.8000488281</ele>
        <time>2024-07-14T07:06:23.000Z</time>
      </trkpt>
      <trkpt lat="45.03475" lon="5.49538">
        <ele>1346.1999511719</ele>
        <time>2024-07-14T07:06:24.000Z</time>
      </trkpt>
      <trkpt lat="45.03475" lon="5.49536">
        <ele>1346.4000244141</ele>
        <time>2024-07-14T07:06:25.000Z</time>
      </trkpt>
      <trkpt lat="45.03475" lon="5.49536">
        <ele>1346.8000488281</ele>
        <time>2024-07-14T07:06:26.000Z</time>
      </trkpt>
      <trkpt lat="45.03476" lon="5.49536">
        <ele>1347.1999511719</ele>
        <time>2024-07-14T07:06:27.000Z</time>
      </trkpt>
      <trkpt lat="45.03477" lon="5.49535">
        <ele>1347.4000244141</ele>
        <time>2024-07-14T07:06:28.000Z</time>
      </trkpt>
      <trkpt lat="45.03478" lon="5.49535">
        <ele>1347.8000488281</ele>
        <time>2024-07-14T07:06:29.000Z</time>
      </trkpt>
      <trkpt lat="45.03479" lon="5.49535">
        <ele>1348.1999511719</ele>
        <time>2024-07-14T07:06:30.000Z</time>
      </trkpt>
      <trkpt lat="45.03481" lon="5.49535">
        <ele>1348.4000244141</ele>
        <time>2024-07-14T07:06:31.000Z</time>
      </trkpt>
      <trkpt lat="45.03482" lon="5.49535">
        <ele>1348.5999755859</ele>
        <time>2024-07-14T07:06:32.000Z</time>
      </trkpt>
      <trkpt lat="45.03482" lon="5.49535">
        <ele>1349</ele>
        <time>2024-07-14T07:06:33.000Z</time>
      </trkpt>
      <trkpt lat="45.03483" lon="5.49535">
        <ele>1349.4000244141</ele>
        <time>2024-07-14T07:06:34.000Z</time>
      </trkpt>
      <trkpt lat="45.03484" lon="5.49535">
        <ele>1349.5999755859</ele>
        <time>2024-07-14T07:06:35.000Z</time>
      </trkpt>
      <trkpt lat="45.03485" lon="5.49535">
        <ele>1350</ele>
        <time>2024-07-14T07:06:36.000Z</time>
      </trkpt>
      <trkpt lat="45.03486" lon="5.49535">
        <ele>1350.1999511719</ele>
        <time>2024-07-14T07:06:37.000Z</time>
      </trkpt>
      <trkpt lat="45.03487" lon="5.49534">
        <ele>1350.4000244141</ele>
        <time>2024-07-14T07:06:38.000Z</time>
      </trkpt>
      <trkpt lat="45.03488" lon="5.49534">
        <ele>1350.5999755859</ele>
        <time>2024-07-14T07:06:39.000Z</time>
      </trkpt>
      <trkpt lat="45.03489" lon="5.49534">
        <ele>1351</ele>
        <time>2024-07-14T07:06:40.000Z</time>
      </trkpt>
      <trkpt lat="45.03491" lon="5.49533">
        <ele>1351.4000244141</ele>
        <time>2024-07-14T07:06:41.000Z</time>
      </trkpt>
      <trkpt lat="45.03492" lon="5.49532">
        <ele>1351.5999755859</ele>
        <time>2024-07-14T07:06:42.000Z</time>
      </trkpt>
      <trkpt lat="45.03493" lon="5.49531">
        <ele>1352</ele>
        <time>2024-07-14T07:06:43.000Z</time>
      </trkpt>
      <trkpt lat="45.03494" lon="5.4953">
        <ele>1352.1999511719</ele>
        <time>2024-07-14T07:06:44.000Z</time>
      </trkpt>
      <trkpt lat="45.03494" lon="5.49529">
        <ele>1352.4000244141</ele>
        <time>2024-07-14T07:06:45.000Z</time>
      </trkpt>
      <trkpt lat="45.03495" lon="5.49529">
        <ele>1352.8000488281</ele>
        <time>2024-07-14T07:06:46.000Z</time>
      </trkpt>
      <trkpt lat="45.03496" lon="5.49528">
        <ele>1353</ele>
        <time>2024-07-14T07:06:47.000Z</time>
      </trkpt>
      <trkpt lat="45.03497" lon="5.49528">
        <ele>1353.4000244141</ele>
        <time>2024-07-14T07:06:48.000Z</time>
      </trkpt>
      <trkpt lat="45.03498" lon="5.49528">
        <ele>1353.5999755859</ele>
        <time>2024-07-14T07:06:49.000Z</time>
      </trkpt>
      <trkpt lat="45.035" lon="5.49527">
        <ele>1354</ele>
        <time>2024-07-14T07:06:50.000Z</time>
      </trkpt>
      <trkpt lat="45.035" lon="5.49527">
        <ele>1354.4000244141</ele>
        <time>2024-07-14T07:06:51.000Z</time>
      </trkpt>
      <trkpt lat="45.03502" lon="5.49526">
        <ele>1354.5999755859</ele>
        <time>2024-07-14T07:06:52.000Z</time>
      </trkpt>
      <trkpt lat="45.03503" lon="5.49526">
        <ele>1355</ele>
        <time>2024-07-14T07:06:53.000Z</time>
      </trkpt>
      <trkpt lat="45.03504" lon="5.49525">
        <ele>1355.4000244141</ele>
        <time>2024-07-14T07:06:54.000Z</time>
      </trkpt>
      <trkpt lat="45.03504" lon="5.49525">
        <ele>1355.5999755859</ele>
        <time>2024-07-14T07:06:55.000Z</time>
      </trkpt>
      <trkpt lat="45.03505" lon="5.49525">
        <ele>1356</ele>
        <time>2024-07-14T07:06:56.000Z</time>
      </trkpt>
      <trkpt lat="45.03506" lon="5.49524">
        <ele>1356.1999511719</ele>
        <time>2024-07-14T07:06:57.000Z</time>
      </trkpt>
      <trkpt lat="45.03507" lon="5.49523">
        <ele>1356.4000244141</ele>
        <time>2024-07-14T07:06:58.000Z</time>
      </trkpt>
      <trkpt lat="45.03509" lon="5.49522">
        <ele>1356.8000488281</ele>
        <time>2024-07-14T07:06:59.000Z</time>
      </trkpt>
      <trkpt lat="45.0351" lon="5.49521">
        <ele>1357</ele>
        <time>2024-07-14T07:07:00.000Z</time>
      </trkpt>
      <trkpt lat="45.03511" lon="5.49521">
        <ele>1357.1999511719</ele>
        <time>2024-07-14T07:07:01.000Z</time>
      </trkpt>
      <trkpt lat="45.03513" lon="5.4952">
        <ele>1357.1999511719</ele>
        <time>2024-07-14T07:07:02.000Z</time>
      </trkpt>
      <trkpt lat="45.03514" lon="5.4952">
        <ele>1357.1999511719</ele>
        <time>2024-07-14T07:07:03.000Z</time>
      </trkpt>
      <trkpt lat="45.03516" lon="5.49519">
        <ele>1357.1999511719</ele>
        <time>2024-07-14T07:07:04.000Z</time>
      </trkpt>
      <trkpt lat="45.03518" lon="5.49519">
        <ele>1357.1999511719</ele>
        <time>2024-07-14T07:07:05.000Z</time>
      </trkpt>
      <trkpt lat="45.03518" lon="5.49519">
        <ele>1357.4000244141</ele>
        <time>2024-07-14T07:07:06.000Z</time>
      </trkpt>
      <trkpt lat="45.0352" lon="5.49518">
        <ele>1357.5999755859</ele>
        <time>2024-07-14T07:07:07.000Z</time>
      </trkpt>
      <trkpt lat="45.03521" lon="5.49518">
        <ele>1357.8000488281</ele>
        <time>2024-07-14T07:07:08.000Z</time>
      </trkpt>
      <trkpt lat="45.03522" lon="5.49518">
        <ele>1358</ele>
        <time>2024-07-14T07:07:09.000Z</time>
      </trkpt>
      <trkpt lat="45.03524" lon="5.49517">
        <ele>1358.1999511719</ele>
        <time>2024-07-14T07:07:10.000Z</time>
      </trkpt>
      <trkpt lat="45.03525" lon="5.49517">
        <ele>1358.5999755859</ele>
        <time>2024-07-14T07:07:11.000Z</time>
      </trkpt>
      <trkpt lat="45.03526" lon="5.49516">
        <ele>1358.8000488281</ele>
        <time>2024-07-14T07:07:12.000Z</time>
      </trkpt>
      <trkpt lat="45.03528" lon="5.49515">
        <ele>1359</ele>
        <time>2024-07-14T07:07:13.000Z</time>
      </trkpt>
      <trkpt lat="45.03528" lon="5.49515">
        <ele>1359.4000244141</ele>
        <time>2024-07-14T07:07:14.000Z</time>
      </trkpt>
      <trkpt lat="45.03529" lon="5.49514">
        <ele>1359.5999755859</ele>
        <time>2024-07-14T07:07:15.000Z</time>
      </trkpt>
      <trkpt lat="45.0353" lon="5.49513">
        <ele>1360</ele>
        <time>2024-07-14T07:07:16.000Z</time>
      </trkpt>
      <trkpt lat="45.03532" lon="5.49512">
        <ele>1360.1999511719</ele>
        <time>2024-07-14T07:07:17.000Z</time>
      </trkpt>
      <trkpt lat="45.03533" lon="5.49511">
        <ele>1360.1999511719</ele>
        <time>2024-07-14T07:07:18.000Z</time>
      </trkpt>
      <trkpt lat="45.03535" lon="5.4951">
        <ele>1360.4000244141</ele>
        <time>2024-07-14T07:07:19.000Z</time>
      </trkpt>
      <trkpt lat="45.03537" lon="5.49509">
        <ele>1360.4000244141</ele>
        <time>2024-07-14T07:07:20.000Z</time>
      </trkpt>
      <trkpt lat="45.03538" lon="5.49508">
        <ele>1360.4000244141</ele>
        <time>2024-07-14T07:07:21.000Z</time>
      </trkpt>
      <trkpt lat="45.0354" lon="5.49508">
        <ele>1360.5999755859</ele>
        <time>2024-07-14T07:07:22.000Z</time>
      </trkpt>
      <trkpt lat="45.03542" lon="5.49507">
        <ele>1360.5999755859</ele>
        <time>2024-07-14T07:07:23.000Z</time>
      </trkpt>
      <trkpt lat="45.03544" lon="5.49507">
        <ele>1360.5999755859</ele>
        <time>2024-07-14T07:07:24.000Z</time>
      </trkpt>
      <trkpt lat="45.03546" lon="5.49507">
        <ele>1360.8000488281</ele>
        <time>2024-07-14T07:07:25.000Z</time>
      </trkpt>
      <trkpt lat="45.03547" lon="5.49506">
        <ele>1361</ele>
        <time>2024-07-14T07:07:26.000Z</time>
      </trkpt>
      <trkpt lat="45.03548" lon="5.49505">
        <ele>1361.1999511719</ele>
        <time>2024-07-14T07:07:27.000Z</time>
      </trkpt>
      <trkpt lat="45.03549" lon="5.49505">
        <ele>1361.4000244141</ele>
        <time>2024-07-14T07:07:28.000Z</time>
      </trkpt>
      <trkpt lat="45.03551" lon="5.49504">
        <ele>1361.4000244141</ele>
        <time>2024-07-14T07:07:29.000Z</time>
      </trkpt>
      <trkpt lat="45.03552" lon="5.49503">
        <ele>1361.8000488281</ele>
        <time>2024-07-14T07:07:30.000Z</time>
      </trkpt>
      <trkpt lat="45.03553" lon="5.49503">
        <ele>1361.8000488281</ele>
        <time>2024-07-14T07:07:31.000Z</time>
      </trkpt>
      <trkpt lat="45.03555" lon="5.49502">
        <ele>1362</ele>
        <time>2024-07-14T07:07:32.000Z</time>
      </trkpt>
      <trkpt lat="45.03556" lon="5.49501">
        <ele>1362.4000244141</ele>
        <time>2024-07-14T07:07:33.000Z</time>
      </trkpt>
      <trkpt lat="45.03558" lon="5.49499">
        <ele>1362.5999755859</ele>
        <time>2024-07-14T07:07:34.000Z</time>
      </trkpt>
      <trkpt lat="45.0356" lon="5.49498">
        <ele>1362.8000488281</ele>
        <time>2024-07-14T07:07:35.000Z</time>
      </trkpt>
      <trkpt lat="45.03561" lon="5.49497">
        <ele>1363</ele>
        <time>2024-07-14T07:07:36.000Z</time>
      </trkpt>
      <trkpt lat="45.03563" lon="5.49496">
        <ele>1363.1999511719</ele>
        <time>2024-07-14T07:07:37.000Z</time>
      </trkpt>
      <trkpt lat="45.03565" lon="5.49495">
        <ele>1363.4000244141</ele>
        <time>2024-07-14T07:07:38.000Z</time>
      </trkpt>
      <trkpt lat="45.03566" lon="5.49494">
        <ele>1363.8000488281</ele>
        <time>2024-07-14T07:07:39.000Z</time>
      </trkpt>
      <trkpt lat="45.03568" lon="5.49493">
        <ele>1364</ele>
        <time>2024-07-14T07:07:40.000Z</time>
      </trkpt>
      <trkpt lat="45.03569" lon="5.49492">
        <ele>1364.1999511719</ele>
        <time>2024-07-14T07:07:41.000Z</time>
      </trkpt>
      <trkpt lat="45.03571" lon="5.49492">
        <ele>1364.5999755859</ele>
        <time>2024-07-14T07:07:42.000Z</time>
      </trkpt>
      <trkpt lat="45.03572" lon="5.4949">
        <ele>1365</ele>
        <time>2024-07-14T07:07:43.000Z</time>
      </trkpt>
      <trkpt lat="45.03573" lon="5.4949">
        <ele>1365.1999511719</ele>
        <time>2024-07-14T07:07:44.000Z</time>
      </trkpt>
      <trkpt lat="45.03574" lon="5.49488">
        <ele>1365.1999511719</ele>
        <time>2024-07-14T07:07:45.000Z</time>
      </trkpt>
      <trkpt lat="45.03576" lon="5.49487">
        <ele>1365.5999755859</ele>
        <time>2024-07-14T07:07:46.000Z</time>
      </trkpt>
      <trkpt lat="45.03577" lon="5.49486">
        <ele>1366</ele>
        <time>2024-07-14T07:07:47.000Z</time>
      </trkpt>
      <trkpt lat="45.03577" lon="5.49485">
        <ele>1366.1999511719</ele>
        <time>2024-07-14T07:07:48.000Z</time>
      </trkpt>
      <trkpt lat="45.03578" lon="5.49483">
        <ele>1366.5999755859</ele>
        <time>2024-07-14T07:07:49.000Z</time>
      </trkpt>
      <trkpt lat="45.03579" lon="5.49481">
        <ele>1366.8000488281</ele>
        <time>2024-07-14T07:07:50.000Z</time>
      </trkpt>
      <trkpt lat="45.0358" lon="5.4948">
        <ele>1367.1999511719</ele>
        <time>2024-07-14T07:07:51.000Z</time>
      </trkpt>
      <trkpt lat="45.0358" lon="5.49479">
        <ele>1367.4000244141</ele>
        <time>2024-07-14T07:07:52.000Z</time>
      </trkpt>
      <trkpt lat="45.0358" lon="5.49477">
        <ele>1367.5999755859</ele>
        <time>2024-07-14T07:07:53.000Z</time>
      </trkpt>
      <trkpt lat="45.03581" lon="5.49476">
        <ele>1368</ele>
        <time>2024-07-14T07:07:54.000Z</time>
      </trkpt>
      <trkpt lat="45.03583" lon="5.49474">
        <ele>1368.1999511719</ele>
        <time>2024-07-14T07:07:55.000Z</time>
      </trkpt>
      <trkpt lat="45.03584" lon="5.49473">
        <ele>1368.4000244141</ele>
        <time>2024-07-14T07:07:56.000Z</time>
      </trkpt>
      <trkpt lat="45.03586" lon="5.49471">
        <ele>1368.8000488281</ele>
        <time>2024-07-14T07:07:57.000Z</time>
      </trkpt>
      <trkpt lat="45.03588" lon="5.4947">
        <ele>1369.1999511719</ele>
        <time>2024-07-14T07:07:58.000Z</time>
      </trkpt>
      <trkpt lat="45.0359" lon="5.49469">
        <ele>1369.5999755859</ele>
        <time>2024-07-14T07:07:59.000Z</time>
      </trkpt>
      <trkpt lat="45.03591" lon="5.49468">
        <ele>1369.8000488281</ele>
        <time>2024-07-14T07:08:00.000Z</time>
      </trkpt>
      <trkpt lat="45.03592" lon="5.49468">
        <ele>1370.1999511719</ele>
        <time>2024-07-14T07:08:01.000Z</time>
      </trkpt>
      <trkpt lat="45.03594" lon="5.49467">
        <ele>1370.4000244141</ele>
        <time>2024-07-14T07:08:02.000Z</time>
      </trkpt>
      <trkpt lat="45.03595" lon="5.49465">
        <ele>1370.5999755859</ele>
        <time>2024-07-14T07:08:03.000Z</time>
      </trkpt>
      <trkpt lat="45.03597" lon="5.49464">
        <ele>1370.8000488281</ele>
        <time>2024-07-14T07:08:04.000Z</time>
      </trkpt>
      <trkpt lat="45.03598" lon="5.49462">
        <ele>1370.8000488281</ele>
        <time>2024-07-14T07:08:05.000Z</time>
      </trkpt>
      <trkpt lat="45.036" lon="5.4946">
        <ele>1371</ele>
        <time>2024-07-14T07:08:06.000Z</time>
      </trkpt>
      <trkpt lat="45.03601" lon="5.49458">
        <ele>1371</ele>
        <time>2024-07-14T07:08:07.000Z</time>
      </trkpt>
      <trkpt lat="45.03603" lon="5.49456">
        <ele>1371.1999511719</ele>
        <time>2024-07-14T07:08:08.000Z</time>
      </trkpt>
      <trkpt lat="45.03604" lon="5.49455">
        <ele>1371.4000244141</ele>
        <time>2024-07-14T07:08:09.000Z</time>
      </trkpt>
      <trkpt lat="45.03605" lon="5.49452">
        <ele>1371.4000244141</ele>
        <time>2024-07-14T07:08:10.000Z</time>
      </trkpt>
      <trkpt lat="45.03606" lon="5.49451">
        <ele>1371.5999755859</ele>
        <time>2024-07-14T07:08:11.000Z</time>
      </trkpt>
      <trkpt lat="45.03607" lon="5.49449">
        <ele>1371.5999755859</ele>
        <time>2024-07-14T07:08:12.000Z</time>
      </trkpt>
      <trkpt lat="45.03608" lon="5.49447">
        <ele>1371.8000488281</ele>
        <time>2024-07-14T07:08:13.000Z</time>
      </trkpt>
      <trkpt lat="45.03609" lon="5.49445">
        <ele>1372</ele>
        <time>2024-07-14T07:08:14.000Z</time>
      </trkpt>
      <trkpt lat="45.0361" lon="5.49444">
        <ele>1372.4000244141</ele>
        <time>2024-07-14T07:08:15.000Z</time>
      </trkpt>
      <trkpt lat="45.0361" lon="5.49442">
        <ele>1372.5999755859</ele>
        <time>2024-07-14T07:08:16.000Z</time>
      </trkpt>
      <trkpt lat="45.03611" lon="5.49441">
        <ele>1372.5999755859</ele>
        <time>2024-07-14T07:08:17.000Z</time>
      </trkpt>
      <trkpt lat="45.03612" lon="5.49439">
        <ele>1373</ele>
        <time>2024-07-14T07:08:18.000Z</time>
      </trkpt>
      <trkpt lat="45.03613" lon="5.49438">
        <ele>1373.1999511719</ele>
        <time>2024-07-14T07:08:19.000Z</time>
      </trkpt>
      <trkpt lat="45.03614" lon="5.49436">
        <ele>1373.4000244141</ele>
        <time>2024-07-14T07:08:20.000Z</time>
      </trkpt>
      <trkpt lat="45.03615" lon="5.49435">
        <ele>1373.5999755859</ele>
        <time>2024-07-14T07:08:21.000Z</time>
      </trkpt>
      <trkpt lat="45.03616" lon="5.49433">
        <ele>1373.8000488281</ele>
        <time>2024-07-14T07:08:22.000Z</time>
      </trkpt>
      <trkpt lat="45.03617" lon="5.49432">
        <ele>1374</ele>
        <time>2024-07-14T07:08:23.000Z</time>
      </trkpt>
      <trkpt lat="45.03618" lon="5.4943">
        <ele>1374.4000244141</ele>
        <time>2024-07-14T07:08:24.000Z</time>
      </trkpt>
      <trkpt lat="45.03619" lon="5.49429">
        <ele>1375</ele>
        <time>2024-07-14T07:08:25.000Z</time>
      </trkpt>
      <trkpt lat="45.0362" lon="5.49427">
        <ele>1375.1999511719</ele>
        <time>2024-07-14T07:08:26.000Z</time>
      </trkpt>
      <trkpt lat="45.03621" lon="5.49426">
        <ele>1375.4000244141</ele>
        <time>2024-07-14T07:08:27.000Z</time>
      </trkpt>
      <trkpt lat="45.03621" lon="5.49426">
        <ele>1375.8000488281</ele>
        <time>2024-07-14T07:08:28.000Z</time>
      </trkpt>
      <trkpt lat="45.03622" lon="5.49425">
        <ele>1376.4000244141</ele>
        <time>2024-07-14T07:08:29.000Z</time>
      </trkpt>
      <trkpt lat="45.03623" lon="5.49424">
        <ele>1376.5999755859</ele>
        <time>2024-07-14T07:08:30.000Z</time>
      </trkpt>
      <trkpt lat="45.03624" lon="5.49422">
        <ele>1377</ele>
        <time>2024-07-14T07:08:31.000Z</time>
      </trkpt>
      <trkpt lat="45.03625" lon="5.49421">
        <ele>1377.4000244141</ele>
        <time>2024-07-14T07:08:32.000Z</time>
      </trkpt>
      <trkpt lat="45.03625" lon="5.49421">
        <ele>1377.5999755859</ele>
        <time>2024-07-14T07:08:33.000Z</time>
      </trkpt>
      <trkpt lat="45.03626" lon="5.4942">
        <ele>1377.8000488281</ele>
        <time>2024-07-14T07:08:34.000Z</time>
      </trkpt>
      <trkpt lat="45.03627" lon="5.49419">
        <ele>1378.1999511719</ele>
        <time>2024-07-14T07:08:35.000Z</time>
      </trkpt>
      <trkpt lat="45.03628" lon="5.49418">
        <ele>1378.4000244141</ele>
        <time>2024-07-14T07:08:36.000Z</time>
      </trkpt>
      <trkpt lat="45.03629" lon="5.49417">
        <ele>1378.8000488281</ele>
        <time>2024-07-14T07:08:37.000Z</time>
      </trkpt>
      <trkpt lat="45.0363" lon="5.49416">
        <ele>1379</ele>
        <time>2024-07-14T07:08:38.000Z</time>
      </trkpt>
      <trkpt lat="45.03631" lon="5.49415">
        <ele>1379.4000244141</ele>
        <time>2024-07-14T07:08:39.000Z</time>
      </trkpt>
      <trkpt lat="45.03632" lon="5.49414">
        <ele>1379.8000488281</ele>
        <time>2024-07-14T07:08:40.000Z</time>
      </trkpt>
      <trkpt lat="45.03633" lon="5.49413">
        <ele>1380</ele>
        <time>2024-07-14T07:08:41.000Z</time>
      </trkpt>
      <trkpt lat="45.03634" lon="5.49413">
        <ele>1380.1999511719</ele>
        <time>2024-07-14T07:08:42.000Z</time>
      </trkpt>
      <trkpt lat="45.03636" lon="5.49412">
        <ele>1380.5999755859</ele>
        <time>2024-07-14T07:08:43.000Z</time>
      </trkpt>
      <trkpt lat="45.03637" lon="5.49411">
        <ele>1380.8000488281</ele>
        <time>2024-07-14T07:08:44.000Z</time>
      </trkpt>
      <trkpt lat="45.03638" lon="5.4941">
        <ele>1381</ele>
        <time>2024-07-14T07:08:45.000Z</time>
      </trkpt>
      <trkpt lat="45.03639" lon="5.4941">
        <ele>1381.4000244141</ele>
        <time>2024-07-14T07:08:46.000Z</time>
      </trkpt>
      <trkpt lat="45.0364" lon="5.49409">
        <ele>1381.5999755859</ele>
        <time>2024-07-14T07:08:47.000Z</time>
      </trkpt>
      <trkpt lat="45.03641" lon="5.49408">
        <ele>1382</ele>
        <time>2024-07-14T07:08:48.000Z</time>
      </trkpt>
      <trkpt lat="45.03641" lon="5.49408">
        <ele>1382.1999511719</ele>
        <time>2024-07-14T07:08:49.000Z</time>
      </trkpt>
      <trkpt lat="45.03642" lon="5.49408">
        <ele>1382.5999755859</ele>
        <time>2024-07-14T07:08:50.000Z</time>
      </trkpt>
      <trkpt lat="45.03643" lon="5.49408">
        <ele>1382.8000488281</ele>
        <time>2024-07-14T07:08:51.000Z</time>
      </trkpt>
      <trkpt lat="45.03645" lon="5.49408">
        <ele>1383</ele>
        <time>2024-07-14T07:08:52.000Z</time>
      </trkpt>
      <trkpt lat="45.03647" lon="5.49407">
        <ele>1383.1999511719</ele>
        <time>2024-07-14T07:08:53.000Z</time>
      </trkpt>
      <trkpt lat="45.03648" lon="5.49406">
        <ele>1383.5999755859</ele>
        <time>2024-07-14T07:08:54.000Z</time>
      </trkpt>
      <trkpt lat="45.0365" lon="5.49405">
        <ele>1383.8000488281</ele>
        <time>2024-07-14T07:08:55.000Z</time>
      </trkpt>
      <trkpt lat="45.03651" lon="5.49404">
        <ele>1384</ele>
        <time>2024-07-14T07:08:56.000Z</time>
      </trkpt>
      <trkpt lat="45.03653" lon="5.49403">
        <ele>1384.4000244141</ele>
        <time>2024-07-14T07:08:57.000Z</time>
      </trkpt>
      <trkpt lat="45.03654" lon="5.49402">
        <ele>1384.8000488281</ele>
        <time>2024-07-14T07:08:58.000Z</time>
      </trkpt>
      <trkpt lat="45.03655" lon="5.49401">
        <ele>1385</ele>
        <time>2024-07-14T07:08:59.000Z</time>
      </trkpt>
      <trkpt lat="45.03656" lon="5.49401">
        <ele>1385.1999511719</ele>
        <time>2024-07-14T07:09:00.000Z</time>
      </trkpt>
      <trkpt lat="45.03658" lon="5.49402">
        <ele>1385.4000244141</ele>
        <time>2024-07-14T07:09:01.000Z</time>
      </trkpt>
      <trkpt lat="45.03659" lon="5.49403">
        <ele>1385.5999755859</ele>
        <time>2024-07-14T07:09:02.000Z</time>
      </trkpt>
      <trkpt lat="45.03661" lon="5.49404">
        <ele>1385.8000488281</ele>
        <time>2024-07-14T07:09:03.000Z</time>
      </trkpt>
      <trkpt lat="45.03663" lon="5.49405">
        <ele>1385.8000488281</ele>
        <time>2024-07-14T07:09:04.000Z</time>
      </trkpt>
      <trkpt lat="45.03665" lon="5.49406">
        <ele>1385.8000488281</ele>
        <time>2024-07-14T07:09:05.000Z</time>
      </trkpt>
      <trkpt lat="45.03667" lon="5.49407">
        <ele>1385.8000488281</ele>
        <time>2024-07-14T07:09:06.000Z</time>
      </trkpt>
      <trkpt lat="45.03669" lon="5.49407">
        <ele>1385.8000488281</ele>
        <time>2024-07-14T07:09:07.000Z</time>
      </trkpt>
      <trkpt lat="45.03671" lon="5.49408">
        <ele>1385.8000488281</ele>
        <time>2024-07-14T07:09:08.000Z</time>
      </trkpt>
      <trkpt lat="45.03672" lon="5.49408">
        <ele>1385.8000488281</ele>
        <time>2024-07-14T07:09:09.000Z</time>
      </trkpt>
      <trkpt lat="45.03674" lon="5.49409">
        <ele>1385.8000488281</ele>
        <time>2024-07-14T07:09:10.000Z</time>
      </trkpt>
      <trkpt lat="45.03676" lon="5.49409">
        <ele>1386</ele>
        <time>2024-07-14T07:09:11.000Z</time>
      </trkpt>
      <trkpt lat="45.03677" lon="5.4941">
        <ele>1386.1999511719</ele>
        <time>2024-07-14T07:09:12.000Z</time>
      </trkpt>
      <trkpt lat="45.03678" lon="5.4941">
        <ele>1386.1999511719</ele>
        <time>2024-07-14T07:09:13.000Z</time>
      </trkpt>
      <trkpt lat="45.03679" lon="5.4941">
        <ele>1386.5999755859</ele>
        <time>2024-07-14T07:09:14.000Z</time>
      </trkpt>
      <trkpt lat="45.0368" lon="5.4941">
        <ele>1386.8000488281</ele>
        <time>2024-07-14T07:09:15.000Z</time>
      </trkpt>
      <trkpt lat="45.0368" lon="5.4941">
        <ele>1387</ele>
        <time>2024-07-14T07:09:16.000Z</time>
      </trkpt>
      <trkpt lat="45.03681" lon="5.49409">
        <ele>1387.1999511719</ele>
        <time>2024-07-14T07:09:17.000Z</time>
      </trkpt>
      <trkpt lat="45.03682" lon="5.49408">
        <ele>1387.1999511719</ele>
        <time>2024-07-14T07:09:18.000Z</time>
      </trkpt>
      <trkpt lat="45.03684" lon="5.49407">
        <ele>1387.4000244141</ele>
        <time>2024-07-14T07:09:19.000Z</time>
      </trkpt>
      <trkpt lat="45.03685" lon="5.49406">
        <ele>1387.8000488281</ele>
        <time>2024-07-14T07:09:20.000Z</time>
      </trkpt>
      <trkpt lat="45.03685" lon="5.49404">
        <ele>1388.1999511719</ele>
        <time>2024-07-14T07:09:21.000Z</time>
      </trkpt>
      <trkpt lat="45.03685" lon="5.49403">
        <ele>1388.5999755859</ele>
        <time>2024-07-14T07:09:22.000Z</time>
      </trkpt>
      <trkpt lat="45.03684" lon="5.49403">
        <ele>1388.8000488281</ele>
        <time>2024-07-14T07:09:23.000Z</time>
      </trkpt>
      <trkpt lat="45.03683" lon="5.49403">
        <ele>1389</ele>
        <time>2024-07-14T07:09:24.000Z</time>
      </trkpt>
      <trkpt lat="45.03681" lon="5.49402">
        <ele>1389.1999511719</ele>
        <time>2024-07-14T07:09:25.000Z</time>
      </trkpt>
      <trkpt lat="45.0368" lon="5.494">
        <ele>1389.4000244141</ele>
        <time>2024-07-14T07:09:26.000Z</time>
      </trkpt>
      <trkpt lat="45.03679" lon="5.49399">
        <ele>1389.5999755859</ele>
        <time>2024-07-14T07:09:27.000Z</time>
      </trkpt>
      <trkpt lat="45.03677" lon="5.49397">
        <ele>1389.5999755859</ele>
        <time>2024-07-14T07:09:28.000Z</time>
      </trkpt>
      <trkpt lat="45.03676" lon="5.49395">
        <ele>1390</ele>
        <time>2024-07-14T07:09:29.000Z</time>
      </trkpt>
      <trkpt lat="45.03674" lon="5.49394">
        <ele>1390.1999511719</ele>
        <time>2024-07-14T07:09:30.000Z</time>
      </trkpt>
      <trkpt lat="45.03673" lon="5.49392">
        <ele>1390.4000244141</ele>
        <time>2024-07-14T07:09:31.000Z</time>
      </trkpt>
      <trkpt lat="45.03671" lon="5.4939">
        <ele>1390.5999755859</ele>
        <time>2024-07-14T07:09:32.000Z</time>
      </trkpt>
      <trkpt lat="45.0367" lon="5.49388">
        <ele>1390.8000488281</ele>
        <time>2024-07-14T07:09:33.000Z</time>
      </trkpt>
      <trkpt lat="45.03669" lon="5.49386">
        <ele>1391</ele>
        <time>2024-07-14T07:09:34.000Z</time>
      </trkpt>
      <trkpt lat="45.03668" lon="5.49384">
        <ele>1391.1999511719</ele>
        <time>2024-07-14T07:09:35.000Z</time>
      </trkpt>
      <trkpt lat="45.03667" lon="5.49382">
        <ele>1391.4000244141</ele>
        <time>2024-07-14T07:09:36.000Z</time>
      </trkpt>
      <trkpt lat="45.03666" lon="5.4938">
        <ele>1391.4000244141</ele>
        <time>2024-07-14T07:09:37.000Z</time>
      </trkpt>
      <trkpt lat="45.03665" lon="5.49379">
        <ele>1391.5999755859</ele>
        <time>2024-07-14T07:09:38.000Z</time>
      </trkpt>
      <trkpt lat="45.03665" lon="5.49377">
        <ele>1391.8000488281</ele>
        <time>2024-07-14T07:09:39.000Z</time>
      </trkpt>
      <trkpt lat="45.03664" lon="5.49373">
        <ele>1391.8000488281</ele>
        <time>2024-07-14T07:09:40.000Z</time>
      </trkpt>
      <trkpt lat="45.03663" lon="5.49371">
        <ele>1392</ele>
        <time>2024-07-14T07:09:41.000Z</time>
      </trkpt>
      <trkpt lat="45.03663" lon="5.49368">
        <ele>1392.1999511719</ele>
        <time>2024-07-14T07:09:42.000Z</time>
      </trkpt>
      <trkpt lat="45.03663" lon="5.49365">
        <ele>1392.4000244141</ele>
        <time>2024-07-14T07:09:43.000Z</time>
      </trkpt>
      <trkpt lat="45.03664" lon="5.49362">
        <ele>1392.5999755859</ele>
        <time>2024-07-14T07:09:44.000Z</time>
      </trkpt>
      <trkpt lat="45.03664" lon="5.4936">
        <ele>1392.8000488281</ele>
        <time>2024-07-14T07:09:45.000Z</time>
      </trkpt>
      <trkpt lat="45.03665" lon="5.49357">
        <ele>1393</ele>
        <time>2024-07-14T07:09:46.000Z</time>
      </trkpt>
      <trkpt lat="45.03666" lon="5.49355">
        <ele>1393</ele>
        <time>2024-07-14T07:09:47.000Z</time>
      </trkpt>
      <trkpt lat="45.03667" lon="5.49352">
        <ele>1393.4000244141</ele>
        <time>2024-07-14T07:09:48.000Z</time>
      </trkpt>
      <trkpt lat="45.03667" lon="5.4935">
        <ele>1393.5999755859</ele>
        <time>2024-07-14T07:09:49.000Z</time>
      </trkpt>
      <trkpt lat="45.03668" lon="5.49347">
        <ele>1393.8000488281</ele>
        <time>2024-07-14T07:09:50.000Z</time>
      </trkpt>
      <trkpt lat="45.0367" lon="5.49345">
        <ele>1394</ele>
        <time>2024-07-14T07:09:51.000Z</time>
      </trkpt>
      <trkpt lat="45.03671" lon="5.49343">
        <ele>1394</ele>
        <time>2024-07-14T07:09:52.000Z</time>
      </trkpt>
      <trkpt lat="45.03672" lon="5.49341">
        <ele>1394.4000244141</ele>
        <time>2024-07-14T07:09:53.000Z</time>
      </trkpt>
      <trkpt lat="45.03674" lon="5.49339">
        <ele>1394.5999755859</ele>
        <time>2024-07-14T07:09:54.000Z</time>
      </trkpt>
      <trkpt lat="45.03675" lon="5.49338">
        <ele>1395</ele>
        <time>2024-07-14T07:09:55.000Z</time>
      </trkpt>
      <trkpt lat="45.03676" lon="5.49337">
        <ele>1395</ele>
        <time>2024-07-14T07:09:56.000Z</time>
      </trkpt>
      <trkpt lat="45.03678" lon="5.49336">
        <ele>1395.1999511719</ele>
        <time>2024-07-14T07:09:57.000Z</time>
      </trkpt>
      <trkpt lat="45.0368" lon="5.49335">
        <ele>1395.4000244141</ele>
        <time>2024-07-14T07:09:58.000Z</time>
      </trkpt>
      <trkpt lat="45.03682" lon="5.49334">
        <ele>1395.8000488281</ele>
        <time>2024-07-14T07:09:59.000Z</time>
      </trkpt>
      <trkpt lat="45.03684" lon="5.49333">
        <ele>1396</ele>
        <time>2024-07-14T07:10:00.000Z</time>
      </trkpt>
      <trkpt lat="45.03685" lon="5.49332">
        <ele>1396.1999511719</ele>
        <time>2024-07-14T07:10:01.000Z</time>
      </trkpt>
      <trkpt lat="45.03688" lon="5.49332">
        <ele>1396.4000244141</ele>
        <time>2024-07-14T07:10:02.000Z</time>
      </trkpt>
      <trkpt lat="45.0369" lon="5.49331">
        <ele>1396.8000488281</ele>
        <time>2024-07-14T07:10:03.000Z</time>
      </trkpt>
      <trkpt lat="45.03691" lon="5.49331">
        <ele>1397</ele>
        <time>2024-07-14T07:10:04.000Z</time>
      </trkpt>
      <trkpt lat="45.03693" lon="5.4933">
        <ele>1397.1999511719</ele>
        <time>2024-07-14T07:10:05.000Z</time>
      </trkpt>
      <trkpt lat="45.03695" lon="5.4933">
        <ele>1397.4000244141</ele>
        <time>2024-07-14T07:10:06.000Z</time>
      </trkpt>
      <trkpt lat="45.03697" lon="5.4933">
        <ele>1397.8000488281</ele>
        <time>2024-07-14T07:10:07.000Z</time>
      </trkpt>
      <trkpt lat="45.03698" lon="5.4933">
        <ele>1398</ele>
        <time>2024-07-14T07:10:08.000Z</time>
      </trkpt>
      <trkpt lat="45.037" lon="5.49329">
        <ele>1398</ele>
        <time>2024-07-14T07:10:09.000Z</time>
      </trkpt>
      <trkpt lat="45.03702" lon="5.49328">
        <ele>1398.4000244141</ele>
        <time>2024-07-14T07:10:10.000Z</time>
      </trkpt>
      <trkpt lat="45.03703" lon="5.49328">
        <ele>1398.5999755859</ele>
        <time>2024-07-14T07:10:11.000Z</time>
      </trkpt>
      <trkpt lat="45.03705" lon="5.49327">
        <ele>1398.8000488281</ele>
        <time>2024-07-14T07:10:12.000Z</time>
      </trkpt>
      <trkpt lat="45.03707" lon="5.49327">
        <ele>1399</ele>
        <time>2024-07-14T07:10:13.000Z</time>
      </trkpt>
      <trkpt lat="45.03708" lon="5.49326">
        <ele>1399.1999511719</ele>
        <time>2024-07-14T07:10:14.000Z</time>
      </trkpt>
      <trkpt lat="45.0371" lon="5.49326">
        <ele>1399.4000244141</ele>
        <time>2024-07-14T07:10:15.000Z</time>
      </trkpt>
      <trkpt lat="45.03712" lon="5.49325">
        <ele>1399.5999755859</ele>
        <time>2024-07-14T07:10:16.000Z</time>
      </trkpt>
      <trkpt lat="45.03713" lon="5.49325">
        <ele>1399.8000488281</ele>
        <time>2024-07-14T07:10:17.000Z</time>
      </trkpt>
      <trkpt lat="45.03715" lon="5.49325">
        <ele>1400.1999511719</ele>
        <time>2024-07-14T07:10:18.000Z</time>
      </trkpt>
      <trkpt lat="45.03717" lon="5.49324">
        <ele>1400.4000244141</ele>
        <time>2024-07-14T07:10:19.000Z</time>
      </trkpt>
      <trkpt lat="45.03718" lon="5.49324">
        <ele>1400.5999755859</ele>
        <time>2024-07-14T07:10:20.000Z</time>
      </trkpt>
      <trkpt lat="45.03719" lon="5.49323">
        <ele>1400.8000488281</ele>
        <time>2024-07-14T07:10:21.000Z</time>
      </trkpt>
      <trkpt lat="45.03721" lon="5.49323">
        <ele>1401</ele>
        <time>2024-07-14T07:10:22.000Z</time>
      </trkpt>
      <trkpt lat="45.03723" lon="5.49322">
        <ele>1401.1999511719</ele>
        <time>2024-07-14T07:10:23.000Z</time>
      </trkpt>
      <trkpt lat="45.03724" lon="5.49321">
        <ele>1401.1999511719</ele>
        <time>2024-07-14T07:10:24.000Z</time>
      </trkpt>
      <trkpt lat="45.03726" lon="5.4932">
        <ele>1401.4000244141</ele>
        <time>2024-07-14T07:10:25.000Z</time>
      </trkpt>
      <trkpt lat="45.03727" lon="5.49319">
        <ele>1401.5999755859</ele>
        <time>2024-07-14T07:10:26.000Z</time>
      </trkpt>
      <trkpt lat="45.03729" lon="5.49318">
        <ele>1401.8000488281</ele>
        <time>2024-07-14T07:10:27.000Z</time>
      </trkpt>
      <trkpt lat="45.0373" lon="5.49317">
        <ele>1401.8000488281</ele>
        <time>2024-07-14T07:10:28.000Z</time>
      </trkpt>
      <trkpt lat="45.03732" lon="5.49315">
        <ele>1402</ele>
        <time>2024-07-14T07:10:29.000Z</time>
      </trkpt>
      <trkpt lat="45.03733" lon="5.49314">
        <ele>1402.1999511719</ele>
        <time>2024-07-14T07:10:30.000Z</time>
      </trkpt>
      <trkpt lat="45.03734" lon="5.49313">
        <ele>1402.1999511719</ele>
        <time>2024-07-14T07:10:31.000Z</time>
      </trkpt>
      <trkpt lat="45.03735" lon="5.49311">
        <ele>1402.4000244141</ele>
        <time>2024-07-14T07:10:32.000Z</time>
      </trkpt>
      <trkpt lat="45.03737" lon="5.49309">
        <ele>1402.5999755859</ele>
        <time>2024-07-14T07:10:33.000Z</time>
      </trkpt>
      <trkpt lat="45.03738" lon="5.49307">
        <ele>1402.8000488281</ele>
        <time>2024-07-14T07:10:34.000Z</time>
      </trkpt>
      <trkpt lat="45.03739" lon="5.49306">
        <ele>1403</ele>
        <time>2024-07-14T07:10:35.000Z</time>
      </trkpt>
      <trkpt lat="45.0374" lon="5.49304">
        <ele>1403.4000244141</ele>
        <time>2024-07-14T07:10:36.000Z</time>
      </trkpt>
      <trkpt lat="45.03742" lon="5.49303">
        <ele>1403.8000488281</ele>
        <time>2024-07-14T07:10:37.000Z</time>
      </trkpt>
      <trkpt lat="45.03743" lon="5.49302">
        <ele>1404</ele>
        <time>2024-07-14T07:10:38.000Z</time>
      </trkpt>
      <trkpt lat="45.03744" lon="5.49301">
        <ele>1404.1999511719</ele>
        <time>2024-07-14T07:10:39.000Z</time>
      </trkpt>
      <trkpt lat="45.03746" lon="5.493">
        <ele>1404.1999511719</ele>
        <time>2024-07-14T07:10:40.000Z</time>
      </trkpt>
      <trkpt lat="45.03747" lon="5.49299">
        <ele>1404.4000244141</ele>
        <time>2024-07-14T07:10:41.000Z</time>
      </trkpt>
      <trkpt lat="45.03749" lon="5.49298">
        <ele>1404.5999755859</ele>
        <time>2024-07-14T07:10:42.000Z</time>
      </trkpt>
      <trkpt lat="45.0375" lon="5.49297">
        <ele>1404.8000488281</ele>
        <time>2024-07-14T07:10:43.000Z</time>
      </trkpt>
      <trkpt lat="45.03752" lon="5.49296">
        <ele>1405</ele>
        <time>2024-07-14T07:10:44.000Z</time>
      </trkpt>
      <trkpt lat="45.03753" lon="5.49295">
        <ele>1405.4000244141</ele>
        <time>2024-07-14T07:10:45.000Z</time>
      </trkpt>
      <trkpt lat="45.03754" lon="5.49293">
        <ele>1405.4000244141</ele>
        <time>2024-07-14T07:10:46.000Z</time>
      </trkpt>
      <trkpt lat="45.03756" lon="5.49292">
        <ele>1405.8000488281</ele>
        <time>2024-07-14T07:10:47.000Z</time>
      </trkpt>
      <trkpt lat="45.03758" lon="5.49291">
        <ele>1406</ele>
        <time>2024-07-14T07:10:48.000Z</time>
      </trkpt>
      <trkpt lat="45.0376" lon="5.4929">
        <ele>1406.1999511719</ele>
        <time>2024-07-14T07:10:49.000Z</time>
      </trkpt>
      <trkpt lat="45.03761" lon="5.49289">
        <ele>1406.4000244141</ele>
        <time>2024-07-14T07:10:50.000Z</time>
      </trkpt>
      <trkpt lat="45.03763" lon="5.49288">
        <ele>1406.5999755859</ele>
        <time>2024-07-14T07:10:51.000Z</time>
      </trkpt>
      <trkpt lat="45.03765" lon="5.49286">
        <ele>1406.8000488281</ele>
        <time>2024-07-14T07:10:52.000Z</time>
      </trkpt>
      <trkpt lat="45.03767" lon="5.49285">
        <ele>1407</ele>
        <time>2024-07-14T07:10:53.000Z</time>
      </trkpt>
      <trkpt lat="45.03768" lon="5.49284">
        <ele>1407.1999511719</ele>
        <time>2024-07-14T07:10:54.000Z</time>
      </trkpt>
      <trkpt lat="45.0377" lon="5.49282">
        <ele>1407.4000244141</ele>
        <time>2024-07-14T07:10:55.000Z</time>
      </trkpt>
      <trkpt lat="45.03771" lon="5.49281">
        <ele>1407.4000244141</ele>
        <time>2024-07-14T07:10:56.000Z</time>
      </trkpt>
      <trkpt lat="45.03772" lon="5.4928">
        <ele>1407.4000244141</ele>
        <time>2024-07-14T07:10:57.000Z</time>
      </trkpt>
      <trkpt lat="45.03774" lon="5.49278">
        <ele>1407.8000488281</ele>
        <time>2024-07-14T07:10:58.000Z</time>
      </trkpt>
      <trkpt lat="45.03776" lon="5.49276">
        <ele>1408</ele>
        <time>2024-07-14T07:10:59.000Z</time>
      </trkpt>
      <trkpt lat="45.03777" lon="5.49274">
        <ele>1408.1999511719</ele>
        <time>2024-07-14T07:11:00.000Z</time>
      </trkpt>
      <trkpt lat="45.03778" lon="5.49273">
        <ele>1408.5999755859</ele>
        <time>2024-07-14T07:11:01.000Z</time>
      </trkpt>
      <trkpt lat="45.0378" lon="5.49271">
        <ele>1408.5999755859</ele>
        <time>2024-07-14T07:11:02.000Z</time>
      </trkpt>
      <trkpt lat="45.03781" lon="5.49269">
        <ele>1408.8000488281</ele>
        <time>2024-07-14T07:11:03.000Z</time>
      </trkpt>
      <trkpt lat="45.03782" lon="5.49268">
        <ele>1409</ele>
        <time>2024-07-14T07:11:04.000Z</time>
      </trkpt>
      <trkpt lat="45.03783" lon="5.49266">
        <ele>1409.1999511719</ele>
        <time>2024-07-14T07:11:05.000Z</time>
      </trkpt>
      <trkpt lat="45.03784" lon="5.49264">
        <ele>1409.5999755859</ele>
        <time>2024-07-14T07:11:06.000Z</time>
      </trkpt>
      <trkpt lat="45.03785" lon="5.49262">
        <ele>1409.5999755859</ele>
        <time>2024-07-14T07:11:07.000Z</time>
      </trkpt>
      <trkpt lat="45.03786" lon="5.4926">
        <ele>1409.8000488281</ele>
        <time>2024-07-14T07:11:08.000Z</time>
      </trkpt>
      <trkpt lat="45.03787" lon="5.49257">
        <ele>1410</ele>
        <time>2024-07-14T07:11:09.000Z</time>
      </trkpt>
      <trkpt lat="45.03789" lon="5.49255">
        <ele>1410</ele>
        <time>2024-07-14T07:11:10.000Z</time>
      </trkpt>
      <trkpt lat="45.0379" lon="5.49254">
        <ele>1410.1999511719</ele>
        <time>2024-07-14T07:11:11.000Z</time>
      </trkpt>
      <trkpt lat="45.03791" lon="5.49252">
        <ele>1410.4000244141</ele>
        <time>2024-07-14T07:11:12.000Z</time>
      </trkpt>
      <trkpt lat="45.03793" lon="5.49249">
        <ele>1410.5999755859</ele>
        <time>2024-07-14T07:11:13.000Z</time>
      </trkpt>
      <trkpt lat="45.03794" lon="5.49247">
        <ele>1410.8000488281</ele>
        <time>2024-07-14T07:11:14.000Z</time>
      </trkpt>
      <trkpt lat="45.03795" lon="5.49245">
        <ele>1411</ele>
        <time>2024-07-14T07:11:15.000Z</time>
      </trkpt>
      <trkpt lat="45.03796" lon="5.49243">
        <ele>1411</ele>
        <time>2024-07-14T07:11:16.000Z</time>
      </trkpt>
      <trkpt lat="45.03797" lon="5.49241">
        <ele>1411.1999511719</ele>
        <time>2024-07-14T07:11:17.000Z</time>
      </trkpt>
      <trkpt lat="45.03798" lon="5.49239">
        <ele>1411.4000244141</ele>
        <time>2024-07-14T07:11:18.000Z</time>
      </trkpt>
      <trkpt lat="45.03799" lon="5.49237">
        <ele>1411.5999755859</ele>
        <time>2024-07-14T07:11:19.000Z</time>
      </trkpt>
      <trkpt lat="45.038" lon="5.49236">
        <ele>1412</ele>
        <time>2024-07-14T07:11:20.000Z</time>
      </trkpt>
      <trkpt lat="45.03801" lon="5.49233">
        <ele>1412.1999511719</ele>
        <time>2024-07-14T07:11:21.000Z</time>
      </trkpt>
      <trkpt lat="45.03802" lon="5.49231">
        <ele>1412.5999755859</ele>
        <time>2024-07-14T07:11:22.000Z</time>
      </trkpt>
      <trkpt lat="45.03803" lon="5.49229">
        <ele>1412.8000488281</ele>
        <time>2024-07-14T07:11:23.000Z</time>
      </trkpt>
      <trkpt lat="45.03804" lon="5.49227">
        <ele>1412.8000488281</ele>
        <time>2024-07-14T07:11:24.000Z</time>
      </trkpt>
      <trkpt lat="45.03805" lon="5.49225">
        <ele>1413.1999511719</ele>
        <time>2024-07-14T07:11:25.000Z</time>
      </trkpt>
      <trkpt lat="45.03806" lon="5.49223">
        <ele>1413.4000244141</ele>
        <time>2024-07-14T07:11:26.000Z</time>
      </trkpt>
      <trkpt lat="45.03808" lon="5.4922">
        <ele>1413.4000244141</ele>
        <time>2024-07-14T07:11:27.000Z</time>
      </trkpt>
      <trkpt lat="45.03809" lon="5.49218">
        <ele>1413.5999755859</ele>
        <time>2024-07-14T07:11:28.000Z</time>
      </trkpt>
      <trkpt lat="45.03811" lon="5.49215">
        <ele>1413.8000488281</ele>
        <time>2024-07-14T07:11:29.000Z</time>
      </trkpt>
      <trkpt lat="45.03812" lon="5.49214">
        <ele>1414</ele>
        <time>2024-07-14T07:11:30.000Z</time>
      </trkpt>
      <trkpt lat="45.03813" lon="5.49211">
        <ele>1414.1999511719</ele>
        <time>2024-07-14T07:11:31.000Z</time>
      </trkpt>
      <trkpt lat="45.03815" lon="5.49208">
        <ele>1414.4000244141</ele>
        <time>2024-07-14T07:11:32.000Z</time>
      </trkpt>
      <trkpt lat="45.03816" lon="5.49206">
        <ele>1414.5999755859</ele>
        <time>2024-07-14T07:11:33.000Z</time>
      </trkpt>
      <trkpt lat="45.03817" lon="5.49204">
        <ele>1414.5999755859</ele>
        <time>2024-07-14T07:11:34.000Z</time>
      </trkpt>
      <trkpt lat="45.03818" lon="5.49202">
        <ele>1414.8000488281</ele>
        <time>2024-07-14T07:11:35.000Z</time>
      </trkpt>
      <trkpt lat="45.03818" lon="5.492">
        <ele>1415</ele>
        <time>2024-07-14T07:11:36.000Z</time>
      </trkpt>
      <trkpt lat="45.03819" lon="5.49198">
        <ele>1415.1999511719</ele>
        <time>2024-07-14T07:11:37.000Z</time>
      </trkpt>
      <trkpt lat="45.03819" lon="5.49195">
        <ele>1415.1999511719</ele>
        <time>2024-07-14T07:11:38.000Z</time>
      </trkpt>
      <trkpt lat="45.03819" lon="5.49192">
        <ele>1415.4000244141</ele>
        <time>2024-07-14T07:11:39.000Z</time>
      </trkpt>
      <trkpt lat="45.03819" lon="5.49189">
        <ele>1415.4000244141</ele>
        <time>2024-07-14T07:11:40.000Z</time>
      </trkpt>
      <trkpt lat="45.03819" lon="5.49185">
        <ele>1415.4000244141</ele>
        <time>2024-07-14T07:11:41.000Z</time>
      </trkpt>
      <trkpt lat="45.03819" lon="5.49183">
        <ele>1415.1999511719</ele>
        <time>2024-07-14T07:11:42.000Z</time>
      </trkpt>
      <trkpt lat="45.03819" lon="5.4918">
        <ele>1415.1999511719</ele>
        <time>2024-07-14T07:11:43.000Z</time>
      </trkpt>
      <trkpt lat="45.03818" lon="5.49176">
        <ele>1415.1999511719</ele>
        <time>2024-07-14T07:11:44.000Z</time>
      </trkpt>
      <trkpt lat="45.03817" lon="5.49172">
        <ele>1415.1999511719</ele>
        <time>2024-07-14T07:11:45.000Z</time>
      </trkpt>
      <trkpt lat="45.03816" lon="5.4917">
        <ele>1414.8000488281</ele>
        <time>2024-07-14T07:11:46.000Z</time>
      </trkpt>
      <trkpt lat="45.03815" lon="5.49167">
        <ele>1414.8000488281</ele>
        <time>2024-07-14T07:11:47.000Z</time>
      </trkpt>
      <trkpt lat="45.03814" lon="5.49164">
        <ele>1414.5999755859</ele>
        <time>2024-07-14T07:11:48.000Z</time>
      </trkpt>
      <trkpt lat="45.03813" lon="5.49161">
        <ele>1414.4000244141</ele>
        <time>2024-07-14T07:11:49.000Z</time>
      </trkpt>
      <trkpt lat="45.03812" lon="5.49157">
        <ele>1414.1999511719</ele>
        <time>2024-07-14T07:11:50.000Z</time>
      </trkpt>
      <trkpt lat="45.03811" lon="5.49153">
        <ele>1414</ele>
        <time>2024-07-14T07:11:51.000Z</time>
      </trkpt>
      <trkpt lat="45.0381" lon="5.4915">
        <ele>1414</ele>
        <time>2024-07-14T07:11:52.000Z</time>
      </trkpt>
      <trkpt lat="45.03809" lon="5.49146">
        <ele>1413.8000488281</ele>
        <time>2024-07-14T07:11:53.000Z</time>
      </trkpt>
      <trkpt lat="45.03809" lon="5.49142">
        <ele>1413.8000488281</ele>
        <time>2024-07-14T07:11:54.000Z</time>
      </trkpt>
      <trkpt lat="45.03808" lon="5.49138">
        <ele>1413.4000244141</ele>
        <time>2024-07-14T07:11:55.000Z</time>
      </trkpt>
      <trkpt lat="45.03806" lon="5.49135">
        <ele>1413.4000244141</ele>
        <time>2024-07-14T07:11:56.000Z</time>
      </trkpt>
      <trkpt lat="45.03806" lon="5.49132">
        <ele>1413.1999511719</ele>
        <time>2024-07-14T07:11:57.000Z</time>
      </trkpt>
      <trkpt lat="45.03804" lon="5.49128">
        <ele>1413.1999511719</ele>
        <time>2024-07-14T07:11:58.000Z</time>
      </trkpt>
      <trkpt lat="45.03804" lon="5.49125">
        <ele>1413.1999511719</ele>
        <time>2024-07-14T07:11:59.000Z</time>
      </trkpt>
      <trkpt lat="45.03802" lon="5.49122">
        <ele>1413.1999511719</ele>
        <time>2024-07-14T07:12:00.000Z</time>
      </trkpt>
      <trkpt lat="45.03801" lon="5.49118">
        <ele>1413.1999511719</ele>
        <time>2024-07-14T07:12:01.000Z</time>
      </trkpt>
      <trkpt lat="45.038" lon="5.49115">
        <ele>1413.4000244141</ele>
        <time>2024-07-14T07:12:02.000Z</time>
      </trkpt>
      <trkpt lat="45.03799" lon="5.49112">
        <ele>1413.4000244141</ele>
        <time>2024-07-14T07:12:03.000Z</time>
      </trkpt>
      <trkpt lat="45.03797" lon="5.49109">
        <ele>1413.5999755859</ele>
        <time>2024-07-14T07:12:04.000Z</time>
      </trkpt>
      <trkpt lat="45.03796" lon="5.49106">
        <ele>1413.5999755859</ele>
        <time>2024-07-14T07:12:05.000Z</time>
      </trkpt>
      <trkpt lat="45.03795" lon="5.49104">
        <ele>1413.8000488281</ele>
        <time>2024-07-14T07:12:06.000Z</time>
      </trkpt>
      <trkpt lat="45.03793" lon="5.49102">
        <ele>1413.8000488281</ele>
        <time>2024-07-14T07:12:07.000Z</time>
      </trkpt>
      <trkpt lat="45.03791" lon="5.491">
        <ele>1413.8000488281</ele>
        <time>2024-07-14T07:12:08.000Z</time>
      </trkpt>
      <trkpt lat="45.03789" lon="5.49099">
        <ele>1414.1999511719</ele>
        <time>2024-07-14T07:12:09.000Z</time>
      </trkpt>
      <trkpt lat="45.03788" lon="5.49098">
        <ele>1414.1999511719</ele>
        <time>2024-07-14T07:12:10.000Z</time>
      </trkpt>
      <trkpt lat="45.03786" lon="5.49097">
        <ele>1414.4000244141</ele>
        <time>2024-07-14T07:12:11.000Z</time>
      </trkpt>
      <trkpt lat="45.03785" lon="5.49096">
        <ele>1414.5999755859</ele>
        <time>2024-07-14T07:12:12.000Z</time>
      </trkpt>
      <trkpt lat="45.03783" lon="5.49095">
        <ele>1414.8000488281</ele>
        <time>2024-07-14T07:12:13.000Z</time>
      </trkpt>
      <trkpt lat="45.03781" lon="5.49094">
        <ele>1415.1999511719</ele>
        <time>2024-07-14T07:12:14.000Z</time>
      </trkpt>
      <trkpt lat="45.0378" lon="5.49093">
        <ele>1415.1999511719</ele>
        <time>2024-07-14T07:12:15.000Z</time>
      </trkpt>
      <trkpt lat="45.03778" lon="5.49092">
        <ele>1415.5999755859</ele>
        <time>2024-07-14T07:12:16.000Z</time>
      </trkpt>
      <trkpt lat="45.03776" lon="5.49091">
        <ele>1415.8000488281</ele>
        <time>2024-07-14T07:12:17.000Z</time>
      </trkpt>
      <trkpt lat="45.03775" lon="5.4909">
        <ele>1416.1999511719</ele>
        <time>2024-07-14T07:12:18.000Z</time>
      </trkpt>
      <trkpt lat="45.03773" lon="5.49089">
        <ele>1416.4000244141</ele>
        <time>2024-07-14T07:12:19.000Z</time>
      </trkpt>
      <trkpt lat="45.03771" lon="5.49088">
        <ele>1416.5999755859</ele>
        <time>2024-07-14T07:12:20.000Z</time>
      </trkpt>
      <trkpt lat="45.03769" lon="5.49087">
        <ele>1417</ele>
        <time>2024-07-14T07:12:21.000Z</time>
      </trkpt>
      <trkpt lat="45.03768" lon="5.49086">
        <ele>1417.1999511719</ele>
        <time>2024-07-14T07:12:22.000Z</time>
      </trkpt>
      <trkpt lat="45.03766" lon="5.49086">
        <ele>1417.4000244141</ele>
        <time>2024-07-14T07:12:23.000Z</time>
      </trkpt>
      <trkpt lat="45.03764" lon="5.49084">
        <ele>1417.8000488281</ele>
        <time>2024-07-14T07:12:24.000Z</time>
      </trkpt>
      <trkpt lat="45.03763" lon="5.49083">
        <ele>1418</ele>
        <time>2024-07-14T07:12:25.000Z</time>
      </trkpt>
      <trkpt lat="45.03761" lon="5.49081">
        <ele>1418.1999511719</ele>
        <time>2024-07-14T07:12:26.000Z</time>
      </trkpt>
      <trkpt lat="45.03759" lon="5.49079">
        <ele>1418.4000244141</ele>
        <time>2024-07-14T07:12:27.000Z</time>
      </trkpt>
      <trkpt lat="45.03758" lon="5.49078">
        <ele>1418.8000488281</ele>
        <time>2024-07-14T07:12:28.000Z</time>
      </trkpt>
      <trkpt lat="45.03756" lon="5.49077">
        <ele>1419</ele>
        <time>2024-07-14T07:12:29.000Z</time>
      </trkpt>
      <trkpt lat="45.03755" lon="5.49075">
        <ele>1419.1999511719</ele>
        <time>2024-07-14T07:12:30.000Z</time>
      </trkpt>
      <trkpt lat="45.03753" lon="5.49074">
        <ele>1419.5999755859</ele>
        <time>2024-07-14T07:12:31.000Z</time>
      </trkpt>
      <trkpt lat="45.03752" lon="5.49073">
        <ele>1419.8000488281</ele>
        <time>2024-07-14T07:12:32.000Z</time>
      </trkpt>
      <trkpt lat="45.0375" lon="5.49071">
        <ele>1419.8000488281</ele>
        <time>2024-07-14T07:12:33.000Z</time>
      </trkpt>
      <trkpt lat="45.03748" lon="5.49068">
        <ele>1420</ele>
        <time>2024-07-14T07:12:34.000Z</time>
      </trkpt>
      <trkpt lat="45.03747" lon="5.49066">
        <ele>1420.1999511719</ele>
        <time>2024-07-14T07:12:35.000Z</time>
      </trkpt>
      <trkpt lat="45.03745" lon="5.49064">
        <ele>1420.4000244141</ele>
        <time>2024-07-14T07:12:36.000Z</time>
      </trkpt>
      <trkpt lat="45.03743" lon="5.49061">
        <ele>1420.5999755859</ele>
        <time>2024-07-14T07:12:37.000Z</time>
      </trkpt>
      <trkpt lat="45.03742" lon="5.49059">
        <ele>1420.8000488281</ele>
        <time>2024-07-14T07:12:38.000Z</time>
      </trkpt>
      <trkpt lat="45.03741" lon="5.49057">
        <ele>1420.8000488281</ele>
        <time>2024-07-14T07:12:39.000Z</time>
      </trkpt>
      <trkpt lat="45.03739" lon="5.49054">
        <ele>1421</ele>
        <time>2024-07-14T07:12:40.000Z</time>
      </trkpt>
      <trkpt lat="45.03737" lon="5.49052">
        <ele>1421</ele>
        <time>2024-07-14T07:12:41.000Z</time>
      </trkpt>
      <trkpt lat="45.03735" lon="5.4905">
        <ele>1421.1999511719</ele>
        <time>2024-07-14T07:12:42.000Z</time>
      </trkpt>
      <trkpt lat="45.03734" lon="5.49048">
        <ele>1421.1999511719</ele>
        <time>2024-07-14T07:12:43.000Z</time>
      </trkpt>
      <trkpt lat="45.03732" lon="5.49046">
        <ele>1421.4000244141</ele>
        <time>2024-07-14T07:12:44.000Z</time>
      </trkpt>
      <trkpt lat="45.0373" lon="5.49045">
        <ele>1421.4000244141</ele>
        <time>2024-07-14T07:12:45.000Z</time>
      </trkpt>
      <trkpt lat="45.03727" lon="5.49043">
        <ele>1421.4000244141</ele>
        <time>2024-07-14T07:12:46.000Z</time>
      </trkpt>
      <trkpt lat="45.03725" lon="5.49041">
        <ele>1421.5999755859</ele>
        <time>2024-07-14T07:12:47.000Z</time>
      </trkpt>
      <trkpt lat="45.03723" lon="5.4904">
        <ele>1421.5999755859</ele>
        <time>2024-07-14T07:12:48.000Z</time>
      </trkpt>
      <trkpt lat="45.0372" lon="5.49039">
        <ele>1421.5999755859</ele>
        <time>2024-07-14T07:12:49.000Z</time>
      </trkpt>
      <trkpt lat="45.03718" lon="5.49038">
        <ele>1421.5999755859</ele>
        <time>2024-07-14T07:12:50.000Z</time>
      </trkpt>
      <trkpt lat="45.03715" lon="5.49037">
        <ele>1421.5999755859</ele>
        <time>2024-07-14T07:12:51.000Z</time>
      </trkpt>
      <trkpt lat="45.03713" lon="5.49036">
        <ele>1421.5999755859</ele>
        <time>2024-07-14T07:12:52.000Z</time>
      </trkpt>
      <trkpt lat="45.03711" lon="5.49036">
        <ele>1421.5999755859</ele>
        <time>2024-07-14T07:12:53.000Z</time>
      </trkpt>
      <trkpt lat="45.03708" lon="5.49036">
        <ele>1421.5999755859</ele>
        <time>2024-07-14T07:12:54.000Z</time>
      </trkpt>
      <trkpt lat="45.03706" lon="5.49035">
        <ele>1421.4000244141</ele>
        <time>2024-07-14T07:12:55.000Z</time>
      </trkpt>
      <trkpt lat="45.03703" lon="5.49034">
        <ele>1421.4000244141</ele>
        <time>2024-07-14T07:12:56.000Z</time>
      </trkpt>
      <trkpt lat="45.03701" lon="5.49034">
        <ele>1421.4000244141</ele>
        <time>2024-07-14T07:12:57.000Z</time>
      </trkpt>
      <trkpt lat="45.03699" lon="5.49033">
        <ele>1421.5999755859</ele>
        <time>2024-07-14T07:12:58.000Z</time>
      </trkpt>
      <trkpt lat="45.03697" lon="5.49033">
        <ele>1421.5999755859</ele>
        <time>2024-07-14T07:12:59.000Z</time>
      </trkpt>
      <trkpt lat="45.03694" lon="5.49033">
        <ele>1421.8000488281</ele>
        <time>2024-07-14T07:13:00.000Z</time>
      </trkpt>
      <trkpt lat="45.03692" lon="5.49033">
        <ele>1422</ele>
        <time>2024-07-14T07:13:01.000Z</time>
      </trkpt>
      <trkpt lat="45.0369" lon="5.49033">
        <ele>1422.1999511719</ele>
        <time>2024-07-14T07:13:02.000Z</time>
      </trkpt>
      <trkpt lat="45.03688" lon="5.49033">
        <ele>1422.4000244141</ele>
        <time>2024-07-14T07:13:03.000Z</time>
      </trkpt>
      <trkpt lat="45.03685" lon="5.49032">
        <ele>1422.5999755859</ele>
        <time>2024-07-14T07:13:04.000Z</time>
      </trkpt>
      <trkpt lat="45.03683" lon="5.49032">
        <ele>1422.5999755859</ele>
        <time>2024-07-14T07:13:05.000Z</time>
      </trkpt>
      <trkpt lat="45.03681" lon="5.49031">
        <ele>1422.8000488281</ele>
        <time>2024-07-14T07:13:06.000Z</time>
      </trkpt>
      <trkpt lat="45.03679" lon="5.49031">
        <ele>1423</ele>
        <time>2024-07-14T07:13:07.000Z</time>
      </trkpt>
      <trkpt lat="45.03677" lon="5.4903">
        <ele>1423.1999511719</ele>
        <time>2024-07-14T07:13:08.000Z</time>
      </trkpt>
      <trkpt lat="45.03674" lon="5.49029">
        <ele>1423.4000244141</ele>
        <time>2024-07-14T07:13:09.000Z</time>
      </trkpt>
      <trkpt lat="45.03672" lon="5.49029">
        <ele>1423.5999755859</ele>
        <time>2024-07-14T07:13:10.000Z</time>
      </trkpt>
      <trkpt lat="45.0367" lon="5.49027">
        <ele>1423.8000488281</ele>
        <time>2024-07-14T07:13:11.000Z</time>
      </trkpt>
      <trkpt lat="45.03668" lon="5.49027">
        <ele>1424</ele>
        <time>2024-07-14T07:13:12.000Z</time>
      </trkpt>
      <trkpt lat="45.03666" lon="5.49026">
        <ele>1424</ele>
        <time>2024-07-14T07:13:13.000Z</time>
      </trkpt>
      <trkpt lat="45.03663" lon="5.49025">
        <ele>1424.1999511719</ele>
        <time>2024-07-14T07:13:14.000Z</time>
      </trkpt>
      <trkpt lat="45.03662" lon="5.49024">
        <ele>1424.4000244141</ele>
        <time>2024-07-14T07:13:15.000Z</time>
      </trkpt>
      <trkpt lat="45.0366" lon="5.49023">
        <ele>1424.5999755859</ele>
        <time>2024-07-14T07:13:16.000Z</time>
      </trkpt>
      <trkpt lat="45.03658" lon="5.49022">
        <ele>1424.8000488281</ele>
        <time>2024-07-14T07:13:17.000Z</time>
      </trkpt>
      <trkpt lat="45.03656" lon="5.49021">
        <ele>1425</ele>
        <time>2024-07-14T07:13:18.000Z</time>
      </trkpt>
      <trkpt lat="45.03654" lon="5.49021">
        <ele>1425.4000244141</ele>
        <time>2024-07-14T07:13:19.000Z</time>
      </trkpt>
      <trkpt lat="45.03652" lon="5.49021">
        <ele>1425.8000488281</ele>
        <time>2024-07-14T07:13:20.000Z</time>
      </trkpt>
      <trkpt lat="45.03649" lon="5.49021">
        <ele>1426</ele>
        <time>2024-07-14T07:13:21.000Z</time>
      </trkpt>
      <trkpt lat="45.03647" lon="5.4902">
        <ele>1426.1999511719</ele>
        <time>2024-07-14T07:13:22.000Z</time>
      </trkpt>
      <trkpt lat="45.03645" lon="5.4902">
        <ele>1426.5999755859</ele>
        <time>2024-07-14T07:13:23.000Z</time>
      </trkpt>
      <trkpt lat="45.03643" lon="5.4902">
        <ele>1426.8000488281</ele>
        <time>2024-07-14T07:13:24.000Z</time>
      </trkpt>
      <trkpt lat="45.03641" lon="5.49019">
        <ele>1427</ele>
        <time>2024-07-14T07:13:25.000Z</time>
      </trkpt>
      <trkpt lat="45.03639" lon="5.49019">
        <ele>1427.4000244141</ele>
        <time>2024-07-14T07:13:26.000Z</time>
      </trkpt>
      <trkpt lat="45.03637" lon="5.49018">
        <ele>1427.5999755859</ele>
        <time>2024-07-14T07:13:27.000Z</time>
      </trkpt>
      <trkpt lat="45.03635" lon="5.49018">
        <ele>1427.8000488281</ele>
        <time>2024-07-14T07:13:28.000Z</time>
      </trkpt>
      <trkpt lat="45.03633" lon="5.49017">
        <ele>1427.8000488281</ele>
        <time>2024-07-14T07:13:29.000Z</time>
      </trkpt>
      <trkpt lat="45.03631" lon="5.49016">
        <ele>1428</ele>
        <time>2024-07-14T07:13:30.000Z</time>
      </trkpt>
      <trkpt lat="45.03629" lon="5.49014">
        <ele>1428.1999511719</ele>
        <time>2024-07-14T07:13:31.000Z</time>
      </trkpt>
      <trkpt lat="45.03627" lon="5.49014">
        <ele>1428.1999511719</ele>
        <time>2024-07-14T07:13:32.000Z</time>
      </trkpt>
      <trkpt lat="45.03625" lon="5.49012">
        <ele>1428.4000244141</ele>
        <time>2024-07-14T07:13:33.000Z</time>
      </trkpt>
      <trkpt lat="45.03623" lon="5.49011">
        <ele>1428.4000244141</ele>
        <time>2024-07-14T07:13:34.000Z</time>
      </trkpt>
      <trkpt lat="45.03621" lon="5.4901">
        <ele>1428.4000244141</ele>
        <time>2024-07-14T07:13:35.000Z</time>
      </trkpt>
      <trkpt lat="45.03618" lon="5.49009">
        <ele>1428.4000244141</ele>
        <time>2024-07-14T07:13:36.000Z</time>
      </trkpt>
      <trkpt lat="45.03616" lon="5.49008">
        <ele>1428.4000244141</ele>
        <time>2024-07-14T07:13:37.000Z</time>
      </trkpt>
      <trkpt lat="45.03613" lon="5.49007">
        <ele>1428.5999755859</ele>
        <time>2024-07-14T07:13:38.000Z</time>
      </trkpt>
      <trkpt lat="45.0361" lon="5.49006">
        <ele>1428.5999755859</ele>
        <time>2024-07-14T07:13:39.000Z</time>
      </trkpt>
      <trkpt lat="45.03608" lon="5.49005">
        <ele>1428.5999755859</ele>
        <time>2024-07-14T07:13:40.000Z</time>
      </trkpt>
      <trkpt lat="45.03605" lon="5.49004">
        <ele>1428.8000488281</ele>
        <time>2024-07-14T07:13:41.000Z</time>
      </trkpt>
      <trkpt lat="45.03603" lon="5.49003">
        <ele>1428.8000488281</ele>
        <time>2024-07-14T07:13:42.000Z</time>
      </trkpt>
      <trkpt lat="45.03601" lon="5.49001">
        <ele>1428.8000488281</ele>
        <time>2024-07-14T07:13:43.000Z</time>
      </trkpt>
      <trkpt lat="45.03599" lon="5.49">
        <ele>1429</ele>
        <time>2024-07-14T07:13:44.000Z</time>
      </trkpt>
      <trkpt lat="45.03596" lon="5.48998">
        <ele>1429</ele>
        <time>2024-07-14T07:13:45.000Z</time>
      </trkpt>
      <trkpt lat="45.03594" lon="5.48997">
        <ele>1429</ele>
        <time>2024-07-14T07:13:46.000Z</time>
      </trkpt>
      <trkpt lat="45.03592" lon="5.48996">
        <ele>1429.1999511719</ele>
        <time>2024-07-14T07:13:47.000Z</time>
      </trkpt>
      <trkpt lat="45.0359" lon="5.48994">
        <ele>1429.4000244141</ele>
        <time>2024-07-14T07:13:48.000Z</time>
      </trkpt>
      <trkpt lat="45.03588" lon="5.48993">
        <ele>1429.5999755859</ele>
        <time>2024-07-14T07:13:49.000Z</time>
      </trkpt>
      <trkpt lat="45.03586" lon="5.48991">
        <ele>1429.8000488281</ele>
        <time>2024-07-14T07:13:50.000Z</time>
      </trkpt>
      <trkpt lat="45.03584" lon="5.4899">
        <ele>1430</ele>
        <time>2024-07-14T07:13:51.000Z</time>
      </trkpt>
      <trkpt lat="45.03583" lon="5.48988">
        <ele>1430.1999511719</ele>
        <time>2024-07-14T07:13:52.000Z</time>
      </trkpt>
      <trkpt lat="45.03581" lon="5.48987">
        <ele>1430.4000244141</ele>
        <time>2024-07-14T07:13:53.000Z</time>
      </trkpt>
      <trkpt lat="45.03579" lon="5.48985">
        <ele>1430.5999755859</ele>
        <time>2024-07-14T07:13:54.000Z</time>
      </trkpt>
      <trkpt lat="45.03577" lon="5.48984">
        <ele>1430.5999755859</ele>
        <time>2024-07-14T07:13:55.000Z</time>
      </trkpt>
      <trkpt lat="45.03575" lon="5.48984">
        <ele>1430.5999755859</ele>
        <time>2024-07-14T07:13:56.000Z</time>
      </trkpt>
      <trkpt lat="45.03572" lon="5.48983">
        <ele>1430.8000488281</ele>
        <time>2024-07-14T07:13:57.000Z</time>
      </trkpt>
      <trkpt lat="45.0357" lon="5.48983">
        <ele>1431</ele>
        <time>2024-07-14T07:13:58.000Z</time>
      </trkpt>
      <trkpt lat="45.03567" lon="5.48983">
        <ele>1431.4000244141</ele>
        <time>2024-07-14T07:13:59.000Z</time>
      </trkpt>
      <trkpt lat="45.03565" lon="5.48983">
        <ele>1431.4000244141</ele>
        <time>2024-07-14T07:14:00.000Z</time>
      </trkpt>
      <trkpt lat="45.03562" lon="5.48984">
        <ele>1431.4000244141</ele>
        <time>2024-07-14T07:14:01.000Z</time>
      </trkpt>
      <trkpt lat="45.03561" lon="5.48984">
        <ele>1431.4000244141</ele>
        <time>2024-07-14T07:14:02.000Z</time>
      </trkpt>
      <trkpt lat="45.03558" lon="5.48985">
        <ele>1431.4000244141</ele>
        <time>2024-07-14T07:14:03.000Z</time>
      </trkpt>
      <trkpt lat="45.03556" lon="5.48986">
        <ele>1431.4000244141</ele>
        <time>2024-07-14T07:14:04.000Z</time>
      </trkpt>
      <trkpt lat="45.03553" lon="5.48987">
        <ele>1431.4000244141</ele>
        <time>2024-07-14T07:14:05.000Z</time>
      </trkpt>
      <trkpt lat="45.03551" lon="5.48988">
        <ele>1431.4000244141</ele>
        <time>2024-07-14T07:14:06.000Z</time>
      </trkpt>
      <trkpt lat="45.03548" lon="5.48989">
        <ele>1431.4000244141</ele>
        <time>2024-07-14T07:14:07.000Z</time>
      </trkpt>
      <trkpt lat="45.03546" lon="5.4899">
        <ele>1431.5999755859</ele>
        <time>2024-07-14T07:14:08.000Z</time>
      </trkpt>
      <trkpt lat="45.03543" lon="5.48992">
        <ele>1431.5999755859</ele>
        <time>2024-07-14T07:14:09.000Z</time>
      </trkpt>
      <trkpt lat="45.03541" lon="5.48993">
        <ele>1431.5999755859</ele>
        <time>2024-07-14T07:14:10.000Z</time>
      </trkpt>
      <trkpt lat="45.03539" lon="5.48994">
        <ele>1431.5999755859</ele>
        <time>2024-07-14T07:14:11.000Z</time>
      </trkpt>
      <trkpt lat="45.03537" lon="5.48995">
        <ele>1431.8000488281</ele>
        <time>2024-07-14T07:14:12.000Z</time>
      </trkpt>
      <trkpt lat="45.03535" lon="5.48997">
        <ele>1432</ele>
        <time>2024-07-14T07:14:13.000Z</time>
      </trkpt>
      <trkpt lat="45.03534" lon="5.48999">
        <ele>1432</ele>
        <time>2024-07-14T07:14:14.000Z</time>
      </trkpt>
      <trkpt lat="45.03532" lon="5.49">
        <ele>1432.1999511719</ele>
        <time>2024-07-14T07:14:15.000Z</time>
      </trkpt>
      <trkpt lat="45.0353" lon="5.49002">
        <ele>1432.4000244141</ele>
        <time>2024-07-14T07:14:16.000Z</time>
      </trkpt>
      <trkpt lat="45.03529" lon="5.49003">
        <ele>1432.5999755859</ele>
        <time>2024-07-14T07:14:17.000Z</time>
      </trkpt>
      <trkpt lat="45.03527" lon="5.49004">
        <ele>1432.8000488281</ele>
        <time>2024-07-14T07:14:18.000Z</time>
      </trkpt>
      <trkpt lat="45.03525" lon="5.49006">
        <ele>1432.8000488281</ele>
        <time>2024-07-14T07:14:19.000Z</time>
      </trkpt>
      <trkpt lat="45.03523" lon="5.49006">
        <ele>1433</ele>
        <time>2024-07-14T07:14:20.000Z</time>
      </trkpt>
      <trkpt lat="45.03521" lon="5.49007">
        <ele>1433.1999511719</ele>
        <time>2024-07-14T07:14:21.000Z</time>
      </trkpt>
      <trkpt lat="45.03519" lon="5.49009">
        <ele>1433.4000244141</ele>
        <time>2024-07-14T07:14:22.000Z</time>
      </trkpt>
      <trkpt lat="45.03517" lon="5.4901">
        <ele>1433.5999755859</ele>
        <time>2024-07-14T07:14:23.000Z</time>
      </trkpt>
      <trkpt lat="45.03515" lon="5.4901">
        <ele>1433.8000488281</ele>
        <time>2024-07-14T07:14:24.000Z</time>
      </trkpt>
      <trkpt lat="45.03512" lon="5.49011">
        <ele>1434.1999511719</ele>
        <time>2024-07-14T07:14:25.000Z</time>
      </trkpt>
      <trkpt lat="45.0351" lon="5.49012">
        <ele>1434.5999755859</ele>
        <time>2024-07-14T07:14:26.000Z</time>
      </trkpt>
      <trkpt lat="45.03508" lon="5.49012">
        <ele>1434.8000488281</ele>
        <time>2024-07-14T07:14:27.000Z</time>
      </trkpt>
      <trkpt lat="45.03506" lon="5.49012">
        <ele>1435</ele>
        <time>2024-07-14T07:14:28.000Z</time>
      </trkpt>
      <trkpt lat="45.03504" lon="5.49012">
        <ele>1435.4000244141</ele>
        <time>2024-07-14T07:14:29.000Z</time>
      </trkpt>
      <trkpt lat="45.03502" lon="5.49012">
        <ele>1436</ele>
        <time>2024-07-14T07:14:30.000Z</time>
      </trkpt>
      <trkpt lat="45.035" lon="5.49012">
        <ele>1436.1999511719</ele>
        <time>2024-07-14T07:14:31.000Z</time>
      </trkpt>
      <trkpt lat="45.03498" lon="5.49012">
        <ele>1436.4000244141</ele>
        <time>2024-07-14T07:14:32.000Z</time>
      </trkpt>
      <trkpt lat="45.03496" lon="5.49012">
        <ele>1436.4000244141</ele>
        <time>2024-07-14T07:14:33.000Z</time>
      </trkpt>
      <trkpt lat="45.03494" lon="5.49012">
        <ele>1436.4000244141</ele>
        <time>2024-07-14T07:14:34.000Z</time>
      </trkpt>
      <trkpt lat="45.03492" lon="5.49012">
        <ele>1436.5999755859</ele>
        <time>2024-07-14T07:14:35.000Z</time>
      </trkpt>
      <trkpt lat="45.0349" lon="5.49012">
        <ele>1436.5999755859</ele>
        <time>2024-07-14T07:14:36.000Z</time>
      </trkpt>
      <trkpt lat="45.03487" lon="5.49012">
        <ele>1436.8000488281</ele>
        <time>2024-07-14T07:14:37.000Z</time>
      </trkpt>
      <trkpt lat="45.03485" lon="5.49012">
        <ele>1437.4000244141</ele>
        <time>2024-07-14T07:14:38.000Z</time>
      </trkpt>
      <trkpt lat="45.03482" lon="5.49012">
        <ele>1437.5999755859</ele>
        <time>2024-07-14T07:14:39.000Z</time>
      </trkpt>
      <trkpt lat="45.03479" lon="5.49012">
        <ele>1438</ele>
        <time>2024-07-14T07:14:40.000Z</time>
      </trkpt>
      <trkpt lat="45.03477" lon="5.49012">
        <ele>1438.1999511719</ele>
        <time>2024-07-14T07:14:41.000Z</time>
      </trkpt>
      <trkpt lat="45.03475" lon="5.49013">
        <ele>1438.4000244141</ele>
        <time>2024-07-14T07:14:42.000Z</time>
      </trkpt>
      <trkpt lat="45.03472" lon="5.49013">
        <ele>1438.5999755859</ele>
        <time>2024-07-14T07:14:43.000Z</time>
      </trkpt>
      <trkpt lat="45.0347" lon="5.49014">
        <ele>1438.5999755859</ele>
        <time>2024-07-14T07:14:44.000Z</time>
      </trkpt>
      <trkpt lat="45.03468" lon="5.49014">
        <ele>1438.5999755859</ele>
        <time>2024-07-14T07:14:45.000Z</time>
      </trkpt>
      <trkpt lat="45.03466" lon="5.49014">
        <ele>1438.5999755859</ele>
        <time>2024-07-14T07:14:46.000Z</time>
      </trkpt>
      <trkpt lat="45.03464" lon="5.49014">
        <ele>1438.8000488281</ele>
        <time>2024-07-14T07:14:47.000Z</time>
      </trkpt>
      <trkpt lat="45.03461" lon="5.49014">
        <ele>1438.5999755859</ele>
        <time>2024-07-14T07:14:48.000Z</time>
      </trkpt>
      <trkpt lat="45.03458" lon="5.49014">
        <ele>1438.8000488281</ele>
        <time>2024-07-14T07:14:49.000Z</time>
      </trkpt>
      <trkpt lat="45.03456" lon="5.49014">
        <ele>1438.8000488281</ele>
        <time>2024-07-14T07:14:50.000Z</time>
      </trkpt>
      <trkpt lat="45.03454" lon="5.49014">
        <ele>1438.8000488281</ele>
        <time>2024-07-14T07:14:51.000Z</time>
      </trkpt>
      <trkpt lat="45.03451" lon="5.49014">
        <ele>1439</ele>
        <time>2024-07-14T07:14:52.000Z</time>
      </trkpt>
      <trkpt lat="45.03449" lon="5.49013">
        <ele>1439</ele>
        <time>2024-07-14T07:14:53.000Z</time>
      </trkpt>
      <trkpt lat="45.03447" lon="5.49013">
        <ele>1439.1999511719</ele>
        <time>2024-07-14T07:14:54.000Z</time>
      </trkpt>
      <trkpt lat="45.03445" lon="5.49013">
        <ele>1439.4000244141</ele>
        <time>2024-07-14T07:14:55.000Z</time>
      </trkpt>
      <trkpt lat="45.03443" lon="5.49013">
        <ele>1439.5999755859</ele>
        <time>2024-07-14T07:14:56.000Z</time>
      </trkpt>
      <trkpt lat="45.03441" lon="5.49013">
        <ele>1440</ele>
        <time>2024-07-14T07:14:57.000Z</time>
      </trkpt>
      <trkpt lat="45.0344" lon="5.49014">
        <ele>1440.1999511719</ele>
        <time>2024-07-14T07:14:58.000Z</time>
      </trkpt>
      <trkpt lat="45.03438" lon="5.49015">
        <ele>1440.1999511719</ele>
        <time>2024-07-14T07:14:59.000Z</time>
      </trkpt>
      <trkpt lat="45.03436" lon="5.49015">
        <ele>1440.8000488281</ele>
        <time>2024-07-14T07:15:00.000Z</time>
      </trkpt>
      <trkpt lat="45.03435" lon="5.49016">
        <ele>1441</ele>
        <time>2024-07-14T07:15:01.000Z</time>
      </trkpt>
      <trkpt lat="45.03433" lon="5.49016">
        <ele>1441.1999511719</ele>
        <time>2024-07-14T07:15:02.000Z</time>
      </trkpt>
      <trkpt lat="45.03431" lon="5.49016">
        <ele>1441.4000244141</ele>
        <time>2024-07-14T07:15:03.000Z</time>
      </trkpt>
      <trkpt lat="45.03429" lon="5.49017">
        <ele>1441.4000244141</ele>
        <time>2024-07-14T07:15:04.000Z</time>
      </trkpt>
      <trkpt lat="45.03427" lon="5.49018">
        <ele>1441.5999755859</ele>
        <time>2024-07-14T07:15:05.000Z</time>
      </trkpt>
      <trkpt lat="45.03425" lon="5.49018">
        <ele>1441.8000488281</ele>
        <time>2024-07-14T07:15:06.000Z</time>
      </trkpt>
      <trkpt lat="45.03423" lon="5.4902">
        <ele>1442</ele>
        <time>2024-07-14T07:15:07.000Z</time>
      </trkpt>
      <trkpt lat="45.03421" lon="5.4902">
        <ele>1442.1999511719</ele>
        <time>2024-07-14T07:15:08.000Z</time>
      </trkpt>
      <trkpt lat="45.03419" lon="5.49021">
        <ele>1442.5999755859</ele>
        <time>2024-07-14T07:15:09.000Z</time>
      </trkpt>
      <trkpt lat="45.03417" lon="5.49023">
        <ele>1442.8000488281</ele>
        <time>2024-07-14T07:15:10.000Z</time>
      </trkpt>
      <trkpt lat="45.03415" lon="5.49024">
        <ele>1443</ele>
        <time>2024-07-14T07:15:11.000Z</time>
      </trkpt>
      <trkpt lat="45.03413" lon="5.49024">
        <ele>1443.1999511719</ele>
        <time>2024-07-14T07:15:12.000Z</time>
      </trkpt>
      <trkpt lat="45.03411" lon="5.49025">
        <ele>1443.1999511719</ele>
        <time>2024-07-14T07:15:13.000Z</time>
      </trkpt>
      <trkpt lat="45.03409" lon="5.49026">
        <ele>1443.4000244141</ele>
        <time>2024-07-14T07:15:14.000Z</time>
      </trkpt>
      <trkpt lat="45.03407" lon="5.49027">
        <ele>1443.5999755859</ele>
        <time>2024-07-14T07:15:15.000Z</time>
      </trkpt>
      <trkpt lat="45.03404" lon="5.49028">
        <ele>1443.5999755859</ele>
        <time>2024-07-14T07:15:16.000Z</time>
      </trkpt>
      <trkpt lat="45.03402" lon="5.49029">
        <ele>1443.5999755859</ele>
        <time>2024-07-14T07:15:17.000Z</time>
      </trkpt>
      <trkpt lat="45.034" lon="5.49029">
        <ele>1443.5999755859</ele>
        <time>2024-07-14T07:15:18.000Z</time>
      </trkpt>
      <trkpt lat="45.03397" lon="5.4903">
        <ele>1443.5999755859</ele>
        <time>2024-07-14T07:15:19.000Z</time>
      </trkpt>
      <trkpt lat="45.03394" lon="5.49031">
        <ele>1443.5999755859</ele>
        <time>2024-07-14T07:15:20.000Z</time>
      </trkpt>
      <trkpt lat="45.03392" lon="5.49031">
        <ele>1443.5999755859</ele>
        <time>2024-07-14T07:15:21.000Z</time>
      </trkpt>
      <trkpt lat="45.0339" lon="5.49032">
        <ele>1443.5999755859</ele>
        <time>2024-07-14T07:15:22.000Z</time>
      </trkpt>
      <trkpt lat="45.03387" lon="5.49033">
        <ele>1443.5999755859</ele>
        <time>2024-07-14T07:15:23.000Z</time>
      </trkpt>
      <trkpt lat="45.03385" lon="5.49034">
        <ele>1443.5999755859</ele>
        <time>2024-07-14T07:15:24.000Z</time>
      </trkpt>
      <trkpt lat="45.03382" lon="5.49034">
        <ele>1443.5999755859</ele>
        <time>2024-07-14T07:15:25.000Z</time>
      </trkpt>
      <trkpt lat="45.03379" lon="5.49034">
        <ele>1443.5999755859</ele>
        <time>2024-07-14T07:15:26.000Z</time>
      </trkpt>
      <trkpt lat="45.03377" lon="5.49035">
        <ele>1443.4000244141</ele>
        <time>2024-07-14T07:15:27.000Z</time>
      </trkpt>
      <trkpt lat="45.03375" lon="5.49035">
        <ele>1443.4000244141</ele>
        <time>2024-07-14T07:15:28.000Z</time>
      </trkpt>
      <trkpt lat="45.03372" lon="5.49035">
        <ele>1443.4000244141</ele>
        <time>2024-07-14T07:15:29.000Z</time>
      </trkpt>
      <trkpt lat="45.03369" lon="5.49036">
        <ele>1443.4000244141</ele>
        <time>2024-07-14T07:15:30.000Z</time>
      </trkpt>
      <trkpt lat="45.03366" lon="5.49036">
        <ele>1443.1999511719</ele>
        <time>2024-07-14T07:15:31.000Z</time>
      </trkpt>
      <trkpt lat="45.03363" lon="5.49037">
        <ele>1443.1999511719</ele>
        <time>2024-07-14T07:15:32.000Z</time>
      </trkpt>
      <trkpt lat="45.03361" lon="5.49037">
        <ele>1443.1999511719</ele>
        <time>2024-07-14T07:15:33.000Z</time>
      </trkpt>
      <trkpt lat="45.03358" lon="5.49037">
        <ele>1443.1999511719</ele>
        <time>2024-07-14T07:15:34.000Z</time>
      </trkpt>
      <trkpt lat="45.03355" lon="5.49037">
        <ele>1443</ele>
        <time>2024-07-14T07:15:35.000Z</time>
      </trkpt>
      <trkpt lat="45.03352" lon="5.49038">
        <ele>1442.8000488281</ele>
        <time>2024-07-14T07:15:36.000Z</time>
      </trkpt>
      <trkpt lat="45.0335" lon="5.49038">
        <ele>1442.5999755859</ele>
        <time>2024-07-14T07:15:37.000Z</time>
      </trkpt>
      <trkpt lat="45.03347" lon="5.49037">
        <ele>1442.4000244141</ele>
        <time>2024-07-14T07:15:38.000Z</time>
      </trkpt>
      <trkpt lat="45.03344" lon="5.49037">
        <ele>1442.4000244141</ele>
        <time>2024-07-14T07:15:39.000Z</time>
      </trkpt>
      <trkpt lat="45.03341" lon="5.49036">
        <ele>1442.1999511719</ele>
        <time>2024-07-14T07:15:40.000Z</time>
      </trkpt>
      <trkpt lat="45.03339" lon="5.49037">
        <ele>1442.1999511719</ele>
        <time>2024-07-14T07:15:41.000Z</time>
      </trkpt>
      <trkpt lat="45.03336" lon="5.49037">
        <ele>1442.1999511719</ele>
        <time>2024-07-14T07:15:42.000Z</time>
      </trkpt>
      <trkpt lat="45.03334" lon="5.49037">
        <ele>1442.1999511719</ele>
        <time>2024-07-14T07:15:43.000Z</time>
      </trkpt>
      <trkpt lat="45.03332" lon="5.49037">
        <ele>1442.4000244141</ele>
        <time>2024-07-14T07:15:44.000Z</time>
      </trkpt>
      <trkpt lat="45.0333" lon="5.49037">
        <ele>1442.4000244141</ele>
        <time>2024-07-14T07:15:45.000Z</time>
      </trkpt>
      <trkpt lat="45.03328" lon="5.49037">
        <ele>1442.5999755859</ele>
        <time>2024-07-14T07:15:46.000Z</time>
      </trkpt>
      <trkpt lat="45.03326" lon="5.49036">
        <ele>1442.8000488281</ele>
        <time>2024-07-14T07:15:47.000Z</time>
      </trkpt>
      <trkpt lat="45.03324" lon="5.49036">
        <ele>1443.1999511719</ele>
        <time>2024-07-14T07:15:48.000Z</time>
      </trkpt>
      <trkpt lat="45.03322" lon="5.49035">
        <ele>1443.1999511719</ele>
        <time>2024-07-14T07:15:49.000Z</time>
      </trkpt>
      <trkpt lat="45.03319" lon="5.49034">
        <ele>1443.4000244141</ele>
        <time>2024-07-14T07:15:50.000Z</time>
      </trkpt>
      <trkpt lat="45.03316" lon="5.49032">
        <ele>1443.5999755859</ele>
        <time>2024-07-14T07:15:51.000Z</time>
      </trkpt>
      <trkpt lat="45.03314" lon="5.49032">
        <ele>1443.5999755859</ele>
        <time>2024-07-14T07:15:52.000Z</time>
      </trkpt>
      <trkpt lat="45.03311" lon="5.49031">
        <ele>1443.5999755859</ele>
        <time>2024-07-14T07:15:53.000Z</time>
      </trkpt>
      <trkpt lat="45.03309" lon="5.4903">
        <ele>1443.5999755859</ele>
        <time>2024-07-14T07:15:54.000Z</time>
      </trkpt>
      <trkpt lat="45.03306" lon="5.4903">
        <ele>1443.5999755859</ele>
        <time>2024-07-14T07:15:55.000Z</time>
      </trkpt>
      <trkpt lat="45.03304" lon="5.49029">
        <ele>1443.5999755859</ele>
        <time>2024-07-14T07:15:56.000Z</time>
      </trkpt>
      <trkpt lat="45.03301" lon="5.49028">
        <ele>1443.8000488281</ele>
        <time>2024-07-14T07:15:57.000Z</time>
      </trkpt>
      <trkpt lat="45.03298" lon="5.49027">
        <ele>1443.8000488281</ele>
        <time>2024-07-14T07:15:58.000Z</time>
      </trkpt>
      <trkpt lat="45.03295" lon="5.49026">
        <ele>1443.8000488281</ele>
        <time>2024-07-14T07:15:59.000Z</time>
      </trkpt>
      <trkpt lat="45.03292" lon="5.49026">
        <ele>1443.8000488281</ele>
        <time>2024-07-14T07:16:00.000Z</time>
      </trkpt>
      <trkpt lat="45.0329" lon="5.49025">
        <ele>1443.8000488281</ele>
        <time>2024-07-14T07:16:01.000Z</time>
      </trkpt>
      <trkpt lat="45.03287" lon="5.49025">
        <ele>1443.8000488281</ele>
        <time>2024-07-14T07:16:02.000Z</time>
      </trkpt>
      <trkpt lat="45.03285" lon="5.49024">
        <ele>1443.8000488281</ele>
        <time>2024-07-14T07:16:03.000Z</time>
      </trkpt>
      <trkpt lat="45.03282" lon="5.49024">
        <ele>1443.8000488281</ele>
        <time>2024-07-14T07:16:04.000Z</time>
      </trkpt>
      <trkpt lat="45.0328" lon="5.49023">
        <ele>1443.5999755859</ele>
        <time>2024-07-14T07:16:05.000Z</time>
      </trkpt>
      <trkpt lat="45.03277" lon="5.49022">
        <ele>1443.5999755859</ele>
        <time>2024-07-14T07:16:06.000Z</time>
      </trkpt>
      <trkpt lat="45.03275" lon="5.49021">
        <ele>1443.5999755859</ele>
        <time>2024-07-14T07:16:07.000Z</time>
      </trkpt>
      <trkpt lat="45.03272" lon="5.4902">
        <ele>1443.4000244141</ele>
        <time>2024-07-14T07:16:08.000Z</time>
      </trkpt>
      <trkpt lat="45.03269" lon="5.49018">
        <ele>1443</ele>
        <time>2024-07-14T07:16:09.000Z</time>
      </trkpt>
      <trkpt lat="45.03267" lon="5.49017">
        <ele>1443</ele>
        <time>2024-07-14T07:16:10.000Z</time>
      </trkpt>
      <trkpt lat="45.03264" lon="5.49016">
        <ele>1442.8000488281</ele>
        <time>2024-07-14T07:16:11.000Z</time>
      </trkpt>
      <trkpt lat="45.03262" lon="5.49015">
        <ele>1442.5999755859</ele>
        <time>2024-07-14T07:16:12.000Z</time>
      </trkpt>
      <trkpt lat="45.0326" lon="5.49013">
        <ele>1442.4000244141</ele>
        <time>2024-07-14T07:16:13.000Z</time>
      </trkpt>
      <trkpt lat="45.03257" lon="5.49012">
        <ele>1442.1999511719</ele>
        <time>2024-07-14T07:16:14.000Z</time>
      </trkpt>
      <trkpt lat="45.03255" lon="5.49011">
        <ele>1442</ele>
        <time>2024-07-14T07:16:15.000Z</time>
      </trkpt>
      <trkpt lat="45.03252" lon="5.4901">
        <ele>1441.5999755859</ele>
        <time>2024-07-14T07:16:16.000Z</time>
      </trkpt>
      <trkpt lat="45.03249" lon="5.49009">
        <ele>1441.1999511719</ele>
        <time>2024-07-14T07:16:17.000Z</time>
      </trkpt>
      <trkpt lat="45.03246" lon="5.49008">
        <ele>1440.8000488281</ele>
        <time>2024-07-14T07:16:18.000Z</time>
      </trkpt>
      <trkpt lat="45.03243" lon="5.49009">
        <ele>1440.5999755859</ele>
        <time>2024-07-14T07:16:19.000Z</time>
      </trkpt>
      <trkpt lat="45.0324" lon="5.49009">
        <ele>1440.4000244141</ele>
        <time>2024-07-14T07:16:20.000Z</time>
      </trkpt>
      <trkpt lat="45.03238" lon="5.49009">
        <ele>1440.4000244141</ele>
        <time>2024-07-14T07:16:21.000Z</time>
      </trkpt>
      <trkpt lat="45.03235" lon="5.49011">
        <ele>1440.4000244141</ele>
        <time>2024-07-14T07:16:22.000Z</time>
      </trkpt>
      <trkpt lat="45.03233" lon="5.49012">
        <ele>1440.4000244141</ele>
        <time>2024-07-14T07:16:23.000Z</time>
      </trkpt>
      <trkpt lat="45.0323" lon="5.49013">
        <ele>1440.5999755859</ele>
        <time>2024-07-14T07:16:24.000Z</time>
      </trkpt>
      <trkpt lat="45.03227" lon="5.49015">
        <ele>1440.5999755859</ele>
        <time>2024-07-14T07:16:25.000Z</time>
      </trkpt>
      <trkpt lat="45.03224" lon="5.49017">
        <ele>1440.5999755859</ele>
        <time>2024-07-14T07:16:26.000Z</time>
      </trkpt>
      <trkpt lat="45.03222" lon="5.49018">
        <ele>1440.5999755859</ele>
        <time>2024-07-14T07:16:27.000Z</time>
      </trkpt>
      <trkpt lat="45.03219" lon="5.4902">
        <ele>1440.4000244141</ele>
        <time>2024-07-14T07:16:28.000Z</time>
      </trkpt>
      <trkpt lat="45.03217" lon="5.49022">
        <ele>1440.4000244141</ele>
        <time>2024-07-14T07:16:29.000Z</time>
      </trkpt>
      <trkpt lat="45.03215" lon="5.49024">
        <ele>1440.4000244141</ele>
        <time>2024-07-14T07:16:30.000Z</time>
      </trkpt>
      <trkpt lat="45.03213" lon="5.49025">
        <ele>1440.4000244141</ele>
        <time>2024-07-14T07:16:31.000Z</time>
      </trkpt>
      <trkpt lat="45.03211" lon="5.49027">
        <ele>1440.4000244141</ele>
        <time>2024-07-14T07:16:32.000Z</time>
      </trkpt>
      <trkpt lat="45.03209" lon="5.49029">
        <ele>1440.4000244141</ele>
        <time>2024-07-14T07:16:33.000Z</time>
      </trkpt>
      <trkpt lat="45.03207" lon="5.49031">
        <ele>1440.4000244141</ele>
        <time>2024-07-14T07:16:34.000Z</time>
      </trkpt>
      <trkpt lat="45.03205" lon="5.49033">
        <ele>1440.5999755859</ele>
        <time>2024-07-14T07:16:35.000Z</time>
      </trkpt>
      <trkpt lat="45.03203" lon="5.49034">
        <ele>1440.8000488281</ele>
        <time>2024-07-14T07:16:36.000Z</time>
      </trkpt>
      <trkpt lat="45.03201" lon="5.49036">
        <ele>1441.1999511719</ele>
        <time>2024-07-14T07:16:37.000Z</time>
      </trkpt>
      <trkpt lat="45.03199" lon="5.49039">
        <ele>1441.5999755859</ele>
        <time>2024-07-14T07:16:38.000Z</time>
      </trkpt>
      <trkpt lat="45.03197" lon="5.49041">
        <ele>1441.8000488281</ele>
        <time>2024-07-14T07:16:39.000Z</time>
      </trkpt>
      <trkpt lat="45.03195" lon="5.49043">
        <ele>1442.1999511719</ele>
        <time>2024-07-14T07:16:40.000Z</time>
      </trkpt>
      <trkpt lat="45.03192" lon="5.49044">
        <ele>1442.1999511719</ele>
        <time>2024-07-14T07:16:41.000Z</time>
      </trkpt>
      <trkpt lat="45.03191" lon="5.49046">
        <ele>1442.4000244141</ele>
        <time>2024-07-14T07:16:42.000Z</time>
      </trkpt>
      <trkpt lat="45.03189" lon="5.49048">
        <ele>1442.5999755859</ele>
        <time>2024-07-14T07:16:43.000Z</time>
      </trkpt>
      <trkpt lat="45.03187" lon="5.49049">
        <ele>1442.5999755859</ele>
        <time>2024-07-14T07:16:44.000Z</time>
      </trkpt>
      <trkpt lat="45.03184" lon="5.49051">
        <ele>1442.5999755859</ele>
        <time>2024-07-14T07:16:45.000Z</time>
      </trkpt>
      <trkpt lat="45.03181" lon="5.49052">
        <ele>1442.5999755859</ele>
        <time>2024-07-14T07:16:46.000Z</time>
      </trkpt>
      <trkpt lat="45.03178" lon="5.49052">
        <ele>1442.4000244141</ele>
        <time>2024-07-14T07:16:47.000Z</time>
      </trkpt>
      <trkpt lat="45.03176" lon="5.49053">
        <ele>1442.4000244141</ele>
        <time>2024-07-14T07:16:48.000Z</time>
      </trkpt>
      <trkpt lat="45.03174" lon="5.49053">
        <ele>1442.1999511719</ele>
        <time>2024-07-14T07:16:49.000Z</time>
      </trkpt>
      <trkpt lat="45.03171" lon="5.49052">
        <ele>1442.1999511719</ele>
        <time>2024-07-14T07:16:50.000Z</time>
      </trkpt>
      <trkpt lat="45.03168" lon="5.49052">
        <ele>1442</ele>
        <time>2024-07-14T07:16:51.000Z</time>
      </trkpt>
      <trkpt lat="45.03164" lon="5.49051">
        <ele>1441.8000488281</ele>
        <time>2024-07-14T07:16:52.000Z</time>
      </trkpt>
      <trkpt lat="45.03161" lon="5.4905">
        <ele>1441.1999511719</ele>
        <time>2024-07-14T07:16:53.000Z</time>
      </trkpt>
      <trkpt lat="45.03158" lon="5.49049">
        <ele>1440.8000488281</ele>
        <time>2024-07-14T07:16:54.000Z</time>
      </trkpt>
      <trkpt lat="45.03155" lon="5.49048">
        <ele>1440.4000244141</ele>
        <time>2024-07-14T07:16:55.000Z</time>
      </trkpt>
      <trkpt lat="45.03152" lon="5.49047">
        <ele>1440</ele>
        <time>2024-07-14T07:16:56.000Z</time>
      </trkpt>
      <trkpt lat="45.03149" lon="5.49047">
        <ele>1439.8000488281</ele>
        <time>2024-07-14T07:16:57.000Z</time>
      </trkpt>
      <trkpt lat="45.03146" lon="5.49047">
        <ele>1439.5999755859</ele>
        <time>2024-07-14T07:16:58.000Z</time>
      </trkpt>
      <trkpt lat="45.03142" lon="5.49047">
        <ele>1439.1999511719</ele>
        <time>2024-07-14T07:16:59.000Z</time>
      </trkpt>
      <trkpt lat="45.03139" lon="5.49048">
        <ele>1438.8000488281</ele>
        <time>2024-07-14T07:17:00.000Z</time>
      </trkpt>
      <trkpt lat="45.03137" lon="5.49049">
        <ele>1438.1999511719</ele>
        <time>2024-07-14T07:17:01.000Z</time>
      </trkpt>
      <trkpt lat="45.03134" lon="5.49051">
        <ele>1438.1999511719</ele>
        <time>2024-07-14T07:17:02.000Z</time>
      </trkpt>
      <trkpt lat="45.03131" lon="5.49052">
        <ele>1438.1999511719</ele>
        <time>2024-07-14T07:17:03.000Z</time>
      </trkpt>
      <trkpt lat="45.03129" lon="5.49054">
        <ele>1438.1999511719</ele>
        <time>2024-07-14T07:17:04.000Z</time>
      </trkpt>
      <trkpt lat="45.03126" lon="5.49055">
        <ele>1438.4000244141</ele>
        <time>2024-07-14T07:17:05.000Z</time>
      </trkpt>
      <trkpt lat="45.03123" lon="5.49056">
        <ele>1438.5999755859</ele>
        <time>2024-07-14T07:17:06.000Z</time>
      </trkpt>
      <trkpt lat="45.03121" lon="5.49057">
        <ele>1438.8000488281</ele>
        <time>2024-07-14T07:17:07.000Z</time>
      </trkpt>
      <trkpt lat="45.03118" lon="5.49058">
        <ele>1438.8000488281</ele>
        <time>2024-07-14T07:17:08.000Z</time>
      </trkpt>
      <trkpt lat="45.03116" lon="5.49059">
        <ele>1439</ele>
        <time>2024-07-14T07:17:09.000Z</time>
      </trkpt>
      <trkpt lat="45.03113" lon="5.4906">
        <ele>1439</ele>
        <time>2024-07-14T07:17:10.000Z</time>
      </trkpt>
      <trkpt lat="45.03111" lon="5.49061">
        <ele>1439</ele>
        <time>2024-07-14T07:17:11.000Z</time>
      </trkpt>
      <trkpt lat="45.03109" lon="5.49062">
        <ele>1439</ele>
        <time>2024-07-14T07:17:12.000Z</time>
      </trkpt>
      <trkpt lat="45.03106" lon="5.49062">
        <ele>1439</ele>
        <time>2024-07-14T07:17:13.000Z</time>
      </trkpt>
      <trkpt lat="45.03103" lon="5.49063">
        <ele>1439</ele>
        <time>2024-07-14T07:17:14.000Z</time>
      </trkpt>
      <trkpt lat="45.031" lon="5.49064">
        <ele>1439</ele>
        <time>2024-07-14T07:17:15.000Z</time>
      </trkpt>
      <trkpt lat="45.03097" lon="5.49065">
        <ele>1439</ele>
        <time>2024-07-14T07:17:16.000Z</time>
      </trkpt>
      <trkpt lat="45.03095" lon="5.49066">
        <ele>1439</ele>
        <time>2024-07-14T07:17:17.000Z</time>
      </trkpt>
      <trkpt lat="45.03092" lon="5.49067">
        <ele>1439</ele>
        <time>2024-07-14T07:17:18.000Z</time>
      </trkpt>
      <trkpt lat="45.0309" lon="5.49068">
        <ele>1438.5999755859</ele>
        <time>2024-07-14T07:17:19.000Z</time>
      </trkpt>
      <trkpt lat="45.03087" lon="5.4907">
        <ele>1438.1999511719</ele>
        <time>2024-07-14T07:17:20.000Z</time>
      </trkpt>
      <trkpt lat="45.03085" lon="5.49071">
        <ele>1438.1999511719</ele>
        <time>2024-07-14T07:17:21.000Z</time>
      </trkpt>
      <trkpt lat="45.03083" lon="5.49073">
        <ele>1437.8000488281</ele>
        <time>2024-07-14T07:17:22.000Z</time>
      </trkpt>
      <trkpt lat="45.0308" lon="5.49074">
        <ele>1437.5999755859</ele>
        <time>2024-07-14T07:17:23.000Z</time>
      </trkpt>
      <trkpt lat="45.03077" lon="5.49074">
        <ele>1437.4000244141</ele>
        <time>2024-07-14T07:17:24.000Z</time>
      </trkpt>
      <trkpt lat="45.03075" lon="5.49076">
        <ele>1437.1999511719</ele>
        <time>2024-07-14T07:17:25.000Z</time>
      </trkpt>
      <trkpt lat="45.03072" lon="5.49076">
        <ele>1437</ele>
        <time>2024-07-14T07:17:26.000Z</time>
      </trkpt>
      <trkpt lat="45.03069" lon="5.49077">
        <ele>1436.4000244141</ele>
        <time>2024-07-14T07:17:27.000Z</time>
      </trkpt>
      <trkpt lat="45.03066" lon="5.49077">
        <ele>1435.5999755859</ele>
        <time>2024-07-14T07:17:28.000Z</time>
      </trkpt>
      <trkpt lat="45.03063" lon="5.49077">
        <ele>1435.1999511719</ele>
        <time>2024-07-14T07:17:29.000Z</time>
      </trkpt>
      <trkpt lat="45.0306" lon="5.49077">
        <ele>1435</ele>
        <time>2024-07-14T07:17:30.000Z</time>
      </trkpt>
      <trkpt lat="45.03057" lon="5.49077">
        <ele>1434.8000488281</ele>
        <time>2024-07-14T07:17:31.000Z</time>
      </trkpt>
      <trkpt lat="45.03054" lon="5.49077">
        <ele>1434.4000244141</ele>
        <time>2024-07-14T07:17:32.000Z</time>
      </trkpt>
      <trkpt lat="45.03051" lon="5.49077">
        <ele>1434.1999511719</ele>
        <time>2024-07-14T07:17:33.000Z</time>
      </trkpt>
      <trkpt lat="45.03048" lon="5.49076">
        <ele>1433.8000488281</ele>
        <time>2024-07-14T07:17:34.000Z</time>
      </trkpt>
      <trkpt lat="45.03045" lon="5.49075">
        <ele>1433.5999755859</ele>
        <time>2024-07-14T07:17:35.000Z</time>
      </trkpt>
      <trkpt lat="45.03041" lon="5.49074">
        <ele>1433.1999511719</ele>
        <time>2024-07-14T07:17:36.000Z</time>
      </trkpt>
      <trkpt lat="45.03038" lon="5.49073">
        <ele>1433</ele>
        <time>2024-07-14T07:17:37.000Z</time>
      </trkpt>
      <trkpt lat="45.03036" lon="5.49072">
        <ele>1432.8000488281</ele>
        <time>2024-07-14T07:17:38.000Z</time>
      </trkpt>
      <trkpt lat="45.03033" lon="5.49071">
        <ele>1432.8000488281</ele>
        <time>2024-07-14T07:17:39.000Z</time>
      </trkpt>
      <trkpt lat="45.03031" lon="5.4907">
        <ele>1432.8000488281</ele>
        <time>2024-07-14T07:17:40.000Z</time>
      </trkpt>
      <trkpt lat="45.03028" lon="5.49069">
        <ele>1432.8000488281</ele>
        <time>2024-07-14T07:17:41.000Z</time>
      </trkpt>
      <trkpt lat="45.03026" lon="5.49068">
        <ele>1432.8000488281</ele>
        <time>2024-07-14T07:17:42.000Z</time>
      </trkpt>
      <trkpt lat="45.03023" lon="5.49067">
        <ele>1432.8000488281</ele>
        <time>2024-07-14T07:17:43.000Z</time>
      </trkpt>
      <trkpt lat="45.03021" lon="5.49065">
        <ele>1433</ele>
        <time>2024-07-14T07:17:44.000Z</time>
      </trkpt>
      <trkpt lat="45.03018" lon="5.49064">
        <ele>1433.1999511719</ele>
        <time>2024-07-14T07:17:45.000Z</time>
      </trkpt>
      <trkpt lat="45.03016" lon="5.49063">
        <ele>1433.1999511719</ele>
        <time>2024-07-14T07:17:46.000Z</time>
      </trkpt>
      <trkpt lat="45.03014" lon="5.49063">
        <ele>1433.4000244141</ele>
        <time>2024-07-14T07:17:47.000Z</time>
      </trkpt>
      <trkpt lat="45.03011" lon="5.49062">
        <ele>1433.5999755859</ele>
        <time>2024-07-14T07:17:48.000Z</time>
      </trkpt>
      <trkpt lat="45.03008" lon="5.49063">
        <ele>1433.5999755859</ele>
        <time>2024-07-14T07:17:49.000Z</time>
      </trkpt>
      <trkpt lat="45.03005" lon="5.49063">
        <ele>1433.5999755859</ele>
        <time>2024-07-14T07:17:50.000Z</time>
      </trkpt>
      <trkpt lat="45.03003" lon="5.49063">
        <ele>1433.8000488281</ele>
        <time>2024-07-14T07:17:51.000Z</time>
      </trkpt>
      <trkpt lat="45.03" lon="5.49063">
        <ele>1434</ele>
        <time>2024-07-14T07:17:52.000Z</time>
      </trkpt>
      <trkpt lat="45.02998" lon="5.49063">
        <ele>1434.1999511719</ele>
        <time>2024-07-14T07:17:53.000Z</time>
      </trkpt>
      <trkpt lat="45.02995" lon="5.49063">
        <ele>1434.4000244141</ele>
        <time>2024-07-14T07:17:54.000Z</time>
      </trkpt>
      <trkpt lat="45.02992" lon="5.49063">
        <ele>1434.4000244141</ele>
        <time>2024-07-14T07:17:55.000Z</time>
      </trkpt>
      <trkpt lat="45.0299" lon="5.49063">
        <ele>1434.5999755859</ele>
        <time>2024-07-14T07:17:56.000Z</time>
      </trkpt>
      <trkpt lat="45.02987" lon="5.49063">
        <ele>1434.5999755859</ele>
        <time>2024-07-14T07:17:57.000Z</time>
      </trkpt>
      <trkpt lat="45.02985" lon="5.49063">
        <ele>1434.8000488281</ele>
        <time>2024-07-14T07:17:58.000Z</time>
      </trkpt>
      <trkpt lat="45.02983" lon="5.49064">
        <ele>1435</ele>
        <time>2024-07-14T07:17:59.000Z</time>
      </trkpt>
      <trkpt lat="45.02981" lon="5.49065">
        <ele>1435.1999511719</ele>
        <time>2024-07-14T07:18:00.000Z</time>
      </trkpt>
      <trkpt lat="45.02978" lon="5.49066">
        <ele>1435.4000244141</ele>
        <time>2024-07-14T07:18:01.000Z</time>
      </trkpt>
      <trkpt lat="45.02976" lon="5.49067">
        <ele>1435.5999755859</ele>
        <time>2024-07-14T07:18:02.000Z</time>
      </trkpt>
      <trkpt lat="45.02973" lon="5.49067">
        <ele>1435.5999755859</ele>
        <time>2024-07-14T07:18:03.000Z</time>
      </trkpt>
      <trkpt lat="45.02971" lon="5.49068">
        <ele>1435.8000488281</ele>
        <time>2024-07-14T07:18:04.000Z</time>
      </trkpt>
      <trkpt lat="45.02968" lon="5.49068">
        <ele>1436</ele>
        <time>2024-07-14T07:18:05.000Z</time>
      </trkpt>
      <trkpt lat="45.02965" lon="5.49069">
        <ele>1436</ele>
        <time>2024-07-14T07:18:06.000Z</time>
      </trkpt>
      <trkpt lat="45.02963" lon="5.49069">
        <ele>1436</ele>
        <time>2024-07-14T07:18:07.000Z</time>
      </trkpt>
      <trkpt lat="45.0296" lon="5.49069">
        <ele>1436</ele>
        <time>2024-07-14T07:18:08.000Z</time>
      </trkpt>
      <trkpt lat="45.02957" lon="5.4907">
        <ele>1435.8000488281</ele>
        <time>2024-07-14T07:18:09.000Z</time>
      </trkpt>
      <trkpt lat="45.02954" lon="5.4907">
        <ele>1435.8000488281</ele>
        <time>2024-07-14T07:18:10.000Z</time>
      </trkpt>
      <trkpt lat="45.02951" lon="5.49071">
        <ele>1435.5999755859</ele>
        <time>2024-07-14T07:18:11.000Z</time>
      </trkpt>
      <trkpt lat="45.02949" lon="5.49073">
        <ele>1435.4000244141</ele>
        <time>2024-07-14T07:18:12.000Z</time>
      </trkpt>
      <trkpt lat="45.02946" lon="5.49074">
        <ele>1435</ele>
        <time>2024-07-14T07:18:13.000Z</time>
      </trkpt>
      <trkpt lat="45.02943" lon="5.49075">
        <ele>1434.5999755859</ele>
        <time>2024-07-14T07:18:14.000Z</time>
      </trkpt>
      <trkpt lat="45.02941" lon="5.49077">
        <ele>1434.1999511719</ele>
        <time>2024-07-14T07:18:15.000Z</time>
      </trkpt>
      <trkpt lat="45.02938" lon="5.49078">
        <ele>1434</ele>
        <time>2024-07-14T07:18:16.000Z</time>
      </trkpt>
      <trkpt lat="45.02935" lon="5.49079">
        <ele>1433.8000488281</ele>
        <time>2024-07-14T07:18:17.000Z</time>
      </trkpt>
      <trkpt lat="45.02932" lon="5.49081">
        <ele>1433.5999755859</ele>
        <time>2024-07-14T07:18:18.000Z</time>
      </trkpt>
      <trkpt lat="45.02929" lon="5.49082">
        <ele>1433.4000244141</ele>
        <time>2024-07-14T07:18:19.000Z</time>
      </trkpt>
      <trkpt lat="45.02927" lon="5.49082">
        <ele>1433</ele>
        <time>2024-07-14T07:18:20.000Z</time>
      </trkpt>
      <trkpt lat="45.02924" lon="5.49083">
        <ele>1432.8000488281</ele>
        <time>2024-07-14T07:18:21.000Z</time>
      </trkpt>
      <trkpt lat="45.02921" lon="5.49085">
        <ele>1432.5999755859</ele>
        <time>2024-07-14T07:18:22.000Z</time>
      </trkpt>
      <trkpt lat="45.02918" lon="5.49085">
        <ele>1432.4000244141</ele>
        <time>2024-07-14T07:18:23.000Z</time>
      </trkpt>
      <trkpt lat="45.02915" lon="5.49086">
        <ele>1432</ele>
        <time>2024-07-14T07:18:24.000Z</time>
      </trkpt>
      <trkpt lat="45.02912" lon="5.49087">
        <ele>1431.8000488281</ele>
        <time>2024-07-14T07:18:25.000Z</time>
      </trkpt>
      <trkpt lat="45.02909" lon="5.49087">
        <ele>1431.4000244141</ele>
        <time>2024-07-14T07:18:26.000Z</time>
      </trkpt>
      <trkpt lat="45.02906" lon="5.49088">
        <ele>1430.5999755859</ele>
        <time>2024-07-14T07:18:27.000Z</time>
      </trkpt>
      <trkpt lat="45.02903" lon="5.49088">
        <ele>1430.1999511719</ele>
        <time>2024-07-14T07:18:28.000Z</time>
      </trkpt>
      <trkpt lat="45.029" lon="5.49088">
        <ele>1429.8000488281</ele>
        <time>2024-07-14T07:18:29.000Z</time>
      </trkpt>
      <trkpt lat="45.02897" lon="5.49088">
        <ele>1429.5999755859</ele>
        <time>2024-07-14T07:18:30.000Z</time>
      </trkpt>
      <trkpt lat="45.02894" lon="5.49089">
        <ele>1429.1999511719</ele>
        <time>2024-07-14T07:18:31.000Z</time>
      </trkpt>
      <trkpt lat="45.02891" lon="5.49089">
        <ele>1429</ele>
        <time>2024-07-14T07:18:32.000Z</time>
      </trkpt>
      <trkpt lat="45.02888" lon="5.4909">
        <ele>1428.5999755859</ele>
        <time>2024-07-14T07:18:33.000Z</time>
      </trkpt>
      <trkpt lat="45.02885" lon="5.4909">
        <ele>1428.1999511719</ele>
        <time>2024-07-14T07:18:34.000Z</time>
      </trkpt>
      <trkpt lat="45.02883" lon="5.49091">
        <ele>1428</ele>
        <time>2024-07-14T07:18:35.000Z</time>
      </trkpt>
      <trkpt lat="45.02879" lon="5.49091">
        <ele>1427.8000488281</ele>
        <time>2024-07-14T07:18:36.000Z</time>
      </trkpt>
      <trkpt lat="45.02876" lon="5.49091">
        <ele>1427.5999755859</ele>
        <time>2024-07-14T07:18:37.000Z</time>
      </trkpt>
      <trkpt lat="45.02873" lon="5.49091">
        <ele>1427.4000244141</ele>
        <time>2024-07-14T07:18:38.000Z</time>
      </trkpt>
      <trkpt lat="45.0287" lon="5.49092">
        <ele>1427.4000244141</ele>
        <time>2024-07-14T07:18:39.000Z</time>
      </trkpt>
      <trkpt lat="45.02867" lon="5.49092">
        <ele>1427.1999511719</ele>
        <time>2024-07-14T07:18:40.000Z</time>
      </trkpt>
      <trkpt lat="45.02864" lon="5.49092">
        <ele>1426.8000488281</ele>
        <time>2024-07-14T07:18:41.000Z</time>
      </trkpt>
      <trkpt lat="45.02861" lon="5.49092">
        <ele>1426.4000244141</ele>
        <time>2024-07-14T07:18:42.000Z</time>
      </trkpt>
      <trkpt lat="45.02858" lon="5.49091">
        <ele>1426.1999511719</ele>
        <time>2024-07-14T07:18:43.000Z</time>
      </trkpt>
      <trkpt lat="45.02856" lon="5.49091">
        <ele>1426</ele>
        <time>2024-07-14T07:18:44.000Z</time>
      </trkpt>
      <trkpt lat="45.02853" lon="5.49091">
        <ele>1425.8000488281</ele>
        <time>2024-07-14T07:18:45.000Z</time>
      </trkpt>
      <trkpt lat="45.0285" lon="5.49091">
        <ele>1425.5999755859</ele>
        <time>2024-07-14T07:18:46.000Z</time>
      </trkpt>
      <trkpt lat="45.02848" lon="5.4909">
        <ele>1425.5999755859</ele>
        <time>2024-07-14T07:18:47.000Z</time>
      </trkpt>
      <trkpt lat="45.02845" lon="5.49089">
        <ele>1425.4000244141</ele>
        <time>2024-07-14T07:18:48.000Z</time>
      </trkpt>
      <trkpt lat="45.02842" lon="5.49089">
        <ele>1425.4000244141</ele>
        <time>2024-07-14T07:18:49.000Z</time>
      </trkpt>
      <trkpt lat="45.0284" lon="5.49089">
        <ele>1425.1999511719</ele>
        <time>2024-07-14T07:18:50.000Z</time>
      </trkpt>
      <trkpt lat="45.02837" lon="5.49088">
        <ele>1425.4000244141</ele>
        <time>2024-07-14T07:18:51.000Z</time>
      </trkpt>
      <trkpt lat="45.02835" lon="5.49088">
        <ele>1425.4000244141</ele>
        <time>2024-07-14T07:18:52.000Z</time>
      </trkpt>
      <trkpt lat="45.02832" lon="5.49087">
        <ele>1425.5999755859</ele>
        <time>2024-07-14T07:18:53.000Z</time>
      </trkpt>
      <trkpt lat="45.0283" lon="5.49086">
        <ele>1426.1999511719</ele>
        <time>2024-07-14T07:18:54.000Z</time>
      </trkpt>
      <trkpt lat="45.02827" lon="5.49086">
        <ele>1426.4000244141</ele>
        <time>2024-07-14T07:18:55.000Z</time>
      </trkpt>
      <trkpt lat="45.02825" lon="5.49085">
        <ele>1426.4000244141</ele>
        <time>2024-07-14T07:18:56.000Z</time>
      </trkpt>
      <trkpt lat="45.02822" lon="5.49085">
        <ele>1426.5999755859</ele>
        <time>2024-07-14T07:18:57.000Z</time>
      </trkpt>
      <trkpt lat="45.0282" lon="5.49084">
        <ele>1426.8000488281</ele>
        <time>2024-07-14T07:18:58.000Z</time>
      </trkpt>
      <trkpt lat="45.02818" lon="5.49084">
        <ele>1427</ele>
        <time>2024-07-14T07:18:59.000Z</time>
      </trkpt>
      <trkpt lat="45.02817" lon="5.49083">
        <ele>1427.1999511719</ele>
        <time>2024-07-14T07:19:00.000Z</time>
      </trkpt>
      <trkpt lat="45.02815" lon="5.49083">
        <ele>1427.4000244141</ele>
        <time>2024-07-14T07:19:01.000Z</time>
      </trkpt>
      <trkpt lat="45.02813" lon="5.49082">
        <ele>1427.5999755859</ele>
        <time>2024-07-14T07:19:02.000Z</time>
      </trkpt>
      <trkpt lat="45.02812" lon="5.49081">
        <ele>1428</ele>
        <time>2024-07-14T07:19:03.000Z</time>
      </trkpt>
      <trkpt lat="45.02811" lon="5.4908">
        <ele>1428.1999511719</ele>
        <time>2024-07-14T07:19:04.000Z</time>
      </trkpt>
      <trkpt lat="45.0281" lon="5.49079">
        <ele>1428.5999755859</ele>
        <time>2024-07-14T07:19:05.000Z</time>
      </trkpt>
      <trkpt lat="45.02809" lon="5.49078">
        <ele>1428.8000488281</ele>
        <time>2024-07-14T07:19:06.000Z</time>
      </trkpt>
      <trkpt lat="45.02807" lon="5.49076">
        <ele>1429</ele>
        <time>2024-07-14T07:19:07.000Z</time>
      </trkpt>
      <trkpt lat="45.02806" lon="5.49074">
        <ele>1429.1999511719</ele>
        <time>2024-07-14T07:19:08.000Z</time>
      </trkpt>
      <trkpt lat="45.02805" lon="5.49072">
        <ele>1429.5999755859</ele>
        <time>2024-07-14T07:19:09.000Z</time>
      </trkpt>
      <trkpt lat="45.02803" lon="5.49071">
        <ele>1430</ele>
        <time>2024-07-14T07:19:10.000Z</time>
      </trkpt>
      <trkpt lat="45.02801" lon="5.49069">
        <ele>1430.4000244141</ele>
        <time>2024-07-14T07:19:11.000Z</time>
      </trkpt>
      <trkpt lat="45.028" lon="5.49067">
        <ele>1430.8000488281</ele>
        <time>2024-07-14T07:19:12.000Z</time>
      </trkpt>
      <trkpt lat="45.02799" lon="5.49065">
        <ele>1431</ele>
        <time>2024-07-14T07:19:13.000Z</time>
      </trkpt>
      <trkpt lat="45.02797" lon="5.49063">
        <ele>1431.1999511719</ele>
        <time>2024-07-14T07:19:14.000Z</time>
      </trkpt>
      <trkpt lat="45.02795" lon="5.49062">
        <ele>1431.4000244141</ele>
        <time>2024-07-14T07:19:15.000Z</time>
      </trkpt>
      <trkpt lat="45.02793" lon="5.4906">
        <ele>1431.8000488281</ele>
        <time>2024-07-14T07:19:16.000Z</time>
      </trkpt>
      <trkpt lat="45.02791" lon="5.49058">
        <ele>1432</ele>
        <time>2024-07-14T07:19:17.000Z</time>
      </trkpt>
      <trkpt lat="45.02789" lon="5.49056">
        <ele>1432.1999511719</ele>
        <time>2024-07-14T07:19:18.000Z</time>
      </trkpt>
      <trkpt lat="45.02787" lon="5.49055">
        <ele>1432.4000244141</ele>
        <time>2024-07-14T07:19:19.000Z</time>
      </trkpt>
      <trkpt lat="45.02785" lon="5.49053">
        <ele>1432.5999755859</ele>
        <time>2024-07-14T07:19:20.000Z</time>
      </trkpt>
      <trkpt lat="45.02783" lon="5.49052">
        <ele>1432.5999755859</ele>
        <time>2024-07-14T07:19:21.000Z</time>
      </trkpt>
      <trkpt lat="45.02781" lon="5.4905">
        <ele>1432.8000488281</ele>
        <time>2024-07-14T07:19:22.000Z</time>
      </trkpt>
      <trkpt lat="45.02779" lon="5.49048">
        <ele>1432.8000488281</ele>
        <time>2024-07-14T07:19:23.000Z</time>
      </trkpt>
      <trkpt lat="45.02777" lon="5.49047">
        <ele>1433</ele>
        <time>2024-07-14T07:19:24.000Z</time>
      </trkpt>
      <trkpt lat="45.02775" lon="5.49045">
        <ele>1433</ele>
        <time>2024-07-14T07:19:25.000Z</time>
      </trkpt>
      <trkpt lat="45.02773" lon="5.49043">
        <ele>1433.1999511719</ele>
        <time>2024-07-14T07:19:26.000Z</time>
      </trkpt>
      <trkpt lat="45.0277" lon="5.49042">
        <ele>1433.1999511719</ele>
        <time>2024-07-14T07:19:27.000Z</time>
      </trkpt>
      <trkpt lat="45.02769" lon="5.4904">
        <ele>1433.1999511719</ele>
        <time>2024-07-14T07:19:28.000Z</time>
      </trkpt>
      <trkpt lat="45.02767" lon="5.49039">
        <ele>1433.1999511719</ele>
        <time>2024-07-14T07:19:29.000Z</time>
      </trkpt>
      <trkpt lat="45.02765" lon="5.49037">
        <ele>1433.1999511719</ele>
        <time>2024-07-14T07:19:30.000Z</time>
      </trkpt>
      <trkpt lat="45.02762" lon="5.49036">
        <ele>1433.4000244141</ele>
        <time>2024-07-14T07:19:31.000Z</time>
      </trkpt>
      <trkpt lat="45.0276" lon="5.49035">
        <ele>1433.4000244141</ele>
        <time>2024-07-14T07:19:32.000Z</time>
      </trkpt>
      <trkpt lat="45.02758" lon="5.49034">
        <ele>1433.4000244141</ele>
        <time>2024-07-14T07:19:33.000Z</time>
      </trkpt>
      <trkpt lat="45.02756" lon="5.49033">
        <ele>1433.4000244141</ele>
        <time>2024-07-14T07:19:34.000Z</time>
      </trkpt>
      <trkpt lat="45.02753" lon="5.49033">
        <ele>1433.4000244141</ele>
        <time>2024-07-14T07:19:35.000Z</time>
      </trkpt>
      <trkpt lat="45.02751" lon="5.49032">
        <ele>1433.1999511719</ele>
        <time>2024-07-14T07:19:36.000Z</time>
      </trkpt>
      <trkpt lat="45.02749" lon="5.49032">
        <ele>1433</ele>
        <time>2024-07-14T07:19:37.000Z</time>
      </trkpt>
      <trkpt lat="45.02746" lon="5.49032">
        <ele>1433</ele>
        <time>2024-07-14T07:19:38.000Z</time>
      </trkpt>
      <trkpt lat="45.02744" lon="5.49032">
        <ele>1432.8000488281</ele>
        <time>2024-07-14T07:19:39.000Z</time>
      </trkpt>
      <trkpt lat="45.02741" lon="5.49033">
        <ele>1432.4000244141</ele>
        <time>2024-07-14T07:19:40.000Z</time>
      </trkpt>
      <trkpt lat="45.02738" lon="5.49033">
        <ele>1432</ele>
        <time>2024-07-14T07:19:41.000Z</time>
      </trkpt>
      <trkpt lat="45.02736" lon="5.49034">
        <ele>1431.5999755859</ele>
        <time>2024-07-14T07:19:42.000Z</time>
      </trkpt>
      <trkpt lat="45.02733" lon="5.49036">
        <ele>1431</ele>
        <time>2024-07-14T07:19:43.000Z</time>
      </trkpt>
      <trkpt lat="45.0273" lon="5.49037">
        <ele>1430.5999755859</ele>
        <time>2024-07-14T07:19:44.000Z</time>
      </trkpt>
      <trkpt lat="45.02728" lon="5.49039">
        <ele>1430.1999511719</ele>
        <time>2024-07-14T07:19:45.000Z</time>
      </trkpt>
      <trkpt lat="45.02725" lon="5.4904">
        <ele>1430</ele>
        <time>2024-07-14T07:19:46.000Z</time>
      </trkpt>
      <trkpt lat="45.02722" lon="5.49042">
        <ele>1429.8000488281</ele>
        <time>2024-07-14T07:19:47.000Z</time>
      </trkpt>
      <trkpt lat="45.02719" lon="5.49043">
        <ele>1429.4000244141</ele>
        <time>2024-07-14T07:19:48.000Z</time>
      </trkpt>
      <trkpt lat="45.02717" lon="5.49045">
        <ele>1429</ele>
        <time>2024-07-14T07:19:49.000Z</time>
      </trkpt>
      <trkpt lat="45.02714" lon="5.49046">
        <ele>1428.5999755859</ele>
        <time>2024-07-14T07:19:50.000Z</time>
      </trkpt>
      <trkpt lat="45.02711" lon="5.49048">
        <ele>1428.4000244141</ele>
        <time>2024-07-14T07:19:51.000Z</time>
      </trkpt>
      <trkpt lat="45.02708" lon="5.4905">
        <ele>1428.1999511719</ele>
        <time>2024-07-14T07:19:52.000Z</time>
      </trkpt>
      <trkpt lat="45.02706" lon="5.49052">
        <ele>1428</ele>
        <time>2024-07-14T07:19:53.000Z</time>
      </trkpt>
      <trkpt lat="45.02703" lon="5.49054">
        <ele>1428</ele>
        <time>2024-07-14T07:19:54.000Z</time>
      </trkpt>
      <trkpt lat="45.02701" lon="5.49056">
        <ele>1427.8000488281</ele>
        <time>2024-07-14T07:19:55.000Z</time>
      </trkpt>
      <trkpt lat="45.02698" lon="5.49058">
        <ele>1427.5999755859</ele>
        <time>2024-07-14T07:19:56.000Z</time>
      </trkpt>
      <trkpt lat="45.02696" lon="5.4906">
        <ele>1427.4000244141</ele>
        <time>2024-07-14T07:19:57.000Z</time>
      </trkpt>
      <trkpt lat="45.02693" lon="5.49061">
        <ele>1427.4000244141</ele>
        <time>2024-07-14T07:19:58.000Z</time>
      </trkpt>
      <trkpt lat="45.02691" lon="5.49063">
        <ele>1427.4000244141</ele>
        <time>2024-07-14T07:19:59.000Z</time>
      </trkpt>
      <trkpt lat="45.02688" lon="5.49064">
        <ele>1427.4000244141</ele>
        <time>2024-07-14T07:20:00.000Z</time>
      </trkpt>
      <trkpt lat="45.02685" lon="5.49066">
        <ele>1427.5999755859</ele>
        <time>2024-07-14T07:20:01.000Z</time>
      </trkpt>
      <trkpt lat="45.02682" lon="5.49068">
        <ele>1427.8000488281</ele>
        <time>2024-07-14T07:20:02.000Z</time>
      </trkpt>
      <trkpt lat="45.0268" lon="5.49069">
        <ele>1428</ele>
        <time>2024-07-14T07:20:03.000Z</time>
      </trkpt>
      <trkpt lat="45.02678" lon="5.49069">
        <ele>1428.1999511719</ele>
        <time>2024-07-14T07:20:04.000Z</time>
      </trkpt>
      <trkpt lat="45.02676" lon="5.4907">
        <ele>1428.5999755859</ele>
        <time>2024-07-14T07:20:05.000Z</time>
      </trkpt>
      <trkpt lat="45.02674" lon="5.49071">
        <ele>1428.8000488281</ele>
        <time>2024-07-14T07:20:06.000Z</time>
      </trkpt>
      <trkpt lat="45.02671" lon="5.49071">
        <ele>1429</ele>
        <time>2024-07-14T07:20:07.000Z</time>
      </trkpt>
      <trkpt lat="45.02668" lon="5.49072">
        <ele>1429.1999511719</ele>
        <time>2024-07-14T07:20:08.000Z</time>
      </trkpt>
      <trkpt lat="45.02666" lon="5.49072">
        <ele>1429.4000244141</ele>
        <time>2024-07-14T07:20:09.000Z</time>
      </trkpt>
      <trkpt lat="45.02663" lon="5.49072">
        <ele>1429.4000244141</ele>
        <time>2024-07-14T07:20:10.000Z</time>
      </trkpt>
      <trkpt lat="45.02661" lon="5.49072">
        <ele>1429.4000244141</ele>
        <time>2024-07-14T07:20:11.000Z</time>
      </trkpt>
      <trkpt lat="45.02658" lon="5.49073">
        <ele>1429.4000244141</ele>
        <time>2024-07-14T07:20:12.000Z</time>
      </trkpt>
      <trkpt lat="45.02655" lon="5.49073">
        <ele>1429.1999511719</ele>
        <time>2024-07-14T07:20:13.000Z</time>
      </trkpt>
      <trkpt lat="45.02653" lon="5.49073">
        <ele>1429.1999511719</ele>
        <time>2024-07-14T07:20:14.000Z</time>
      </trkpt>
      <trkpt lat="45.0265" lon="5.49073">
        <ele>1429</ele>
        <time>2024-07-14T07:20:15.000Z</time>
      </trkpt>
      <trkpt lat="45.02646" lon="5.49073">
        <ele>1428.8000488281</ele>
        <time>2024-07-14T07:20:16.000Z</time>
      </trkpt>
      <trkpt lat="45.02644" lon="5.49073">
        <ele>1428.4000244141</ele>
        <time>2024-07-14T07:20:17.000Z</time>
      </trkpt>
      <trkpt lat="45.02641" lon="5.49073">
        <ele>1428</ele>
        <time>2024-07-14T07:20:18.000Z</time>
      </trkpt>
      <trkpt lat="45.02638" lon="5.49073">
        <ele>1427.4000244141</ele>
        <time>2024-07-14T07:20:19.000Z</time>
      </trkpt>
      <trkpt lat="45.02635" lon="5.49072">
        <ele>1427</ele>
        <time>2024-07-14T07:20:20.000Z</time>
      </trkpt>
      <trkpt lat="45.02632" lon="5.49072">
        <ele>1426.8000488281</ele>
        <time>2024-07-14T07:20:21.000Z</time>
      </trkpt>
      <trkpt lat="45.02629" lon="5.49071">
        <ele>1426.4000244141</ele>
        <time>2024-07-14T07:20:22.000Z</time>
      </trkpt>
      <trkpt lat="45.02626" lon="5.4907">
        <ele>1426</ele>
        <time>2024-07-14T07:20:23.000Z</time>
      </trkpt>
      <trkpt lat="45.02623" lon="5.49068">
        <ele>1426</ele>
        <time>2024-07-14T07:20:24.000Z</time>
      </trkpt>
      <trkpt lat="45.0262" lon="5.49065">
        <ele>1425.8000488281</ele>
        <time>2024-07-14T07:20:25.000Z</time>
      </trkpt>
      <trkpt lat="45.02618" lon="5.49062">
        <ele>1425.8000488281</ele>
        <time>2024-07-14T07:20:26.000Z</time>
      </trkpt>
      <trkpt lat="45.02616" lon="5.49059">
        <ele>1425.5999755859</ele>
        <time>2024-07-14T07:20:27.000Z</time>
      </trkpt>
      <trkpt lat="45.02614" lon="5.49056">
        <ele>1425.4000244141</ele>
        <time>2024-07-14T07:20:28.000Z</time>
      </trkpt>
      <trkpt lat="45.02613" lon="5.49052">
        <ele>1425.4000244141</ele>
        <time>2024-07-14T07:20:29.000Z</time>
      </trkpt>
      <trkpt lat="45.02612" lon="5.4905">
        <ele>1425.4000244141</ele>
        <time>2024-07-14T07:20:30.000Z</time>
      </trkpt>
      <trkpt lat="45.0261" lon="5.49046">
        <ele>1425.4000244141</ele>
        <time>2024-07-14T07:20:31.000Z</time>
      </trkpt>
      <trkpt lat="45.02609" lon="5.49044">
        <ele>1425.5999755859</ele>
        <time>2024-07-14T07:20:32.000Z</time>
      </trkpt>
      <trkpt lat="45.02608" lon="5.49042">
        <ele>1425.8000488281</ele>
        <time>2024-07-14T07:20:33.000Z</time>
      </trkpt>
      <trkpt lat="45.02606" lon="5.49039">
        <ele>1426</ele>
        <time>2024-07-14T07:20:34.000Z</time>
      </trkpt>
      <trkpt lat="45.02605" lon="5.49037">
        <ele>1426.1999511719</ele>
        <time>2024-07-14T07:20:35.000Z</time>
      </trkpt>
      <trkpt lat="45.02603" lon="5.49034">
        <ele>1426.5999755859</ele>
        <time>2024-07-14T07:20:36.000Z</time>
      </trkpt>
      <trkpt lat="45.02602" lon="5.4903">
        <ele>1426.8000488281</ele>
        <time>2024-07-14T07:20:37.000Z</time>
      </trkpt>
      <trkpt lat="45.02602" lon="5.49028">
        <ele>1427</ele>
        <time>2024-07-14T07:20:38.000Z</time>
      </trkpt>
      <trkpt lat="45.02601" lon="5.49024">
        <ele>1427.1999511719</ele>
        <time>2024-07-14T07:20:39.000Z</time>
      </trkpt>
      <trkpt lat="45.02601" lon="5.4902">
        <ele>1427.4000244141</ele>
        <time>2024-07-14T07:20:40.000Z</time>
      </trkpt>
      <trkpt lat="45.026" lon="5.49017">
        <ele>1428</ele>
        <time>2024-07-14T07:20:41.000Z</time>
      </trkpt>
      <trkpt lat="45.026" lon="5.49014">
        <ele>1428</ele>
        <time>2024-07-14T07:20:42.000Z</time>
      </trkpt>
      <trkpt lat="45.026" lon="5.4901">
        <ele>1428.1999511719</ele>
        <time>2024-07-14T07:20:43.000Z</time>
      </trkpt>
      <trkpt lat="45.02599" lon="5.49007">
        <ele>1428.1999511719</ele>
        <time>2024-07-14T07:20:44.000Z</time>
      </trkpt>
      <trkpt lat="45.02599" lon="5.49003">
        <ele>1428.1999511719</ele>
        <time>2024-07-14T07:20:45.000Z</time>
      </trkpt>
      <trkpt lat="45.02599" lon="5.49">
        <ele>1428.1999511719</ele>
        <time>2024-07-14T07:20:46.000Z</time>
      </trkpt>
      <trkpt lat="45.02598" lon="5.48995">
        <ele>1428.1999511719</ele>
        <time>2024-07-14T07:20:47.000Z</time>
      </trkpt>
      <trkpt lat="45.02599" lon="5.48991">
        <ele>1428</ele>
        <time>2024-07-14T07:20:48.000Z</time>
      </trkpt>
      <trkpt lat="45.02598" lon="5.48987">
        <ele>1427.5999755859</ele>
        <time>2024-07-14T07:20:49.000Z</time>
      </trkpt>
      <trkpt lat="45.02598" lon="5.48982">
        <ele>1427</ele>
        <time>2024-07-14T07:20:50.000Z</time>
      </trkpt>
      <trkpt lat="45.02598" lon="5.48978">
        <ele>1426.8000488281</ele>
        <time>2024-07-14T07:20:51.000Z</time>
      </trkpt>
      <trkpt lat="45.02598" lon="5.48975">
        <ele>1426.4000244141</ele>
        <time>2024-07-14T07:20:52.000Z</time>
      </trkpt>
      <trkpt lat="45.02597" lon="5.48971">
        <ele>1426.4000244141</ele>
        <time>2024-07-14T07:20:53.000Z</time>
      </trkpt>
      <trkpt lat="45.02596" lon="5.48967">
        <ele>1426.1999511719</ele>
        <time>2024-07-14T07:20:54.000Z</time>
      </trkpt>
      <trkpt lat="45.02595" lon="5.48964">
        <ele>1426.1999511719</ele>
        <time>2024-07-14T07:20:55.000Z</time>
      </trkpt>
      <trkpt lat="45.02594" lon="5.48961">
        <ele>1426.1999511719</ele>
        <time>2024-07-14T07:20:56.000Z</time>
      </trkpt>
      <trkpt lat="45.02593" lon="5.48959">
        <ele>1426.1999511719</ele>
        <time>2024-07-14T07:20:57.000Z</time>
      </trkpt>
      <trkpt lat="45.02592" lon="5.48957">
        <ele>1426.4000244141</ele>
        <time>2024-07-14T07:20:58.000Z</time>
      </trkpt>
      <trkpt lat="45.0259" lon="5.48955">
        <ele>1426.4000244141</ele>
        <time>2024-07-14T07:20:59.000Z</time>
      </trkpt>
      <trkpt lat="45.02588" lon="5.48953">
        <ele>1426.5999755859</ele>
        <time>2024-07-14T07:21:00.000Z</time>
      </trkpt>
      <trkpt lat="45.02587" lon="5.48952">
        <ele>1426.5999755859</ele>
        <time>2024-07-14T07:21:01.000Z</time>
      </trkpt>
      <trkpt lat="45.02585" lon="5.4895">
        <ele>1426.8000488281</ele>
        <time>2024-07-14T07:21:02.000Z</time>
      </trkpt>
      <trkpt lat="45.02584" lon="5.48948">
        <ele>1427</ele>
        <time>2024-07-14T07:21:03.000Z</time>
      </trkpt>
      <trkpt lat="45.02583" lon="5.48947">
        <ele>1427.1999511719</ele>
        <time>2024-07-14T07:21:04.000Z</time>
      </trkpt>
      <trkpt lat="45.02581" lon="5.48946">
        <ele>1427.4000244141</ele>
        <time>2024-07-14T07:21:05.000Z</time>
      </trkpt>
      <trkpt lat="45.0258" lon="5.48944">
        <ele>1427.8000488281</ele>
        <time>2024-07-14T07:21:06.000Z</time>
      </trkpt>
      <trkpt lat="45.02578" lon="5.48943">
        <ele>1428.1999511719</ele>
        <time>2024-07-14T07:21:07.000Z</time>
      </trkpt>
      <trkpt lat="45.02577" lon="5.48941">
        <ele>1428.4000244141</ele>
        <time>2024-07-14T07:21:08.000Z</time>
      </trkpt>
      <trkpt lat="45.02575" lon="5.48938">
        <ele>1428.8000488281</ele>
        <time>2024-07-14T07:21:09.000Z</time>
      </trkpt>
      <trkpt lat="45.02574" lon="5.48937">
        <ele>1429.1999511719</ele>
        <time>2024-07-14T07:21:10.000Z</time>
      </trkpt>
      <trkpt lat="45.02574" lon="5.48936">
        <ele>1429.5999755859</ele>
        <time>2024-07-14T07:21:11.000Z</time>
      </trkpt>
      <trkpt lat="45.02573" lon="5.48934">
        <ele>1429.8000488281</ele>
        <time>2024-07-14T07:21:12.000Z</time>
      </trkpt>
      <trkpt lat="45.02573" lon="5.48932">
        <ele>1430</ele>
        <time>2024-07-14T07:21:13.000Z</time>
      </trkpt>
      <trkpt lat="45.02573" lon="5.4893">
        <ele>1430.4000244141</ele>
        <time>2024-07-14T07:21:14.000Z</time>
      </trkpt>
      <trkpt lat="45.02573" lon="5.48927">
        <ele>1430.5999755859</ele>
        <time>2024-07-14T07:21:15.000Z</time>
      </trkpt>
      <trkpt lat="45.02573" lon="5.48925">
        <ele>1430.8000488281</ele>
        <time>2024-07-14T07:21:16.000Z</time>
      </trkpt>
      <trkpt lat="45.02573" lon="5.48923">
        <ele>1431.1999511719</ele>
        <time>2024-07-14T07:21:17.000Z</time>
      </trkpt>
      <trkpt lat="45.02573" lon="5.4892">
        <ele>1431.4000244141</ele>
        <time>2024-07-14T07:21:18.000Z</time>
      </trkpt>
      <trkpt lat="45.02573" lon="5.48918">
        <ele>1431.5999755859</ele>
        <time>2024-07-14T07:21:19.000Z</time>
      </trkpt>
      <trkpt lat="45.02573" lon="5.48916">
        <ele>1431.8000488281</ele>
        <time>2024-07-14T07:21:20.000Z</time>
      </trkpt>
      <trkpt lat="45.02573" lon="5.48914">
        <ele>1432.1999511719</ele>
        <time>2024-07-14T07:21:21.000Z</time>
      </trkpt>
      <trkpt lat="45.02573" lon="5.48912">
        <ele>1432.4000244141</ele>
        <time>2024-07-14T07:21:22.000Z</time>
      </trkpt>
      <trkpt lat="45.02574" lon="5.48911">
        <ele>1432.8000488281</ele>
        <time>2024-07-14T07:21:23.000Z</time>
      </trkpt>
      <trkpt lat="45.02574" lon="5.48909">
        <ele>1433</ele>
        <time>2024-07-14T07:21:24.000Z</time>
      </trkpt>
      <trkpt lat="45.02574" lon="5.48909">
        <ele>1433.1999511719</ele>
        <time>2024-07-14T07:21:25.000Z</time>
      </trkpt>
      <trkpt lat="45.02574" lon="5.48907">
        <ele>1433.8000488281</ele>
        <time>2024-07-14T07:21:26.000Z</time>
      </trkpt>
      <trkpt lat="45.02574" lon="5.48905">
        <ele>1434.1999511719</ele>
        <time>2024-07-14T07:21:27.000Z</time>
      </trkpt>
      <trkpt lat="45.02573" lon="5.48902">
        <ele>1434.4000244141</ele>
        <time>2024-07-14T07:21:28.000Z</time>
      </trkpt>
      <trkpt lat="45.02573" lon="5.489">
        <ele>1434.8000488281</ele>
        <time>2024-07-14T07:21:29.000Z</time>
      </trkpt>
      <trkpt lat="45.02573" lon="5.48899">
        <ele>1435</ele>
        <time>2024-07-14T07:21:30.000Z</time>
      </trkpt>
      <trkpt lat="45.02573" lon="5.48897">
        <ele>1435.4000244141</ele>
        <time>2024-07-14T07:21:31.000Z</time>
      </trkpt>
      <trkpt lat="45.02573" lon="5.48895">
        <ele>1436</ele>
        <time>2024-07-14T07:21:32.000Z</time>
      </trkpt>
      <trkpt lat="45.02573" lon="5.48893">
        <ele>1436.1999511719</ele>
        <time>2024-07-14T07:21:33.000Z</time>
      </trkpt>
      <trkpt lat="45.02573" lon="5.48891">
        <ele>1436.4000244141</ele>
        <time>2024-07-14T07:21:34.000Z</time>
      </trkpt>
      <trkpt lat="45.02572" lon="5.4889">
        <ele>1436.8000488281</ele>
        <time>2024-07-14T07:21:35.000Z</time>
      </trkpt>
      <trkpt lat="45.02572" lon="5.48888">
        <ele>1437</ele>
        <time>2024-07-14T07:21:36.000Z</time>
      </trkpt>
      <trkpt lat="45.02572" lon="5.48885">
        <ele>1437.1999511719</ele>
        <time>2024-07-14T07:21:37.000Z</time>
      </trkpt>
      <trkpt lat="45.02571" lon="5.48883">
        <ele>1437.5999755859</ele>
        <time>2024-07-14T07:21:38.000Z</time>
      </trkpt>
      <trkpt lat="45.02571" lon="5.48881">
        <ele>1437.8000488281</ele>
        <time>2024-07-14T07:21:39.000Z</time>
      </trkpt>
      <trkpt lat="45.02571" lon="5.4888">
        <ele>1438</ele>
        <time>2024-07-14T07:21:40.000Z</time>
      </trkpt>
      <trkpt lat="45.0257" lon="5.48878">
        <ele>1438.1999511719</ele>
        <time>2024-07-14T07:21:41.000Z</time>
      </trkpt>
      <trkpt lat="45.02569" lon="5.48877">
        <ele>1438.4000244141</ele>
        <time>2024-07-14T07:21:42.000Z</time>
      </trkpt>
      <trkpt lat="45.02568" lon="5.48875">
        <ele>1438.5999755859</ele>
        <time>2024-07-14T07:21:43.000Z</time>
      </trkpt>
      <trkpt lat="45.02568" lon="5.48874">
        <ele>1438.8000488281</ele>
        <time>2024-07-14T07:21:44.000Z</time>
      </trkpt>
      <trkpt lat="45.02567" lon="5.48873">
        <ele>1439</ele>
        <time>2024-07-14T07:21:45.000Z</time>
      </trkpt>
      <trkpt lat="45.02566" lon="5.48871">
        <ele>1439</ele>
        <time>2024-07-14T07:21:46.000Z</time>
      </trkpt>
      <trkpt lat="45.02565" lon="5.48869">
        <ele>1439.1999511719</ele>
        <time>2024-07-14T07:21:47.000Z</time>
      </trkpt>
      <trkpt lat="45.02564" lon="5.48868">
        <ele>1439.4000244141</ele>
        <time>2024-07-14T07:21:48.000Z</time>
      </trkpt>
      <trkpt lat="45.02563" lon="5.48866">
        <ele>1439.8000488281</ele>
        <time>2024-07-14T07:21:49.000Z</time>
      </trkpt>
      <trkpt lat="45.02562" lon="5.48865">
        <ele>1440.1999511719</ele>
        <time>2024-07-14T07:21:50.000Z</time>
      </trkpt>
      <trkpt lat="45.02562" lon="5.48865">
        <ele>1440.4000244141</ele>
        <time>2024-07-14T07:21:51.000Z</time>
      </trkpt>
      <trkpt lat="45.02561" lon="5.48864">
        <ele>1440.8000488281</ele>
        <time>2024-07-14T07:21:52.000Z</time>
      </trkpt>
      <trkpt lat="45.02561" lon="5.48862">
        <ele>1441</ele>
        <time>2024-07-14T07:21:53.000Z</time>
      </trkpt>
      <trkpt lat="45.0256" lon="5.4886">
        <ele>1441.1999511719</ele>
        <time>2024-07-14T07:21:54.000Z</time>
      </trkpt>
      <trkpt lat="45.0256" lon="5.48858">
        <ele>1441.8000488281</ele>
        <time>2024-07-14T07:21:55.000Z</time>
      </trkpt>
      <trkpt lat="45.0256" lon="5.48857">
        <ele>1442</ele>
        <time>2024-07-14T07:21:56.000Z</time>
      </trkpt>
      <trkpt lat="45.02559" lon="5.48857">
        <ele>1442.1999511719</ele>
        <time>2024-07-14T07:21:57.000Z</time>
      </trkpt>
      <trkpt lat="45.02559" lon="5.48855">
        <ele>1442.5999755859</ele>
        <time>2024-07-14T07:21:58.000Z</time>
      </trkpt>
      <trkpt lat="45.02559" lon="5.48853">
        <ele>1442.8000488281</ele>
        <time>2024-07-14T07:21:59.000Z</time>
      </trkpt>
      <trkpt lat="45.02559" lon="5.48851">
        <ele>1443.1999511719</ele>
        <time>2024-07-14T07:22:00.000Z</time>
      </trkpt>
      <trkpt lat="45.02558" lon="5.48849">
        <ele>1443.5999755859</ele>
        <time>2024-07-14T07:22:01.000Z</time>
      </trkpt>
      <trkpt lat="45.02558" lon="5.48847">
        <ele>1443.8000488281</ele>
        <time>2024-07-14T07:22:02.000Z</time>
      </trkpt>
      <trkpt lat="45.02558" lon="5.48846">
        <ele>1444</ele>
        <time>2024-07-14T07:22:03.000Z</time>
      </trkpt>
      <trkpt lat="45.02558" lon="5.48844">
        <ele>1444.4000244141</ele>
        <time>2024-07-14T07:22:04.000Z</time>
      </trkpt>
      <trkpt lat="45.02558" lon="5.48842">
        <ele>1444.5999755859</ele>
        <time>2024-07-14T07:22:05.000Z</time>
      </trkpt>
      <trkpt lat="45.02558" lon="5.4884">
        <ele>1444.8000488281</ele>
        <time>2024-07-14T07:22:06.000Z</time>
      </trkpt>
      <trkpt lat="45.02559" lon="5.48839">
        <ele>1445</ele>
        <time>2024-07-14T07:22:07.000Z</time>
      </trkpt>
      <trkpt lat="45.02559" lon="5.48837">
        <ele>1445.4000244141</ele>
        <time>2024-07-14T07:22:08.000Z</time>
      </trkpt>
      <trkpt lat="45.0256" lon="5.48835">
        <ele>1445.5999755859</ele>
        <time>2024-07-14T07:22:09.000Z</time>
      </trkpt>
      <trkpt lat="45.0256" lon="5.48833">
        <ele>1445.8000488281</ele>
        <time>2024-07-14T07:22:10.000Z</time>
      </trkpt>
      <trkpt lat="45.0256" lon="5.48832">
        <ele>1446</ele>
        <time>2024-07-14T07:22:11.000Z</time>
      </trkpt>
      <trkpt lat="45.0256" lon="5.4883">
        <ele>1446.4000244141</ele>
        <time>2024-07-14T07:22:12.000Z</time>
      </trkpt>
      <trkpt lat="45.0256" lon="5.48828">
        <ele>1446.5999755859</ele>
        <time>2024-07-14T07:22:13.000Z</time>
      </trkpt>
      <trkpt lat="45.02561" lon="5.48826">
        <ele>1447</ele>
        <time>2024-07-14T07:22:14.000Z</time>
      </trkpt>
      <trkpt lat="45.02561" lon="5.48825">
        <ele>1447.1999511719</ele>
        <time>2024-07-14T07:22:15.000Z</time>
      </trkpt>
      <trkpt lat="45.02562" lon="5.48823">
        <ele>1447.4000244141</ele>
        <time>2024-07-14T07:22:16.000Z</time>
      </trkpt>
      <trkpt lat="45.02562" lon="5.48822">
        <ele>1447.8000488281</ele>
        <time>2024-07-14T07:22:17.000Z</time>
      </trkpt>
      <trkpt lat="45.02563" lon="5.4882">
        <ele>1448</ele>
        <time>2024-07-14T07:22:18.000Z</time>
      </trkpt>
      <trkpt lat="45.02563" lon="5.48818">
        <ele>1448.1999511719</ele>
        <time>2024-07-14T07:22:19.000Z</time>
      </trkpt>
      <trkpt lat="45.02564" lon="5.48816">
        <ele>1448.5999755859</ele>
        <time>2024-07-14T07:22:20.000Z</time>
      </trkpt>
      <trkpt lat="45.02565" lon="5.48814">
        <ele>1448.8000488281</ele>
        <time>2024-07-14T07:22:21.000Z</time>
      </trkpt>
      <trkpt lat="45.02567" lon="5.48812">
        <ele>1449</ele>
        <time>2024-07-14T07:22:22.000Z</time>
      </trkpt>
      <trkpt lat="45.02568" lon="5.4881">
        <ele>1449.1999511719</ele>
        <time>2024-07-14T07:22:23.000Z</time>
      </trkpt>
      <trkpt lat="45.02569" lon="5.48808">
        <ele>1449.4000244141</ele>
        <time>2024-07-14T07:22:24.000Z</time>
      </trkpt>
      <trkpt lat="45.0257" lon="5.48806">
        <ele>1449.4000244141</ele>
        <time>2024-07-14T07:22:25.000Z</time>
      </trkpt>
      <trkpt lat="45.02571" lon="5.48804">
        <ele>1449.5999755859</ele>
        <time>2024-07-14T07:22:26.000Z</time>
      </trkpt>
      <trkpt lat="45.02572" lon="5.48803">
        <ele>1449.8000488281</ele>
        <time>2024-07-14T07:22:27.000Z</time>
      </trkpt>
      <trkpt lat="45.02572" lon="5.48801">
        <ele>1450</ele>
        <time>2024-07-14T07:22:28.000Z</time>
      </trkpt>
      <trkpt lat="45.02571" lon="5.488">
        <ele>1450.1999511719</ele>
        <time>2024-07-14T07:22:29.000Z</time>
      </trkpt>
      <trkpt lat="45.02572" lon="5.48798">
        <ele>1450.4000244141</ele>
        <time>2024-07-14T07:22:30.000Z</time>
      </trkpt>
      <trkpt lat="45.02572" lon="5.48795">
        <ele>1450.5999755859</ele>
        <time>2024-07-14T07:22:31.000Z</time>
      </trkpt>
      <trkpt lat="45.02572" lon="5.48794">
        <ele>1450.8000488281</ele>
        <time>2024-07-14T07:22:32.000Z</time>
      </trkpt>
      <trkpt lat="45.02571" lon="5.48792">
        <ele>1450.8000488281</ele>
        <time>2024-07-14T07:22:33.000Z</time>
      </trkpt>
      <trkpt lat="45.02571" lon="5.4879">
        <ele>1451</ele>
        <time>2024-07-14T07:22:34.000Z</time>
      </trkpt>
      <trkpt lat="45.0257" lon="5.48788">
        <ele>1451.1999511719</ele>
        <time>2024-07-14T07:22:35.000Z</time>
      </trkpt>
      <trkpt lat="45.02569" lon="5.48787">
        <ele>1451.1999511719</ele>
        <time>2024-07-14T07:22:36.000Z</time>
      </trkpt>
      <trkpt lat="45.02569" lon="5.48786">
        <ele>1451.5999755859</ele>
        <time>2024-07-14T07:22:37.000Z</time>
      </trkpt>
      <trkpt lat="45.02568" lon="5.48783">
        <ele>1451.5999755859</ele>
        <time>2024-07-14T07:22:38.000Z</time>
      </trkpt>
      <trkpt lat="45.02568" lon="5.4878">
        <ele>1451.8000488281</ele>
        <time>2024-07-14T07:22:39.000Z</time>
      </trkpt>
      <trkpt lat="45.02568" lon="5.48777">
        <ele>1452</ele>
        <time>2024-07-14T07:22:40.000Z</time>
      </trkpt>
      <trkpt lat="45.02568" lon="5.48774">
        <ele>1452.1999511719</ele>
        <time>2024-07-14T07:22:41.000Z</time>
      </trkpt>
      <trkpt lat="45.02567" lon="5.48771">
        <ele>1452.4000244141</ele>
        <time>2024-07-14T07:22:42.000Z</time>
      </trkpt>
      <trkpt lat="45.02567" lon="5.48769">
        <ele>1452.5999755859</ele>
        <time>2024-07-14T07:22:43.000Z</time>
      </trkpt>
      <trkpt lat="45.02567" lon="5.48767">
        <ele>1452.8000488281</ele>
        <time>2024-07-14T07:22:44.000Z</time>
      </trkpt>
      <trkpt lat="45.02567" lon="5.48765">
        <ele>1453</ele>
        <time>2024-07-14T07:22:45.000Z</time>
      </trkpt>
      <trkpt lat="45.02567" lon="5.48763">
        <ele>1453.1999511719</ele>
        <time>2024-07-14T07:22:46.000Z</time>
      </trkpt>
      <trkpt lat="45.02566" lon="5.4876">
        <ele>1453.4000244141</ele>
        <time>2024-07-14T07:22:47.000Z</time>
      </trkpt>
      <trkpt lat="45.02566" lon="5.48759">
        <ele>1453.5999755859</ele>
        <time>2024-07-14T07:22:48.000Z</time>
      </trkpt>
      <trkpt lat="45.02566" lon="5.48756">
        <ele>1454</ele>
        <time>2024-07-14T07:22:49.000Z</time>
      </trkpt>
      <trkpt lat="45.02565" lon="5.48755">
        <ele>1454.1999511719</ele>
        <time>2024-07-14T07:22:50.000Z</time>
      </trkpt>
      <trkpt lat="45.02565" lon="5.48753">
        <ele>1454.4000244141</ele>
        <time>2024-07-14T07:22:51.000Z</time>
      </trkpt>
      <trkpt lat="45.02565" lon="5.48751">
        <ele>1454.5999755859</ele>
        <time>2024-07-14T07:22:52.000Z</time>
      </trkpt>
      <trkpt lat="45.02565" lon="5.48749">
        <ele>1454.8000488281</ele>
        <time>2024-07-14T07:22:53.000Z</time>
      </trkpt>
      <trkpt lat="45.02565" lon="5.48746">
        <ele>1455</ele>
        <time>2024-07-14T07:22:54.000Z</time>
      </trkpt>
      <trkpt lat="45.02565" lon="5.48743">
        <ele>1455.1999511719</ele>
        <time>2024-07-14T07:22:55.000Z</time>
      </trkpt>
      <trkpt lat="45.02564" lon="5.4874">
        <ele>1455.4000244141</ele>
        <time>2024-07-14T07:22:56.000Z</time>
      </trkpt>
      <trkpt lat="45.02564" lon="5.48738">
        <ele>1455.5999755859</ele>
        <time>2024-07-14T07:22:57.000Z</time>
      </trkpt>
      <trkpt lat="45.02563" lon="5.48735">
        <ele>1455.5999755859</ele>
        <time>2024-07-14T07:22:58.000Z</time>
      </trkpt>
      <trkpt lat="45.02563" lon="5.48733">
        <ele>1455.8000488281</ele>
        <time>2024-07-14T07:22:59.000Z</time>
      </trkpt>
      <trkpt lat="45.02563" lon="5.4873">
        <ele>1456</ele>
        <time>2024-07-14T07:23:00.000Z</time>
      </trkpt>
      <trkpt lat="45.02563" lon="5.48728">
        <ele>1456.1999511719</ele>
        <time>2024-07-14T07:23:01.000Z</time>
      </trkpt>
      <trkpt lat="45.02563" lon="5.48726">
        <ele>1456.4000244141</ele>
        <time>2024-07-14T07:23:02.000Z</time>
      </trkpt>
      <trkpt lat="45.02562" lon="5.48723">
        <ele>1456.5999755859</ele>
        <time>2024-07-14T07:23:03.000Z</time>
      </trkpt>
      <trkpt lat="45.02562" lon="5.48721">
        <ele>1456.8000488281</ele>
        <time>2024-07-14T07:23:04.000Z</time>
      </trkpt>
      <trkpt lat="45.02561" lon="5.48719">
        <ele>1456.8000488281</ele>
        <time>2024-07-14T07:23:05.000Z</time>
      </trkpt>
      <trkpt lat="45.0256" lon="5.48717">
        <ele>1456.8000488281</ele>
        <time>2024-07-14T07:23:06.000Z</time>
      </trkpt>
      <trkpt lat="45.02559" lon="5.48714">
        <ele>1457</ele>
        <time>2024-07-14T07:23:07.000Z</time>
      </trkpt>
      <trkpt lat="45.02558" lon="5.48712">
        <ele>1457.1999511719</ele>
        <time>2024-07-14T07:23:08.000Z</time>
      </trkpt>
      <trkpt lat="45.02558" lon="5.48711">
        <ele>1457.4000244141</ele>
        <time>2024-07-14T07:23:09.000Z</time>
      </trkpt>
      <trkpt lat="45.02557" lon="5.48708">
        <ele>1457.4000244141</ele>
        <time>2024-07-14T07:23:10.000Z</time>
      </trkpt>
      <trkpt lat="45.02557" lon="5.48706">
        <ele>1457.5999755859</ele>
        <time>2024-07-14T07:23:11.000Z</time>
      </trkpt>
      <trkpt lat="45.02556" lon="5.48703">
        <ele>1457.8000488281</ele>
        <time>2024-07-14T07:23:12.000Z</time>
      </trkpt>
      <trkpt lat="45.02556" lon="5.48701">
        <ele>1458</ele>
        <time>2024-07-14T07:23:13.000Z</time>
      </trkpt>
      <trkpt lat="45.02556" lon="5.48698">
        <ele>1458.1999511719</ele>
        <time>2024-07-14T07:23:14.000Z</time>
      </trkpt>
      <trkpt lat="45.02556" lon="5.48695">
        <ele>1458.1999511719</ele>
        <time>2024-07-14T07:23:15.000Z</time>
      </trkpt>
      <trkpt lat="45.02556" lon="5.48691">
        <ele>1458.5999755859</ele>
        <time>2024-07-14T07:23:16.000Z</time>
      </trkpt>
      <trkpt lat="45.02556" lon="5.48687">
        <ele>1458.8000488281</ele>
        <time>2024-07-14T07:23:17.000Z</time>
      </trkpt>
      <trkpt lat="45.02557" lon="5.48683">
        <ele>1459.1999511719</ele>
        <time>2024-07-14T07:23:18.000Z</time>
      </trkpt>
      <trkpt lat="45.02557" lon="5.4868">
        <ele>1459.4000244141</ele>
        <time>2024-07-14T07:23:19.000Z</time>
      </trkpt>
      <trkpt lat="45.02558" lon="5.48677">
        <ele>1459.5999755859</ele>
        <time>2024-07-14T07:23:20.000Z</time>
      </trkpt>
      <trkpt lat="45.02558" lon="5.48674">
        <ele>1460</ele>
        <time>2024-07-14T07:23:21.000Z</time>
      </trkpt>
      <trkpt lat="45.02559" lon="5.4867">
        <ele>1460.1999511719</ele>
        <time>2024-07-14T07:23:22.000Z</time>
      </trkpt>
      <trkpt lat="45.0256" lon="5.48668">
        <ele>1460.4000244141</ele>
        <time>2024-07-14T07:23:23.000Z</time>
      </trkpt>
      <trkpt lat="45.0256" lon="5.48665">
        <ele>1460.5999755859</ele>
        <time>2024-07-14T07:23:24.000Z</time>
      </trkpt>
      <trkpt lat="45.0256" lon="5.48661">
        <ele>1460.8000488281</ele>
        <time>2024-07-14T07:23:25.000Z</time>
      </trkpt>
      <trkpt lat="45.02561" lon="5.48659">
        <ele>1461</ele>
        <time>2024-07-14T07:23:26.000Z</time>
      </trkpt>
      <trkpt lat="45.02561" lon="5.48656">
        <ele>1461.1999511719</ele>
        <time>2024-07-14T07:23:27.000Z</time>
      </trkpt>
      <trkpt lat="45.02561" lon="5.48653">
        <ele>1461.1999511719</ele>
        <time>2024-07-14T07:23:28.000Z</time>
      </trkpt>
      <trkpt lat="45.02561" lon="5.4865">
        <ele>1461.1999511719</ele>
        <time>2024-07-14T07:23:29.000Z</time>
      </trkpt>
      <trkpt lat="45.02561" lon="5.48647">
        <ele>1461.4000244141</ele>
        <time>2024-07-14T07:23:30.000Z</time>
      </trkpt>
      <trkpt lat="45.0256" lon="5.48643">
        <ele>1461.4000244141</ele>
        <time>2024-07-14T07:23:31.000Z</time>
      </trkpt>
      <trkpt lat="45.02561" lon="5.4864">
        <ele>1461.5999755859</ele>
        <time>2024-07-14T07:23:32.000Z</time>
      </trkpt>
      <trkpt lat="45.02561" lon="5.48637">
        <ele>1461.5999755859</ele>
        <time>2024-07-14T07:23:33.000Z</time>
      </trkpt>
      <trkpt lat="45.02561" lon="5.48633">
        <ele>1461.8000488281</ele>
        <time>2024-07-14T07:23:34.000Z</time>
      </trkpt>
      <trkpt lat="45.02562" lon="5.4863">
        <ele>1461.8000488281</ele>
        <time>2024-07-14T07:23:35.000Z</time>
      </trkpt>
      <trkpt lat="45.02563" lon="5.48627">
        <ele>1461.8000488281</ele>
        <time>2024-07-14T07:23:36.000Z</time>
      </trkpt>
      <trkpt lat="45.02564" lon="5.48624">
        <ele>1462</ele>
        <time>2024-07-14T07:23:37.000Z</time>
      </trkpt>
      <trkpt lat="45.02565" lon="5.4862">
        <ele>1462</ele>
        <time>2024-07-14T07:23:38.000Z</time>
      </trkpt>
      <trkpt lat="45.02565" lon="5.48617">
        <ele>1462</ele>
        <time>2024-07-14T07:23:39.000Z</time>
      </trkpt>
      <trkpt lat="45.02565" lon="5.48615">
        <ele>1462</ele>
        <time>2024-07-14T07:23:40.000Z</time>
      </trkpt>
      <trkpt lat="45.02563" lon="5.48613">
        <ele>1462.1999511719</ele>
        <time>2024-07-14T07:23:41.000Z</time>
      </trkpt>
      <trkpt lat="45.02562" lon="5.48612">
        <ele>1462.1999511719</ele>
        <time>2024-07-14T07:23:42.000Z</time>
      </trkpt>
      <trkpt lat="45.02561" lon="5.48612">
        <ele>1462.1999511719</ele>
        <time>2024-07-14T07:23:43.000Z</time>
      </trkpt>
      <trkpt lat="45.02559" lon="5.48611">
        <ele>1462.1999511719</ele>
        <time>2024-07-14T07:23:44.000Z</time>
      </trkpt>
      <trkpt lat="45.02557" lon="5.48611">
        <ele>1462.1999511719</ele>
        <time>2024-07-14T07:23:45.000Z</time>
      </trkpt>
      <trkpt lat="45.02555" lon="5.4861">
        <ele>1462.4000244141</ele>
        <time>2024-07-14T07:23:46.000Z</time>
      </trkpt>
      <trkpt lat="45.02553" lon="5.4861">
        <ele>1462.4000244141</ele>
        <time>2024-07-14T07:23:47.000Z</time>
      </trkpt>
      <trkpt lat="45.02552" lon="5.48609">
        <ele>1462.4000244141</ele>
        <time>2024-07-14T07:23:48.000Z</time>
      </trkpt>
      <trkpt lat="45.02551" lon="5.48608">
        <ele>1462.4000244141</ele>
        <time>2024-07-14T07:23:49.000Z</time>
      </trkpt>
      <trkpt lat="45.02549" lon="5.48607">
        <ele>1462.4000244141</ele>
        <time>2024-07-14T07:23:50.000Z</time>
      </trkpt>
      <trkpt lat="45.02549" lon="5.48608">
        <ele>1462.4000244141</ele>
        <time>2024-07-14T07:23:51.000Z</time>
      </trkpt>
      <trkpt lat="45.02548" lon="5.48608">
        <ele>1462.5999755859</ele>
        <time>2024-07-14T07:23:52.000Z</time>
      </trkpt>
      <trkpt lat="45.02547" lon="5.48608">
        <ele>1462.8000488281</ele>
        <time>2024-07-14T07:23:53.000Z</time>
      </trkpt>
      <trkpt lat="45.02545" lon="5.48608">
        <ele>1463</ele>
        <time>2024-07-14T07:23:54.000Z</time>
      </trkpt>
      <trkpt lat="45.02544" lon="5.48608">
        <ele>1463.1999511719</ele>
        <time>2024-07-14T07:23:55.000Z</time>
      </trkpt>
      <trkpt lat="45.02543" lon="5.48607">
        <ele>1463.4000244141</ele>
        <time>2024-07-14T07:23:56.000Z</time>
      </trkpt>
      <trkpt lat="45.02542" lon="5.48606">
        <ele>1463.5999755859</ele>
        <time>2024-07-14T07:23:57.000Z</time>
      </trkpt>
      <trkpt lat="45.02541" lon="5.48605">
        <ele>1463.8000488281</ele>
        <time>2024-07-14T07:23:58.000Z</time>
      </trkpt>
      <trkpt lat="45.0254" lon="5.48604">
        <ele>1464.1999511719</ele>
        <time>2024-07-14T07:23:59.000Z</time>
      </trkpt>
      <trkpt lat="45.02539" lon="5.48603">
        <ele>1464.4000244141</ele>
        <time>2024-07-14T07:24:00.000Z</time>
      </trkpt>
      <trkpt lat="45.02538" lon="5.48601">
        <ele>1464.5999755859</ele>
        <time>2024-07-14T07:24:01.000Z</time>
      </trkpt>
      <trkpt lat="45.02537" lon="5.486">
        <ele>1464.8000488281</ele>
        <time>2024-07-14T07:24:02.000Z</time>
      </trkpt>
      <trkpt lat="45.02535" lon="5.48598">
        <ele>1465</ele>
        <time>2024-07-14T07:24:03.000Z</time>
      </trkpt>
      <trkpt lat="45.02534" lon="5.48597">
        <ele>1465.1999511719</ele>
        <time>2024-07-14T07:24:04.000Z</time>
      </trkpt>
      <trkpt lat="45.02533" lon="5.48596">
        <ele>1465.4000244141</ele>
        <time>2024-07-14T07:24:05.000Z</time>
      </trkpt>
      <trkpt lat="45.02532" lon="5.48595">
        <ele>1465.5999755859</ele>
        <time>2024-07-14T07:24:06.000Z</time>
      </trkpt>
      <trkpt lat="45.02531" lon="5.48594">
        <ele>1465.8000488281</ele>
        <time>2024-07-14T07:24:07.000Z</time>
      </trkpt>
      <trkpt lat="45.02529" lon="5.48593">
        <ele>1466</ele>
        <time>2024-07-14T07:24:08.000Z</time>
      </trkpt>
      <trkpt lat="45.02527" lon="5.48592">
        <ele>1466.4000244141</ele>
        <time>2024-07-14T07:24:09.000Z</time>
      </trkpt>
      <trkpt lat="45.02525" lon="5.48592">
        <ele>1466.8000488281</ele>
        <time>2024-07-14T07:24:10.000Z</time>
      </trkpt>
      <trkpt lat="45.02524" lon="5.48592">
        <ele>1467</ele>
        <time>2024-07-14T07:24:11.000Z</time>
      </trkpt>
      <trkpt lat="45.02523" lon="5.48591">
        <ele>1467.4000244141</ele>
        <time>2024-07-14T07:24:12.000Z</time>
      </trkpt>
      <trkpt lat="45.02521" lon="5.48591">
        <ele>1467.8000488281</ele>
        <time>2024-07-14T07:24:13.000Z</time>
      </trkpt>
      <trkpt lat="45.02521" lon="5.4859">
        <ele>1468</ele>
        <time>2024-07-14T07:24:14.000Z</time>
      </trkpt>
      <trkpt lat="45.02521" lon="5.4859">
        <ele>1468.1999511719</ele>
        <time>2024-07-14T07:24:15.000Z</time>
      </trkpt>
      <trkpt lat="45.0252" lon="5.48589">
        <ele>1468.5999755859</ele>
        <time>2024-07-14T07:24:16.000Z</time>
      </trkpt>
      <trkpt lat="45.02519" lon="5.48588">
        <ele>1468.8000488281</ele>
        <time>2024-07-14T07:24:17.000Z</time>
      </trkpt>
      <trkpt lat="45.02518" lon="5.48587">
        <ele>1469.1999511719</ele>
        <time>2024-07-14T07:24:18.000Z</time>
      </trkpt>
      <trkpt lat="45.02517" lon="5.48586">
        <ele>1469.4000244141</ele>
        <time>2024-07-14T07:24:19.000Z</time>
      </trkpt>
      <trkpt lat="45.02516" lon="5.48585">
        <ele>1469.5999755859</ele>
        <time>2024-07-14T07:24:20.000Z</time>
      </trkpt>
      <trkpt lat="45.02515" lon="5.48583">
        <ele>1470</ele>
        <time>2024-07-14T07:24:21.000Z</time>
      </trkpt>
      <trkpt lat="45.02514" lon="5.48582">
        <ele>1470.1999511719</ele>
        <time>2024-07-14T07:24:22.000Z</time>
      </trkpt>
      <trkpt lat="45.02513" lon="5.48581">
        <ele>1470.5999755859</ele>
        <time>2024-07-14T07:24:23.000Z</time>
      </trkpt>
      <trkpt lat="45.02513" lon="5.48579">
        <ele>1470.8000488281</ele>
        <time>2024-07-14T07:24:24.000Z</time>
      </trkpt>
      <trkpt lat="45.02512" lon="5.48578">
        <ele>1471</ele>
        <time>2024-07-14T07:24:25.000Z</time>
      </trkpt>
      <trkpt lat="45.02512" lon="5.48577">
        <ele>1471.1999511719</ele>
        <time>2024-07-14T07:24:26.000Z</time>
      </trkpt>
      <trkpt lat="45.02512" lon="5.48577">
        <ele>1471.5999755859</ele>
        <time>2024-07-14T07:24:27.000Z</time>
      </trkpt>
      <trkpt lat="45.02512" lon="5.48576">
        <ele>1471.5999755859</ele>
        <time>2024-07-14T07:24:28.000Z</time>
      </trkpt>
      <trkpt lat="45.02512" lon="5.48575">
        <ele>1472</ele>
        <time>2024-07-14T07:24:29.000Z</time>
      </trkpt>
      <trkpt lat="45.02511" lon="5.48574">
        <ele>1472.1999511719</ele>
        <time>2024-07-14T07:24:30.000Z</time>
      </trkpt>
      <trkpt lat="45.02511" lon="5.48573">
        <ele>1472.4000244141</ele>
        <time>2024-07-14T07:24:31.000Z</time>
      </trkpt>
      <trkpt lat="45.0251" lon="5.48572">
        <ele>1472.8000488281</ele>
        <time>2024-07-14T07:24:32.000Z</time>
      </trkpt>
      <trkpt lat="45.02509" lon="5.48571">
        <ele>1473</ele>
        <time>2024-07-14T07:24:33.000Z</time>
      </trkpt>
      <trkpt lat="45.02509" lon="5.4857">
        <ele>1473.1999511719</ele>
        <time>2024-07-14T07:24:34.000Z</time>
      </trkpt>
      <trkpt lat="45.02508" lon="5.4857">
        <ele>1473.4000244141</ele>
        <time>2024-07-14T07:24:35.000Z</time>
      </trkpt>
      <trkpt lat="45.02508" lon="5.48569">
        <ele>1473.8000488281</ele>
        <time>2024-07-14T07:24:36.000Z</time>
      </trkpt>
      <trkpt lat="45.02507" lon="5.48569">
        <ele>1474</ele>
        <time>2024-07-14T07:24:37.000Z</time>
      </trkpt>
      <trkpt lat="45.02506" lon="5.48568">
        <ele>1474.4000244141</ele>
        <time>2024-07-14T07:24:38.000Z</time>
      </trkpt>
      <trkpt lat="45.02506" lon="5.48566">
        <ele>1474.5999755859</ele>
        <time>2024-07-14T07:24:39.000Z</time>
      </trkpt>
      <trkpt lat="45.02505" lon="5.48565">
        <ele>1474.8000488281</ele>
        <time>2024-07-14T07:24:40.000Z</time>
      </trkpt>
      <trkpt lat="45.02505" lon="5.48563">
        <ele>1475.1999511719</ele>
        <time>2024-07-14T07:24:41.000Z</time>
      </trkpt>
      <trkpt lat="45.02505" lon="5.48561">
        <ele>1475.4000244141</ele>
        <time>2024-07-14T07:24:42.000Z</time>
      </trkpt>
      <trkpt lat="45.02505" lon="5.4856">
        <ele>1475.5999755859</ele>
        <time>2024-07-14T07:24:43.000Z</time>
      </trkpt>
      <trkpt lat="45.02504" lon="5.48559">
        <ele>1476</ele>
        <time>2024-07-14T07:24:44.000Z</time>
      </trkpt>
      <trkpt lat="45.02504" lon="5.48558">
        <ele>1476.1999511719</ele>
        <time>2024-07-14T07:24:45.000Z</time>
      </trkpt>
      <trkpt lat="45.02504" lon="5.48558">
        <ele>1476.4000244141</ele>
        <time>2024-07-14T07:24:46.000Z</time>
      </trkpt>
      <trkpt lat="45.02504" lon="5.48557">
        <ele>1476.5999755859</ele>
        <time>2024-07-14T07:24:47.000Z</time>
      </trkpt>
      <trkpt lat="45.02503" lon="5.48556">
        <ele>1477</ele>
        <time>2024-07-14T07:24:48.000Z</time>
      </trkpt>
      <trkpt lat="45.02503" lon="5.48554">
        <ele>1477.1999511719</ele>
        <time>2024-07-14T07:24:49.000Z</time>
      </trkpt>
      <trkpt lat="45.02503" lon="5.48553">
        <ele>1477.4000244141</ele>
        <time>2024-07-14T07:24:50.000Z</time>
      </trkpt>
      <trkpt lat="45.02503" lon="5.48552">
        <ele>1477.8000488281</ele>
        <time>2024-07-14T07:24:51.000Z</time>
      </trkpt>
      <trkpt lat="45.02503" lon="5.48551">
        <ele>1478</ele>
        <time>2024-07-14T07:24:52.000Z</time>
      </trkpt>
      <trkpt lat="45.02503" lon="5.48549">
        <ele>1478.1999511719</ele>
        <time>2024-07-14T07:24:53.000Z</time>
      </trkpt>
      <trkpt lat="45.02502" lon="5.48548">
        <ele>1478.5999755859</ele>
        <time>2024-07-14T07:24:54.000Z</time>
      </trkpt>
      <trkpt lat="45.02502" lon="5.48547">
        <ele>1478.5999755859</ele>
        <time>2024-07-14T07:24:55.000Z</time>
      </trkpt>
      <trkpt lat="45.02501" lon="5.48546">
        <ele>1478.8000488281</ele>
        <time>2024-07-14T07:24:56.000Z</time>
      </trkpt>
      <trkpt lat="45.025" lon="5.48545">
        <ele>1479.1999511719</ele>
        <time>2024-07-14T07:24:57.000Z</time>
      </trkpt>
      <trkpt lat="45.025" lon="5.48544">
        <ele>1479.4000244141</ele>
        <time>2024-07-14T07:24:58.000Z</time>
      </trkpt>
      <trkpt lat="45.025" lon="5.48543">
        <ele>1479.5999755859</ele>
        <time>2024-07-14T07:24:59.000Z</time>
      </trkpt>
      <trkpt lat="45.025" lon="5.48541">
        <ele>1479.5999755859</ele>
        <time>2024-07-14T07:25:00.000Z</time>
      </trkpt>
      <trkpt lat="45.025" lon="5.4854">
        <ele>1479.8000488281</ele>
        <time>2024-07-14T07:25:01.000Z</time>
      </trkpt>
      <trkpt lat="45.025" lon="5.48538">
        <ele>1480.1999511719</ele>
        <time>2024-07-14T07:25:02.000Z</time>
      </trkpt>
      <trkpt lat="45.02499" lon="5.48537">
        <ele>1480.4000244141</ele>
        <time>2024-07-14T07:25:03.000Z</time>
      </trkpt>
      <trkpt lat="45.02498" lon="5.48536">
        <ele>1480.5999755859</ele>
        <time>2024-07-14T07:25:04.000Z</time>
      </trkpt>
      <trkpt lat="45.02498" lon="5.48535">
        <ele>1480.8000488281</ele>
        <time>2024-07-14T07:25:05.000Z</time>
      </trkpt>
      <trkpt lat="45.02498" lon="5.48533">
        <ele>1481</ele>
        <time>2024-07-14T07:25:06.000Z</time>
      </trkpt>
      <trkpt lat="45.02498" lon="5.48532">
        <ele>1481.4000244141</ele>
        <time>2024-07-14T07:25:07.000Z</time>
      </trkpt>
      <trkpt lat="45.02498" lon="5.48531">
        <ele>1481.8000488281</ele>
        <time>2024-07-14T07:25:08.000Z</time>
      </trkpt>
      <trkpt lat="45.02498" lon="5.48529">
        <ele>1482.1999511719</ele>
        <time>2024-07-14T07:25:09.000Z</time>
      </trkpt>
      <trkpt lat="45.02497" lon="5.48528">
        <ele>1482.4000244141</ele>
        <time>2024-07-14T07:25:10.000Z</time>
      </trkpt>
      <trkpt lat="45.02497" lon="5.48527">
        <ele>1482.5999755859</ele>
        <time>2024-07-14T07:25:11.000Z</time>
      </trkpt>
      <trkpt lat="45.02497" lon="5.48526">
        <ele>1482.8000488281</ele>
        <time>2024-07-14T07:25:12.000Z</time>
      </trkpt>
      <trkpt lat="45.02497" lon="5.48525">
        <ele>1483.1999511719</ele>
        <time>2024-07-14T07:25:13.000Z</time>
      </trkpt>
      <trkpt lat="45.02497" lon="5.48525">
        <ele>1483.4000244141</ele>
        <time>2024-07-14T07:25:14.000Z</time>
      </trkpt>
      <trkpt lat="45.02497" lon="5.48524">
        <ele>1483.8000488281</ele>
        <time>2024-07-14T07:25:15.000Z</time>
      </trkpt>
      <trkpt lat="45.02496" lon="5.48526">
        <ele>1484</ele>
        <time>2024-07-14T07:25:16.000Z</time>
      </trkpt>
      <trkpt lat="45.02496" lon="5.48526">
        <ele>1484.1999511719</ele>
        <time>2024-07-14T07:25:17.000Z</time>
      </trkpt>
      <trkpt lat="45.02495" lon="5.48527">
        <ele>1484.5999755859</ele>
        <time>2024-07-14T07:25:18.000Z</time>
      </trkpt>
      <trkpt lat="45.02495" lon="5.48527">
        <ele>1484.8000488281</ele>
        <time>2024-07-14T07:25:19.000Z</time>
      </trkpt>
      <trkpt lat="45.02493" lon="5.48528">
        <ele>1485</ele>
        <time>2024-07-14T07:25:20.000Z</time>
      </trkpt>
      <trkpt lat="45.02493" lon="5.48528">
        <ele>1485.4000244141</ele>
        <time>2024-07-14T07:25:21.000Z</time>
      </trkpt>
      <trkpt lat="45.02492" lon="5.48529">
        <ele>1485.5999755859</ele>
        <time>2024-07-14T07:25:22.000Z</time>
      </trkpt>
      <trkpt lat="45.02491" lon="5.48529">
        <ele>1486</ele>
        <time>2024-07-14T07:25:23.000Z</time>
      </trkpt>
      <trkpt lat="45.0249" lon="5.48529">
        <ele>1486</ele>
        <time>2024-07-14T07:25:24.000Z</time>
      </trkpt>
      <trkpt lat="45.02489" lon="5.48529">
        <ele>1486.4000244141</ele>
        <time>2024-07-14T07:25:25.000Z</time>
      </trkpt>
      <trkpt lat="45.02489" lon="5.48528">
        <ele>1486.5999755859</ele>
        <time>2024-07-14T07:25:26.000Z</time>
      </trkpt>
      <trkpt lat="45.02488" lon="5.48527">
        <ele>1486.8000488281</ele>
        <time>2024-07-14T07:25:27.000Z</time>
      </trkpt>
      <trkpt lat="45.02488" lon="5.48527">
        <ele>1487.1999511719</ele>
        <time>2024-07-14T07:25:28.000Z</time>
      </trkpt>
      <trkpt lat="45.02488" lon="5.48527">
        <ele>1487.4000244141</ele>
        <time>2024-07-14T07:25:29.000Z</time>
      </trkpt>
      <trkpt lat="45.02488" lon="5.48528">
        <ele>1487.5999755859</ele>
        <time>2024-07-14T07:25:30.000Z</time>
      </trkpt>
      <trkpt lat="45.02487" lon="5.48528">
        <ele>1488</ele>
        <time>2024-07-14T07:25:31.000Z</time>
      </trkpt>
      <trkpt lat="45.02487" lon="5.48529">
        <ele>1488.1999511719</ele>
        <time>2024-07-14T07:25:32.000Z</time>
      </trkpt>
      <trkpt lat="45.02487" lon="5.48529">
        <ele>1488.5999755859</ele>
        <time>2024-07-14T07:25:33.000Z</time>
      </trkpt>
      <trkpt lat="45.02487" lon="5.48528">
        <ele>1488.8000488281</ele>
        <time>2024-07-14T07:25:34.000Z</time>
      </trkpt>
      <trkpt lat="45.02486" lon="5.48528">
        <ele>1489</ele>
        <time>2024-07-14T07:25:35.000Z</time>
      </trkpt>
      <trkpt lat="45.02486" lon="5.48528">
        <ele>1489.4000244141</ele>
        <time>2024-07-14T07:25:36.000Z</time>
      </trkpt>
      <trkpt lat="45.02485" lon="5.48527">
        <ele>1489.5999755859</ele>
        <time>2024-07-14T07:25:37.000Z</time>
      </trkpt>
      <trkpt lat="45.02485" lon="5.48526">
        <ele>1490</ele>
        <time>2024-07-14T07:25:38.000Z</time>
      </trkpt>
      <trkpt lat="45.02484" lon="5.48526">
        <ele>1490.1999511719</ele>
        <time>2024-07-14T07:25:39.000Z</time>
      </trkpt>
      <trkpt lat="45.02484" lon="5.48526">
        <ele>1490.5999755859</ele>
        <time>2024-07-14T07:25:40.000Z</time>
      </trkpt>
      <trkpt lat="45.02483" lon="5.48525">
        <ele>1490.8000488281</ele>
        <time>2024-07-14T07:25:41.000Z</time>
      </trkpt>
      <trkpt lat="45.02483" lon="5.48525">
        <ele>1491</ele>
        <time>2024-07-14T07:25:42.000Z</time>
      </trkpt>
      <trkpt lat="45.02483" lon="5.48525">
        <ele>1491.4000244141</ele>
        <time>2024-07-14T07:25:43.000Z</time>
      </trkpt>
      <trkpt lat="45.02482" lon="5.48525">
        <ele>1491.5999755859</ele>
        <time>2024-07-14T07:25:44.000Z</time>
      </trkpt>
      <trkpt lat="45.02482" lon="5.48525">
        <ele>1491.5999755859</ele>
        <time>2024-07-14T07:25:45.000Z</time>
      </trkpt>
      <trkpt lat="45.02482" lon="5.48524">
        <ele>1491.8000488281</ele>
        <time>2024-07-14T07:25:46.000Z</time>
      </trkpt>
      <trkpt lat="45.02481" lon="5.48524">
        <ele>1491.8000488281</ele>
        <time>2024-07-14T07:25:47.000Z</time>
      </trkpt>
      <trkpt lat="45.0248" lon="5.48523">
        <ele>1492</ele>
        <time>2024-07-14T07:25:48.000Z</time>
      </trkpt>
      <trkpt lat="45.02479" lon="5.48523">
        <ele>1492.4000244141</ele>
        <time>2024-07-14T07:25:49.000Z</time>
      </trkpt>
      <trkpt lat="45.02478" lon="5.48522">
        <ele>1492.8000488281</ele>
        <time>2024-07-14T07:25:50.000Z</time>
      </trkpt>
      <trkpt lat="45.02478" lon="5.48522">
        <ele>1493</ele>
        <time>2024-07-14T07:25:51.000Z</time>
      </trkpt>
      <trkpt lat="45.02477" lon="5.48521">
        <ele>1493.4000244141</ele>
        <time>2024-07-14T07:25:52.000Z</time>
      </trkpt>
      <trkpt lat="45.02476" lon="5.4852">
        <ele>1493.5999755859</ele>
        <time>2024-07-14T07:25:53.000Z</time>
      </trkpt>
      <trkpt lat="45.02476" lon="5.4852">
        <ele>1494</ele>
        <time>2024-07-14T07:25:54.000Z</time>
      </trkpt>
      <trkpt lat="45.02475" lon="5.48519">
        <ele>1494.1999511719</ele>
        <time>2024-07-14T07:25:55.000Z</time>
      </trkpt>
      <trkpt lat="45.02474" lon="5.48519">
        <ele>1494.5999755859</ele>
        <time>2024-07-14T07:25:56.000Z</time>
      </trkpt>
      <trkpt lat="45.02474" lon="5.48519">
        <ele>1494.8000488281</ele>
        <time>2024-07-14T07:25:57.000Z</time>
      </trkpt>
      <trkpt lat="45.02474" lon="5.48518">
        <ele>1495.1999511719</ele>
        <time>2024-07-14T07:25:58.000Z</time>
      </trkpt>
      <trkpt lat="45.02473" lon="5.48517">
        <ele>1495.4000244141</ele>
        <time>2024-07-14T07:25:59.000Z</time>
      </trkpt>
      <trkpt lat="45.02473" lon="5.48516">
        <ele>1495.5999755859</ele>
        <time>2024-07-14T07:26:00.000Z</time>
      </trkpt>
      <trkpt lat="45.02473" lon="5.48515">
        <ele>1496</ele>
        <time>2024-07-14T07:26:01.000Z</time>
      </trkpt>
      <trkpt lat="45.02473" lon="5.48514">
        <ele>1496.4000244141</ele>
        <time>2024-07-14T07:26:02.000Z</time>
      </trkpt>
      <trkpt lat="45.02472" lon="5.48514">
        <ele>1496.5999755859</ele>
        <time>2024-07-14T07:26:03.000Z</time>
      </trkpt>
      <trkpt lat="45.02471" lon="5.48514">
        <ele>1496.8000488281</ele>
        <time>2024-07-14T07:26:04.000Z</time>
      </trkpt>
      <trkpt lat="45.02471" lon="5.48514">
        <ele>1497</ele>
        <time>2024-07-14T07:26:05.000Z</time>
      </trkpt>
      <trkpt lat="45.0247" lon="5.48514">
        <ele>1497.4000244141</ele>
        <time>2024-07-14T07:26:06.000Z</time>
      </trkpt>
      <trkpt lat="45.0247" lon="5.48514">
        <ele>1497.8000488281</ele>
        <time>2024-07-14T07:26:07.000Z</time>
      </trkpt>
      <trkpt lat="45.02469" lon="5.48515">
        <ele>1498</ele>
        <time>2024-07-14T07:26:08.000Z</time>
      </trkpt>
      <trkpt lat="45.02469" lon="5.48515">
        <ele>1498.4000244141</ele>
        <time>2024-07-14T07:26:09.000Z</time>
      </trkpt>
      <trkpt lat="45.02468" lon="5.48515">
        <ele>1498.5999755859</ele>
        <time>2024-07-14T07:26:10.000Z</time>
      </trkpt>
      <trkpt lat="45.02468" lon="5.48516">
        <ele>1498.8000488281</ele>
        <time>2024-07-14T07:26:11.000Z</time>
      </trkpt>
      <trkpt lat="45.02468" lon="5.48517">
        <ele>1499</ele>
        <time>2024-07-14T07:26:12.000Z</time>
      </trkpt>
      <trkpt lat="45.02467" lon="5.48518">
        <ele>1499.1999511719</ele>
        <time>2024-07-14T07:26:13.000Z</time>
      </trkpt>
      <trkpt lat="45.02467" lon="5.48518">
        <ele>1499.5999755859</ele>
        <time>2024-07-14T07:26:14.000Z</time>
      </trkpt>
      <trkpt lat="45.02466" lon="5.48519">
        <ele>1500</ele>
        <time>2024-07-14T07:26:15.000Z</time>
      </trkpt>
      <trkpt lat="45.02466" lon="5.48519">
        <ele>1500.1999511719</ele>
        <time>2024-07-14T07:26:16.000Z</time>
      </trkpt>
      <trkpt lat="45.02465" lon="5.4852">
        <ele>1500.4000244141</ele>
        <time>2024-07-14T07:26:17.000Z</time>
      </trkpt>
      <trkpt lat="45.02465" lon="5.4852">
        <ele>1500.8000488281</ele>
        <time>2024-07-14T07:26:18.000Z</time>
      </trkpt>
      <trkpt lat="45.02464" lon="5.4852">
        <ele>1501</ele>
        <time>2024-07-14T07:26:19.000Z</time>
      </trkpt>
      <trkpt lat="45.02464" lon="5.4852">
        <ele>1501.1999511719</ele>
        <time>2024-07-14T07:26:20.000Z</time>
      </trkpt>
      <trkpt lat="45.02464" lon="5.4852">
        <ele>1501.4000244141</ele>
        <time>2024-07-14T07:26:21.000Z</time>
      </trkpt>
      <trkpt lat="45.02463" lon="5.4852">
        <ele>1501.5999755859</ele>
        <time>2024-07-14T07:26:22.000Z</time>
      </trkpt>
      <trkpt lat="45.02463" lon="5.48521">
        <ele>1502</ele>
        <time>2024-07-14T07:26:23.000Z</time>
      </trkpt>
      <trkpt lat="45.02462" lon="5.48522">
        <ele>1502.1999511719</ele>
        <time>2024-07-14T07:26:24.000Z</time>
      </trkpt>
      <trkpt lat="45.02462" lon="5.48522">
        <ele>1502.4000244141</ele>
        <time>2024-07-14T07:26:25.000Z</time>
      </trkpt>
      <trkpt lat="45.02461" lon="5.48522">
        <ele>1502.8000488281</ele>
        <time>2024-07-14T07:26:26.000Z</time>
      </trkpt>
      <trkpt lat="45.0246" lon="5.48522">
        <ele>1503</ele>
        <time>2024-07-14T07:26:27.000Z</time>
      </trkpt>
      <trkpt lat="45.02459" lon="5.48521">
        <ele>1503.4000244141</ele>
        <time>2024-07-14T07:26:28.000Z</time>
      </trkpt>
      <trkpt lat="45.02459" lon="5.48521">
        <ele>1503.5999755859</ele>
        <time>2024-07-14T07:26:29.000Z</time>
      </trkpt>
      <trkpt lat="45.02458" lon="5.48519">
        <ele>1503.8000488281</ele>
        <time>2024-07-14T07:26:30.000Z</time>
      </trkpt>
      <trkpt lat="45.02457" lon="5.48518">
        <ele>1504.1999511719</ele>
        <time>2024-07-14T07:26:31.000Z</time>
      </trkpt>
      <trkpt lat="45.02457" lon="5.48517">
        <ele>1504.4000244141</ele>
        <time>2024-07-14T07:26:32.000Z</time>
      </trkpt>
      <trkpt lat="45.02456" lon="5.48515">
        <ele>1504.8000488281</ele>
        <time>2024-07-14T07:26:33.000Z</time>
      </trkpt>
      <trkpt lat="45.02455" lon="5.48514">
        <ele>1505</ele>
        <time>2024-07-14T07:26:34.000Z</time>
      </trkpt>
      <trkpt lat="45.02455" lon="5.48513">
        <ele>1505.4000244141</ele>
        <time>2024-07-14T07:26:35.000Z</time>
      </trkpt>
      <trkpt lat="45.02455" lon="5.48513">
        <ele>1505.5999755859</ele>
        <time>2024-07-14T07:26:36.000Z</time>
      </trkpt>
      <trkpt lat="45.02454" lon="5.48513">
        <ele>1505.8000488281</ele>
        <time>2024-07-14T07:26:37.000Z</time>
      </trkpt>
      <trkpt lat="45.02454" lon="5.48512">
        <ele>1506</ele>
        <time>2024-07-14T07:26:38.000Z</time>
      </trkpt>
      <trkpt lat="45.02455" lon="5.48512">
        <ele>1506.1999511719</ele>
        <time>2024-07-14T07:26:39.000Z</time>
      </trkpt>
      <trkpt lat="45.02455" lon="5.4851">
        <ele>1506.4000244141</ele>
        <time>2024-07-14T07:26:40.000Z</time>
      </trkpt>
      <trkpt lat="45.02455" lon="5.48509">
        <ele>1506.5999755859</ele>
        <time>2024-07-14T07:26:41.000Z</time>
      </trkpt>
      <trkpt lat="45.02455" lon="5.48509">
        <ele>1506.8000488281</ele>
        <time>2024-07-14T07:26:42.000Z</time>
      </trkpt>
      <trkpt lat="45.02454" lon="5.48508">
        <ele>1507</ele>
        <time>2024-07-14T07:26:43.000Z</time>
      </trkpt>
      <trkpt lat="45.02454" lon="5.48508">
        <ele>1507.1999511719</ele>
        <time>2024-07-14T07:26:44.000Z</time>
      </trkpt>
      <trkpt lat="45.02454" lon="5.48507">
        <ele>1507.1999511719</ele>
        <time>2024-07-14T07:26:45.000Z</time>
      </trkpt>
      <trkpt lat="45.02454" lon="5.48506">
        <ele>1507.4000244141</ele>
        <time>2024-07-14T07:26:46.000Z</time>
      </trkpt>
      <trkpt lat="45.02453" lon="5.48505">
        <ele>1507.5999755859</ele>
        <time>2024-07-14T07:26:47.000Z</time>
      </trkpt>
      <trkpt lat="45.02453" lon="5.48505">
        <ele>1508</ele>
        <time>2024-07-14T07:26:48.000Z</time>
      </trkpt>
      <trkpt lat="45.02453" lon="5.48504">
        <ele>1508.1999511719</ele>
        <time>2024-07-14T07:26:49.000Z</time>
      </trkpt>
      <trkpt lat="45.02452" lon="5.48503">
        <ele>1508.5999755859</ele>
        <time>2024-07-14T07:26:50.000Z</time>
      </trkpt>
      <trkpt lat="45.02452" lon="5.48504">
        <ele>1508.8000488281</ele>
        <time>2024-07-14T07:26:51.000Z</time>
      </trkpt>
      <trkpt lat="45.02452" lon="5.48503">
        <ele>1509.1999511719</ele>
        <time>2024-07-14T07:26:52.000Z</time>
      </trkpt>
      <trkpt lat="45.02451" lon="5.48502">
        <ele>1509.4000244141</ele>
        <time>2024-07-14T07:26:53.000Z</time>
      </trkpt>
      <trkpt lat="45.0245" lon="5.48501">
        <ele>1509.4000244141</ele>
        <time>2024-07-14T07:26:54.000Z</time>
      </trkpt>
      <trkpt lat="45.0245" lon="5.48501">
        <ele>1509.8000488281</ele>
        <time>2024-07-14T07:26:55.000Z</time>
      </trkpt>
      <trkpt lat="45.02449" lon="5.48502">
        <ele>1510</ele>
        <time>2024-07-14T07:26:56.000Z</time>
      </trkpt>
      <trkpt lat="45.02449" lon="5.48502">
        <ele>1510.4000244141</ele>
        <time>2024-07-14T07:26:57.000Z</time>
      </trkpt>
      <trkpt lat="45.02448" lon="5.48503">
        <ele>1510.4000244141</ele>
        <time>2024-07-14T07:26:58.000Z</time>
      </trkpt>
      <trkpt lat="45.02447" lon="5.48502">
        <ele>1510.8000488281</ele>
        <time>2024-07-14T07:26:59.000Z</time>
      </trkpt>
      <trkpt lat="45.02447" lon="5.48502">
        <ele>1511</ele>
        <time>2024-07-14T07:27:00.000Z</time>
      </trkpt>
      <trkpt lat="45.02447" lon="5.485">
        <ele>1511.5999755859</ele>
        <time>2024-07-14T07:27:01.000Z</time>
      </trkpt>
      <trkpt lat="45.02446" lon="5.48499">
        <ele>1511.8000488281</ele>
        <time>2024-07-14T07:27:02.000Z</time>
      </trkpt>
      <trkpt lat="45.02446" lon="5.48498">
        <ele>1512</ele>
        <time>2024-07-14T07:27:03.000Z</time>
      </trkpt>
      <trkpt lat="45.02446" lon="5.48497">
        <ele>1512.1999511719</ele>
        <time>2024-07-14T07:27:04.000Z</time>
      </trkpt>
      <trkpt lat="45.02445" lon="5.48496">
        <ele>1512.5999755859</ele>
        <time>2024-07-14T07:27:05.000Z</time>
      </trkpt>
      <trkpt lat="45.02446" lon="5.48495">
        <ele>1512.8000488281</ele>
        <time>2024-07-14T07:27:06.000Z</time>
      </trkpt>
      <trkpt lat="45.02445" lon="5.48494">
        <ele>1513</ele>
        <time>2024-07-14T07:27:07.000Z</time>
      </trkpt>
      <trkpt lat="45.02445" lon="5.48493">
        <ele>1513.1999511719</ele>
        <time>2024-07-14T07:27:08.000Z</time>
      </trkpt>
      <trkpt lat="45.02445" lon="5.48493">
        <ele>1513.5999755859</ele>
        <time>2024-07-14T07:27:09.000Z</time>
      </trkpt>
      <trkpt lat="45.02444" lon="5.48492">
        <ele>1513.8000488281</ele>
        <time>2024-07-14T07:27:10.000Z</time>
      </trkpt>
      <trkpt lat="45.02444" lon="5.4849">
        <ele>1514</ele>
        <time>2024-07-14T07:27:11.000Z</time>
      </trkpt>
      <trkpt lat="45.02444" lon="5.48489">
        <ele>1514.1999511719</ele>
        <time>2024-07-14T07:27:12.000Z</time>
      </trkpt>
      <trkpt lat="45.02443" lon="5.48488">
        <ele>1514.8000488281</ele>
        <time>2024-07-14T07:27:13.000Z</time>
      </trkpt>
      <trkpt lat="45.02443" lon="5.48488">
        <ele>1514.8000488281</ele>
        <time>2024-07-14T07:27:14.000Z</time>
      </trkpt>
      <trkpt lat="45.02443" lon="5.48488">
        <ele>1515</ele>
        <time>2024-07-14T07:27:15.000Z</time>
      </trkpt>
      <trkpt lat="45.02443" lon="5.48487">
        <ele>1515.4000244141</ele>
        <time>2024-07-14T07:27:16.000Z</time>
      </trkpt>
      <trkpt lat="45.02443" lon="5.48485">
        <ele>1516</ele>
        <time>2024-07-14T07:27:17.000Z</time>
      </trkpt>
      <trkpt lat="45.02443" lon="5.48484">
        <ele>1516.1999511719</ele>
        <time>2024-07-14T07:27:18.000Z</time>
      </trkpt>
      <trkpt lat="45.02443" lon="5.48484">
        <ele>1516.4000244141</ele>
        <time>2024-07-14T07:27:19.000Z</time>
      </trkpt>
      <trkpt lat="45.02443" lon="5.48482">
        <ele>1516.5999755859</ele>
        <time>2024-07-14T07:27:20.000Z</time>
      </trkpt>
      <trkpt lat="45.02443" lon="5.48481">
        <ele>1517</ele>
        <time>2024-07-14T07:27:21.000Z</time>
      </trkpt>
      <trkpt lat="45.02443" lon="5.4848">
        <ele>1517.1999511719</ele>
        <time>2024-07-14T07:27:22.000Z</time>
      </trkpt>
      <trkpt lat="45.02443" lon="5.48479">
        <ele>1517.4000244141</ele>
        <time>2024-07-14T07:27:23.000Z</time>
      </trkpt>
      <trkpt lat="45.02443" lon="5.48478">
        <ele>1517.8000488281</ele>
        <time>2024-07-14T07:27:24.000Z</time>
      </trkpt>
      <trkpt lat="45.02443" lon="5.48477">
        <ele>1517.8000488281</ele>
        <time>2024-07-14T07:27:25.000Z</time>
      </trkpt>
      <trkpt lat="45.02442" lon="5.48476">
        <ele>1518</ele>
        <time>2024-07-14T07:27:26.000Z</time>
      </trkpt>
      <trkpt lat="45.02442" lon="5.48475">
        <ele>1518.1999511719</ele>
        <time>2024-07-14T07:27:27.000Z</time>
      </trkpt>
      <trkpt lat="45.02442" lon="5.48473">
        <ele>1518.5999755859</ele>
        <time>2024-07-14T07:27:28.000Z</time>
      </trkpt>
      <trkpt lat="45.02442" lon="5.48472">
        <ele>1518.8000488281</ele>
        <time>2024-07-14T07:27:29.000Z</time>
      </trkpt>
      <trkpt lat="45.02442" lon="5.48471">
        <ele>1519</ele>
        <time>2024-07-14T07:27:30.000Z</time>
      </trkpt>
      <trkpt lat="45.02443" lon="5.48469">
        <ele>1519.4000244141</ele>
        <time>2024-07-14T07:27:31.000Z</time>
      </trkpt>
      <trkpt lat="45.02443" lon="5.48468">
        <ele>1519.5999755859</ele>
        <time>2024-07-14T07:27:32.000Z</time>
      </trkpt>
      <trkpt lat="45.02444" lon="5.48466">
        <ele>1520</ele>
        <time>2024-07-14T07:27:33.000Z</time>
      </trkpt>
      <trkpt lat="45.02444" lon="5.48466">
        <ele>1520.1999511719</ele>
        <time>2024-07-14T07:27:34.000Z</time>
      </trkpt>
      <trkpt lat="45.02444" lon="5.48466">
        <ele>1520.4000244141</ele>
        <time>2024-07-14T07:27:35.000Z</time>
      </trkpt>
      <trkpt lat="45.02444" lon="5.48466">
        <ele>1520.5999755859</ele>
        <time>2024-07-14T07:27:36.000Z</time>
      </trkpt>
      <trkpt lat="45.02443" lon="5.48466">
        <ele>1520.8000488281</ele>
        <time>2024-07-14T07:27:37.000Z</time>
      </trkpt>
      <trkpt lat="45.02443" lon="5.48466">
        <ele>1520.8000488281</ele>
        <time>2024-07-14T07:27:38.000Z</time>
      </trkpt>
      <trkpt lat="45.02443" lon="5.48466">
        <ele>1521</ele>
        <time>2024-07-14T07:27:39.000Z</time>
      </trkpt>
      <trkpt lat="45.02443" lon="5.48466">
        <ele>1521.4000244141</ele>
        <time>2024-07-14T07:27:40.000Z</time>
      </trkpt>
      <trkpt lat="45.02443" lon="5.48466">
        <ele>1521.5999755859</ele>
        <time>2024-07-14T07:27:41.000Z</time>
      </trkpt>
      <trkpt lat="45.02442" lon="5.48466">
        <ele>1521.8000488281</ele>
        <time>2024-07-14T07:27:42.000Z</time>
      </trkpt>
      <trkpt lat="45.02441" lon="5.48466">
        <ele>1522</ele>
        <time>2024-07-14T07:27:43.000Z</time>
      </trkpt>
      <trkpt lat="45.02441" lon="5.48467">
        <ele>1522</ele>
        <time>2024-07-14T07:27:44.000Z</time>
      </trkpt>
      <trkpt lat="45.0244" lon="5.48467">
        <ele>1522.4000244141</ele>
        <time>2024-07-14T07:27:45.000Z</time>
      </trkpt>
      <trkpt lat="45.02439" lon="5.48468">
        <ele>1522.8000488281</ele>
        <time>2024-07-14T07:27:46.000Z</time>
      </trkpt>
      <trkpt lat="45.02439" lon="5.48468">
        <ele>1523</ele>
        <time>2024-07-14T07:27:47.000Z</time>
      </trkpt>
      <trkpt lat="45.02439" lon="5.48468">
        <ele>1523.1999511719</ele>
        <time>2024-07-14T07:27:48.000Z</time>
      </trkpt>
      <trkpt lat="45.02438" lon="5.48468">
        <ele>1523.4000244141</ele>
        <time>2024-07-14T07:27:49.000Z</time>
      </trkpt>
      <trkpt lat="45.02438" lon="5.48469">
        <ele>1523.5999755859</ele>
        <time>2024-07-14T07:27:50.000Z</time>
      </trkpt>
      <trkpt lat="45.02437" lon="5.48469">
        <ele>1523.8000488281</ele>
        <time>2024-07-14T07:27:51.000Z</time>
      </trkpt>
      <trkpt lat="45.02436" lon="5.4847">
        <ele>1524.1999511719</ele>
        <time>2024-07-14T07:27:52.000Z</time>
      </trkpt>
      <trkpt lat="45.02435" lon="5.48471">
        <ele>1524.4000244141</ele>
        <time>2024-07-14T07:27:53.000Z</time>
      </trkpt>
      <trkpt lat="45.02434" lon="5.48472">
        <ele>1524.5999755859</ele>
        <time>2024-07-14T07:27:54.000Z</time>
      </trkpt>
      <trkpt lat="45.02433" lon="5.48472">
        <ele>1524.8000488281</ele>
        <time>2024-07-14T07:27:55.000Z</time>
      </trkpt>
      <trkpt lat="45.02432" lon="5.48472">
        <ele>1525.1999511719</ele>
        <time>2024-07-14T07:27:56.000Z</time>
      </trkpt>
      <trkpt lat="45.02431" lon="5.48473">
        <ele>1525.1999511719</ele>
        <time>2024-07-14T07:27:57.000Z</time>
      </trkpt>
      <trkpt lat="45.02431" lon="5.48474">
        <ele>1525.4000244141</ele>
        <time>2024-07-14T07:27:58.000Z</time>
      </trkpt>
      <trkpt lat="45.0243" lon="5.48474">
        <ele>1525.8000488281</ele>
        <time>2024-07-14T07:27:59.000Z</time>
      </trkpt>
      <trkpt lat="45.02429" lon="5.48475">
        <ele>1526</ele>
        <time>2024-07-14T07:28:00.000Z</time>
      </trkpt>
      <trkpt lat="45.02429" lon="5.48475">
        <ele>1526</ele>
        <time>2024-07-14T07:28:01.000Z</time>
      </trkpt>
      <trkpt lat="45.02428" lon="5.48476">
        <ele>1526.4000244141</ele>
        <time>2024-07-14T07:28:02.000Z</time>
      </trkpt>
      <trkpt lat="45.02427" lon="5.48477">
        <ele>1526.8000488281</ele>
        <time>2024-07-14T07:28:03.000Z</time>
      </trkpt>
      <trkpt lat="45.02426" lon="5.48478">
        <ele>1527</ele>
        <time>2024-07-14T07:28:04.000Z</time>
      </trkpt>
      <trkpt lat="45.02425" lon="5.48479">
        <ele>1527.1999511719</ele>
        <time>2024-07-14T07:28:05.000Z</time>
      </trkpt>
      <trkpt lat="45.02424" lon="5.4848">
        <ele>1527.5999755859</ele>
        <time>2024-07-14T07:28:06.000Z</time>
      </trkpt>
      <trkpt lat="45.02424" lon="5.48481">
        <ele>1527.8000488281</ele>
        <time>2024-07-14T07:28:07.000Z</time>
      </trkpt>
      <trkpt lat="45.02424" lon="5.48481">
        <ele>1528</ele>
        <time>2024-07-14T07:28:08.000Z</time>
      </trkpt>
      <trkpt lat="45.02424" lon="5.48483">
        <ele>1528.4000244141</ele>
        <time>2024-07-14T07:28:09.000Z</time>
      </trkpt>
      <trkpt lat="45.02423" lon="5.48484">
        <ele>1528.4000244141</ele>
        <time>2024-07-14T07:28:10.000Z</time>
      </trkpt>
      <trkpt lat="45.02423" lon="5.48485">
        <ele>1528.5999755859</ele>
        <time>2024-07-14T07:28:11.000Z</time>
      </trkpt>
      <trkpt lat="45.02422" lon="5.48486">
        <ele>1528.8000488281</ele>
        <time>2024-07-14T07:28:12.000Z</time>
      </trkpt>
      <trkpt lat="45.02421" lon="5.48487">
        <ele>1529</ele>
        <time>2024-07-14T07:28:13.000Z</time>
      </trkpt>
      <trkpt lat="45.0242" lon="5.48487">
        <ele>1529.1999511719</ele>
        <time>2024-07-14T07:28:14.000Z</time>
      </trkpt>
      <trkpt lat="45.02419" lon="5.48486">
        <ele>1529.5999755859</ele>
        <time>2024-07-14T07:28:15.000Z</time>
      </trkpt>
      <trkpt lat="45.02418" lon="5.48486">
        <ele>1529.8000488281</ele>
        <time>2024-07-14T07:28:16.000Z</time>
      </trkpt>
      <trkpt lat="45.02417" lon="5.48486">
        <ele>1530.1999511719</ele>
        <time>2024-07-14T07:28:17.000Z</time>
      </trkpt>
      <trkpt lat="45.02417" lon="5.48485">
        <ele>1530.4000244141</ele>
        <time>2024-07-14T07:28:18.000Z</time>
      </trkpt>
      <trkpt lat="45.02416" lon="5.48484">
        <ele>1530.5999755859</ele>
        <time>2024-07-14T07:28:19.000Z</time>
      </trkpt>
      <trkpt lat="45.02415" lon="5.48483">
        <ele>1531</ele>
        <time>2024-07-14T07:28:20.000Z</time>
      </trkpt>
      <trkpt lat="45.02415" lon="5.48482">
        <ele>1531.1999511719</ele>
        <time>2024-07-14T07:28:21.000Z</time>
      </trkpt>
      <trkpt lat="45.02415" lon="5.48481">
        <ele>1531.5999755859</ele>
        <time>2024-07-14T07:28:22.000Z</time>
      </trkpt>
      <trkpt lat="45.02414" lon="5.4848">
        <ele>1532.1999511719</ele>
        <time>2024-07-14T07:28:23.000Z</time>
      </trkpt>
      <trkpt lat="45.02414" lon="5.48479">
        <ele>1532.1999511719</ele>
        <time>2024-07-14T07:28:24.000Z</time>
      </trkpt>
      <trkpt lat="45.02414" lon="5.48478">
        <ele>1532.5999755859</ele>
        <time>2024-07-14T07:28:25.000Z</time>
      </trkpt>
      <trkpt lat="45.02414" lon="5.48477">
        <ele>1532.8000488281</ele>
        <time>2024-07-14T07:28:26.000Z</time>
      </trkpt>
      <trkpt lat="45.02413" lon="5.48477">
        <ele>1533</ele>
        <time>2024-07-14T07:28:27.000Z</time>
      </trkpt>
      <trkpt lat="45.02413" lon="5.48476">
        <ele>1533.4000244141</ele>
        <time>2024-07-14T07:28:28.000Z</time>
      </trkpt>
      <trkpt lat="45.02413" lon="5.48476">
        <ele>1533.4000244141</ele>
        <time>2024-07-14T07:28:29.000Z</time>
      </trkpt>
      <trkpt lat="45.02412" lon="5.48474">
        <ele>1533.8000488281</ele>
        <time>2024-07-14T07:28:30.000Z</time>
      </trkpt>
      <trkpt lat="45.02412" lon="5.48473">
        <ele>1534</ele>
        <time>2024-07-14T07:28:31.000Z</time>
      </trkpt>
      <trkpt lat="45.02411" lon="5.48471">
        <ele>1534.1999511719</ele>
        <time>2024-07-14T07:28:32.000Z</time>
      </trkpt>
      <trkpt lat="45.0241" lon="5.4847">
        <ele>1534.5999755859</ele>
        <time>2024-07-14T07:28:33.000Z</time>
      </trkpt>
      <trkpt lat="45.0241" lon="5.48468">
        <ele>1534.8000488281</ele>
        <time>2024-07-14T07:28:34.000Z</time>
      </trkpt>
      <trkpt lat="45.0241" lon="5.48468">
        <ele>1535.1999511719</ele>
        <time>2024-07-14T07:28:35.000Z</time>
      </trkpt>
      <trkpt lat="45.0241" lon="5.48467">
        <ele>1535.4000244141</ele>
        <time>2024-07-14T07:28:36.000Z</time>
      </trkpt>
      <trkpt lat="45.02409" lon="5.48467">
        <ele>1535.5999755859</ele>
        <time>2024-07-14T07:28:37.000Z</time>
      </trkpt>
      <trkpt lat="45.02409" lon="5.48468">
        <ele>1535.8000488281</ele>
        <time>2024-07-14T07:28:38.000Z</time>
      </trkpt>
      <trkpt lat="45.02408" lon="5.48468">
        <ele>1536</ele>
        <time>2024-07-14T07:28:39.000Z</time>
      </trkpt>
      <trkpt lat="45.02408" lon="5.48469">
        <ele>1536.1999511719</ele>
        <time>2024-07-14T07:28:40.000Z</time>
      </trkpt>
      <trkpt lat="45.02408" lon="5.4847">
        <ele>1536.5999755859</ele>
        <time>2024-07-14T07:28:41.000Z</time>
      </trkpt>
      <trkpt lat="45.02407" lon="5.48471">
        <ele>1536.8000488281</ele>
        <time>2024-07-14T07:28:42.000Z</time>
      </trkpt>
      <trkpt lat="45.02406" lon="5.48472">
        <ele>1537.1999511719</ele>
        <time>2024-07-14T07:28:43.000Z</time>
      </trkpt>
      <trkpt lat="45.02406" lon="5.48473">
        <ele>1537.4000244141</ele>
        <time>2024-07-14T07:28:44.000Z</time>
      </trkpt>
      <trkpt lat="45.02405" lon="5.48474">
        <ele>1537.8000488281</ele>
        <time>2024-07-14T07:28:45.000Z</time>
      </trkpt>
      <trkpt lat="45.02404" lon="5.48475">
        <ele>1538</ele>
        <time>2024-07-14T07:28:46.000Z</time>
      </trkpt>
      <trkpt lat="45.02403" lon="5.48475">
        <ele>1538.4000244141</ele>
        <time>2024-07-14T07:28:47.000Z</time>
      </trkpt>
      <trkpt lat="45.02403" lon="5.48476">
        <ele>1538.5999755859</ele>
        <time>2024-07-14T07:28:48.000Z</time>
      </trkpt>
      <trkpt lat="45.02402" lon="5.48476">
        <ele>1538.8000488281</ele>
        <time>2024-07-14T07:28:49.000Z</time>
      </trkpt>
      <trkpt lat="45.02401" lon="5.48476">
        <ele>1539.1999511719</ele>
        <time>2024-07-14T07:28:50.000Z</time>
      </trkpt>
      <trkpt lat="45.024" lon="5.48475">
        <ele>1539.4000244141</ele>
        <time>2024-07-14T07:28:51.000Z</time>
      </trkpt>
      <trkpt lat="45.024" lon="5.48474">
        <ele>1539.5999755859</ele>
        <time>2024-07-14T07:28:52.000Z</time>
      </trkpt>
      <trkpt lat="45.024" lon="5.48473">
        <ele>1539.8000488281</ele>
        <time>2024-07-14T07:28:53.000Z</time>
      </trkpt>
      <trkpt lat="45.024" lon="5.48472">
        <ele>1540.1999511719</ele>
        <time>2024-07-14T07:28:54.000Z</time>
      </trkpt>
      <trkpt lat="45.02399" lon="5.48472">
        <ele>1540.4000244141</ele>
        <time>2024-07-14T07:28:55.000Z</time>
      </trkpt>
      <trkpt lat="45.02399" lon="5.48471">
        <ele>1540.5999755859</ele>
        <time>2024-07-14T07:28:56.000Z</time>
      </trkpt>
      <trkpt lat="45.02399" lon="5.48471">
        <ele>1541</ele>
        <time>2024-07-14T07:28:57.000Z</time>
      </trkpt>
      <trkpt lat="45.02399" lon="5.48471">
        <ele>1541.1999511719</ele>
        <time>2024-07-14T07:28:58.000Z</time>
      </trkpt>
      <trkpt lat="45.02399" lon="5.48471">
        <ele>1541.4000244141</ele>
        <time>2024-07-14T07:28:59.000Z</time>
      </trkpt>
      <trkpt lat="45.02398" lon="5.48471">
        <ele>1541.5999755859</ele>
        <time>2024-07-14T07:29:00.000Z</time>
      </trkpt>
      <trkpt lat="45.02397" lon="5.48472">
        <ele>1542</ele>
        <time>2024-07-14T07:29:01.000Z</time>
      </trkpt>
      <trkpt lat="45.02397" lon="5.48472">
        <ele>1542.1999511719</ele>
        <time>2024-07-14T07:29:02.000Z</time>
      </trkpt>
      <trkpt lat="45.02397" lon="5.48473">
        <ele>1542.5999755859</ele>
        <time>2024-07-14T07:29:03.000Z</time>
      </trkpt>
      <trkpt lat="45.02396" lon="5.48473">
        <ele>1542.8000488281</ele>
        <time>2024-07-14T07:29:04.000Z</time>
      </trkpt>
      <trkpt lat="45.02396" lon="5.48473">
        <ele>1543</ele>
        <time>2024-07-14T07:29:05.000Z</time>
      </trkpt>
      <trkpt lat="45.02395" lon="5.48473">
        <ele>1543.4000244141</ele>
        <time>2024-07-14T07:29:06.000Z</time>
      </trkpt>
      <trkpt lat="45.02395" lon="5.48473">
        <ele>1543.5999755859</ele>
        <time>2024-07-14T07:29:07.000Z</time>
      </trkpt>
      <trkpt lat="45.02394" lon="5.48472">
        <ele>1543.8000488281</ele>
        <time>2024-07-14T07:29:08.000Z</time>
      </trkpt>
      <trkpt lat="45.02393" lon="5.48473">
        <ele>1544</ele>
        <time>2024-07-14T07:29:09.000Z</time>
      </trkpt>
      <trkpt lat="45.02393" lon="5.48473">
        <ele>1544.4000244141</ele>
        <time>2024-07-14T07:29:10.000Z</time>
      </trkpt>
      <trkpt lat="45.02392" lon="5.48474">
        <ele>1544.5999755859</ele>
        <time>2024-07-14T07:29:11.000Z</time>
      </trkpt>
      <trkpt lat="45.02392" lon="5.48474">
        <ele>1544.8000488281</ele>
        <time>2024-07-14T07:29:12.000Z</time>
      </trkpt>
      <trkpt lat="45.02391" lon="5.48474">
        <ele>1545.1999511719</ele>
        <time>2024-07-14T07:29:13.000Z</time>
      </trkpt>
      <trkpt lat="45.02391" lon="5.48475">
        <ele>1545.4000244141</ele>
        <time>2024-07-14T07:29:14.000Z</time>
      </trkpt>
      <trkpt lat="45.0239" lon="5.48476">
        <ele>1545.5999755859</ele>
        <time>2024-07-14T07:29:15.000Z</time>
      </trkpt>
      <trkpt lat="45.02389" lon="5.48476">
        <ele>1546</ele>
        <time>2024-07-14T07:29:16.000Z</time>
      </trkpt>
      <trkpt lat="45.02388" lon="5.48475">
        <ele>1546.1999511719</ele>
        <time>2024-07-14T07:29:17.000Z</time>
      </trkpt>
      <trkpt lat="45.02387" lon="5.48474">
        <ele>1546.4000244141</ele>
        <time>2024-07-14T07:29:18.000Z</time>
      </trkpt>
      <trkpt lat="45.02387" lon="5.48473">
        <ele>1546.5999755859</ele>
        <time>2024-07-14T07:29:19.000Z</time>
      </trkpt>
      <trkpt lat="45.02386" lon="5.48472">
        <ele>1547</ele>
        <time>2024-07-14T07:29:20.000Z</time>
      </trkpt>
      <trkpt lat="45.02386" lon="5.48471">
        <ele>1547.1999511719</ele>
        <time>2024-07-14T07:29:21.000Z</time>
      </trkpt>
      <trkpt lat="45.02386" lon="5.48471">
        <ele>1547.4000244141</ele>
        <time>2024-07-14T07:29:22.000Z</time>
      </trkpt>
      <trkpt lat="45.02386" lon="5.4847">
        <ele>1547.5999755859</ele>
        <time>2024-07-14T07:29:23.000Z</time>
      </trkpt>
      <trkpt lat="45.02385" lon="5.48469">
        <ele>1547.8000488281</ele>
        <time>2024-07-14T07:29:24.000Z</time>
      </trkpt>
      <trkpt lat="45.02385" lon="5.48468">
        <ele>1548</ele>
        <time>2024-07-14T07:29:25.000Z</time>
      </trkpt>
      <trkpt lat="45.02385" lon="5.48467">
        <ele>1548.1999511719</ele>
        <time>2024-07-14T07:29:26.000Z</time>
      </trkpt>
      <trkpt lat="45.02384" lon="5.48467">
        <ele>1548.4000244141</ele>
        <time>2024-07-14T07:29:27.000Z</time>
      </trkpt>
      <trkpt lat="45.02384" lon="5.48466">
        <ele>1548.5999755859</ele>
        <time>2024-07-14T07:29:28.000Z</time>
      </trkpt>
      <trkpt lat="45.02383" lon="5.48466">
        <ele>1548.8000488281</ele>
        <time>2024-07-14T07:29:29.000Z</time>
      </trkpt>
      <trkpt lat="45.02383" lon="5.48465">
        <ele>1549</ele>
        <time>2024-07-14T07:29:30.000Z</time>
      </trkpt>
      <trkpt lat="45.02383" lon="5.48463">
        <ele>1549.1999511719</ele>
        <time>2024-07-14T07:29:31.000Z</time>
      </trkpt>
      <trkpt lat="45.02383" lon="5.48463">
        <ele>1549.4000244141</ele>
        <time>2024-07-14T07:29:32.000Z</time>
      </trkpt>
      <trkpt lat="45.02383" lon="5.48462">
        <ele>1549.5999755859</ele>
        <time>2024-07-14T07:29:33.000Z</time>
      </trkpt>
      <trkpt lat="45.02382" lon="5.48461">
        <ele>1549.8000488281</ele>
        <time>2024-07-14T07:29:34.000Z</time>
      </trkpt>
      <trkpt lat="45.02381" lon="5.48461">
        <ele>1550</ele>
        <time>2024-07-14T07:29:35.000Z</time>
      </trkpt>
      <trkpt lat="45.02381" lon="5.4846">
        <ele>1550.4000244141</ele>
        <time>2024-07-14T07:29:36.000Z</time>
      </trkpt>
      <trkpt lat="45.0238" lon="5.4846">
        <ele>1550.5999755859</ele>
        <time>2024-07-14T07:29:37.000Z</time>
      </trkpt>
      <trkpt lat="45.0238" lon="5.48458">
        <ele>1550.8000488281</ele>
        <time>2024-07-14T07:29:38.000Z</time>
      </trkpt>
      <trkpt lat="45.0238" lon="5.48458">
        <ele>1551</ele>
        <time>2024-07-14T07:29:39.000Z</time>
      </trkpt>
      <trkpt lat="45.0238" lon="5.48457">
        <ele>1551.4000244141</ele>
        <time>2024-07-14T07:29:40.000Z</time>
      </trkpt>
      <trkpt lat="45.0238" lon="5.48456">
        <ele>1551.5999755859</ele>
        <time>2024-07-14T07:29:41.000Z</time>
      </trkpt>
      <trkpt lat="45.0238" lon="5.48455">
        <ele>1551.8000488281</ele>
        <time>2024-07-14T07:29:42.000Z</time>
      </trkpt>
      <trkpt lat="45.02379" lon="5.48456">
        <ele>1552</ele>
        <time>2024-07-14T07:29:43.000Z</time>
      </trkpt>
      <trkpt lat="45.02379" lon="5.48456">
        <ele>1552.1999511719</ele>
        <time>2024-07-14T07:29:44.000Z</time>
      </trkpt>
      <trkpt lat="45.02379" lon="5.48456">
        <ele>1552.5999755859</ele>
        <time>2024-07-14T07:29:45.000Z</time>
      </trkpt>
      <trkpt lat="45.02378" lon="5.48456">
        <ele>1552.8000488281</ele>
        <time>2024-07-14T07:29:46.000Z</time>
      </trkpt>
      <trkpt lat="45.02378" lon="5.48456">
        <ele>1553</ele>
        <time>2024-07-14T07:29:47.000Z</time>
      </trkpt>
      <trkpt lat="45.02377" lon="5.48455">
        <ele>1553.1999511719</ele>
        <time>2024-07-14T07:29:48.000Z</time>
      </trkpt>
      <trkpt lat="45.02377" lon="5.48454">
        <ele>1553.5999755859</ele>
        <time>2024-07-14T07:29:49.000Z</time>
      </trkpt>
      <trkpt lat="45.02376" lon="5.48454">
        <ele>1554</ele>
        <time>2024-07-14T07:29:50.000Z</time>
      </trkpt>
      <trkpt lat="45.02376" lon="5.48453">
        <ele>1554.1999511719</ele>
        <time>2024-07-14T07:29:51.000Z</time>
      </trkpt>
      <trkpt lat="45.02376" lon="5.48454">
        <ele>1554.4000244141</ele>
        <time>2024-07-14T07:29:52.000Z</time>
      </trkpt>
      <trkpt lat="45.02376" lon="5.48454">
        <ele>1554.5999755859</ele>
        <time>2024-07-14T07:29:53.000Z</time>
      </trkpt>
      <trkpt lat="45.02375" lon="5.48454">
        <ele>1554.8000488281</ele>
        <time>2024-07-14T07:29:54.000Z</time>
      </trkpt>
      <trkpt lat="45.02374" lon="5.48454">
        <ele>1555</ele>
        <time>2024-07-14T07:29:55.000Z</time>
      </trkpt>
      <trkpt lat="45.02374" lon="5.48453">
        <ele>1555.4000244141</ele>
        <time>2024-07-14T07:29:56.000Z</time>
      </trkpt>
      <trkpt lat="45.02373" lon="5.48453">
        <ele>1555.8000488281</ele>
        <time>2024-07-14T07:29:57.000Z</time>
      </trkpt>
      <trkpt lat="45.02373" lon="5.48452">
        <ele>1556</ele>
        <time>2024-07-14T07:29:58.000Z</time>
      </trkpt>
      <trkpt lat="45.02372" lon="5.48451">
        <ele>1556.1999511719</ele>
        <time>2024-07-14T07:29:59.000Z</time>
      </trkpt>
      <trkpt lat="45.02372" lon="5.4845">
        <ele>1556.4000244141</ele>
        <time>2024-07-14T07:30:00.000Z</time>
      </trkpt>
      <trkpt lat="45.02371" lon="5.48449">
        <ele>1556.4000244141</ele>
        <time>2024-07-14T07:30:01.000Z</time>
      </trkpt>
      <trkpt lat="45.0237" lon="5.48449">
        <ele>1556.5999755859</ele>
        <time>2024-07-14T07:30:02.000Z</time>
      </trkpt>
      <trkpt lat="45.02369" lon="5.48449">
        <ele>1557</ele>
        <time>2024-07-14T07:30:03.000Z</time>
      </trkpt>
      <trkpt lat="45.02368" lon="5.48448">
        <ele>1557.1999511719</ele>
        <time>2024-07-14T07:30:04.000Z</time>
      </trkpt>
      <trkpt lat="45.02367" lon="5.48448">
        <ele>1557.5999755859</ele>
        <time>2024-07-14T07:30:05.000Z</time>
      </trkpt>
      <trkpt lat="45.02366" lon="5.48447">
        <ele>1557.8000488281</ele>
        <time>2024-07-14T07:30:06.000Z</time>
      </trkpt>
      <trkpt lat="45.02366" lon="5.48446">
        <ele>1558</ele>
        <time>2024-07-14T07:30:07.000Z</time>
      </trkpt>
      <trkpt lat="45.02366" lon="5.48445">
        <ele>1558.4000244141</ele>
        <time>2024-07-14T07:30:08.000Z</time>
      </trkpt>
      <trkpt lat="45.02366" lon="5.48444">
        <ele>1558.5999755859</ele>
        <time>2024-07-14T07:30:09.000Z</time>
      </trkpt>
      <trkpt lat="45.02366" lon="5.48443">
        <ele>1558.8000488281</ele>
        <time>2024-07-14T07:30:10.000Z</time>
      </trkpt>
      <trkpt lat="45.02366" lon="5.48442">
        <ele>1559</ele>
        <time>2024-07-14T07:30:11.000Z</time>
      </trkpt>
      <trkpt lat="45.02366" lon="5.48442">
        <ele>1559.1999511719</ele>
        <time>2024-07-14T07:30:12.000Z</time>
      </trkpt>
      <trkpt lat="45.02366" lon="5.48441">
        <ele>1559.4000244141</ele>
        <time>2024-07-14T07:30:13.000Z</time>
      </trkpt>
      <trkpt lat="45.02366" lon="5.4844">
        <ele>1559.8000488281</ele>
        <time>2024-07-14T07:30:14.000Z</time>
      </trkpt>
      <trkpt lat="45.02366" lon="5.48439">
        <ele>1560</ele>
        <time>2024-07-14T07:30:15.000Z</time>
      </trkpt>
      <trkpt lat="45.02366" lon="5.48438">
        <ele>1560.1999511719</ele>
        <time>2024-07-14T07:30:16.000Z</time>
      </trkpt>
      <trkpt lat="45.02366" lon="5.48437">
        <ele>1560.1999511719</ele>
        <time>2024-07-14T07:30:17.000Z</time>
      </trkpt>
      <trkpt lat="45.02366" lon="5.48437">
        <ele>1560.4000244141</ele>
        <time>2024-07-14T07:30:18.000Z</time>
      </trkpt>
      <trkpt lat="45.02366" lon="5.48437">
        <ele>1560.5999755859</ele>
        <time>2024-07-14T07:30:19.000Z</time>
      </trkpt>
      <trkpt lat="45.02365" lon="5.48436">
        <ele>1560.8000488281</ele>
        <time>2024-07-14T07:30:20.000Z</time>
      </trkpt>
      <trkpt lat="45.02364" lon="5.48435">
        <ele>1561</ele>
        <time>2024-07-14T07:30:21.000Z</time>
      </trkpt>
      <trkpt lat="45.02363" lon="5.48435">
        <ele>1561.1999511719</ele>
        <time>2024-07-14T07:30:22.000Z</time>
      </trkpt>
      <trkpt lat="45.02363" lon="5.48434">
        <ele>1561.4000244141</ele>
        <time>2024-07-14T07:30:23.000Z</time>
      </trkpt>
      <trkpt lat="45.02362" lon="5.48433">
        <ele>1561.5999755859</ele>
        <time>2024-07-14T07:30:24.000Z</time>
      </trkpt>
      <trkpt lat="45.02362" lon="5.48433">
        <ele>1562.1999511719</ele>
        <time>2024-07-14T07:30:25.000Z</time>
      </trkpt>
      <trkpt lat="45.02362" lon="5.48432">
        <ele>1562.4000244141</ele>
        <time>2024-07-14T07:30:26.000Z</time>
      </trkpt>
      <trkpt lat="45.02362" lon="5.48431">
        <ele>1562.8000488281</ele>
        <time>2024-07-14T07:30:27.000Z</time>
      </trkpt>
      <trkpt lat="45.02363" lon="5.48431">
        <ele>1563</ele>
        <time>2024-07-14T07:30:28.000Z</time>
      </trkpt>
      <trkpt lat="45.02363" lon="5.4843">
        <ele>1563.4000244141</ele>
        <time>2024-07-14T07:30:29.000Z</time>
      </trkpt>
      <trkpt lat="45.02363" lon="5.4843">
        <ele>1563.5999755859</ele>
        <time>2024-07-14T07:30:30.000Z</time>
      </trkpt>
      <trkpt lat="45.02363" lon="5.4843">
        <ele>1563.8000488281</ele>
        <time>2024-07-14T07:30:31.000Z</time>
      </trkpt>
      <trkpt lat="45.02362" lon="5.4843">
        <ele>1564</ele>
        <time>2024-07-14T07:30:32.000Z</time>
      </trkpt>
      <trkpt lat="45.02362" lon="5.48431">
        <ele>1564.1999511719</ele>
        <time>2024-07-14T07:30:33.000Z</time>
      </trkpt>
      <trkpt lat="45.02362" lon="5.4843">
        <ele>1564.4000244141</ele>
        <time>2024-07-14T07:30:34.000Z</time>
      </trkpt>
      <trkpt lat="45.02362" lon="5.48429">
        <ele>1564.5999755859</ele>
        <time>2024-07-14T07:30:35.000Z</time>
      </trkpt>
      <trkpt lat="45.02361" lon="5.48428">
        <ele>1565</ele>
        <time>2024-07-14T07:30:36.000Z</time>
      </trkpt>
      <trkpt lat="45.02361" lon="5.48426">
        <ele>1565.1999511719</ele>
        <time>2024-07-14T07:30:37.000Z</time>
      </trkpt>
      <trkpt lat="45.02361" lon="5.48426">
        <ele>1565.4000244141</ele>
        <time>2024-07-14T07:30:38.000Z</time>
      </trkpt>
      <trkpt lat="45.02361" lon="5.48425">
        <ele>1565.5999755859</ele>
        <time>2024-07-14T07:30:39.000Z</time>
      </trkpt>
      <trkpt lat="45.0236" lon="5.48424">
        <ele>1566</ele>
        <time>2024-07-14T07:30:40.000Z</time>
      </trkpt>
      <trkpt lat="45.0236" lon="5.48424">
        <ele>1566.1999511719</ele>
        <time>2024-07-14T07:30:41.000Z</time>
      </trkpt>
      <trkpt lat="45.02359" lon="5.48424">
        <ele>1566.5999755859</ele>
        <time>2024-07-14T07:30:42.000Z</time>
      </trkpt>
      <trkpt lat="45.02359" lon="5.48424">
        <ele>1566.8000488281</ele>
        <time>2024-07-14T07:30:43.000Z</time>
      </trkpt>
      <trkpt lat="45.02359" lon="5.48423">
        <ele>1567</ele>
        <time>2024-07-14T07:30:44.000Z</time>
      </trkpt>
      <trkpt lat="45.02358" lon="5.48422">
        <ele>1567.4000244141</ele>
        <time>2024-07-14T07:30:45.000Z</time>
      </trkpt>
      <trkpt lat="45.02358" lon="5.48422">
        <ele>1567.8000488281</ele>
        <time>2024-07-14T07:30:46.000Z</time>
      </trkpt>
      <trkpt lat="45.02358" lon="5.48421">
        <ele>1568</ele>
        <time>2024-07-14T07:30:47.000Z</time>
      </trkpt>
      <trkpt lat="45.02358" lon="5.4842">
        <ele>1568.1999511719</ele>
        <time>2024-07-14T07:30:48.000Z</time>
      </trkpt>
      <trkpt lat="45.02357" lon="5.48419">
        <ele>1568.4000244141</ele>
        <time>2024-07-14T07:30:49.000Z</time>
      </trkpt>
      <trkpt lat="45.02356" lon="5.48419">
        <ele>1568.5999755859</ele>
        <time>2024-07-14T07:30:50.000Z</time>
      </trkpt>
      <trkpt lat="45.02356" lon="5.48418">
        <ele>1568.8000488281</ele>
        <time>2024-07-14T07:30:51.000Z</time>
      </trkpt>
      <trkpt lat="45.02355" lon="5.48418">
        <ele>1569</ele>
        <time>2024-07-14T07:30:52.000Z</time>
      </trkpt>
      <trkpt lat="45.02355" lon="5.48417">
        <ele>1569.1999511719</ele>
        <time>2024-07-14T07:30:53.000Z</time>
      </trkpt>
      <trkpt lat="45.02354" lon="5.48416">
        <ele>1569.5999755859</ele>
        <time>2024-07-14T07:30:54.000Z</time>
      </trkpt>
      <trkpt lat="45.02354" lon="5.48416">
        <ele>1569.8000488281</ele>
        <time>2024-07-14T07:30:55.000Z</time>
      </trkpt>
      <trkpt lat="45.02353" lon="5.48415">
        <ele>1569.8000488281</ele>
        <time>2024-07-14T07:30:56.000Z</time>
      </trkpt>
      <trkpt lat="45.02353" lon="5.48416">
        <ele>1569.8000488281</ele>
        <time>2024-07-14T07:30:57.000Z</time>
      </trkpt>
      <trkpt lat="45.02353" lon="5.48416">
        <ele>1570.1999511719</ele>
        <time>2024-07-14T07:30:58.000Z</time>
      </trkpt>
      <trkpt lat="45.02352" lon="5.48416">
        <ele>1570.4000244141</ele>
        <time>2024-07-14T07:30:59.000Z</time>
      </trkpt>
      <trkpt lat="45.02352" lon="5.48416">
        <ele>1570.4000244141</ele>
        <time>2024-07-14T07:31:00.000Z</time>
      </trkpt>
      <trkpt lat="45.02351" lon="5.48416">
        <ele>1570.8000488281</ele>
        <time>2024-07-14T07:31:01.000Z</time>
      </trkpt>
      <trkpt lat="45.02351" lon="5.48416">
        <ele>1571</ele>
        <time>2024-07-14T07:31:02.000Z</time>
      </trkpt>
      <trkpt lat="45.0235" lon="5.48416">
        <ele>1571.1999511719</ele>
        <time>2024-07-14T07:31:03.000Z</time>
      </trkpt>
      <trkpt lat="45.0235" lon="5.48415">
        <ele>1571.5999755859</ele>
        <time>2024-07-14T07:31:04.000Z</time>
      </trkpt>
      <trkpt lat="45.02349" lon="5.48415">
        <ele>1571.8000488281</ele>
        <time>2024-07-14T07:31:05.000Z</time>
      </trkpt>
      <trkpt lat="45.02349" lon="5.48415">
        <ele>1572.1999511719</ele>
        <time>2024-07-14T07:31:06.000Z</time>
      </trkpt>
      <trkpt lat="45.02348" lon="5.48415">
        <ele>1572.4000244141</ele>
        <time>2024-07-14T07:31:07.000Z</time>
      </trkpt>
      <trkpt lat="45.02347" lon="5.48415">
        <ele>1572.5999755859</ele>
        <time>2024-07-14T07:31:08.000Z</time>
      </trkpt>
      <trkpt lat="45.02347" lon="5.48416">
        <ele>1572.8000488281</ele>
        <time>2024-07-14T07:31:09.000Z</time>
      </trkpt>
      <trkpt lat="45.02346" lon="5.48416">
        <ele>1573</ele>
        <time>2024-07-14T07:31:10.000Z</time>
      </trkpt>
      <trkpt lat="45.02345" lon="5.48415">
        <ele>1573.1999511719</ele>
        <time>2024-07-14T07:31:11.000Z</time>
      </trkpt>
      <trkpt lat="45.02343" lon="5.48415">
        <ele>1573.1999511719</ele>
        <time>2024-07-14T07:31:12.000Z</time>
      </trkpt>
      <trkpt lat="45.02342" lon="5.48415">
        <ele>1573.4000244141</ele>
        <time>2024-07-14T07:31:13.000Z</time>
      </trkpt>
      <trkpt lat="45.02342" lon="5.48415">
        <ele>1573.8000488281</ele>
        <time>2024-07-14T07:31:14.000Z</time>
      </trkpt>
      <trkpt lat="45.02341" lon="5.48415">
        <ele>1574</ele>
        <time>2024-07-14T07:31:15.000Z</time>
      </trkpt>
      <trkpt lat="45.0234" lon="5.48414">
        <ele>1574.1999511719</ele>
        <time>2024-07-14T07:31:16.000Z</time>
      </trkpt>
      <trkpt lat="45.02339" lon="5.48414">
        <ele>1574.4000244141</ele>
        <time>2024-07-14T07:31:17.000Z</time>
      </trkpt>
      <trkpt lat="45.02338" lon="5.48414">
        <ele>1574.4000244141</ele>
        <time>2024-07-14T07:31:18.000Z</time>
      </trkpt>
      <trkpt lat="45.02337" lon="5.48414">
        <ele>1574.4000244141</ele>
        <time>2024-07-14T07:31:19.000Z</time>
      </trkpt>
      <trkpt lat="45.02336" lon="5.48414">
        <ele>1574.4000244141</ele>
        <time>2024-07-14T07:31:20.000Z</time>
      </trkpt>
      <trkpt lat="45.02334" lon="5.48413">
        <ele>1574.5999755859</ele>
        <time>2024-07-14T07:31:21.000Z</time>
      </trkpt>
      <trkpt lat="45.02333" lon="5.48413">
        <ele>1574.5999755859</ele>
        <time>2024-07-14T07:31:22.000Z</time>
      </trkpt>
      <trkpt lat="45.02332" lon="5.48413">
        <ele>1574.5999755859</ele>
        <time>2024-07-14T07:31:23.000Z</time>
      </trkpt>
      <trkpt lat="45.02331" lon="5.48412">
        <ele>1574.5999755859</ele>
        <time>2024-07-14T07:31:24.000Z</time>
      </trkpt>
      <trkpt lat="45.02331" lon="5.48412">
        <ele>1575</ele>
        <time>2024-07-14T07:31:25.000Z</time>
      </trkpt>
      <trkpt lat="45.02331" lon="5.48412">
        <ele>1575.1999511719</ele>
        <time>2024-07-14T07:31:26.000Z</time>
      </trkpt>
      <trkpt lat="45.02331" lon="5.48411">
        <ele>1575.4000244141</ele>
        <time>2024-07-14T07:31:27.000Z</time>
      </trkpt>
      <trkpt lat="45.02331" lon="5.4841">
        <ele>1575.8000488281</ele>
        <time>2024-07-14T07:31:28.000Z</time>
      </trkpt>
      <trkpt lat="45.0233" lon="5.48409">
        <ele>1576</ele>
        <time>2024-07-14T07:31:29.000Z</time>
      </trkpt>
      <trkpt lat="45.0233" lon="5.48409">
        <ele>1576.1999511719</ele>
        <time>2024-07-14T07:31:30.000Z</time>
      </trkpt>
      <trkpt lat="45.02329" lon="5.48408">
        <ele>1576.4000244141</ele>
        <time>2024-07-14T07:31:31.000Z</time>
      </trkpt>
      <trkpt lat="45.02328" lon="5.48407">
        <ele>1576.5999755859</ele>
        <time>2024-07-14T07:31:32.000Z</time>
      </trkpt>
      <trkpt lat="45.02327" lon="5.48406">
        <ele>1576.8000488281</ele>
        <time>2024-07-14T07:31:33.000Z</time>
      </trkpt>
      <trkpt lat="45.02327" lon="5.48406">
        <ele>1577.1999511719</ele>
        <time>2024-07-14T07:31:34.000Z</time>
      </trkpt>
      <trkpt lat="45.02326" lon="5.48406">
        <ele>1577.5999755859</ele>
        <time>2024-07-14T07:31:35.000Z</time>
      </trkpt>
      <trkpt lat="45.02325" lon="5.48407">
        <ele>1577.8000488281</ele>
        <time>2024-07-14T07:31:36.000Z</time>
      </trkpt>
      <trkpt lat="45.02324" lon="5.48407">
        <ele>1577.8000488281</ele>
        <time>2024-07-14T07:31:37.000Z</time>
      </trkpt>
      <trkpt lat="45.02323" lon="5.48407">
        <ele>1578.1999511719</ele>
        <time>2024-07-14T07:31:38.000Z</time>
      </trkpt>
      <trkpt lat="45.02323" lon="5.48407">
        <ele>1578.1999511719</ele>
        <time>2024-07-14T07:31:39.000Z</time>
      </trkpt>
      <trkpt lat="45.02322" lon="5.48407">
        <ele>1578.1999511719</ele>
        <time>2024-07-14T07:31:40.000Z</time>
      </trkpt>
      <trkpt lat="45.0232" lon="5.48406">
        <ele>1578.1999511719</ele>
        <time>2024-07-14T07:31:41.000Z</time>
      </trkpt>
      <trkpt lat="45.0232" lon="5.48405">
        <ele>1578.1999511719</ele>
        <time>2024-07-14T07:31:42.000Z</time>
      </trkpt>
      <trkpt lat="45.02319" lon="5.48404">
        <ele>1578.1999511719</ele>
        <time>2024-07-14T07:31:43.000Z</time>
      </trkpt>
      <trkpt lat="45.02318" lon="5.48404">
        <ele>1578.1999511719</ele>
        <time>2024-07-14T07:31:44.000Z</time>
      </trkpt>
      <trkpt lat="45.02316" lon="5.48404">
        <ele>1578.4000244141</ele>
        <time>2024-07-14T07:31:45.000Z</time>
      </trkpt>
      <trkpt lat="45.02315" lon="5.48404">
        <ele>1578.4000244141</ele>
        <time>2024-07-14T07:31:46.000Z</time>
      </trkpt>
      <trkpt lat="45.02314" lon="5.48404">
        <ele>1578.5999755859</ele>
        <time>2024-07-14T07:31:47.000Z</time>
      </trkpt>
      <trkpt lat="45.02313" lon="5.48404">
        <ele>1578.8000488281</ele>
        <time>2024-07-14T07:31:48.000Z</time>
      </trkpt>
      <trkpt lat="45.02312" lon="5.48404">
        <ele>1579</ele>
        <time>2024-07-14T07:31:49.000Z</time>
      </trkpt>
      <trkpt lat="45.02311" lon="5.48403">
        <ele>1579</ele>
        <time>2024-07-14T07:31:50.000Z</time>
      </trkpt>
      <trkpt lat="45.02311" lon="5.48403">
        <ele>1579</ele>
        <time>2024-07-14T07:31:51.000Z</time>
      </trkpt>
      <trkpt lat="45.0231" lon="5.48404">
        <ele>1579</ele>
        <time>2024-07-14T07:31:52.000Z</time>
      </trkpt>
      <trkpt lat="45.0231" lon="5.48404">
        <ele>1579.1999511719</ele>
        <time>2024-07-14T07:31:53.000Z</time>
      </trkpt>
      <trkpt lat="45.0231" lon="5.48404">
        <ele>1579.1999511719</ele>
        <time>2024-07-14T07:31:54.000Z</time>
      </trkpt>
      <trkpt lat="45.02309" lon="5.48404">
        <ele>1579.4000244141</ele>
        <time>2024-07-14T07:31:55.000Z</time>
      </trkpt>
      <trkpt lat="45.02308" lon="5.48404">
        <ele>1579.4000244141</ele>
        <time>2024-07-14T07:31:56.000Z</time>
      </trkpt>
      <trkpt lat="45.02307" lon="5.48403">
        <ele>1579.5999755859</ele>
        <time>2024-07-14T07:31:57.000Z</time>
      </trkpt>
      <trkpt lat="45.02306" lon="5.48403">
        <ele>1579.8000488281</ele>
        <time>2024-07-14T07:31:58.000Z</time>
      </trkpt>
      <trkpt lat="45.02305" lon="5.48402">
        <ele>1580</ele>
        <time>2024-07-14T07:31:59.000Z</time>
      </trkpt>
      <trkpt lat="45.02304" lon="5.48402">
        <ele>1580</ele>
        <time>2024-07-14T07:32:00.000Z</time>
      </trkpt>
      <trkpt lat="45.02303" lon="5.48401">
        <ele>1580</ele>
        <time>2024-07-14T07:32:01.000Z</time>
      </trkpt>
      <trkpt lat="45.02302" lon="5.48401">
        <ele>1580</ele>
        <time>2024-07-14T07:32:02.000Z</time>
      </trkpt>
      <trkpt lat="45.02301" lon="5.484">
        <ele>1580</ele>
        <time>2024-07-14T07:32:03.000Z</time>
      </trkpt>
      <trkpt lat="45.023" lon="5.48399">
        <ele>1580</ele>
        <time>2024-07-14T07:32:04.000Z</time>
      </trkpt>
      <trkpt lat="45.02299" lon="5.48399">
        <ele>1580</ele>
        <time>2024-07-14T07:32:05.000Z</time>
      </trkpt>
      <trkpt lat="45.02299" lon="5.48399">
        <ele>1580</ele>
        <time>2024-07-14T07:32:06.000Z</time>
      </trkpt>
      <trkpt lat="45.02297" lon="5.48398">
        <ele>1580</ele>
        <time>2024-07-14T07:32:07.000Z</time>
      </trkpt>
      <trkpt lat="45.02296" lon="5.48397">
        <ele>1580</ele>
        <time>2024-07-14T07:32:08.000Z</time>
      </trkpt>
      <trkpt lat="45.02296" lon="5.48397">
        <ele>1580.1999511719</ele>
        <time>2024-07-14T07:32:09.000Z</time>
      </trkpt>
      <trkpt lat="45.02296" lon="5.48397">
        <ele>1580.1999511719</ele>
        <time>2024-07-14T07:32:10.000Z</time>
      </trkpt>
      <trkpt lat="45.02295" lon="5.48397">
        <ele>1580.1999511719</ele>
        <time>2024-07-14T07:32:11.000Z</time>
      </trkpt>
      <trkpt lat="45.02294" lon="5.48396">
        <ele>1580.4000244141</ele>
        <time>2024-07-14T07:32:12.000Z</time>
      </trkpt>
      <trkpt lat="45.02293" lon="5.48396">
        <ele>1580.4000244141</ele>
        <time>2024-07-14T07:32:13.000Z</time>
      </trkpt>
      <trkpt lat="45.02292" lon="5.48396">
        <ele>1580.4000244141</ele>
        <time>2024-07-14T07:32:14.000Z</time>
      </trkpt>
      <trkpt lat="45.02292" lon="5.48394">
        <ele>1580.4000244141</ele>
        <time>2024-07-14T07:32:15.000Z</time>
      </trkpt>
      <trkpt lat="45.02291" lon="5.48395">
        <ele>1580.4000244141</ele>
        <time>2024-07-14T07:32:16.000Z</time>
      </trkpt>
      <trkpt lat="45.02289" lon="5.48395">
        <ele>1580.4000244141</ele>
        <time>2024-07-14T07:32:17.000Z</time>
      </trkpt>
      <trkpt lat="45.02288" lon="5.48394">
        <ele>1580.5999755859</ele>
        <time>2024-07-14T07:32:18.000Z</time>
      </trkpt>
      <trkpt lat="45.02287" lon="5.48394">
        <ele>1580.5999755859</ele>
        <time>2024-07-14T07:32:19.000Z</time>
      </trkpt>
      <trkpt lat="45.02287" lon="5.48393">
        <ele>1581</ele>
        <time>2024-07-14T07:32:20.000Z</time>
      </trkpt>
      <trkpt lat="45.02287" lon="5.48393">
        <ele>1581</ele>
        <time>2024-07-14T07:32:21.000Z</time>
      </trkpt>
      <trkpt lat="45.02286" lon="5.48392">
        <ele>1581.4000244141</ele>
        <time>2024-07-14T07:32:22.000Z</time>
      </trkpt>
      <trkpt lat="45.02285" lon="5.48391">
        <ele>1581.4000244141</ele>
        <time>2024-07-14T07:32:23.000Z</time>
      </trkpt>
      <trkpt lat="45.02284" lon="5.48391">
        <ele>1581.4000244141</ele>
        <time>2024-07-14T07:32:24.000Z</time>
      </trkpt>
      <trkpt lat="45.02283" lon="5.4839">
        <ele>1581.4000244141</ele>
        <time>2024-07-14T07:32:25.000Z</time>
      </trkpt>
      <trkpt lat="45.02283" lon="5.4839">
        <ele>1581.1999511719</ele>
        <time>2024-07-14T07:32:26.000Z</time>
      </trkpt>
      <trkpt lat="45.02282" lon="5.48389">
        <ele>1581.1999511719</ele>
        <time>2024-07-14T07:32:27.000Z</time>
      </trkpt>
      <trkpt lat="45.02282" lon="5.48388">
        <ele>1581</ele>
        <time>2024-07-14T07:32:28.000Z</time>
      </trkpt>
      <trkpt lat="45.02281" lon="5.48387">
        <ele>1580.4000244141</ele>
        <time>2024-07-14T07:32:29.000Z</time>
      </trkpt>
      <trkpt lat="45.0228" lon="5.48387">
        <ele>1580.4000244141</ele>
        <time>2024-07-14T07:32:30.000Z</time>
      </trkpt>
      <trkpt lat="45.02279" lon="5.48386">
        <ele>1580.1999511719</ele>
        <time>2024-07-14T07:32:31.000Z</time>
      </trkpt>
      <trkpt lat="45.02278" lon="5.48385">
        <ele>1580.1999511719</ele>
        <time>2024-07-14T07:32:32.000Z</time>
      </trkpt>
      <trkpt lat="45.02278" lon="5.48385">
        <ele>1580</ele>
        <time>2024-07-14T07:32:33.000Z</time>
      </trkpt>
      <trkpt lat="45.02276" lon="5.48384">
        <ele>1579.8000488281</ele>
        <time>2024-07-14T07:32:34.000Z</time>
      </trkpt>
      <trkpt lat="45.02275" lon="5.48383">
        <ele>1579.8000488281</ele>
        <time>2024-07-14T07:32:35.000Z</time>
      </trkpt>
      <trkpt lat="45.02274" lon="5.48382">
        <ele>1579.4000244141</ele>
        <time>2024-07-14T07:32:36.000Z</time>
      </trkpt>
      <trkpt lat="45.02273" lon="5.48382">
        <ele>1579.1999511719</ele>
        <time>2024-07-14T07:32:37.000Z</time>
      </trkpt>
      <trkpt lat="45.02273" lon="5.48382">
        <ele>1579</ele>
        <time>2024-07-14T07:32:38.000Z</time>
      </trkpt>
      <trkpt lat="45.02272" lon="5.48381">
        <ele>1578.8000488281</ele>
        <time>2024-07-14T07:32:39.000Z</time>
      </trkpt>
      <trkpt lat="45.02271" lon="5.4838">
        <ele>1578.4000244141</ele>
        <time>2024-07-14T07:32:40.000Z</time>
      </trkpt>
      <trkpt lat="45.0227" lon="5.48379">
        <ele>1578</ele>
        <time>2024-07-14T07:32:41.000Z</time>
      </trkpt>
      <trkpt lat="45.02269" lon="5.48377">
        <ele>1577.5999755859</ele>
        <time>2024-07-14T07:32:42.000Z</time>
      </trkpt>
      <trkpt lat="45.02268" lon="5.48375">
        <ele>1577.4000244141</ele>
        <time>2024-07-14T07:32:43.000Z</time>
      </trkpt>
      <trkpt lat="45.02266" lon="5.48374">
        <ele>1577.1999511719</ele>
        <time>2024-07-14T07:32:44.000Z</time>
      </trkpt>
      <trkpt lat="45.02265" lon="5.48373">
        <ele>1577</ele>
        <time>2024-07-14T07:32:45.000Z</time>
      </trkpt>
      <trkpt lat="45.02263" lon="5.48372">
        <ele>1576.4000244141</ele>
        <time>2024-07-14T07:32:46.000Z</time>
      </trkpt>
      <trkpt lat="45.02261" lon="5.48371">
        <ele>1575.5999755859</ele>
        <time>2024-07-14T07:32:47.000Z</time>
      </trkpt>
      <trkpt lat="45.0226" lon="5.4837">
        <ele>1575.1999511719</ele>
        <time>2024-07-14T07:32:48.000Z</time>
      </trkpt>
      <trkpt lat="45.02258" lon="5.48369">
        <ele>1575</ele>
        <time>2024-07-14T07:32:49.000Z</time>
      </trkpt>
      <trkpt lat="45.02256" lon="5.48367">
        <ele>1574.8000488281</ele>
        <time>2024-07-14T07:32:50.000Z</time>
      </trkpt>
      <trkpt lat="45.02255" lon="5.48366">
        <ele>1574.8000488281</ele>
        <time>2024-07-14T07:32:51.000Z</time>
      </trkpt>
      <trkpt lat="45.02254" lon="5.48366">
        <ele>1574.5999755859</ele>
        <time>2024-07-14T07:32:52.000Z</time>
      </trkpt>
      <trkpt lat="45.02252" lon="5.48365">
        <ele>1574.5999755859</ele>
        <time>2024-07-14T07:32:53.000Z</time>
      </trkpt>
      <trkpt lat="45.02251" lon="5.48364">
        <ele>1574.8000488281</ele>
        <time>2024-07-14T07:32:54.000Z</time>
      </trkpt>
      <trkpt lat="45.02251" lon="5.48363">
        <ele>1574.8000488281</ele>
        <time>2024-07-14T07:32:55.000Z</time>
      </trkpt>
      <trkpt lat="45.02249" lon="5.48362">
        <ele>1574.8000488281</ele>
        <time>2024-07-14T07:32:56.000Z</time>
      </trkpt>
      <trkpt lat="45.02248" lon="5.48361">
        <ele>1574.8000488281</ele>
        <time>2024-07-14T07:32:57.000Z</time>
      </trkpt>
      <trkpt lat="45.02247" lon="5.48361">
        <ele>1574.5999755859</ele>
        <time>2024-07-14T07:32:58.000Z</time>
      </trkpt>
      <trkpt lat="45.02246" lon="5.48361">
        <ele>1574.4000244141</ele>
        <time>2024-07-14T07:32:59.000Z</time>
      </trkpt>
      <trkpt lat="45.02245" lon="5.48361">
        <ele>1574.1999511719</ele>
        <time>2024-07-14T07:33:00.000Z</time>
      </trkpt>
      <trkpt lat="45.02244" lon="5.48361">
        <ele>1574</ele>
        <time>2024-07-14T07:33:01.000Z</time>
      </trkpt>
      <trkpt lat="45.02243" lon="5.4836">
        <ele>1573.5999755859</ele>
        <time>2024-07-14T07:33:02.000Z</time>
      </trkpt>
      <trkpt lat="45.02243" lon="5.4836">
        <ele>1573.1999511719</ele>
        <time>2024-07-14T07:33:03.000Z</time>
      </trkpt>
      <trkpt lat="45.02242" lon="5.48359">
        <ele>1573</ele>
        <time>2024-07-14T07:33:04.000Z</time>
      </trkpt>
      <trkpt lat="45.02241" lon="5.48359">
        <ele>1572.4000244141</ele>
        <time>2024-07-14T07:33:05.000Z</time>
      </trkpt>
      <trkpt lat="45.02239" lon="5.48359">
        <ele>1572.1999511719</ele>
        <time>2024-07-14T07:33:06.000Z</time>
      </trkpt>
      <trkpt lat="45.02238" lon="5.48358">
        <ele>1572</ele>
        <time>2024-07-14T07:33:07.000Z</time>
      </trkpt>
      <trkpt lat="45.02236" lon="5.48358">
        <ele>1571.8000488281</ele>
        <time>2024-07-14T07:33:08.000Z</time>
      </trkpt>
      <trkpt lat="45.02234" lon="5.48356">
        <ele>1571.5999755859</ele>
        <time>2024-07-14T07:33:09.000Z</time>
      </trkpt>
      <trkpt lat="45.02232" lon="5.48356">
        <ele>1571.1999511719</ele>
        <time>2024-07-14T07:33:10.000Z</time>
      </trkpt>
      <trkpt lat="45.0223" lon="5.48355">
        <ele>1570.8000488281</ele>
        <time>2024-07-14T07:33:11.000Z</time>
      </trkpt>
      <trkpt lat="45.02228" lon="5.48354">
        <ele>1570.5999755859</ele>
        <time>2024-07-14T07:33:12.000Z</time>
      </trkpt>
      <trkpt lat="45.02227" lon="5.48352">
        <ele>1570.1999511719</ele>
        <time>2024-07-14T07:33:13.000Z</time>
      </trkpt>
      <trkpt lat="45.02225" lon="5.48351">
        <ele>1570.1999511719</ele>
        <time>2024-07-14T07:33:14.000Z</time>
      </trkpt>
      <trkpt lat="45.02224" lon="5.4835">
        <ele>1570.1999511719</ele>
        <time>2024-07-14T07:33:15.000Z</time>
      </trkpt>
      <trkpt lat="45.02222" lon="5.48349">
        <ele>1570</ele>
        <time>2024-07-14T07:33:16.000Z</time>
      </trkpt>
      <trkpt lat="45.0222" lon="5.48349">
        <ele>1570</ele>
        <time>2024-07-14T07:33:17.000Z</time>
      </trkpt>
      <trkpt lat="45.02218" lon="5.48348">
        <ele>1569.8000488281</ele>
        <time>2024-07-14T07:33:18.000Z</time>
      </trkpt>
      <trkpt lat="45.02217" lon="5.48348">
        <ele>1569.8000488281</ele>
        <time>2024-07-14T07:33:19.000Z</time>
      </trkpt>
      <trkpt lat="45.02215" lon="5.48347">
        <ele>1569.5999755859</ele>
        <time>2024-07-14T07:33:20.000Z</time>
      </trkpt>
      <trkpt lat="45.02213" lon="5.48346">
        <ele>1569.4000244141</ele>
        <time>2024-07-14T07:33:21.000Z</time>
      </trkpt>
      <trkpt lat="45.02211" lon="5.48345">
        <ele>1569.4000244141</ele>
        <time>2024-07-14T07:33:22.000Z</time>
      </trkpt>
      <trkpt lat="45.02209" lon="5.48344">
        <ele>1569.1999511719</ele>
        <time>2024-07-14T07:33:23.000Z</time>
      </trkpt>
      <trkpt lat="45.02207" lon="5.48343">
        <ele>1569.1999511719</ele>
        <time>2024-07-14T07:33:24.000Z</time>
      </trkpt>
      <trkpt lat="45.02205" lon="5.48342">
        <ele>1569</ele>
        <time>2024-07-14T07:33:25.000Z</time>
      </trkpt>
      <trkpt lat="45.02203" lon="5.48341">
        <ele>1568.8000488281</ele>
        <time>2024-07-14T07:33:26.000Z</time>
      </trkpt>
      <trkpt lat="45.02201" lon="5.4834">
        <ele>1568.8000488281</ele>
        <time>2024-07-14T07:33:27.000Z</time>
      </trkpt>
      <trkpt lat="45.022" lon="5.48338">
        <ele>1568.5999755859</ele>
        <time>2024-07-14T07:33:28.000Z</time>
      </trkpt>
      <trkpt lat="45.02198" lon="5.48337">
        <ele>1568.4000244141</ele>
        <time>2024-07-14T07:33:29.000Z</time>
      </trkpt>
      <trkpt lat="45.02196" lon="5.48337">
        <ele>1568.4000244141</ele>
        <time>2024-07-14T07:33:30.000Z</time>
      </trkpt>
      <trkpt lat="45.02195" lon="5.48336">
        <ele>1568.1999511719</ele>
        <time>2024-07-14T07:33:31.000Z</time>
      </trkpt>
      <trkpt lat="45.02194" lon="5.48336">
        <ele>1567.8000488281</ele>
        <time>2024-07-14T07:33:32.000Z</time>
      </trkpt>
      <trkpt lat="45.02192" lon="5.48335">
        <ele>1567.8000488281</ele>
        <time>2024-07-14T07:33:33.000Z</time>
      </trkpt>
      <trkpt lat="45.02191" lon="5.48334">
        <ele>1567.4000244141</ele>
        <time>2024-07-14T07:33:34.000Z</time>
      </trkpt>
      <trkpt lat="45.02189" lon="5.48333">
        <ele>1567</ele>
        <time>2024-07-14T07:33:35.000Z</time>
      </trkpt>
      <trkpt lat="45.02187" lon="5.48332">
        <ele>1567</ele>
        <time>2024-07-14T07:33:36.000Z</time>
      </trkpt>
      <trkpt lat="45.02186" lon="5.48331">
        <ele>1566.5999755859</ele>
        <time>2024-07-14T07:33:37.000Z</time>
      </trkpt>
      <trkpt lat="45.02184" lon="5.48331">
        <ele>1566.1999511719</ele>
        <time>2024-07-14T07:33:38.000Z</time>
      </trkpt>
      <trkpt lat="45.02182" lon="5.48331">
        <ele>1565.8000488281</ele>
        <time>2024-07-14T07:33:39.000Z</time>
      </trkpt>
      <trkpt lat="45.02181" lon="5.4833">
        <ele>1565.4000244141</ele>
        <time>2024-07-14T07:33:40.000Z</time>
      </trkpt>
      <trkpt lat="45.02179" lon="5.48329">
        <ele>1564.8000488281</ele>
        <time>2024-07-14T07:33:41.000Z</time>
      </trkpt>
      <trkpt lat="45.02177" lon="5.48329">
        <ele>1564.5999755859</ele>
        <time>2024-07-14T07:33:42.000Z</time>
      </trkpt>
      <trkpt lat="45.02175" lon="5.48328">
        <ele>1564.1999511719</ele>
        <time>2024-07-14T07:33:43.000Z</time>
      </trkpt>
      <trkpt lat="45.02173" lon="5.48327">
        <ele>1564</ele>
        <time>2024-07-14T07:33:44.000Z</time>
      </trkpt>
      <trkpt lat="45.02171" lon="5.48326">
        <ele>1563.8000488281</ele>
        <time>2024-07-14T07:33:45.000Z</time>
      </trkpt>
      <trkpt lat="45.02168" lon="5.48324">
        <ele>1563.5999755859</ele>
        <time>2024-07-14T07:33:46.000Z</time>
      </trkpt>
      <trkpt lat="45.02165" lon="5.48322">
        <ele>1563.1999511719</ele>
        <time>2024-07-14T07:33:47.000Z</time>
      </trkpt>
      <trkpt lat="45.02163" lon="5.48322">
        <ele>1562.8000488281</ele>
        <time>2024-07-14T07:33:48.000Z</time>
      </trkpt>
      <trkpt lat="45.0216" lon="5.48322">
        <ele>1562.1999511719</ele>
        <time>2024-07-14T07:33:49.000Z</time>
      </trkpt>
      <trkpt lat="45.02158" lon="5.48322">
        <ele>1561.8000488281</ele>
        <time>2024-07-14T07:33:50.000Z</time>
      </trkpt>
      <trkpt lat="45.02155" lon="5.48323">
        <ele>1561.5999755859</ele>
        <time>2024-07-14T07:33:51.000Z</time>
      </trkpt>
      <trkpt lat="45.02153" lon="5.48323">
        <ele>1561.4000244141</ele>
        <time>2024-07-14T07:33:52.000Z</time>
      </trkpt>
      <trkpt lat="45.02151" lon="5.48324">
        <ele>1561.4000244141</ele>
        <time>2024-07-14T07:33:53.000Z</time>
      </trkpt>
      <trkpt lat="45.02149" lon="5.48324">
        <ele>1561.1999511719</ele>
        <time>2024-07-14T07:33:54.000Z</time>
      </trkpt>
      <trkpt lat="45.02147" lon="5.48324">
        <ele>1561</ele>
        <time>2024-07-14T07:33:55.000Z</time>
      </trkpt>
      <trkpt lat="45.02146" lon="5.48324">
        <ele>1560.5999755859</ele>
        <time>2024-07-14T07:33:56.000Z</time>
      </trkpt>
      <trkpt lat="45.02144" lon="5.48325">
        <ele>1560</ele>
        <time>2024-07-14T07:33:57.000Z</time>
      </trkpt>
      <trkpt lat="45.02143" lon="5.48325">
        <ele>1559.5999755859</ele>
        <time>2024-07-14T07:33:58.000Z</time>
      </trkpt>
      <trkpt lat="45.02141" lon="5.48326">
        <ele>1559</ele>
        <time>2024-07-14T07:33:59.000Z</time>
      </trkpt>
      <trkpt lat="45.0214" lon="5.48325">
        <ele>1558.5999755859</ele>
        <time>2024-07-14T07:34:00.000Z</time>
      </trkpt>
      <trkpt lat="45.02139" lon="5.48325">
        <ele>1557.8000488281</ele>
        <time>2024-07-14T07:34:01.000Z</time>
      </trkpt>
      <trkpt lat="45.02137" lon="5.48324">
        <ele>1557.5999755859</ele>
        <time>2024-07-14T07:34:02.000Z</time>
      </trkpt>
      <trkpt lat="45.02135" lon="5.48322">
        <ele>1557.1999511719</ele>
        <time>2024-07-14T07:34:03.000Z</time>
      </trkpt>
      <trkpt lat="45.02134" lon="5.48321">
        <ele>1556.8000488281</ele>
        <time>2024-07-14T07:34:04.000Z</time>
      </trkpt>
      <trkpt lat="45.02132" lon="5.48319">
        <ele>1556.4000244141</ele>
        <time>2024-07-14T07:34:05.000Z</time>
      </trkpt>
      <trkpt lat="45.02131" lon="5.48316">
        <ele>1556.1999511719</ele>
        <time>2024-07-14T07:34:06.000Z</time>
      </trkpt>
      <trkpt lat="45.02129" lon="5.48314">
        <ele>1555.8000488281</ele>
        <time>2024-07-14T07:34:07.000Z</time>
      </trkpt>
      <trkpt lat="45.02127" lon="5.48312">
        <ele>1555</ele>
        <time>2024-07-14T07:34:08.000Z</time>
      </trkpt>
      <trkpt lat="45.02126" lon="5.48311">
        <ele>1554.5999755859</ele>
        <time>2024-07-14T07:34:09.000Z</time>
      </trkpt>
      <trkpt lat="45.02124" lon="5.48309">
        <ele>1554</ele>
        <time>2024-07-14T07:34:10.000Z</time>
      </trkpt>
      <trkpt lat="45.02122" lon="5.48307">
        <ele>1553.5999755859</ele>
        <time>2024-07-14T07:34:11.000Z</time>
      </trkpt>
      <trkpt lat="45.0212" lon="5.48305">
        <ele>1553.1999511719</ele>
        <time>2024-07-14T07:34:12.000Z</time>
      </trkpt>
      <trkpt lat="45.02118" lon="5.48304">
        <ele>1552.5999755859</ele>
        <time>2024-07-14T07:34:13.000Z</time>
      </trkpt>
      <trkpt lat="45.02116" lon="5.48303">
        <ele>1552.1999511719</ele>
        <time>2024-07-14T07:34:14.000Z</time>
      </trkpt>
      <trkpt lat="45.02113" lon="5.48302">
        <ele>1551.8000488281</ele>
        <time>2024-07-14T07:34:15.000Z</time>
      </trkpt>
      <trkpt lat="45.02111" lon="5.48301">
        <ele>1551.1999511719</ele>
        <time>2024-07-14T07:34:16.000Z</time>
      </trkpt>
      <trkpt lat="45.02108" lon="5.48298">
        <ele>1551</ele>
        <time>2024-07-14T07:34:17.000Z</time>
      </trkpt>
      <trkpt lat="45.02106" lon="5.48296">
        <ele>1550.8000488281</ele>
        <time>2024-07-14T07:34:18.000Z</time>
      </trkpt>
      <trkpt lat="45.02104" lon="5.48293">
        <ele>1550.4000244141</ele>
        <time>2024-07-14T07:34:19.000Z</time>
      </trkpt>
      <trkpt lat="45.02102" lon="5.48291">
        <ele>1549.8000488281</ele>
        <time>2024-07-14T07:34:20.000Z</time>
      </trkpt>
      <trkpt lat="45.02099" lon="5.48289">
        <ele>1549.4000244141</ele>
        <time>2024-07-14T07:34:21.000Z</time>
      </trkpt>
      <trkpt lat="45.02097" lon="5.48287">
        <ele>1549.1999511719</ele>
        <time>2024-07-14T07:34:22.000Z</time>
      </trkpt>
      <trkpt lat="45.02095" lon="5.48285">
        <ele>1549</ele>
        <time>2024-07-14T07:34:23.000Z</time>
      </trkpt>
      <trkpt lat="45.02092" lon="5.48283">
        <ele>1549</ele>
        <time>2024-07-14T07:34:24.000Z</time>
      </trkpt>
      <trkpt lat="45.0209" lon="5.48282">
        <ele>1548.8000488281</ele>
        <time>2024-07-14T07:34:25.000Z</time>
      </trkpt>
      <trkpt lat="45.02088" lon="5.4828">
        <ele>1548.5999755859</ele>
        <time>2024-07-14T07:34:26.000Z</time>
      </trkpt>
      <trkpt lat="45.02085" lon="5.48279">
        <ele>1548.5999755859</ele>
        <time>2024-07-14T07:34:27.000Z</time>
      </trkpt>
      <trkpt lat="45.02083" lon="5.48278">
        <ele>1548.5999755859</ele>
        <time>2024-07-14T07:34:28.000Z</time>
      </trkpt>
      <trkpt lat="45.0208" lon="5.48277">
        <ele>1548.4000244141</ele>
        <time>2024-07-14T07:34:29.000Z</time>
      </trkpt>
      <trkpt lat="45.02078" lon="5.48275">
        <ele>1548.1999511719</ele>
        <time>2024-07-14T07:34:30.000Z</time>
      </trkpt>
      <trkpt lat="45.02075" lon="5.48274">
        <ele>1548.1999511719</ele>
        <time>2024-07-14T07:34:31.000Z</time>
      </trkpt>
      <trkpt lat="45.02072" lon="5.48273">
        <ele>1548.1999511719</ele>
        <time>2024-07-14T07:34:32.000Z</time>
      </trkpt>
      <trkpt lat="45.0207" lon="5.48272">
        <ele>1548.1999511719</ele>
        <time>2024-07-14T07:34:33.000Z</time>
      </trkpt>
      <trkpt lat="45.02067" lon="5.4827">
        <ele>1548.4000244141</ele>
        <time>2024-07-14T07:34:34.000Z</time>
      </trkpt>
      <trkpt lat="45.02065" lon="5.48269">
        <ele>1548.5999755859</ele>
        <time>2024-07-14T07:34:35.000Z</time>
      </trkpt>
      <trkpt lat="45.02062" lon="5.48268">
        <ele>1548.5999755859</ele>
        <time>2024-07-14T07:34:36.000Z</time>
      </trkpt>
      <trkpt lat="45.0206" lon="5.48267">
        <ele>1548.5999755859</ele>
        <time>2024-07-14T07:34:37.000Z</time>
      </trkpt>
      <trkpt lat="45.02057" lon="5.48266">
        <ele>1548.5999755859</ele>
        <time>2024-07-14T07:34:38.000Z</time>
      </trkpt>
      <trkpt lat="45.02054" lon="5.48265">
        <ele>1548.5999755859</ele>
        <time>2024-07-14T07:34:39.000Z</time>
      </trkpt>
      <trkpt lat="45.02052" lon="5.48263">
        <ele>1548.8000488281</ele>
        <time>2024-07-14T07:34:40.000Z</time>
      </trkpt>
      <trkpt lat="45.0205" lon="5.48262">
        <ele>1549</ele>
        <time>2024-07-14T07:34:41.000Z</time>
      </trkpt>
      <trkpt lat="45.02048" lon="5.4826">
        <ele>1549.1999511719</ele>
        <time>2024-07-14T07:34:42.000Z</time>
      </trkpt>
      <trkpt lat="45.02046" lon="5.48258">
        <ele>1549.4000244141</ele>
        <time>2024-07-14T07:34:43.000Z</time>
      </trkpt>
      <trkpt lat="45.02044" lon="5.48256">
        <ele>1549.4000244141</ele>
        <time>2024-07-14T07:34:44.000Z</time>
      </trkpt>
      <trkpt lat="45.02042" lon="5.48255">
        <ele>1549.4000244141</ele>
        <time>2024-07-14T07:34:45.000Z</time>
      </trkpt>
      <trkpt lat="45.0204" lon="5.48254">
        <ele>1549.4000244141</ele>
        <time>2024-07-14T07:34:46.000Z</time>
      </trkpt>
      <trkpt lat="45.02038" lon="5.48253">
        <ele>1549.5999755859</ele>
        <time>2024-07-14T07:34:47.000Z</time>
      </trkpt>
      <trkpt lat="45.02035" lon="5.48252">
        <ele>1549.5999755859</ele>
        <time>2024-07-14T07:34:48.000Z</time>
      </trkpt>
      <trkpt lat="45.02033" lon="5.48251">
        <ele>1549.5999755859</ele>
        <time>2024-07-14T07:34:49.000Z</time>
      </trkpt>
      <trkpt lat="45.02031" lon="5.4825">
        <ele>1549.8000488281</ele>
        <time>2024-07-14T07:34:50.000Z</time>
      </trkpt>
      <trkpt lat="45.02028" lon="5.48249">
        <ele>1550</ele>
        <time>2024-07-14T07:34:51.000Z</time>
      </trkpt>
      <trkpt lat="45.02026" lon="5.48249">
        <ele>1550.1999511719</ele>
        <time>2024-07-14T07:34:52.000Z</time>
      </trkpt>
      <trkpt lat="45.02024" lon="5.48248">
        <ele>1550.1999511719</ele>
        <time>2024-07-14T07:34:53.000Z</time>
      </trkpt>
      <trkpt lat="45.02021" lon="5.48247">
        <ele>1550.1999511719</ele>
        <time>2024-07-14T07:34:54.000Z</time>
      </trkpt>
      <trkpt lat="45.02019" lon="5.48246">
        <ele>1550</ele>
        <time>2024-07-14T07:34:55.000Z</time>
      </trkpt>
      <trkpt lat="45.02016" lon="5.48246">
        <ele>1549.5999755859</ele>
        <time>2024-07-14T07:34:56.000Z</time>
      </trkpt>
      <trkpt lat="45.02014" lon="5.48245">
        <ele>1549.4000244141</ele>
        <time>2024-07-14T07:34:57.000Z</time>
      </trkpt>
      <trkpt lat="45.02011" lon="5.48245">
        <ele>1549.1999511719</ele>
        <time>2024-07-14T07:34:58.000Z</time>
      </trkpt>
      <trkpt lat="45.02009" lon="5.48245">
        <ele>1549</ele>
        <time>2024-07-14T07:34:59.000Z</time>
      </trkpt>
      <trkpt lat="45.02006" lon="5.48245">
        <ele>1548.8000488281</ele>
        <time>2024-07-14T07:35:00.000Z</time>
      </trkpt>
      <trkpt lat="45.02003" lon="5.48245">
        <ele>1548.5999755859</ele>
        <time>2024-07-14T07:35:01.000Z</time>
      </trkpt>
      <trkpt lat="45.02001" lon="5.48245">
        <ele>1548.5999755859</ele>
        <time>2024-07-14T07:35:02.000Z</time>
      </trkpt>
      <trkpt lat="45.01998" lon="5.48244">
        <ele>1548.5999755859</ele>
        <time>2024-07-14T07:35:03.000Z</time>
      </trkpt>
      <trkpt lat="45.01996" lon="5.48243">
        <ele>1548.4000244141</ele>
        <time>2024-07-14T07:35:04.000Z</time>
      </trkpt>
      <trkpt lat="45.01993" lon="5.48242">
        <ele>1548.4000244141</ele>
        <time>2024-07-14T07:35:05.000Z</time>
      </trkpt>
      <trkpt lat="45.01992" lon="5.48242">
        <ele>1548.5999755859</ele>
        <time>2024-07-14T07:35:06.000Z</time>
      </trkpt>
      <trkpt lat="45.0199" lon="5.48242">
        <ele>1548.5999755859</ele>
        <time>2024-07-14T07:35:07.000Z</time>
      </trkpt>
      <trkpt lat="45.01988" lon="5.48242">
        <ele>1548.5999755859</ele>
        <time>2024-07-14T07:35:08.000Z</time>
      </trkpt>
      <trkpt lat="45.01985" lon="5.48242">
        <ele>1548.5999755859</ele>
        <time>2024-07-14T07:35:09.000Z</time>
      </trkpt>
      <trkpt lat="45.01983" lon="5.48243">
        <ele>1548.8000488281</ele>
        <time>2024-07-14T07:35:10.000Z</time>
      </trkpt>
      <trkpt lat="45.01981" lon="5.48243">
        <ele>1548.8000488281</ele>
        <time>2024-07-14T07:35:11.000Z</time>
      </trkpt>
      <trkpt lat="45.01978" lon="5.48243">
        <ele>1548.8000488281</ele>
        <time>2024-07-14T07:35:12.000Z</time>
      </trkpt>
      <trkpt lat="45.01975" lon="5.48243">
        <ele>1548.8000488281</ele>
        <time>2024-07-14T07:35:13.000Z</time>
      </trkpt>
      <trkpt lat="45.01973" lon="5.48243">
        <ele>1548.8000488281</ele>
        <time>2024-07-14T07:35:14.000Z</time>
      </trkpt>
      <trkpt lat="45.0197" lon="5.48243">
        <ele>1549</ele>
        <time>2024-07-14T07:35:15.000Z</time>
      </trkpt>
      <trkpt lat="45.01967" lon="5.48242">
        <ele>1549</ele>
        <time>2024-07-14T07:35:16.000Z</time>
      </trkpt>
      <trkpt lat="45.01964" lon="5.4824">
        <ele>1549.1999511719</ele>
        <time>2024-07-14T07:35:17.000Z</time>
      </trkpt>
      <trkpt lat="45.01961" lon="5.48239">
        <ele>1549.4000244141</ele>
        <time>2024-07-14T07:35:18.000Z</time>
      </trkpt>
      <trkpt lat="45.01959" lon="5.48237">
        <ele>1549.4000244141</ele>
        <time>2024-07-14T07:35:19.000Z</time>
      </trkpt>
      <trkpt lat="45.01956" lon="5.48236">
        <ele>1549.1999511719</ele>
        <time>2024-07-14T07:35:20.000Z</time>
      </trkpt>
      <trkpt lat="45.01954" lon="5.48234">
        <ele>1549.1999511719</ele>
        <time>2024-07-14T07:35:21.000Z</time>
      </trkpt>
      <trkpt lat="45.01952" lon="5.48232">
        <ele>1549.1999511719</ele>
        <time>2024-07-14T07:35:22.000Z</time>
      </trkpt>
      <trkpt lat="45.0195" lon="5.4823">
        <ele>1549</ele>
        <time>2024-07-14T07:35:23.000Z</time>
      </trkpt>
      <trkpt lat="45.01948" lon="5.48229">
        <ele>1548.8000488281</ele>
        <time>2024-07-14T07:35:24.000Z</time>
      </trkpt>
      <trkpt lat="45.01946" lon="5.48228">
        <ele>1548.5999755859</ele>
        <time>2024-07-14T07:35:25.000Z</time>
      </trkpt>
      <trkpt lat="45.01944" lon="5.48227">
        <ele>1548</ele>
        <time>2024-07-14T07:35:26.000Z</time>
      </trkpt>
      <trkpt lat="45.01941" lon="5.48226">
        <ele>1547.8000488281</ele>
        <time>2024-07-14T07:35:27.000Z</time>
      </trkpt>
      <trkpt lat="45.01938" lon="5.48224">
        <ele>1547.5999755859</ele>
        <time>2024-07-14T07:35:28.000Z</time>
      </trkpt>
      <trkpt lat="45.01936" lon="5.48224">
        <ele>1547.4000244141</ele>
        <time>2024-07-14T07:35:29.000Z</time>
      </trkpt>
      <trkpt lat="45.01932" lon="5.48224">
        <ele>1547</ele>
        <time>2024-07-14T07:35:30.000Z</time>
      </trkpt>
      <trkpt lat="45.0193" lon="5.48224">
        <ele>1546.5999755859</ele>
        <time>2024-07-14T07:35:31.000Z</time>
      </trkpt>
      <trkpt lat="45.01928" lon="5.48224">
        <ele>1546.5999755859</ele>
        <time>2024-07-14T07:35:32.000Z</time>
      </trkpt>
      <trkpt lat="45.01926" lon="5.48226">
        <ele>1546.4000244141</ele>
        <time>2024-07-14T07:35:33.000Z</time>
      </trkpt>
      <trkpt lat="45.01923" lon="5.48228">
        <ele>1546.4000244141</ele>
        <time>2024-07-14T07:35:34.000Z</time>
      </trkpt>
      <trkpt lat="45.01922" lon="5.4823">
        <ele>1546.1999511719</ele>
        <time>2024-07-14T07:35:35.000Z</time>
      </trkpt>
      <trkpt lat="45.0192" lon="5.48232">
        <ele>1546.1999511719</ele>
        <time>2024-07-14T07:35:36.000Z</time>
      </trkpt>
      <trkpt lat="45.01919" lon="5.48235">
        <ele>1546</ele>
        <time>2024-07-14T07:35:37.000Z</time>
      </trkpt>
      <trkpt lat="45.01917" lon="5.48237">
        <ele>1546</ele>
        <time>2024-07-14T07:35:38.000Z</time>
      </trkpt>
      <trkpt lat="45.01915" lon="5.48238">
        <ele>1545.8000488281</ele>
        <time>2024-07-14T07:35:39.000Z</time>
      </trkpt>
      <trkpt lat="45.01914" lon="5.4824">
        <ele>1545.4000244141</ele>
        <time>2024-07-14T07:35:40.000Z</time>
      </trkpt>
      <trkpt lat="45.01912" lon="5.48242">
        <ele>1545.1999511719</ele>
        <time>2024-07-14T07:35:41.000Z</time>
      </trkpt>
      <trkpt lat="45.01911" lon="5.48244">
        <ele>1544.8000488281</ele>
        <time>2024-07-14T07:35:42.000Z</time>
      </trkpt>
      <trkpt lat="45.01909" lon="5.48245">
        <ele>1544.1999511719</ele>
        <time>2024-07-14T07:35:43.000Z</time>
      </trkpt>
      <trkpt lat="45.01907" lon="5.48247">
        <ele>1544</ele>
        <time>2024-07-14T07:35:44.000Z</time>
      </trkpt>
      <trkpt lat="45.01905" lon="5.4825">
        <ele>1543.4000244141</ele>
        <time>2024-07-14T07:35:45.000Z</time>
      </trkpt>
      <trkpt lat="45.01904" lon="5.48252">
        <ele>1542.8000488281</ele>
        <time>2024-07-14T07:35:46.000Z</time>
      </trkpt>
      <trkpt lat="45.01903" lon="5.48254">
        <ele>1542.4000244141</ele>
        <time>2024-07-14T07:35:47.000Z</time>
      </trkpt>
      <trkpt lat="45.01901" lon="5.48257">
        <ele>1541.8000488281</ele>
        <time>2024-07-14T07:35:48.000Z</time>
      </trkpt>
      <trkpt lat="45.01899" lon="5.48259">
        <ele>1541.4000244141</ele>
        <time>2024-07-14T07:35:49.000Z</time>
      </trkpt>
      <trkpt lat="45.01898" lon="5.48262">
        <ele>1540.8000488281</ele>
        <time>2024-07-14T07:35:50.000Z</time>
      </trkpt>
      <trkpt lat="45.01896" lon="5.48265">
        <ele>1540.5999755859</ele>
        <time>2024-07-14T07:35:51.000Z</time>
      </trkpt>
      <trkpt lat="45.01894" lon="5.48266">
        <ele>1539.8000488281</ele>
        <time>2024-07-14T07:35:52.000Z</time>
      </trkpt>
      <trkpt lat="45.01892" lon="5.48268">
        <ele>1539.4000244141</ele>
        <time>2024-07-14T07:35:53.000Z</time>
      </trkpt>
      <trkpt lat="45.0189" lon="5.48269">
        <ele>1539</ele>
        <time>2024-07-14T07:35:54.000Z</time>
      </trkpt>
      <trkpt lat="45.01888" lon="5.48269">
        <ele>1538.5999755859</ele>
        <time>2024-07-14T07:35:55.000Z</time>
      </trkpt>
      <trkpt lat="45.01885" lon="5.4827">
        <ele>1538.1999511719</ele>
        <time>2024-07-14T07:35:56.000Z</time>
      </trkpt>
      <trkpt lat="45.01882" lon="5.4827">
        <ele>1538</ele>
        <time>2024-07-14T07:35:57.000Z</time>
      </trkpt>
      <trkpt lat="45.01879" lon="5.48269">
        <ele>1537.8000488281</ele>
        <time>2024-07-14T07:35:58.000Z</time>
      </trkpt>
      <trkpt lat="45.01876" lon="5.48268">
        <ele>1537.8000488281</ele>
        <time>2024-07-14T07:35:59.000Z</time>
      </trkpt>
      <trkpt lat="45.01873" lon="5.48267">
        <ele>1537.8000488281</ele>
        <time>2024-07-14T07:36:00.000Z</time>
      </trkpt>
      <trkpt lat="45.01871" lon="5.48266">
        <ele>1537.5999755859</ele>
        <time>2024-07-14T07:36:01.000Z</time>
      </trkpt>
      <trkpt lat="45.01868" lon="5.48266">
        <ele>1537.4000244141</ele>
        <time>2024-07-14T07:36:02.000Z</time>
      </trkpt>
      <trkpt lat="45.01865" lon="5.48266">
        <ele>1537.1999511719</ele>
        <time>2024-07-14T07:36:03.000Z</time>
      </trkpt>
      <trkpt lat="45.01862" lon="5.48266">
        <ele>1537</ele>
        <time>2024-07-14T07:36:04.000Z</time>
      </trkpt>
      <trkpt lat="45.01859" lon="5.48268">
        <ele>1536.8000488281</ele>
        <time>2024-07-14T07:36:05.000Z</time>
      </trkpt>
      <trkpt lat="45.01856" lon="5.48269">
        <ele>1536.1999511719</ele>
        <time>2024-07-14T07:36:06.000Z</time>
      </trkpt>
      <trkpt lat="45.01854" lon="5.4827">
        <ele>1535.8000488281</ele>
        <time>2024-07-14T07:36:07.000Z</time>
      </trkpt>
      <trkpt lat="45.01851" lon="5.48271">
        <ele>1535.4000244141</ele>
        <time>2024-07-14T07:36:08.000Z</time>
      </trkpt>
      <trkpt lat="45.01848" lon="5.48272">
        <ele>1535.1999511719</ele>
        <time>2024-07-14T07:36:09.000Z</time>
      </trkpt>
      <trkpt lat="45.01845" lon="5.48273">
        <ele>1535</ele>
        <time>2024-07-14T07:36:10.000Z</time>
      </trkpt>
      <trkpt lat="45.01843" lon="5.48273">
        <ele>1535</ele>
        <time>2024-07-14T07:36:11.000Z</time>
      </trkpt>
      <trkpt lat="45.0184" lon="5.48273">
        <ele>1534.8000488281</ele>
        <time>2024-07-14T07:36:12.000Z</time>
      </trkpt>
      <trkpt lat="45.01837" lon="5.48273">
        <ele>1534.8000488281</ele>
        <time>2024-07-14T07:36:13.000Z</time>
      </trkpt>
      <trkpt lat="45.01835" lon="5.48272">
        <ele>1534.5999755859</ele>
        <time>2024-07-14T07:36:14.000Z</time>
      </trkpt>
      <trkpt lat="45.01832" lon="5.48272">
        <ele>1534.4000244141</ele>
        <time>2024-07-14T07:36:15.000Z</time>
      </trkpt>
      <trkpt lat="45.0183" lon="5.48271">
        <ele>1534.1999511719</ele>
        <time>2024-07-14T07:36:16.000Z</time>
      </trkpt>
      <trkpt lat="45.01827" lon="5.4827">
        <ele>1534</ele>
        <time>2024-07-14T07:36:17.000Z</time>
      </trkpt>
      <trkpt lat="45.01825" lon="5.4827">
        <ele>1533.8000488281</ele>
        <time>2024-07-14T07:36:18.000Z</time>
      </trkpt>
      <trkpt lat="45.01822" lon="5.48269">
        <ele>1533.1999511719</ele>
        <time>2024-07-14T07:36:19.000Z</time>
      </trkpt>
      <trkpt lat="45.0182" lon="5.48269">
        <ele>1533</ele>
        <time>2024-07-14T07:36:20.000Z</time>
      </trkpt>
      <trkpt lat="45.01817" lon="5.48269">
        <ele>1533</ele>
        <time>2024-07-14T07:36:21.000Z</time>
      </trkpt>
      <trkpt lat="45.01815" lon="5.4827">
        <ele>1532.5999755859</ele>
        <time>2024-07-14T07:36:22.000Z</time>
      </trkpt>
      <trkpt lat="45.01812" lon="5.48271">
        <ele>1532.4000244141</ele>
        <time>2024-07-14T07:36:23.000Z</time>
      </trkpt>
      <trkpt lat="45.01811" lon="5.48272">
        <ele>1531.8000488281</ele>
        <time>2024-07-14T07:36:24.000Z</time>
      </trkpt>
      <trkpt lat="45.0181" lon="5.48274">
        <ele>1531.1999511719</ele>
        <time>2024-07-14T07:36:25.000Z</time>
      </trkpt>
      <trkpt lat="45.01809" lon="5.48277">
        <ele>1530.8000488281</ele>
        <time>2024-07-14T07:36:26.000Z</time>
      </trkpt>
      <trkpt lat="45.01808" lon="5.48279">
        <ele>1530.1999511719</ele>
        <time>2024-07-14T07:36:27.000Z</time>
      </trkpt>
      <trkpt lat="45.01807" lon="5.4828">
        <ele>1529.5999755859</ele>
        <time>2024-07-14T07:36:28.000Z</time>
      </trkpt>
      <trkpt lat="45.01805" lon="5.48282">
        <ele>1529.1999511719</ele>
        <time>2024-07-14T07:36:29.000Z</time>
      </trkpt>
      <trkpt lat="45.01803" lon="5.48284">
        <ele>1528.5999755859</ele>
        <time>2024-07-14T07:36:30.000Z</time>
      </trkpt>
      <trkpt lat="45.01801" lon="5.48286">
        <ele>1528</ele>
        <time>2024-07-14T07:36:31.000Z</time>
      </trkpt>
      <trkpt lat="45.01799" lon="5.48288">
        <ele>1527.4000244141</ele>
        <time>2024-07-14T07:36:32.000Z</time>
      </trkpt>
      <trkpt lat="45.01797" lon="5.4829">
        <ele>1527</ele>
        <time>2024-07-14T07:36:33.000Z</time>
      </trkpt>
      <trkpt lat="45.01794" lon="5.48291">
        <ele>1526.1999511719</ele>
        <time>2024-07-14T07:36:34.000Z</time>
      </trkpt>
      <trkpt lat="45.01791" lon="5.48292">
        <ele>1525.8000488281</ele>
        <time>2024-07-14T07:36:35.000Z</time>
      </trkpt>
      <trkpt lat="45.01789" lon="5.48291">
        <ele>1525.1999511719</ele>
        <time>2024-07-14T07:36:36.000Z</time>
      </trkpt>
      <trkpt lat="45.01786" lon="5.4829">
        <ele>1525</ele>
        <time>2024-07-14T07:36:37.000Z</time>
      </trkpt>
      <trkpt lat="45.01783" lon="5.48288">
        <ele>1524.5999755859</ele>
        <time>2024-07-14T07:36:38.000Z</time>
      </trkpt>
      <trkpt lat="45.0178" lon="5.48287">
        <ele>1524.4000244141</ele>
        <time>2024-07-14T07:36:39.000Z</time>
      </trkpt>
      <trkpt lat="45.01777" lon="5.48285">
        <ele>1524.1999511719</ele>
        <time>2024-07-14T07:36:40.000Z</time>
      </trkpt>
      <trkpt lat="45.01774" lon="5.48283">
        <ele>1524</ele>
        <time>2024-07-14T07:36:41.000Z</time>
      </trkpt>
      <trkpt lat="45.01772" lon="5.48281">
        <ele>1524</ele>
        <time>2024-07-14T07:36:42.000Z</time>
      </trkpt>
      <trkpt lat="45.01769" lon="5.4828">
        <ele>1523.8000488281</ele>
        <time>2024-07-14T07:36:43.000Z</time>
      </trkpt>
      <trkpt lat="45.01766" lon="5.48278">
        <ele>1523.5999755859</ele>
        <time>2024-07-14T07:36:44.000Z</time>
      </trkpt>
      <trkpt lat="45.01763" lon="5.48277">
        <ele>1523.1999511719</ele>
        <time>2024-07-14T07:36:45.000Z</time>
      </trkpt>
      <trkpt lat="45.0176" lon="5.48277">
        <ele>1522.8000488281</ele>
        <time>2024-07-14T07:36:46.000Z</time>
      </trkpt>
      <trkpt lat="45.01757" lon="5.48276">
        <ele>1522.4000244141</ele>
        <time>2024-07-14T07:36:47.000Z</time>
      </trkpt>
      <trkpt lat="45.01754" lon="5.48275">
        <ele>1522.1999511719</ele>
        <time>2024-07-14T07:36:48.000Z</time>
      </trkpt>
      <trkpt lat="45.01752" lon="5.48275">
        <ele>1522.1999511719</ele>
        <time>2024-07-14T07:36:49.000Z</time>
      </trkpt>
      <trkpt lat="45.01749" lon="5.48275">
        <ele>1522</ele>
        <time>2024-07-14T07:36:50.000Z</time>
      </trkpt>
      <trkpt lat="45.01746" lon="5.48275">
        <ele>1521.5999755859</ele>
        <time>2024-07-14T07:36:51.000Z</time>
      </trkpt>
      <trkpt lat="45.01742" lon="5.48275">
        <ele>1521</ele>
        <time>2024-07-14T07:36:52.000Z</time>
      </trkpt>
      <trkpt lat="45.01739" lon="5.48275">
        <ele>1520.8000488281</ele>
        <time>2024-07-14T07:36:53.000Z</time>
      </trkpt>
      <trkpt lat="45.01736" lon="5.48275">
        <ele>1520.1999511719</ele>
        <time>2024-07-14T07:36:54.000Z</time>
      </trkpt>
      <trkpt lat="45.01732" lon="5.48274">
        <ele>1519.8000488281</ele>
        <time>2024-07-14T07:36:55.000Z</time>
      </trkpt>
      <trkpt lat="45.01728" lon="5.48273">
        <ele>1519.4000244141</ele>
        <time>2024-07-14T07:36:56.000Z</time>
      </trkpt>
      <trkpt lat="45.01725" lon="5.48271">
        <ele>1519.1999511719</ele>
        <time>2024-07-14T07:36:57.000Z</time>
      </trkpt>
      <trkpt lat="45.01721" lon="5.48268">
        <ele>1519</ele>
        <time>2024-07-14T07:36:58.000Z</time>
      </trkpt>
      <trkpt lat="45.01718" lon="5.48266">
        <ele>1518.5999755859</ele>
        <time>2024-07-14T07:36:59.000Z</time>
      </trkpt>
      <trkpt lat="45.01715" lon="5.48264">
        <ele>1518.4000244141</ele>
        <time>2024-07-14T07:37:00.000Z</time>
      </trkpt>
      <trkpt lat="45.01713" lon="5.48262">
        <ele>1518</ele>
        <time>2024-07-14T07:37:01.000Z</time>
      </trkpt>
      <trkpt lat="45.01711" lon="5.4826">
        <ele>1517.8000488281</ele>
        <time>2024-07-14T07:37:02.000Z</time>
      </trkpt>
      <trkpt lat="45.01708" lon="5.48259">
        <ele>1517.5999755859</ele>
        <time>2024-07-14T07:37:03.000Z</time>
      </trkpt>
      <trkpt lat="45.01705" lon="5.48258">
        <ele>1517.5999755859</ele>
        <time>2024-07-14T07:37:04.000Z</time>
      </trkpt>
      <trkpt lat="45.01703" lon="5.48257">
        <ele>1517.4000244141</ele>
        <time>2024-07-14T07:37:05.000Z</time>
      </trkpt>
      <trkpt lat="45.017" lon="5.48255">
        <ele>1517.1999511719</ele>
        <time>2024-07-14T07:37:06.000Z</time>
      </trkpt>
      <trkpt lat="45.01698" lon="5.48253">
        <ele>1517.1999511719</ele>
        <time>2024-07-14T07:37:07.000Z</time>
      </trkpt>
      <trkpt lat="45.01695" lon="5.48252">
        <ele>1517.1999511719</ele>
        <time>2024-07-14T07:37:08.000Z</time>
      </trkpt>
      <trkpt lat="45.01693" lon="5.4825">
        <ele>1517.1999511719</ele>
        <time>2024-07-14T07:37:09.000Z</time>
      </trkpt>
      <trkpt lat="45.01691" lon="5.48248">
        <ele>1517</ele>
        <time>2024-07-14T07:37:10.000Z</time>
      </trkpt>
      <trkpt lat="45.01689" lon="5.48247">
        <ele>1517</ele>
        <time>2024-07-14T07:37:11.000Z</time>
      </trkpt>
      <trkpt lat="45.01686" lon="5.48245">
        <ele>1517</ele>
        <time>2024-07-14T07:37:12.000Z</time>
      </trkpt>
      <trkpt lat="45.01683" lon="5.48244">
        <ele>1517</ele>
        <time>2024-07-14T07:37:13.000Z</time>
      </trkpt>
      <trkpt lat="45.01681" lon="5.48242">
        <ele>1517</ele>
        <time>2024-07-14T07:37:14.000Z</time>
      </trkpt>
      <trkpt lat="45.01678" lon="5.48241">
        <ele>1517</ele>
        <time>2024-07-14T07:37:15.000Z</time>
      </trkpt>
      <trkpt lat="45.01676" lon="5.4824">
        <ele>1516.8000488281</ele>
        <time>2024-07-14T07:37:16.000Z</time>
      </trkpt>
      <trkpt lat="45.01673" lon="5.48238">
        <ele>1516.8000488281</ele>
        <time>2024-07-14T07:37:17.000Z</time>
      </trkpt>
      <trkpt lat="45.01671" lon="5.48237">
        <ele>1516.8000488281</ele>
        <time>2024-07-14T07:37:18.000Z</time>
      </trkpt>
      <trkpt lat="45.01668" lon="5.48236">
        <ele>1516.5999755859</ele>
        <time>2024-07-14T07:37:19.000Z</time>
      </trkpt>
      <trkpt lat="45.01665" lon="5.48236">
        <ele>1516.5999755859</ele>
        <time>2024-07-14T07:37:20.000Z</time>
      </trkpt>
      <trkpt lat="45.01663" lon="5.48236">
        <ele>1516.5999755859</ele>
        <time>2024-07-14T07:37:21.000Z</time>
      </trkpt>
      <trkpt lat="45.01661" lon="5.48236">
        <ele>1516.5999755859</ele>
        <time>2024-07-14T07:37:22.000Z</time>
      </trkpt>
      <trkpt lat="45.01659" lon="5.48236">
        <ele>1516.5999755859</ele>
        <time>2024-07-14T07:37:23.000Z</time>
      </trkpt>
      <trkpt lat="45.01656" lon="5.48236">
        <ele>1516.5999755859</ele>
        <time>2024-07-14T07:37:24.000Z</time>
      </trkpt>
      <trkpt lat="45.01653" lon="5.48235">
        <ele>1516.5999755859</ele>
        <time>2024-07-14T07:37:25.000Z</time>
      </trkpt>
      <trkpt lat="45.01651" lon="5.48235">
        <ele>1516.4000244141</ele>
        <time>2024-07-14T07:37:26.000Z</time>
      </trkpt>
      <trkpt lat="45.01648" lon="5.48235">
        <ele>1516.1999511719</ele>
        <time>2024-07-14T07:37:27.000Z</time>
      </trkpt>
      <trkpt lat="45.01646" lon="5.48236">
        <ele>1516</ele>
        <time>2024-07-14T07:37:28.000Z</time>
      </trkpt>
      <trkpt lat="45.01643" lon="5.48235">
        <ele>1515.8000488281</ele>
        <time>2024-07-14T07:37:29.000Z</time>
      </trkpt>
      <trkpt lat="45.01641" lon="5.48235">
        <ele>1515.4000244141</ele>
        <time>2024-07-14T07:37:30.000Z</time>
      </trkpt>
      <trkpt lat="45.01639" lon="5.48234">
        <ele>1515.1999511719</ele>
        <time>2024-07-14T07:37:31.000Z</time>
      </trkpt>
      <trkpt lat="45.01637" lon="5.48234">
        <ele>1515</ele>
        <time>2024-07-14T07:37:32.000Z</time>
      </trkpt>
      <trkpt lat="45.01634" lon="5.48233">
        <ele>1515</ele>
        <time>2024-07-14T07:37:33.000Z</time>
      </trkpt>
      <trkpt lat="45.01631" lon="5.48232">
        <ele>1514.8000488281</ele>
        <time>2024-07-14T07:37:34.000Z</time>
      </trkpt>
      <trkpt lat="45.01628" lon="5.48231">
        <ele>1514.8000488281</ele>
        <time>2024-07-14T07:37:35.000Z</time>
      </trkpt>
      <trkpt lat="45.01626" lon="5.4823">
        <ele>1514.5999755859</ele>
        <time>2024-07-14T07:37:36.000Z</time>
      </trkpt>
      <trkpt lat="45.01624" lon="5.48229">
        <ele>1514.1999511719</ele>
        <time>2024-07-14T07:37:37.000Z</time>
      </trkpt>
      <trkpt lat="45.01622" lon="5.48227">
        <ele>1514</ele>
        <time>2024-07-14T07:37:38.000Z</time>
      </trkpt>
      <trkpt lat="45.01619" lon="5.48226">
        <ele>1513.8000488281</ele>
        <time>2024-07-14T07:37:39.000Z</time>
      </trkpt>
      <trkpt lat="45.01617" lon="5.48224">
        <ele>1513.8000488281</ele>
        <time>2024-07-14T07:37:40.000Z</time>
      </trkpt>
      <trkpt lat="45.01614" lon="5.48222">
        <ele>1513.5999755859</ele>
        <time>2024-07-14T07:37:41.000Z</time>
      </trkpt>
      <trkpt lat="45.01612" lon="5.48221">
        <ele>1513.5999755859</ele>
        <time>2024-07-14T07:37:42.000Z</time>
      </trkpt>
      <trkpt lat="45.0161" lon="5.48219">
        <ele>1513.4000244141</ele>
        <time>2024-07-14T07:37:43.000Z</time>
      </trkpt>
      <trkpt lat="45.01607" lon="5.48218">
        <ele>1513</ele>
        <time>2024-07-14T07:37:44.000Z</time>
      </trkpt>
      <trkpt lat="45.01605" lon="5.48217">
        <ele>1512.5999755859</ele>
        <time>2024-07-14T07:37:45.000Z</time>
      </trkpt>
      <trkpt lat="45.01603" lon="5.48217">
        <ele>1512.1999511719</ele>
        <time>2024-07-14T07:37:46.000Z</time>
      </trkpt>
      <trkpt lat="45.01601" lon="5.48216">
        <ele>1511.5999755859</ele>
        <time>2024-07-14T07:37:47.000Z</time>
      </trkpt>
      <trkpt lat="45.01599" lon="5.48215">
        <ele>1511.1999511719</ele>
        <time>2024-07-14T07:37:48.000Z</time>
      </trkpt>
      <trkpt lat="45.01597" lon="5.48214">
        <ele>1511</ele>
        <time>2024-07-14T07:37:49.000Z</time>
      </trkpt>
      <trkpt lat="45.01594" lon="5.48213">
        <ele>1510.1999511719</ele>
        <time>2024-07-14T07:37:50.000Z</time>
      </trkpt>
      <trkpt lat="45.01591" lon="5.48213">
        <ele>1509.5999755859</ele>
        <time>2024-07-14T07:37:51.000Z</time>
      </trkpt>
      <trkpt lat="45.01589" lon="5.48213">
        <ele>1509.1999511719</ele>
        <time>2024-07-14T07:37:52.000Z</time>
      </trkpt>
      <trkpt lat="45.01586" lon="5.48214">
        <ele>1508.8000488281</ele>
        <time>2024-07-14T07:37:53.000Z</time>
      </trkpt>
      <trkpt lat="45.01583" lon="5.48214">
        <ele>1508</ele>
        <time>2024-07-14T07:37:54.000Z</time>
      </trkpt>
      <trkpt lat="45.0158" lon="5.48214">
        <ele>1507.1999511719</ele>
        <time>2024-07-14T07:37:55.000Z</time>
      </trkpt>
      <trkpt lat="45.01577" lon="5.48214">
        <ele>1506.8000488281</ele>
        <time>2024-07-14T07:37:56.000Z</time>
      </trkpt>
      <trkpt lat="45.01574" lon="5.48214">
        <ele>1506.4000244141</ele>
        <time>2024-07-14T07:37:57.000Z</time>
      </trkpt>
      <trkpt lat="45.01572" lon="5.48214">
        <ele>1505.8000488281</ele>
        <time>2024-07-14T07:37:58.000Z</time>
      </trkpt>
      <trkpt lat="45.01569" lon="5.48214">
        <ele>1505.1999511719</ele>
        <time>2024-07-14T07:37:59.000Z</time>
      </trkpt>
      <trkpt lat="45.01566" lon="5.48214">
        <ele>1504.8000488281</ele>
        <time>2024-07-14T07:38:00.000Z</time>
      </trkpt>
      <trkpt lat="45.01564" lon="5.48213">
        <ele>1504.5999755859</ele>
        <time>2024-07-14T07:38:01.000Z</time>
      </trkpt>
      <trkpt lat="45.01561" lon="5.48214">
        <ele>1503.8000488281</ele>
        <time>2024-07-14T07:38:02.000Z</time>
      </trkpt>
      <trkpt lat="45.01559" lon="5.48214">
        <ele>1503.1999511719</ele>
        <time>2024-07-14T07:38:03.000Z</time>
      </trkpt>
      <trkpt lat="45.01557" lon="5.48216">
        <ele>1503</ele>
        <time>2024-07-14T07:38:04.000Z</time>
      </trkpt>
      <trkpt lat="45.01554" lon="5.48217">
        <ele>1502.4000244141</ele>
        <time>2024-07-14T07:38:05.000Z</time>
      </trkpt>
      <trkpt lat="45.01551" lon="5.48219">
        <ele>1501.5999755859</ele>
        <time>2024-07-14T07:38:06.000Z</time>
      </trkpt>
      <trkpt lat="45.01549" lon="5.4822">
        <ele>1501.4000244141</ele>
        <time>2024-07-14T07:38:07.000Z</time>
      </trkpt>
      <trkpt lat="45.01546" lon="5.48221">
        <ele>1501</ele>
        <time>2024-07-14T07:38:08.000Z</time>
      </trkpt>
      <trkpt lat="45.01543" lon="5.48221">
        <ele>1500.5999755859</ele>
        <time>2024-07-14T07:38:09.000Z</time>
      </trkpt>
      <trkpt lat="45.0154" lon="5.48221">
        <ele>1500</ele>
        <time>2024-07-14T07:38:10.000Z</time>
      </trkpt>
      <trkpt lat="45.01538" lon="5.4822">
        <ele>1499.8000488281</ele>
        <time>2024-07-14T07:38:11.000Z</time>
      </trkpt>
      <trkpt lat="45.01535" lon="5.48219">
        <ele>1499.5999755859</ele>
        <time>2024-07-14T07:38:12.000Z</time>
      </trkpt>
      <trkpt lat="45.01533" lon="5.48217">
        <ele>1499.4000244141</ele>
        <time>2024-07-14T07:38:13.000Z</time>
      </trkpt>
      <trkpt lat="45.0153" lon="5.48214">
        <ele>1499</ele>
        <time>2024-07-14T07:38:14.000Z</time>
      </trkpt>
      <trkpt lat="45.01528" lon="5.48212">
        <ele>1498.5999755859</ele>
        <time>2024-07-14T07:38:15.000Z</time>
      </trkpt>
      <trkpt lat="45.01526" lon="5.48209">
        <ele>1498.4000244141</ele>
        <time>2024-07-14T07:38:16.000Z</time>
      </trkpt>
      <trkpt lat="45.01524" lon="5.48207">
        <ele>1498</ele>
        <time>2024-07-14T07:38:17.000Z</time>
      </trkpt>
      <trkpt lat="45.01521" lon="5.48204">
        <ele>1497.5999755859</ele>
        <time>2024-07-14T07:38:18.000Z</time>
      </trkpt>
      <trkpt lat="45.01519" lon="5.48203">
        <ele>1497.1999511719</ele>
        <time>2024-07-14T07:38:19.000Z</time>
      </trkpt>
      <trkpt lat="45.01517" lon="5.48201">
        <ele>1496.8000488281</ele>
        <time>2024-07-14T07:38:20.000Z</time>
      </trkpt>
      <trkpt lat="45.01515" lon="5.482">
        <ele>1496.4000244141</ele>
        <time>2024-07-14T07:38:21.000Z</time>
      </trkpt>
      <trkpt lat="45.01512" lon="5.48198">
        <ele>1495.8000488281</ele>
        <time>2024-07-14T07:38:22.000Z</time>
      </trkpt>
      <trkpt lat="45.01509" lon="5.48196">
        <ele>1495.4000244141</ele>
        <time>2024-07-14T07:38:23.000Z</time>
      </trkpt>
      <trkpt lat="45.01506" lon="5.48195">
        <ele>1494.8000488281</ele>
        <time>2024-07-14T07:38:24.000Z</time>
      </trkpt>
      <trkpt lat="45.01503" lon="5.48193">
        <ele>1494.1999511719</ele>
        <time>2024-07-14T07:38:25.000Z</time>
      </trkpt>
      <trkpt lat="45.01501" lon="5.48192">
        <ele>1493.8000488281</ele>
        <time>2024-07-14T07:38:26.000Z</time>
      </trkpt>
      <trkpt lat="45.01498" lon="5.4819">
        <ele>1492.8000488281</ele>
        <time>2024-07-14T07:38:27.000Z</time>
      </trkpt>
      <trkpt lat="45.01496" lon="5.48189">
        <ele>1492.4000244141</ele>
        <time>2024-07-14T07:38:28.000Z</time>
      </trkpt>
      <trkpt lat="45.01493" lon="5.48188">
        <ele>1491.8000488281</ele>
        <time>2024-07-14T07:38:29.000Z</time>
      </trkpt>
      <trkpt lat="45.01491" lon="5.48187">
        <ele>1491.4000244141</ele>
        <time>2024-07-14T07:38:30.000Z</time>
      </trkpt>
      <trkpt lat="45.01488" lon="5.48187">
        <ele>1490.5999755859</ele>
        <time>2024-07-14T07:38:31.000Z</time>
      </trkpt>
      <trkpt lat="45.01486" lon="5.48187">
        <ele>1490</ele>
        <time>2024-07-14T07:38:32.000Z</time>
      </trkpt>
      <trkpt lat="45.01485" lon="5.48187">
        <ele>1489.5999755859</ele>
        <time>2024-07-14T07:38:33.000Z</time>
      </trkpt>
      <trkpt lat="45.01483" lon="5.48187">
        <ele>1489.1999511719</ele>
        <time>2024-07-14T07:38:34.000Z</time>
      </trkpt>
      <trkpt lat="45.01481" lon="5.48186">
        <ele>1488.4000244141</ele>
        <time>2024-07-14T07:38:35.000Z</time>
      </trkpt>
      <trkpt lat="45.01478" lon="5.48186">
        <ele>1488.1999511719</ele>
        <time>2024-07-14T07:38:36.000Z</time>
      </trkpt>
      <trkpt lat="45.01476" lon="5.48185">
        <ele>1487.5999755859</ele>
        <time>2024-07-14T07:38:37.000Z</time>
      </trkpt>
      <trkpt lat="45.01474" lon="5.48185">
        <ele>1487.1999511719</ele>
        <time>2024-07-14T07:38:38.000Z</time>
      </trkpt>
      <trkpt lat="45.01471" lon="5.48184">
        <ele>1486.8000488281</ele>
        <time>2024-07-14T07:38:39.000Z</time>
      </trkpt>
      <trkpt lat="45.01469" lon="5.48182">
        <ele>1486.1999511719</ele>
        <time>2024-07-14T07:38:40.000Z</time>
      </trkpt>
      <trkpt lat="45.01466" lon="5.4818">
        <ele>1485.5999755859</ele>
        <time>2024-07-14T07:38:41.000Z</time>
      </trkpt>
      <trkpt lat="45.01464" lon="5.48179">
        <ele>1485</ele>
        <time>2024-07-14T07:38:42.000Z</time>
      </trkpt>
      <trkpt lat="45.01462" lon="5.48177">
        <ele>1484.5999755859</ele>
        <time>2024-07-14T07:38:43.000Z</time>
      </trkpt>
      <trkpt lat="45.01459" lon="5.48176">
        <ele>1483.5999755859</ele>
        <time>2024-07-14T07:38:44.000Z</time>
      </trkpt>
      <trkpt lat="45.01457" lon="5.48175">
        <ele>1483.4000244141</ele>
        <time>2024-07-14T07:38:45.000Z</time>
      </trkpt>
      <trkpt lat="45.01455" lon="5.48175">
        <ele>1483</ele>
        <time>2024-07-14T07:38:46.000Z</time>
      </trkpt>
      <trkpt lat="45.01453" lon="5.48176">
        <ele>1482.5999755859</ele>
        <time>2024-07-14T07:38:47.000Z</time>
      </trkpt>
      <trkpt lat="45.01451" lon="5.48177">
        <ele>1482.4000244141</ele>
        <time>2024-07-14T07:38:48.000Z</time>
      </trkpt>
      <trkpt lat="45.01449" lon="5.48179">
        <ele>1481.5999755859</ele>
        <time>2024-07-14T07:38:49.000Z</time>
      </trkpt>
      <trkpt lat="45.01447" lon="5.48181">
        <ele>1481.1999511719</ele>
        <time>2024-07-14T07:38:50.000Z</time>
      </trkpt>
      <trkpt lat="45.01444" lon="5.48182">
        <ele>1480.5999755859</ele>
        <time>2024-07-14T07:38:51.000Z</time>
      </trkpt>
      <trkpt lat="45.01442" lon="5.48184">
        <ele>1480.1999511719</ele>
        <time>2024-07-14T07:38:52.000Z</time>
      </trkpt>
      <trkpt lat="45.0144" lon="5.48186">
        <ele>1479.8000488281</ele>
        <time>2024-07-14T07:38:53.000Z</time>
      </trkpt>
      <trkpt lat="45.01438" lon="5.48188">
        <ele>1479.1999511719</ele>
        <time>2024-07-14T07:38:54.000Z</time>
      </trkpt>
      <trkpt lat="45.01435" lon="5.48189">
        <ele>1478.5999755859</ele>
        <time>2024-07-14T07:38:55.000Z</time>
      </trkpt>
      <trkpt lat="45.01433" lon="5.48191">
        <ele>1478.4000244141</ele>
        <time>2024-07-14T07:38:56.000Z</time>
      </trkpt>
      <trkpt lat="45.0143" lon="5.48191">
        <ele>1477.8000488281</ele>
        <time>2024-07-14T07:38:57.000Z</time>
      </trkpt>
      <trkpt lat="45.01428" lon="5.48192">
        <ele>1477.1999511719</ele>
        <time>2024-07-14T07:38:58.000Z</time>
      </trkpt>
      <trkpt lat="45.01426" lon="5.48193">
        <ele>1476.8000488281</ele>
        <time>2024-07-14T07:38:59.000Z</time>
      </trkpt>
      <trkpt lat="45.01424" lon="5.48193">
        <ele>1476.1999511719</ele>
        <time>2024-07-14T07:39:00.000Z</time>
      </trkpt>
      <trkpt lat="45.01422" lon="5.48193">
        <ele>1475.1999511719</ele>
        <time>2024-07-14T07:39:01.000Z</time>
      </trkpt>
      <trkpt lat="45.01419" lon="5.48194">
        <ele>1474.4000244141</ele>
        <time>2024-07-14T07:39:02.000Z</time>
      </trkpt>
      <trkpt lat="45.01416" lon="5.48194">
        <ele>1474</ele>
        <time>2024-07-14T07:39:03.000Z</time>
      </trkpt>
      <trkpt lat="45.01413" lon="5.48195">
        <ele>1473.4000244141</ele>
        <time>2024-07-14T07:39:04.000Z</time>
      </trkpt>
      <trkpt lat="45.0141" lon="5.48196">
        <ele>1473</ele>
        <time>2024-07-14T07:39:05.000Z</time>
      </trkpt>
      <trkpt lat="45.01408" lon="5.48196">
        <ele>1472.4000244141</ele>
        <time>2024-07-14T07:39:06.000Z</time>
      </trkpt>
      <trkpt lat="45.01405" lon="5.48196">
        <ele>1472</ele>
        <time>2024-07-14T07:39:07.000Z</time>
      </trkpt>
      <trkpt lat="45.01403" lon="5.48196">
        <ele>1471.4000244141</ele>
        <time>2024-07-14T07:39:08.000Z</time>
      </trkpt>
      <trkpt lat="45.014" lon="5.48196">
        <ele>1470.8000488281</ele>
        <time>2024-07-14T07:39:09.000Z</time>
      </trkpt>
      <trkpt lat="45.01398" lon="5.48197">
        <ele>1470</ele>
        <time>2024-07-14T07:39:10.000Z</time>
      </trkpt>
      <trkpt lat="45.01396" lon="5.48198">
        <ele>1469.5999755859</ele>
        <time>2024-07-14T07:39:11.000Z</time>
      </trkpt>
      <trkpt lat="45.01394" lon="5.48199">
        <ele>1469</ele>
        <time>2024-07-14T07:39:12.000Z</time>
      </trkpt>
      <trkpt lat="45.01392" lon="5.482">
        <ele>1468.4000244141</ele>
        <time>2024-07-14T07:39:13.000Z</time>
      </trkpt>
      <trkpt lat="45.0139" lon="5.48202">
        <ele>1467.5999755859</ele>
        <time>2024-07-14T07:39:14.000Z</time>
      </trkpt>
      <trkpt lat="45.01388" lon="5.48204">
        <ele>1467.1999511719</ele>
        <time>2024-07-14T07:39:15.000Z</time>
      </trkpt>
      <trkpt lat="45.01386" lon="5.48206">
        <ele>1466.5999755859</ele>
        <time>2024-07-14T07:39:16.000Z</time>
      </trkpt>
      <trkpt lat="45.01384" lon="5.48208">
        <ele>1466.1999511719</ele>
        <time>2024-07-14T07:39:17.000Z</time>
      </trkpt>
      <trkpt lat="45.01383" lon="5.48209">
        <ele>1466</ele>
        <time>2024-07-14T07:39:18.000Z</time>
      </trkpt>
      <trkpt lat="45.01381" lon="5.4821">
        <ele>1465.5999755859</ele>
        <time>2024-07-14T07:39:19.000Z</time>
      </trkpt>
      <trkpt lat="45.01378" lon="5.48212">
        <ele>1465.4000244141</ele>
        <time>2024-07-14T07:39:20.000Z</time>
      </trkpt>
      <trkpt lat="45.01376" lon="5.48213">
        <ele>1464.5999755859</ele>
        <time>2024-07-14T07:39:21.000Z</time>
      </trkpt>
      <trkpt lat="45.01373" lon="5.48215">
        <ele>1464.4000244141</ele>
        <time>2024-07-14T07:39:22.000Z</time>
      </trkpt>
      <trkpt lat="45.0137" lon="5.48216">
        <ele>1464</ele>
        <time>2024-07-14T07:39:23.000Z</time>
      </trkpt>
      <trkpt lat="45.01368" lon="5.48218">
        <ele>1463.1999511719</ele>
        <time>2024-07-14T07:39:24.000Z</time>
      </trkpt>
      <trkpt lat="45.01365" lon="5.48219">
        <ele>1462.4000244141</ele>
        <time>2024-07-14T07:39:25.000Z</time>
      </trkpt>
      <trkpt lat="45.01362" lon="5.4822">
        <ele>1462</ele>
        <time>2024-07-14T07:39:26.000Z</time>
      </trkpt>
      <trkpt lat="45.0136" lon="5.48222">
        <ele>1461.5999755859</ele>
        <time>2024-07-14T07:39:27.000Z</time>
      </trkpt>
      <trkpt lat="45.01357" lon="5.48223">
        <ele>1461.4000244141</ele>
        <time>2024-07-14T07:39:28.000Z</time>
      </trkpt>
      <trkpt lat="45.01355" lon="5.48225">
        <ele>1461</ele>
        <time>2024-07-14T07:39:29.000Z</time>
      </trkpt>
      <trkpt lat="45.01353" lon="5.48226">
        <ele>1460.8000488281</ele>
        <time>2024-07-14T07:39:30.000Z</time>
      </trkpt>
      <trkpt lat="45.0135" lon="5.48228">
        <ele>1460.5999755859</ele>
        <time>2024-07-14T07:39:31.000Z</time>
      </trkpt>
      <trkpt lat="45.01348" lon="5.4823">
        <ele>1460.4000244141</ele>
        <time>2024-07-14T07:39:32.000Z</time>
      </trkpt>
      <trkpt lat="45.01346" lon="5.48231">
        <ele>1459.8000488281</ele>
        <time>2024-07-14T07:39:33.000Z</time>
      </trkpt>
      <trkpt lat="45.01344" lon="5.48232">
        <ele>1459</ele>
        <time>2024-07-14T07:39:34.000Z</time>
      </trkpt>
      <trkpt lat="45.01341" lon="5.48233">
        <ele>1458.8000488281</ele>
        <time>2024-07-14T07:39:35.000Z</time>
      </trkpt>
      <trkpt lat="45.0134" lon="5.48234">
        <ele>1458.5999755859</ele>
        <time>2024-07-14T07:39:36.000Z</time>
      </trkpt>
      <trkpt lat="45.01337" lon="5.48235">
        <ele>1458.4000244141</ele>
        <time>2024-07-14T07:39:37.000Z</time>
      </trkpt>
      <trkpt lat="45.01335" lon="5.48235">
        <ele>1458.1999511719</ele>
        <time>2024-07-14T07:39:38.000Z</time>
      </trkpt>
      <trkpt lat="45.01333" lon="5.48236">
        <ele>1458</ele>
        <time>2024-07-14T07:39:39.000Z</time>
      </trkpt>
      <trkpt lat="45.0133" lon="5.48237">
        <ele>1457.8000488281</ele>
        <time>2024-07-14T07:39:40.000Z</time>
      </trkpt>
      <trkpt lat="45.01328" lon="5.48237">
        <ele>1457.5999755859</ele>
        <time>2024-07-14T07:39:41.000Z</time>
      </trkpt>
      <trkpt lat="45.01326" lon="5.48238">
        <ele>1457.4000244141</ele>
        <time>2024-07-14T07:39:42.000Z</time>
      </trkpt>
      <trkpt lat="45.01324" lon="5.48238">
        <ele>1457</ele>
        <time>2024-07-14T07:39:43.000Z</time>
      </trkpt>
      <trkpt lat="45.01321" lon="5.48239">
        <ele>1456.5999755859</ele>
        <time>2024-07-14T07:39:44.000Z</time>
      </trkpt>
      <trkpt lat="45.01318" lon="5.48239">
        <ele>1456.4000244141</ele>
        <time>2024-07-14T07:39:45.000Z</time>
      </trkpt>
      <trkpt lat="45.01316" lon="5.48239">
        <ele>1456.1999511719</ele>
        <time>2024-07-14T07:39:46.000Z</time>
      </trkpt>
      <trkpt lat="45.01313" lon="5.48239">
        <ele>1456</ele>
        <time>2024-07-14T07:39:47.000Z</time>
      </trkpt>
      <trkpt lat="45.0131" lon="5.48239">
        <ele>1456</ele>
        <time>2024-07-14T07:39:48.000Z</time>
      </trkpt>
      <trkpt lat="45.01308" lon="5.4824">
        <ele>1455.8000488281</ele>
        <time>2024-07-14T07:39:49.000Z</time>
      </trkpt>
      <trkpt lat="45.01305" lon="5.4824">
        <ele>1455.5999755859</ele>
        <time>2024-07-14T07:39:50.000Z</time>
      </trkpt>
      <trkpt lat="45.01302" lon="5.4824">
        <ele>1455.4000244141</ele>
        <time>2024-07-14T07:39:51.000Z</time>
      </trkpt>
      <trkpt lat="45.013" lon="5.4824">
        <ele>1455.4000244141</ele>
        <time>2024-07-14T07:39:52.000Z</time>
      </trkpt>
      <trkpt lat="45.01297" lon="5.4824">
        <ele>1455.1999511719</ele>
        <time>2024-07-14T07:39:53.000Z</time>
      </trkpt>
      <trkpt lat="45.01295" lon="5.4824">
        <ele>1455.1999511719</ele>
        <time>2024-07-14T07:39:54.000Z</time>
      </trkpt>
      <trkpt lat="45.01293" lon="5.48241">
        <ele>1455.4000244141</ele>
        <time>2024-07-14T07:39:55.000Z</time>
      </trkpt>
      <trkpt lat="45.01291" lon="5.48241">
        <ele>1455.4000244141</ele>
        <time>2024-07-14T07:39:56.000Z</time>
      </trkpt>
      <trkpt lat="45.01289" lon="5.48241">
        <ele>1455.4000244141</ele>
        <time>2024-07-14T07:39:57.000Z</time>
      </trkpt>
      <trkpt lat="45.01286" lon="5.48242">
        <ele>1455.4000244141</ele>
        <time>2024-07-14T07:39:58.000Z</time>
      </trkpt>
      <trkpt lat="45.01284" lon="5.48242">
        <ele>1455.4000244141</ele>
        <time>2024-07-14T07:39:59.000Z</time>
      </trkpt>
      <trkpt lat="45.01281" lon="5.48242">
        <ele>1455.5999755859</ele>
        <time>2024-07-14T07:40:00.000Z</time>
      </trkpt>
      <trkpt lat="45.01279" lon="5.48243">
        <ele>1455.8000488281</ele>
        <time>2024-07-14T07:40:01.000Z</time>
      </trkpt>
      <trkpt lat="45.01277" lon="5.48243">
        <ele>1456</ele>
        <time>2024-07-14T07:40:02.000Z</time>
      </trkpt>
      <trkpt lat="45.01275" lon="5.48244">
        <ele>1456.1999511719</ele>
        <time>2024-07-14T07:40:03.000Z</time>
      </trkpt>
      <trkpt lat="45.01272" lon="5.48244">
        <ele>1456.4000244141</ele>
        <time>2024-07-14T07:40:04.000Z</time>
      </trkpt>
      <trkpt lat="45.0127" lon="5.48244">
        <ele>1456.5999755859</ele>
        <time>2024-07-14T07:40:05.000Z</time>
      </trkpt>
      <trkpt lat="45.01268" lon="5.48245">
        <ele>1456.5999755859</ele>
        <time>2024-07-14T07:40:06.000Z</time>
      </trkpt>
      <trkpt lat="45.01266" lon="5.48245">
        <ele>1457.1999511719</ele>
        <time>2024-07-14T07:40:07.000Z</time>
      </trkpt>
      <trkpt lat="45.01264" lon="5.48245">
        <ele>1457.5999755859</ele>
        <time>2024-07-14T07:40:08.000Z</time>
      </trkpt>
      <trkpt lat="45.01261" lon="5.48246">
        <ele>1457.8000488281</ele>
        <time>2024-07-14T07:40:09.000Z</time>
      </trkpt>
      <trkpt lat="45.01259" lon="5.48247">
        <ele>1458</ele>
        <time>2024-07-14T07:40:10.000Z</time>
      </trkpt>
      <trkpt lat="45.01257" lon="5.48247">
        <ele>1458</ele>
        <time>2024-07-14T07:40:11.000Z</time>
      </trkpt>
      <trkpt lat="45.01255" lon="5.48248">
        <ele>1458</ele>
        <time>2024-07-14T07:40:12.000Z</time>
      </trkpt>
      <trkpt lat="45.01253" lon="5.48249">
        <ele>1458.1999511719</ele>
        <time>2024-07-14T07:40:13.000Z</time>
      </trkpt>
      <trkpt lat="45.01251" lon="5.4825">
        <ele>1458.1999511719</ele>
        <time>2024-07-14T07:40:14.000Z</time>
      </trkpt>
      <trkpt lat="45.01249" lon="5.4825">
        <ele>1458.4000244141</ele>
        <time>2024-07-14T07:40:15.000Z</time>
      </trkpt>
      <trkpt lat="45.01247" lon="5.4825">
        <ele>1458.5999755859</ele>
        <time>2024-07-14T07:40:16.000Z</time>
      </trkpt>
      <trkpt lat="45.01245" lon="5.48251">
        <ele>1458.5999755859</ele>
        <time>2024-07-14T07:40:17.000Z</time>
      </trkpt>
      <trkpt lat="45.01243" lon="5.48252">
        <ele>1458.5999755859</ele>
        <time>2024-07-14T07:40:18.000Z</time>
      </trkpt>
      <trkpt lat="45.01241" lon="5.48252">
        <ele>1458.8000488281</ele>
        <time>2024-07-14T07:40:19.000Z</time>
      </trkpt>
      <trkpt lat="45.01238" lon="5.48253">
        <ele>1458.8000488281</ele>
        <time>2024-07-14T07:40:20.000Z</time>
      </trkpt>
      <trkpt lat="45.01236" lon="5.48254">
        <ele>1458.8000488281</ele>
        <time>2024-07-14T07:40:21.000Z</time>
      </trkpt>
      <trkpt lat="45.01234" lon="5.48254">
        <ele>1458.8000488281</ele>
        <time>2024-07-14T07:40:22.000Z</time>
      </trkpt>
      <trkpt lat="45.01231" lon="5.48254">
        <ele>1459</ele>
        <time>2024-07-14T07:40:23.000Z</time>
      </trkpt>
      <trkpt lat="45.01229" lon="5.48255">
        <ele>1459.1999511719</ele>
        <time>2024-07-14T07:40:24.000Z</time>
      </trkpt>
      <trkpt lat="45.01227" lon="5.48255">
        <ele>1459.1999511719</ele>
        <time>2024-07-14T07:40:25.000Z</time>
      </trkpt>
      <trkpt lat="45.01225" lon="5.48254">
        <ele>1459.4000244141</ele>
        <time>2024-07-14T07:40:26.000Z</time>
      </trkpt>
      <trkpt lat="45.01223" lon="5.48255">
        <ele>1459.4000244141</ele>
        <time>2024-07-14T07:40:27.000Z</time>
      </trkpt>
      <trkpt lat="45.01221" lon="5.48254">
        <ele>1459.4000244141</ele>
        <time>2024-07-14T07:40:28.000Z</time>
      </trkpt>
      <trkpt lat="45.01218" lon="5.48254">
        <ele>1459.4000244141</ele>
        <time>2024-07-14T07:40:29.000Z</time>
      </trkpt>
      <trkpt lat="45.01216" lon="5.48254">
        <ele>1459.5999755859</ele>
        <time>2024-07-14T07:40:30.000Z</time>
      </trkpt>
      <trkpt lat="45.01213" lon="5.48254">
        <ele>1459.5999755859</ele>
        <time>2024-07-14T07:40:31.000Z</time>
      </trkpt>
      <trkpt lat="45.01211" lon="5.48254">
        <ele>1459.5999755859</ele>
        <time>2024-07-14T07:40:32.000Z</time>
      </trkpt>
      <trkpt lat="45.01208" lon="5.48254">
        <ele>1459.8000488281</ele>
        <time>2024-07-14T07:40:33.000Z</time>
      </trkpt>
      <trkpt lat="45.01206" lon="5.48253">
        <ele>1459.8000488281</ele>
        <time>2024-07-14T07:40:34.000Z</time>
      </trkpt>
      <trkpt lat="45.01204" lon="5.48253">
        <ele>1459.8000488281</ele>
        <time>2024-07-14T07:40:35.000Z</time>
      </trkpt>
      <trkpt lat="45.01202" lon="5.48252">
        <ele>1460</ele>
        <time>2024-07-14T07:40:36.000Z</time>
      </trkpt>
      <trkpt lat="45.012" lon="5.48252">
        <ele>1460.1999511719</ele>
        <time>2024-07-14T07:40:37.000Z</time>
      </trkpt>
      <trkpt lat="45.01198" lon="5.48252">
        <ele>1460.4000244141</ele>
        <time>2024-07-14T07:40:38.000Z</time>
      </trkpt>
      <trkpt lat="45.01196" lon="5.48252">
        <ele>1460.5999755859</ele>
        <time>2024-07-14T07:40:39.000Z</time>
      </trkpt>
      <trkpt lat="45.01194" lon="5.48252">
        <ele>1460.5999755859</ele>
        <time>2024-07-14T07:40:40.000Z</time>
      </trkpt>
      <trkpt lat="45.01192" lon="5.48253">
        <ele>1460.5999755859</ele>
        <time>2024-07-14T07:40:41.000Z</time>
      </trkpt>
      <trkpt lat="45.0119" lon="5.48254">
        <ele>1460.8000488281</ele>
        <time>2024-07-14T07:40:42.000Z</time>
      </trkpt>
      <trkpt lat="45.01188" lon="5.48255">
        <ele>1461</ele>
        <time>2024-07-14T07:40:43.000Z</time>
      </trkpt>
      <trkpt lat="45.01185" lon="5.48256">
        <ele>1461.1999511719</ele>
        <time>2024-07-14T07:40:44.000Z</time>
      </trkpt>
      <trkpt lat="45.01183" lon="5.48256">
        <ele>1461.1999511719</ele>
        <time>2024-07-14T07:40:45.000Z</time>
      </trkpt>
      <trkpt lat="45.01181" lon="5.48256">
        <ele>1461.4000244141</ele>
        <time>2024-07-14T07:40:46.000Z</time>
      </trkpt>
      <trkpt lat="45.0118" lon="5.48256">
        <ele>1461.4000244141</ele>
        <time>2024-07-14T07:40:47.000Z</time>
      </trkpt>
      <trkpt lat="45.01178" lon="5.48257">
        <ele>1461.5999755859</ele>
        <time>2024-07-14T07:40:48.000Z</time>
      </trkpt>
      <trkpt lat="45.01176" lon="5.48258">
        <ele>1461.8000488281</ele>
        <time>2024-07-14T07:40:49.000Z</time>
      </trkpt>
      <trkpt lat="45.01174" lon="5.48259">
        <ele>1461.8000488281</ele>
        <time>2024-07-14T07:40:50.000Z</time>
      </trkpt>
      <trkpt lat="45.01172" lon="5.4826">
        <ele>1461.8000488281</ele>
        <time>2024-07-14T07:40:51.000Z</time>
      </trkpt>
      <trkpt lat="45.0117" lon="5.48261">
        <ele>1462</ele>
        <time>2024-07-14T07:40:52.000Z</time>
      </trkpt>
      <trkpt lat="45.01168" lon="5.48264">
        <ele>1462</ele>
        <time>2024-07-14T07:40:53.000Z</time>
      </trkpt>
      <trkpt lat="45.01166" lon="5.48265">
        <ele>1462.1999511719</ele>
        <time>2024-07-14T07:40:54.000Z</time>
      </trkpt>
      <trkpt lat="45.01164" lon="5.48267">
        <ele>1462.1999511719</ele>
        <time>2024-07-14T07:40:55.000Z</time>
      </trkpt>
      <trkpt lat="45.01162" lon="5.48269">
        <ele>1462.4000244141</ele>
        <time>2024-07-14T07:40:56.000Z</time>
      </trkpt>
      <trkpt lat="45.0116" lon="5.48271">
        <ele>1462.4000244141</ele>
        <time>2024-07-14T07:40:57.000Z</time>
      </trkpt>
      <trkpt lat="45.01158" lon="5.48272">
        <ele>1462.5999755859</ele>
        <time>2024-07-14T07:40:58.000Z</time>
      </trkpt>
      <trkpt lat="45.01156" lon="5.48273">
        <ele>1462.5999755859</ele>
        <time>2024-07-14T07:40:59.000Z</time>
      </trkpt>
      <trkpt lat="45.01154" lon="5.48274">
        <ele>1462.5999755859</ele>
        <time>2024-07-14T07:41:00.000Z</time>
      </trkpt>
      <trkpt lat="45.01151" lon="5.48274">
        <ele>1462.8000488281</ele>
        <time>2024-07-14T07:41:01.000Z</time>
      </trkpt>
      <trkpt lat="45.01149" lon="5.48274">
        <ele>1462.8000488281</ele>
        <time>2024-07-14T07:41:02.000Z</time>
      </trkpt>
      <trkpt lat="45.01147" lon="5.48274">
        <ele>1463</ele>
        <time>2024-07-14T07:41:03.000Z</time>
      </trkpt>
      <trkpt lat="45.01145" lon="5.48274">
        <ele>1463.1999511719</ele>
        <time>2024-07-14T07:41:04.000Z</time>
      </trkpt>
      <trkpt lat="45.01142" lon="5.48273">
        <ele>1463.1999511719</ele>
        <time>2024-07-14T07:41:05.000Z</time>
      </trkpt>
      <trkpt lat="45.0114" lon="5.48272">
        <ele>1463.4000244141</ele>
        <time>2024-07-14T07:41:06.000Z</time>
      </trkpt>
      <trkpt lat="45.01138" lon="5.48271">
        <ele>1463.4000244141</ele>
        <time>2024-07-14T07:41:07.000Z</time>
      </trkpt>
      <trkpt lat="45.01136" lon="5.48269">
        <ele>1463.4000244141</ele>
        <time>2024-07-14T07:41:08.000Z</time>
      </trkpt>
      <trkpt lat="45.01134" lon="5.48268">
        <ele>1463.4000244141</ele>
        <time>2024-07-14T07:41:09.000Z</time>
      </trkpt>
      <trkpt lat="45.01132" lon="5.48267">
        <ele>1463.4000244141</ele>
        <time>2024-07-14T07:41:10.000Z</time>
      </trkpt>
      <trkpt lat="45.0113" lon="5.48265">
        <ele>1463.1999511719</ele>
        <time>2024-07-14T07:41:11.000Z</time>
      </trkpt>
      <trkpt lat="45.01127" lon="5.48264">
        <ele>1463</ele>
        <time>2024-07-14T07:41:12.000Z</time>
      </trkpt>
      <trkpt lat="45.01125" lon="5.48264">
        <ele>1462.8000488281</ele>
        <time>2024-07-14T07:41:13.000Z</time>
      </trkpt>
      <trkpt lat="45.01122" lon="5.48263">
        <ele>1462.4000244141</ele>
        <time>2024-07-14T07:41:14.000Z</time>
      </trkpt>
      <trkpt lat="45.0112" lon="5.48263">
        <ele>1461.8000488281</ele>
        <time>2024-07-14T07:41:15.000Z</time>
      </trkpt>
      <trkpt lat="45.01117" lon="5.48264">
        <ele>1461.5999755859</ele>
        <time>2024-07-14T07:41:16.000Z</time>
      </trkpt>
      <trkpt lat="45.01114" lon="5.48264">
        <ele>1461.4000244141</ele>
        <time>2024-07-14T07:41:17.000Z</time>
      </trkpt>
      <trkpt lat="45.01111" lon="5.48264">
        <ele>1461.1999511719</ele>
        <time>2024-07-14T07:41:18.000Z</time>
      </trkpt>
      <trkpt lat="45.01109" lon="5.48264">
        <ele>1461.1999511719</ele>
        <time>2024-07-14T07:41:19.000Z</time>
      </trkpt>
      <trkpt lat="45.01106" lon="5.48264">
        <ele>1461</ele>
        <time>2024-07-14T07:41:20.000Z</time>
      </trkpt>
      <trkpt lat="45.01104" lon="5.48264">
        <ele>1460.8000488281</ele>
        <time>2024-07-14T07:41:21.000Z</time>
      </trkpt>
      <trkpt lat="45.01102" lon="5.48263">
        <ele>1460.5999755859</ele>
        <time>2024-07-14T07:41:22.000Z</time>
      </trkpt>
      <trkpt lat="45.011" lon="5.48263">
        <ele>1460.4000244141</ele>
        <time>2024-07-14T07:41:23.000Z</time>
      </trkpt>
      <trkpt lat="45.01097" lon="5.48263">
        <ele>1460.1999511719</ele>
        <time>2024-07-14T07:41:24.000Z</time>
      </trkpt>
      <trkpt lat="45.01094" lon="5.48263">
        <ele>1459.8000488281</ele>
        <time>2024-07-14T07:41:25.000Z</time>
      </trkpt>
      <trkpt lat="45.01091" lon="5.48264">
        <ele>1459.1999511719</ele>
        <time>2024-07-14T07:41:26.000Z</time>
      </trkpt>
      <trkpt lat="45.01088" lon="5.48264">
        <ele>1459</ele>
        <time>2024-07-14T07:41:27.000Z</time>
      </trkpt>
      <trkpt lat="45.01085" lon="5.48265">
        <ele>1458.8000488281</ele>
        <time>2024-07-14T07:41:28.000Z</time>
      </trkpt>
      <trkpt lat="45.01083" lon="5.48266">
        <ele>1458.5999755859</ele>
        <time>2024-07-14T07:41:29.000Z</time>
      </trkpt>
      <trkpt lat="45.01081" lon="5.48267">
        <ele>1458.4000244141</ele>
        <time>2024-07-14T07:41:30.000Z</time>
      </trkpt>
      <trkpt lat="45.01079" lon="5.48268">
        <ele>1458.1999511719</ele>
        <time>2024-07-14T07:41:31.000Z</time>
      </trkpt>
      <trkpt lat="45.01078" lon="5.48268">
        <ele>1458</ele>
        <time>2024-07-14T07:41:32.000Z</time>
      </trkpt>
      <trkpt lat="45.01076" lon="5.48269">
        <ele>1457.8000488281</ele>
        <time>2024-07-14T07:41:33.000Z</time>
      </trkpt>
      <trkpt lat="45.01075" lon="5.4827">
        <ele>1457.5999755859</ele>
        <time>2024-07-14T07:41:34.000Z</time>
      </trkpt>
      <trkpt lat="45.01073" lon="5.48271">
        <ele>1457</ele>
        <time>2024-07-14T07:41:35.000Z</time>
      </trkpt>
      <trkpt lat="45.0107" lon="5.48272">
        <ele>1456.8000488281</ele>
        <time>2024-07-14T07:41:36.000Z</time>
      </trkpt>
      <trkpt lat="45.01068" lon="5.48273">
        <ele>1456.1999511719</ele>
        <time>2024-07-14T07:41:37.000Z</time>
      </trkpt>
      <trkpt lat="45.01064" lon="5.48274">
        <ele>1455.8000488281</ele>
        <time>2024-07-14T07:41:38.000Z</time>
      </trkpt>
      <trkpt lat="45.01061" lon="5.48275">
        <ele>1455.5999755859</ele>
        <time>2024-07-14T07:41:39.000Z</time>
      </trkpt>
      <trkpt lat="45.01058" lon="5.48275">
        <ele>1455.4000244141</ele>
        <time>2024-07-14T07:41:40.000Z</time>
      </trkpt>
      <trkpt lat="45.01055" lon="5.48275">
        <ele>1454.1999511719</ele>
        <time>2024-07-14T07:41:41.000Z</time>
      </trkpt>
      <trkpt lat="45.01051" lon="5.48276">
        <ele>1453.8000488281</ele>
        <time>2024-07-14T07:41:42.000Z</time>
      </trkpt>
      <trkpt lat="45.01049" lon="5.48276">
        <ele>1453.1999511719</ele>
        <time>2024-07-14T07:41:43.000Z</time>
      </trkpt>
      <trkpt lat="45.01046" lon="5.48276">
        <ele>1453</ele>
        <time>2024-07-14T07:41:44.000Z</time>
      </trkpt>
      <trkpt lat="45.01042" lon="5.48276">
        <ele>1453</ele>
        <time>2024-07-14T07:41:45.000Z</time>
      </trkpt>
      <trkpt lat="45.0104" lon="5.48276">
        <ele>1452.8000488281</ele>
        <time>2024-07-14T07:41:46.000Z</time>
      </trkpt>
      <trkpt lat="45.01037" lon="5.48276">
        <ele>1452.5999755859</ele>
        <time>2024-07-14T07:41:47.000Z</time>
      </trkpt>
      <trkpt lat="45.01035" lon="5.48276">
        <ele>1452.4000244141</ele>
        <time>2024-07-14T07:41:48.000Z</time>
      </trkpt>
      <trkpt lat="45.01032" lon="5.48276">
        <ele>1451.8000488281</ele>
        <time>2024-07-14T07:41:49.000Z</time>
      </trkpt>
      <trkpt lat="45.0103" lon="5.48276">
        <ele>1451.8000488281</ele>
        <time>2024-07-14T07:41:50.000Z</time>
      </trkpt>
      <trkpt lat="45.01028" lon="5.48277">
        <ele>1451.4000244141</ele>
        <time>2024-07-14T07:41:51.000Z</time>
      </trkpt>
      <trkpt lat="45.01026" lon="5.48277">
        <ele>1451.1999511719</ele>
        <time>2024-07-14T07:41:52.000Z</time>
      </trkpt>
      <trkpt lat="45.01023" lon="5.48277">
        <ele>1451</ele>
        <time>2024-07-14T07:41:53.000Z</time>
      </trkpt>
      <trkpt lat="45.01021" lon="5.48278">
        <ele>1450.5999755859</ele>
        <time>2024-07-14T07:41:54.000Z</time>
      </trkpt>
      <trkpt lat="45.01019" lon="5.48278">
        <ele>1450</ele>
        <time>2024-07-14T07:41:55.000Z</time>
      </trkpt>
      <trkpt lat="45.01016" lon="5.4828">
        <ele>1449.5999755859</ele>
        <time>2024-07-14T07:41:56.000Z</time>
      </trkpt>
      <trkpt lat="45.01013" lon="5.48281">
        <ele>1449.4000244141</ele>
        <time>2024-07-14T07:41:57.000Z</time>
      </trkpt>
      <trkpt lat="45.0101" lon="5.48283">
        <ele>1449</ele>
        <time>2024-07-14T07:41:58.000Z</time>
      </trkpt>
      <trkpt lat="45.01007" lon="5.48285">
        <ele>1448.5999755859</ele>
        <time>2024-07-14T07:41:59.000Z</time>
      </trkpt>
      <trkpt lat="45.01004" lon="5.48288">
        <ele>1448.1999511719</ele>
        <time>2024-07-14T07:42:00.000Z</time>
      </trkpt>
      <trkpt lat="45.01001" lon="5.48292">
        <ele>1448</ele>
        <time>2024-07-14T07:42:01.000Z</time>
      </trkpt>
      <trkpt lat="45.00999" lon="5.48296">
        <ele>1447.8000488281</ele>
        <time>2024-07-14T07:42:02.000Z</time>
      </trkpt>
      <trkpt lat="45.00998" lon="5.483">
        <ele>1447.5999755859</ele>
        <time>2024-07-14T07:42:03.000Z</time>
      </trkpt>
      <trkpt lat="45.00996" lon="5.48302">
        <ele>1447.4000244141</ele>
        <time>2024-07-14T07:42:04.000Z</time>
      </trkpt>
      <trkpt lat="45.00995" lon="5.48305">
        <ele>1447</ele>
        <time>2024-07-14T07:42:05.000Z</time>
      </trkpt>
      <trkpt lat="45.00993" lon="5.48307">
        <ele>1446.8000488281</ele>
        <time>2024-07-14T07:42:06.000Z</time>
      </trkpt>
      <trkpt lat="45.00992" lon="5.4831">
        <ele>1446.5999755859</ele>
        <time>2024-07-14T07:42:07.000Z</time>
      </trkpt>
      <trkpt lat="45.0099" lon="5.48312">
        <ele>1446.4000244141</ele>
        <time>2024-07-14T07:42:08.000Z</time>
      </trkpt>
      <trkpt lat="45.00987" lon="5.48315">
        <ele>1446.1999511719</ele>
        <time>2024-07-14T07:42:09.000Z</time>
      </trkpt>
      <trkpt lat="45.00985" lon="5.48317">
        <ele>1446</ele>
        <time>2024-07-14T07:42:10.000Z</time>
      </trkpt>
      <trkpt lat="45.00983" lon="5.4832">
        <ele>1445.5999755859</ele>
        <time>2024-07-14T07:42:11.000Z</time>
      </trkpt>
      <trkpt lat="45.00981" lon="5.48324">
        <ele>1445.1999511719</ele>
        <time>2024-07-14T07:42:12.000Z</time>
      </trkpt>
      <trkpt lat="45.00979" lon="5.48326">
        <ele>1445</ele>
        <time>2024-07-14T07:42:13.000Z</time>
      </trkpt>
      <trkpt lat="45.00977" lon="5.48329">
        <ele>1444.8000488281</ele>
        <time>2024-07-14T07:42:14.000Z</time>
      </trkpt>
      <trkpt lat="45.00974" lon="5.48332">
        <ele>1444.5999755859</ele>
        <time>2024-07-14T07:42:15.000Z</time>
      </trkpt>
      <trkpt lat="45.00972" lon="5.48334">
        <ele>1444.5999755859</ele>
        <time>2024-07-14T07:42:16.000Z</time>
      </trkpt>
      <trkpt lat="45.0097" lon="5.48335">
        <ele>1444.1999511719</ele>
        <time>2024-07-14T07:42:17.000Z</time>
      </trkpt>
      <trkpt lat="45.00968" lon="5.48336">
        <ele>1443.8000488281</ele>
        <time>2024-07-14T07:42:18.000Z</time>
      </trkpt>
      <trkpt lat="45.00966" lon="5.48337">
        <ele>1443.4000244141</ele>
        <time>2024-07-14T07:42:19.000Z</time>
      </trkpt>
      <trkpt lat="45.00964" lon="5.48339">
        <ele>1443.4000244141</ele>
        <time>2024-07-14T07:42:20.000Z</time>
      </trkpt>
      <trkpt lat="45.00962" lon="5.4834">
        <ele>1443</ele>
        <time>2024-07-14T07:42:21.000Z</time>
      </trkpt>
      <trkpt lat="45.0096" lon="5.48342">
        <ele>1442.8000488281</ele>
        <time>2024-07-14T07:42:22.000Z</time>
      </trkpt>
      <trkpt lat="45.00959" lon="5.48344">
        <ele>1442.4000244141</ele>
        <time>2024-07-14T07:42:23.000Z</time>
      </trkpt>
      <trkpt lat="45.00957" lon="5.48346">
        <ele>1442.1999511719</ele>
        <time>2024-07-14T07:42:24.000Z</time>
      </trkpt>
      <trkpt lat="45.00955" lon="5.48348">
        <ele>1442</ele>
        <time>2024-07-14T07:42:25.000Z</time>
      </trkpt>
      <trkpt lat="45.00954" lon="5.48351">
        <ele>1441.8000488281</ele>
        <time>2024-07-14T07:42:26.000Z</time>
      </trkpt>
      <trkpt lat="45.00952" lon="5.48354">
        <ele>1441.8000488281</ele>
        <time>2024-07-14T07:42:27.000Z</time>
      </trkpt>
      <trkpt lat="45.00951" lon="5.48357">
        <ele>1441.5999755859</ele>
        <time>2024-07-14T07:42:28.000Z</time>
      </trkpt>
      <trkpt lat="45.00949" lon="5.48361">
        <ele>1441.5999755859</ele>
        <time>2024-07-14T07:42:29.000Z</time>
      </trkpt>
      <trkpt lat="45.00948" lon="5.48365">
        <ele>1441.5999755859</ele>
        <time>2024-07-14T07:42:30.000Z</time>
      </trkpt>
      <trkpt lat="45.00947" lon="5.48368">
        <ele>1441.4000244141</ele>
        <time>2024-07-14T07:42:31.000Z</time>
      </trkpt>
      <trkpt lat="45.00946" lon="5.48372">
        <ele>1441.1999511719</ele>
        <time>2024-07-14T07:42:32.000Z</time>
      </trkpt>
      <trkpt lat="45.00945" lon="5.48375">
        <ele>1441.4000244141</ele>
        <time>2024-07-14T07:42:33.000Z</time>
      </trkpt>
      <trkpt lat="45.00945" lon="5.48378">
        <ele>1441.4000244141</ele>
        <time>2024-07-14T07:42:34.000Z</time>
      </trkpt>
      <trkpt lat="45.00944" lon="5.48381">
        <ele>1441.4000244141</ele>
        <time>2024-07-14T07:42:35.000Z</time>
      </trkpt>
      <trkpt lat="45.00944" lon="5.48384">
        <ele>1441.5999755859</ele>
        <time>2024-07-14T07:42:36.000Z</time>
      </trkpt>
      <trkpt lat="45.00943" lon="5.48387">
        <ele>1441.8000488281</ele>
        <time>2024-07-14T07:42:37.000Z</time>
      </trkpt>
      <trkpt lat="45.00943" lon="5.48391">
        <ele>1442</ele>
        <time>2024-07-14T07:42:38.000Z</time>
      </trkpt>
      <trkpt lat="45.00942" lon="5.48394">
        <ele>1442.1999511719</ele>
        <time>2024-07-14T07:42:39.000Z</time>
      </trkpt>
      <trkpt lat="45.00942" lon="5.48398">
        <ele>1442.4000244141</ele>
        <time>2024-07-14T07:42:40.000Z</time>
      </trkpt>
      <trkpt lat="45.00941" lon="5.484">
        <ele>1442.4000244141</ele>
        <time>2024-07-14T07:42:41.000Z</time>
      </trkpt>
      <trkpt lat="45.0094" lon="5.48403">
        <ele>1442.5999755859</ele>
        <time>2024-07-14T07:42:42.000Z</time>
      </trkpt>
      <trkpt lat="45.00939" lon="5.48407">
        <ele>1442.8000488281</ele>
        <time>2024-07-14T07:42:43.000Z</time>
      </trkpt>
      <trkpt lat="45.00939" lon="5.4841">
        <ele>1442.8000488281</ele>
        <time>2024-07-14T07:42:44.000Z</time>
      </trkpt>
      <trkpt lat="45.00938" lon="5.48414">
        <ele>1442.8000488281</ele>
        <time>2024-07-14T07:42:45.000Z</time>
      </trkpt>
      <trkpt lat="45.00937" lon="5.48417">
        <ele>1442.8000488281</ele>
        <time>2024-07-14T07:42:46.000Z</time>
      </trkpt>
      <trkpt lat="45.00936" lon="5.48421">
        <ele>1442.8000488281</ele>
        <time>2024-07-14T07:42:47.000Z</time>
      </trkpt>
      <trkpt lat="45.00935" lon="5.48424">
        <ele>1442.8000488281</ele>
        <time>2024-07-14T07:42:48.000Z</time>
      </trkpt>
      <trkpt lat="45.00934" lon="5.48427">
        <ele>1442.8000488281</ele>
        <time>2024-07-14T07:42:49.000Z</time>
      </trkpt>
      <trkpt lat="45.00934" lon="5.4843">
        <ele>1442.5999755859</ele>
        <time>2024-07-14T07:42:50.000Z</time>
      </trkpt>
      <trkpt lat="45.00932" lon="5.48433">
        <ele>1442.4000244141</ele>
        <time>2024-07-14T07:42:51.000Z</time>
      </trkpt>
      <trkpt lat="45.00931" lon="5.48436">
        <ele>1442.4000244141</ele>
        <time>2024-07-14T07:42:52.000Z</time>
      </trkpt>
      <trkpt lat="45.0093" lon="5.4844">
        <ele>1442.1999511719</ele>
        <time>2024-07-14T07:42:53.000Z</time>
      </trkpt>
      <trkpt lat="45.00929" lon="5.48444">
        <ele>1442.1999511719</ele>
        <time>2024-07-14T07:42:54.000Z</time>
      </trkpt>
      <trkpt lat="45.00928" lon="5.48448">
        <ele>1442.1999511719</ele>
        <time>2024-07-14T07:42:55.000Z</time>
      </trkpt>
      <trkpt lat="45.00927" lon="5.48452">
        <ele>1442.1999511719</ele>
        <time>2024-07-14T07:42:56.000Z</time>
      </trkpt>
      <trkpt lat="45.00927" lon="5.48455">
        <ele>1442.1999511719</ele>
        <time>2024-07-14T07:42:57.000Z</time>
      </trkpt>
      <trkpt lat="45.00927" lon="5.48458">
        <ele>1442.1999511719</ele>
        <time>2024-07-14T07:42:58.000Z</time>
      </trkpt>
      <trkpt lat="45.00927" lon="5.48461">
        <ele>1442.1999511719</ele>
        <time>2024-07-14T07:42:59.000Z</time>
      </trkpt>
      <trkpt lat="45.00926" lon="5.48464">
        <ele>1442.1999511719</ele>
        <time>2024-07-14T07:43:00.000Z</time>
      </trkpt>
      <trkpt lat="45.00926" lon="5.48468">
        <ele>1442.1999511719</ele>
        <time>2024-07-14T07:43:01.000Z</time>
      </trkpt>
      <trkpt lat="45.00925" lon="5.48472">
        <ele>1442</ele>
        <time>2024-07-14T07:43:02.000Z</time>
      </trkpt>
      <trkpt lat="45.00925" lon="5.48475">
        <ele>1442</ele>
        <time>2024-07-14T07:43:03.000Z</time>
      </trkpt>
      <trkpt lat="45.00924" lon="5.48479">
        <ele>1441.8000488281</ele>
        <time>2024-07-14T07:43:04.000Z</time>
      </trkpt>
      <trkpt lat="45.00923" lon="5.48482">
        <ele>1441.8000488281</ele>
        <time>2024-07-14T07:43:05.000Z</time>
      </trkpt>
      <trkpt lat="45.00923" lon="5.48484">
        <ele>1441.5999755859</ele>
        <time>2024-07-14T07:43:06.000Z</time>
      </trkpt>
      <trkpt lat="45.00922" lon="5.48487">
        <ele>1441.4000244141</ele>
        <time>2024-07-14T07:43:07.000Z</time>
      </trkpt>
      <trkpt lat="45.00921" lon="5.48491">
        <ele>1441.1999511719</ele>
        <time>2024-07-14T07:43:08.000Z</time>
      </trkpt>
      <trkpt lat="45.0092" lon="5.48494">
        <ele>1441</ele>
        <time>2024-07-14T07:43:09.000Z</time>
      </trkpt>
      <trkpt lat="45.00919" lon="5.48498">
        <ele>1440.5999755859</ele>
        <time>2024-07-14T07:43:10.000Z</time>
      </trkpt>
      <trkpt lat="45.00919" lon="5.48502">
        <ele>1440.4000244141</ele>
        <time>2024-07-14T07:43:11.000Z</time>
      </trkpt>
      <trkpt lat="45.00918" lon="5.48507">
        <ele>1440</ele>
        <time>2024-07-14T07:43:12.000Z</time>
      </trkpt>
      <trkpt lat="45.00918" lon="5.4851">
        <ele>1440</ele>
        <time>2024-07-14T07:43:13.000Z</time>
      </trkpt>
      <trkpt lat="45.00918" lon="5.48514">
        <ele>1440</ele>
        <time>2024-07-14T07:43:14.000Z</time>
      </trkpt>
      <trkpt lat="45.00917" lon="5.48518">
        <ele>1439.8000488281</ele>
        <time>2024-07-14T07:43:15.000Z</time>
      </trkpt>
      <trkpt lat="45.00917" lon="5.48522">
        <ele>1440</ele>
        <time>2024-07-14T07:43:16.000Z</time>
      </trkpt>
      <trkpt lat="45.00917" lon="5.48525">
        <ele>1440</ele>
        <time>2024-07-14T07:43:17.000Z</time>
      </trkpt>
      <trkpt lat="45.00917" lon="5.48528">
        <ele>1440</ele>
        <time>2024-07-14T07:43:18.000Z</time>
      </trkpt>
      <trkpt lat="45.00917" lon="5.48532">
        <ele>1440.1999511719</ele>
        <time>2024-07-14T07:43:19.000Z</time>
      </trkpt>
      <trkpt lat="45.00917" lon="5.48535">
        <ele>1440.1999511719</ele>
        <time>2024-07-14T07:43:20.000Z</time>
      </trkpt>
      <trkpt lat="45.00917" lon="5.48538">
        <ele>1440.1999511719</ele>
        <time>2024-07-14T07:43:21.000Z</time>
      </trkpt>
      <trkpt lat="45.00916" lon="5.48541">
        <ele>1440.1999511719</ele>
        <time>2024-07-14T07:43:22.000Z</time>
      </trkpt>
      <trkpt lat="45.00916" lon="5.48544">
        <ele>1440.1999511719</ele>
        <time>2024-07-14T07:43:23.000Z</time>
      </trkpt>
      <trkpt lat="45.00916" lon="5.48547">
        <ele>1440</ele>
        <time>2024-07-14T07:43:24.000Z</time>
      </trkpt>
      <trkpt lat="45.00915" lon="5.48551">
        <ele>1439.5999755859</ele>
        <time>2024-07-14T07:43:25.000Z</time>
      </trkpt>
      <trkpt lat="45.00915" lon="5.48555">
        <ele>1439</ele>
        <time>2024-07-14T07:43:26.000Z</time>
      </trkpt>
      <trkpt lat="45.00914" lon="5.48558">
        <ele>1438.4000244141</ele>
        <time>2024-07-14T07:43:27.000Z</time>
      </trkpt>
      <trkpt lat="45.00913" lon="5.48562">
        <ele>1438.1999511719</ele>
        <time>2024-07-14T07:43:28.000Z</time>
      </trkpt>
      <trkpt lat="45.00913" lon="5.48565">
        <ele>1437.5999755859</ele>
        <time>2024-07-14T07:43:29.000Z</time>
      </trkpt>
      <trkpt lat="45.00912" lon="5.48568">
        <ele>1437</ele>
        <time>2024-07-14T07:43:30.000Z</time>
      </trkpt>
      <trkpt lat="45.00911" lon="5.48571">
        <ele>1436.4000244141</ele>
        <time>2024-07-14T07:43:31.000Z</time>
      </trkpt>
      <trkpt lat="45.00911" lon="5.48574">
        <ele>1435.5999755859</ele>
        <time>2024-07-14T07:43:32.000Z</time>
      </trkpt>
      <trkpt lat="45.0091" lon="5.48578">
        <ele>1434.8000488281</ele>
        <time>2024-07-14T07:43:33.000Z</time>
      </trkpt>
      <trkpt lat="45.0091" lon="5.48581">
        <ele>1434.1999511719</ele>
        <time>2024-07-14T07:43:34.000Z</time>
      </trkpt>
      <trkpt lat="45.00909" lon="5.48585">
        <ele>1433.1999511719</ele>
        <time>2024-07-14T07:43:35.000Z</time>
      </trkpt>
      <trkpt lat="45.00909" lon="5.48588">
        <ele>1433</ele>
        <time>2024-07-14T07:43:36.000Z</time>
      </trkpt>
      <trkpt lat="45.00909" lon="5.48593">
        <ele>1432.4000244141</ele>
        <time>2024-07-14T07:43:37.000Z</time>
      </trkpt>
      <trkpt lat="45.0091" lon="5.48597">
        <ele>1431.5999755859</ele>
        <time>2024-07-14T07:43:38.000Z</time>
      </trkpt>
      <trkpt lat="45.0091" lon="5.48602">
        <ele>1431.1999511719</ele>
        <time>2024-07-14T07:43:39.000Z</time>
      </trkpt>
      <trkpt lat="45.00911" lon="5.48607">
        <ele>1430.8000488281</ele>
        <time>2024-07-14T07:43:40.000Z</time>
      </trkpt>
      <trkpt lat="45.00911" lon="5.48611">
        <ele>1430.1999511719</ele>
        <time>2024-07-14T07:43:41.000Z</time>
      </trkpt>
      <trkpt lat="45.00912" lon="5.48615">
        <ele>1430</ele>
        <time>2024-07-14T07:43:42.000Z</time>
      </trkpt>
      <trkpt lat="45.00913" lon="5.48618">
        <ele>1429.5999755859</ele>
        <time>2024-07-14T07:43:43.000Z</time>
      </trkpt>
      <trkpt lat="45.00914" lon="5.48622">
        <ele>1429.4000244141</ele>
        <time>2024-07-14T07:43:44.000Z</time>
      </trkpt>
      <trkpt lat="45.00915" lon="5.48623">
        <ele>1429.1999511719</ele>
        <time>2024-07-14T07:43:45.000Z</time>
      </trkpt>
      <trkpt lat="45.00916" lon="5.48625">
        <ele>1428.5999755859</ele>
        <time>2024-07-14T07:43:46.000Z</time>
      </trkpt>
      <trkpt lat="45.00916" lon="5.48627">
        <ele>1428.1999511719</ele>
        <time>2024-07-14T07:43:47.000Z</time>
      </trkpt>
      <trkpt lat="45.00917" lon="5.48629">
        <ele>1428</ele>
        <time>2024-07-14T07:43:48.000Z</time>
      </trkpt>
      <trkpt lat="45.00919" lon="5.48631">
        <ele>1427.4000244141</ele>
        <time>2024-07-14T07:43:49.000Z</time>
      </trkpt>
      <trkpt lat="45.0092" lon="5.48633">
        <ele>1427</ele>
        <time>2024-07-14T07:43:50.000Z</time>
      </trkpt>
      <trkpt lat="45.00922" lon="5.48636">
        <ele>1426.8000488281</ele>
        <time>2024-07-14T07:43:51.000Z</time>
      </trkpt>
      <trkpt lat="45.00923" lon="5.4864">
        <ele>1426</ele>
        <time>2024-07-14T07:43:52.000Z</time>
      </trkpt>
      <trkpt lat="45.00925" lon="5.48644">
        <ele>1425.4000244141</ele>
        <time>2024-07-14T07:43:53.000Z</time>
      </trkpt>
      <trkpt lat="45.00926" lon="5.48648">
        <ele>1425</ele>
        <time>2024-07-14T07:43:54.000Z</time>
      </trkpt>
      <trkpt lat="45.00927" lon="5.48652">
        <ele>1424.5999755859</ele>
        <time>2024-07-14T07:43:55.000Z</time>
      </trkpt>
      <trkpt lat="45.00928" lon="5.48656">
        <ele>1424</ele>
        <time>2024-07-14T07:43:56.000Z</time>
      </trkpt>
      <trkpt lat="45.0093" lon="5.4866">
        <ele>1423.1999511719</ele>
        <time>2024-07-14T07:43:57.000Z</time>
      </trkpt>
      <trkpt lat="45.00931" lon="5.48663">
        <ele>1423.1999511719</ele>
        <time>2024-07-14T07:43:58.000Z</time>
      </trkpt>
      <trkpt lat="45.00932" lon="5.48667">
        <ele>1422.8000488281</ele>
        <time>2024-07-14T07:43:59.000Z</time>
      </trkpt>
      <trkpt lat="45.00932" lon="5.4867">
        <ele>1422.5999755859</ele>
        <time>2024-07-14T07:44:00.000Z</time>
      </trkpt>
      <trkpt lat="45.00933" lon="5.48673">
        <ele>1422.4000244141</ele>
        <time>2024-07-14T07:44:01.000Z</time>
      </trkpt>
      <trkpt lat="45.00934" lon="5.48676">
        <ele>1421.8000488281</ele>
        <time>2024-07-14T07:44:02.000Z</time>
      </trkpt>
      <trkpt lat="45.00934" lon="5.48679">
        <ele>1421.4000244141</ele>
        <time>2024-07-14T07:44:03.000Z</time>
      </trkpt>
      <trkpt lat="45.00936" lon="5.48682">
        <ele>1420.8000488281</ele>
        <time>2024-07-14T07:44:04.000Z</time>
      </trkpt>
      <trkpt lat="45.00936" lon="5.48685">
        <ele>1420.5999755859</ele>
        <time>2024-07-14T07:44:05.000Z</time>
      </trkpt>
      <trkpt lat="45.00937" lon="5.48687">
        <ele>1420.4000244141</ele>
        <time>2024-07-14T07:44:06.000Z</time>
      </trkpt>
      <trkpt lat="45.00938" lon="5.48689">
        <ele>1420</ele>
        <time>2024-07-14T07:44:07.000Z</time>
      </trkpt>
      <trkpt lat="45.00939" lon="5.48692">
        <ele>1419.5999755859</ele>
        <time>2024-07-14T07:44:08.000Z</time>
      </trkpt>
      <trkpt lat="45.0094" lon="5.48696">
        <ele>1419</ele>
        <time>2024-07-14T07:44:09.000Z</time>
      </trkpt>
      <trkpt lat="45.0094" lon="5.48699">
        <ele>1418.1999511719</ele>
        <time>2024-07-14T07:44:10.000Z</time>
      </trkpt>
      <trkpt lat="45.0094" lon="5.48702">
        <ele>1417.8000488281</ele>
        <time>2024-07-14T07:44:11.000Z</time>
      </trkpt>
      <trkpt lat="45.00941" lon="5.48705">
        <ele>1417.5999755859</ele>
        <time>2024-07-14T07:44:12.000Z</time>
      </trkpt>
      <trkpt lat="45.00942" lon="5.48708">
        <ele>1417.1999511719</ele>
        <time>2024-07-14T07:44:13.000Z</time>
      </trkpt>
      <trkpt lat="45.00942" lon="5.48712">
        <ele>1416.5999755859</ele>
        <time>2024-07-14T07:44:14.000Z</time>
      </trkpt>
      <trkpt lat="45.00943" lon="5.48716">
        <ele>1416</ele>
        <time>2024-07-14T07:44:15.000Z</time>
      </trkpt>
      <trkpt lat="45.00945" lon="5.4872">
        <ele>1416</ele>
        <time>2024-07-14T07:44:16.000Z</time>
      </trkpt>
      <trkpt lat="45.00947" lon="5.48724">
        <ele>1415.8000488281</ele>
        <time>2024-07-14T07:44:17.000Z</time>
      </trkpt>
      <trkpt lat="45.0095" lon="5.48728">
        <ele>1415.4000244141</ele>
        <time>2024-07-14T07:44:18.000Z</time>
      </trkpt>
      <trkpt lat="45.00952" lon="5.4873">
        <ele>1414.5999755859</ele>
        <time>2024-07-14T07:44:19.000Z</time>
      </trkpt>
      <trkpt lat="45.00955" lon="5.48732">
        <ele>1414</ele>
        <time>2024-07-14T07:44:20.000Z</time>
      </trkpt>
      <trkpt lat="45.00957" lon="5.48733">
        <ele>1413.5999755859</ele>
        <time>2024-07-14T07:44:21.000Z</time>
      </trkpt>
      <trkpt lat="45.0096" lon="5.48735">
        <ele>1413.4000244141</ele>
        <time>2024-07-14T07:44:22.000Z</time>
      </trkpt>
      <trkpt lat="45.00963" lon="5.48737">
        <ele>1413.1999511719</ele>
        <time>2024-07-14T07:44:23.000Z</time>
      </trkpt>
      <trkpt lat="45.00966" lon="5.48738">
        <ele>1413.1999511719</ele>
        <time>2024-07-14T07:44:24.000Z</time>
      </trkpt>
      <trkpt lat="45.00968" lon="5.4874">
        <ele>1413</ele>
        <time>2024-07-14T07:44:25.000Z</time>
      </trkpt>
      <trkpt lat="45.00971" lon="5.48742">
        <ele>1412.8000488281</ele>
        <time>2024-07-14T07:44:26.000Z</time>
      </trkpt>
      <trkpt lat="45.00973" lon="5.48744">
        <ele>1412.8000488281</ele>
        <time>2024-07-14T07:44:27.000Z</time>
      </trkpt>
      <trkpt lat="45.00975" lon="5.48747">
        <ele>1413</ele>
        <time>2024-07-14T07:44:28.000Z</time>
      </trkpt>
      <trkpt lat="45.00977" lon="5.48749">
        <ele>1412.8000488281</ele>
        <time>2024-07-14T07:44:29.000Z</time>
      </trkpt>
      <trkpt lat="45.0098" lon="5.48752">
        <ele>1412.8000488281</ele>
        <time>2024-07-14T07:44:30.000Z</time>
      </trkpt>
      <trkpt lat="45.00982" lon="5.48755">
        <ele>1412.8000488281</ele>
        <time>2024-07-14T07:44:31.000Z</time>
      </trkpt>
      <trkpt lat="45.00984" lon="5.48758">
        <ele>1412.8000488281</ele>
        <time>2024-07-14T07:44:32.000Z</time>
      </trkpt>
      <trkpt lat="45.00986" lon="5.48761">
        <ele>1412.5999755859</ele>
        <time>2024-07-14T07:44:33.000Z</time>
      </trkpt>
      <trkpt lat="45.00987" lon="5.48763">
        <ele>1412.5999755859</ele>
        <time>2024-07-14T07:44:34.000Z</time>
      </trkpt>
      <trkpt lat="45.00988" lon="5.48766">
        <ele>1412.5999755859</ele>
        <time>2024-07-14T07:44:35.000Z</time>
      </trkpt>
      <trkpt lat="45.00988" lon="5.4877">
        <ele>1412.5999755859</ele>
        <time>2024-07-14T07:44:36.000Z</time>
      </trkpt>
      <trkpt lat="45.00988" lon="5.48774">
        <ele>1412.5999755859</ele>
        <time>2024-07-14T07:44:37.000Z</time>
      </trkpt>
      <trkpt lat="45.00986" lon="5.48773">
        <ele>1412.4000244141</ele>
        <time>2024-07-14T07:44:38.000Z</time>
      </trkpt>
      <trkpt lat="45.00983" lon="5.48773">
        <ele>1412.4000244141</ele>
        <time>2024-07-14T07:44:39.000Z</time>
      </trkpt>
      <trkpt lat="45.00979" lon="5.48773">
        <ele>1412.4000244141</ele>
        <time>2024-07-14T07:44:40.000Z</time>
      </trkpt>
      <trkpt lat="45.00976" lon="5.48772">
        <ele>1412.4000244141</ele>
        <time>2024-07-14T07:44:41.000Z</time>
      </trkpt>
      <trkpt lat="45.00972" lon="5.48772">
        <ele>1412.1999511719</ele>
        <time>2024-07-14T07:44:42.000Z</time>
      </trkpt>
      <trkpt lat="45.00969" lon="5.48772">
        <ele>1412</ele>
        <time>2024-07-14T07:44:43.000Z</time>
      </trkpt>
      <trkpt lat="45.00966" lon="5.48771">
        <ele>1411.8000488281</ele>
        <time>2024-07-14T07:44:44.000Z</time>
      </trkpt>
      <trkpt lat="45.00963" lon="5.4877">
        <ele>1411.4000244141</ele>
        <time>2024-07-14T07:44:45.000Z</time>
      </trkpt>
      <trkpt lat="45.0096" lon="5.48768">
        <ele>1411.1999511719</ele>
        <time>2024-07-14T07:44:46.000Z</time>
      </trkpt>
      <trkpt lat="45.00958" lon="5.48768">
        <ele>1411</ele>
        <time>2024-07-14T07:44:47.000Z</time>
      </trkpt>
      <trkpt lat="45.00955" lon="5.48767">
        <ele>1410.8000488281</ele>
        <time>2024-07-14T07:44:48.000Z</time>
      </trkpt>
      <trkpt lat="45.00953" lon="5.48766">
        <ele>1410.8000488281</ele>
        <time>2024-07-14T07:44:49.000Z</time>
      </trkpt>
      <trkpt lat="45.00951" lon="5.48766">
        <ele>1410.8000488281</ele>
        <time>2024-07-14T07:44:50.000Z</time>
      </trkpt>
      <trkpt lat="45.00948" lon="5.48764">
        <ele>1410.5999755859</ele>
        <time>2024-07-14T07:44:51.000Z</time>
      </trkpt>
      <trkpt lat="45.00946" lon="5.48764">
        <ele>1410.5999755859</ele>
        <time>2024-07-14T07:44:52.000Z</time>
      </trkpt>
      <trkpt lat="45.00944" lon="5.48763">
        <ele>1410.8000488281</ele>
        <time>2024-07-14T07:44:53.000Z</time>
      </trkpt>
      <trkpt lat="45.00942" lon="5.48763">
        <ele>1410.8000488281</ele>
        <time>2024-07-14T07:44:54.000Z</time>
      </trkpt>
      <trkpt lat="45.0094" lon="5.48762">
        <ele>1411</ele>
        <time>2024-07-14T07:44:55.000Z</time>
      </trkpt>
      <trkpt lat="45.00938" lon="5.48761">
        <ele>1411.1999511719</ele>
        <time>2024-07-14T07:44:56.000Z</time>
      </trkpt>
      <trkpt lat="45.00937" lon="5.4876">
        <ele>1411.4000244141</ele>
        <time>2024-07-14T07:44:57.000Z</time>
      </trkpt>
      <trkpt lat="45.00934" lon="5.48759">
        <ele>1411.5999755859</ele>
        <time>2024-07-14T07:44:58.000Z</time>
      </trkpt>
      <trkpt lat="45.00932" lon="5.48759">
        <ele>1412</ele>
        <time>2024-07-14T07:44:59.000Z</time>
      </trkpt>
      <trkpt lat="45.00931" lon="5.48758">
        <ele>1412.1999511719</ele>
        <time>2024-07-14T07:45:00.000Z</time>
      </trkpt>
      <trkpt lat="45.00929" lon="5.48758">
        <ele>1412.4000244141</ele>
        <time>2024-07-14T07:45:01.000Z</time>
      </trkpt>
      <trkpt lat="45.00927" lon="5.48757">
        <ele>1412.5999755859</ele>
        <time>2024-07-14T07:45:02.000Z</time>
      </trkpt>
      <trkpt lat="45.00926" lon="5.48756">
        <ele>1413</ele>
        <time>2024-07-14T07:45:03.000Z</time>
      </trkpt>
      <trkpt lat="45.00924" lon="5.48756">
        <ele>1413.4000244141</ele>
        <time>2024-07-14T07:45:04.000Z</time>
      </trkpt>
      <trkpt lat="45.00921" lon="5.48755">
        <ele>1413.5999755859</ele>
        <time>2024-07-14T07:45:05.000Z</time>
      </trkpt>
      <trkpt lat="45.0092" lon="5.48755">
        <ele>1413.8000488281</ele>
        <time>2024-07-14T07:45:06.000Z</time>
      </trkpt>
      <trkpt lat="45.00918" lon="5.48755">
        <ele>1414</ele>
        <time>2024-07-14T07:45:07.000Z</time>
      </trkpt>
      <trkpt lat="45.00916" lon="5.48755">
        <ele>1414.1999511719</ele>
        <time>2024-07-14T07:45:08.000Z</time>
      </trkpt>
      <trkpt lat="45.00914" lon="5.48755">
        <ele>1414.1999511719</ele>
        <time>2024-07-14T07:45:09.000Z</time>
      </trkpt>
      <trkpt lat="45.00911" lon="5.48756">
        <ele>1414.4000244141</ele>
        <time>2024-07-14T07:45:10.000Z</time>
      </trkpt>
      <trkpt lat="45.00909" lon="5.48757">
        <ele>1414.5999755859</ele>
        <time>2024-07-14T07:45:11.000Z</time>
      </trkpt>
      <trkpt lat="45.00907" lon="5.48758">
        <ele>1414.5999755859</ele>
        <time>2024-07-14T07:45:12.000Z</time>
      </trkpt>
      <trkpt lat="45.00905" lon="5.48759">
        <ele>1414.8000488281</ele>
        <time>2024-07-14T07:45:13.000Z</time>
      </trkpt>
      <trkpt lat="45.00903" lon="5.48761">
        <ele>1415</ele>
        <time>2024-07-14T07:45:14.000Z</time>
      </trkpt>
      <trkpt lat="45.00901" lon="5.48762">
        <ele>1415</ele>
        <time>2024-07-14T07:45:15.000Z</time>
      </trkpt>
      <trkpt lat="45.00898" lon="5.48764">
        <ele>1415</ele>
        <time>2024-07-14T07:45:16.000Z</time>
      </trkpt>
      <trkpt lat="45.00896" lon="5.48764">
        <ele>1415.1999511719</ele>
        <time>2024-07-14T07:45:17.000Z</time>
      </trkpt>
      <trkpt lat="45.00893" lon="5.48766">
        <ele>1415.4000244141</ele>
        <time>2024-07-14T07:45:18.000Z</time>
      </trkpt>
      <trkpt lat="45.00891" lon="5.48767">
        <ele>1415.4000244141</ele>
        <time>2024-07-14T07:45:19.000Z</time>
      </trkpt>
      <trkpt lat="45.00889" lon="5.48768">
        <ele>1415.4000244141</ele>
        <time>2024-07-14T07:45:20.000Z</time>
      </trkpt>
      <trkpt lat="45.00887" lon="5.4877">
        <ele>1415.4000244141</ele>
        <time>2024-07-14T07:45:21.000Z</time>
      </trkpt>
      <trkpt lat="45.00885" lon="5.48771">
        <ele>1415.1999511719</ele>
        <time>2024-07-14T07:45:22.000Z</time>
      </trkpt>
      <trkpt lat="45.00883" lon="5.48773">
        <ele>1415.1999511719</ele>
        <time>2024-07-14T07:45:23.000Z</time>
      </trkpt>
      <trkpt lat="45.00881" lon="5.48774">
        <ele>1415.1999511719</ele>
        <time>2024-07-14T07:45:24.000Z</time>
      </trkpt>
      <trkpt lat="45.00879" lon="5.48776">
        <ele>1415.1999511719</ele>
        <time>2024-07-14T07:45:25.000Z</time>
      </trkpt>
      <trkpt lat="45.00876" lon="5.48777">
        <ele>1415.1999511719</ele>
        <time>2024-07-14T07:45:26.000Z</time>
      </trkpt>
      <trkpt lat="45.00874" lon="5.48779">
        <ele>1415.1999511719</ele>
        <time>2024-07-14T07:45:27.000Z</time>
      </trkpt>
      <trkpt lat="45.00871" lon="5.4878">
        <ele>1415.1999511719</ele>
        <time>2024-07-14T07:45:28.000Z</time>
      </trkpt>
      <trkpt lat="45.00869" lon="5.48782">
        <ele>1415.1999511719</ele>
        <time>2024-07-14T07:45:29.000Z</time>
      </trkpt>
      <trkpt lat="45.00866" lon="5.48783">
        <ele>1415.1999511719</ele>
        <time>2024-07-14T07:45:30.000Z</time>
      </trkpt>
      <trkpt lat="45.00864" lon="5.48785">
        <ele>1415</ele>
        <time>2024-07-14T07:45:31.000Z</time>
      </trkpt>
      <trkpt lat="45.00861" lon="5.48787">
        <ele>1415</ele>
        <time>2024-07-14T07:45:32.000Z</time>
      </trkpt>
      <trkpt lat="45.00859" lon="5.48788">
        <ele>1415</ele>
        <time>2024-07-14T07:45:33.000Z</time>
      </trkpt>
      <trkpt lat="45.00856" lon="5.4879">
        <ele>1414.8000488281</ele>
        <time>2024-07-14T07:45:34.000Z</time>
      </trkpt>
      <trkpt lat="45.00854" lon="5.48791">
        <ele>1414.8000488281</ele>
        <time>2024-07-14T07:45:35.000Z</time>
      </trkpt>
      <trkpt lat="45.00851" lon="5.48792">
        <ele>1414.5999755859</ele>
        <time>2024-07-14T07:45:36.000Z</time>
      </trkpt>
      <trkpt lat="45.00849" lon="5.48793">
        <ele>1414.4000244141</ele>
        <time>2024-07-14T07:45:37.000Z</time>
      </trkpt>
      <trkpt lat="45.00846" lon="5.48794">
        <ele>1414.1999511719</ele>
        <time>2024-07-14T07:45:38.000Z</time>
      </trkpt>
      <trkpt lat="45.00844" lon="5.48794">
        <ele>1414.1999511719</ele>
        <time>2024-07-14T07:45:39.000Z</time>
      </trkpt>
      <trkpt lat="45.00841" lon="5.48796">
        <ele>1414.1999511719</ele>
        <time>2024-07-14T07:45:40.000Z</time>
      </trkpt>
      <trkpt lat="45.00839" lon="5.48797">
        <ele>1414</ele>
        <time>2024-07-14T07:45:41.000Z</time>
      </trkpt>
      <trkpt lat="45.00836" lon="5.48799">
        <ele>1414</ele>
        <time>2024-07-14T07:45:42.000Z</time>
      </trkpt>
      <trkpt lat="45.00833" lon="5.488">
        <ele>1414</ele>
        <time>2024-07-14T07:45:43.000Z</time>
      </trkpt>
      <trkpt lat="45.00831" lon="5.48801">
        <ele>1413.8000488281</ele>
        <time>2024-07-14T07:45:44.000Z</time>
      </trkpt>
      <trkpt lat="45.00828" lon="5.48803">
        <ele>1413.5999755859</ele>
        <time>2024-07-14T07:45:45.000Z</time>
      </trkpt>
      <trkpt lat="45.00825" lon="5.48803">
        <ele>1413.5999755859</ele>
        <time>2024-07-14T07:45:46.000Z</time>
      </trkpt>
      <trkpt lat="45.00822" lon="5.48804">
        <ele>1413.4000244141</ele>
        <time>2024-07-14T07:45:47.000Z</time>
      </trkpt>
      <trkpt lat="45.00819" lon="5.48805">
        <ele>1413.4000244141</ele>
        <time>2024-07-14T07:45:48.000Z</time>
      </trkpt>
      <trkpt lat="45.00816" lon="5.48806">
        <ele>1413.4000244141</ele>
        <time>2024-07-14T07:45:49.000Z</time>
      </trkpt>
      <trkpt lat="45.00813" lon="5.48806">
        <ele>1413.1999511719</ele>
        <time>2024-07-14T07:45:50.000Z</time>
      </trkpt>
      <trkpt lat="45.0081" lon="5.48807">
        <ele>1413.1999511719</ele>
        <time>2024-07-14T07:45:51.000Z</time>
      </trkpt>
      <trkpt lat="45.00807" lon="5.48807">
        <ele>1413.1999511719</ele>
        <time>2024-07-14T07:45:52.000Z</time>
      </trkpt>
      <trkpt lat="45.00804" lon="5.48807">
        <ele>1413.1999511719</ele>
        <time>2024-07-14T07:45:53.000Z</time>
      </trkpt>
      <trkpt lat="45.00802" lon="5.48808">
        <ele>1413</ele>
        <time>2024-07-14T07:45:54.000Z</time>
      </trkpt>
      <trkpt lat="45.008" lon="5.48809">
        <ele>1413</ele>
        <time>2024-07-14T07:45:55.000Z</time>
      </trkpt>
      <trkpt lat="45.00797" lon="5.4881">
        <ele>1412.8000488281</ele>
        <time>2024-07-14T07:45:56.000Z</time>
      </trkpt>
      <trkpt lat="45.00795" lon="5.48811">
        <ele>1412.8000488281</ele>
        <time>2024-07-14T07:45:57.000Z</time>
      </trkpt>
      <trkpt lat="45.00792" lon="5.48813">
        <ele>1412.8000488281</ele>
        <time>2024-07-14T07:45:58.000Z</time>
      </trkpt>
      <trkpt lat="45.0079" lon="5.48814">
        <ele>1412.8000488281</ele>
        <time>2024-07-14T07:45:59.000Z</time>
      </trkpt>
      <trkpt lat="45.00787" lon="5.48816">
        <ele>1412.5999755859</ele>
        <time>2024-07-14T07:46:00.000Z</time>
      </trkpt>
      <trkpt lat="45.00785" lon="5.48817">
        <ele>1412.4000244141</ele>
        <time>2024-07-14T07:46:01.000Z</time>
      </trkpt>
      <trkpt lat="45.00782" lon="5.48818">
        <ele>1412.1999511719</ele>
        <time>2024-07-14T07:46:02.000Z</time>
      </trkpt>
      <trkpt lat="45.00779" lon="5.48819">
        <ele>1412</ele>
        <time>2024-07-14T07:46:03.000Z</time>
      </trkpt>
      <trkpt lat="45.00776" lon="5.48819">
        <ele>1411.8000488281</ele>
        <time>2024-07-14T07:46:04.000Z</time>
      </trkpt>
      <trkpt lat="45.00773" lon="5.4882">
        <ele>1411.5999755859</ele>
        <time>2024-07-14T07:46:05.000Z</time>
      </trkpt>
      <trkpt lat="45.0077" lon="5.4882">
        <ele>1411.1999511719</ele>
        <time>2024-07-14T07:46:06.000Z</time>
      </trkpt>
      <trkpt lat="45.00768" lon="5.48821">
        <ele>1411</ele>
        <time>2024-07-14T07:46:07.000Z</time>
      </trkpt>
      <trkpt lat="45.00765" lon="5.48822">
        <ele>1410.8000488281</ele>
        <time>2024-07-14T07:46:08.000Z</time>
      </trkpt>
      <trkpt lat="45.00762" lon="5.48822">
        <ele>1410.8000488281</ele>
        <time>2024-07-14T07:46:09.000Z</time>
      </trkpt>
      <trkpt lat="45.0076" lon="5.48823">
        <ele>1410.8000488281</ele>
        <time>2024-07-14T07:46:10.000Z</time>
      </trkpt>
      <trkpt lat="45.00758" lon="5.48825">
        <ele>1410.5999755859</ele>
        <time>2024-07-14T07:46:11.000Z</time>
      </trkpt>
      <trkpt lat="45.00756" lon="5.48827">
        <ele>1410.5999755859</ele>
        <time>2024-07-14T07:46:12.000Z</time>
      </trkpt>
      <trkpt lat="45.00753" lon="5.48829">
        <ele>1410.4000244141</ele>
        <time>2024-07-14T07:46:13.000Z</time>
      </trkpt>
      <trkpt lat="45.00751" lon="5.48831">
        <ele>1410.4000244141</ele>
        <time>2024-07-14T07:46:14.000Z</time>
      </trkpt>
      <trkpt lat="45.00748" lon="5.48833">
        <ele>1410</ele>
        <time>2024-07-14T07:46:15.000Z</time>
      </trkpt>
      <trkpt lat="45.00746" lon="5.48835">
        <ele>1409.5999755859</ele>
        <time>2024-07-14T07:46:16.000Z</time>
      </trkpt>
      <trkpt lat="45.00743" lon="5.48837">
        <ele>1409.4000244141</ele>
        <time>2024-07-14T07:46:17.000Z</time>
      </trkpt>
      <trkpt lat="45.0074" lon="5.48839">
        <ele>1409.1999511719</ele>
        <time>2024-07-14T07:46:18.000Z</time>
      </trkpt>
      <trkpt lat="45.00737" lon="5.4884">
        <ele>1408.8000488281</ele>
        <time>2024-07-14T07:46:19.000Z</time>
      </trkpt>
      <trkpt lat="45.00734" lon="5.48841">
        <ele>1408.4000244141</ele>
        <time>2024-07-14T07:46:20.000Z</time>
      </trkpt>
      <trkpt lat="45.0073" lon="5.48841">
        <ele>1408</ele>
        <time>2024-07-14T07:46:21.000Z</time>
      </trkpt>
      <trkpt lat="45.00727" lon="5.48841">
        <ele>1407.5999755859</ele>
        <time>2024-07-14T07:46:22.000Z</time>
      </trkpt>
      <trkpt lat="45.00724" lon="5.4884">
        <ele>1407.4000244141</ele>
        <time>2024-07-14T07:46:23.000Z</time>
      </trkpt>
      <trkpt lat="45.00721" lon="5.48838">
        <ele>1406.8000488281</ele>
        <time>2024-07-14T07:46:24.000Z</time>
      </trkpt>
      <trkpt lat="45.00718" lon="5.48836">
        <ele>1406.4000244141</ele>
        <time>2024-07-14T07:46:25.000Z</time>
      </trkpt>
      <trkpt lat="45.00716" lon="5.48832">
        <ele>1406.4000244141</ele>
        <time>2024-07-14T07:46:26.000Z</time>
      </trkpt>
      <trkpt lat="45.00714" lon="5.48829">
        <ele>1406</ele>
        <time>2024-07-14T07:46:27.000Z</time>
      </trkpt>
      <trkpt lat="45.00713" lon="5.48825">
        <ele>1406</ele>
        <time>2024-07-14T07:46:28.000Z</time>
      </trkpt>
      <trkpt lat="45.00712" lon="5.4882">
        <ele>1405.8000488281</ele>
        <time>2024-07-14T07:46:29.000Z</time>
      </trkpt>
      <trkpt lat="45.00711" lon="5.48816">
        <ele>1405.5999755859</ele>
        <time>2024-07-14T07:46:30.000Z</time>
      </trkpt>
      <trkpt lat="45.00711" lon="5.48811">
        <ele>1405.5999755859</ele>
        <time>2024-07-14T07:46:31.000Z</time>
      </trkpt>
      <trkpt lat="45.00711" lon="5.48806">
        <ele>1405.4000244141</ele>
        <time>2024-07-14T07:46:32.000Z</time>
      </trkpt>
      <trkpt lat="45.0071" lon="5.48802">
        <ele>1405.1999511719</ele>
        <time>2024-07-14T07:46:33.000Z</time>
      </trkpt>
      <trkpt lat="45.0071" lon="5.48798">
        <ele>1405.1999511719</ele>
        <time>2024-07-14T07:46:34.000Z</time>
      </trkpt>
      <trkpt lat="45.0071" lon="5.48795">
        <ele>1405.1999511719</ele>
        <time>2024-07-14T07:46:35.000Z</time>
      </trkpt>
      <trkpt lat="45.00711" lon="5.48791">
        <ele>1405.1999511719</ele>
        <time>2024-07-14T07:46:36.000Z</time>
      </trkpt>
      <trkpt lat="45.00711" lon="5.48788">
        <ele>1405</ele>
        <time>2024-07-14T07:46:37.000Z</time>
      </trkpt>
      <trkpt lat="45.0071" lon="5.48784">
        <ele>1405</ele>
        <time>2024-07-14T07:46:38.000Z</time>
      </trkpt>
      <trkpt lat="45.0071" lon="5.48781">
        <ele>1405.1999511719</ele>
        <time>2024-07-14T07:46:39.000Z</time>
      </trkpt>
      <trkpt lat="45.0071" lon="5.48778">
        <ele>1405.1999511719</ele>
        <time>2024-07-14T07:46:40.000Z</time>
      </trkpt>
      <trkpt lat="45.00709" lon="5.48774">
        <ele>1405.4000244141</ele>
        <time>2024-07-14T07:46:41.000Z</time>
      </trkpt>
      <trkpt lat="45.00709" lon="5.48772">
        <ele>1405.4000244141</ele>
        <time>2024-07-14T07:46:42.000Z</time>
      </trkpt>
      <trkpt lat="45.00707" lon="5.48768">
        <ele>1405.8000488281</ele>
        <time>2024-07-14T07:46:43.000Z</time>
      </trkpt>
      <trkpt lat="45.00707" lon="5.48765">
        <ele>1405.8000488281</ele>
        <time>2024-07-14T07:46:44.000Z</time>
      </trkpt>
      <trkpt lat="45.00706" lon="5.48762">
        <ele>1406.1999511719</ele>
        <time>2024-07-14T07:46:45.000Z</time>
      </trkpt>
      <trkpt lat="45.00705" lon="5.48758">
        <ele>1406.5999755859</ele>
        <time>2024-07-14T07:46:46.000Z</time>
      </trkpt>
      <trkpt lat="45.00704" lon="5.48756">
        <ele>1406.5999755859</ele>
        <time>2024-07-14T07:46:47.000Z</time>
      </trkpt>
      <trkpt lat="45.00703" lon="5.48753">
        <ele>1406.8000488281</ele>
        <time>2024-07-14T07:46:48.000Z</time>
      </trkpt>
      <trkpt lat="45.00703" lon="5.4875">
        <ele>1407</ele>
        <time>2024-07-14T07:46:49.000Z</time>
      </trkpt>
      <trkpt lat="45.00702" lon="5.48748">
        <ele>1407.1999511719</ele>
        <time>2024-07-14T07:46:50.000Z</time>
      </trkpt>
      <trkpt lat="45.007" lon="5.48744">
        <ele>1407.5999755859</ele>
        <time>2024-07-14T07:46:51.000Z</time>
      </trkpt>
      <trkpt lat="45.007" lon="5.48742">
        <ele>1408</ele>
        <time>2024-07-14T07:46:52.000Z</time>
      </trkpt>
      <trkpt lat="45.00699" lon="5.48739">
        <ele>1408</ele>
        <time>2024-07-14T07:46:53.000Z</time>
      </trkpt>
      <trkpt lat="45.00697" lon="5.48735">
        <ele>1408.1999511719</ele>
        <time>2024-07-14T07:46:54.000Z</time>
      </trkpt>
      <trkpt lat="45.00696" lon="5.48732">
        <ele>1408.5999755859</ele>
        <time>2024-07-14T07:46:55.000Z</time>
      </trkpt>
      <trkpt lat="45.00695" lon="5.48728">
        <ele>1408.8000488281</ele>
        <time>2024-07-14T07:46:56.000Z</time>
      </trkpt>
      <trkpt lat="45.00694" lon="5.48725">
        <ele>1408.8000488281</ele>
        <time>2024-07-14T07:46:57.000Z</time>
      </trkpt>
      <trkpt lat="45.00693" lon="5.48723">
        <ele>1409</ele>
        <time>2024-07-14T07:46:58.000Z</time>
      </trkpt>
      <trkpt lat="45.00692" lon="5.48719">
        <ele>1409.1999511719</ele>
        <time>2024-07-14T07:46:59.000Z</time>
      </trkpt>
      <trkpt lat="45.00691" lon="5.48716">
        <ele>1409.4000244141</ele>
        <time>2024-07-14T07:47:00.000Z</time>
      </trkpt>
      <trkpt lat="45.0069" lon="5.48713">
        <ele>1409.4000244141</ele>
        <time>2024-07-14T07:47:01.000Z</time>
      </trkpt>
      <trkpt lat="45.00689" lon="5.48709">
        <ele>1409.4000244141</ele>
        <time>2024-07-14T07:47:02.000Z</time>
      </trkpt>
      <trkpt lat="45.00688" lon="5.48706">
        <ele>1409.4000244141</ele>
        <time>2024-07-14T07:47:03.000Z</time>
      </trkpt>
      <trkpt lat="45.00687" lon="5.48702">
        <ele>1409.1999511719</ele>
        <time>2024-07-14T07:47:04.000Z</time>
      </trkpt>
      <trkpt lat="45.00685" lon="5.48698">
        <ele>1409</ele>
        <time>2024-07-14T07:47:05.000Z</time>
      </trkpt>
      <trkpt lat="45.00685" lon="5.48695">
        <ele>1408.5999755859</ele>
        <time>2024-07-14T07:47:06.000Z</time>
      </trkpt>
      <trkpt lat="45.00683" lon="5.48691">
        <ele>1408.5999755859</ele>
        <time>2024-07-14T07:47:07.000Z</time>
      </trkpt>
      <trkpt lat="45.00682" lon="5.48689">
        <ele>1408.4000244141</ele>
        <time>2024-07-14T07:47:08.000Z</time>
      </trkpt>
      <trkpt lat="45.0068" lon="5.48685">
        <ele>1408.4000244141</ele>
        <time>2024-07-14T07:47:09.000Z</time>
      </trkpt>
      <trkpt lat="45.00679" lon="5.48682">
        <ele>1408.1999511719</ele>
        <time>2024-07-14T07:47:10.000Z</time>
      </trkpt>
      <trkpt lat="45.00677" lon="5.48679">
        <ele>1408.1999511719</ele>
        <time>2024-07-14T07:47:11.000Z</time>
      </trkpt>
      <trkpt lat="45.00675" lon="5.48677">
        <ele>1408</ele>
        <time>2024-07-14T07:47:12.000Z</time>
      </trkpt>
      <trkpt lat="45.00674" lon="5.48675">
        <ele>1408</ele>
        <time>2024-07-14T07:47:13.000Z</time>
      </trkpt>
      <trkpt lat="45.00672" lon="5.48672">
        <ele>1408</ele>
        <time>2024-07-14T07:47:14.000Z</time>
      </trkpt>
      <trkpt lat="45.0067" lon="5.4867">
        <ele>1408</ele>
        <time>2024-07-14T07:47:15.000Z</time>
      </trkpt>
      <trkpt lat="45.00668" lon="5.48668">
        <ele>1408</ele>
        <time>2024-07-14T07:47:16.000Z</time>
      </trkpt>
      <trkpt lat="45.00666" lon="5.48666">
        <ele>1408</ele>
        <time>2024-07-14T07:47:17.000Z</time>
      </trkpt>
      <trkpt lat="45.00665" lon="5.48664">
        <ele>1408.1999511719</ele>
        <time>2024-07-14T07:47:18.000Z</time>
      </trkpt>
      <trkpt lat="45.00663" lon="5.48663">
        <ele>1408.4000244141</ele>
        <time>2024-07-14T07:47:19.000Z</time>
      </trkpt>
      <trkpt lat="45.00662" lon="5.48662">
        <ele>1408.8000488281</ele>
        <time>2024-07-14T07:47:20.000Z</time>
      </trkpt>
      <trkpt lat="45.00661" lon="5.48661">
        <ele>1408.8000488281</ele>
        <time>2024-07-14T07:47:21.000Z</time>
      </trkpt>
      <trkpt lat="45.00659" lon="5.48659">
        <ele>1409</ele>
        <time>2024-07-14T07:47:22.000Z</time>
      </trkpt>
      <trkpt lat="45.00658" lon="5.48657">
        <ele>1409.1999511719</ele>
        <time>2024-07-14T07:47:23.000Z</time>
      </trkpt>
      <trkpt lat="45.00657" lon="5.48656">
        <ele>1409.5999755859</ele>
        <time>2024-07-14T07:47:24.000Z</time>
      </trkpt>
      <trkpt lat="45.00656" lon="5.48654">
        <ele>1409.8000488281</ele>
        <time>2024-07-14T07:47:25.000Z</time>
      </trkpt>
      <trkpt lat="45.00655" lon="5.48652">
        <ele>1410</ele>
        <time>2024-07-14T07:47:26.000Z</time>
      </trkpt>
      <trkpt lat="45.00654" lon="5.4865">
        <ele>1410.4000244141</ele>
        <time>2024-07-14T07:47:27.000Z</time>
      </trkpt>
      <trkpt lat="45.00653" lon="5.48648">
        <ele>1410.5999755859</ele>
        <time>2024-07-14T07:47:28.000Z</time>
      </trkpt>
      <trkpt lat="45.00651" lon="5.48646">
        <ele>1411</ele>
        <time>2024-07-14T07:47:29.000Z</time>
      </trkpt>
      <trkpt lat="45.0065" lon="5.48644">
        <ele>1411.1999511719</ele>
        <time>2024-07-14T07:47:30.000Z</time>
      </trkpt>
      <trkpt lat="45.00649" lon="5.48643">
        <ele>1411.4000244141</ele>
        <time>2024-07-14T07:47:31.000Z</time>
      </trkpt>
      <trkpt lat="45.00647" lon="5.48642">
        <ele>1411.5999755859</ele>
        <time>2024-07-14T07:47:32.000Z</time>
      </trkpt>
      <trkpt lat="45.00646" lon="5.4864">
        <ele>1411.8000488281</ele>
        <time>2024-07-14T07:47:33.000Z</time>
      </trkpt>
      <trkpt lat="45.00644" lon="5.48639">
        <ele>1412.1999511719</ele>
        <time>2024-07-14T07:47:34.000Z</time>
      </trkpt>
      <trkpt lat="45.00643" lon="5.48637">
        <ele>1412.4000244141</ele>
        <time>2024-07-14T07:47:35.000Z</time>
      </trkpt>
      <trkpt lat="45.00642" lon="5.48635">
        <ele>1412.4000244141</ele>
        <time>2024-07-14T07:47:36.000Z</time>
      </trkpt>
      <trkpt lat="45.0064" lon="5.48634">
        <ele>1412.5999755859</ele>
        <time>2024-07-14T07:47:37.000Z</time>
      </trkpt>
      <trkpt lat="45.00639" lon="5.48632">
        <ele>1412.8000488281</ele>
        <time>2024-07-14T07:47:38.000Z</time>
      </trkpt>
      <trkpt lat="45.00637" lon="5.4863">
        <ele>1413.1999511719</ele>
        <time>2024-07-14T07:47:39.000Z</time>
      </trkpt>
      <trkpt lat="45.00636" lon="5.48628">
        <ele>1413.4000244141</ele>
        <time>2024-07-14T07:47:40.000Z</time>
      </trkpt>
      <trkpt lat="45.00634" lon="5.48626">
        <ele>1413.5999755859</ele>
        <time>2024-07-14T07:47:41.000Z</time>
      </trkpt>
      <trkpt lat="45.00632" lon="5.48624">
        <ele>1413.8000488281</ele>
        <time>2024-07-14T07:47:42.000Z</time>
      </trkpt>
      <trkpt lat="45.00631" lon="5.48621">
        <ele>1414</ele>
        <time>2024-07-14T07:47:43.000Z</time>
      </trkpt>
      <trkpt lat="45.00629" lon="5.48619">
        <ele>1414.1999511719</ele>
        <time>2024-07-14T07:47:44.000Z</time>
      </trkpt>
      <trkpt lat="45.00628" lon="5.48617">
        <ele>1414.1999511719</ele>
        <time>2024-07-14T07:47:45.000Z</time>
      </trkpt>
      <trkpt lat="45.00626" lon="5.48615">
        <ele>1414.1999511719</ele>
        <time>2024-07-14T07:47:46.000Z</time>
      </trkpt>
      <trkpt lat="45.00625" lon="5.48613">
        <ele>1414.4000244141</ele>
        <time>2024-07-14T07:47:47.000Z</time>
      </trkpt>
      <trkpt lat="45.00624" lon="5.48611">
        <ele>1414.4000244141</ele>
        <time>2024-07-14T07:47:48.000Z</time>
      </trkpt>
      <trkpt lat="45.00622" lon="5.48609">
        <ele>1414.5999755859</ele>
        <time>2024-07-14T07:47:49.000Z</time>
      </trkpt>
      <trkpt lat="45.00621" lon="5.48607">
        <ele>1414.8000488281</ele>
        <time>2024-07-14T07:47:50.000Z</time>
      </trkpt>
      <trkpt lat="45.0062" lon="5.48607">
        <ele>1414.8000488281</ele>
        <time>2024-07-14T07:47:51.000Z</time>
      </trkpt>
      <trkpt lat="45.00618" lon="5.48605">
        <ele>1415</ele>
        <time>2024-07-14T07:47:52.000Z</time>
      </trkpt>
      <trkpt lat="45.00616" lon="5.48604">
        <ele>1415.1999511719</ele>
        <time>2024-07-14T07:47:53.000Z</time>
      </trkpt>
      <trkpt lat="45.00615" lon="5.48602">
        <ele>1415.4000244141</ele>
        <time>2024-07-14T07:47:54.000Z</time>
      </trkpt>
      <trkpt lat="45.00613" lon="5.486">
        <ele>1415.5999755859</ele>
        <time>2024-07-14T07:47:55.000Z</time>
      </trkpt>
      <trkpt lat="45.00612" lon="5.48598">
        <ele>1415.8000488281</ele>
        <time>2024-07-14T07:47:56.000Z</time>
      </trkpt>
      <trkpt lat="45.0061" lon="5.48596">
        <ele>1416</ele>
        <time>2024-07-14T07:47:57.000Z</time>
      </trkpt>
      <trkpt lat="45.00608" lon="5.48595">
        <ele>1416</ele>
        <time>2024-07-14T07:47:58.000Z</time>
      </trkpt>
      <trkpt lat="45.00606" lon="5.48593">
        <ele>1416.1999511719</ele>
        <time>2024-07-14T07:47:59.000Z</time>
      </trkpt>
      <trkpt lat="45.00605" lon="5.48591">
        <ele>1416.1999511719</ele>
        <time>2024-07-14T07:48:00.000Z</time>
      </trkpt>
      <trkpt lat="45.00602" lon="5.48589">
        <ele>1416.4000244141</ele>
        <time>2024-07-14T07:48:01.000Z</time>
      </trkpt>
      <trkpt lat="45.006" lon="5.48588">
        <ele>1416.4000244141</ele>
        <time>2024-07-14T07:48:02.000Z</time>
      </trkpt>
      <trkpt lat="45.00598" lon="5.48586">
        <ele>1416.5999755859</ele>
        <time>2024-07-14T07:48:03.000Z</time>
      </trkpt>
      <trkpt lat="45.00596" lon="5.48584">
        <ele>1416.5999755859</ele>
        <time>2024-07-14T07:48:04.000Z</time>
      </trkpt>
      <trkpt lat="45.00593" lon="5.48581">
        <ele>1416.5999755859</ele>
        <time>2024-07-14T07:48:05.000Z</time>
      </trkpt>
      <trkpt lat="45.00591" lon="5.48579">
        <ele>1416.5999755859</ele>
        <time>2024-07-14T07:48:06.000Z</time>
      </trkpt>
      <trkpt lat="45.00589" lon="5.48577">
        <ele>1416.5999755859</ele>
        <time>2024-07-14T07:48:07.000Z</time>
      </trkpt>
      <trkpt lat="45.00587" lon="5.48575">
        <ele>1416.4000244141</ele>
        <time>2024-07-14T07:48:08.000Z</time>
      </trkpt>
      <trkpt lat="45.00585" lon="5.48573">
        <ele>1416.4000244141</ele>
        <time>2024-07-14T07:48:09.000Z</time>
      </trkpt>
      <trkpt lat="45.00583" lon="5.4857">
        <ele>1416.1999511719</ele>
        <time>2024-07-14T07:48:10.000Z</time>
      </trkpt>
      <trkpt lat="45.00581" lon="5.48568">
        <ele>1416.1999511719</ele>
        <time>2024-07-14T07:48:11.000Z</time>
      </trkpt>
      <trkpt lat="45.00579" lon="5.48565">
        <ele>1416.1999511719</ele>
        <time>2024-07-14T07:48:12.000Z</time>
      </trkpt>
      <trkpt lat="45.00577" lon="5.48562">
        <ele>1416</ele>
        <time>2024-07-14T07:48:13.000Z</time>
      </trkpt>
      <trkpt lat="45.00575" lon="5.4856">
        <ele>1416</ele>
        <time>2024-07-14T07:48:14.000Z</time>
      </trkpt>
      <trkpt lat="45.00573" lon="5.48557">
        <ele>1416</ele>
        <time>2024-07-14T07:48:15.000Z</time>
      </trkpt>
      <trkpt lat="45.00571" lon="5.48554">
        <ele>1415.8000488281</ele>
        <time>2024-07-14T07:48:16.000Z</time>
      </trkpt>
      <trkpt lat="45.00569" lon="5.48552">
        <ele>1415.8000488281</ele>
        <time>2024-07-14T07:48:17.000Z</time>
      </trkpt>
      <trkpt lat="45.00567" lon="5.48549">
        <ele>1415.5999755859</ele>
        <time>2024-07-14T07:48:18.000Z</time>
      </trkpt>
      <trkpt lat="45.00565" lon="5.48547">
        <ele>1415.5999755859</ele>
        <time>2024-07-14T07:48:19.000Z</time>
      </trkpt>
      <trkpt lat="45.00563" lon="5.48546">
        <ele>1415.4000244141</ele>
        <time>2024-07-14T07:48:20.000Z</time>
      </trkpt>
      <trkpt lat="45.00561" lon="5.48545">
        <ele>1415.4000244141</ele>
        <time>2024-07-14T07:48:21.000Z</time>
      </trkpt>
      <trkpt lat="45.00559" lon="5.48545">
        <ele>1415.4000244141</ele>
        <time>2024-07-14T07:48:22.000Z</time>
      </trkpt>
      <trkpt lat="45.00557" lon="5.48545">
        <ele>1415.4000244141</ele>
        <time>2024-07-14T07:48:23.000Z</time>
      </trkpt>
      <trkpt lat="45.00555" lon="5.48544">
        <ele>1415.4000244141</ele>
        <time>2024-07-14T07:48:24.000Z</time>
      </trkpt>
      <trkpt lat="45.00553" lon="5.48544">
        <ele>1415.5999755859</ele>
        <time>2024-07-14T07:48:25.000Z</time>
      </trkpt>
      <trkpt lat="45.00552" lon="5.48544">
        <ele>1415.5999755859</ele>
        <time>2024-07-14T07:48:26.000Z</time>
      </trkpt>
      <trkpt lat="45.0055" lon="5.48544">
        <ele>1415.8000488281</ele>
        <time>2024-07-14T07:48:27.000Z</time>
      </trkpt>
      <trkpt lat="45.00548" lon="5.48544">
        <ele>1416</ele>
        <time>2024-07-14T07:48:28.000Z</time>
      </trkpt>
      <trkpt lat="45.00546" lon="5.48545">
        <ele>1416.1999511719</ele>
        <time>2024-07-14T07:48:29.000Z</time>
      </trkpt>
      <trkpt lat="45.00544" lon="5.48545">
        <ele>1416.1999511719</ele>
        <time>2024-07-14T07:48:30.000Z</time>
      </trkpt>
      <trkpt lat="45.00542" lon="5.48546">
        <ele>1416.4000244141</ele>
        <time>2024-07-14T07:48:31.000Z</time>
      </trkpt>
      <trkpt lat="45.00541" lon="5.48547">
        <ele>1416.5999755859</ele>
        <time>2024-07-14T07:48:32.000Z</time>
      </trkpt>
      <trkpt lat="45.00539" lon="5.48548">
        <ele>1416.8000488281</ele>
        <time>2024-07-14T07:48:33.000Z</time>
      </trkpt>
      <trkpt lat="45.00537" lon="5.48549">
        <ele>1416.8000488281</ele>
        <time>2024-07-14T07:48:34.000Z</time>
      </trkpt>
      <trkpt lat="45.00535" lon="5.48549">
        <ele>1417</ele>
        <time>2024-07-14T07:48:35.000Z</time>
      </trkpt>
      <trkpt lat="45.00534" lon="5.4855">
        <ele>1417.1999511719</ele>
        <time>2024-07-14T07:48:36.000Z</time>
      </trkpt>
      <trkpt lat="45.00532" lon="5.4855">
        <ele>1417.4000244141</ele>
        <time>2024-07-14T07:48:37.000Z</time>
      </trkpt>
      <trkpt lat="45.0053" lon="5.48551">
        <ele>1417.5999755859</ele>
        <time>2024-07-14T07:48:38.000Z</time>
      </trkpt>
      <trkpt lat="45.00528" lon="5.48551">
        <ele>1417.8000488281</ele>
        <time>2024-07-14T07:48:39.000Z</time>
      </trkpt>
      <trkpt lat="45.00526" lon="5.48551">
        <ele>1418.1999511719</ele>
        <time>2024-07-14T07:48:40.000Z</time>
      </trkpt>
      <trkpt lat="45.00524" lon="5.48551">
        <ele>1418.4000244141</ele>
        <time>2024-07-14T07:48:41.000Z</time>
      </trkpt>
      <trkpt lat="45.00522" lon="5.4855">
        <ele>1418.5999755859</ele>
        <time>2024-07-14T07:48:42.000Z</time>
      </trkpt>
      <trkpt lat="45.0052" lon="5.4855">
        <ele>1418.5999755859</ele>
        <time>2024-07-14T07:48:43.000Z</time>
      </trkpt>
      <trkpt lat="45.00518" lon="5.4855">
        <ele>1418.8000488281</ele>
        <time>2024-07-14T07:48:44.000Z</time>
      </trkpt>
      <trkpt lat="45.00515" lon="5.4855">
        <ele>1418.8000488281</ele>
        <time>2024-07-14T07:48:45.000Z</time>
      </trkpt>
      <trkpt lat="45.00513" lon="5.4855">
        <ele>1419</ele>
        <time>2024-07-14T07:48:46.000Z</time>
      </trkpt>
      <trkpt lat="45.0051" lon="5.4855">
        <ele>1419</ele>
        <time>2024-07-14T07:48:47.000Z</time>
      </trkpt>
      <trkpt lat="45.00508" lon="5.4855">
        <ele>1419.1999511719</ele>
        <time>2024-07-14T07:48:48.000Z</time>
      </trkpt>
      <trkpt lat="45.00506" lon="5.48549">
        <ele>1419.4000244141</ele>
        <time>2024-07-14T07:48:49.000Z</time>
      </trkpt>
      <trkpt lat="45.00505" lon="5.48549">
        <ele>1419.5999755859</ele>
        <time>2024-07-14T07:48:50.000Z</time>
      </trkpt>
      <trkpt lat="45.00503" lon="5.48549">
        <ele>1419.8000488281</ele>
        <time>2024-07-14T07:48:51.000Z</time>
      </trkpt>
      <trkpt lat="45.00502" lon="5.48549">
        <ele>1419.8000488281</ele>
        <time>2024-07-14T07:48:52.000Z</time>
      </trkpt>
      <trkpt lat="45.00501" lon="5.48549">
        <ele>1420</ele>
        <time>2024-07-14T07:48:53.000Z</time>
      </trkpt>
      <trkpt lat="45.00499" lon="5.4855">
        <ele>1420.1999511719</ele>
        <time>2024-07-14T07:48:54.000Z</time>
      </trkpt>
      <trkpt lat="45.00497" lon="5.4855">
        <ele>1420.5999755859</ele>
        <time>2024-07-14T07:48:55.000Z</time>
      </trkpt>
      <trkpt lat="45.00496" lon="5.4855">
        <ele>1420.8000488281</ele>
        <time>2024-07-14T07:48:56.000Z</time>
      </trkpt>
      <trkpt lat="45.00495" lon="5.48551">
        <ele>1421</ele>
        <time>2024-07-14T07:48:57.000Z</time>
      </trkpt>
      <trkpt lat="45.00493" lon="5.48551">
        <ele>1421.4000244141</ele>
        <time>2024-07-14T07:48:58.000Z</time>
      </trkpt>
      <trkpt lat="45.00492" lon="5.48552">
        <ele>1421.5999755859</ele>
        <time>2024-07-14T07:48:59.000Z</time>
      </trkpt>
      <trkpt lat="45.0049" lon="5.48553">
        <ele>1421.8000488281</ele>
        <time>2024-07-14T07:49:00.000Z</time>
      </trkpt>
      <trkpt lat="45.00488" lon="5.48554">
        <ele>1422</ele>
        <time>2024-07-14T07:49:01.000Z</time>
      </trkpt>
      <trkpt lat="45.00486" lon="5.48555">
        <ele>1422.1999511719</ele>
        <time>2024-07-14T07:49:02.000Z</time>
      </trkpt>
      <trkpt lat="45.00484" lon="5.48557">
        <ele>1422.4000244141</ele>
        <time>2024-07-14T07:49:03.000Z</time>
      </trkpt>
      <trkpt lat="45.00482" lon="5.48558">
        <ele>1422.5999755859</ele>
        <time>2024-07-14T07:49:04.000Z</time>
      </trkpt>
      <trkpt lat="45.00481" lon="5.48559">
        <ele>1422.8000488281</ele>
        <time>2024-07-14T07:49:05.000Z</time>
      </trkpt>
      <trkpt lat="45.00479" lon="5.4856">
        <ele>1423</ele>
        <time>2024-07-14T07:49:06.000Z</time>
      </trkpt>
      <trkpt lat="45.00478" lon="5.48561">
        <ele>1423.1999511719</ele>
        <time>2024-07-14T07:49:07.000Z</time>
      </trkpt>
      <trkpt lat="45.00477" lon="5.48562">
        <ele>1423.4000244141</ele>
        <time>2024-07-14T07:49:08.000Z</time>
      </trkpt>
      <trkpt lat="45.00475" lon="5.48563">
        <ele>1423.5999755859</ele>
        <time>2024-07-14T07:49:09.000Z</time>
      </trkpt>
      <trkpt lat="45.00474" lon="5.48564">
        <ele>1423.8000488281</ele>
        <time>2024-07-14T07:49:10.000Z</time>
      </trkpt>
      <trkpt lat="45.00473" lon="5.48565">
        <ele>1424.1999511719</ele>
        <time>2024-07-14T07:49:11.000Z</time>
      </trkpt>
      <trkpt lat="45.00471" lon="5.48566">
        <ele>1424.4000244141</ele>
        <time>2024-07-14T07:49:12.000Z</time>
      </trkpt>
      <trkpt lat="45.00469" lon="5.48567">
        <ele>1424.4000244141</ele>
        <time>2024-07-14T07:49:13.000Z</time>
      </trkpt>
      <trkpt lat="45.00468" lon="5.48569">
        <ele>1424.5999755859</ele>
        <time>2024-07-14T07:49:14.000Z</time>
      </trkpt>
      <trkpt lat="45.00466" lon="5.48571">
        <ele>1425</ele>
        <time>2024-07-14T07:49:15.000Z</time>
      </trkpt>
      <trkpt lat="45.00464" lon="5.48572">
        <ele>1425.1999511719</ele>
        <time>2024-07-14T07:49:16.000Z</time>
      </trkpt>
      <trkpt lat="45.00462" lon="5.48573">
        <ele>1425.4000244141</ele>
        <time>2024-07-14T07:49:17.000Z</time>
      </trkpt>
      <trkpt lat="45.0046" lon="5.48575">
        <ele>1425.5999755859</ele>
        <time>2024-07-14T07:49:18.000Z</time>
      </trkpt>
      <trkpt lat="45.00459" lon="5.48576">
        <ele>1425.8000488281</ele>
        <time>2024-07-14T07:49:19.000Z</time>
      </trkpt>
      <trkpt lat="45.00457" lon="5.48577">
        <ele>1426</ele>
        <time>2024-07-14T07:49:20.000Z</time>
      </trkpt>
      <trkpt lat="45.00456" lon="5.48578">
        <ele>1426.1999511719</ele>
        <time>2024-07-14T07:49:21.000Z</time>
      </trkpt>
      <trkpt lat="45.00454" lon="5.48579">
        <ele>1426.4000244141</ele>
        <time>2024-07-14T07:49:22.000Z</time>
      </trkpt>
      <trkpt lat="45.00452" lon="5.48581">
        <ele>1426.5999755859</ele>
        <time>2024-07-14T07:49:23.000Z</time>
      </trkpt>
      <trkpt lat="45.0045" lon="5.48583">
        <ele>1426.8000488281</ele>
        <time>2024-07-14T07:49:24.000Z</time>
      </trkpt>
      <trkpt lat="45.00448" lon="5.48584">
        <ele>1427.1999511719</ele>
        <time>2024-07-14T07:49:25.000Z</time>
      </trkpt>
      <trkpt lat="45.00446" lon="5.48586">
        <ele>1427.4000244141</ele>
        <time>2024-07-14T07:49:26.000Z</time>
      </trkpt>
      <trkpt lat="45.00445" lon="5.48587">
        <ele>1427.8000488281</ele>
        <time>2024-07-14T07:49:27.000Z</time>
      </trkpt>
      <trkpt lat="45.00443" lon="5.48589">
        <ele>1428</ele>
        <time>2024-07-14T07:49:28.000Z</time>
      </trkpt>
      <trkpt lat="45.00441" lon="5.48591">
        <ele>1428.1999511719</ele>
        <time>2024-07-14T07:49:29.000Z</time>
      </trkpt>
      <trkpt lat="45.0044" lon="5.48592">
        <ele>1428.1999511719</ele>
        <time>2024-07-14T07:49:30.000Z</time>
      </trkpt>
      <trkpt lat="45.00438" lon="5.48594">
        <ele>1428.1999511719</ele>
        <time>2024-07-14T07:49:31.000Z</time>
      </trkpt>
      <trkpt lat="45.00436" lon="5.48595">
        <ele>1428.4000244141</ele>
        <time>2024-07-14T07:49:32.000Z</time>
      </trkpt>
      <trkpt lat="45.00434" lon="5.48597">
        <ele>1428.4000244141</ele>
        <time>2024-07-14T07:49:33.000Z</time>
      </trkpt>
      <trkpt lat="45.00432" lon="5.48598">
        <ele>1428.4000244141</ele>
        <time>2024-07-14T07:49:34.000Z</time>
      </trkpt>
      <trkpt lat="45.00429" lon="5.486">
        <ele>1428.5999755859</ele>
        <time>2024-07-14T07:49:35.000Z</time>
      </trkpt>
      <trkpt lat="45.00427" lon="5.48601">
        <ele>1428.5999755859</ele>
        <time>2024-07-14T07:49:36.000Z</time>
      </trkpt>
      <trkpt lat="45.00425" lon="5.48603">
        <ele>1428.5999755859</ele>
        <time>2024-07-14T07:49:37.000Z</time>
      </trkpt>
      <trkpt lat="45.00423" lon="5.48604">
        <ele>1428.5999755859</ele>
        <time>2024-07-14T07:49:38.000Z</time>
      </trkpt>
      <trkpt lat="45.00421" lon="5.48606">
        <ele>1428.8000488281</ele>
        <time>2024-07-14T07:49:39.000Z</time>
      </trkpt>
      <trkpt lat="45.00419" lon="5.48606">
        <ele>1429</ele>
        <time>2024-07-14T07:49:40.000Z</time>
      </trkpt>
      <trkpt lat="45.00417" lon="5.48607">
        <ele>1429</ele>
        <time>2024-07-14T07:49:41.000Z</time>
      </trkpt>
      <trkpt lat="45.00415" lon="5.48608">
        <ele>1429.1999511719</ele>
        <time>2024-07-14T07:49:42.000Z</time>
      </trkpt>
      <trkpt lat="45.00413" lon="5.48608">
        <ele>1429.1999511719</ele>
        <time>2024-07-14T07:49:43.000Z</time>
      </trkpt>
      <trkpt lat="45.00411" lon="5.48609">
        <ele>1429.4000244141</ele>
        <time>2024-07-14T07:49:44.000Z</time>
      </trkpt>
      <trkpt lat="45.00408" lon="5.4861">
        <ele>1429.4000244141</ele>
        <time>2024-07-14T07:49:45.000Z</time>
      </trkpt>
      <trkpt lat="45.00406" lon="5.48611">
        <ele>1429.5999755859</ele>
        <time>2024-07-14T07:49:46.000Z</time>
      </trkpt>
      <trkpt lat="45.00404" lon="5.48612">
        <ele>1429.8000488281</ele>
        <time>2024-07-14T07:49:47.000Z</time>
      </trkpt>
      <trkpt lat="45.00401" lon="5.48613">
        <ele>1430</ele>
        <time>2024-07-14T07:49:48.000Z</time>
      </trkpt>
      <trkpt lat="45.00399" lon="5.48613">
        <ele>1430.1999511719</ele>
        <time>2024-07-14T07:49:49.000Z</time>
      </trkpt>
      <trkpt lat="45.00398" lon="5.48614">
        <ele>1430.1999511719</ele>
        <time>2024-07-14T07:49:50.000Z</time>
      </trkpt>
      <trkpt lat="45.00395" lon="5.48614">
        <ele>1430.4000244141</ele>
        <time>2024-07-14T07:49:51.000Z</time>
      </trkpt>
      <trkpt lat="45.00393" lon="5.48614">
        <ele>1430.5999755859</ele>
        <time>2024-07-14T07:49:52.000Z</time>
      </trkpt>
      <trkpt lat="45.00391" lon="5.48615">
        <ele>1430.5999755859</ele>
        <time>2024-07-14T07:49:53.000Z</time>
      </trkpt>
      <trkpt lat="45.00389" lon="5.48615">
        <ele>1430.8000488281</ele>
        <time>2024-07-14T07:49:54.000Z</time>
      </trkpt>
      <trkpt lat="45.00388" lon="5.48616">
        <ele>1431</ele>
        <time>2024-07-14T07:49:55.000Z</time>
      </trkpt>
      <trkpt lat="45.00386" lon="5.48616">
        <ele>1431.1999511719</ele>
        <time>2024-07-14T07:49:56.000Z</time>
      </trkpt>
      <trkpt lat="45.00385" lon="5.48616">
        <ele>1431.1999511719</ele>
        <time>2024-07-14T07:49:57.000Z</time>
      </trkpt>
      <trkpt lat="45.00383" lon="5.48618">
        <ele>1431.5999755859</ele>
        <time>2024-07-14T07:49:58.000Z</time>
      </trkpt>
      <trkpt lat="45.00381" lon="5.48619">
        <ele>1432</ele>
        <time>2024-07-14T07:49:59.000Z</time>
      </trkpt>
      <trkpt lat="45.00379" lon="5.48621">
        <ele>1432.1999511719</ele>
        <time>2024-07-14T07:50:00.000Z</time>
      </trkpt>
      <trkpt lat="45.00377" lon="5.48622">
        <ele>1432.1999511719</ele>
        <time>2024-07-14T07:50:01.000Z</time>
      </trkpt>
      <trkpt lat="45.00374" lon="5.48624">
        <ele>1432.4000244141</ele>
        <time>2024-07-14T07:50:02.000Z</time>
      </trkpt>
      <trkpt lat="45.00372" lon="5.48626">
        <ele>1432.4000244141</ele>
        <time>2024-07-14T07:50:03.000Z</time>
      </trkpt>
      <trkpt lat="45.0037" lon="5.48628">
        <ele>1432.4000244141</ele>
        <time>2024-07-14T07:50:04.000Z</time>
      </trkpt>
      <trkpt lat="45.00368" lon="5.4863">
        <ele>1432.4000244141</ele>
        <time>2024-07-14T07:50:05.000Z</time>
      </trkpt>
      <trkpt lat="45.00366" lon="5.48632">
        <ele>1432.4000244141</ele>
        <time>2024-07-14T07:50:06.000Z</time>
      </trkpt>
      <trkpt lat="45.00363" lon="5.48635">
        <ele>1432.4000244141</ele>
        <time>2024-07-14T07:50:07.000Z</time>
      </trkpt>
      <trkpt lat="45.00361" lon="5.48636">
        <ele>1432.4000244141</ele>
        <time>2024-07-14T07:50:08.000Z</time>
      </trkpt>
      <trkpt lat="45.00359" lon="5.48639">
        <ele>1432.1999511719</ele>
        <time>2024-07-14T07:50:09.000Z</time>
      </trkpt>
      <trkpt lat="45.00358" lon="5.48642">
        <ele>1432.1999511719</ele>
        <time>2024-07-14T07:50:10.000Z</time>
      </trkpt>
      <trkpt lat="45.00357" lon="5.48645">
        <ele>1432</ele>
        <time>2024-07-14T07:50:11.000Z</time>
      </trkpt>
      <trkpt lat="45.00355" lon="5.48647">
        <ele>1431.8000488281</ele>
        <time>2024-07-14T07:50:12.000Z</time>
      </trkpt>
      <trkpt lat="45.00354" lon="5.4865">
        <ele>1431.8000488281</ele>
        <time>2024-07-14T07:50:13.000Z</time>
      </trkpt>
      <trkpt lat="45.00352" lon="5.48652">
        <ele>1431.8000488281</ele>
        <time>2024-07-14T07:50:14.000Z</time>
      </trkpt>
      <trkpt lat="45.0035" lon="5.48654">
        <ele>1431.8000488281</ele>
        <time>2024-07-14T07:50:15.000Z</time>
      </trkpt>
      <trkpt lat="45.00349" lon="5.48656">
        <ele>1431.5999755859</ele>
        <time>2024-07-14T07:50:16.000Z</time>
      </trkpt>
      <trkpt lat="45.00347" lon="5.48658">
        <ele>1431.8000488281</ele>
        <time>2024-07-14T07:50:17.000Z</time>
      </trkpt>
      <trkpt lat="45.00346" lon="5.48661">
        <ele>1431.8000488281</ele>
        <time>2024-07-14T07:50:18.000Z</time>
      </trkpt>
      <trkpt lat="45.00345" lon="5.48663">
        <ele>1431.8000488281</ele>
        <time>2024-07-14T07:50:19.000Z</time>
      </trkpt>
      <trkpt lat="45.00344" lon="5.48666">
        <ele>1432</ele>
        <time>2024-07-14T07:50:20.000Z</time>
      </trkpt>
      <trkpt lat="45.00343" lon="5.48668">
        <ele>1432</ele>
        <time>2024-07-14T07:50:21.000Z</time>
      </trkpt>
      <trkpt lat="45.00342" lon="5.4867">
        <ele>1432.1999511719</ele>
        <time>2024-07-14T07:50:22.000Z</time>
      </trkpt>
      <trkpt lat="45.0034" lon="5.48673">
        <ele>1432.1999511719</ele>
        <time>2024-07-14T07:50:23.000Z</time>
      </trkpt>
      <trkpt lat="45.00338" lon="5.48674">
        <ele>1432.4000244141</ele>
        <time>2024-07-14T07:50:24.000Z</time>
      </trkpt>
      <trkpt lat="45.00337" lon="5.48676">
        <ele>1432.8000488281</ele>
        <time>2024-07-14T07:50:25.000Z</time>
      </trkpt>
      <trkpt lat="45.00335" lon="5.48678">
        <ele>1432.8000488281</ele>
        <time>2024-07-14T07:50:26.000Z</time>
      </trkpt>
      <trkpt lat="45.00333" lon="5.4868">
        <ele>1433</ele>
        <time>2024-07-14T07:50:27.000Z</time>
      </trkpt>
      <trkpt lat="45.00332" lon="5.48682">
        <ele>1433.1999511719</ele>
        <time>2024-07-14T07:50:28.000Z</time>
      </trkpt>
      <trkpt lat="45.0033" lon="5.48683">
        <ele>1433.4000244141</ele>
        <time>2024-07-14T07:50:29.000Z</time>
      </trkpt>
      <trkpt lat="45.00328" lon="5.48685">
        <ele>1433.5999755859</ele>
        <time>2024-07-14T07:50:30.000Z</time>
      </trkpt>
      <trkpt lat="45.00327" lon="5.48687">
        <ele>1433.5999755859</ele>
        <time>2024-07-14T07:50:31.000Z</time>
      </trkpt>
      <trkpt lat="45.00325" lon="5.48689">
        <ele>1433.5999755859</ele>
        <time>2024-07-14T07:50:32.000Z</time>
      </trkpt>
      <trkpt lat="45.00323" lon="5.48691">
        <ele>1433.8000488281</ele>
        <time>2024-07-14T07:50:33.000Z</time>
      </trkpt>
      <trkpt lat="45.00321" lon="5.48692">
        <ele>1433.8000488281</ele>
        <time>2024-07-14T07:50:34.000Z</time>
      </trkpt>
      <trkpt lat="45.00319" lon="5.48694">
        <ele>1434</ele>
        <time>2024-07-14T07:50:35.000Z</time>
      </trkpt>
      <trkpt lat="45.00318" lon="5.48695">
        <ele>1434</ele>
        <time>2024-07-14T07:50:36.000Z</time>
      </trkpt>
      <trkpt lat="45.00316" lon="5.48697">
        <ele>1434.1999511719</ele>
        <time>2024-07-14T07:50:37.000Z</time>
      </trkpt>
      <trkpt lat="45.00313" lon="5.48698">
        <ele>1434.4000244141</ele>
        <time>2024-07-14T07:50:38.000Z</time>
      </trkpt>
      <trkpt lat="45.00311" lon="5.48699">
        <ele>1434.5999755859</ele>
        <time>2024-07-14T07:50:39.000Z</time>
      </trkpt>
      <trkpt lat="45.00309" lon="5.48701">
        <ele>1434.5999755859</ele>
        <time>2024-07-14T07:50:40.000Z</time>
      </trkpt>
      <trkpt lat="45.00307" lon="5.48702">
        <ele>1434.8000488281</ele>
        <time>2024-07-14T07:50:41.000Z</time>
      </trkpt>
      <trkpt lat="45.00305" lon="5.48703">
        <ele>1435</ele>
        <time>2024-07-14T07:50:42.000Z</time>
      </trkpt>
      <trkpt lat="45.00303" lon="5.48704">
        <ele>1435</ele>
        <time>2024-07-14T07:50:43.000Z</time>
      </trkpt>
      <trkpt lat="45.00301" lon="5.48704">
        <ele>1435.1999511719</ele>
        <time>2024-07-14T07:50:44.000Z</time>
      </trkpt>
      <trkpt lat="45.00299" lon="5.48705">
        <ele>1435.5999755859</ele>
        <time>2024-07-14T07:50:45.000Z</time>
      </trkpt>
      <trkpt lat="45.00297" lon="5.48706">
        <ele>1435.8000488281</ele>
        <time>2024-07-14T07:50:46.000Z</time>
      </trkpt>
      <trkpt lat="45.00295" lon="5.48706">
        <ele>1435.8000488281</ele>
        <time>2024-07-14T07:50:47.000Z</time>
      </trkpt>
      <trkpt lat="45.00293" lon="5.48707">
        <ele>1436</ele>
        <time>2024-07-14T07:50:48.000Z</time>
      </trkpt>
      <trkpt lat="45.00291" lon="5.48707">
        <ele>1436.1999511719</ele>
        <time>2024-07-14T07:50:49.000Z</time>
      </trkpt>
      <trkpt lat="45.00289" lon="5.48708">
        <ele>1436.1999511719</ele>
        <time>2024-07-14T07:50:50.000Z</time>
      </trkpt>
      <trkpt lat="45.00286" lon="5.48708">
        <ele>1436.4000244141</ele>
        <time>2024-07-14T07:50:51.000Z</time>
      </trkpt>
      <trkpt lat="45.00284" lon="5.48709">
        <ele>1436.5999755859</ele>
        <time>2024-07-14T07:50:52.000Z</time>
      </trkpt>
      <trkpt lat="45.00281" lon="5.48709">
        <ele>1436.8000488281</ele>
        <time>2024-07-14T07:50:53.000Z</time>
      </trkpt>
      <trkpt lat="45.00278" lon="5.48709">
        <ele>1436.8000488281</ele>
        <time>2024-07-14T07:50:54.000Z</time>
      </trkpt>
      <trkpt lat="45.00276" lon="5.48709">
        <ele>1437</ele>
        <time>2024-07-14T07:50:55.000Z</time>
      </trkpt>
      <trkpt lat="45.00273" lon="5.48708">
        <ele>1437</ele>
        <time>2024-07-14T07:50:56.000Z</time>
      </trkpt>
      <trkpt lat="45.00271" lon="5.48708">
        <ele>1437.1999511719</ele>
        <time>2024-07-14T07:50:57.000Z</time>
      </trkpt>
      <trkpt lat="45.00268" lon="5.48707">
        <ele>1437.4000244141</ele>
        <time>2024-07-14T07:50:58.000Z</time>
      </trkpt>
      <trkpt lat="45.00266" lon="5.48707">
        <ele>1437.5999755859</ele>
        <time>2024-07-14T07:50:59.000Z</time>
      </trkpt>
      <trkpt lat="45.00264" lon="5.48706">
        <ele>1437.5999755859</ele>
        <time>2024-07-14T07:51:00.000Z</time>
      </trkpt>
      <trkpt lat="45.00262" lon="5.48704">
        <ele>1437.8000488281</ele>
        <time>2024-07-14T07:51:01.000Z</time>
      </trkpt>
      <trkpt lat="45.0026" lon="5.48703">
        <ele>1438</ele>
        <time>2024-07-14T07:51:02.000Z</time>
      </trkpt>
      <trkpt lat="45.00258" lon="5.48701">
        <ele>1438.1999511719</ele>
        <time>2024-07-14T07:51:03.000Z</time>
      </trkpt>
      <trkpt lat="45.00257" lon="5.48698">
        <ele>1438.4000244141</ele>
        <time>2024-07-14T07:51:04.000Z</time>
      </trkpt>
      <trkpt lat="45.00255" lon="5.48694">
        <ele>1438.5999755859</ele>
        <time>2024-07-14T07:51:05.000Z</time>
      </trkpt>
      <trkpt lat="45.00255" lon="5.48692">
        <ele>1438.5999755859</ele>
        <time>2024-07-14T07:51:06.000Z</time>
      </trkpt>
      <trkpt lat="45.00254" lon="5.48688">
        <ele>1438.8000488281</ele>
        <time>2024-07-14T07:51:07.000Z</time>
      </trkpt>
      <trkpt lat="45.00252" lon="5.48686">
        <ele>1438.8000488281</ele>
        <time>2024-07-14T07:51:08.000Z</time>
      </trkpt>
      <trkpt lat="45.00251" lon="5.48683">
        <ele>1439</ele>
        <time>2024-07-14T07:51:09.000Z</time>
      </trkpt>
      <trkpt lat="45.00251" lon="5.4868">
        <ele>1439.1999511719</ele>
        <time>2024-07-14T07:51:10.000Z</time>
      </trkpt>
      <trkpt lat="45.0025" lon="5.48677">
        <ele>1439.4000244141</ele>
        <time>2024-07-14T07:51:11.000Z</time>
      </trkpt>
      <trkpt lat="45.0025" lon="5.48675">
        <ele>1439.5999755859</ele>
        <time>2024-07-14T07:51:12.000Z</time>
      </trkpt>
      <trkpt lat="45.0025" lon="5.48671">
        <ele>1439.8000488281</ele>
        <time>2024-07-14T07:51:13.000Z</time>
      </trkpt>
      <trkpt lat="45.0025" lon="5.48668">
        <ele>1440</ele>
        <time>2024-07-14T07:51:14.000Z</time>
      </trkpt>
      <trkpt lat="45.00249" lon="5.48666">
        <ele>1440.1999511719</ele>
        <time>2024-07-14T07:51:15.000Z</time>
      </trkpt>
      <trkpt lat="45.00249" lon="5.48664">
        <ele>1440.5999755859</ele>
        <time>2024-07-14T07:51:16.000Z</time>
      </trkpt>
      <trkpt lat="45.0025" lon="5.4866">
        <ele>1440.8000488281</ele>
        <time>2024-07-14T07:51:17.000Z</time>
      </trkpt>
      <trkpt lat="45.0025" lon="5.48657">
        <ele>1441</ele>
        <time>2024-07-14T07:51:18.000Z</time>
      </trkpt>
      <trkpt lat="45.0025" lon="5.48655">
        <ele>1441.4000244141</ele>
        <time>2024-07-14T07:51:19.000Z</time>
      </trkpt>
      <trkpt lat="45.0025" lon="5.48653">
        <ele>1441.5999755859</ele>
        <time>2024-07-14T07:51:20.000Z</time>
      </trkpt>
      <trkpt lat="45.00251" lon="5.4865">
        <ele>1442</ele>
        <time>2024-07-14T07:51:21.000Z</time>
      </trkpt>
      <trkpt lat="45.00251" lon="5.48648">
        <ele>1442.1999511719</ele>
        <time>2024-07-14T07:51:22.000Z</time>
      </trkpt>
      <trkpt lat="45.00251" lon="5.48646">
        <ele>1442.4000244141</ele>
        <time>2024-07-14T07:51:23.000Z</time>
      </trkpt>
      <trkpt lat="45.00251" lon="5.48643">
        <ele>1442.5999755859</ele>
        <time>2024-07-14T07:51:24.000Z</time>
      </trkpt>
      <trkpt lat="45.00251" lon="5.4864">
        <ele>1442.8000488281</ele>
        <time>2024-07-14T07:51:25.000Z</time>
      </trkpt>
      <trkpt lat="45.00251" lon="5.48637">
        <ele>1443</ele>
        <time>2024-07-14T07:51:26.000Z</time>
      </trkpt>
      <trkpt lat="45.00251" lon="5.48634">
        <ele>1443.4000244141</ele>
        <time>2024-07-14T07:51:27.000Z</time>
      </trkpt>
      <trkpt lat="45.00251" lon="5.48631">
        <ele>1443.5999755859</ele>
        <time>2024-07-14T07:51:28.000Z</time>
      </trkpt>
      <trkpt lat="45.00251" lon="5.48629">
        <ele>1443.8000488281</ele>
        <time>2024-07-14T07:51:29.000Z</time>
      </trkpt>
      <trkpt lat="45.00251" lon="5.48625">
        <ele>1444.1999511719</ele>
        <time>2024-07-14T07:51:30.000Z</time>
      </trkpt>
      <trkpt lat="45.00251" lon="5.48622">
        <ele>1444.5999755859</ele>
        <time>2024-07-14T07:51:31.000Z</time>
      </trkpt>
      <trkpt lat="45.00252" lon="5.4862">
        <ele>1444.8000488281</ele>
        <time>2024-07-14T07:51:32.000Z</time>
      </trkpt>
      <trkpt lat="45.00253" lon="5.48618">
        <ele>1445</ele>
        <time>2024-07-14T07:51:33.000Z</time>
      </trkpt>
      <trkpt lat="45.00253" lon="5.48616">
        <ele>1445.1999511719</ele>
        <time>2024-07-14T07:51:34.000Z</time>
      </trkpt>
      <trkpt lat="45.00254" lon="5.48614">
        <ele>1445.1999511719</ele>
        <time>2024-07-14T07:51:35.000Z</time>
      </trkpt>
      <trkpt lat="45.00256" lon="5.48611">
        <ele>1445.1999511719</ele>
        <time>2024-07-14T07:51:36.000Z</time>
      </trkpt>
      <trkpt lat="45.00257" lon="5.48607">
        <ele>1445.1999511719</ele>
        <time>2024-07-14T07:51:37.000Z</time>
      </trkpt>
      <trkpt lat="45.00258" lon="5.48603">
        <ele>1445</ele>
        <time>2024-07-14T07:51:38.000Z</time>
      </trkpt>
      <trkpt lat="45.0026" lon="5.486">
        <ele>1444.8000488281</ele>
        <time>2024-07-14T07:51:39.000Z</time>
      </trkpt>
      <trkpt lat="45.00261" lon="5.48596">
        <ele>1444.1999511719</ele>
        <time>2024-07-14T07:51:40.000Z</time>
      </trkpt>
      <trkpt lat="45.00261" lon="5.48592">
        <ele>1443.5999755859</ele>
        <time>2024-07-14T07:51:41.000Z</time>
      </trkpt>
      <trkpt lat="45.00262" lon="5.48589">
        <ele>1443</ele>
        <time>2024-07-14T07:51:42.000Z</time>
      </trkpt>
      <trkpt lat="45.00262" lon="5.48586">
        <ele>1442.5999755859</ele>
        <time>2024-07-14T07:51:43.000Z</time>
      </trkpt>
      <trkpt lat="45.00262" lon="5.48583">
        <ele>1442.4000244141</ele>
        <time>2024-07-14T07:51:44.000Z</time>
      </trkpt>
      <trkpt lat="45.00262" lon="5.48579">
        <ele>1442</ele>
        <time>2024-07-14T07:51:45.000Z</time>
      </trkpt>
      <trkpt lat="45.00262" lon="5.48576">
        <ele>1441.8000488281</ele>
        <time>2024-07-14T07:51:46.000Z</time>
      </trkpt>
      <trkpt lat="45.00261" lon="5.48573">
        <ele>1441.5999755859</ele>
        <time>2024-07-14T07:51:47.000Z</time>
      </trkpt>
      <trkpt lat="45.00261" lon="5.4857">
        <ele>1441.4000244141</ele>
        <time>2024-07-14T07:51:48.000Z</time>
      </trkpt>
      <trkpt lat="45.00261" lon="5.48567">
        <ele>1440.8000488281</ele>
        <time>2024-07-14T07:51:49.000Z</time>
      </trkpt>
      <trkpt lat="45.0026" lon="5.48563">
        <ele>1440.4000244141</ele>
        <time>2024-07-14T07:51:50.000Z</time>
      </trkpt>
      <trkpt lat="45.0026" lon="5.4856">
        <ele>1440.1999511719</ele>
        <time>2024-07-14T07:51:51.000Z</time>
      </trkpt>
      <trkpt lat="45.0026" lon="5.48557">
        <ele>1439.4000244141</ele>
        <time>2024-07-14T07:51:52.000Z</time>
      </trkpt>
      <trkpt lat="45.0026" lon="5.48554">
        <ele>1438.5999755859</ele>
        <time>2024-07-14T07:51:53.000Z</time>
      </trkpt>
      <trkpt lat="45.00259" lon="5.4855">
        <ele>1438</ele>
        <time>2024-07-14T07:51:54.000Z</time>
      </trkpt>
      <trkpt lat="45.00259" lon="5.48548">
        <ele>1437.5999755859</ele>
        <time>2024-07-14T07:51:55.000Z</time>
      </trkpt>
      <trkpt lat="45.00258" lon="5.48544">
        <ele>1437.1999511719</ele>
        <time>2024-07-14T07:51:56.000Z</time>
      </trkpt>
      <trkpt lat="45.00257" lon="5.48541">
        <ele>1436.8000488281</ele>
        <time>2024-07-14T07:51:57.000Z</time>
      </trkpt>
      <trkpt lat="45.00256" lon="5.48538">
        <ele>1436.1999511719</ele>
        <time>2024-07-14T07:51:58.000Z</time>
      </trkpt>
      <trkpt lat="45.00255" lon="5.48535">
        <ele>1435.5999755859</ele>
        <time>2024-07-14T07:51:59.000Z</time>
      </trkpt>
      <trkpt lat="45.00254" lon="5.48533">
        <ele>1435.4000244141</ele>
        <time>2024-07-14T07:52:00.000Z</time>
      </trkpt>
      <trkpt lat="45.00253" lon="5.4853">
        <ele>1435</ele>
        <time>2024-07-14T07:52:01.000Z</time>
      </trkpt>
      <trkpt lat="45.00253" lon="5.48526">
        <ele>1434.4000244141</ele>
        <time>2024-07-14T07:52:02.000Z</time>
      </trkpt>
      <trkpt lat="45.00252" lon="5.48523">
        <ele>1434</ele>
        <time>2024-07-14T07:52:03.000Z</time>
      </trkpt>
      <trkpt lat="45.00252" lon="5.4852">
        <ele>1433.5999755859</ele>
        <time>2024-07-14T07:52:04.000Z</time>
      </trkpt>
      <trkpt lat="45.00252" lon="5.48516">
        <ele>1433</ele>
        <time>2024-07-14T07:52:05.000Z</time>
      </trkpt>
      <trkpt lat="45.00251" lon="5.48512">
        <ele>1432.5999755859</ele>
        <time>2024-07-14T07:52:06.000Z</time>
      </trkpt>
      <trkpt lat="45.0025" lon="5.48508">
        <ele>1432.1999511719</ele>
        <time>2024-07-14T07:52:07.000Z</time>
      </trkpt>
      <trkpt lat="45.00249" lon="5.48505">
        <ele>1431.5999755859</ele>
        <time>2024-07-14T07:52:08.000Z</time>
      </trkpt>
      <trkpt lat="45.00247" lon="5.48503">
        <ele>1431.1999511719</ele>
        <time>2024-07-14T07:52:09.000Z</time>
      </trkpt>
      <trkpt lat="45.00245" lon="5.485">
        <ele>1430.5999755859</ele>
        <time>2024-07-14T07:52:10.000Z</time>
      </trkpt>
      <trkpt lat="45.00243" lon="5.48499">
        <ele>1430</ele>
        <time>2024-07-14T07:52:11.000Z</time>
      </trkpt>
      <trkpt lat="45.00241" lon="5.48498">
        <ele>1429.1999511719</ele>
        <time>2024-07-14T07:52:12.000Z</time>
      </trkpt>
      <trkpt lat="45.00238" lon="5.48497">
        <ele>1428.4000244141</ele>
        <time>2024-07-14T07:52:13.000Z</time>
      </trkpt>
      <trkpt lat="45.00235" lon="5.48497">
        <ele>1427.8000488281</ele>
        <time>2024-07-14T07:52:14.000Z</time>
      </trkpt>
      <trkpt lat="45.00232" lon="5.48497">
        <ele>1427.8000488281</ele>
        <time>2024-07-14T07:52:15.000Z</time>
      </trkpt>
      <trkpt lat="45.0023" lon="5.48499">
        <ele>1427.8000488281</ele>
        <time>2024-07-14T07:52:16.000Z</time>
      </trkpt>
      <trkpt lat="45.00228" lon="5.48499">
        <ele>1427.5999755859</ele>
        <time>2024-07-14T07:52:17.000Z</time>
      </trkpt>
      <trkpt lat="45.00226" lon="5.485">
        <ele>1427.5999755859</ele>
        <time>2024-07-14T07:52:18.000Z</time>
      </trkpt>
      <trkpt lat="45.00224" lon="5.48501">
        <ele>1427.5999755859</ele>
        <time>2024-07-14T07:52:19.000Z</time>
      </trkpt>
      <trkpt lat="45.00222" lon="5.48502">
        <ele>1427.4000244141</ele>
        <time>2024-07-14T07:52:20.000Z</time>
      </trkpt>
      <trkpt lat="45.0022" lon="5.48504">
        <ele>1427.4000244141</ele>
        <time>2024-07-14T07:52:21.000Z</time>
      </trkpt>
      <trkpt lat="45.00218" lon="5.48506">
        <ele>1427.1999511719</ele>
        <time>2024-07-14T07:52:22.000Z</time>
      </trkpt>
      <trkpt lat="45.00216" lon="5.48508">
        <ele>1427</ele>
        <time>2024-07-14T07:52:23.000Z</time>
      </trkpt>
      <trkpt lat="45.00215" lon="5.48511">
        <ele>1426.5999755859</ele>
        <time>2024-07-14T07:52:24.000Z</time>
      </trkpt>
      <trkpt lat="45.00213" lon="5.48514">
        <ele>1426.1999511719</ele>
        <time>2024-07-14T07:52:25.000Z</time>
      </trkpt>
      <trkpt lat="45.00211" lon="5.48517">
        <ele>1425.8000488281</ele>
        <time>2024-07-14T07:52:26.000Z</time>
      </trkpt>
      <trkpt lat="45.0021" lon="5.4852">
        <ele>1425</ele>
        <time>2024-07-14T07:52:27.000Z</time>
      </trkpt>
      <trkpt lat="45.00209" lon="5.48522">
        <ele>1424.4000244141</ele>
        <time>2024-07-14T07:52:28.000Z</time>
      </trkpt>
      <trkpt lat="45.00209" lon="5.48524">
        <ele>1424</ele>
        <time>2024-07-14T07:52:29.000Z</time>
      </trkpt>
      <trkpt lat="45.00209" lon="5.48528">
        <ele>1423.5999755859</ele>
        <time>2024-07-14T07:52:30.000Z</time>
      </trkpt>
      <trkpt lat="45.00209" lon="5.48532">
        <ele>1423.4000244141</ele>
        <time>2024-07-14T07:52:31.000Z</time>
      </trkpt>
      <trkpt lat="45.00208" lon="5.48536">
        <ele>1422.5999755859</ele>
        <time>2024-07-14T07:52:32.000Z</time>
      </trkpt>
      <trkpt lat="45.00208" lon="5.48539">
        <ele>1421.8000488281</ele>
        <time>2024-07-14T07:52:33.000Z</time>
      </trkpt>
      <trkpt lat="45.00206" lon="5.48543">
        <ele>1421.4000244141</ele>
        <time>2024-07-14T07:52:34.000Z</time>
      </trkpt>
      <trkpt lat="45.00205" lon="5.48546">
        <ele>1421.1999511719</ele>
        <time>2024-07-14T07:52:35.000Z</time>
      </trkpt>
      <trkpt lat="45.00204" lon="5.48549">
        <ele>1420.5999755859</ele>
        <time>2024-07-14T07:52:36.000Z</time>
      </trkpt>
      <trkpt lat="45.00203" lon="5.48552">
        <ele>1420.4000244141</ele>
        <time>2024-07-14T07:52:37.000Z</time>
      </trkpt>
      <trkpt lat="45.00201" lon="5.48555">
        <ele>1420.1999511719</ele>
        <time>2024-07-14T07:52:38.000Z</time>
      </trkpt>
      <trkpt lat="45.00199" lon="5.48558">
        <ele>1420</ele>
        <time>2024-07-14T07:52:39.000Z</time>
      </trkpt>
      <trkpt lat="45.00197" lon="5.48561">
        <ele>1419.4000244141</ele>
        <time>2024-07-14T07:52:40.000Z</time>
      </trkpt>
      <trkpt lat="45.00195" lon="5.48563">
        <ele>1418.8000488281</ele>
        <time>2024-07-14T07:52:41.000Z</time>
      </trkpt>
      <trkpt lat="45.00192" lon="5.48565">
        <ele>1418.4000244141</ele>
        <time>2024-07-14T07:52:42.000Z</time>
      </trkpt>
      <trkpt lat="45.0019" lon="5.48567">
        <ele>1418.1999511719</ele>
        <time>2024-07-14T07:52:43.000Z</time>
      </trkpt>
      <trkpt lat="45.00188" lon="5.48568">
        <ele>1417.5999755859</ele>
        <time>2024-07-14T07:52:44.000Z</time>
      </trkpt>
      <trkpt lat="45.00185" lon="5.48569">
        <ele>1417</ele>
        <time>2024-07-14T07:52:45.000Z</time>
      </trkpt>
      <trkpt lat="45.00182" lon="5.4857">
        <ele>1416</ele>
        <time>2024-07-14T07:52:46.000Z</time>
      </trkpt>
      <trkpt lat="45.00179" lon="5.48571">
        <ele>1415.5999755859</ele>
        <time>2024-07-14T07:52:47.000Z</time>
      </trkpt>
      <trkpt lat="45.00176" lon="5.48573">
        <ele>1414.8000488281</ele>
        <time>2024-07-14T07:52:48.000Z</time>
      </trkpt>
      <trkpt lat="45.00174" lon="5.48573">
        <ele>1414.1999511719</ele>
        <time>2024-07-14T07:52:49.000Z</time>
      </trkpt>
      <trkpt lat="45.00171" lon="5.48574">
        <ele>1414</ele>
        <time>2024-07-14T07:52:50.000Z</time>
      </trkpt>
      <trkpt lat="45.00169" lon="5.48576">
        <ele>1413.4000244141</ele>
        <time>2024-07-14T07:52:51.000Z</time>
      </trkpt>
      <trkpt lat="45.00165" lon="5.48577">
        <ele>1413</ele>
        <time>2024-07-14T07:52:52.000Z</time>
      </trkpt>
      <trkpt lat="45.00162" lon="5.48579">
        <ele>1412</ele>
        <time>2024-07-14T07:52:53.000Z</time>
      </trkpt>
      <trkpt lat="45.00159" lon="5.48581">
        <ele>1411.1999511719</ele>
        <time>2024-07-14T07:52:54.000Z</time>
      </trkpt>
      <trkpt lat="45.00157" lon="5.48583">
        <ele>1411</ele>
        <time>2024-07-14T07:52:55.000Z</time>
      </trkpt>
      <trkpt lat="45.00154" lon="5.48584">
        <ele>1410.5999755859</ele>
        <time>2024-07-14T07:52:56.000Z</time>
      </trkpt>
      <trkpt lat="45.0015" lon="5.48586">
        <ele>1409.8000488281</ele>
        <time>2024-07-14T07:52:57.000Z</time>
      </trkpt>
      <trkpt lat="45.00147" lon="5.48588">
        <ele>1409.5999755859</ele>
        <time>2024-07-14T07:52:58.000Z</time>
      </trkpt>
      <trkpt lat="45.00144" lon="5.48591">
        <ele>1409</ele>
        <time>2024-07-14T07:52:59.000Z</time>
      </trkpt>
      <trkpt lat="45.00141" lon="5.48594">
        <ele>1408.5999755859</ele>
        <time>2024-07-14T07:53:00.000Z</time>
      </trkpt>
      <trkpt lat="45.00138" lon="5.48597">
        <ele>1408.4000244141</ele>
        <time>2024-07-14T07:53:01.000Z</time>
      </trkpt>
      <trkpt lat="45.00136" lon="5.48599">
        <ele>1408.1999511719</ele>
        <time>2024-07-14T07:53:02.000Z</time>
      </trkpt>
      <trkpt lat="45.00134" lon="5.48602">
        <ele>1408</ele>
        <time>2024-07-14T07:53:03.000Z</time>
      </trkpt>
      <trkpt lat="45.00132" lon="5.48604">
        <ele>1407.8000488281</ele>
        <time>2024-07-14T07:53:04.000Z</time>
      </trkpt>
      <trkpt lat="45.00129" lon="5.48607">
        <ele>1407.4000244141</ele>
        <time>2024-07-14T07:53:05.000Z</time>
      </trkpt>
      <trkpt lat="45.00127" lon="5.4861">
        <ele>1407.4000244141</ele>
        <time>2024-07-14T07:53:06.000Z</time>
      </trkpt>
      <trkpt lat="45.00125" lon="5.48613">
        <ele>1407.1999511719</ele>
        <time>2024-07-14T07:53:07.000Z</time>
      </trkpt>
      <trkpt lat="45.00123" lon="5.48617">
        <ele>1407.1999511719</ele>
        <time>2024-07-14T07:53:08.000Z</time>
      </trkpt>
      <trkpt lat="45.00121" lon="5.48619">
        <ele>1407</ele>
        <time>2024-07-14T07:53:09.000Z</time>
      </trkpt>
      <trkpt lat="45.00119" lon="5.48622">
        <ele>1406.8000488281</ele>
        <time>2024-07-14T07:53:10.000Z</time>
      </trkpt>
      <trkpt lat="45.00117" lon="5.48625">
        <ele>1406.5999755859</ele>
        <time>2024-07-14T07:53:11.000Z</time>
      </trkpt>
      <trkpt lat="45.00116" lon="5.48628">
        <ele>1406.5999755859</ele>
        <time>2024-07-14T07:53:12.000Z</time>
      </trkpt>
      <trkpt lat="45.00114" lon="5.48631">
        <ele>1406.4000244141</ele>
        <time>2024-07-14T07:53:13.000Z</time>
      </trkpt>
      <trkpt lat="45.00112" lon="5.48634">
        <ele>1406</ele>
        <time>2024-07-14T07:53:14.000Z</time>
      </trkpt>
      <trkpt lat="45.0011" lon="5.48636">
        <ele>1405.8000488281</ele>
        <time>2024-07-14T07:53:15.000Z</time>
      </trkpt>
      <trkpt lat="45.00108" lon="5.48638">
        <ele>1405.5999755859</ele>
        <time>2024-07-14T07:53:16.000Z</time>
      </trkpt>
      <trkpt lat="45.00106" lon="5.48641">
        <ele>1405.5999755859</ele>
        <time>2024-07-14T07:53:17.000Z</time>
      </trkpt>
      <trkpt lat="45.00104" lon="5.48644">
        <ele>1405.5999755859</ele>
        <time>2024-07-14T07:53:18.000Z</time>
      </trkpt>
      <trkpt lat="45.00102" lon="5.48647">
        <ele>1405.4000244141</ele>
        <time>2024-07-14T07:53:19.000Z</time>
      </trkpt>
      <trkpt lat="45.001" lon="5.4865">
        <ele>1405.4000244141</ele>
        <time>2024-07-14T07:53:20.000Z</time>
      </trkpt>
      <trkpt lat="45.00098" lon="5.48652">
        <ele>1405.4000244141</ele>
        <time>2024-07-14T07:53:21.000Z</time>
      </trkpt>
      <trkpt lat="45.00095" lon="5.48655">
        <ele>1405.4000244141</ele>
        <time>2024-07-14T07:53:22.000Z</time>
      </trkpt>
      <trkpt lat="45.00093" lon="5.48657">
        <ele>1405</ele>
        <time>2024-07-14T07:53:23.000Z</time>
      </trkpt>
      <trkpt lat="45.0009" lon="5.4866">
        <ele>1405</ele>
        <time>2024-07-14T07:53:24.000Z</time>
      </trkpt>
      <trkpt lat="45.00088" lon="5.48663">
        <ele>1405</ele>
        <time>2024-07-14T07:53:25.000Z</time>
      </trkpt>
      <trkpt lat="45.00086" lon="5.48665">
        <ele>1404.8000488281</ele>
        <time>2024-07-14T07:53:26.000Z</time>
      </trkpt>
      <trkpt lat="45.00084" lon="5.48668">
        <ele>1404.5999755859</ele>
        <time>2024-07-14T07:53:27.000Z</time>
      </trkpt>
      <trkpt lat="45.00081" lon="5.4867">
        <ele>1404.5999755859</ele>
        <time>2024-07-14T07:53:28.000Z</time>
      </trkpt>
      <trkpt lat="45.00079" lon="5.48672">
        <ele>1404.4000244141</ele>
        <time>2024-07-14T07:53:29.000Z</time>
      </trkpt>
      <trkpt lat="45.00076" lon="5.48673">
        <ele>1404.4000244141</ele>
        <time>2024-07-14T07:53:30.000Z</time>
      </trkpt>
      <trkpt lat="45.00073" lon="5.48675">
        <ele>1404.4000244141</ele>
        <time>2024-07-14T07:53:31.000Z</time>
      </trkpt>
      <trkpt lat="45.00071" lon="5.48677">
        <ele>1404.1999511719</ele>
        <time>2024-07-14T07:53:32.000Z</time>
      </trkpt>
      <trkpt lat="45.00068" lon="5.48678">
        <ele>1404</ele>
        <time>2024-07-14T07:53:33.000Z</time>
      </trkpt>
      <trkpt lat="45.00065" lon="5.4868">
        <ele>1403.8000488281</ele>
        <time>2024-07-14T07:53:34.000Z</time>
      </trkpt>
      <trkpt lat="45.00063" lon="5.48683">
        <ele>1403.4000244141</ele>
        <time>2024-07-14T07:53:35.000Z</time>
      </trkpt>
      <trkpt lat="45.0006" lon="5.48686">
        <ele>1403.1999511719</ele>
        <time>2024-07-14T07:53:36.000Z</time>
      </trkpt>
      <trkpt lat="45.00057" lon="5.48689">
        <ele>1403</ele>
        <time>2024-07-14T07:53:37.000Z</time>
      </trkpt>
      <trkpt lat="45.00054" lon="5.48692">
        <ele>1402.8000488281</ele>
        <time>2024-07-14T07:53:38.000Z</time>
      </trkpt>
      <trkpt lat="45.00052" lon="5.48696">
        <ele>1402.8000488281</ele>
        <time>2024-07-14T07:53:39.000Z</time>
      </trkpt>
      <trkpt lat="45.00049" lon="5.48699">
        <ele>1402.5999755859</ele>
        <time>2024-07-14T07:53:40.000Z</time>
      </trkpt>
      <trkpt lat="45.00047" lon="5.48703">
        <ele>1402.4000244141</ele>
        <time>2024-07-14T07:53:41.000Z</time>
      </trkpt>
      <trkpt lat="45.00045" lon="5.48706">
        <ele>1402.1999511719</ele>
        <time>2024-07-14T07:53:42.000Z</time>
      </trkpt>
      <trkpt lat="45.00043" lon="5.48709">
        <ele>1402</ele>
        <time>2024-07-14T07:53:43.000Z</time>
      </trkpt>
      <trkpt lat="45.00041" lon="5.48712">
        <ele>1402</ele>
        <time>2024-07-14T07:53:44.000Z</time>
      </trkpt>
      <trkpt lat="45.0004" lon="5.48715">
        <ele>1401.5999755859</ele>
        <time>2024-07-14T07:53:45.000Z</time>
      </trkpt>
      <trkpt lat="45.00037" lon="5.48718">
        <ele>1401.4000244141</ele>
        <time>2024-07-14T07:53:46.000Z</time>
      </trkpt>
      <trkpt lat="45.00037" lon="5.48717">
        <ele>1401.4000244141</ele>
        <time>2024-07-14T07:53:47.000Z</time>
      </trkpt>
      <trkpt lat="45.00035" lon="5.48719">
        <ele>1401.4000244141</ele>
        <time>2024-07-14T07:53:48.000Z</time>
      </trkpt>
      <trkpt lat="45.00035" lon="5.4872">
        <ele>1401.1999511719</ele>
        <time>2024-07-14T07:53:49.000Z</time>
      </trkpt>
      <trkpt lat="45.00033" lon="5.48722">
        <ele>1401.1999511719</ele>
        <time>2024-07-14T07:53:50.000Z</time>
      </trkpt>
      <trkpt lat="45.0003" lon="5.48728">
        <ele>1401.1999511719</ele>
        <time>2024-07-14T07:53:51.000Z</time>
      </trkpt>
      <trkpt lat="45.00028" lon="5.48731">
        <ele>1401.1999511719</ele>
        <time>2024-07-14T07:53:52.000Z</time>
      </trkpt>
      <trkpt lat="45.00026" lon="5.48734">
        <ele>1401.1999511719</ele>
        <time>2024-07-14T07:53:53.000Z</time>
      </trkpt>
      <trkpt lat="45.00024" lon="5.48737">
        <ele>1401.1999511719</ele>
        <time>2024-07-14T07:53:54.000Z</time>
      </trkpt>
      <trkpt lat="45.00022" lon="5.48739">
        <ele>1401.1999511719</ele>
        <time>2024-07-14T07:53:55.000Z</time>
      </trkpt>
      <trkpt lat="45.0002" lon="5.48742">
        <ele>1401.1999511719</ele>
        <time>2024-07-14T07:53:56.000Z</time>
      </trkpt>
      <trkpt lat="45.00018" lon="5.48745">
        <ele>1401.1999511719</ele>
        <time>2024-07-14T07:53:57.000Z</time>
      </trkpt>
      <trkpt lat="45.00016" lon="5.48747">
        <ele>1401.1999511719</ele>
        <time>2024-07-14T07:53:58.000Z</time>
      </trkpt>
      <trkpt lat="45.00014" lon="5.48749">
        <ele>1401.1999511719</ele>
        <time>2024-07-14T07:53:59.000Z</time>
      </trkpt>
      <trkpt lat="45.00011" lon="5.48752">
        <ele>1401.1999511719</ele>
        <time>2024-07-14T07:54:00.000Z</time>
      </trkpt>
      <trkpt lat="45.00008" lon="5.48754">
        <ele>1401</ele>
        <time>2024-07-14T07:54:01.000Z</time>
      </trkpt>
      <trkpt lat="45.00006" lon="5.48756">
        <ele>1401</ele>
        <time>2024-07-14T07:54:02.000Z</time>
      </trkpt>
      <trkpt lat="45.00003" lon="5.48757">
        <ele>1401</ele>
        <time>2024-07-14T07:54:03.000Z</time>
      </trkpt>
      <trkpt lat="45" lon="5.48759">
        <ele>1401</ele>
        <time>2024-07-14T07:54:04.000Z</time>
      </trkpt>
      <trkpt lat="44.99997" lon="5.4876">
        <ele>1401</ele>
        <time>2024-07-14T07:54:05.000Z</time>
      </trkpt>
      <trkpt lat="44.99994" lon="5.48762">
        <ele>1400.8000488281</ele>
        <time>2024-07-14T07:54:06.000Z</time>
      </trkpt>
      <trkpt lat="44.99991" lon="5.48763">
        <ele>1400.5999755859</ele>
        <time>2024-07-14T07:54:07.000Z</time>
      </trkpt>
      <trkpt lat="44.99989" lon="5.48764">
        <ele>1400.1999511719</ele>
        <time>2024-07-14T07:54:08.000Z</time>
      </trkpt>
      <trkpt lat="44.99986" lon="5.48765">
        <ele>1400</ele>
        <time>2024-07-14T07:54:09.000Z</time>
      </trkpt>
      <trkpt lat="44.99984" lon="5.48766">
        <ele>1399.8000488281</ele>
        <time>2024-07-14T07:54:10.000Z</time>
      </trkpt>
      <trkpt lat="44.99981" lon="5.48767">
        <ele>1399.8000488281</ele>
        <time>2024-07-14T07:54:11.000Z</time>
      </trkpt>
      <trkpt lat="44.99978" lon="5.48769">
        <ele>1399.5999755859</ele>
        <time>2024-07-14T07:54:12.000Z</time>
      </trkpt>
      <trkpt lat="44.99975" lon="5.4877">
        <ele>1399.5999755859</ele>
        <time>2024-07-14T07:54:13.000Z</time>
      </trkpt>
      <trkpt lat="44.99972" lon="5.4877">
        <ele>1399.5999755859</ele>
        <time>2024-07-14T07:54:14.000Z</time>
      </trkpt>
      <trkpt lat="44.99969" lon="5.48771">
        <ele>1399.5999755859</ele>
        <time>2024-07-14T07:54:15.000Z</time>
      </trkpt>
      <trkpt lat="44.99966" lon="5.48771">
        <ele>1399.4000244141</ele>
        <time>2024-07-14T07:54:16.000Z</time>
      </trkpt>
      <trkpt lat="44.99964" lon="5.48771">
        <ele>1399.4000244141</ele>
        <time>2024-07-14T07:54:17.000Z</time>
      </trkpt>
      <trkpt lat="44.99961" lon="5.48771">
        <ele>1399.4000244141</ele>
        <time>2024-07-14T07:54:18.000Z</time>
      </trkpt>
      <trkpt lat="44.99957" lon="5.48772">
        <ele>1399.4000244141</ele>
        <time>2024-07-14T07:54:19.000Z</time>
      </trkpt>
      <trkpt lat="44.99954" lon="5.48772">
        <ele>1399.4000244141</ele>
        <time>2024-07-14T07:54:20.000Z</time>
      </trkpt>
      <trkpt lat="44.99952" lon="5.48773">
        <ele>1399.4000244141</ele>
        <time>2024-07-14T07:54:21.000Z</time>
      </trkpt>
      <trkpt lat="44.99948" lon="5.48773">
        <ele>1399.4000244141</ele>
        <time>2024-07-14T07:54:22.000Z</time>
      </trkpt>
      <trkpt lat="44.99946" lon="5.48773">
        <ele>1399.5999755859</ele>
        <time>2024-07-14T07:54:23.000Z</time>
      </trkpt>
      <trkpt lat="44.99943" lon="5.48774">
        <ele>1399.4000244141</ele>
        <time>2024-07-14T07:54:24.000Z</time>
      </trkpt>
      <trkpt lat="44.99941" lon="5.48775">
        <ele>1399.4000244141</ele>
        <time>2024-07-14T07:54:25.000Z</time>
      </trkpt>
      <trkpt lat="44.99939" lon="5.48775">
        <ele>1399.4000244141</ele>
        <time>2024-07-14T07:54:26.000Z</time>
      </trkpt>
      <trkpt lat="44.99936" lon="5.48777">
        <ele>1399.4000244141</ele>
        <time>2024-07-14T07:54:27.000Z</time>
      </trkpt>
      <trkpt lat="44.99934" lon="5.48778">
        <ele>1399.4000244141</ele>
        <time>2024-07-14T07:54:28.000Z</time>
      </trkpt>
      <trkpt lat="44.99932" lon="5.48779">
        <ele>1399.1999511719</ele>
        <time>2024-07-14T07:54:29.000Z</time>
      </trkpt>
      <trkpt lat="44.9993" lon="5.4878">
        <ele>1399.1999511719</ele>
        <time>2024-07-14T07:54:30.000Z</time>
      </trkpt>
      <trkpt lat="44.99928" lon="5.48781">
        <ele>1398.8000488281</ele>
        <time>2024-07-14T07:54:31.000Z</time>
      </trkpt>
      <trkpt lat="44.99926" lon="5.48782">
        <ele>1398.5999755859</ele>
        <time>2024-07-14T07:54:32.000Z</time>
      </trkpt>
      <trkpt lat="44.99924" lon="5.48784">
        <ele>1398.4000244141</ele>
        <time>2024-07-14T07:54:33.000Z</time>
      </trkpt>
      <trkpt lat="44.99922" lon="5.48786">
        <ele>1398</ele>
        <time>2024-07-14T07:54:34.000Z</time>
      </trkpt>
      <trkpt lat="44.99919" lon="5.48788">
        <ele>1397.8000488281</ele>
        <time>2024-07-14T07:54:35.000Z</time>
      </trkpt>
      <trkpt lat="44.99917" lon="5.4879">
        <ele>1397.5999755859</ele>
        <time>2024-07-14T07:54:36.000Z</time>
      </trkpt>
      <trkpt lat="44.99914" lon="5.48792">
        <ele>1397.4000244141</ele>
        <time>2024-07-14T07:54:37.000Z</time>
      </trkpt>
      <trkpt lat="44.99912" lon="5.48794">
        <ele>1396.5999755859</ele>
        <time>2024-07-14T07:54:38.000Z</time>
      </trkpt>
      <trkpt lat="44.9991" lon="5.48795">
        <ele>1396.4000244141</ele>
        <time>2024-07-14T07:54:39.000Z</time>
      </trkpt>
      <trkpt lat="44.99908" lon="5.48796">
        <ele>1396</ele>
        <time>2024-07-14T07:54:40.000Z</time>
      </trkpt>
      <trkpt lat="44.99906" lon="5.48797">
        <ele>1395.8000488281</ele>
        <time>2024-07-14T07:54:41.000Z</time>
      </trkpt>
      <trkpt lat="44.99903" lon="5.48798">
        <ele>1395.5999755859</ele>
        <time>2024-07-14T07:54:42.000Z</time>
      </trkpt>
      <trkpt lat="44.99901" lon="5.48799">
        <ele>1395.4000244141</ele>
        <time>2024-07-14T07:54:43.000Z</time>
      </trkpt>
      <trkpt lat="44.99899" lon="5.48801">
        <ele>1395</ele>
        <time>2024-07-14T07:54:44.000Z</time>
      </trkpt>
      <trkpt lat="44.99896" lon="5.48802">
        <ele>1395</ele>
        <time>2024-07-14T07:54:45.000Z</time>
      </trkpt>
      <trkpt lat="44.99894" lon="5.48803">
        <ele>1394.5999755859</ele>
        <time>2024-07-14T07:54:46.000Z</time>
      </trkpt>
      <trkpt lat="44.99891" lon="5.48804">
        <ele>1394.5999755859</ele>
        <time>2024-07-14T07:54:47.000Z</time>
      </trkpt>
      <trkpt lat="44.99888" lon="5.48806">
        <ele>1394.4000244141</ele>
        <time>2024-07-14T07:54:48.000Z</time>
      </trkpt>
      <trkpt lat="44.99886" lon="5.48808">
        <ele>1394.1999511719</ele>
        <time>2024-07-14T07:54:49.000Z</time>
      </trkpt>
      <trkpt lat="44.99883" lon="5.4881">
        <ele>1394</ele>
        <time>2024-07-14T07:54:50.000Z</time>
      </trkpt>
      <trkpt lat="44.99881" lon="5.48812">
        <ele>1393.8000488281</ele>
        <time>2024-07-14T07:54:51.000Z</time>
      </trkpt>
      <trkpt lat="44.99878" lon="5.48814">
        <ele>1393.5999755859</ele>
        <time>2024-07-14T07:54:52.000Z</time>
      </trkpt>
      <trkpt lat="44.99876" lon="5.48816">
        <ele>1393.1999511719</ele>
        <time>2024-07-14T07:54:53.000Z</time>
      </trkpt>
      <trkpt lat="44.99873" lon="5.48819">
        <ele>1393.1999511719</ele>
        <time>2024-07-14T07:54:54.000Z</time>
      </trkpt>
      <trkpt lat="44.99871" lon="5.48821">
        <ele>1392.8000488281</ele>
        <time>2024-07-14T07:54:55.000Z</time>
      </trkpt>
      <trkpt lat="44.99868" lon="5.48824">
        <ele>1392.5999755859</ele>
        <time>2024-07-14T07:54:56.000Z</time>
      </trkpt>
      <trkpt lat="44.99866" lon="5.48826">
        <ele>1392.1999511719</ele>
        <time>2024-07-14T07:54:57.000Z</time>
      </trkpt>
      <trkpt lat="44.99864" lon="5.48829">
        <ele>1392.1999511719</ele>
        <time>2024-07-14T07:54:58.000Z</time>
      </trkpt>
      <trkpt lat="44.99862" lon="5.48831">
        <ele>1392</ele>
        <time>2024-07-14T07:54:59.000Z</time>
      </trkpt>
      <trkpt lat="44.9986" lon="5.48834">
        <ele>1391.5999755859</ele>
        <time>2024-07-14T07:55:00.000Z</time>
      </trkpt>
      <trkpt lat="44.99857" lon="5.48836">
        <ele>1391.5999755859</ele>
        <time>2024-07-14T07:55:01.000Z</time>
      </trkpt>
      <trkpt lat="44.99855" lon="5.48839">
        <ele>1391.1999511719</ele>
        <time>2024-07-14T07:55:02.000Z</time>
      </trkpt>
      <trkpt lat="44.99853" lon="5.48841">
        <ele>1391</ele>
        <time>2024-07-14T07:55:03.000Z</time>
      </trkpt>
      <trkpt lat="44.99851" lon="5.48843">
        <ele>1390.8000488281</ele>
        <time>2024-07-14T07:55:04.000Z</time>
      </trkpt>
      <trkpt lat="44.99849" lon="5.48845">
        <ele>1390.5999755859</ele>
        <time>2024-07-14T07:55:05.000Z</time>
      </trkpt>
      <trkpt lat="44.99847" lon="5.48847">
        <ele>1390.4000244141</ele>
        <time>2024-07-14T07:55:06.000Z</time>
      </trkpt>
      <trkpt lat="44.99844" lon="5.4885">
        <ele>1390.1999511719</ele>
        <time>2024-07-14T07:55:07.000Z</time>
      </trkpt>
      <trkpt lat="44.99841" lon="5.48852">
        <ele>1389.8000488281</ele>
        <time>2024-07-14T07:55:08.000Z</time>
      </trkpt>
      <trkpt lat="44.99838" lon="5.48854">
        <ele>1389.8000488281</ele>
        <time>2024-07-14T07:55:09.000Z</time>
      </trkpt>
      <trkpt lat="44.99835" lon="5.48855">
        <ele>1389.5999755859</ele>
        <time>2024-07-14T07:55:10.000Z</time>
      </trkpt>
      <trkpt lat="44.99833" lon="5.48857">
        <ele>1389.4000244141</ele>
        <time>2024-07-14T07:55:11.000Z</time>
      </trkpt>
      <trkpt lat="44.9983" lon="5.48858">
        <ele>1389.1999511719</ele>
        <time>2024-07-14T07:55:12.000Z</time>
      </trkpt>
      <trkpt lat="44.99828" lon="5.4886">
        <ele>1388.8000488281</ele>
        <time>2024-07-14T07:55:13.000Z</time>
      </trkpt>
      <trkpt lat="44.99826" lon="5.48861">
        <ele>1388.5999755859</ele>
        <time>2024-07-14T07:55:14.000Z</time>
      </trkpt>
      <trkpt lat="44.99824" lon="5.48863">
        <ele>1388.4000244141</ele>
        <time>2024-07-14T07:55:15.000Z</time>
      </trkpt>
      <trkpt lat="44.99821" lon="5.48865">
        <ele>1388.1999511719</ele>
        <time>2024-07-14T07:55:16.000Z</time>
      </trkpt>
      <trkpt lat="44.99819" lon="5.48866">
        <ele>1387.8000488281</ele>
        <time>2024-07-14T07:55:17.000Z</time>
      </trkpt>
      <trkpt lat="44.99817" lon="5.48868">
        <ele>1387.5999755859</ele>
        <time>2024-07-14T07:55:18.000Z</time>
      </trkpt>
      <trkpt lat="44.99815" lon="5.48869">
        <ele>1387</ele>
        <time>2024-07-14T07:55:19.000Z</time>
      </trkpt>
      <trkpt lat="44.99813" lon="5.48871">
        <ele>1386.4000244141</ele>
        <time>2024-07-14T07:55:20.000Z</time>
      </trkpt>
      <trkpt lat="44.99811" lon="5.48873">
        <ele>1386.1999511719</ele>
        <time>2024-07-14T07:55:21.000Z</time>
      </trkpt>
      <trkpt lat="44.9981" lon="5.48875">
        <ele>1385.8000488281</ele>
        <time>2024-07-14T07:55:22.000Z</time>
      </trkpt>
      <trkpt lat="44.99808" lon="5.48878">
        <ele>1385.4000244141</ele>
        <time>2024-07-14T07:55:23.000Z</time>
      </trkpt>
      <trkpt lat="44.99807" lon="5.48881">
        <ele>1385</ele>
        <time>2024-07-14T07:55:24.000Z</time>
      </trkpt>
      <trkpt lat="44.99806" lon="5.48883">
        <ele>1384.5999755859</ele>
        <time>2024-07-14T07:55:25.000Z</time>
      </trkpt>
      <trkpt lat="44.99804" lon="5.48886">
        <ele>1384.1999511719</ele>
        <time>2024-07-14T07:55:26.000Z</time>
      </trkpt>
      <trkpt lat="44.99802" lon="5.48889">
        <ele>1384.1999511719</ele>
        <time>2024-07-14T07:55:27.000Z</time>
      </trkpt>
      <trkpt lat="44.99801" lon="5.48891">
        <ele>1383.8000488281</ele>
        <time>2024-07-14T07:55:28.000Z</time>
      </trkpt>
      <trkpt lat="44.99799" lon="5.48894">
        <ele>1383.1999511719</ele>
        <time>2024-07-14T07:55:29.000Z</time>
      </trkpt>
      <trkpt lat="44.99797" lon="5.48896">
        <ele>1382.8000488281</ele>
        <time>2024-07-14T07:55:30.000Z</time>
      </trkpt>
      <trkpt lat="44.99795" lon="5.48899">
        <ele>1382.4000244141</ele>
        <time>2024-07-14T07:55:31.000Z</time>
      </trkpt>
      <trkpt lat="44.99793" lon="5.48901">
        <ele>1382</ele>
        <time>2024-07-14T07:55:32.000Z</time>
      </trkpt>
      <trkpt lat="44.99791" lon="5.48904">
        <ele>1381.4000244141</ele>
        <time>2024-07-14T07:55:33.000Z</time>
      </trkpt>
      <trkpt lat="44.99789" lon="5.48907">
        <ele>1381.1999511719</ele>
        <time>2024-07-14T07:55:34.000Z</time>
      </trkpt>
      <trkpt lat="44.99787" lon="5.4891">
        <ele>1381</ele>
        <time>2024-07-14T07:55:35.000Z</time>
      </trkpt>
      <trkpt lat="44.99785" lon="5.48913">
        <ele>1380.8000488281</ele>
        <time>2024-07-14T07:55:36.000Z</time>
      </trkpt>
      <trkpt lat="44.99783" lon="5.48916">
        <ele>1380.8000488281</ele>
        <time>2024-07-14T07:55:37.000Z</time>
      </trkpt>
      <trkpt lat="44.99782" lon="5.48919">
        <ele>1380.8000488281</ele>
        <time>2024-07-14T07:55:38.000Z</time>
      </trkpt>
      <trkpt lat="44.9978" lon="5.48921">
        <ele>1380.5999755859</ele>
        <time>2024-07-14T07:55:39.000Z</time>
      </trkpt>
      <trkpt lat="44.99778" lon="5.48924">
        <ele>1380.5999755859</ele>
        <time>2024-07-14T07:55:40.000Z</time>
      </trkpt>
      <trkpt lat="44.99776" lon="5.48927">
        <ele>1380.5999755859</ele>
        <time>2024-07-14T07:55:41.000Z</time>
      </trkpt>
      <trkpt lat="44.99774" lon="5.4893">
        <ele>1380.5999755859</ele>
        <time>2024-07-14T07:55:42.000Z</time>
      </trkpt>
      <trkpt lat="44.99773" lon="5.48933">
        <ele>1380.8000488281</ele>
        <time>2024-07-14T07:55:43.000Z</time>
      </trkpt>
      <trkpt lat="44.99771" lon="5.48936">
        <ele>1380.8000488281</ele>
        <time>2024-07-14T07:55:44.000Z</time>
      </trkpt>
      <trkpt lat="44.9977" lon="5.48939">
        <ele>1380.8000488281</ele>
        <time>2024-07-14T07:55:45.000Z</time>
      </trkpt>
      <trkpt lat="44.99768" lon="5.48941">
        <ele>1381.1999511719</ele>
        <time>2024-07-14T07:55:46.000Z</time>
      </trkpt>
      <trkpt lat="44.99767" lon="5.48943">
        <ele>1381.1999511719</ele>
        <time>2024-07-14T07:55:47.000Z</time>
      </trkpt>
      <trkpt lat="44.99765" lon="5.48945">
        <ele>1381.5999755859</ele>
        <time>2024-07-14T07:55:48.000Z</time>
      </trkpt>
      <trkpt lat="44.99763" lon="5.48947">
        <ele>1381.5999755859</ele>
        <time>2024-07-14T07:55:49.000Z</time>
      </trkpt>
      <trkpt lat="44.99761" lon="5.48949">
        <ele>1381.8000488281</ele>
        <time>2024-07-14T07:55:50.000Z</time>
      </trkpt>
      <trkpt lat="44.99759" lon="5.4895">
        <ele>1382.1999511719</ele>
        <time>2024-07-14T07:55:51.000Z</time>
      </trkpt>
      <trkpt lat="44.99758" lon="5.48951">
        <ele>1382.4000244141</ele>
        <time>2024-07-14T07:55:52.000Z</time>
      </trkpt>
      <trkpt lat="44.99755" lon="5.48952">
        <ele>1382.5999755859</ele>
        <time>2024-07-14T07:55:53.000Z</time>
      </trkpt>
      <trkpt lat="44.99753" lon="5.48952">
        <ele>1383</ele>
        <time>2024-07-14T07:55:54.000Z</time>
      </trkpt>
      <trkpt lat="44.99751" lon="5.48952">
        <ele>1383.1999511719</ele>
        <time>2024-07-14T07:55:55.000Z</time>
      </trkpt>
      <trkpt lat="44.99749" lon="5.48953">
        <ele>1383.4000244141</ele>
        <time>2024-07-14T07:55:56.000Z</time>
      </trkpt>
      <trkpt lat="44.99747" lon="5.48954">
        <ele>1383.4000244141</ele>
        <time>2024-07-14T07:55:57.000Z</time>
      </trkpt>
      <trkpt lat="44.99744" lon="5.48954">
        <ele>1383.8000488281</ele>
        <time>2024-07-14T07:55:58.000Z</time>
      </trkpt>
      <trkpt lat="44.99742" lon="5.48955">
        <ele>1383.8000488281</ele>
        <time>2024-07-14T07:55:59.000Z</time>
      </trkpt>
      <trkpt lat="44.9974" lon="5.48956">
        <ele>1383.8000488281</ele>
        <time>2024-07-14T07:56:00.000Z</time>
      </trkpt>
      <trkpt lat="44.99738" lon="5.48957">
        <ele>1383.8000488281</ele>
        <time>2024-07-14T07:56:01.000Z</time>
      </trkpt>
      <trkpt lat="44.99736" lon="5.48958">
        <ele>1383.8000488281</ele>
        <time>2024-07-14T07:56:02.000Z</time>
      </trkpt>
      <trkpt lat="44.99733" lon="5.48959">
        <ele>1384</ele>
        <time>2024-07-14T07:56:03.000Z</time>
      </trkpt>
      <trkpt lat="44.99731" lon="5.48959">
        <ele>1384</ele>
        <time>2024-07-14T07:56:04.000Z</time>
      </trkpt>
      <trkpt lat="44.99729" lon="5.4896">
        <ele>1384</ele>
        <time>2024-07-14T07:56:05.000Z</time>
      </trkpt>
      <trkpt lat="44.99727" lon="5.48961">
        <ele>1384.1999511719</ele>
        <time>2024-07-14T07:56:06.000Z</time>
      </trkpt>
      <trkpt lat="44.99724" lon="5.48961">
        <ele>1384.1999511719</ele>
        <time>2024-07-14T07:56:07.000Z</time>
      </trkpt>
      <trkpt lat="44.99722" lon="5.48962">
        <ele>1384.4000244141</ele>
        <time>2024-07-14T07:56:08.000Z</time>
      </trkpt>
      <trkpt lat="44.9972" lon="5.48964">
        <ele>1384.4000244141</ele>
        <time>2024-07-14T07:56:09.000Z</time>
      </trkpt>
      <trkpt lat="44.99718" lon="5.48965">
        <ele>1384.4000244141</ele>
        <time>2024-07-14T07:56:10.000Z</time>
      </trkpt>
      <trkpt lat="44.99715" lon="5.48966">
        <ele>1384.4000244141</ele>
        <time>2024-07-14T07:56:11.000Z</time>
      </trkpt>
      <trkpt lat="44.99713" lon="5.48966">
        <ele>1384.4000244141</ele>
        <time>2024-07-14T07:56:12.000Z</time>
      </trkpt>
      <trkpt lat="44.99711" lon="5.48967">
        <ele>1384.4000244141</ele>
        <time>2024-07-14T07:56:13.000Z</time>
      </trkpt>
      <trkpt lat="44.99709" lon="5.48969">
        <ele>1384.4000244141</ele>
        <time>2024-07-14T07:56:14.000Z</time>
      </trkpt>
      <trkpt lat="44.99707" lon="5.48971">
        <ele>1384.4000244141</ele>
        <time>2024-07-14T07:56:15.000Z</time>
      </trkpt>
      <trkpt lat="44.99705" lon="5.48972">
        <ele>1384.4000244141</ele>
        <time>2024-07-14T07:56:16.000Z</time>
      </trkpt>
      <trkpt lat="44.99703" lon="5.48974">
        <ele>1384.4000244141</ele>
        <time>2024-07-14T07:56:17.000Z</time>
      </trkpt>
      <trkpt lat="44.99701" lon="5.48975">
        <ele>1384.4000244141</ele>
        <time>2024-07-14T07:56:18.000Z</time>
      </trkpt>
      <trkpt lat="44.99699" lon="5.48977">
        <ele>1384.5999755859</ele>
        <time>2024-07-14T07:56:19.000Z</time>
      </trkpt>
      <trkpt lat="44.99697" lon="5.48978">
        <ele>1384.5999755859</ele>
        <time>2024-07-14T07:56:20.000Z</time>
      </trkpt>
      <trkpt lat="44.99696" lon="5.4898">
        <ele>1384.5999755859</ele>
        <time>2024-07-14T07:56:21.000Z</time>
      </trkpt>
      <trkpt lat="44.99694" lon="5.48981">
        <ele>1384.5999755859</ele>
        <time>2024-07-14T07:56:22.000Z</time>
      </trkpt>
      <trkpt lat="44.99692" lon="5.48983">
        <ele>1384.8000488281</ele>
        <time>2024-07-14T07:56:23.000Z</time>
      </trkpt>
      <trkpt lat="44.9969" lon="5.48985">
        <ele>1384.8000488281</ele>
        <time>2024-07-14T07:56:24.000Z</time>
      </trkpt>
      <trkpt lat="44.99689" lon="5.48987">
        <ele>1384.8000488281</ele>
        <time>2024-07-14T07:56:25.000Z</time>
      </trkpt>
      <trkpt lat="44.99688" lon="5.48989">
        <ele>1385</ele>
        <time>2024-07-14T07:56:26.000Z</time>
      </trkpt>
      <trkpt lat="44.99686" lon="5.48991">
        <ele>1385.1999511719</ele>
        <time>2024-07-14T07:56:27.000Z</time>
      </trkpt>
      <trkpt lat="44.99684" lon="5.48993">
        <ele>1385.1999511719</ele>
        <time>2024-07-14T07:56:28.000Z</time>
      </trkpt>
      <trkpt lat="44.99683" lon="5.48995">
        <ele>1385.4000244141</ele>
        <time>2024-07-14T07:56:29.000Z</time>
      </trkpt>
      <trkpt lat="44.99681" lon="5.48997">
        <ele>1385.8000488281</ele>
        <time>2024-07-14T07:56:30.000Z</time>
      </trkpt>
      <trkpt lat="44.99679" lon="5.48999">
        <ele>1385.8000488281</ele>
        <time>2024-07-14T07:56:31.000Z</time>
      </trkpt>
      <trkpt lat="44.99676" lon="5.49001">
        <ele>1385.8000488281</ele>
        <time>2024-07-14T07:56:32.000Z</time>
      </trkpt>
      <trkpt lat="44.99675" lon="5.49002">
        <ele>1386</ele>
        <time>2024-07-14T07:56:33.000Z</time>
      </trkpt>
      <trkpt lat="44.99673" lon="5.49004">
        <ele>1386</ele>
        <time>2024-07-14T07:56:34.000Z</time>
      </trkpt>
      <trkpt lat="44.99671" lon="5.49006">
        <ele>1386</ele>
        <time>2024-07-14T07:56:35.000Z</time>
      </trkpt>
      <trkpt lat="44.99669" lon="5.49007">
        <ele>1386</ele>
        <time>2024-07-14T07:56:36.000Z</time>
      </trkpt>
      <trkpt lat="44.99667" lon="5.49009">
        <ele>1386</ele>
        <time>2024-07-14T07:56:37.000Z</time>
      </trkpt>
      <trkpt lat="44.99665" lon="5.4901">
        <ele>1386.1999511719</ele>
        <time>2024-07-14T07:56:38.000Z</time>
      </trkpt>
      <trkpt lat="44.99663" lon="5.49011">
        <ele>1386.1999511719</ele>
        <time>2024-07-14T07:56:39.000Z</time>
      </trkpt>
      <trkpt lat="44.9966" lon="5.49012">
        <ele>1386.4000244141</ele>
        <time>2024-07-14T07:56:40.000Z</time>
      </trkpt>
      <trkpt lat="44.99658" lon="5.49014">
        <ele>1386.4000244141</ele>
        <time>2024-07-14T07:56:41.000Z</time>
      </trkpt>
      <trkpt lat="44.99655" lon="5.49016">
        <ele>1386.4000244141</ele>
        <time>2024-07-14T07:56:42.000Z</time>
      </trkpt>
      <trkpt lat="44.99653" lon="5.49018">
        <ele>1386.5999755859</ele>
        <time>2024-07-14T07:56:43.000Z</time>
      </trkpt>
      <trkpt lat="44.99651" lon="5.49021">
        <ele>1386.5999755859</ele>
        <time>2024-07-14T07:56:44.000Z</time>
      </trkpt>
      <trkpt lat="44.99649" lon="5.49023">
        <ele>1386.5999755859</ele>
        <time>2024-07-14T07:56:45.000Z</time>
      </trkpt>
      <trkpt lat="44.99646" lon="5.49025">
        <ele>1386.5999755859</ele>
        <time>2024-07-14T07:56:46.000Z</time>
      </trkpt>
      <trkpt lat="44.99644" lon="5.49028">
        <ele>1386.5999755859</ele>
        <time>2024-07-14T07:56:47.000Z</time>
      </trkpt>
      <trkpt lat="44.99642" lon="5.4903">
        <ele>1386.5999755859</ele>
        <time>2024-07-14T07:56:48.000Z</time>
      </trkpt>
      <trkpt lat="44.9964" lon="5.49031">
        <ele>1386.5999755859</ele>
        <time>2024-07-14T07:56:49.000Z</time>
      </trkpt>
      <trkpt lat="44.99637" lon="5.49033">
        <ele>1386.5999755859</ele>
        <time>2024-07-14T07:56:50.000Z</time>
      </trkpt>
      <trkpt lat="44.99635" lon="5.49034">
        <ele>1386.5999755859</ele>
        <time>2024-07-14T07:56:51.000Z</time>
      </trkpt>
      <trkpt lat="44.99633" lon="5.49035">
        <ele>1386.5999755859</ele>
        <time>2024-07-14T07:56:52.000Z</time>
      </trkpt>
      <trkpt lat="44.9963" lon="5.49036">
        <ele>1386.4000244141</ele>
        <time>2024-07-14T07:56:53.000Z</time>
      </trkpt>
      <trkpt lat="44.99628" lon="5.49038">
        <ele>1386.4000244141</ele>
        <time>2024-07-14T07:56:54.000Z</time>
      </trkpt>
      <trkpt lat="44.99626" lon="5.49039">
        <ele>1386.4000244141</ele>
        <time>2024-07-14T07:56:55.000Z</time>
      </trkpt>
      <trkpt lat="44.99623" lon="5.4904">
        <ele>1386.5999755859</ele>
        <time>2024-07-14T07:56:56.000Z</time>
      </trkpt>
      <trkpt lat="44.99621" lon="5.49041">
        <ele>1386.5999755859</ele>
        <time>2024-07-14T07:56:57.000Z</time>
      </trkpt>
      <trkpt lat="44.99619" lon="5.49042">
        <ele>1386.8000488281</ele>
        <time>2024-07-14T07:56:58.000Z</time>
      </trkpt>
      <trkpt lat="44.99617" lon="5.49043">
        <ele>1387</ele>
        <time>2024-07-14T07:56:59.000Z</time>
      </trkpt>
      <trkpt lat="44.99615" lon="5.49044">
        <ele>1387.4000244141</ele>
        <time>2024-07-14T07:57:00.000Z</time>
      </trkpt>
      <trkpt lat="44.99613" lon="5.49045">
        <ele>1387.4000244141</ele>
        <time>2024-07-14T07:57:01.000Z</time>
      </trkpt>
      <trkpt lat="44.99611" lon="5.49046">
        <ele>1387.4000244141</ele>
        <time>2024-07-14T07:57:02.000Z</time>
      </trkpt>
      <trkpt lat="44.99608" lon="5.49047">
        <ele>1387.4000244141</ele>
        <time>2024-07-14T07:57:03.000Z</time>
      </trkpt>
      <trkpt lat="44.99606" lon="5.49048">
        <ele>1387.4000244141</ele>
        <time>2024-07-14T07:57:04.000Z</time>
      </trkpt>
      <trkpt lat="44.99604" lon="5.49049">
        <ele>1387.1999511719</ele>
        <time>2024-07-14T07:57:05.000Z</time>
      </trkpt>
      <trkpt lat="44.99602" lon="5.4905">
        <ele>1387.1999511719</ele>
        <time>2024-07-14T07:57:06.000Z</time>
      </trkpt>
      <trkpt lat="44.996" lon="5.49052">
        <ele>1387.1999511719</ele>
        <time>2024-07-14T07:57:07.000Z</time>
      </trkpt>
      <trkpt lat="44.99598" lon="5.49053">
        <ele>1387</ele>
        <time>2024-07-14T07:57:08.000Z</time>
      </trkpt>
      <trkpt lat="44.99597" lon="5.49055">
        <ele>1387</ele>
        <time>2024-07-14T07:57:09.000Z</time>
      </trkpt>
      <trkpt lat="44.99594" lon="5.49056">
        <ele>1387.1999511719</ele>
        <time>2024-07-14T07:57:10.000Z</time>
      </trkpt>
      <trkpt lat="44.99592" lon="5.49058">
        <ele>1387.1999511719</ele>
        <time>2024-07-14T07:57:11.000Z</time>
      </trkpt>
      <trkpt lat="44.9959" lon="5.49059">
        <ele>1387.1999511719</ele>
        <time>2024-07-14T07:57:12.000Z</time>
      </trkpt>
      <trkpt lat="44.99588" lon="5.49061">
        <ele>1387.1999511719</ele>
        <time>2024-07-14T07:57:13.000Z</time>
      </trkpt>
      <trkpt lat="44.99586" lon="5.49062">
        <ele>1387.5999755859</ele>
        <time>2024-07-14T07:57:14.000Z</time>
      </trkpt>
      <trkpt lat="44.99584" lon="5.49063">
        <ele>1388</ele>
        <time>2024-07-14T07:57:15.000Z</time>
      </trkpt>
      <trkpt lat="44.99582" lon="5.49064">
        <ele>1388</ele>
        <time>2024-07-14T07:57:16.000Z</time>
      </trkpt>
      <trkpt lat="44.9958" lon="5.49065">
        <ele>1388.1999511719</ele>
        <time>2024-07-14T07:57:17.000Z</time>
      </trkpt>
      <trkpt lat="44.99577" lon="5.49066">
        <ele>1388.1999511719</ele>
        <time>2024-07-14T07:57:18.000Z</time>
      </trkpt>
      <trkpt lat="44.99575" lon="5.49067">
        <ele>1388.4000244141</ele>
        <time>2024-07-14T07:57:19.000Z</time>
      </trkpt>
      <trkpt lat="44.99573" lon="5.49068">
        <ele>1388.4000244141</ele>
        <time>2024-07-14T07:57:20.000Z</time>
      </trkpt>
      <trkpt lat="44.9957" lon="5.49069">
        <ele>1388.4000244141</ele>
        <time>2024-07-14T07:57:21.000Z</time>
      </trkpt>
      <trkpt lat="44.99567" lon="5.4907">
        <ele>1388.4000244141</ele>
        <time>2024-07-14T07:57:22.000Z</time>
      </trkpt>
      <trkpt lat="44.99564" lon="5.49071">
        <ele>1388.4000244141</ele>
        <time>2024-07-14T07:57:23.000Z</time>
      </trkpt>
      <trkpt lat="44.99561" lon="5.49072">
        <ele>1388.4000244141</ele>
        <time>2024-07-14T07:57:24.000Z</time>
      </trkpt>
      <trkpt lat="44.99559" lon="5.49073">
        <ele>1388.5999755859</ele>
        <time>2024-07-14T07:57:25.000Z</time>
      </trkpt>
      <trkpt lat="44.99557" lon="5.49075">
        <ele>1388.5999755859</ele>
        <time>2024-07-14T07:57:26.000Z</time>
      </trkpt>
      <trkpt lat="44.99555" lon="5.49076">
        <ele>1388.8000488281</ele>
        <time>2024-07-14T07:57:27.000Z</time>
      </trkpt>
      <trkpt lat="44.99554" lon="5.49077">
        <ele>1389</ele>
        <time>2024-07-14T07:57:28.000Z</time>
      </trkpt>
      <trkpt lat="44.99552" lon="5.49079">
        <ele>1389.1999511719</ele>
        <time>2024-07-14T07:57:29.000Z</time>
      </trkpt>
      <trkpt lat="44.99551" lon="5.4908">
        <ele>1389.4000244141</ele>
        <time>2024-07-14T07:57:30.000Z</time>
      </trkpt>
      <trkpt lat="44.99549" lon="5.49081">
        <ele>1389.8000488281</ele>
        <time>2024-07-14T07:57:31.000Z</time>
      </trkpt>
      <trkpt lat="44.99547" lon="5.49083">
        <ele>1390</ele>
        <time>2024-07-14T07:57:32.000Z</time>
      </trkpt>
      <trkpt lat="44.99545" lon="5.49085">
        <ele>1390.1999511719</ele>
        <time>2024-07-14T07:57:33.000Z</time>
      </trkpt>
      <trkpt lat="44.99543" lon="5.49086">
        <ele>1390.4000244141</ele>
        <time>2024-07-14T07:57:34.000Z</time>
      </trkpt>
      <trkpt lat="44.99541" lon="5.49087">
        <ele>1390.5999755859</ele>
        <time>2024-07-14T07:57:35.000Z</time>
      </trkpt>
      <trkpt lat="44.99539" lon="5.49088">
        <ele>1390.8000488281</ele>
        <time>2024-07-14T07:57:36.000Z</time>
      </trkpt>
      <trkpt lat="44.99537" lon="5.49089">
        <ele>1391</ele>
        <time>2024-07-14T07:57:37.000Z</time>
      </trkpt>
      <trkpt lat="44.99535" lon="5.4909">
        <ele>1391.1999511719</ele>
        <time>2024-07-14T07:57:38.000Z</time>
      </trkpt>
      <trkpt lat="44.99532" lon="5.4909">
        <ele>1391.1999511719</ele>
        <time>2024-07-14T07:57:39.000Z</time>
      </trkpt>
      <trkpt lat="44.9953" lon="5.49091">
        <ele>1391.1999511719</ele>
        <time>2024-07-14T07:57:40.000Z</time>
      </trkpt>
      <trkpt lat="44.99527" lon="5.49092">
        <ele>1391.1999511719</ele>
        <time>2024-07-14T07:57:41.000Z</time>
      </trkpt>
      <trkpt lat="44.99525" lon="5.49093">
        <ele>1391.4000244141</ele>
        <time>2024-07-14T07:57:42.000Z</time>
      </trkpt>
      <trkpt lat="44.99522" lon="5.49094">
        <ele>1391.4000244141</ele>
        <time>2024-07-14T07:57:43.000Z</time>
      </trkpt>
      <trkpt lat="44.9952" lon="5.49095">
        <ele>1391.4000244141</ele>
        <time>2024-07-14T07:57:44.000Z</time>
      </trkpt>
      <trkpt lat="44.99519" lon="5.49095">
        <ele>1391.5999755859</ele>
        <time>2024-07-14T07:57:45.000Z</time>
      </trkpt>
      <trkpt lat="44.99517" lon="5.49097">
        <ele>1391.8000488281</ele>
        <time>2024-07-14T07:57:46.000Z</time>
      </trkpt>
      <trkpt lat="44.99516" lon="5.49098">
        <ele>1392.1999511719</ele>
        <time>2024-07-14T07:57:47.000Z</time>
      </trkpt>
      <trkpt lat="44.99514" lon="5.49098">
        <ele>1392.1999511719</ele>
        <time>2024-07-14T07:57:48.000Z</time>
      </trkpt>
      <trkpt lat="44.99513" lon="5.49099">
        <ele>1392.5999755859</ele>
        <time>2024-07-14T07:57:49.000Z</time>
      </trkpt>
      <trkpt lat="44.99512" lon="5.49101">
        <ele>1392.8000488281</ele>
        <time>2024-07-14T07:57:50.000Z</time>
      </trkpt>
      <trkpt lat="44.99511" lon="5.49102">
        <ele>1393</ele>
        <time>2024-07-14T07:57:51.000Z</time>
      </trkpt>
      <trkpt lat="44.99511" lon="5.49103">
        <ele>1393.4000244141</ele>
        <time>2024-07-14T07:57:52.000Z</time>
      </trkpt>
      <trkpt lat="44.99509" lon="5.49105">
        <ele>1394</ele>
        <time>2024-07-14T07:57:53.000Z</time>
      </trkpt>
      <trkpt lat="44.99509" lon="5.49106">
        <ele>1394.4000244141</ele>
        <time>2024-07-14T07:57:54.000Z</time>
      </trkpt>
      <trkpt lat="44.99508" lon="5.49107">
        <ele>1394.5999755859</ele>
        <time>2024-07-14T07:57:55.000Z</time>
      </trkpt>
      <trkpt lat="44.99507" lon="5.49108">
        <ele>1394.5999755859</ele>
        <time>2024-07-14T07:57:56.000Z</time>
      </trkpt>
      <trkpt lat="44.99506" lon="5.4911">
        <ele>1394.8000488281</ele>
        <time>2024-07-14T07:57:57.000Z</time>
      </trkpt>
      <trkpt lat="44.99504" lon="5.49112">
        <ele>1395.1999511719</ele>
        <time>2024-07-14T07:57:58.000Z</time>
      </trkpt>
      <trkpt lat="44.99503" lon="5.49113">
        <ele>1395.4000244141</ele>
        <time>2024-07-14T07:57:59.000Z</time>
      </trkpt>
      <trkpt lat="44.99501" lon="5.49115">
        <ele>1395.5999755859</ele>
        <time>2024-07-14T07:58:00.000Z</time>
      </trkpt>
      <trkpt lat="44.995" lon="5.49117">
        <ele>1395.8000488281</ele>
        <time>2024-07-14T07:58:01.000Z</time>
      </trkpt>
      <trkpt lat="44.99498" lon="5.49119">
        <ele>1396</ele>
        <time>2024-07-14T07:58:02.000Z</time>
      </trkpt>
      <trkpt lat="44.99496" lon="5.49121">
        <ele>1396.1999511719</ele>
        <time>2024-07-14T07:58:03.000Z</time>
      </trkpt>
      <trkpt lat="44.99494" lon="5.49123">
        <ele>1396.1999511719</ele>
        <time>2024-07-14T07:58:04.000Z</time>
      </trkpt>
      <trkpt lat="44.99492" lon="5.49124">
        <ele>1396.4000244141</ele>
        <time>2024-07-14T07:58:05.000Z</time>
      </trkpt>
      <trkpt lat="44.9949" lon="5.49125">
        <ele>1396.4000244141</ele>
        <time>2024-07-14T07:58:06.000Z</time>
      </trkpt>
      <trkpt lat="44.99488" lon="5.49127">
        <ele>1396.5999755859</ele>
        <time>2024-07-14T07:58:07.000Z</time>
      </trkpt>
      <trkpt lat="44.99486" lon="5.49128">
        <ele>1396.8000488281</ele>
        <time>2024-07-14T07:58:08.000Z</time>
      </trkpt>
      <trkpt lat="44.99484" lon="5.4913">
        <ele>1397</ele>
        <time>2024-07-14T07:58:09.000Z</time>
      </trkpt>
      <trkpt lat="44.99482" lon="5.49131">
        <ele>1397</ele>
        <time>2024-07-14T07:58:10.000Z</time>
      </trkpt>
      <trkpt lat="44.99481" lon="5.49132">
        <ele>1397</ele>
        <time>2024-07-14T07:58:11.000Z</time>
      </trkpt>
      <trkpt lat="44.99479" lon="5.49134">
        <ele>1397</ele>
        <time>2024-07-14T07:58:12.000Z</time>
      </trkpt>
      <trkpt lat="44.99478" lon="5.49136">
        <ele>1397</ele>
        <time>2024-07-14T07:58:13.000Z</time>
      </trkpt>
      <trkpt lat="44.99476" lon="5.49137">
        <ele>1397</ele>
        <time>2024-07-14T07:58:14.000Z</time>
      </trkpt>
      <trkpt lat="44.99474" lon="5.49139">
        <ele>1397</ele>
        <time>2024-07-14T07:58:15.000Z</time>
      </trkpt>
      <trkpt lat="44.99472" lon="5.4914">
        <ele>1397</ele>
        <time>2024-07-14T07:58:16.000Z</time>
      </trkpt>
      <trkpt lat="44.9947" lon="5.49142">
        <ele>1397</ele>
        <time>2024-07-14T07:58:17.000Z</time>
      </trkpt>
      <trkpt lat="44.99467" lon="5.49144">
        <ele>1397</ele>
        <time>2024-07-14T07:58:18.000Z</time>
      </trkpt>
      <trkpt lat="44.99465" lon="5.49145">
        <ele>1397</ele>
        <time>2024-07-14T07:58:19.000Z</time>
      </trkpt>
      <trkpt lat="44.99462" lon="5.49146">
        <ele>1397</ele>
        <time>2024-07-14T07:58:20.000Z</time>
      </trkpt>
      <trkpt lat="44.99458" lon="5.49148">
        <ele>1396.8000488281</ele>
        <time>2024-07-14T07:58:21.000Z</time>
      </trkpt>
      <trkpt lat="44.99455" lon="5.49149">
        <ele>1396.8000488281</ele>
        <time>2024-07-14T07:58:22.000Z</time>
      </trkpt>
      <trkpt lat="44.99453" lon="5.4915">
        <ele>1396.5999755859</ele>
        <time>2024-07-14T07:58:23.000Z</time>
      </trkpt>
      <trkpt lat="44.99451" lon="5.49152">
        <ele>1396.1999511719</ele>
        <time>2024-07-14T07:58:24.000Z</time>
      </trkpt>
      <trkpt lat="44.99449" lon="5.49154">
        <ele>1395.8000488281</ele>
        <time>2024-07-14T07:58:25.000Z</time>
      </trkpt>
      <trkpt lat="44.99448" lon="5.49157">
        <ele>1395.8000488281</ele>
        <time>2024-07-14T07:58:26.000Z</time>
      </trkpt>
      <trkpt lat="44.99446" lon="5.49159">
        <ele>1395.8000488281</ele>
        <time>2024-07-14T07:58:27.000Z</time>
      </trkpt>
      <trkpt lat="44.99445" lon="5.49161">
        <ele>1395.8000488281</ele>
        <time>2024-07-14T07:58:28.000Z</time>
      </trkpt>
      <trkpt lat="44.99445" lon="5.49163">
        <ele>1395.8000488281</ele>
        <time>2024-07-14T07:58:29.000Z</time>
      </trkpt>
      <trkpt lat="44.99444" lon="5.49166">
        <ele>1395.8000488281</ele>
        <time>2024-07-14T07:58:30.000Z</time>
      </trkpt>
      <trkpt lat="44.99443" lon="5.49168">
        <ele>1396</ele>
        <time>2024-07-14T07:58:31.000Z</time>
      </trkpt>
      <trkpt lat="44.99442" lon="5.49171">
        <ele>1396.1999511719</ele>
        <time>2024-07-14T07:58:32.000Z</time>
      </trkpt>
      <trkpt lat="44.99441" lon="5.49172">
        <ele>1396.1999511719</ele>
        <time>2024-07-14T07:58:33.000Z</time>
      </trkpt>
      <trkpt lat="44.99439" lon="5.49175">
        <ele>1396.4000244141</ele>
        <time>2024-07-14T07:58:34.000Z</time>
      </trkpt>
      <trkpt lat="44.99438" lon="5.49177">
        <ele>1396.4000244141</ele>
        <time>2024-07-14T07:58:35.000Z</time>
      </trkpt>
      <trkpt lat="44.99437" lon="5.49179">
        <ele>1396.5999755859</ele>
        <time>2024-07-14T07:58:36.000Z</time>
      </trkpt>
      <trkpt lat="44.99436" lon="5.49181">
        <ele>1396.5999755859</ele>
        <time>2024-07-14T07:58:37.000Z</time>
      </trkpt>
      <trkpt lat="44.99434" lon="5.49184">
        <ele>1396.5999755859</ele>
        <time>2024-07-14T07:58:38.000Z</time>
      </trkpt>
      <trkpt lat="44.99433" lon="5.49186">
        <ele>1396.8000488281</ele>
        <time>2024-07-14T07:58:39.000Z</time>
      </trkpt>
      <trkpt lat="44.99432" lon="5.49188">
        <ele>1397</ele>
        <time>2024-07-14T07:58:40.000Z</time>
      </trkpt>
      <trkpt lat="44.99432" lon="5.49189">
        <ele>1397.4000244141</ele>
        <time>2024-07-14T07:58:41.000Z</time>
      </trkpt>
      <trkpt lat="44.99431" lon="5.49191">
        <ele>1397.5999755859</ele>
        <time>2024-07-14T07:58:42.000Z</time>
      </trkpt>
      <trkpt lat="44.9943" lon="5.49192">
        <ele>1397.8000488281</ele>
        <time>2024-07-14T07:58:43.000Z</time>
      </trkpt>
      <trkpt lat="44.9943" lon="5.49193">
        <ele>1398</ele>
        <time>2024-07-14T07:58:44.000Z</time>
      </trkpt>
      <trkpt lat="44.99429" lon="5.49196">
        <ele>1398.1999511719</ele>
        <time>2024-07-14T07:58:45.000Z</time>
      </trkpt>
      <trkpt lat="44.99428" lon="5.49198">
        <ele>1398.4000244141</ele>
        <time>2024-07-14T07:58:46.000Z</time>
      </trkpt>
      <trkpt lat="44.99427" lon="5.49199">
        <ele>1398.8000488281</ele>
        <time>2024-07-14T07:58:47.000Z</time>
      </trkpt>
      <trkpt lat="44.99426" lon="5.49201">
        <ele>1399</ele>
        <time>2024-07-14T07:58:48.000Z</time>
      </trkpt>
      <trkpt lat="44.99425" lon="5.49203">
        <ele>1399.1999511719</ele>
        <time>2024-07-14T07:58:49.000Z</time>
      </trkpt>
      <trkpt lat="44.99423" lon="5.49205">
        <ele>1399.5999755859</ele>
        <time>2024-07-14T07:58:50.000Z</time>
      </trkpt>
      <trkpt lat="44.99422" lon="5.49206">
        <ele>1399.5999755859</ele>
        <time>2024-07-14T07:58:51.000Z</time>
      </trkpt>
      <trkpt lat="44.99419" lon="5.49207">
        <ele>1399.8000488281</ele>
        <time>2024-07-14T07:58:52.000Z</time>
      </trkpt>
      <trkpt lat="44.99418" lon="5.49208">
        <ele>1399.8000488281</ele>
        <time>2024-07-14T07:58:53.000Z</time>
      </trkpt>
      <trkpt lat="44.99417" lon="5.49209">
        <ele>1400</ele>
        <time>2024-07-14T07:58:54.000Z</time>
      </trkpt>
      <trkpt lat="44.99416" lon="5.49211">
        <ele>1400.1999511719</ele>
        <time>2024-07-14T07:58:55.000Z</time>
      </trkpt>
      <trkpt lat="44.99414" lon="5.49212">
        <ele>1400.4000244141</ele>
        <time>2024-07-14T07:58:56.000Z</time>
      </trkpt>
      <trkpt lat="44.99413" lon="5.49214">
        <ele>1400.5999755859</ele>
        <time>2024-07-14T07:58:57.000Z</time>
      </trkpt>
      <trkpt lat="44.99412" lon="5.49216">
        <ele>1400.8000488281</ele>
        <time>2024-07-14T07:58:58.000Z</time>
      </trkpt>
      <trkpt lat="44.9941" lon="5.49217">
        <ele>1400.8000488281</ele>
        <time>2024-07-14T07:58:59.000Z</time>
      </trkpt>
      <trkpt lat="44.99409" lon="5.49219">
        <ele>1401</ele>
        <time>2024-07-14T07:59:00.000Z</time>
      </trkpt>
      <trkpt lat="44.99408" lon="5.4922">
        <ele>1401.1999511719</ele>
        <time>2024-07-14T07:59:01.000Z</time>
      </trkpt>
      <trkpt lat="44.99407" lon="5.49222">
        <ele>1401.4000244141</ele>
        <time>2024-07-14T07:59:02.000Z</time>
      </trkpt>
      <trkpt lat="44.99405" lon="5.49223">
        <ele>1401.8000488281</ele>
        <time>2024-07-14T07:59:03.000Z</time>
      </trkpt>
      <trkpt lat="44.99404" lon="5.49225">
        <ele>1402</ele>
        <time>2024-07-14T07:59:04.000Z</time>
      </trkpt>
      <trkpt lat="44.99403" lon="5.49226">
        <ele>1402.4000244141</ele>
        <time>2024-07-14T07:59:05.000Z</time>
      </trkpt>
      <trkpt lat="44.99402" lon="5.49228">
        <ele>1402.5999755859</ele>
        <time>2024-07-14T07:59:06.000Z</time>
      </trkpt>
      <trkpt lat="44.994" lon="5.49229">
        <ele>1402.5999755859</ele>
        <time>2024-07-14T07:59:07.000Z</time>
      </trkpt>
      <trkpt lat="44.99399" lon="5.49231">
        <ele>1403</ele>
        <time>2024-07-14T07:59:08.000Z</time>
      </trkpt>
      <trkpt lat="44.99397" lon="5.49233">
        <ele>1403.1999511719</ele>
        <time>2024-07-14T07:59:09.000Z</time>
      </trkpt>
      <trkpt lat="44.99396" lon="5.49234">
        <ele>1403.4000244141</ele>
        <time>2024-07-14T07:59:10.000Z</time>
      </trkpt>
      <trkpt lat="44.99394" lon="5.49236">
        <ele>1403.5999755859</ele>
        <time>2024-07-14T07:59:11.000Z</time>
      </trkpt>
      <trkpt lat="44.99393" lon="5.49238">
        <ele>1403.8000488281</ele>
        <time>2024-07-14T07:59:12.000Z</time>
      </trkpt>
      <trkpt lat="44.99392" lon="5.4924">
        <ele>1403.8000488281</ele>
        <time>2024-07-14T07:59:13.000Z</time>
      </trkpt>
      <trkpt lat="44.99391" lon="5.49242">
        <ele>1404.1999511719</ele>
        <time>2024-07-14T07:59:14.000Z</time>
      </trkpt>
      <trkpt lat="44.9939" lon="5.49244">
        <ele>1404.4000244141</ele>
        <time>2024-07-14T07:59:15.000Z</time>
      </trkpt>
      <trkpt lat="44.99388" lon="5.49246">
        <ele>1404.5999755859</ele>
        <time>2024-07-14T07:59:16.000Z</time>
      </trkpt>
      <trkpt lat="44.99387" lon="5.49248">
        <ele>1404.8000488281</ele>
        <time>2024-07-14T07:59:17.000Z</time>
      </trkpt>
      <trkpt lat="44.99386" lon="5.4925">
        <ele>1404.8000488281</ele>
        <time>2024-07-14T07:59:18.000Z</time>
      </trkpt>
      <trkpt lat="44.99384" lon="5.49252">
        <ele>1405</ele>
        <time>2024-07-14T07:59:19.000Z</time>
      </trkpt>
      <trkpt lat="44.99383" lon="5.49254">
        <ele>1405</ele>
        <time>2024-07-14T07:59:20.000Z</time>
      </trkpt>
      <trkpt lat="44.99382" lon="5.49256">
        <ele>1405.1999511719</ele>
        <time>2024-07-14T07:59:21.000Z</time>
      </trkpt>
      <trkpt lat="44.99381" lon="5.49257">
        <ele>1405.1999511719</ele>
        <time>2024-07-14T07:59:22.000Z</time>
      </trkpt>
      <trkpt lat="44.99379" lon="5.49259">
        <ele>1405.1999511719</ele>
        <time>2024-07-14T07:59:23.000Z</time>
      </trkpt>
      <trkpt lat="44.99378" lon="5.49261">
        <ele>1405.1999511719</ele>
        <time>2024-07-14T07:59:24.000Z</time>
      </trkpt>
      <trkpt lat="44.99376" lon="5.49263">
        <ele>1405.4000244141</ele>
        <time>2024-07-14T07:59:25.000Z</time>
      </trkpt>
      <trkpt lat="44.99375" lon="5.49265">
        <ele>1405.5999755859</ele>
        <time>2024-07-14T07:59:26.000Z</time>
      </trkpt>
      <trkpt lat="44.99373" lon="5.49267">
        <ele>1405.5999755859</ele>
        <time>2024-07-14T07:59:27.000Z</time>
      </trkpt>
      <trkpt lat="44.99372" lon="5.49269">
        <ele>1405.8000488281</ele>
        <time>2024-07-14T07:59:28.000Z</time>
      </trkpt>
      <trkpt lat="44.9937" lon="5.49271">
        <ele>1405.8000488281</ele>
        <time>2024-07-14T07:59:29.000Z</time>
      </trkpt>
      <trkpt lat="44.99369" lon="5.49272">
        <ele>1406</ele>
        <time>2024-07-14T07:59:30.000Z</time>
      </trkpt>
      <trkpt lat="44.99369" lon="5.49273">
        <ele>1406</ele>
        <time>2024-07-14T07:59:31.000Z</time>
      </trkpt>
      <trkpt lat="44.99368" lon="5.49275">
        <ele>1406.4000244141</ele>
        <time>2024-07-14T07:59:32.000Z</time>
      </trkpt>
      <trkpt lat="44.99367" lon="5.49277">
        <ele>1406.5999755859</ele>
        <time>2024-07-14T07:59:33.000Z</time>
      </trkpt>
      <trkpt lat="44.99365" lon="5.49279">
        <ele>1406.8000488281</ele>
        <time>2024-07-14T07:59:34.000Z</time>
      </trkpt>
      <trkpt lat="44.99365" lon="5.4928">
        <ele>1407</ele>
        <time>2024-07-14T07:59:35.000Z</time>
      </trkpt>
      <trkpt lat="44.99363" lon="5.49281">
        <ele>1407.4000244141</ele>
        <time>2024-07-14T07:59:36.000Z</time>
      </trkpt>
      <trkpt lat="44.99362" lon="5.49282">
        <ele>1407.5999755859</ele>
        <time>2024-07-14T07:59:37.000Z</time>
      </trkpt>
      <trkpt lat="44.99361" lon="5.49284">
        <ele>1408</ele>
        <time>2024-07-14T07:59:38.000Z</time>
      </trkpt>
      <trkpt lat="44.9936" lon="5.49285">
        <ele>1408.1999511719</ele>
        <time>2024-07-14T07:59:39.000Z</time>
      </trkpt>
      <trkpt lat="44.99359" lon="5.49287">
        <ele>1408.5999755859</ele>
        <time>2024-07-14T07:59:40.000Z</time>
      </trkpt>
      <trkpt lat="44.99358" lon="5.49288">
        <ele>1408.8000488281</ele>
        <time>2024-07-14T07:59:41.000Z</time>
      </trkpt>
      <trkpt lat="44.99357" lon="5.49289">
        <ele>1409</ele>
        <time>2024-07-14T07:59:42.000Z</time>
      </trkpt>
      <trkpt lat="44.99356" lon="5.4929">
        <ele>1409.1999511719</ele>
        <time>2024-07-14T07:59:43.000Z</time>
      </trkpt>
      <trkpt lat="44.99355" lon="5.49291">
        <ele>1409.1999511719</ele>
        <time>2024-07-14T07:59:44.000Z</time>
      </trkpt>
      <trkpt lat="44.99354" lon="5.49292">
        <ele>1409.1999511719</ele>
        <time>2024-07-14T07:59:45.000Z</time>
      </trkpt>
      <trkpt lat="44.99353" lon="5.49293">
        <ele>1409.4000244141</ele>
        <time>2024-07-14T07:59:46.000Z</time>
      </trkpt>
      <trkpt lat="44.99352" lon="5.49294">
        <ele>1409.8000488281</ele>
        <time>2024-07-14T07:59:47.000Z</time>
      </trkpt>
      <trkpt lat="44.99351" lon="5.49295">
        <ele>1409.8000488281</ele>
        <time>2024-07-14T07:59:48.000Z</time>
      </trkpt>
      <trkpt lat="44.99349" lon="5.49297">
        <ele>1410</ele>
        <time>2024-07-14T07:59:49.000Z</time>
      </trkpt>
      <trkpt lat="44.99348" lon="5.49298">
        <ele>1410.1999511719</ele>
        <time>2024-07-14T07:59:50.000Z</time>
      </trkpt>
      <trkpt lat="44.99346" lon="5.49299">
        <ele>1410.4000244141</ele>
        <time>2024-07-14T07:59:51.000Z</time>
      </trkpt>
      <trkpt lat="44.99344" lon="5.49301">
        <ele>1410.4000244141</ele>
        <time>2024-07-14T07:59:52.000Z</time>
      </trkpt>
      <trkpt lat="44.99342" lon="5.49302">
        <ele>1410.5999755859</ele>
        <time>2024-07-14T07:59:53.000Z</time>
      </trkpt>
      <trkpt lat="44.9934" lon="5.49304">
        <ele>1410.8000488281</ele>
        <time>2024-07-14T07:59:54.000Z</time>
      </trkpt>
      <trkpt lat="44.99339" lon="5.49305">
        <ele>1411</ele>
        <time>2024-07-14T07:59:55.000Z</time>
      </trkpt>
      <trkpt lat="44.99338" lon="5.49307">
        <ele>1411</ele>
        <time>2024-07-14T07:59:56.000Z</time>
      </trkpt>
      <trkpt lat="44.99337" lon="5.49308">
        <ele>1411</ele>
        <time>2024-07-14T07:59:57.000Z</time>
      </trkpt>
      <trkpt lat="44.99335" lon="5.49309">
        <ele>1411.1999511719</ele>
        <time>2024-07-14T07:59:58.000Z</time>
      </trkpt>
      <trkpt lat="44.99334" lon="5.4931">
        <ele>1411.5999755859</ele>
        <time>2024-07-14T07:59:59.000Z</time>
      </trkpt>
      <trkpt lat="44.99332" lon="5.49312">
        <ele>1412</ele>
        <time>2024-07-14T08:00:00.000Z</time>
      </trkpt>
      <trkpt lat="44.99331" lon="5.49313">
        <ele>1412.1999511719</ele>
        <time>2024-07-14T08:00:01.000Z</time>
      </trkpt>
      <trkpt lat="44.9933" lon="5.49315">
        <ele>1412.5999755859</ele>
        <time>2024-07-14T08:00:02.000Z</time>
      </trkpt>
      <trkpt lat="44.99329" lon="5.49316">
        <ele>1412.8000488281</ele>
        <time>2024-07-14T08:00:03.000Z</time>
      </trkpt>
      <trkpt lat="44.99328" lon="5.49317">
        <ele>1413</ele>
        <time>2024-07-14T08:00:04.000Z</time>
      </trkpt>
      <trkpt lat="44.99328" lon="5.49317">
        <ele>1413.1999511719</ele>
        <time>2024-07-14T08:00:05.000Z</time>
      </trkpt>
      <trkpt lat="44.99327" lon="5.49319">
        <ele>1413.5999755859</ele>
        <time>2024-07-14T08:00:06.000Z</time>
      </trkpt>
      <trkpt lat="44.99326" lon="5.4932">
        <ele>1414</ele>
        <time>2024-07-14T08:00:07.000Z</time>
      </trkpt>
      <trkpt lat="44.99325" lon="5.49322">
        <ele>1414.1999511719</ele>
        <time>2024-07-14T08:00:08.000Z</time>
      </trkpt>
      <trkpt lat="44.99324" lon="5.49323">
        <ele>1414.1999511719</ele>
        <time>2024-07-14T08:00:09.000Z</time>
      </trkpt>
      <trkpt lat="44.99322" lon="5.49325">
        <ele>1414.4000244141</ele>
        <time>2024-07-14T08:00:10.000Z</time>
      </trkpt>
      <trkpt lat="44.9932" lon="5.49326">
        <ele>1414.4000244141</ele>
        <time>2024-07-14T08:00:11.000Z</time>
      </trkpt>
      <trkpt lat="44.99319" lon="5.49328">
        <ele>1414.5999755859</ele>
        <time>2024-07-14T08:00:12.000Z</time>
      </trkpt>
      <trkpt lat="44.99318" lon="5.49329">
        <ele>1414.5999755859</ele>
        <time>2024-07-14T08:00:13.000Z</time>
      </trkpt>
      <trkpt lat="44.99317" lon="5.49331">
        <ele>1415</ele>
        <time>2024-07-14T08:00:14.000Z</time>
      </trkpt>
      <trkpt lat="44.99316" lon="5.49332">
        <ele>1415.1999511719</ele>
        <time>2024-07-14T08:00:15.000Z</time>
      </trkpt>
      <trkpt lat="44.99315" lon="5.49333">
        <ele>1415.4000244141</ele>
        <time>2024-07-14T08:00:16.000Z</time>
      </trkpt>
      <trkpt lat="44.99313" lon="5.49334">
        <ele>1415.5999755859</ele>
        <time>2024-07-14T08:00:17.000Z</time>
      </trkpt>
      <trkpt lat="44.99312" lon="5.49336">
        <ele>1415.8000488281</ele>
        <time>2024-07-14T08:00:18.000Z</time>
      </trkpt>
      <trkpt lat="44.9931" lon="5.49337">
        <ele>1416</ele>
        <time>2024-07-14T08:00:19.000Z</time>
      </trkpt>
      <trkpt lat="44.99308" lon="5.49338">
        <ele>1416.1999511719</ele>
        <time>2024-07-14T08:00:20.000Z</time>
      </trkpt>
      <trkpt lat="44.99306" lon="5.49339">
        <ele>1416.5999755859</ele>
        <time>2024-07-14T08:00:21.000Z</time>
      </trkpt>
      <trkpt lat="44.99306" lon="5.49339">
        <ele>1416.8000488281</ele>
        <time>2024-07-14T08:00:22.000Z</time>
      </trkpt>
      <trkpt lat="44.99304" lon="5.4934">
        <ele>1417</ele>
        <time>2024-07-14T08:00:23.000Z</time>
      </trkpt>
      <trkpt lat="44.99302" lon="5.49342">
        <ele>1417</ele>
        <time>2024-07-14T08:00:24.000Z</time>
      </trkpt>
      <trkpt lat="44.99301" lon="5.49343">
        <ele>1417.1999511719</ele>
        <time>2024-07-14T08:00:25.000Z</time>
      </trkpt>
      <trkpt lat="44.99299" lon="5.49344">
        <ele>1417.4000244141</ele>
        <time>2024-07-14T08:00:26.000Z</time>
      </trkpt>
      <trkpt lat="44.99298" lon="5.49345">
        <ele>1417.5999755859</ele>
        <time>2024-07-14T08:00:27.000Z</time>
      </trkpt>
      <trkpt lat="44.99297" lon="5.49345">
        <ele>1417.8000488281</ele>
        <time>2024-07-14T08:00:28.000Z</time>
      </trkpt>
      <trkpt lat="44.99296" lon="5.49345">
        <ele>1418.1999511719</ele>
        <time>2024-07-14T08:00:29.000Z</time>
      </trkpt>
      <trkpt lat="44.99296" lon="5.49346">
        <ele>1418.4000244141</ele>
        <time>2024-07-14T08:00:30.000Z</time>
      </trkpt>
      <trkpt lat="44.99295" lon="5.49346">
        <ele>1418.4000244141</ele>
        <time>2024-07-14T08:00:31.000Z</time>
      </trkpt>
      <trkpt lat="44.99294" lon="5.49347">
        <ele>1418.8000488281</ele>
        <time>2024-07-14T08:00:32.000Z</time>
      </trkpt>
      <trkpt lat="44.99293" lon="5.49347">
        <ele>1419</ele>
        <time>2024-07-14T08:00:33.000Z</time>
      </trkpt>
      <trkpt lat="44.99292" lon="5.49348">
        <ele>1419.1999511719</ele>
        <time>2024-07-14T08:00:34.000Z</time>
      </trkpt>
      <trkpt lat="44.99291" lon="5.49348">
        <ele>1419.5999755859</ele>
        <time>2024-07-14T08:00:35.000Z</time>
      </trkpt>
      <trkpt lat="44.99289" lon="5.49349">
        <ele>1419.8000488281</ele>
        <time>2024-07-14T08:00:36.000Z</time>
      </trkpt>
      <trkpt lat="44.99288" lon="5.49349">
        <ele>1419.8000488281</ele>
        <time>2024-07-14T08:00:37.000Z</time>
      </trkpt>
      <trkpt lat="44.99286" lon="5.4935">
        <ele>1420.1999511719</ele>
        <time>2024-07-14T08:00:38.000Z</time>
      </trkpt>
      <trkpt lat="44.99286" lon="5.4935">
        <ele>1420.4000244141</ele>
        <time>2024-07-14T08:00:39.000Z</time>
      </trkpt>
      <trkpt lat="44.99285" lon="5.49351">
        <ele>1420.5999755859</ele>
        <time>2024-07-14T08:00:40.000Z</time>
      </trkpt>
      <trkpt lat="44.99284" lon="5.49351">
        <ele>1421</ele>
        <time>2024-07-14T08:00:41.000Z</time>
      </trkpt>
      <trkpt lat="44.99283" lon="5.49352">
        <ele>1421.1999511719</ele>
        <time>2024-07-14T08:00:42.000Z</time>
      </trkpt>
      <trkpt lat="44.99282" lon="5.49352">
        <ele>1421.5999755859</ele>
        <time>2024-07-14T08:00:43.000Z</time>
      </trkpt>
      <trkpt lat="44.99281" lon="5.49353">
        <ele>1421.8000488281</ele>
        <time>2024-07-14T08:00:44.000Z</time>
      </trkpt>
      <trkpt lat="44.99281" lon="5.49353">
        <ele>1422</ele>
        <time>2024-07-14T08:00:45.000Z</time>
      </trkpt>
      <trkpt lat="44.9928" lon="5.49353">
        <ele>1422.1999511719</ele>
        <time>2024-07-14T08:00:46.000Z</time>
      </trkpt>
      <trkpt lat="44.99279" lon="5.49354">
        <ele>1422.5999755859</ele>
        <time>2024-07-14T08:00:47.000Z</time>
      </trkpt>
      <trkpt lat="44.99278" lon="5.49354">
        <ele>1422.8000488281</ele>
        <time>2024-07-14T08:00:48.000Z</time>
      </trkpt>
      <trkpt lat="44.99277" lon="5.49355">
        <ele>1423.1999511719</ele>
        <time>2024-07-14T08:00:49.000Z</time>
      </trkpt>
      <trkpt lat="44.99276" lon="5.49356">
        <ele>1423.4000244141</ele>
        <time>2024-07-14T08:00:50.000Z</time>
      </trkpt>
      <trkpt lat="44.99274" lon="5.49357">
        <ele>1423.5999755859</ele>
        <time>2024-07-14T08:00:51.000Z</time>
      </trkpt>
      <trkpt lat="44.99274" lon="5.49357">
        <ele>1423.8000488281</ele>
        <time>2024-07-14T08:00:52.000Z</time>
      </trkpt>
      <trkpt lat="44.99273" lon="5.49358">
        <ele>1424.1999511719</ele>
        <time>2024-07-14T08:00:53.000Z</time>
      </trkpt>
      <trkpt lat="44.99273" lon="5.49358">
        <ele>1424.4000244141</ele>
        <time>2024-07-14T08:00:54.000Z</time>
      </trkpt>
      <trkpt lat="44.99272" lon="5.49358">
        <ele>1424.8000488281</ele>
        <time>2024-07-14T08:00:55.000Z</time>
      </trkpt>
      <trkpt lat="44.99271" lon="5.49358">
        <ele>1425</ele>
        <time>2024-07-14T08:00:56.000Z</time>
      </trkpt>
      <trkpt lat="44.9927" lon="5.49359">
        <ele>1425.4000244141</ele>
        <time>2024-07-14T08:00:57.000Z</time>
      </trkpt>
      <trkpt lat="44.99269" lon="5.49359">
        <ele>1425.5999755859</ele>
        <time>2024-07-14T08:00:58.000Z</time>
      </trkpt>
      <trkpt lat="44.99268" lon="5.4936">
        <ele>1425.8000488281</ele>
        <time>2024-07-14T08:00:59.000Z</time>
      </trkpt>
      <trkpt lat="44.99267" lon="5.4936">
        <ele>1426</ele>
        <time>2024-07-14T08:01:00.000Z</time>
      </trkpt>
      <trkpt lat="44.99267" lon="5.49361">
        <ele>1426.1999511719</ele>
        <time>2024-07-14T08:01:01.000Z</time>
      </trkpt>
      <trkpt lat="44.99267" lon="5.49362">
        <ele>1426.4000244141</ele>
        <time>2024-07-14T08:01:02.000Z</time>
      </trkpt>
      <trkpt lat="44.99267" lon="5.49362">
        <ele>1426.8000488281</ele>
        <time>2024-07-14T08:01:03.000Z</time>
      </trkpt>
      <trkpt lat="44.99268" lon="5.49363">
        <ele>1427.1999511719</ele>
        <time>2024-07-14T08:01:04.000Z</time>
      </trkpt>
      <trkpt lat="44.99268" lon="5.49365">
        <ele>1427.1999511719</ele>
        <time>2024-07-14T08:01:05.000Z</time>
      </trkpt>
      <trkpt lat="44.99268" lon="5.49365">
        <ele>1427.5999755859</ele>
        <time>2024-07-14T08:01:06.000Z</time>
      </trkpt>
      <trkpt lat="44.99268" lon="5.49367">
        <ele>1427.8000488281</ele>
        <time>2024-07-14T08:01:07.000Z</time>
      </trkpt>
      <trkpt lat="44.99268" lon="5.49368">
        <ele>1428</ele>
        <time>2024-07-14T08:01:08.000Z</time>
      </trkpt>
      <trkpt lat="44.99268" lon="5.4937">
        <ele>1428.1999511719</ele>
        <time>2024-07-14T08:01:09.000Z</time>
      </trkpt>
      <trkpt lat="44.99268" lon="5.49371">
        <ele>1428.5999755859</ele>
        <time>2024-07-14T08:01:10.000Z</time>
      </trkpt>
      <trkpt lat="44.99268" lon="5.49372">
        <ele>1428.8000488281</ele>
        <time>2024-07-14T08:01:11.000Z</time>
      </trkpt>
      <trkpt lat="44.99268" lon="5.49374">
        <ele>1429.1999511719</ele>
        <time>2024-07-14T08:01:12.000Z</time>
      </trkpt>
      <trkpt lat="44.99268" lon="5.49375">
        <ele>1429.1999511719</ele>
        <time>2024-07-14T08:01:13.000Z</time>
      </trkpt>
      <trkpt lat="44.99267" lon="5.49376">
        <ele>1429.1999511719</ele>
        <time>2024-07-14T08:01:14.000Z</time>
      </trkpt>
      <trkpt lat="44.99267" lon="5.49377">
        <ele>1429.5999755859</ele>
        <time>2024-07-14T08:01:15.000Z</time>
      </trkpt>
      <trkpt lat="44.99266" lon="5.49378">
        <ele>1430</ele>
        <time>2024-07-14T08:01:16.000Z</time>
      </trkpt>
      <trkpt lat="44.99265" lon="5.49379">
        <ele>1430.1999511719</ele>
        <time>2024-07-14T08:01:17.000Z</time>
      </trkpt>
      <trkpt lat="44.99264" lon="5.4938">
        <ele>1430.4000244141</ele>
        <time>2024-07-14T08:01:18.000Z</time>
      </trkpt>
      <trkpt lat="44.99263" lon="5.4938">
        <ele>1430.5999755859</ele>
        <time>2024-07-14T08:01:19.000Z</time>
      </trkpt>
      <trkpt lat="44.99262" lon="5.49382">
        <ele>1430.8000488281</ele>
        <time>2024-07-14T08:01:20.000Z</time>
      </trkpt>
      <trkpt lat="44.99261" lon="5.49383">
        <ele>1431.1999511719</ele>
        <time>2024-07-14T08:01:21.000Z</time>
      </trkpt>
      <trkpt lat="44.99259" lon="5.49384">
        <ele>1431.4000244141</ele>
        <time>2024-07-14T08:01:22.000Z</time>
      </trkpt>
      <trkpt lat="44.99258" lon="5.49385">
        <ele>1431.5999755859</ele>
        <time>2024-07-14T08:01:23.000Z</time>
      </trkpt>
      <trkpt lat="44.99257" lon="5.49385">
        <ele>1432</ele>
        <time>2024-07-14T08:01:24.000Z</time>
      </trkpt>
      <trkpt lat="44.99256" lon="5.49385">
        <ele>1432.1999511719</ele>
        <time>2024-07-14T08:01:25.000Z</time>
      </trkpt>
      <trkpt lat="44.99255" lon="5.49386">
        <ele>1432.4000244141</ele>
        <time>2024-07-14T08:01:26.000Z</time>
      </trkpt>
      <trkpt lat="44.99255" lon="5.49386">
        <ele>1432.5999755859</ele>
        <time>2024-07-14T08:01:27.000Z</time>
      </trkpt>
      <trkpt lat="44.99255" lon="5.49387">
        <ele>1433</ele>
        <time>2024-07-14T08:01:28.000Z</time>
      </trkpt>
      <trkpt lat="44.99254" lon="5.49387">
        <ele>1433.1999511719</ele>
        <time>2024-07-14T08:01:29.000Z</time>
      </trkpt>
      <trkpt lat="44.99254" lon="5.49388">
        <ele>1433.4000244141</ele>
        <time>2024-07-14T08:01:30.000Z</time>
      </trkpt>
      <trkpt lat="44.99253" lon="5.49388">
        <ele>1433.5999755859</ele>
        <time>2024-07-14T08:01:31.000Z</time>
      </trkpt>
      <trkpt lat="44.99252" lon="5.49389">
        <ele>1434</ele>
        <time>2024-07-14T08:01:32.000Z</time>
      </trkpt>
      <trkpt lat="44.99251" lon="5.49389">
        <ele>1434</ele>
        <time>2024-07-14T08:01:33.000Z</time>
      </trkpt>
      <trkpt lat="44.9925" lon="5.49391">
        <ele>1434.1999511719</ele>
        <time>2024-07-14T08:01:34.000Z</time>
      </trkpt>
      <trkpt lat="44.99248" lon="5.49391">
        <ele>1434.4000244141</ele>
        <time>2024-07-14T08:01:35.000Z</time>
      </trkpt>
      <trkpt lat="44.99247" lon="5.49392">
        <ele>1434.8000488281</ele>
        <time>2024-07-14T08:01:36.000Z</time>
      </trkpt>
      <trkpt lat="44.99246" lon="5.49392">
        <ele>1435.1999511719</ele>
        <time>2024-07-14T08:01:37.000Z</time>
      </trkpt>
      <trkpt lat="44.99244" lon="5.49393">
        <ele>1435.1999511719</ele>
        <time>2024-07-14T08:01:38.000Z</time>
      </trkpt>
      <trkpt lat="44.99243" lon="5.49393">
        <ele>1435.5999755859</ele>
        <time>2024-07-14T08:01:39.000Z</time>
      </trkpt>
      <trkpt lat="44.99242" lon="5.49394">
        <ele>1435.5999755859</ele>
        <time>2024-07-14T08:01:40.000Z</time>
      </trkpt>
      <trkpt lat="44.9924" lon="5.49394">
        <ele>1436</ele>
        <time>2024-07-14T08:01:41.000Z</time>
      </trkpt>
      <trkpt lat="44.99239" lon="5.49395">
        <ele>1436.1999511719</ele>
        <time>2024-07-14T08:01:42.000Z</time>
      </trkpt>
      <trkpt lat="44.99237" lon="5.49395">
        <ele>1436.4000244141</ele>
        <time>2024-07-14T08:01:43.000Z</time>
      </trkpt>
      <trkpt lat="44.99236" lon="5.49395">
        <ele>1436.5999755859</ele>
        <time>2024-07-14T08:01:44.000Z</time>
      </trkpt>
      <trkpt lat="44.99235" lon="5.49396">
        <ele>1437</ele>
        <time>2024-07-14T08:01:45.000Z</time>
      </trkpt>
      <trkpt lat="44.99235" lon="5.49396">
        <ele>1437.1999511719</ele>
        <time>2024-07-14T08:01:46.000Z</time>
      </trkpt>
      <trkpt lat="44.99234" lon="5.49397">
        <ele>1437.4000244141</ele>
        <time>2024-07-14T08:01:47.000Z</time>
      </trkpt>
      <trkpt lat="44.99233" lon="5.49397">
        <ele>1437.5999755859</ele>
        <time>2024-07-14T08:01:48.000Z</time>
      </trkpt>
      <trkpt lat="44.99232" lon="5.49398">
        <ele>1437.8000488281</ele>
        <time>2024-07-14T08:01:49.000Z</time>
      </trkpt>
      <trkpt lat="44.99231" lon="5.49398">
        <ele>1438</ele>
        <time>2024-07-14T08:01:50.000Z</time>
      </trkpt>
      <trkpt lat="44.99229" lon="5.49399">
        <ele>1438.1999511719</ele>
        <time>2024-07-14T08:01:51.000Z</time>
      </trkpt>
      <trkpt lat="44.99228" lon="5.49399">
        <ele>1438.5999755859</ele>
        <time>2024-07-14T08:01:52.000Z</time>
      </trkpt>
      <trkpt lat="44.99227" lon="5.494">
        <ele>1438.8000488281</ele>
        <time>2024-07-14T08:01:53.000Z</time>
      </trkpt>
      <trkpt lat="44.99226" lon="5.49401">
        <ele>1439</ele>
        <time>2024-07-14T08:01:54.000Z</time>
      </trkpt>
      <trkpt lat="44.99225" lon="5.49402">
        <ele>1439.1999511719</ele>
        <time>2024-07-14T08:01:55.000Z</time>
      </trkpt>
      <trkpt lat="44.99224" lon="5.49404">
        <ele>1439.4000244141</ele>
        <time>2024-07-14T08:01:56.000Z</time>
      </trkpt>
      <trkpt lat="44.99224" lon="5.49405">
        <ele>1439.5999755859</ele>
        <time>2024-07-14T08:01:57.000Z</time>
      </trkpt>
      <trkpt lat="44.99223" lon="5.49406">
        <ele>1439.8000488281</ele>
        <time>2024-07-14T08:01:58.000Z</time>
      </trkpt>
      <trkpt lat="44.99223" lon="5.49407">
        <ele>1440.1999511719</ele>
        <time>2024-07-14T08:01:59.000Z</time>
      </trkpt>
      <trkpt lat="44.99222" lon="5.49408">
        <ele>1440.5999755859</ele>
        <time>2024-07-14T08:02:00.000Z</time>
      </trkpt>
      <trkpt lat="44.99221" lon="5.4941">
        <ele>1440.5999755859</ele>
        <time>2024-07-14T08:02:01.000Z</time>
      </trkpt>
      <trkpt lat="44.99221" lon="5.49411">
        <ele>1440.8000488281</ele>
        <time>2024-07-14T08:02:02.000Z</time>
      </trkpt>
      <trkpt lat="44.99221" lon="5.49412">
        <ele>1441</ele>
        <time>2024-07-14T08:02:03.000Z</time>
      </trkpt>
      <trkpt lat="44.9922" lon="5.49414">
        <ele>1441</ele>
        <time>2024-07-14T08:02:04.000Z</time>
      </trkpt>
      <trkpt lat="44.99219" lon="5.49416">
        <ele>1441.1999511719</ele>
        <time>2024-07-14T08:02:05.000Z</time>
      </trkpt>
      <trkpt lat="44.99219" lon="5.49417">
        <ele>1441.4000244141</ele>
        <time>2024-07-14T08:02:06.000Z</time>
      </trkpt>
      <trkpt lat="44.99218" lon="5.49419">
        <ele>1441.8000488281</ele>
        <time>2024-07-14T08:02:07.000Z</time>
      </trkpt>
      <trkpt lat="44.99218" lon="5.4942">
        <ele>1441.8000488281</ele>
        <time>2024-07-14T08:02:08.000Z</time>
      </trkpt>
      <trkpt lat="44.99218" lon="5.49422">
        <ele>1442.1999511719</ele>
        <time>2024-07-14T08:02:09.000Z</time>
      </trkpt>
      <trkpt lat="44.99217" lon="5.49424">
        <ele>1442.4000244141</ele>
        <time>2024-07-14T08:02:10.000Z</time>
      </trkpt>
      <trkpt lat="44.99217" lon="5.49425">
        <ele>1442.5999755859</ele>
        <time>2024-07-14T08:02:11.000Z</time>
      </trkpt>
      <trkpt lat="44.99217" lon="5.49426">
        <ele>1443</ele>
        <time>2024-07-14T08:02:12.000Z</time>
      </trkpt>
      <trkpt lat="44.99216" lon="5.49428">
        <ele>1443.1999511719</ele>
        <time>2024-07-14T08:02:13.000Z</time>
      </trkpt>
      <trkpt lat="44.99216" lon="5.49429">
        <ele>1443.1999511719</ele>
        <time>2024-07-14T08:02:14.000Z</time>
      </trkpt>
      <trkpt lat="44.99217" lon="5.4943">
        <ele>1443.5999755859</ele>
        <time>2024-07-14T08:02:15.000Z</time>
      </trkpt>
      <trkpt lat="44.99217" lon="5.4943">
        <ele>1443.8000488281</ele>
        <time>2024-07-14T08:02:16.000Z</time>
      </trkpt>
      <trkpt lat="44.99219" lon="5.49432">
        <ele>1444</ele>
        <time>2024-07-14T08:02:17.000Z</time>
      </trkpt>
      <trkpt lat="44.9922" lon="5.49433">
        <ele>1444.1999511719</ele>
        <time>2024-07-14T08:02:18.000Z</time>
      </trkpt>
      <trkpt lat="44.99221" lon="5.49434">
        <ele>1444.1999511719</ele>
        <time>2024-07-14T08:02:19.000Z</time>
      </trkpt>
      <trkpt lat="44.99223" lon="5.49435">
        <ele>1444.4000244141</ele>
        <time>2024-07-14T08:02:20.000Z</time>
      </trkpt>
      <trkpt lat="44.99224" lon="5.49436">
        <ele>1444.4000244141</ele>
        <time>2024-07-14T08:02:21.000Z</time>
      </trkpt>
      <trkpt lat="44.99225" lon="5.49438">
        <ele>1444.5999755859</ele>
        <time>2024-07-14T08:02:22.000Z</time>
      </trkpt>
      <trkpt lat="44.99226" lon="5.49439">
        <ele>1444.5999755859</ele>
        <time>2024-07-14T08:02:23.000Z</time>
      </trkpt>
      <trkpt lat="44.99227" lon="5.4944">
        <ele>1444.8000488281</ele>
        <time>2024-07-14T08:02:24.000Z</time>
      </trkpt>
      <trkpt lat="44.99228" lon="5.49441">
        <ele>1445</ele>
        <time>2024-07-14T08:02:25.000Z</time>
      </trkpt>
      <trkpt lat="44.99229" lon="5.49443">
        <ele>1445</ele>
        <time>2024-07-14T08:02:26.000Z</time>
      </trkpt>
      <trkpt lat="44.9923" lon="5.49446">
        <ele>1445.1999511719</ele>
        <time>2024-07-14T08:02:27.000Z</time>
      </trkpt>
      <trkpt lat="44.99231" lon="5.49447">
        <ele>1445.1999511719</ele>
        <time>2024-07-14T08:02:28.000Z</time>
      </trkpt>
      <trkpt lat="44.99232" lon="5.49448">
        <ele>1445.4000244141</ele>
        <time>2024-07-14T08:02:29.000Z</time>
      </trkpt>
      <trkpt lat="44.99232" lon="5.49451">
        <ele>1445.5999755859</ele>
        <time>2024-07-14T08:02:30.000Z</time>
      </trkpt>
      <trkpt lat="44.99233" lon="5.49453">
        <ele>1446</ele>
        <time>2024-07-14T08:02:31.000Z</time>
      </trkpt>
      <trkpt lat="44.99234" lon="5.49455">
        <ele>1446.1999511719</ele>
        <time>2024-07-14T08:02:32.000Z</time>
      </trkpt>
      <trkpt lat="44.99234" lon="5.49456">
        <ele>1446.1999511719</ele>
        <time>2024-07-14T08:02:33.000Z</time>
      </trkpt>
      <trkpt lat="44.99235" lon="5.49457">
        <ele>1446.4000244141</ele>
        <time>2024-07-14T08:02:34.000Z</time>
      </trkpt>
      <trkpt lat="44.99235" lon="5.4946">
        <ele>1446.5999755859</ele>
        <time>2024-07-14T08:02:35.000Z</time>
      </trkpt>
      <trkpt lat="44.99236" lon="5.49462">
        <ele>1446.8000488281</ele>
        <time>2024-07-14T08:02:36.000Z</time>
      </trkpt>
      <trkpt lat="44.99237" lon="5.49465">
        <ele>1446.8000488281</ele>
        <time>2024-07-14T08:02:37.000Z</time>
      </trkpt>
      <trkpt lat="44.99237" lon="5.49467">
        <ele>1447</ele>
        <time>2024-07-14T08:02:38.000Z</time>
      </trkpt>
      <trkpt lat="44.99238" lon="5.49468">
        <ele>1447.1999511719</ele>
        <time>2024-07-14T08:02:39.000Z</time>
      </trkpt>
      <trkpt lat="44.99238" lon="5.4947">
        <ele>1447.5999755859</ele>
        <time>2024-07-14T08:02:40.000Z</time>
      </trkpt>
      <trkpt lat="44.99238" lon="5.49472">
        <ele>1447.8000488281</ele>
        <time>2024-07-14T08:02:41.000Z</time>
      </trkpt>
      <trkpt lat="44.99238" lon="5.49474">
        <ele>1448.1999511719</ele>
        <time>2024-07-14T08:02:42.000Z</time>
      </trkpt>
      <trkpt lat="44.99239" lon="5.49476">
        <ele>1448.1999511719</ele>
        <time>2024-07-14T08:02:43.000Z</time>
      </trkpt>
      <trkpt lat="44.99239" lon="5.49477">
        <ele>1448.1999511719</ele>
        <time>2024-07-14T08:02:44.000Z</time>
      </trkpt>
      <trkpt lat="44.99239" lon="5.49478">
        <ele>1448.4000244141</ele>
        <time>2024-07-14T08:02:45.000Z</time>
      </trkpt>
      <trkpt lat="44.99239" lon="5.4948">
        <ele>1448.5999755859</ele>
        <time>2024-07-14T08:02:46.000Z</time>
      </trkpt>
      <trkpt lat="44.9924" lon="5.49483">
        <ele>1449</ele>
        <time>2024-07-14T08:02:47.000Z</time>
      </trkpt>
      <trkpt lat="44.9924" lon="5.49485">
        <ele>1449.1999511719</ele>
        <time>2024-07-14T08:02:48.000Z</time>
      </trkpt>
      <trkpt lat="44.9924" lon="5.49487">
        <ele>1449.5999755859</ele>
        <time>2024-07-14T08:02:49.000Z</time>
      </trkpt>
      <trkpt lat="44.99241" lon="5.4949">
        <ele>1449.5999755859</ele>
        <time>2024-07-14T08:02:50.000Z</time>
      </trkpt>
      <trkpt lat="44.99242" lon="5.49493">
        <ele>1449.8000488281</ele>
        <time>2024-07-14T08:02:51.000Z</time>
      </trkpt>
      <trkpt lat="44.99243" lon="5.49495">
        <ele>1449.8000488281</ele>
        <time>2024-07-14T08:02:52.000Z</time>
      </trkpt>
      <trkpt lat="44.99243" lon="5.49496">
        <ele>1450</ele>
        <time>2024-07-14T08:02:53.000Z</time>
      </trkpt>
      <trkpt lat="44.99245" lon="5.49498">
        <ele>1450.1999511719</ele>
        <time>2024-07-14T08:02:54.000Z</time>
      </trkpt>
      <trkpt lat="44.99246" lon="5.495">
        <ele>1450.1999511719</ele>
        <time>2024-07-14T08:02:55.000Z</time>
      </trkpt>
      <trkpt lat="44.99247" lon="5.49501">
        <ele>1450.1999511719</ele>
        <time>2024-07-14T08:02:56.000Z</time>
      </trkpt>
      <trkpt lat="44.99248" lon="5.49503">
        <ele>1450.4000244141</ele>
        <time>2024-07-14T08:02:57.000Z</time>
      </trkpt>
      <trkpt lat="44.99249" lon="5.49506">
        <ele>1450.5999755859</ele>
        <time>2024-07-14T08:02:58.000Z</time>
      </trkpt>
      <trkpt lat="44.9925" lon="5.49508">
        <ele>1450.8000488281</ele>
        <time>2024-07-14T08:02:59.000Z</time>
      </trkpt>
      <trkpt lat="44.99252" lon="5.4951">
        <ele>1451</ele>
        <time>2024-07-14T08:03:00.000Z</time>
      </trkpt>
      <trkpt lat="44.99253" lon="5.49512">
        <ele>1451</ele>
        <time>2024-07-14T08:03:01.000Z</time>
      </trkpt>
      <trkpt lat="44.99254" lon="5.49514">
        <ele>1451.1999511719</ele>
        <time>2024-07-14T08:03:02.000Z</time>
      </trkpt>
      <trkpt lat="44.99255" lon="5.49515">
        <ele>1451.1999511719</ele>
        <time>2024-07-14T08:03:03.000Z</time>
      </trkpt>
      <trkpt lat="44.99256" lon="5.49516">
        <ele>1451.1999511719</ele>
        <time>2024-07-14T08:03:04.000Z</time>
      </trkpt>
      <trkpt lat="44.99257" lon="5.49517">
        <ele>1451.1999511719</ele>
        <time>2024-07-14T08:03:05.000Z</time>
      </trkpt>
      <trkpt lat="44.99258" lon="5.49518">
        <ele>1451.1999511719</ele>
        <time>2024-07-14T08:03:06.000Z</time>
      </trkpt>
      <trkpt lat="44.99259" lon="5.49519">
        <ele>1451.1999511719</ele>
        <time>2024-07-14T08:03:07.000Z</time>
      </trkpt>
      <trkpt lat="44.9926" lon="5.4952">
        <ele>1451.1999511719</ele>
        <time>2024-07-14T08:03:08.000Z</time>
      </trkpt>
      <trkpt lat="44.99262" lon="5.49521">
        <ele>1451.1999511719</ele>
        <time>2024-07-14T08:03:09.000Z</time>
      </trkpt>
      <trkpt lat="44.99264" lon="5.49522">
        <ele>1451.1999511719</ele>
        <time>2024-07-14T08:03:10.000Z</time>
      </trkpt>
      <trkpt lat="44.99267" lon="5.49523">
        <ele>1451.1999511719</ele>
        <time>2024-07-14T08:03:11.000Z</time>
      </trkpt>
      <trkpt lat="44.9927" lon="5.49525">
        <ele>1451.1999511719</ele>
        <time>2024-07-14T08:03:12.000Z</time>
      </trkpt>
      <trkpt lat="44.99272" lon="5.49526">
        <ele>1451.1999511719</ele>
        <time>2024-07-14T08:03:13.000Z</time>
      </trkpt>
      <trkpt lat="44.99274" lon="5.49527">
        <ele>1451</ele>
        <time>2024-07-14T08:03:14.000Z</time>
      </trkpt>
      <trkpt lat="44.99275" lon="5.49529">
        <ele>1450.8000488281</ele>
        <time>2024-07-14T08:03:15.000Z</time>
      </trkpt>
      <trkpt lat="44.99277" lon="5.4953">
        <ele>1450.5999755859</ele>
        <time>2024-07-14T08:03:16.000Z</time>
      </trkpt>
      <trkpt lat="44.99279" lon="5.49533">
        <ele>1450.4000244141</ele>
        <time>2024-07-14T08:03:17.000Z</time>
      </trkpt>
      <trkpt lat="44.99281" lon="5.49535">
        <ele>1450.1999511719</ele>
        <time>2024-07-14T08:03:18.000Z</time>
      </trkpt>
      <trkpt lat="44.99283" lon="5.49538">
        <ele>1449.8000488281</ele>
        <time>2024-07-14T08:03:19.000Z</time>
      </trkpt>
      <trkpt lat="44.99285" lon="5.49541">
        <ele>1449.4000244141</ele>
        <time>2024-07-14T08:03:20.000Z</time>
      </trkpt>
      <trkpt lat="44.99287" lon="5.49544">
        <ele>1449.4000244141</ele>
        <time>2024-07-14T08:03:21.000Z</time>
      </trkpt>
      <trkpt lat="44.99289" lon="5.49547">
        <ele>1449.1999511719</ele>
        <time>2024-07-14T08:03:22.000Z</time>
      </trkpt>
      <trkpt lat="44.9929" lon="5.49552">
        <ele>1448.8000488281</ele>
        <time>2024-07-14T08:03:23.000Z</time>
      </trkpt>
      <trkpt lat="44.99291" lon="5.49556">
        <ele>1448.4000244141</ele>
        <time>2024-07-14T08:03:24.000Z</time>
      </trkpt>
      <trkpt lat="44.99292" lon="5.4956">
        <ele>1448.1999511719</ele>
        <time>2024-07-14T08:03:25.000Z</time>
      </trkpt>
      <trkpt lat="44.99292" lon="5.49564">
        <ele>1448</ele>
        <time>2024-07-14T08:03:26.000Z</time>
      </trkpt>
      <trkpt lat="44.99292" lon="5.49568">
        <ele>1447.8000488281</ele>
        <time>2024-07-14T08:03:27.000Z</time>
      </trkpt>
      <trkpt lat="44.99292" lon="5.49572">
        <ele>1447.5999755859</ele>
        <time>2024-07-14T08:03:28.000Z</time>
      </trkpt>
      <trkpt lat="44.99291" lon="5.49574">
        <ele>1447.1999511719</ele>
        <time>2024-07-14T08:03:29.000Z</time>
      </trkpt>
      <trkpt lat="44.9929" lon="5.49577">
        <ele>1447</ele>
        <time>2024-07-14T08:03:30.000Z</time>
      </trkpt>
      <trkpt lat="44.9929" lon="5.4958">
        <ele>1446.8000488281</ele>
        <time>2024-07-14T08:03:31.000Z</time>
      </trkpt>
      <trkpt lat="44.99289" lon="5.49583">
        <ele>1446.1999511719</ele>
        <time>2024-07-14T08:03:32.000Z</time>
      </trkpt>
      <trkpt lat="44.99288" lon="5.49586">
        <ele>1446</ele>
        <time>2024-07-14T08:03:33.000Z</time>
      </trkpt>
      <trkpt lat="44.99288" lon="5.49589">
        <ele>1445.5999755859</ele>
        <time>2024-07-14T08:03:34.000Z</time>
      </trkpt>
      <trkpt lat="44.99287" lon="5.49592">
        <ele>1445.1999511719</ele>
        <time>2024-07-14T08:03:35.000Z</time>
      </trkpt>
      <trkpt lat="44.99286" lon="5.49595">
        <ele>1444.8000488281</ele>
        <time>2024-07-14T08:03:36.000Z</time>
      </trkpt>
      <trkpt lat="44.99285" lon="5.49598">
        <ele>1444.5999755859</ele>
        <time>2024-07-14T08:03:37.000Z</time>
      </trkpt>
      <trkpt lat="44.99284" lon="5.49601">
        <ele>1444.1999511719</ele>
        <time>2024-07-14T08:03:38.000Z</time>
      </trkpt>
      <trkpt lat="44.99283" lon="5.49604">
        <ele>1443.1999511719</ele>
        <time>2024-07-14T08:03:39.000Z</time>
      </trkpt>
      <trkpt lat="44.99282" lon="5.49607">
        <ele>1443</ele>
        <time>2024-07-14T08:03:40.000Z</time>
      </trkpt>
      <trkpt lat="44.9928" lon="5.4961">
        <ele>1442.5999755859</ele>
        <time>2024-07-14T08:03:41.000Z</time>
      </trkpt>
      <trkpt lat="44.99279" lon="5.49612">
        <ele>1442.1999511719</ele>
        <time>2024-07-14T08:03:42.000Z</time>
      </trkpt>
      <trkpt lat="44.99277" lon="5.49615">
        <ele>1442</ele>
        <time>2024-07-14T08:03:43.000Z</time>
      </trkpt>
      <trkpt lat="44.99275" lon="5.49617">
        <ele>1441.4000244141</ele>
        <time>2024-07-14T08:03:44.000Z</time>
      </trkpt>
      <trkpt lat="44.99274" lon="5.4962">
        <ele>1440.5999755859</ele>
        <time>2024-07-14T08:03:45.000Z</time>
      </trkpt>
      <trkpt lat="44.99272" lon="5.49622">
        <ele>1440.1999511719</ele>
        <time>2024-07-14T08:03:46.000Z</time>
      </trkpt>
      <trkpt lat="44.9927" lon="5.49624">
        <ele>1439.8000488281</ele>
        <time>2024-07-14T08:03:47.000Z</time>
      </trkpt>
      <trkpt lat="44.99268" lon="5.49626">
        <ele>1438.8000488281</ele>
        <time>2024-07-14T08:03:48.000Z</time>
      </trkpt>
      <trkpt lat="44.99266" lon="5.49628">
        <ele>1438</ele>
        <time>2024-07-14T08:03:49.000Z</time>
      </trkpt>
      <trkpt lat="44.99264" lon="5.49631">
        <ele>1437.8000488281</ele>
        <time>2024-07-14T08:03:50.000Z</time>
      </trkpt>
      <trkpt lat="44.99262" lon="5.49633">
        <ele>1437.4000244141</ele>
        <time>2024-07-14T08:03:51.000Z</time>
      </trkpt>
      <trkpt lat="44.99259" lon="5.49634">
        <ele>1437</ele>
        <time>2024-07-14T08:03:52.000Z</time>
      </trkpt>
      <trkpt lat="44.99257" lon="5.49636">
        <ele>1436.8000488281</ele>
        <time>2024-07-14T08:03:53.000Z</time>
      </trkpt>
      <trkpt lat="44.99254" lon="5.49638">
        <ele>1436.5999755859</ele>
        <time>2024-07-14T08:03:54.000Z</time>
      </trkpt>
      <trkpt lat="44.99252" lon="5.49639">
        <ele>1436.1999511719</ele>
        <time>2024-07-14T08:03:55.000Z</time>
      </trkpt>
      <trkpt lat="44.99249" lon="5.49641">
        <ele>1436</ele>
        <time>2024-07-14T08:03:56.000Z</time>
      </trkpt>
      <trkpt lat="44.99247" lon="5.49642">
        <ele>1435.8000488281</ele>
        <time>2024-07-14T08:03:57.000Z</time>
      </trkpt>
      <trkpt lat="44.99244" lon="5.49643">
        <ele>1435.5999755859</ele>
        <time>2024-07-14T08:03:58.000Z</time>
      </trkpt>
      <trkpt lat="44.99241" lon="5.49643">
        <ele>1435.4000244141</ele>
        <time>2024-07-14T08:03:59.000Z</time>
      </trkpt>
      <trkpt lat="44.99239" lon="5.49644">
        <ele>1435.1999511719</ele>
        <time>2024-07-14T08:04:00.000Z</time>
      </trkpt>
      <trkpt lat="44.99237" lon="5.49645">
        <ele>1435.1999511719</ele>
        <time>2024-07-14T08:04:01.000Z</time>
      </trkpt>
      <trkpt lat="44.99235" lon="5.49646">
        <ele>1435</ele>
        <time>2024-07-14T08:04:02.000Z</time>
      </trkpt>
      <trkpt lat="44.99233" lon="5.49647">
        <ele>1434.5999755859</ele>
        <time>2024-07-14T08:04:03.000Z</time>
      </trkpt>
      <trkpt lat="44.99231" lon="5.49647">
        <ele>1434.5999755859</ele>
        <time>2024-07-14T08:04:04.000Z</time>
      </trkpt>
      <trkpt lat="44.99229" lon="5.49649">
        <ele>1434.1999511719</ele>
        <time>2024-07-14T08:04:05.000Z</time>
      </trkpt>
      <trkpt lat="44.99227" lon="5.4965">
        <ele>1433.8000488281</ele>
        <time>2024-07-14T08:04:06.000Z</time>
      </trkpt>
      <trkpt lat="44.99226" lon="5.49652">
        <ele>1433.4000244141</ele>
        <time>2024-07-14T08:04:07.000Z</time>
      </trkpt>
      <trkpt lat="44.99224" lon="5.49653">
        <ele>1433</ele>
        <time>2024-07-14T08:04:08.000Z</time>
      </trkpt>
      <trkpt lat="44.99222" lon="5.49655">
        <ele>1432.4000244141</ele>
        <time>2024-07-14T08:04:09.000Z</time>
      </trkpt>
      <trkpt lat="44.99221" lon="5.49656">
        <ele>1432</ele>
        <time>2024-07-14T08:04:10.000Z</time>
      </trkpt>
      <trkpt lat="44.99219" lon="5.49657">
        <ele>1431.5999755859</ele>
        <time>2024-07-14T08:04:11.000Z</time>
      </trkpt>
      <trkpt lat="44.99217" lon="5.49659">
        <ele>1431.1999511719</ele>
        <time>2024-07-14T08:04:12.000Z</time>
      </trkpt>
      <trkpt lat="44.99215" lon="5.4966">
        <ele>1430.1999511719</ele>
        <time>2024-07-14T08:04:13.000Z</time>
      </trkpt>
      <trkpt lat="44.99213" lon="5.49661">
        <ele>1429.8000488281</ele>
        <time>2024-07-14T08:04:14.000Z</time>
      </trkpt>
      <trkpt lat="44.99211" lon="5.49662">
        <ele>1429.5999755859</ele>
        <time>2024-07-14T08:04:15.000Z</time>
      </trkpt>
      <trkpt lat="44.99207" lon="5.49664">
        <ele>1429.4000244141</ele>
        <time>2024-07-14T08:04:16.000Z</time>
      </trkpt>
      <trkpt lat="44.99204" lon="5.49666">
        <ele>1429</ele>
        <time>2024-07-14T08:04:17.000Z</time>
      </trkpt>
      <trkpt lat="44.99202" lon="5.49668">
        <ele>1428.5999755859</ele>
        <time>2024-07-14T08:04:18.000Z</time>
      </trkpt>
      <trkpt lat="44.992" lon="5.49669">
        <ele>1428</ele>
        <time>2024-07-14T08:04:19.000Z</time>
      </trkpt>
      <trkpt lat="44.99198" lon="5.49671">
        <ele>1427.5999755859</ele>
        <time>2024-07-14T08:04:20.000Z</time>
      </trkpt>
      <trkpt lat="44.99197" lon="5.49672">
        <ele>1427.1999511719</ele>
        <time>2024-07-14T08:04:21.000Z</time>
      </trkpt>
      <trkpt lat="44.99197" lon="5.49674">
        <ele>1426.8000488281</ele>
        <time>2024-07-14T08:04:22.000Z</time>
      </trkpt>
      <trkpt lat="44.99197" lon="5.49676">
        <ele>1426.4000244141</ele>
        <time>2024-07-14T08:04:23.000Z</time>
      </trkpt>
      <trkpt lat="44.99197" lon="5.49679">
        <ele>1426</ele>
        <time>2024-07-14T08:04:24.000Z</time>
      </trkpt>
      <trkpt lat="44.99196" lon="5.49681">
        <ele>1425.4000244141</ele>
        <time>2024-07-14T08:04:25.000Z</time>
      </trkpt>
      <trkpt lat="44.99195" lon="5.49684">
        <ele>1425</ele>
        <time>2024-07-14T08:04:26.000Z</time>
      </trkpt>
      <trkpt lat="44.99195" lon="5.49686">
        <ele>1424.4000244141</ele>
        <time>2024-07-14T08:04:27.000Z</time>
      </trkpt>
      <trkpt lat="44.99195" lon="5.49688">
        <ele>1424.1999511719</ele>
        <time>2024-07-14T08:04:28.000Z</time>
      </trkpt>
      <trkpt lat="44.99194" lon="5.49689">
        <ele>1423.4000244141</ele>
        <time>2024-07-14T08:04:29.000Z</time>
      </trkpt>
      <trkpt lat="44.99194" lon="5.49691">
        <ele>1423.1999511719</ele>
        <time>2024-07-14T08:04:30.000Z</time>
      </trkpt>
      <trkpt lat="44.99193" lon="5.49694">
        <ele>1422.8000488281</ele>
        <time>2024-07-14T08:04:31.000Z</time>
      </trkpt>
      <trkpt lat="44.99192" lon="5.49697">
        <ele>1422.4000244141</ele>
        <time>2024-07-14T08:04:32.000Z</time>
      </trkpt>
      <trkpt lat="44.99191" lon="5.497">
        <ele>1421.8000488281</ele>
        <time>2024-07-14T08:04:33.000Z</time>
      </trkpt>
      <trkpt lat="44.9919" lon="5.49703">
        <ele>1421.1999511719</ele>
        <time>2024-07-14T08:04:34.000Z</time>
      </trkpt>
      <trkpt lat="44.99188" lon="5.49706">
        <ele>1420.8000488281</ele>
        <time>2024-07-14T08:04:35.000Z</time>
      </trkpt>
      <trkpt lat="44.99187" lon="5.4971">
        <ele>1420.4000244141</ele>
        <time>2024-07-14T08:04:36.000Z</time>
      </trkpt>
      <trkpt lat="44.99185" lon="5.49713">
        <ele>1419.8000488281</ele>
        <time>2024-07-14T08:04:37.000Z</time>
      </trkpt>
      <trkpt lat="44.99184" lon="5.49716">
        <ele>1419.1999511719</ele>
        <time>2024-07-14T08:04:38.000Z</time>
      </trkpt>
      <trkpt lat="44.99182" lon="5.49718">
        <ele>1419</ele>
        <time>2024-07-14T08:04:39.000Z</time>
      </trkpt>
      <trkpt lat="44.99181" lon="5.49721">
        <ele>1418.5999755859</ele>
        <time>2024-07-14T08:04:40.000Z</time>
      </trkpt>
      <trkpt lat="44.9918" lon="5.49723">
        <ele>1418.4000244141</ele>
        <time>2024-07-14T08:04:41.000Z</time>
      </trkpt>
      <trkpt lat="44.99179" lon="5.49725">
        <ele>1418</ele>
        <time>2024-07-14T08:04:42.000Z</time>
      </trkpt>
      <trkpt lat="44.99178" lon="5.49728">
        <ele>1417.4000244141</ele>
        <time>2024-07-14T08:04:43.000Z</time>
      </trkpt>
      <trkpt lat="44.99176" lon="5.4973">
        <ele>1417.1999511719</ele>
        <time>2024-07-14T08:04:44.000Z</time>
      </trkpt>
      <trkpt lat="44.99175" lon="5.49733">
        <ele>1416.5999755859</ele>
        <time>2024-07-14T08:04:45.000Z</time>
      </trkpt>
      <trkpt lat="44.99174" lon="5.49735">
        <ele>1416.4000244141</ele>
        <time>2024-07-14T08:04:46.000Z</time>
      </trkpt>
      <trkpt lat="44.99173" lon="5.49738">
        <ele>1415.5999755859</ele>
        <time>2024-07-14T08:04:47.000Z</time>
      </trkpt>
      <trkpt lat="44.99171" lon="5.4974">
        <ele>1415</ele>
        <time>2024-07-14T08:04:48.000Z</time>
      </trkpt>
      <trkpt lat="44.9917" lon="5.49743">
        <ele>1414.5999755859</ele>
        <time>2024-07-14T08:04:49.000Z</time>
      </trkpt>
      <trkpt lat="44.99168" lon="5.49746">
        <ele>1414.1999511719</ele>
        <time>2024-07-14T08:04:50.000Z</time>
      </trkpt>
      <trkpt lat="44.99167" lon="5.4975">
        <ele>1413.8000488281</ele>
        <time>2024-07-14T08:04:51.000Z</time>
      </trkpt>
      <trkpt lat="44.99165" lon="5.49752">
        <ele>1413.1999511719</ele>
        <time>2024-07-14T08:04:52.000Z</time>
      </trkpt>
      <trkpt lat="44.99164" lon="5.49755">
        <ele>1412.8000488281</ele>
        <time>2024-07-14T08:04:53.000Z</time>
      </trkpt>
      <trkpt lat="44.99162" lon="5.49758">
        <ele>1412.4000244141</ele>
        <time>2024-07-14T08:04:54.000Z</time>
      </trkpt>
      <trkpt lat="44.99161" lon="5.4976">
        <ele>1412</ele>
        <time>2024-07-14T08:04:55.000Z</time>
      </trkpt>
      <trkpt lat="44.99159" lon="5.49762">
        <ele>1411.5999755859</ele>
        <time>2024-07-14T08:04:56.000Z</time>
      </trkpt>
      <trkpt lat="44.99157" lon="5.49763">
        <ele>1411.1999511719</ele>
        <time>2024-07-14T08:04:57.000Z</time>
      </trkpt>
      <trkpt lat="44.99156" lon="5.49765">
        <ele>1410.5999755859</ele>
        <time>2024-07-14T08:04:58.000Z</time>
      </trkpt>
      <trkpt lat="44.99155" lon="5.49766">
        <ele>1410</ele>
        <time>2024-07-14T08:04:59.000Z</time>
      </trkpt>
      <trkpt lat="44.99153" lon="5.49768">
        <ele>1409.8000488281</ele>
        <time>2024-07-14T08:05:00.000Z</time>
      </trkpt>
      <trkpt lat="44.99151" lon="5.4977">
        <ele>1409.5999755859</ele>
        <time>2024-07-14T08:05:01.000Z</time>
      </trkpt>
      <trkpt lat="44.99149" lon="5.49773">
        <ele>1408.8000488281</ele>
        <time>2024-07-14T08:05:02.000Z</time>
      </trkpt>
      <trkpt lat="44.99147" lon="5.49775">
        <ele>1408.1999511719</ele>
        <time>2024-07-14T08:05:03.000Z</time>
      </trkpt>
      <trkpt lat="44.99145" lon="5.49778">
        <ele>1407.1999511719</ele>
        <time>2024-07-14T08:05:04.000Z</time>
      </trkpt>
      <trkpt lat="44.99142" lon="5.49781">
        <ele>1406.8000488281</ele>
        <time>2024-07-14T08:05:05.000Z</time>
      </trkpt>
      <trkpt lat="44.99139" lon="5.49783">
        <ele>1406.4000244141</ele>
        <time>2024-07-14T08:05:06.000Z</time>
      </trkpt>
      <trkpt lat="44.99137" lon="5.49785">
        <ele>1406</ele>
        <time>2024-07-14T08:05:07.000Z</time>
      </trkpt>
      <trkpt lat="44.99135" lon="5.49788">
        <ele>1405.5999755859</ele>
        <time>2024-07-14T08:05:08.000Z</time>
      </trkpt>
      <trkpt lat="44.99132" lon="5.49791">
        <ele>1405.1999511719</ele>
        <time>2024-07-14T08:05:09.000Z</time>
      </trkpt>
      <trkpt lat="44.99129" lon="5.49793">
        <ele>1404.8000488281</ele>
        <time>2024-07-14T08:05:10.000Z</time>
      </trkpt>
      <trkpt lat="44.99128" lon="5.49795">
        <ele>1404.4000244141</ele>
        <time>2024-07-14T08:05:11.000Z</time>
      </trkpt>
      <trkpt lat="44.99126" lon="5.49797">
        <ele>1404.1999511719</ele>
        <time>2024-07-14T08:05:12.000Z</time>
      </trkpt>
      <trkpt lat="44.99123" lon="5.49799">
        <ele>1404</ele>
        <time>2024-07-14T08:05:13.000Z</time>
      </trkpt>
      <trkpt lat="44.99121" lon="5.498">
        <ele>1404</ele>
        <time>2024-07-14T08:05:14.000Z</time>
      </trkpt>
      <trkpt lat="44.99119" lon="5.49801">
        <ele>1404</ele>
        <time>2024-07-14T08:05:15.000Z</time>
      </trkpt>
      <trkpt lat="44.99116" lon="5.49802">
        <ele>1403.5999755859</ele>
        <time>2024-07-14T08:05:16.000Z</time>
      </trkpt>
      <trkpt lat="44.99114" lon="5.49801">
        <ele>1403.5999755859</ele>
        <time>2024-07-14T08:05:17.000Z</time>
      </trkpt>
      <trkpt lat="44.99111" lon="5.498">
        <ele>1403.5999755859</ele>
        <time>2024-07-14T08:05:18.000Z</time>
      </trkpt>
      <trkpt lat="44.99108" lon="5.498">
        <ele>1403.4000244141</ele>
        <time>2024-07-14T08:05:19.000Z</time>
      </trkpt>
      <trkpt lat="44.99106" lon="5.49801">
        <ele>1403.4000244141</ele>
        <time>2024-07-14T08:05:20.000Z</time>
      </trkpt>
      <trkpt lat="44.99104" lon="5.49803">
        <ele>1403.1999511719</ele>
        <time>2024-07-14T08:05:21.000Z</time>
      </trkpt>
      <trkpt lat="44.99103" lon="5.49805">
        <ele>1403</ele>
        <time>2024-07-14T08:05:22.000Z</time>
      </trkpt>
      <trkpt lat="44.99102" lon="5.49808">
        <ele>1403</ele>
        <time>2024-07-14T08:05:23.000Z</time>
      </trkpt>
      <trkpt lat="44.99102" lon="5.4981">
        <ele>1402.8000488281</ele>
        <time>2024-07-14T08:05:24.000Z</time>
      </trkpt>
      <trkpt lat="44.99101" lon="5.49812">
        <ele>1402.5999755859</ele>
        <time>2024-07-14T08:05:25.000Z</time>
      </trkpt>
      <trkpt lat="44.991" lon="5.49813">
        <ele>1402.5999755859</ele>
        <time>2024-07-14T08:05:26.000Z</time>
      </trkpt>
      <trkpt lat="44.99098" lon="5.49814">
        <ele>1402</ele>
        <time>2024-07-14T08:05:27.000Z</time>
      </trkpt>
      <trkpt lat="44.99098" lon="5.49815">
        <ele>1401.5999755859</ele>
        <time>2024-07-14T08:05:28.000Z</time>
      </trkpt>
      <trkpt lat="44.99097" lon="5.49817">
        <ele>1401.4000244141</ele>
        <time>2024-07-14T08:05:29.000Z</time>
      </trkpt>
      <trkpt lat="44.99096" lon="5.49818">
        <ele>1400.8000488281</ele>
        <time>2024-07-14T08:05:30.000Z</time>
      </trkpt>
      <trkpt lat="44.99096" lon="5.4982">
        <ele>1400.5999755859</ele>
        <time>2024-07-14T08:05:31.000Z</time>
      </trkpt>
      <trkpt lat="44.99095" lon="5.49822">
        <ele>1400</ele>
        <time>2024-07-14T08:05:32.000Z</time>
      </trkpt>
      <trkpt lat="44.99095" lon="5.49824">
        <ele>1399.5999755859</ele>
        <time>2024-07-14T08:05:33.000Z</time>
      </trkpt>
      <trkpt lat="44.99094" lon="5.49826">
        <ele>1399.1999511719</ele>
        <time>2024-07-14T08:05:34.000Z</time>
      </trkpt>
      <trkpt lat="44.99093" lon="5.49828">
        <ele>1398.5999755859</ele>
        <time>2024-07-14T08:05:35.000Z</time>
      </trkpt>
      <trkpt lat="44.99092" lon="5.4983">
        <ele>1398.4000244141</ele>
        <time>2024-07-14T08:05:36.000Z</time>
      </trkpt>
      <trkpt lat="44.99091" lon="5.49832">
        <ele>1397.5999755859</ele>
        <time>2024-07-14T08:05:37.000Z</time>
      </trkpt>
      <trkpt lat="44.99091" lon="5.49834">
        <ele>1397.4000244141</ele>
        <time>2024-07-14T08:05:38.000Z</time>
      </trkpt>
      <trkpt lat="44.9909" lon="5.49835">
        <ele>1396.5999755859</ele>
        <time>2024-07-14T08:05:39.000Z</time>
      </trkpt>
      <trkpt lat="44.9909" lon="5.49837">
        <ele>1395.5999755859</ele>
        <time>2024-07-14T08:05:40.000Z</time>
      </trkpt>
      <trkpt lat="44.99089" lon="5.49838">
        <ele>1395.4000244141</ele>
        <time>2024-07-14T08:05:41.000Z</time>
      </trkpt>
      <trkpt lat="44.99087" lon="5.49839">
        <ele>1395.1999511719</ele>
        <time>2024-07-14T08:05:42.000Z</time>
      </trkpt>
      <trkpt lat="44.99086" lon="5.49841">
        <ele>1395</ele>
        <time>2024-07-14T08:05:43.000Z</time>
      </trkpt>
      <trkpt lat="44.99085" lon="5.49842">
        <ele>1394.5999755859</ele>
        <time>2024-07-14T08:05:44.000Z</time>
      </trkpt>
      <trkpt lat="44.99084" lon="5.49844">
        <ele>1394</ele>
        <time>2024-07-14T08:05:45.000Z</time>
      </trkpt>
      <trkpt lat="44.99082" lon="5.49846">
        <ele>1393.5999755859</ele>
        <time>2024-07-14T08:05:46.000Z</time>
      </trkpt>
      <trkpt lat="44.99081" lon="5.49848">
        <ele>1393</ele>
        <time>2024-07-14T08:05:47.000Z</time>
      </trkpt>
      <trkpt lat="44.9908" lon="5.49849">
        <ele>1392</ele>
        <time>2024-07-14T08:05:48.000Z</time>
      </trkpt>
      <trkpt lat="44.99079" lon="5.49852">
        <ele>1391.8000488281</ele>
        <time>2024-07-14T08:05:49.000Z</time>
      </trkpt>
      <trkpt lat="44.99078" lon="5.49854">
        <ele>1391.1999511719</ele>
        <time>2024-07-14T08:05:50.000Z</time>
      </trkpt>
      <trkpt lat="44.99076" lon="5.49856">
        <ele>1390.1999511719</ele>
        <time>2024-07-14T08:05:51.000Z</time>
      </trkpt>
      <trkpt lat="44.99075" lon="5.49858">
        <ele>1390</ele>
        <time>2024-07-14T08:05:52.000Z</time>
      </trkpt>
      <trkpt lat="44.99074" lon="5.4986">
        <ele>1389.8000488281</ele>
        <time>2024-07-14T08:05:53.000Z</time>
      </trkpt>
      <trkpt lat="44.99073" lon="5.49862">
        <ele>1389.4000244141</ele>
        <time>2024-07-14T08:05:54.000Z</time>
      </trkpt>
      <trkpt lat="44.99073" lon="5.49863">
        <ele>1388.8000488281</ele>
        <time>2024-07-14T08:05:55.000Z</time>
      </trkpt>
      <trkpt lat="44.99072" lon="5.49865">
        <ele>1388.4000244141</ele>
        <time>2024-07-14T08:05:56.000Z</time>
      </trkpt>
      <trkpt lat="44.99071" lon="5.49866">
        <ele>1387.5999755859</ele>
        <time>2024-07-14T08:05:57.000Z</time>
      </trkpt>
      <trkpt lat="44.9907" lon="5.49869">
        <ele>1387.5999755859</ele>
        <time>2024-07-14T08:05:58.000Z</time>
      </trkpt>
      <trkpt lat="44.9907" lon="5.49871">
        <ele>1387</ele>
        <time>2024-07-14T08:05:59.000Z</time>
      </trkpt>
      <trkpt lat="44.99069" lon="5.49873">
        <ele>1386.5999755859</ele>
        <time>2024-07-14T08:06:00.000Z</time>
      </trkpt>
      <trkpt lat="44.99068" lon="5.49874">
        <ele>1386.4000244141</ele>
        <time>2024-07-14T08:06:01.000Z</time>
      </trkpt>
      <trkpt lat="44.99067" lon="5.49876">
        <ele>1385.8000488281</ele>
        <time>2024-07-14T08:06:02.000Z</time>
      </trkpt>
      <trkpt lat="44.99066" lon="5.49878">
        <ele>1385.4000244141</ele>
        <time>2024-07-14T08:06:03.000Z</time>
      </trkpt>
      <trkpt lat="44.99065" lon="5.49879">
        <ele>1385</ele>
        <time>2024-07-14T08:06:04.000Z</time>
      </trkpt>
      <trkpt lat="44.99063" lon="5.49881">
        <ele>1384.4000244141</ele>
        <time>2024-07-14T08:06:05.000Z</time>
      </trkpt>
      <trkpt lat="44.99062" lon="5.49882">
        <ele>1383.8000488281</ele>
        <time>2024-07-14T08:06:06.000Z</time>
      </trkpt>
      <trkpt lat="44.9906" lon="5.49884">
        <ele>1383.4000244141</ele>
        <time>2024-07-14T08:06:07.000Z</time>
      </trkpt>
      <trkpt lat="44.99059" lon="5.49885">
        <ele>1382.4000244141</ele>
        <time>2024-07-14T08:06:08.000Z</time>
      </trkpt>
      <trkpt lat="44.99057" lon="5.49887">
        <ele>1382.1999511719</ele>
        <time>2024-07-14T08:06:09.000Z</time>
      </trkpt>
      <trkpt lat="44.99056" lon="5.49889">
        <ele>1381.5999755859</ele>
        <time>2024-07-14T08:06:10.000Z</time>
      </trkpt>
      <trkpt lat="44.99054" lon="5.4989">
        <ele>1381.4000244141</ele>
        <time>2024-07-14T08:06:11.000Z</time>
      </trkpt>
      <trkpt lat="44.99053" lon="5.49892">
        <ele>1381.1999511719</ele>
        <time>2024-07-14T08:06:12.000Z</time>
      </trkpt>
      <trkpt lat="44.99052" lon="5.49894">
        <ele>1380.8000488281</ele>
        <time>2024-07-14T08:06:13.000Z</time>
      </trkpt>
      <trkpt lat="44.99051" lon="5.49896">
        <ele>1380.4000244141</ele>
        <time>2024-07-14T08:06:14.000Z</time>
      </trkpt>
      <trkpt lat="44.9905" lon="5.49897">
        <ele>1379.5999755859</ele>
        <time>2024-07-14T08:06:15.000Z</time>
      </trkpt>
      <trkpt lat="44.99049" lon="5.49898">
        <ele>1379</ele>
        <time>2024-07-14T08:06:16.000Z</time>
      </trkpt>
      <trkpt lat="44.99048" lon="5.499">
        <ele>1378.5999755859</ele>
        <time>2024-07-14T08:06:17.000Z</time>
      </trkpt>
      <trkpt lat="44.99047" lon="5.49901">
        <ele>1378</ele>
        <time>2024-07-14T08:06:18.000Z</time>
      </trkpt>
      <trkpt lat="44.99046" lon="5.49902">
        <ele>1377.5999755859</ele>
        <time>2024-07-14T08:06:19.000Z</time>
      </trkpt>
      <trkpt lat="44.99045" lon="5.49903">
        <ele>1377.4000244141</ele>
        <time>2024-07-14T08:06:20.000Z</time>
      </trkpt>
      <trkpt lat="44.99045" lon="5.49903">
        <ele>1377</ele>
        <time>2024-07-14T08:06:21.000Z</time>
      </trkpt>
      <trkpt lat="44.99044" lon="5.49904">
        <ele>1376.4000244141</ele>
        <time>2024-07-14T08:06:22.000Z</time>
      </trkpt>
      <trkpt lat="44.99043" lon="5.49906">
        <ele>1375.5999755859</ele>
        <time>2024-07-14T08:06:23.000Z</time>
      </trkpt>
      <trkpt lat="44.99042" lon="5.49907">
        <ele>1375.1999511719</ele>
        <time>2024-07-14T08:06:24.000Z</time>
      </trkpt>
      <trkpt lat="44.99041" lon="5.49908">
        <ele>1375</ele>
        <time>2024-07-14T08:06:25.000Z</time>
      </trkpt>
      <trkpt lat="44.9904" lon="5.49911">
        <ele>1374.5999755859</ele>
        <time>2024-07-14T08:06:26.000Z</time>
      </trkpt>
      <trkpt lat="44.99039" lon="5.49912">
        <ele>1374.1999511719</ele>
        <time>2024-07-14T08:06:27.000Z</time>
      </trkpt>
      <trkpt lat="44.99038" lon="5.49914">
        <ele>1373.5999755859</ele>
        <time>2024-07-14T08:06:28.000Z</time>
      </trkpt>
      <trkpt lat="44.99037" lon="5.49916">
        <ele>1373.1999511719</ele>
        <time>2024-07-14T08:06:29.000Z</time>
      </trkpt>
      <trkpt lat="44.99035" lon="5.49918">
        <ele>1372.8000488281</ele>
        <time>2024-07-14T08:06:30.000Z</time>
      </trkpt>
      <trkpt lat="44.99034" lon="5.49919">
        <ele>1372.1999511719</ele>
        <time>2024-07-14T08:06:31.000Z</time>
      </trkpt>
      <trkpt lat="44.99032" lon="5.49921">
        <ele>1372</ele>
        <time>2024-07-14T08:06:32.000Z</time>
      </trkpt>
      <trkpt lat="44.99031" lon="5.49922">
        <ele>1371.5999755859</ele>
        <time>2024-07-14T08:06:33.000Z</time>
      </trkpt>
      <trkpt lat="44.99029" lon="5.49923">
        <ele>1371</ele>
        <time>2024-07-14T08:06:34.000Z</time>
      </trkpt>
      <trkpt lat="44.99028" lon="5.49925">
        <ele>1370.5999755859</ele>
        <time>2024-07-14T08:06:35.000Z</time>
      </trkpt>
      <trkpt lat="44.99026" lon="5.49927">
        <ele>1370.1999511719</ele>
        <time>2024-07-14T08:06:36.000Z</time>
      </trkpt>
      <trkpt lat="44.99024" lon="5.49929">
        <ele>1370</ele>
        <time>2024-07-14T08:06:37.000Z</time>
      </trkpt>
      <trkpt lat="44.99022" lon="5.49932">
        <ele>1369.4000244141</ele>
        <time>2024-07-14T08:06:38.000Z</time>
      </trkpt>
      <trkpt lat="44.9902" lon="5.49935">
        <ele>1368.8000488281</ele>
        <time>2024-07-14T08:06:39.000Z</time>
      </trkpt>
      <trkpt lat="44.99017" lon="5.49938">
        <ele>1368.5999755859</ele>
        <time>2024-07-14T08:06:40.000Z</time>
      </trkpt>
      <trkpt lat="44.99015" lon="5.4994">
        <ele>1368.1999511719</ele>
        <time>2024-07-14T08:06:41.000Z</time>
      </trkpt>
      <trkpt lat="44.99013" lon="5.49942">
        <ele>1367.8000488281</ele>
        <time>2024-07-14T08:06:42.000Z</time>
      </trkpt>
      <trkpt lat="44.99011" lon="5.49945">
        <ele>1367.4000244141</ele>
        <time>2024-07-14T08:06:43.000Z</time>
      </trkpt>
      <trkpt lat="44.9901" lon="5.49946">
        <ele>1366.8000488281</ele>
        <time>2024-07-14T08:06:44.000Z</time>
      </trkpt>
      <trkpt lat="44.99008" lon="5.49948">
        <ele>1366.4000244141</ele>
        <time>2024-07-14T08:06:45.000Z</time>
      </trkpt>
      <trkpt lat="44.99007" lon="5.4995">
        <ele>1366.1999511719</ele>
        <time>2024-07-14T08:06:46.000Z</time>
      </trkpt>
      <trkpt lat="44.99006" lon="5.49952">
        <ele>1366.1999511719</ele>
        <time>2024-07-14T08:06:47.000Z</time>
      </trkpt>
      <trkpt lat="44.99005" lon="5.49954">
        <ele>1365.4000244141</ele>
        <time>2024-07-14T08:06:48.000Z</time>
      </trkpt>
      <trkpt lat="44.99004" lon="5.49956">
        <ele>1364.8000488281</ele>
        <time>2024-07-14T08:06:49.000Z</time>
      </trkpt>
      <trkpt lat="44.99002" lon="5.49958">
        <ele>1364.1999511719</ele>
        <time>2024-07-14T08:06:50.000Z</time>
      </trkpt>
      <trkpt lat="44.99001" lon="5.4996">
        <ele>1363.5999755859</ele>
        <time>2024-07-14T08:06:51.000Z</time>
      </trkpt>
      <trkpt lat="44.99" lon="5.49962">
        <ele>1363.4000244141</ele>
        <time>2024-07-14T08:06:52.000Z</time>
      </trkpt>
      <trkpt lat="44.98998" lon="5.49964">
        <ele>1362.8000488281</ele>
        <time>2024-07-14T08:06:53.000Z</time>
      </trkpt>
      <trkpt lat="44.98997" lon="5.49965">
        <ele>1362.5999755859</ele>
        <time>2024-07-14T08:06:54.000Z</time>
      </trkpt>
      <trkpt lat="44.98995" lon="5.49968">
        <ele>1362</ele>
        <time>2024-07-14T08:06:55.000Z</time>
      </trkpt>
      <trkpt lat="44.98993" lon="5.49969">
        <ele>1361.5999755859</ele>
        <time>2024-07-14T08:06:56.000Z</time>
      </trkpt>
      <trkpt lat="44.98991" lon="5.4997">
        <ele>1361.1999511719</ele>
        <time>2024-07-14T08:06:57.000Z</time>
      </trkpt>
      <trkpt lat="44.98988" lon="5.49972">
        <ele>1361</ele>
        <time>2024-07-14T08:06:58.000Z</time>
      </trkpt>
      <trkpt lat="44.98986" lon="5.49974">
        <ele>1360.4000244141</ele>
        <time>2024-07-14T08:06:59.000Z</time>
      </trkpt>
      <trkpt lat="44.98984" lon="5.49976">
        <ele>1360.1999511719</ele>
        <time>2024-07-14T08:07:00.000Z</time>
      </trkpt>
      <trkpt lat="44.98982" lon="5.49977">
        <ele>1360</ele>
        <time>2024-07-14T08:07:01.000Z</time>
      </trkpt>
      <trkpt lat="44.98981" lon="5.4998">
        <ele>1359.5999755859</ele>
        <time>2024-07-14T08:07:02.000Z</time>
      </trkpt>
      <trkpt lat="44.98979" lon="5.49982">
        <ele>1359.4000244141</ele>
        <time>2024-07-14T08:07:03.000Z</time>
      </trkpt>
      <trkpt lat="44.98977" lon="5.49984">
        <ele>1359</ele>
        <time>2024-07-14T08:07:04.000Z</time>
      </trkpt>
      <trkpt lat="44.98976" lon="5.49986">
        <ele>1358.8000488281</ele>
        <time>2024-07-14T08:07:05.000Z</time>
      </trkpt>
      <trkpt lat="44.98974" lon="5.49989">
        <ele>1358.5999755859</ele>
        <time>2024-07-14T08:07:06.000Z</time>
      </trkpt>
      <trkpt lat="44.98974" lon="5.4999">
        <ele>1358.4000244141</ele>
        <time>2024-07-14T08:07:07.000Z</time>
      </trkpt>
      <trkpt lat="44.98973" lon="5.49993">
        <ele>1358.1999511719</ele>
        <time>2024-07-14T08:07:08.000Z</time>
      </trkpt>
      <trkpt lat="44.98973" lon="5.49995">
        <ele>1357.8000488281</ele>
        <time>2024-07-14T08:07:09.000Z</time>
      </trkpt>
      <trkpt lat="44.98973" lon="5.49996">
        <ele>1357.5999755859</ele>
        <time>2024-07-14T08:07:10.000Z</time>
      </trkpt>
      <trkpt lat="44.98973" lon="5.49998">
        <ele>1357.1999511719</ele>
        <time>2024-07-14T08:07:11.000Z</time>
      </trkpt>
      <trkpt lat="44.98972" lon="5.5">
        <ele>1356.4000244141</ele>
        <time>2024-07-14T08:07:12.000Z</time>
      </trkpt>
      <trkpt lat="44.98971" lon="5.50003">
        <ele>1356.1999511719</ele>
        <time>2024-07-14T08:07:13.000Z</time>
      </trkpt>
      <trkpt lat="44.98969" lon="5.50005">
        <ele>1355.5999755859</ele>
        <time>2024-07-14T08:07:14.000Z</time>
      </trkpt>
      <trkpt lat="44.98967" lon="5.50008">
        <ele>1355.5999755859</ele>
        <time>2024-07-14T08:07:15.000Z</time>
      </trkpt>
      <trkpt lat="44.98966" lon="5.5001">
        <ele>1355.1999511719</ele>
        <time>2024-07-14T08:07:16.000Z</time>
      </trkpt>
      <trkpt lat="44.98964" lon="5.50012">
        <ele>1354.1999511719</ele>
        <time>2024-07-14T08:07:17.000Z</time>
      </trkpt>
      <trkpt lat="44.98962" lon="5.50015">
        <ele>1353.5999755859</ele>
        <time>2024-07-14T08:07:18.000Z</time>
      </trkpt>
      <trkpt lat="44.9896" lon="5.50017">
        <ele>1352.5999755859</ele>
        <time>2024-07-14T08:07:19.000Z</time>
      </trkpt>
      <trkpt lat="44.98958" lon="5.50019">
        <ele>1352.1999511719</ele>
        <time>2024-07-14T08:07:20.000Z</time>
      </trkpt>
      <trkpt lat="44.98956" lon="5.50021">
        <ele>1352</ele>
        <time>2024-07-14T08:07:21.000Z</time>
      </trkpt>
      <trkpt lat="44.98954" lon="5.50023">
        <ele>1351.5999755859</ele>
        <time>2024-07-14T08:07:22.000Z</time>
      </trkpt>
      <trkpt lat="44.98952" lon="5.50025">
        <ele>1351.5999755859</ele>
        <time>2024-07-14T08:07:23.000Z</time>
      </trkpt>
      <trkpt lat="44.98951" lon="5.50027">
        <ele>1351.1999511719</ele>
        <time>2024-07-14T08:07:24.000Z</time>
      </trkpt>
      <trkpt lat="44.9895" lon="5.50029">
        <ele>1350.5999755859</ele>
        <time>2024-07-14T08:07:25.000Z</time>
      </trkpt>
      <trkpt lat="44.98948" lon="5.50032">
        <ele>1350.1999511719</ele>
        <time>2024-07-14T08:07:26.000Z</time>
      </trkpt>
      <trkpt lat="44.98947" lon="5.50034">
        <ele>1349.8000488281</ele>
        <time>2024-07-14T08:07:27.000Z</time>
      </trkpt>
      <trkpt lat="44.98946" lon="5.50036">
        <ele>1349.4000244141</ele>
        <time>2024-07-14T08:07:28.000Z</time>
      </trkpt>
      <trkpt lat="44.98944" lon="5.50039">
        <ele>1349.1999511719</ele>
        <time>2024-07-14T08:07:29.000Z</time>
      </trkpt>
      <trkpt lat="44.98943" lon="5.50042">
        <ele>1349</ele>
        <time>2024-07-14T08:07:30.000Z</time>
      </trkpt>
      <trkpt lat="44.98941" lon="5.50045">
        <ele>1348.5999755859</ele>
        <time>2024-07-14T08:07:31.000Z</time>
      </trkpt>
      <trkpt lat="44.9894" lon="5.50048">
        <ele>1348.1999511719</ele>
        <time>2024-07-14T08:07:32.000Z</time>
      </trkpt>
      <trkpt lat="44.98938" lon="5.50051">
        <ele>1347.4000244141</ele>
        <time>2024-07-14T08:07:33.000Z</time>
      </trkpt>
      <trkpt lat="44.98937" lon="5.50053">
        <ele>1347</ele>
        <time>2024-07-14T08:07:34.000Z</time>
      </trkpt>
      <trkpt lat="44.98936" lon="5.50057">
        <ele>1346.8000488281</ele>
        <time>2024-07-14T08:07:35.000Z</time>
      </trkpt>
      <trkpt lat="44.98935" lon="5.5006">
        <ele>1346.4000244141</ele>
        <time>2024-07-14T08:07:36.000Z</time>
      </trkpt>
      <trkpt lat="44.98935" lon="5.50063">
        <ele>1346</ele>
        <time>2024-07-14T08:07:37.000Z</time>
      </trkpt>
      <trkpt lat="44.98935" lon="5.50066">
        <ele>1345.5999755859</ele>
        <time>2024-07-14T08:07:38.000Z</time>
      </trkpt>
      <trkpt lat="44.98936" lon="5.50068">
        <ele>1345.1999511719</ele>
        <time>2024-07-14T08:07:39.000Z</time>
      </trkpt>
      <trkpt lat="44.98937" lon="5.50071">
        <ele>1345</ele>
        <time>2024-07-14T08:07:40.000Z</time>
      </trkpt>
      <trkpt lat="44.98938" lon="5.50074">
        <ele>1344.5999755859</ele>
        <time>2024-07-14T08:07:41.000Z</time>
      </trkpt>
      <trkpt lat="44.9894" lon="5.50076">
        <ele>1344.1999511719</ele>
        <time>2024-07-14T08:07:42.000Z</time>
      </trkpt>
      <trkpt lat="44.98942" lon="5.50077">
        <ele>1344</ele>
        <time>2024-07-14T08:07:43.000Z</time>
      </trkpt>
      <trkpt lat="44.98944" lon="5.5008">
        <ele>1343.8000488281</ele>
        <time>2024-07-14T08:07:44.000Z</time>
      </trkpt>
      <trkpt lat="44.98945" lon="5.50082">
        <ele>1343.5999755859</ele>
        <time>2024-07-14T08:07:45.000Z</time>
      </trkpt>
      <trkpt lat="44.98949" lon="5.50084">
        <ele>1343.4000244141</ele>
        <time>2024-07-14T08:07:46.000Z</time>
      </trkpt>
      <trkpt lat="44.98952" lon="5.50085">
        <ele>1343.4000244141</ele>
        <time>2024-07-14T08:07:47.000Z</time>
      </trkpt>
      <trkpt lat="44.98955" lon="5.50086">
        <ele>1343.4000244141</ele>
        <time>2024-07-14T08:07:48.000Z</time>
      </trkpt>
      <trkpt lat="44.98958" lon="5.50087">
        <ele>1343.4000244141</ele>
        <time>2024-07-14T08:07:49.000Z</time>
      </trkpt>
      <trkpt lat="44.9896" lon="5.50087">
        <ele>1343.4000244141</ele>
        <time>2024-07-14T08:07:50.000Z</time>
      </trkpt>
      <trkpt lat="44.98963" lon="5.50088">
        <ele>1343.4000244141</ele>
        <time>2024-07-14T08:07:51.000Z</time>
      </trkpt>
      <trkpt lat="44.98965" lon="5.50089">
        <ele>1343.4000244141</ele>
        <time>2024-07-14T08:07:52.000Z</time>
      </trkpt>
      <trkpt lat="44.98967" lon="5.5009">
        <ele>1343.4000244141</ele>
        <time>2024-07-14T08:07:53.000Z</time>
      </trkpt>
      <trkpt lat="44.98969" lon="5.50091">
        <ele>1343.4000244141</ele>
        <time>2024-07-14T08:07:54.000Z</time>
      </trkpt>
      <trkpt lat="44.9897" lon="5.50093">
        <ele>1343.4000244141</ele>
        <time>2024-07-14T08:07:55.000Z</time>
      </trkpt>
      <trkpt lat="44.98972" lon="5.50094">
        <ele>1343.4000244141</ele>
        <time>2024-07-14T08:07:56.000Z</time>
      </trkpt>
      <trkpt lat="44.98974" lon="5.50096">
        <ele>1343.1999511719</ele>
        <time>2024-07-14T08:07:57.000Z</time>
      </trkpt>
      <trkpt lat="44.98975" lon="5.50097">
        <ele>1343.1999511719</ele>
        <time>2024-07-14T08:07:58.000Z</time>
      </trkpt>
      <trkpt lat="44.98976" lon="5.50099">
        <ele>1343</ele>
        <time>2024-07-14T08:07:59.000Z</time>
      </trkpt>
      <trkpt lat="44.98978" lon="5.50101">
        <ele>1342.5999755859</ele>
        <time>2024-07-14T08:08:00.000Z</time>
      </trkpt>
      <trkpt lat="44.9898" lon="5.50103">
        <ele>1342.4000244141</ele>
        <time>2024-07-14T08:08:01.000Z</time>
      </trkpt>
      <trkpt lat="44.98982" lon="5.50105">
        <ele>1342</ele>
        <time>2024-07-14T08:08:02.000Z</time>
      </trkpt>
      <trkpt lat="44.98985" lon="5.50107">
        <ele>1341.5999755859</ele>
        <time>2024-07-14T08:08:03.000Z</time>
      </trkpt>
      <trkpt lat="44.98987" lon="5.5011">
        <ele>1341.1999511719</ele>
        <time>2024-07-14T08:08:04.000Z</time>
      </trkpt>
      <trkpt lat="44.9899" lon="5.50112">
        <ele>1340.8000488281</ele>
        <time>2024-07-14T08:08:05.000Z</time>
      </trkpt>
      <trkpt lat="44.98992" lon="5.50114">
        <ele>1340.4000244141</ele>
        <time>2024-07-14T08:08:06.000Z</time>
      </trkpt>
      <trkpt lat="44.98995" lon="5.50116">
        <ele>1340.4000244141</ele>
        <time>2024-07-14T08:08:07.000Z</time>
      </trkpt>
      <trkpt lat="44.98997" lon="5.50118">
        <ele>1340.1999511719</ele>
        <time>2024-07-14T08:08:08.000Z</time>
      </trkpt>
      <trkpt lat="44.98999" lon="5.5012">
        <ele>1340</ele>
        <time>2024-07-14T08:08:09.000Z</time>
      </trkpt>
      <trkpt lat="44.99001" lon="5.50122">
        <ele>1340</ele>
        <time>2024-07-14T08:08:10.000Z</time>
      </trkpt>
      <trkpt lat="44.99004" lon="5.50123">
        <ele>1339.8000488281</ele>
        <time>2024-07-14T08:08:11.000Z</time>
      </trkpt>
      <trkpt lat="44.99007" lon="5.50124">
        <ele>1339.8000488281</ele>
        <time>2024-07-14T08:08:12.000Z</time>
      </trkpt>
      <trkpt lat="44.9901" lon="5.50125">
        <ele>1339.5999755859</ele>
        <time>2024-07-14T08:08:13.000Z</time>
      </trkpt>
      <trkpt lat="44.99012" lon="5.50127">
        <ele>1339.5999755859</ele>
        <time>2024-07-14T08:08:14.000Z</time>
      </trkpt>
      <trkpt lat="44.99015" lon="5.50128">
        <ele>1339.5999755859</ele>
        <time>2024-07-14T08:08:15.000Z</time>
      </trkpt>
      <trkpt lat="44.99017" lon="5.50129">
        <ele>1339.5999755859</ele>
        <time>2024-07-14T08:08:16.000Z</time>
      </trkpt>
      <trkpt lat="44.99019" lon="5.5013">
        <ele>1339.5999755859</ele>
        <time>2024-07-14T08:08:17.000Z</time>
      </trkpt>
      <trkpt lat="44.99022" lon="5.50131">
        <ele>1339.8000488281</ele>
        <time>2024-07-14T08:08:18.000Z</time>
      </trkpt>
      <trkpt lat="44.99024" lon="5.50133">
        <ele>1339.8000488281</ele>
        <time>2024-07-14T08:08:19.000Z</time>
      </trkpt>
      <trkpt lat="44.99026" lon="5.50134">
        <ele>1340</ele>
        <time>2024-07-14T08:08:20.000Z</time>
      </trkpt>
      <trkpt lat="44.99028" lon="5.50136">
        <ele>1340</ele>
        <time>2024-07-14T08:08:21.000Z</time>
      </trkpt>
      <trkpt lat="44.9903" lon="5.50138">
        <ele>1340</ele>
        <time>2024-07-14T08:08:22.000Z</time>
      </trkpt>
      <trkpt lat="44.99031" lon="5.5014">
        <ele>1339.8000488281</ele>
        <time>2024-07-14T08:08:23.000Z</time>
      </trkpt>
      <trkpt lat="44.99033" lon="5.50142">
        <ele>1339.5999755859</ele>
        <time>2024-07-14T08:08:24.000Z</time>
      </trkpt>
      <trkpt lat="44.99034" lon="5.50144">
        <ele>1339.5999755859</ele>
        <time>2024-07-14T08:08:25.000Z</time>
      </trkpt>
      <trkpt lat="44.99036" lon="5.50146">
        <ele>1339.4000244141</ele>
        <time>2024-07-14T08:08:26.000Z</time>
      </trkpt>
      <trkpt lat="44.99038" lon="5.50148">
        <ele>1339.4000244141</ele>
        <time>2024-07-14T08:08:27.000Z</time>
      </trkpt>
      <trkpt lat="44.9904" lon="5.50149">
        <ele>1339.4000244141</ele>
        <time>2024-07-14T08:08:28.000Z</time>
      </trkpt>
      <trkpt lat="44.99043" lon="5.50151">
        <ele>1339.1999511719</ele>
        <time>2024-07-14T08:08:29.000Z</time>
      </trkpt>
      <trkpt lat="44.99045" lon="5.50153">
        <ele>1339.1999511719</ele>
        <time>2024-07-14T08:08:30.000Z</time>
      </trkpt>
      <trkpt lat="44.99048" lon="5.50154">
        <ele>1339</ele>
        <time>2024-07-14T08:08:31.000Z</time>
      </trkpt>
      <trkpt lat="44.99051" lon="5.50156">
        <ele>1338.8000488281</ele>
        <time>2024-07-14T08:08:32.000Z</time>
      </trkpt>
      <trkpt lat="44.99053" lon="5.50157">
        <ele>1338.5999755859</ele>
        <time>2024-07-14T08:08:33.000Z</time>
      </trkpt>
      <trkpt lat="44.99056" lon="5.50158">
        <ele>1338.4000244141</ele>
        <time>2024-07-14T08:08:34.000Z</time>
      </trkpt>
      <trkpt lat="44.99058" lon="5.5016">
        <ele>1338.1999511719</ele>
        <time>2024-07-14T08:08:35.000Z</time>
      </trkpt>
      <trkpt lat="44.99061" lon="5.50162">
        <ele>1338</ele>
        <time>2024-07-14T08:08:36.000Z</time>
      </trkpt>
      <trkpt lat="44.99063" lon="5.50164">
        <ele>1338</ele>
        <time>2024-07-14T08:08:37.000Z</time>
      </trkpt>
      <trkpt lat="44.99065" lon="5.50166">
        <ele>1337.8000488281</ele>
        <time>2024-07-14T08:08:38.000Z</time>
      </trkpt>
      <trkpt lat="44.99068" lon="5.50169">
        <ele>1337.8000488281</ele>
        <time>2024-07-14T08:08:39.000Z</time>
      </trkpt>
      <trkpt lat="44.99069" lon="5.50172">
        <ele>1337.8000488281</ele>
        <time>2024-07-14T08:08:40.000Z</time>
      </trkpt>
      <trkpt lat="44.99071" lon="5.50174">
        <ele>1337.8000488281</ele>
        <time>2024-07-14T08:08:41.000Z</time>
      </trkpt>
      <trkpt lat="44.99074" lon="5.50177">
        <ele>1338</ele>
        <time>2024-07-14T08:08:42.000Z</time>
      </trkpt>
      <trkpt lat="44.99075" lon="5.50179">
        <ele>1338</ele>
        <time>2024-07-14T08:08:43.000Z</time>
      </trkpt>
      <trkpt lat="44.99077" lon="5.50182">
        <ele>1338</ele>
        <time>2024-07-14T08:08:44.000Z</time>
      </trkpt>
      <trkpt lat="44.99078" lon="5.50185">
        <ele>1338</ele>
        <time>2024-07-14T08:08:45.000Z</time>
      </trkpt>
      <trkpt lat="44.9908" lon="5.50187">
        <ele>1338.1999511719</ele>
        <time>2024-07-14T08:08:46.000Z</time>
      </trkpt>
      <trkpt lat="44.99081" lon="5.50189">
        <ele>1338</ele>
        <time>2024-07-14T08:08:47.000Z</time>
      </trkpt>
      <trkpt lat="44.99083" lon="5.50191">
        <ele>1338</ele>
        <time>2024-07-14T08:08:48.000Z</time>
      </trkpt>
      <trkpt lat="44.99084" lon="5.50194">
        <ele>1338</ele>
        <time>2024-07-14T08:08:49.000Z</time>
      </trkpt>
      <trkpt lat="44.99085" lon="5.50196">
        <ele>1338.1999511719</ele>
        <time>2024-07-14T08:08:50.000Z</time>
      </trkpt>
      <trkpt lat="44.99087" lon="5.50197">
        <ele>1338.1999511719</ele>
        <time>2024-07-14T08:08:51.000Z</time>
      </trkpt>
      <trkpt lat="44.99088" lon="5.502">
        <ele>1338.1999511719</ele>
        <time>2024-07-14T08:08:52.000Z</time>
      </trkpt>
      <trkpt lat="44.9909" lon="5.50202">
        <ele>1338.4000244141</ele>
        <time>2024-07-14T08:08:53.000Z</time>
      </trkpt>
      <trkpt lat="44.99091" lon="5.50203">
        <ele>1338.4000244141</ele>
        <time>2024-07-14T08:08:54.000Z</time>
      </trkpt>
      <trkpt lat="44.99093" lon="5.50205">
        <ele>1338.4000244141</ele>
        <time>2024-07-14T08:08:55.000Z</time>
      </trkpt>
      <trkpt lat="44.99095" lon="5.50207">
        <ele>1338.5999755859</ele>
        <time>2024-07-14T08:08:56.000Z</time>
      </trkpt>
      <trkpt lat="44.99097" lon="5.50209">
        <ele>1338.4000244141</ele>
        <time>2024-07-14T08:08:57.000Z</time>
      </trkpt>
      <trkpt lat="44.991" lon="5.5021">
        <ele>1338.4000244141</ele>
        <time>2024-07-14T08:08:58.000Z</time>
      </trkpt>
      <trkpt lat="44.99102" lon="5.50211">
        <ele>1338.1999511719</ele>
        <time>2024-07-14T08:08:59.000Z</time>
      </trkpt>
      <trkpt lat="44.99104" lon="5.50212">
        <ele>1338</ele>
        <time>2024-07-14T08:09:00.000Z</time>
      </trkpt>
      <trkpt lat="44.99107" lon="5.50213">
        <ele>1337.8000488281</ele>
        <time>2024-07-14T08:09:01.000Z</time>
      </trkpt>
      <trkpt lat="44.99109" lon="5.50213">
        <ele>1337.8000488281</ele>
        <time>2024-07-14T08:09:02.000Z</time>
      </trkpt>
      <trkpt lat="44.99112" lon="5.50214">
        <ele>1337.5999755859</ele>
        <time>2024-07-14T08:09:03.000Z</time>
      </trkpt>
      <trkpt lat="44.99114" lon="5.50214">
        <ele>1337.5999755859</ele>
        <time>2024-07-14T08:09:04.000Z</time>
      </trkpt>
      <trkpt lat="44.99115" lon="5.50214">
        <ele>1337.4000244141</ele>
        <time>2024-07-14T08:09:05.000Z</time>
      </trkpt>
      <trkpt lat="44.99117" lon="5.50214">
        <ele>1337.4000244141</ele>
        <time>2024-07-14T08:09:06.000Z</time>
      </trkpt>
      <trkpt lat="44.99119" lon="5.50214">
        <ele>1337.4000244141</ele>
        <time>2024-07-14T08:09:07.000Z</time>
      </trkpt>
      <trkpt lat="44.99121" lon="5.50214">
        <ele>1337.4000244141</ele>
        <time>2024-07-14T08:09:08.000Z</time>
      </trkpt>
      <trkpt lat="44.99123" lon="5.50215">
        <ele>1337.1999511719</ele>
        <time>2024-07-14T08:09:09.000Z</time>
      </trkpt>
      <trkpt lat="44.99125" lon="5.50216">
        <ele>1337</ele>
        <time>2024-07-14T08:09:10.000Z</time>
      </trkpt>
      <trkpt lat="44.99126" lon="5.50216">
        <ele>1336.8000488281</ele>
        <time>2024-07-14T08:09:11.000Z</time>
      </trkpt>
      <trkpt lat="44.99128" lon="5.50215">
        <ele>1336.5999755859</ele>
        <time>2024-07-14T08:09:12.000Z</time>
      </trkpt>
      <trkpt lat="44.9913" lon="5.50215">
        <ele>1336.5999755859</ele>
        <time>2024-07-14T08:09:13.000Z</time>
      </trkpt>
      <trkpt lat="44.99132" lon="5.50214">
        <ele>1336.4000244141</ele>
        <time>2024-07-14T08:09:14.000Z</time>
      </trkpt>
      <trkpt lat="44.99134" lon="5.50214">
        <ele>1336.4000244141</ele>
        <time>2024-07-14T08:09:15.000Z</time>
      </trkpt>
      <trkpt lat="44.99136" lon="5.50215">
        <ele>1336.4000244141</ele>
        <time>2024-07-14T08:09:16.000Z</time>
      </trkpt>
      <trkpt lat="44.99139" lon="5.50215">
        <ele>1336.4000244141</ele>
        <time>2024-07-14T08:09:17.000Z</time>
      </trkpt>
      <trkpt lat="44.99141" lon="5.50216">
        <ele>1336.4000244141</ele>
        <time>2024-07-14T08:09:18.000Z</time>
      </trkpt>
      <trkpt lat="44.99144" lon="5.50216">
        <ele>1336.4000244141</ele>
        <time>2024-07-14T08:09:19.000Z</time>
      </trkpt>
      <trkpt lat="44.99147" lon="5.50217">
        <ele>1336.5999755859</ele>
        <time>2024-07-14T08:09:20.000Z</time>
      </trkpt>
      <trkpt lat="44.99149" lon="5.50217">
        <ele>1336.5999755859</ele>
        <time>2024-07-14T08:09:21.000Z</time>
      </trkpt>
      <trkpt lat="44.99151" lon="5.50217">
        <ele>1336.5999755859</ele>
        <time>2024-07-14T08:09:22.000Z</time>
      </trkpt>
      <trkpt lat="44.99154" lon="5.50217">
        <ele>1336.4000244141</ele>
        <time>2024-07-14T08:09:23.000Z</time>
      </trkpt>
      <trkpt lat="44.99156" lon="5.50218">
        <ele>1336.4000244141</ele>
        <time>2024-07-14T08:09:24.000Z</time>
      </trkpt>
      <trkpt lat="44.99159" lon="5.50219">
        <ele>1336.4000244141</ele>
        <time>2024-07-14T08:09:25.000Z</time>
      </trkpt>
      <trkpt lat="44.99161" lon="5.5022">
        <ele>1336.4000244141</ele>
        <time>2024-07-14T08:09:26.000Z</time>
      </trkpt>
      <trkpt lat="44.99164" lon="5.50221">
        <ele>1336.1999511719</ele>
        <time>2024-07-14T08:09:27.000Z</time>
      </trkpt>
      <trkpt lat="44.99166" lon="5.50223">
        <ele>1336.1999511719</ele>
        <time>2024-07-14T08:09:28.000Z</time>
      </trkpt>
      <trkpt lat="44.99168" lon="5.50225">
        <ele>1336</ele>
        <time>2024-07-14T08:09:29.000Z</time>
      </trkpt>
      <trkpt lat="44.9917" lon="5.50227">
        <ele>1336</ele>
        <time>2024-07-14T08:09:30.000Z</time>
      </trkpt>
      <trkpt lat="44.99172" lon="5.50229">
        <ele>1335.8000488281</ele>
        <time>2024-07-14T08:09:31.000Z</time>
      </trkpt>
      <trkpt lat="44.99173" lon="5.5023">
        <ele>1335.4000244141</ele>
        <time>2024-07-14T08:09:32.000Z</time>
      </trkpt>
      <trkpt lat="44.99175" lon="5.50232">
        <ele>1335</ele>
        <time>2024-07-14T08:09:33.000Z</time>
      </trkpt>
      <trkpt lat="44.99176" lon="5.50234">
        <ele>1334.8000488281</ele>
        <time>2024-07-14T08:09:34.000Z</time>
      </trkpt>
      <trkpt lat="44.99177" lon="5.50235">
        <ele>1334.5999755859</ele>
        <time>2024-07-14T08:09:35.000Z</time>
      </trkpt>
      <trkpt lat="44.99178" lon="5.50237">
        <ele>1334.5999755859</ele>
        <time>2024-07-14T08:09:36.000Z</time>
      </trkpt>
      <trkpt lat="44.9918" lon="5.50239">
        <ele>1334.5999755859</ele>
        <time>2024-07-14T08:09:37.000Z</time>
      </trkpt>
      <trkpt lat="44.99181" lon="5.50241">
        <ele>1334.4000244141</ele>
        <time>2024-07-14T08:09:38.000Z</time>
      </trkpt>
      <trkpt lat="44.99183" lon="5.50242">
        <ele>1334.1999511719</ele>
        <time>2024-07-14T08:09:39.000Z</time>
      </trkpt>
      <trkpt lat="44.99185" lon="5.50244">
        <ele>1334.1999511719</ele>
        <time>2024-07-14T08:09:40.000Z</time>
      </trkpt>
      <trkpt lat="44.99187" lon="5.50245">
        <ele>1334.1999511719</ele>
        <time>2024-07-14T08:09:41.000Z</time>
      </trkpt>
      <trkpt lat="44.99188" lon="5.50245">
        <ele>1334.1999511719</ele>
        <time>2024-07-14T08:09:42.000Z</time>
      </trkpt>
      <trkpt lat="44.9919" lon="5.50245">
        <ele>1334.1999511719</ele>
        <time>2024-07-14T08:09:43.000Z</time>
      </trkpt>
      <trkpt lat="44.99192" lon="5.50245">
        <ele>1334.4000244141</ele>
        <time>2024-07-14T08:09:44.000Z</time>
      </trkpt>
      <trkpt lat="44.99193" lon="5.50246">
        <ele>1334.4000244141</ele>
        <time>2024-07-14T08:09:45.000Z</time>
      </trkpt>
      <trkpt lat="44.99194" lon="5.50247">
        <ele>1334.4000244141</ele>
        <time>2024-07-14T08:09:46.000Z</time>
      </trkpt>
      <trkpt lat="44.99196" lon="5.50249">
        <ele>1334.4000244141</ele>
        <time>2024-07-14T08:09:47.000Z</time>
      </trkpt>
      <trkpt lat="44.99198" lon="5.5025">
        <ele>1334.4000244141</ele>
        <time>2024-07-14T08:09:48.000Z</time>
      </trkpt>
      <trkpt lat="44.99199" lon="5.50252">
        <ele>1334.4000244141</ele>
        <time>2024-07-14T08:09:49.000Z</time>
      </trkpt>
      <trkpt lat="44.99201" lon="5.50253">
        <ele>1334.4000244141</ele>
        <time>2024-07-14T08:09:50.000Z</time>
      </trkpt>
      <trkpt lat="44.99203" lon="5.50254">
        <ele>1334.1999511719</ele>
        <time>2024-07-14T08:09:51.000Z</time>
      </trkpt>
      <trkpt lat="44.99205" lon="5.50255">
        <ele>1334</ele>
        <time>2024-07-14T08:09:52.000Z</time>
      </trkpt>
      <trkpt lat="44.99207" lon="5.50256">
        <ele>1333.8000488281</ele>
        <time>2024-07-14T08:09:53.000Z</time>
      </trkpt>
      <trkpt lat="44.99208" lon="5.50256">
        <ele>1333.8000488281</ele>
        <time>2024-07-14T08:09:54.000Z</time>
      </trkpt>
      <trkpt lat="44.99211" lon="5.50256">
        <ele>1333.5999755859</ele>
        <time>2024-07-14T08:09:55.000Z</time>
      </trkpt>
      <trkpt lat="44.99212" lon="5.50256">
        <ele>1333.5999755859</ele>
        <time>2024-07-14T08:09:56.000Z</time>
      </trkpt>
      <trkpt lat="44.99214" lon="5.50255">
        <ele>1333.4000244141</ele>
        <time>2024-07-14T08:09:57.000Z</time>
      </trkpt>
      <trkpt lat="44.99216" lon="5.50254">
        <ele>1333.1999511719</ele>
        <time>2024-07-14T08:09:58.000Z</time>
      </trkpt>
      <trkpt lat="44.99218" lon="5.50254">
        <ele>1333</ele>
        <time>2024-07-14T08:09:59.000Z</time>
      </trkpt>
      <trkpt lat="44.9922" lon="5.50253">
        <ele>1332.8000488281</ele>
        <time>2024-07-14T08:10:00.000Z</time>
      </trkpt>
      <trkpt lat="44.99222" lon="5.50253">
        <ele>1332.4000244141</ele>
        <time>2024-07-14T08:10:01.000Z</time>
      </trkpt>
      <trkpt lat="44.99224" lon="5.50253">
        <ele>1332.1999511719</ele>
        <time>2024-07-14T08:10:02.000Z</time>
      </trkpt>
      <trkpt lat="44.99226" lon="5.50253">
        <ele>1332.1999511719</ele>
        <time>2024-07-14T08:10:03.000Z</time>
      </trkpt>
      <trkpt lat="44.99228" lon="5.50253">
        <ele>1332</ele>
        <time>2024-07-14T08:10:04.000Z</time>
      </trkpt>
      <trkpt lat="44.9923" lon="5.50253">
        <ele>1331.5999755859</ele>
        <time>2024-07-14T08:10:05.000Z</time>
      </trkpt>
      <trkpt lat="44.99232" lon="5.50253">
        <ele>1331.1999511719</ele>
        <time>2024-07-14T08:10:06.000Z</time>
      </trkpt>
      <trkpt lat="44.99234" lon="5.50253">
        <ele>1331</ele>
        <time>2024-07-14T08:10:07.000Z</time>
      </trkpt>
      <trkpt lat="44.99235" lon="5.50254">
        <ele>1330.5999755859</ele>
        <time>2024-07-14T08:10:08.000Z</time>
      </trkpt>
      <trkpt lat="44.99237" lon="5.50254">
        <ele>1330.4000244141</ele>
        <time>2024-07-14T08:10:09.000Z</time>
      </trkpt>
      <trkpt lat="44.99237" lon="5.50255">
        <ele>1330.1999511719</ele>
        <time>2024-07-14T08:10:10.000Z</time>
      </trkpt>
      <trkpt lat="44.99239" lon="5.50256">
        <ele>1329.8000488281</ele>
        <time>2024-07-14T08:10:11.000Z</time>
      </trkpt>
      <trkpt lat="44.9924" lon="5.50257">
        <ele>1329.4000244141</ele>
        <time>2024-07-14T08:10:12.000Z</time>
      </trkpt>
      <trkpt lat="44.99242" lon="5.50258">
        <ele>1329</ele>
        <time>2024-07-14T08:10:13.000Z</time>
      </trkpt>
      <trkpt lat="44.99245" lon="5.50259">
        <ele>1328.8000488281</ele>
        <time>2024-07-14T08:10:14.000Z</time>
      </trkpt>
      <trkpt lat="44.99247" lon="5.5026">
        <ele>1328.4000244141</ele>
        <time>2024-07-14T08:10:15.000Z</time>
      </trkpt>
      <trkpt lat="44.99248" lon="5.50261">
        <ele>1328.1999511719</ele>
        <time>2024-07-14T08:10:16.000Z</time>
      </trkpt>
      <trkpt lat="44.9925" lon="5.50261">
        <ele>1328</ele>
        <time>2024-07-14T08:10:17.000Z</time>
      </trkpt>
      <trkpt lat="44.99252" lon="5.50262">
        <ele>1327.8000488281</ele>
        <time>2024-07-14T08:10:18.000Z</time>
      </trkpt>
      <trkpt lat="44.99253" lon="5.50263">
        <ele>1327.5999755859</ele>
        <time>2024-07-14T08:10:19.000Z</time>
      </trkpt>
      <trkpt lat="44.99256" lon="5.50263">
        <ele>1327.4000244141</ele>
        <time>2024-07-14T08:10:20.000Z</time>
      </trkpt>
      <trkpt lat="44.99258" lon="5.50264">
        <ele>1327.1999511719</ele>
        <time>2024-07-14T08:10:21.000Z</time>
      </trkpt>
      <trkpt lat="44.99261" lon="5.50265">
        <ele>1327</ele>
        <time>2024-07-14T08:10:22.000Z</time>
      </trkpt>
      <trkpt lat="44.99263" lon="5.50265">
        <ele>1326.5999755859</ele>
        <time>2024-07-14T08:10:23.000Z</time>
      </trkpt>
      <trkpt lat="44.99265" lon="5.50266">
        <ele>1326.1999511719</ele>
        <time>2024-07-14T08:10:24.000Z</time>
      </trkpt>
      <trkpt lat="44.99267" lon="5.50266">
        <ele>1325.8000488281</ele>
        <time>2024-07-14T08:10:25.000Z</time>
      </trkpt>
      <trkpt lat="44.99269" lon="5.50267">
        <ele>1325.5999755859</ele>
        <time>2024-07-14T08:10:26.000Z</time>
      </trkpt>
      <trkpt lat="44.99271" lon="5.50268">
        <ele>1325.1999511719</ele>
        <time>2024-07-14T08:10:27.000Z</time>
      </trkpt>
      <trkpt lat="44.99273" lon="5.50269">
        <ele>1324.8000488281</ele>
        <time>2024-07-14T08:10:28.000Z</time>
      </trkpt>
      <trkpt lat="44.99276" lon="5.5027">
        <ele>1324.4000244141</ele>
        <time>2024-07-14T08:10:29.000Z</time>
      </trkpt>
      <trkpt lat="44.99278" lon="5.50271">
        <ele>1324</ele>
        <time>2024-07-14T08:10:30.000Z</time>
      </trkpt>
      <trkpt lat="44.9928" lon="5.50272">
        <ele>1323.8000488281</ele>
        <time>2024-07-14T08:10:31.000Z</time>
      </trkpt>
      <trkpt lat="44.99282" lon="5.50273">
        <ele>1323.5999755859</ele>
        <time>2024-07-14T08:10:32.000Z</time>
      </trkpt>
      <trkpt lat="44.99283" lon="5.50274">
        <ele>1323.4000244141</ele>
        <time>2024-07-14T08:10:33.000Z</time>
      </trkpt>
      <trkpt lat="44.99284" lon="5.50274">
        <ele>1323.1999511719</ele>
        <time>2024-07-14T08:10:34.000Z</time>
      </trkpt>
      <trkpt lat="44.99285" lon="5.50275">
        <ele>1323</ele>
        <time>2024-07-14T08:10:35.000Z</time>
      </trkpt>
      <trkpt lat="44.99286" lon="5.50276">
        <ele>1322.8000488281</ele>
        <time>2024-07-14T08:10:36.000Z</time>
      </trkpt>
      <trkpt lat="44.99288" lon="5.50277">
        <ele>1322.1999511719</ele>
        <time>2024-07-14T08:10:37.000Z</time>
      </trkpt>
      <trkpt lat="44.99289" lon="5.50278">
        <ele>1322</ele>
        <time>2024-07-14T08:10:38.000Z</time>
      </trkpt>
      <trkpt lat="44.99291" lon="5.5028">
        <ele>1322</ele>
        <time>2024-07-14T08:10:39.000Z</time>
      </trkpt>
      <trkpt lat="44.99292" lon="5.50281">
        <ele>1321.5999755859</ele>
        <time>2024-07-14T08:10:40.000Z</time>
      </trkpt>
      <trkpt lat="44.99293" lon="5.50282">
        <ele>1321.1999511719</ele>
        <time>2024-07-14T08:10:41.000Z</time>
      </trkpt>
      <trkpt lat="44.99295" lon="5.50284">
        <ele>1320.5999755859</ele>
        <time>2024-07-14T08:10:42.000Z</time>
      </trkpt>
      <trkpt lat="44.99296" lon="5.50285">
        <ele>1320.4000244141</ele>
        <time>2024-07-14T08:10:43.000Z</time>
      </trkpt>
      <trkpt lat="44.99297" lon="5.50286">
        <ele>1320.1999511719</ele>
        <time>2024-07-14T08:10:44.000Z</time>
      </trkpt>
      <trkpt lat="44.99298" lon="5.50287">
        <ele>1320</ele>
        <time>2024-07-14T08:10:45.000Z</time>
      </trkpt>
      <trkpt lat="44.99299" lon="5.50289">
        <ele>1319.4000244141</ele>
        <time>2024-07-14T08:10:46.000Z</time>
      </trkpt>
      <trkpt lat="44.993" lon="5.5029">
        <ele>1318.8000488281</ele>
        <time>2024-07-14T08:10:47.000Z</time>
      </trkpt>
      <trkpt lat="44.99302" lon="5.50291">
        <ele>1318.1999511719</ele>
        <time>2024-07-14T08:10:48.000Z</time>
      </trkpt>
      <trkpt lat="44.99304" lon="5.50292">
        <ele>1317.8000488281</ele>
        <time>2024-07-14T08:10:49.000Z</time>
      </trkpt>
      <trkpt lat="44.99305" lon="5.50294">
        <ele>1317.5999755859</ele>
        <time>2024-07-14T08:10:50.000Z</time>
      </trkpt>
      <trkpt lat="44.99307" lon="5.50295">
        <ele>1317.4000244141</ele>
        <time>2024-07-14T08:10:51.000Z</time>
      </trkpt>
      <trkpt lat="44.99309" lon="5.50296">
        <ele>1317</ele>
        <time>2024-07-14T08:10:52.000Z</time>
      </trkpt>
      <trkpt lat="44.9931" lon="5.50297">
        <ele>1317</ele>
        <time>2024-07-14T08:10:53.000Z</time>
      </trkpt>
      <trkpt lat="44.99312" lon="5.50297">
        <ele>1316.5999755859</ele>
        <time>2024-07-14T08:10:54.000Z</time>
      </trkpt>
      <trkpt lat="44.99313" lon="5.50298">
        <ele>1316.4000244141</ele>
        <time>2024-07-14T08:10:55.000Z</time>
      </trkpt>
      <trkpt lat="44.99315" lon="5.50299">
        <ele>1316.1999511719</ele>
        <time>2024-07-14T08:10:56.000Z</time>
      </trkpt>
      <trkpt lat="44.99317" lon="5.50299">
        <ele>1315.8000488281</ele>
        <time>2024-07-14T08:10:57.000Z</time>
      </trkpt>
      <trkpt lat="44.99319" lon="5.503">
        <ele>1315.4000244141</ele>
        <time>2024-07-14T08:10:58.000Z</time>
      </trkpt>
      <trkpt lat="44.99321" lon="5.50301">
        <ele>1315</ele>
        <time>2024-07-14T08:10:59.000Z</time>
      </trkpt>
      <trkpt lat="44.99323" lon="5.50302">
        <ele>1314.5999755859</ele>
        <time>2024-07-14T08:11:00.000Z</time>
      </trkpt>
      <trkpt lat="44.99325" lon="5.50303">
        <ele>1314.4000244141</ele>
        <time>2024-07-14T08:11:01.000Z</time>
      </trkpt>
      <trkpt lat="44.99326" lon="5.50304">
        <ele>1314.1999511719</ele>
        <time>2024-07-14T08:11:02.000Z</time>
      </trkpt>
      <trkpt lat="44.99329" lon="5.50305">
        <ele>1314</ele>
        <time>2024-07-14T08:11:03.000Z</time>
      </trkpt>
      <trkpt lat="44.99331" lon="5.50305">
        <ele>1313.5999755859</ele>
        <time>2024-07-14T08:11:04.000Z</time>
      </trkpt>
      <trkpt lat="44.99332" lon="5.50306">
        <ele>1313.4000244141</ele>
        <time>2024-07-14T08:11:05.000Z</time>
      </trkpt>
      <trkpt lat="44.99334" lon="5.50306">
        <ele>1312.8000488281</ele>
        <time>2024-07-14T08:11:06.000Z</time>
      </trkpt>
      <trkpt lat="44.99336" lon="5.50307">
        <ele>1312.1999511719</ele>
        <time>2024-07-14T08:11:07.000Z</time>
      </trkpt>
      <trkpt lat="44.99338" lon="5.50307">
        <ele>1312</ele>
        <time>2024-07-14T08:11:08.000Z</time>
      </trkpt>
      <trkpt lat="44.9934" lon="5.50307">
        <ele>1311.8000488281</ele>
        <time>2024-07-14T08:11:09.000Z</time>
      </trkpt>
      <trkpt lat="44.99342" lon="5.50306">
        <ele>1311.5999755859</ele>
        <time>2024-07-14T08:11:10.000Z</time>
      </trkpt>
      <trkpt lat="44.99344" lon="5.50305">
        <ele>1311.1999511719</ele>
        <time>2024-07-14T08:11:11.000Z</time>
      </trkpt>
      <trkpt lat="44.99345" lon="5.50304">
        <ele>1310.5999755859</ele>
        <time>2024-07-14T08:11:12.000Z</time>
      </trkpt>
      <trkpt lat="44.99347" lon="5.50303">
        <ele>1310.1999511719</ele>
        <time>2024-07-14T08:11:13.000Z</time>
      </trkpt>
      <trkpt lat="44.99349" lon="5.50301">
        <ele>1310</ele>
        <time>2024-07-14T08:11:14.000Z</time>
      </trkpt>
      <trkpt lat="44.99351" lon="5.503">
        <ele>1309.8000488281</ele>
        <time>2024-07-14T08:11:15.000Z</time>
      </trkpt>
      <trkpt lat="44.99354" lon="5.50298">
        <ele>1309.5999755859</ele>
        <time>2024-07-14T08:11:16.000Z</time>
      </trkpt>
      <trkpt lat="44.99356" lon="5.50297">
        <ele>1309.4000244141</ele>
        <time>2024-07-14T08:11:17.000Z</time>
      </trkpt>
      <trkpt lat="44.99358" lon="5.50295">
        <ele>1309.4000244141</ele>
        <time>2024-07-14T08:11:18.000Z</time>
      </trkpt>
      <trkpt lat="44.99361" lon="5.50293">
        <ele>1309</ele>
        <time>2024-07-14T08:11:19.000Z</time>
      </trkpt>
      <trkpt lat="44.99364" lon="5.50292">
        <ele>1309</ele>
        <time>2024-07-14T08:11:20.000Z</time>
      </trkpt>
      <trkpt lat="44.99367" lon="5.5029">
        <ele>1309</ele>
        <time>2024-07-14T08:11:21.000Z</time>
      </trkpt>
      <trkpt lat="44.99369" lon="5.50289">
        <ele>1308.8000488281</ele>
        <time>2024-07-14T08:11:22.000Z</time>
      </trkpt>
      <trkpt lat="44.99372" lon="5.50289">
        <ele>1308.5999755859</ele>
        <time>2024-07-14T08:11:23.000Z</time>
      </trkpt>
      <trkpt lat="44.99374" lon="5.50288">
        <ele>1308.4000244141</ele>
        <time>2024-07-14T08:11:24.000Z</time>
      </trkpt>
      <trkpt lat="44.99377" lon="5.50287">
        <ele>1308.1999511719</ele>
        <time>2024-07-14T08:11:25.000Z</time>
      </trkpt>
      <trkpt lat="44.99379" lon="5.50286">
        <ele>1308</ele>
        <time>2024-07-14T08:11:26.000Z</time>
      </trkpt>
      <trkpt lat="44.99381" lon="5.50286">
        <ele>1308</ele>
        <time>2024-07-14T08:11:27.000Z</time>
      </trkpt>
      <trkpt lat="44.99384" lon="5.50285">
        <ele>1308</ele>
        <time>2024-07-14T08:11:28.000Z</time>
      </trkpt>
      <trkpt lat="44.99386" lon="5.50285">
        <ele>1307.8000488281</ele>
        <time>2024-07-14T08:11:29.000Z</time>
      </trkpt>
      <trkpt lat="44.99389" lon="5.50285">
        <ele>1307.5999755859</ele>
        <time>2024-07-14T08:11:30.000Z</time>
      </trkpt>
      <trkpt lat="44.99392" lon="5.50285">
        <ele>1307.5999755859</ele>
        <time>2024-07-14T08:11:31.000Z</time>
      </trkpt>
      <trkpt lat="44.99395" lon="5.50285">
        <ele>1307.5999755859</ele>
        <time>2024-07-14T08:11:32.000Z</time>
      </trkpt>
      <trkpt lat="44.99398" lon="5.50286">
        <ele>1307.4000244141</ele>
        <time>2024-07-14T08:11:33.000Z</time>
      </trkpt>
      <trkpt lat="44.99401" lon="5.50287">
        <ele>1307.4000244141</ele>
        <time>2024-07-14T08:11:34.000Z</time>
      </trkpt>
      <trkpt lat="44.99404" lon="5.50287">
        <ele>1307.4000244141</ele>
        <time>2024-07-14T08:11:35.000Z</time>
      </trkpt>
      <trkpt lat="44.99406" lon="5.50288">
        <ele>1307.1999511719</ele>
        <time>2024-07-14T08:11:36.000Z</time>
      </trkpt>
      <trkpt lat="44.99409" lon="5.50289">
        <ele>1307.1999511719</ele>
        <time>2024-07-14T08:11:37.000Z</time>
      </trkpt>
      <trkpt lat="44.99412" lon="5.5029">
        <ele>1307</ele>
        <time>2024-07-14T08:11:38.000Z</time>
      </trkpt>
      <trkpt lat="44.99415" lon="5.5029">
        <ele>1307</ele>
        <time>2024-07-14T08:11:39.000Z</time>
      </trkpt>
      <trkpt lat="44.99417" lon="5.50291">
        <ele>1307</ele>
        <time>2024-07-14T08:11:40.000Z</time>
      </trkpt>
      <trkpt lat="44.99419" lon="5.50292">
        <ele>1307</ele>
        <time>2024-07-14T08:11:41.000Z</time>
      </trkpt>
      <trkpt lat="44.99422" lon="5.50292">
        <ele>1307</ele>
        <time>2024-07-14T08:11:42.000Z</time>
      </trkpt>
      <trkpt lat="44.99424" lon="5.50293">
        <ele>1307</ele>
        <time>2024-07-14T08:11:43.000Z</time>
      </trkpt>
      <trkpt lat="44.99427" lon="5.50294">
        <ele>1307</ele>
        <time>2024-07-14T08:11:44.000Z</time>
      </trkpt>
      <trkpt lat="44.9943" lon="5.50295">
        <ele>1306.8000488281</ele>
        <time>2024-07-14T08:11:45.000Z</time>
      </trkpt>
      <trkpt lat="44.99433" lon="5.50295">
        <ele>1306.8000488281</ele>
        <time>2024-07-14T08:11:46.000Z</time>
      </trkpt>
      <trkpt lat="44.99436" lon="5.50296">
        <ele>1306.8000488281</ele>
        <time>2024-07-14T08:11:47.000Z</time>
      </trkpt>
      <trkpt lat="44.99439" lon="5.50297">
        <ele>1306.8000488281</ele>
        <time>2024-07-14T08:11:48.000Z</time>
      </trkpt>
      <trkpt lat="44.99441" lon="5.50298">
        <ele>1306.5999755859</ele>
        <time>2024-07-14T08:11:49.000Z</time>
      </trkpt>
      <trkpt lat="44.99444" lon="5.50298">
        <ele>1306.5999755859</ele>
        <time>2024-07-14T08:11:50.000Z</time>
      </trkpt>
      <trkpt lat="44.99447" lon="5.50299">
        <ele>1306.5999755859</ele>
        <time>2024-07-14T08:11:51.000Z</time>
      </trkpt>
      <trkpt lat="44.99449" lon="5.50299">
        <ele>1306.5999755859</ele>
        <time>2024-07-14T08:11:52.000Z</time>
      </trkpt>
      <trkpt lat="44.99452" lon="5.50299">
        <ele>1306.5999755859</ele>
        <time>2024-07-14T08:11:53.000Z</time>
      </trkpt>
      <trkpt lat="44.99454" lon="5.50299">
        <ele>1306.4000244141</ele>
        <time>2024-07-14T08:11:54.000Z</time>
      </trkpt>
      <trkpt lat="44.99457" lon="5.50299">
        <ele>1306.4000244141</ele>
        <time>2024-07-14T08:11:55.000Z</time>
      </trkpt>
      <trkpt lat="44.99459" lon="5.503">
        <ele>1306.4000244141</ele>
        <time>2024-07-14T08:11:56.000Z</time>
      </trkpt>
      <trkpt lat="44.99462" lon="5.50299">
        <ele>1306.4000244141</ele>
        <time>2024-07-14T08:11:57.000Z</time>
      </trkpt>
      <trkpt lat="44.99464" lon="5.50299">
        <ele>1306.1999511719</ele>
        <time>2024-07-14T08:11:58.000Z</time>
      </trkpt>
      <trkpt lat="44.99467" lon="5.50299">
        <ele>1306.1999511719</ele>
        <time>2024-07-14T08:11:59.000Z</time>
      </trkpt>
      <trkpt lat="44.9947" lon="5.503">
        <ele>1306.1999511719</ele>
        <time>2024-07-14T08:12:00.000Z</time>
      </trkpt>
      <trkpt lat="44.99473" lon="5.50301">
        <ele>1306.1999511719</ele>
        <time>2024-07-14T08:12:01.000Z</time>
      </trkpt>
      <trkpt lat="44.99475" lon="5.50301">
        <ele>1306</ele>
        <time>2024-07-14T08:12:02.000Z</time>
      </trkpt>
      <trkpt lat="44.99478" lon="5.50301">
        <ele>1306</ele>
        <time>2024-07-14T08:12:03.000Z</time>
      </trkpt>
      <trkpt lat="44.99481" lon="5.50301">
        <ele>1305.8000488281</ele>
        <time>2024-07-14T08:12:04.000Z</time>
      </trkpt>
      <trkpt lat="44.99483" lon="5.50302">
        <ele>1305.8000488281</ele>
        <time>2024-07-14T08:12:05.000Z</time>
      </trkpt>
      <trkpt lat="44.99486" lon="5.50302">
        <ele>1305.8000488281</ele>
        <time>2024-07-14T08:12:06.000Z</time>
      </trkpt>
      <trkpt lat="44.99489" lon="5.50303">
        <ele>1305.5999755859</ele>
        <time>2024-07-14T08:12:07.000Z</time>
      </trkpt>
      <trkpt lat="44.99491" lon="5.50304">
        <ele>1305.5999755859</ele>
        <time>2024-07-14T08:12:08.000Z</time>
      </trkpt>
      <trkpt lat="44.99494" lon="5.50305">
        <ele>1305.4000244141</ele>
        <time>2024-07-14T08:12:09.000Z</time>
      </trkpt>
      <trkpt lat="44.99496" lon="5.50308">
        <ele>1305.4000244141</ele>
        <time>2024-07-14T08:12:10.000Z</time>
      </trkpt>
      <trkpt lat="44.99498" lon="5.5031">
        <ele>1305.4000244141</ele>
        <time>2024-07-14T08:12:11.000Z</time>
      </trkpt>
      <trkpt lat="44.995" lon="5.50312">
        <ele>1305.4000244141</ele>
        <time>2024-07-14T08:12:12.000Z</time>
      </trkpt>
      <trkpt lat="44.99503" lon="5.50315">
        <ele>1305.4000244141</ele>
        <time>2024-07-14T08:12:13.000Z</time>
      </trkpt>
      <trkpt lat="44.99505" lon="5.50317">
        <ele>1305.4000244141</ele>
        <time>2024-07-14T08:12:14.000Z</time>
      </trkpt>
      <trkpt lat="44.99508" lon="5.50318">
        <ele>1305.1999511719</ele>
        <time>2024-07-14T08:12:15.000Z</time>
      </trkpt>
      <trkpt lat="44.9951" lon="5.5032">
        <ele>1305.1999511719</ele>
        <time>2024-07-14T08:12:16.000Z</time>
      </trkpt>
      <trkpt lat="44.99513" lon="5.50322">
        <ele>1305.1999511719</ele>
        <time>2024-07-14T08:12:17.000Z</time>
      </trkpt>
      <trkpt lat="44.99516" lon="5.50323">
        <ele>1305.1999511719</ele>
        <time>2024-07-14T08:12:18.000Z</time>
      </trkpt>
      <trkpt lat="44.99518" lon="5.50324">
        <ele>1305</ele>
        <time>2024-07-14T08:12:19.000Z</time>
      </trkpt>
      <trkpt lat="44.99521" lon="5.50325">
        <ele>1305</ele>
        <time>2024-07-14T08:12:20.000Z</time>
      </trkpt>
      <trkpt lat="44.99524" lon="5.50326">
        <ele>1305</ele>
        <time>2024-07-14T08:12:21.000Z</time>
      </trkpt>
      <trkpt lat="44.99526" lon="5.50327">
        <ele>1305</ele>
        <time>2024-07-14T08:12:22.000Z</time>
      </trkpt>
      <trkpt lat="44.99528" lon="5.50328">
        <ele>1305</ele>
        <time>2024-07-14T08:12:23.000Z</time>
      </trkpt>
      <trkpt lat="44.99531" lon="5.50329">
        <ele>1305</ele>
        <time>2024-07-14T08:12:24.000Z</time>
      </trkpt>
      <trkpt lat="44.99533" lon="5.50331">
        <ele>1305</ele>
        <time>2024-07-14T08:12:25.000Z</time>
      </trkpt>
      <trkpt lat="44.99535" lon="5.50333">
        <ele>1305</ele>
        <time>2024-07-14T08:12:26.000Z</time>
      </trkpt>
      <trkpt lat="44.99537" lon="5.50335">
        <ele>1305</ele>
        <time>2024-07-14T08:12:27.000Z</time>
      </trkpt>
      <trkpt lat="44.99539" lon="5.50337">
        <ele>1305</ele>
        <time>2024-07-14T08:12:28.000Z</time>
      </trkpt>
      <trkpt lat="44.99542" lon="5.5034">
        <ele>1304.8000488281</ele>
        <time>2024-07-14T08:12:29.000Z</time>
      </trkpt>
      <trkpt lat="44.99545" lon="5.50343">
        <ele>1304.8000488281</ele>
        <time>2024-07-14T08:12:30.000Z</time>
      </trkpt>
      <trkpt lat="44.99548" lon="5.50345">
        <ele>1304.8000488281</ele>
        <time>2024-07-14T08:12:31.000Z</time>
      </trkpt>
      <trkpt lat="44.9955" lon="5.50347">
        <ele>1304.8000488281</ele>
        <time>2024-07-14T08:12:32.000Z</time>
      </trkpt>
      <trkpt lat="44.99553" lon="5.50348">
        <ele>1304.8000488281</ele>
        <time>2024-07-14T08:12:33.000Z</time>
      </trkpt>
      <trkpt lat="44.99556" lon="5.5035">
        <ele>1304.5999755859</ele>
        <time>2024-07-14T08:12:34.000Z</time>
      </trkpt>
      <trkpt lat="44.99558" lon="5.50352">
        <ele>1304.5999755859</ele>
        <time>2024-07-14T08:12:35.000Z</time>
      </trkpt>
      <trkpt lat="44.9956" lon="5.50354">
        <ele>1304.5999755859</ele>
        <time>2024-07-14T08:12:36.000Z</time>
      </trkpt>
      <trkpt lat="44.99562" lon="5.50357">
        <ele>1304.4000244141</ele>
        <time>2024-07-14T08:12:37.000Z</time>
      </trkpt>
      <trkpt lat="44.99564" lon="5.50358">
        <ele>1304.4000244141</ele>
        <time>2024-07-14T08:12:38.000Z</time>
      </trkpt>
      <trkpt lat="44.99566" lon="5.50361">
        <ele>1304.4000244141</ele>
        <time>2024-07-14T08:12:39.000Z</time>
      </trkpt>
      <trkpt lat="44.99568" lon="5.50362">
        <ele>1304.4000244141</ele>
        <time>2024-07-14T08:12:40.000Z</time>
      </trkpt>
      <trkpt lat="44.9957" lon="5.50364">
        <ele>1304.1999511719</ele>
        <time>2024-07-14T08:12:41.000Z</time>
      </trkpt>
      <trkpt lat="44.99572" lon="5.50366">
        <ele>1304.1999511719</ele>
        <time>2024-07-14T08:12:42.000Z</time>
      </trkpt>
      <trkpt lat="44.99574" lon="5.50367">
        <ele>1304</ele>
        <time>2024-07-14T08:12:43.000Z</time>
      </trkpt>
      <trkpt lat="44.99577" lon="5.5037">
        <ele>1304</ele>
        <time>2024-07-14T08:12:44.000Z</time>
      </trkpt>
      <trkpt lat="44.99579" lon="5.50372">
        <ele>1303.8000488281</ele>
        <time>2024-07-14T08:12:45.000Z</time>
      </trkpt>
      <trkpt lat="44.99581" lon="5.50374">
        <ele>1303.5999755859</ele>
        <time>2024-07-14T08:12:46.000Z</time>
      </trkpt>
      <trkpt lat="44.99583" lon="5.50376">
        <ele>1303.5999755859</ele>
        <time>2024-07-14T08:12:47.000Z</time>
      </trkpt>
      <trkpt lat="44.99585" lon="5.50379">
        <ele>1303.5999755859</ele>
        <time>2024-07-14T08:12:48.000Z</time>
      </trkpt>
      <trkpt lat="44.99587" lon="5.50382">
        <ele>1303.5999755859</ele>
        <time>2024-07-14T08:12:49.000Z</time>
      </trkpt>
      <trkpt lat="44.99589" lon="5.50385">
        <ele>1303.5999755859</ele>
        <time>2024-07-14T08:12:50.000Z</time>
      </trkpt>
      <trkpt lat="44.99591" lon="5.50389">
        <ele>1303.4000244141</ele>
        <time>2024-07-14T08:12:51.000Z</time>
      </trkpt>
      <trkpt lat="44.99592" lon="5.50392">
        <ele>1303.4000244141</ele>
        <time>2024-07-14T08:12:52.000Z</time>
      </trkpt>
      <trkpt lat="44.99593" lon="5.50395">
        <ele>1303.1999511719</ele>
        <time>2024-07-14T08:12:53.000Z</time>
      </trkpt>
      <trkpt lat="44.99595" lon="5.50399">
        <ele>1303.1999511719</ele>
        <time>2024-07-14T08:12:54.000Z</time>
      </trkpt>
      <trkpt lat="44.99597" lon="5.50402">
        <ele>1302.8000488281</ele>
        <time>2024-07-14T08:12:55.000Z</time>
      </trkpt>
      <trkpt lat="44.99598" lon="5.50405">
        <ele>1302.8000488281</ele>
        <time>2024-07-14T08:12:56.000Z</time>
      </trkpt>
      <trkpt lat="44.996" lon="5.50407">
        <ele>1302.8000488281</ele>
        <time>2024-07-14T08:12:57.000Z</time>
      </trkpt>
      <trkpt lat="44.99601" lon="5.50409">
        <ele>1302.8000488281</ele>
        <time>2024-07-14T08:12:58.000Z</time>
      </trkpt>
      <trkpt lat="44.99601" lon="5.50411">
        <ele>1302.8000488281</ele>
        <time>2024-07-14T08:12:59.000Z</time>
      </trkpt>
      <trkpt lat="44.99602" lon="5.50413">
        <ele>1302.8000488281</ele>
        <time>2024-07-14T08:13:00.000Z</time>
      </trkpt>
      <trkpt lat="44.99603" lon="5.50415">
        <ele>1303</ele>
        <time>2024-07-14T08:13:01.000Z</time>
      </trkpt>
      <trkpt lat="44.99604" lon="5.50418">
        <ele>1303.1999511719</ele>
        <time>2024-07-14T08:13:02.000Z</time>
      </trkpt>
      <trkpt lat="44.99605" lon="5.5042">
        <ele>1303.4000244141</ele>
        <time>2024-07-14T08:13:03.000Z</time>
      </trkpt>
      <trkpt lat="44.99606" lon="5.50422">
        <ele>1303.5999755859</ele>
        <time>2024-07-14T08:13:04.000Z</time>
      </trkpt>
      <trkpt lat="44.99608" lon="5.50424">
        <ele>1303.5999755859</ele>
        <time>2024-07-14T08:13:05.000Z</time>
      </trkpt>
      <trkpt lat="44.99609" lon="5.50426">
        <ele>1303.5999755859</ele>
        <time>2024-07-14T08:13:06.000Z</time>
      </trkpt>
      <trkpt lat="44.9961" lon="5.50428">
        <ele>1303.5999755859</ele>
        <time>2024-07-14T08:13:07.000Z</time>
      </trkpt>
      <trkpt lat="44.99612" lon="5.5043">
        <ele>1303.5999755859</ele>
        <time>2024-07-14T08:13:08.000Z</time>
      </trkpt>
      <trkpt lat="44.99615" lon="5.50431">
        <ele>1303.4000244141</ele>
        <time>2024-07-14T08:13:09.000Z</time>
      </trkpt>
      <trkpt lat="44.99617" lon="5.50431">
        <ele>1303</ele>
        <time>2024-07-14T08:13:10.000Z</time>
      </trkpt>
      <trkpt lat="44.99619" lon="5.50431">
        <ele>1302.5999755859</ele>
        <time>2024-07-14T08:13:11.000Z</time>
      </trkpt>
      <trkpt lat="44.99621" lon="5.50431">
        <ele>1302.4000244141</ele>
        <time>2024-07-14T08:13:12.000Z</time>
      </trkpt>
      <trkpt lat="44.99623" lon="5.50431">
        <ele>1302</ele>
        <time>2024-07-14T08:13:13.000Z</time>
      </trkpt>
      <trkpt lat="44.99625" lon="5.50431">
        <ele>1301.5999755859</ele>
        <time>2024-07-14T08:13:14.000Z</time>
      </trkpt>
      <trkpt lat="44.99627" lon="5.50432">
        <ele>1301.4000244141</ele>
        <time>2024-07-14T08:13:15.000Z</time>
      </trkpt>
      <trkpt lat="44.99629" lon="5.50433">
        <ele>1301</ele>
        <time>2024-07-14T08:13:16.000Z</time>
      </trkpt>
      <trkpt lat="44.99631" lon="5.50434">
        <ele>1300.5999755859</ele>
        <time>2024-07-14T08:13:17.000Z</time>
      </trkpt>
      <trkpt lat="44.99634" lon="5.50435">
        <ele>1300.4000244141</ele>
        <time>2024-07-14T08:13:18.000Z</time>
      </trkpt>
      <trkpt lat="44.99636" lon="5.50435">
        <ele>1300</ele>
        <time>2024-07-14T08:13:19.000Z</time>
      </trkpt>
      <trkpt lat="44.99638" lon="5.50436">
        <ele>1299.5999755859</ele>
        <time>2024-07-14T08:13:20.000Z</time>
      </trkpt>
      <trkpt lat="44.9964" lon="5.50437">
        <ele>1299.4000244141</ele>
        <time>2024-07-14T08:13:21.000Z</time>
      </trkpt>
      <trkpt lat="44.99643" lon="5.50437">
        <ele>1298.8000488281</ele>
        <time>2024-07-14T08:13:22.000Z</time>
      </trkpt>
      <trkpt lat="44.99645" lon="5.50438">
        <ele>1298.1999511719</ele>
        <time>2024-07-14T08:13:23.000Z</time>
      </trkpt>
      <trkpt lat="44.99647" lon="5.50438">
        <ele>1297.8000488281</ele>
        <time>2024-07-14T08:13:24.000Z</time>
      </trkpt>
      <trkpt lat="44.9965" lon="5.5044">
        <ele>1297.5999755859</ele>
        <time>2024-07-14T08:13:25.000Z</time>
      </trkpt>
      <trkpt lat="44.99653" lon="5.50441">
        <ele>1297.1999511719</ele>
        <time>2024-07-14T08:13:26.000Z</time>
      </trkpt>
      <trkpt lat="44.99656" lon="5.50443">
        <ele>1296.8000488281</ele>
        <time>2024-07-14T08:13:27.000Z</time>
      </trkpt>
      <trkpt lat="44.99658" lon="5.50444">
        <ele>1296.5999755859</ele>
        <time>2024-07-14T08:13:28.000Z</time>
      </trkpt>
      <trkpt lat="44.9966" lon="5.50446">
        <ele>1296.4000244141</ele>
        <time>2024-07-14T08:13:29.000Z</time>
      </trkpt>
      <trkpt lat="44.99663" lon="5.50447">
        <ele>1296.1999511719</ele>
        <time>2024-07-14T08:13:30.000Z</time>
      </trkpt>
      <trkpt lat="44.99665" lon="5.50449">
        <ele>1296</ele>
        <time>2024-07-14T08:13:31.000Z</time>
      </trkpt>
      <trkpt lat="44.99667" lon="5.5045">
        <ele>1296</ele>
        <time>2024-07-14T08:13:32.000Z</time>
      </trkpt>
      <trkpt lat="44.99669" lon="5.50451">
        <ele>1295.8000488281</ele>
        <time>2024-07-14T08:13:33.000Z</time>
      </trkpt>
      <trkpt lat="44.99671" lon="5.50451">
        <ele>1295.5999755859</ele>
        <time>2024-07-14T08:13:34.000Z</time>
      </trkpt>
      <trkpt lat="44.99674" lon="5.50452">
        <ele>1295.1999511719</ele>
        <time>2024-07-14T08:13:35.000Z</time>
      </trkpt>
      <trkpt lat="44.99676" lon="5.50452">
        <ele>1294.5999755859</ele>
        <time>2024-07-14T08:13:36.000Z</time>
      </trkpt>
      <trkpt lat="44.99678" lon="5.50453">
        <ele>1294.4000244141</ele>
        <time>2024-07-14T08:13:37.000Z</time>
      </trkpt>
      <trkpt lat="44.9968" lon="5.50454">
        <ele>1294</ele>
        <time>2024-07-14T08:13:38.000Z</time>
      </trkpt>
      <trkpt lat="44.99682" lon="5.50455">
        <ele>1293.8000488281</ele>
        <time>2024-07-14T08:13:39.000Z</time>
      </trkpt>
      <trkpt lat="44.99684" lon="5.50457">
        <ele>1293.1999511719</ele>
        <time>2024-07-14T08:13:40.000Z</time>
      </trkpt>
      <trkpt lat="44.99686" lon="5.50458">
        <ele>1293</ele>
        <time>2024-07-14T08:13:41.000Z</time>
      </trkpt>
      <trkpt lat="44.99688" lon="5.50459">
        <ele>1292.5999755859</ele>
        <time>2024-07-14T08:13:42.000Z</time>
      </trkpt>
      <trkpt lat="44.99689" lon="5.50461">
        <ele>1292.5999755859</ele>
        <time>2024-07-14T08:13:43.000Z</time>
      </trkpt>
      <trkpt lat="44.99691" lon="5.50463">
        <ele>1292.1999511719</ele>
        <time>2024-07-14T08:13:44.000Z</time>
      </trkpt>
      <trkpt lat="44.99693" lon="5.50465">
        <ele>1291.8000488281</ele>
        <time>2024-07-14T08:13:45.000Z</time>
      </trkpt>
      <trkpt lat="44.99695" lon="5.50468">
        <ele>1291.4000244141</ele>
        <time>2024-07-14T08:13:46.000Z</time>
      </trkpt>
      <trkpt lat="44.99698" lon="5.5047">
        <ele>1291.4000244141</ele>
        <time>2024-07-14T08:13:47.000Z</time>
      </trkpt>
      <trkpt lat="44.99701" lon="5.50472">
        <ele>1291.1999511719</ele>
        <time>2024-07-14T08:13:48.000Z</time>
      </trkpt>
      <trkpt lat="44.99703" lon="5.50473">
        <ele>1291</ele>
        <time>2024-07-14T08:13:49.000Z</time>
      </trkpt>
      <trkpt lat="44.99706" lon="5.50475">
        <ele>1290.8000488281</ele>
        <time>2024-07-14T08:13:50.000Z</time>
      </trkpt>
      <trkpt lat="44.99708" lon="5.50477">
        <ele>1290.8000488281</ele>
        <time>2024-07-14T08:13:51.000Z</time>
      </trkpt>
      <trkpt lat="44.9971" lon="5.50479">
        <ele>1290.5999755859</ele>
        <time>2024-07-14T08:13:52.000Z</time>
      </trkpt>
      <trkpt lat="44.99713" lon="5.50481">
        <ele>1290.5999755859</ele>
        <time>2024-07-14T08:13:53.000Z</time>
      </trkpt>
      <trkpt lat="44.99715" lon="5.50483">
        <ele>1290.5999755859</ele>
        <time>2024-07-14T08:13:54.000Z</time>
      </trkpt>
      <trkpt lat="44.99717" lon="5.50484">
        <ele>1290.5999755859</ele>
        <time>2024-07-14T08:13:55.000Z</time>
      </trkpt>
      <trkpt lat="44.99719" lon="5.50486">
        <ele>1290.5999755859</ele>
        <time>2024-07-14T08:13:56.000Z</time>
      </trkpt>
      <trkpt lat="44.99721" lon="5.50488">
        <ele>1290.5999755859</ele>
        <time>2024-07-14T08:13:57.000Z</time>
      </trkpt>
      <trkpt lat="44.99724" lon="5.50489">
        <ele>1290.5999755859</ele>
        <time>2024-07-14T08:13:58.000Z</time>
      </trkpt>
      <trkpt lat="44.99726" lon="5.50491">
        <ele>1290.5999755859</ele>
        <time>2024-07-14T08:13:59.000Z</time>
      </trkpt>
      <trkpt lat="44.99728" lon="5.50493">
        <ele>1290.5999755859</ele>
        <time>2024-07-14T08:14:00.000Z</time>
      </trkpt>
      <trkpt lat="44.99731" lon="5.50494">
        <ele>1290.8000488281</ele>
        <time>2024-07-14T08:14:01.000Z</time>
      </trkpt>
      <trkpt lat="44.99733" lon="5.50495">
        <ele>1290.8000488281</ele>
        <time>2024-07-14T08:14:02.000Z</time>
      </trkpt>
      <trkpt lat="44.99735" lon="5.50497">
        <ele>1290.8000488281</ele>
        <time>2024-07-14T08:14:03.000Z</time>
      </trkpt>
      <trkpt lat="44.99737" lon="5.50498">
        <ele>1291</ele>
        <time>2024-07-14T08:14:04.000Z</time>
      </trkpt>
      <trkpt lat="44.9974" lon="5.50501">
        <ele>1291</ele>
        <time>2024-07-14T08:14:05.000Z</time>
      </trkpt>
      <trkpt lat="44.99742" lon="5.50503">
        <ele>1291</ele>
        <time>2024-07-14T08:14:06.000Z</time>
      </trkpt>
      <trkpt lat="44.99743" lon="5.50505">
        <ele>1291.1999511719</ele>
        <time>2024-07-14T08:14:07.000Z</time>
      </trkpt>
      <trkpt lat="44.99744" lon="5.50507">
        <ele>1291.4000244141</ele>
        <time>2024-07-14T08:14:08.000Z</time>
      </trkpt>
      <trkpt lat="44.99745" lon="5.5051">
        <ele>1291.8000488281</ele>
        <time>2024-07-14T08:14:09.000Z</time>
      </trkpt>
      <trkpt lat="44.99746" lon="5.50512">
        <ele>1292.1999511719</ele>
        <time>2024-07-14T08:14:10.000Z</time>
      </trkpt>
      <trkpt lat="44.99748" lon="5.50515">
        <ele>1292.4000244141</ele>
        <time>2024-07-14T08:14:11.000Z</time>
      </trkpt>
      <trkpt lat="44.99749" lon="5.50516">
        <ele>1292.5999755859</ele>
        <time>2024-07-14T08:14:12.000Z</time>
      </trkpt>
      <trkpt lat="44.99751" lon="5.50519">
        <ele>1292.8000488281</ele>
        <time>2024-07-14T08:14:13.000Z</time>
      </trkpt>
      <trkpt lat="44.99752" lon="5.50521">
        <ele>1292.8000488281</ele>
        <time>2024-07-14T08:14:14.000Z</time>
      </trkpt>
      <trkpt lat="44.99754" lon="5.50523">
        <ele>1293</ele>
        <time>2024-07-14T08:14:15.000Z</time>
      </trkpt>
      <trkpt lat="44.99756" lon="5.50525">
        <ele>1293</ele>
        <time>2024-07-14T08:14:16.000Z</time>
      </trkpt>
      <trkpt lat="44.99758" lon="5.50527">
        <ele>1293</ele>
        <time>2024-07-14T08:14:17.000Z</time>
      </trkpt>
      <trkpt lat="44.9976" lon="5.50529">
        <ele>1293</ele>
        <time>2024-07-14T08:14:18.000Z</time>
      </trkpt>
      <trkpt lat="44.99762" lon="5.50532">
        <ele>1293</ele>
        <time>2024-07-14T08:14:19.000Z</time>
      </trkpt>
      <trkpt lat="44.99764" lon="5.50534">
        <ele>1293</ele>
        <time>2024-07-14T08:14:20.000Z</time>
      </trkpt>
      <trkpt lat="44.99766" lon="5.50536">
        <ele>1292.8000488281</ele>
        <time>2024-07-14T08:14:21.000Z</time>
      </trkpt>
      <trkpt lat="44.99767" lon="5.50538">
        <ele>1292.5999755859</ele>
        <time>2024-07-14T08:14:22.000Z</time>
      </trkpt>
      <trkpt lat="44.99769" lon="5.5054">
        <ele>1292.4000244141</ele>
        <time>2024-07-14T08:14:23.000Z</time>
      </trkpt>
      <trkpt lat="44.9977" lon="5.50542">
        <ele>1292.4000244141</ele>
        <time>2024-07-14T08:14:24.000Z</time>
      </trkpt>
      <trkpt lat="44.99772" lon="5.50544">
        <ele>1292.1999511719</ele>
        <time>2024-07-14T08:14:25.000Z</time>
      </trkpt>
      <trkpt lat="44.99774" lon="5.50546">
        <ele>1292</ele>
        <time>2024-07-14T08:14:26.000Z</time>
      </trkpt>
      <trkpt lat="44.99776" lon="5.50548">
        <ele>1292</ele>
        <time>2024-07-14T08:14:27.000Z</time>
      </trkpt>
      <trkpt lat="44.99778" lon="5.50549">
        <ele>1291.8000488281</ele>
        <time>2024-07-14T08:14:28.000Z</time>
      </trkpt>
      <trkpt lat="44.9978" lon="5.50551">
        <ele>1291.5999755859</ele>
        <time>2024-07-14T08:14:29.000Z</time>
      </trkpt>
      <trkpt lat="44.99782" lon="5.50553">
        <ele>1291.1999511719</ele>
        <time>2024-07-14T08:14:30.000Z</time>
      </trkpt>
      <trkpt lat="44.99784" lon="5.50554">
        <ele>1290.8000488281</ele>
        <time>2024-07-14T08:14:31.000Z</time>
      </trkpt>
      <trkpt lat="44.99786" lon="5.50555">
        <ele>1290.4000244141</ele>
        <time>2024-07-14T08:14:32.000Z</time>
      </trkpt>
      <trkpt lat="44.99788" lon="5.50557">
        <ele>1290.4000244141</ele>
        <time>2024-07-14T08:14:33.000Z</time>
      </trkpt>
      <trkpt lat="44.9979" lon="5.50558">
        <ele>1290</ele>
        <time>2024-07-14T08:14:34.000Z</time>
      </trkpt>
      <trkpt lat="44.99792" lon="5.5056">
        <ele>1289.8000488281</ele>
        <time>2024-07-14T08:14:35.000Z</time>
      </trkpt>
      <trkpt lat="44.99794" lon="5.50562">
        <ele>1289.4000244141</ele>
        <time>2024-07-14T08:14:36.000Z</time>
      </trkpt>
      <trkpt lat="44.99796" lon="5.50565">
        <ele>1289</ele>
        <time>2024-07-14T08:14:37.000Z</time>
      </trkpt>
      <trkpt lat="44.99798" lon="5.50567">
        <ele>1288.8000488281</ele>
        <time>2024-07-14T08:14:38.000Z</time>
      </trkpt>
      <trkpt lat="44.998" lon="5.5057">
        <ele>1288.4000244141</ele>
        <time>2024-07-14T08:14:39.000Z</time>
      </trkpt>
      <trkpt lat="44.99802" lon="5.50572">
        <ele>1288</ele>
        <time>2024-07-14T08:14:40.000Z</time>
      </trkpt>
      <trkpt lat="44.99805" lon="5.50574">
        <ele>1287.4000244141</ele>
        <time>2024-07-14T08:14:41.000Z</time>
      </trkpt>
      <trkpt lat="44.99807" lon="5.50575">
        <ele>1287</ele>
        <time>2024-07-14T08:14:42.000Z</time>
      </trkpt>
      <trkpt lat="44.9981" lon="5.50576">
        <ele>1287</ele>
        <time>2024-07-14T08:14:43.000Z</time>
      </trkpt>
      <trkpt lat="44.99812" lon="5.50578">
        <ele>1286.5999755859</ele>
        <time>2024-07-14T08:14:44.000Z</time>
      </trkpt>
      <trkpt lat="44.99815" lon="5.50578">
        <ele>1286.4000244141</ele>
        <time>2024-07-14T08:14:45.000Z</time>
      </trkpt>
      <trkpt lat="44.99817" lon="5.50578">
        <ele>1286.1999511719</ele>
        <time>2024-07-14T08:14:46.000Z</time>
      </trkpt>
      <trkpt lat="44.99819" lon="5.50579">
        <ele>1286</ele>
        <time>2024-07-14T08:14:47.000Z</time>
      </trkpt>
      <trkpt lat="44.99821" lon="5.5058">
        <ele>1285.8000488281</ele>
        <time>2024-07-14T08:14:48.000Z</time>
      </trkpt>
      <trkpt lat="44.99824" lon="5.50581">
        <ele>1285.5999755859</ele>
        <time>2024-07-14T08:14:49.000Z</time>
      </trkpt>
      <trkpt lat="44.99826" lon="5.50582">
        <ele>1285.4000244141</ele>
        <time>2024-07-14T08:14:50.000Z</time>
      </trkpt>
      <trkpt lat="44.99828" lon="5.50582">
        <ele>1285</ele>
        <time>2024-07-14T08:14:51.000Z</time>
      </trkpt>
      <trkpt lat="44.9983" lon="5.50583">
        <ele>1284.5999755859</ele>
        <time>2024-07-14T08:14:52.000Z</time>
      </trkpt>
      <trkpt lat="44.99832" lon="5.50585">
        <ele>1284.1999511719</ele>
        <time>2024-07-14T08:14:53.000Z</time>
      </trkpt>
      <trkpt lat="44.99835" lon="5.50586">
        <ele>1283.8000488281</ele>
        <time>2024-07-14T08:14:54.000Z</time>
      </trkpt>
      <trkpt lat="44.99837" lon="5.50587">
        <ele>1283.4000244141</ele>
        <time>2024-07-14T08:14:55.000Z</time>
      </trkpt>
      <trkpt lat="44.99839" lon="5.50587">
        <ele>1282.8000488281</ele>
        <time>2024-07-14T08:14:56.000Z</time>
      </trkpt>
      <trkpt lat="44.99842" lon="5.50588">
        <ele>1282.4000244141</ele>
        <time>2024-07-14T08:14:57.000Z</time>
      </trkpt>
      <trkpt lat="44.99844" lon="5.50589">
        <ele>1282</ele>
        <time>2024-07-14T08:14:58.000Z</time>
      </trkpt>
      <trkpt lat="44.99847" lon="5.50591">
        <ele>1282</ele>
        <time>2024-07-14T08:14:59.000Z</time>
      </trkpt>
      <trkpt lat="44.99849" lon="5.50592">
        <ele>1281.8000488281</ele>
        <time>2024-07-14T08:15:00.000Z</time>
      </trkpt>
      <trkpt lat="44.99851" lon="5.50593">
        <ele>1281.8000488281</ele>
        <time>2024-07-14T08:15:01.000Z</time>
      </trkpt>
      <trkpt lat="44.99853" lon="5.50595">
        <ele>1281.8000488281</ele>
        <time>2024-07-14T08:15:02.000Z</time>
      </trkpt>
      <trkpt lat="44.99854" lon="5.50597">
        <ele>1281.8000488281</ele>
        <time>2024-07-14T08:15:03.000Z</time>
      </trkpt>
      <trkpt lat="44.99857" lon="5.50599">
        <ele>1282</ele>
        <time>2024-07-14T08:15:04.000Z</time>
      </trkpt>
      <trkpt lat="44.99859" lon="5.50601">
        <ele>1282</ele>
        <time>2024-07-14T08:15:05.000Z</time>
      </trkpt>
      <trkpt lat="44.99861" lon="5.50604">
        <ele>1282</ele>
        <time>2024-07-14T08:15:06.000Z</time>
      </trkpt>
      <trkpt lat="44.99863" lon="5.50606">
        <ele>1282</ele>
        <time>2024-07-14T08:15:07.000Z</time>
      </trkpt>
      <trkpt lat="44.99865" lon="5.50608">
        <ele>1282</ele>
        <time>2024-07-14T08:15:08.000Z</time>
      </trkpt>
      <trkpt lat="44.99867" lon="5.5061">
        <ele>1282</ele>
        <time>2024-07-14T08:15:09.000Z</time>
      </trkpt>
      <trkpt lat="44.99869" lon="5.50611">
        <ele>1282.1999511719</ele>
        <time>2024-07-14T08:15:10.000Z</time>
      </trkpt>
      <trkpt lat="44.9987" lon="5.50613">
        <ele>1282.1999511719</ele>
        <time>2024-07-14T08:15:11.000Z</time>
      </trkpt>
      <trkpt lat="44.99872" lon="5.50615">
        <ele>1282.1999511719</ele>
        <time>2024-07-14T08:15:12.000Z</time>
      </trkpt>
      <trkpt lat="44.99874" lon="5.50616">
        <ele>1282.4000244141</ele>
        <time>2024-07-14T08:15:13.000Z</time>
      </trkpt>
      <trkpt lat="44.99876" lon="5.50617">
        <ele>1282.4000244141</ele>
        <time>2024-07-14T08:15:14.000Z</time>
      </trkpt>
      <trkpt lat="44.99878" lon="5.50619">
        <ele>1282.5999755859</ele>
        <time>2024-07-14T08:15:15.000Z</time>
      </trkpt>
      <trkpt lat="44.9988" lon="5.5062">
        <ele>1282.5999755859</ele>
        <time>2024-07-14T08:15:16.000Z</time>
      </trkpt>
      <trkpt lat="44.99881" lon="5.50622">
        <ele>1282.8000488281</ele>
        <time>2024-07-14T08:15:17.000Z</time>
      </trkpt>
      <trkpt lat="44.99883" lon="5.50624">
        <ele>1283</ele>
        <time>2024-07-14T08:15:18.000Z</time>
      </trkpt>
      <trkpt lat="44.99885" lon="5.50626">
        <ele>1283.1999511719</ele>
        <time>2024-07-14T08:15:19.000Z</time>
      </trkpt>
      <trkpt lat="44.99887" lon="5.50628">
        <ele>1283.1999511719</ele>
        <time>2024-07-14T08:15:20.000Z</time>
      </trkpt>
      <trkpt lat="44.99888" lon="5.50631">
        <ele>1283.1999511719</ele>
        <time>2024-07-14T08:15:21.000Z</time>
      </trkpt>
      <trkpt lat="44.9989" lon="5.50633">
        <ele>1283.1999511719</ele>
        <time>2024-07-14T08:15:22.000Z</time>
      </trkpt>
      <trkpt lat="44.99892" lon="5.50636">
        <ele>1283</ele>
        <time>2024-07-14T08:15:23.000Z</time>
      </trkpt>
      <trkpt lat="44.99893" lon="5.50638">
        <ele>1282.8000488281</ele>
        <time>2024-07-14T08:15:24.000Z</time>
      </trkpt>
      <trkpt lat="44.99895" lon="5.50641">
        <ele>1282.5999755859</ele>
        <time>2024-07-14T08:15:25.000Z</time>
      </trkpt>
      <trkpt lat="44.99896" lon="5.50643">
        <ele>1282.5999755859</ele>
        <time>2024-07-14T08:15:26.000Z</time>
      </trkpt>
      <trkpt lat="44.99898" lon="5.50644">
        <ele>1282.4000244141</ele>
        <time>2024-07-14T08:15:27.000Z</time>
      </trkpt>
      <trkpt lat="44.99899" lon="5.50646">
        <ele>1282.4000244141</ele>
        <time>2024-07-14T08:15:28.000Z</time>
      </trkpt>
      <trkpt lat="44.99901" lon="5.50648">
        <ele>1282.1999511719</ele>
        <time>2024-07-14T08:15:29.000Z</time>
      </trkpt>
      <trkpt lat="44.99903" lon="5.50651">
        <ele>1282</ele>
        <time>2024-07-14T08:15:30.000Z</time>
      </trkpt>
      <trkpt lat="44.99905" lon="5.50653">
        <ele>1282</ele>
        <time>2024-07-14T08:15:31.000Z</time>
      </trkpt>
      <trkpt lat="44.99907" lon="5.50655">
        <ele>1281.8000488281</ele>
        <time>2024-07-14T08:15:32.000Z</time>
      </trkpt>
      <trkpt lat="44.99909" lon="5.50657">
        <ele>1281.8000488281</ele>
        <time>2024-07-14T08:15:33.000Z</time>
      </trkpt>
      <trkpt lat="44.99911" lon="5.50658">
        <ele>1281.5999755859</ele>
        <time>2024-07-14T08:15:34.000Z</time>
      </trkpt>
      <trkpt lat="44.99913" lon="5.5066">
        <ele>1281.5999755859</ele>
        <time>2024-07-14T08:15:35.000Z</time>
      </trkpt>
      <trkpt lat="44.99915" lon="5.50661">
        <ele>1281.5999755859</ele>
        <time>2024-07-14T08:15:36.000Z</time>
      </trkpt>
      <trkpt lat="44.99917" lon="5.50661">
        <ele>1281.5999755859</ele>
        <time>2024-07-14T08:15:37.000Z</time>
      </trkpt>
      <trkpt lat="44.99919" lon="5.50662">
        <ele>1281.8000488281</ele>
        <time>2024-07-14T08:15:38.000Z</time>
      </trkpt>
      <trkpt lat="44.99921" lon="5.50663">
        <ele>1282</ele>
        <time>2024-07-14T08:15:39.000Z</time>
      </trkpt>
      <trkpt lat="44.99923" lon="5.50664">
        <ele>1282</ele>
        <time>2024-07-14T08:15:40.000Z</time>
      </trkpt>
      <trkpt lat="44.99926" lon="5.50665">
        <ele>1282</ele>
        <time>2024-07-14T08:15:41.000Z</time>
      </trkpt>
      <trkpt lat="44.99928" lon="5.50666">
        <ele>1282</ele>
        <time>2024-07-14T08:15:42.000Z</time>
      </trkpt>
      <trkpt lat="44.9993" lon="5.50667">
        <ele>1282</ele>
        <time>2024-07-14T08:15:43.000Z</time>
      </trkpt>
      <trkpt lat="44.99932" lon="5.50669">
        <ele>1281.8000488281</ele>
        <time>2024-07-14T08:15:44.000Z</time>
      </trkpt>
      <trkpt lat="44.99934" lon="5.50671">
        <ele>1281.4000244141</ele>
        <time>2024-07-14T08:15:45.000Z</time>
      </trkpt>
      <trkpt lat="44.99936" lon="5.50672">
        <ele>1281.1999511719</ele>
        <time>2024-07-14T08:15:46.000Z</time>
      </trkpt>
      <trkpt lat="44.99939" lon="5.50674">
        <ele>1280.5999755859</ele>
        <time>2024-07-14T08:15:47.000Z</time>
      </trkpt>
      <trkpt lat="44.99941" lon="5.50675">
        <ele>1280.4000244141</ele>
        <time>2024-07-14T08:15:48.000Z</time>
      </trkpt>
      <trkpt lat="44.99943" lon="5.50676">
        <ele>1280.1999511719</ele>
        <time>2024-07-14T08:15:49.000Z</time>
      </trkpt>
      <trkpt lat="44.99945" lon="5.50678">
        <ele>1280.1999511719</ele>
        <time>2024-07-14T08:15:50.000Z</time>
      </trkpt>
      <trkpt lat="44.99947" lon="5.50679">
        <ele>1280</ele>
        <time>2024-07-14T08:15:51.000Z</time>
      </trkpt>
      <trkpt lat="44.99949" lon="5.50681">
        <ele>1279.8000488281</ele>
        <time>2024-07-14T08:15:52.000Z</time>
      </trkpt>
      <trkpt lat="44.9995" lon="5.50681">
        <ele>1279.5999755859</ele>
        <time>2024-07-14T08:15:53.000Z</time>
      </trkpt>
      <trkpt lat="44.99952" lon="5.50682">
        <ele>1279.4000244141</ele>
        <time>2024-07-14T08:15:54.000Z</time>
      </trkpt>
      <trkpt lat="44.99954" lon="5.50682">
        <ele>1279</ele>
        <time>2024-07-14T08:15:55.000Z</time>
      </trkpt>
      <trkpt lat="44.99956" lon="5.50682">
        <ele>1278.4000244141</ele>
        <time>2024-07-14T08:15:56.000Z</time>
      </trkpt>
      <trkpt lat="44.99958" lon="5.50683">
        <ele>1278</ele>
        <time>2024-07-14T08:15:57.000Z</time>
      </trkpt>
      <trkpt lat="44.9996" lon="5.50684">
        <ele>1277.8000488281</ele>
        <time>2024-07-14T08:15:58.000Z</time>
      </trkpt>
      <trkpt lat="44.99962" lon="5.50687">
        <ele>1277.1999511719</ele>
        <time>2024-07-14T08:15:59.000Z</time>
      </trkpt>
      <trkpt lat="44.99964" lon="5.50689">
        <ele>1276.5999755859</ele>
        <time>2024-07-14T08:16:00.000Z</time>
      </trkpt>
      <trkpt lat="44.99966" lon="5.50691">
        <ele>1276.4000244141</ele>
        <time>2024-07-14T08:16:01.000Z</time>
      </trkpt>
      <trkpt lat="44.99968" lon="5.50694">
        <ele>1276</ele>
        <time>2024-07-14T08:16:02.000Z</time>
      </trkpt>
      <trkpt lat="44.9997" lon="5.50696">
        <ele>1275.5999755859</ele>
        <time>2024-07-14T08:16:03.000Z</time>
      </trkpt>
      <trkpt lat="44.99972" lon="5.50699">
        <ele>1275.1999511719</ele>
        <time>2024-07-14T08:16:04.000Z</time>
      </trkpt>
      <trkpt lat="44.99974" lon="5.50702">
        <ele>1275</ele>
        <time>2024-07-14T08:16:05.000Z</time>
      </trkpt>
      <trkpt lat="44.99976" lon="5.50705">
        <ele>1275</ele>
        <time>2024-07-14T08:16:06.000Z</time>
      </trkpt>
      <trkpt lat="44.99978" lon="5.50709">
        <ele>1274.8000488281</ele>
        <time>2024-07-14T08:16:07.000Z</time>
      </trkpt>
      <trkpt lat="44.99979" lon="5.50712">
        <ele>1274.5999755859</ele>
        <time>2024-07-14T08:16:08.000Z</time>
      </trkpt>
      <trkpt lat="44.99981" lon="5.50715">
        <ele>1274.5999755859</ele>
        <time>2024-07-14T08:16:09.000Z</time>
      </trkpt>
      <trkpt lat="44.99983" lon="5.50718">
        <ele>1274.4000244141</ele>
        <time>2024-07-14T08:16:10.000Z</time>
      </trkpt>
      <trkpt lat="44.99984" lon="5.50721">
        <ele>1274.4000244141</ele>
        <time>2024-07-14T08:16:11.000Z</time>
      </trkpt>
      <trkpt lat="44.99986" lon="5.50724">
        <ele>1274.4000244141</ele>
        <time>2024-07-14T08:16:12.000Z</time>
      </trkpt>
      <trkpt lat="44.99987" lon="5.50727">
        <ele>1274.1999511719</ele>
        <time>2024-07-14T08:16:13.000Z</time>
      </trkpt>
      <trkpt lat="44.99989" lon="5.5073">
        <ele>1274.4000244141</ele>
        <time>2024-07-14T08:16:14.000Z</time>
      </trkpt>
      <trkpt lat="44.9999" lon="5.50733">
        <ele>1274.4000244141</ele>
        <time>2024-07-14T08:16:15.000Z</time>
      </trkpt>
      <trkpt lat="44.99991" lon="5.50737">
        <ele>1274.4000244141</ele>
        <time>2024-07-14T08:16:16.000Z</time>
      </trkpt>
      <trkpt lat="44.99993" lon="5.50739">
        <ele>1274.4000244141</ele>
        <time>2024-07-14T08:16:17.000Z</time>
      </trkpt>
      <trkpt lat="44.99995" lon="5.50742">
        <ele>1274.5999755859</ele>
        <time>2024-07-14T08:16:18.000Z</time>
      </trkpt>
      <trkpt lat="44.99996" lon="5.50744">
        <ele>1274.5999755859</ele>
        <time>2024-07-14T08:16:19.000Z</time>
      </trkpt>
      <trkpt lat="44.99999" lon="5.50745">
        <ele>1274.5999755859</ele>
        <time>2024-07-14T08:16:20.000Z</time>
      </trkpt>
      <trkpt lat="45.00001" lon="5.50747">
        <ele>1274.8000488281</ele>
        <time>2024-07-14T08:16:21.000Z</time>
      </trkpt>
      <trkpt lat="45.00003" lon="5.50748">
        <ele>1274.8000488281</ele>
        <time>2024-07-14T08:16:22.000Z</time>
      </trkpt>
      <trkpt lat="45.00005" lon="5.50748">
        <ele>1275</ele>
        <time>2024-07-14T08:16:23.000Z</time>
      </trkpt>
      <trkpt lat="45.00007" lon="5.5075">
        <ele>1275</ele>
        <time>2024-07-14T08:16:24.000Z</time>
      </trkpt>
      <trkpt lat="45.00009" lon="5.50751">
        <ele>1275</ele>
        <time>2024-07-14T08:16:25.000Z</time>
      </trkpt>
      <trkpt lat="45.00011" lon="5.50752">
        <ele>1275.1999511719</ele>
        <time>2024-07-14T08:16:26.000Z</time>
      </trkpt>
      <trkpt lat="45.00014" lon="5.50753">
        <ele>1275.4000244141</ele>
        <time>2024-07-14T08:16:27.000Z</time>
      </trkpt>
      <trkpt lat="45.00016" lon="5.50754">
        <ele>1275.5999755859</ele>
        <time>2024-07-14T08:16:28.000Z</time>
      </trkpt>
      <trkpt lat="45.00018" lon="5.50755">
        <ele>1275.8000488281</ele>
        <time>2024-07-14T08:16:29.000Z</time>
      </trkpt>
      <trkpt lat="45.0002" lon="5.50755">
        <ele>1275.8000488281</ele>
        <time>2024-07-14T08:16:30.000Z</time>
      </trkpt>
      <trkpt lat="45.00022" lon="5.50756">
        <ele>1276</ele>
        <time>2024-07-14T08:16:31.000Z</time>
      </trkpt>
      <trkpt lat="45.00024" lon="5.50757">
        <ele>1276.1999511719</ele>
        <time>2024-07-14T08:16:32.000Z</time>
      </trkpt>
      <trkpt lat="45.00025" lon="5.50757">
        <ele>1276.4000244141</ele>
        <time>2024-07-14T08:16:33.000Z</time>
      </trkpt>
      <trkpt lat="45.00027" lon="5.50758">
        <ele>1276.5999755859</ele>
        <time>2024-07-14T08:16:34.000Z</time>
      </trkpt>
      <trkpt lat="45.00029" lon="5.50758">
        <ele>1276.8000488281</ele>
        <time>2024-07-14T08:16:35.000Z</time>
      </trkpt>
      <trkpt lat="45.00031" lon="5.50758">
        <ele>1276.8000488281</ele>
        <time>2024-07-14T08:16:36.000Z</time>
      </trkpt>
      <trkpt lat="45.00032" lon="5.50758">
        <ele>1277.1999511719</ele>
        <time>2024-07-14T08:16:37.000Z</time>
      </trkpt>
      <trkpt lat="45.00034" lon="5.50758">
        <ele>1277.4000244141</ele>
        <time>2024-07-14T08:16:38.000Z</time>
      </trkpt>
      <trkpt lat="45.00035" lon="5.50759">
        <ele>1277.8000488281</ele>
        <time>2024-07-14T08:16:39.000Z</time>
      </trkpt>
      <trkpt lat="45.00038" lon="5.50759">
        <ele>1278</ele>
        <time>2024-07-14T08:16:40.000Z</time>
      </trkpt>
      <trkpt lat="45.00039" lon="5.5076">
        <ele>1278.4000244141</ele>
        <time>2024-07-14T08:16:41.000Z</time>
      </trkpt>
      <trkpt lat="45.00041" lon="5.5076">
        <ele>1278.5999755859</ele>
        <time>2024-07-14T08:16:42.000Z</time>
      </trkpt>
      <trkpt lat="45.00043" lon="5.50761">
        <ele>1278.8000488281</ele>
        <time>2024-07-14T08:16:43.000Z</time>
      </trkpt>
      <trkpt lat="45.00045" lon="5.50761">
        <ele>1278.8000488281</ele>
        <time>2024-07-14T08:16:44.000Z</time>
      </trkpt>
      <trkpt lat="45.00047" lon="5.50761">
        <ele>1278.8000488281</ele>
        <time>2024-07-14T08:16:45.000Z</time>
      </trkpt>
      <trkpt lat="45.00049" lon="5.50761">
        <ele>1279</ele>
        <time>2024-07-14T08:16:46.000Z</time>
      </trkpt>
      <trkpt lat="45.00051" lon="5.50762">
        <ele>1279.1999511719</ele>
        <time>2024-07-14T08:16:47.000Z</time>
      </trkpt>
      <trkpt lat="45.00053" lon="5.50763">
        <ele>1279.1999511719</ele>
        <time>2024-07-14T08:16:48.000Z</time>
      </trkpt>
      <trkpt lat="45.00056" lon="5.50764">
        <ele>1279.1999511719</ele>
        <time>2024-07-14T08:16:49.000Z</time>
      </trkpt>
      <trkpt lat="45.00058" lon="5.50764">
        <ele>1279.1999511719</ele>
        <time>2024-07-14T08:16:50.000Z</time>
      </trkpt>
      <trkpt lat="45.0006" lon="5.50765">
        <ele>1279.1999511719</ele>
        <time>2024-07-14T08:16:51.000Z</time>
      </trkpt>
      <trkpt lat="45.00062" lon="5.50766">
        <ele>1279.1999511719</ele>
        <time>2024-07-14T08:16:52.000Z</time>
      </trkpt>
      <trkpt lat="45.00064" lon="5.50767">
        <ele>1279</ele>
        <time>2024-07-14T08:16:53.000Z</time>
      </trkpt>
      <trkpt lat="45.00067" lon="5.50767">
        <ele>1278.8000488281</ele>
        <time>2024-07-14T08:16:54.000Z</time>
      </trkpt>
      <trkpt lat="45.00069" lon="5.50768">
        <ele>1278.8000488281</ele>
        <time>2024-07-14T08:16:55.000Z</time>
      </trkpt>
      <trkpt lat="45.00072" lon="5.50768">
        <ele>1278.5999755859</ele>
        <time>2024-07-14T08:16:56.000Z</time>
      </trkpt>
      <trkpt lat="45.00074" lon="5.50769">
        <ele>1278.5999755859</ele>
        <time>2024-07-14T08:16:57.000Z</time>
      </trkpt>
      <trkpt lat="45.00076" lon="5.5077">
        <ele>1278.5999755859</ele>
        <time>2024-07-14T08:16:58.000Z</time>
      </trkpt>
      <trkpt lat="45.00079" lon="5.50771">
        <ele>1278.4000244141</ele>
        <time>2024-07-14T08:16:59.000Z</time>
      </trkpt>
      <trkpt lat="45.00081" lon="5.50772">
        <ele>1278.4000244141</ele>
        <time>2024-07-14T08:17:00.000Z</time>
      </trkpt>
      <trkpt lat="45.00084" lon="5.50773">
        <ele>1278.4000244141</ele>
        <time>2024-07-14T08:17:01.000Z</time>
      </trkpt>
      <trkpt lat="45.00086" lon="5.50774">
        <ele>1278.4000244141</ele>
        <time>2024-07-14T08:17:02.000Z</time>
      </trkpt>
      <trkpt lat="45.00089" lon="5.50775">
        <ele>1278.1999511719</ele>
        <time>2024-07-14T08:17:03.000Z</time>
      </trkpt>
      <trkpt lat="45.00091" lon="5.50777">
        <ele>1278.1999511719</ele>
        <time>2024-07-14T08:17:04.000Z</time>
      </trkpt>
      <trkpt lat="45.00094" lon="5.50778">
        <ele>1278.1999511719</ele>
        <time>2024-07-14T08:17:05.000Z</time>
      </trkpt>
      <trkpt lat="45.00096" lon="5.50779">
        <ele>1278.1999511719</ele>
        <time>2024-07-14T08:17:06.000Z</time>
      </trkpt>
      <trkpt lat="45.00098" lon="5.5078">
        <ele>1278.1999511719</ele>
        <time>2024-07-14T08:17:07.000Z</time>
      </trkpt>
      <trkpt lat="45.00101" lon="5.50781">
        <ele>1278.1999511719</ele>
        <time>2024-07-14T08:17:08.000Z</time>
      </trkpt>
      <trkpt lat="45.00103" lon="5.50782">
        <ele>1278</ele>
        <time>2024-07-14T08:17:09.000Z</time>
      </trkpt>
      <trkpt lat="45.00106" lon="5.50783">
        <ele>1278</ele>
        <time>2024-07-14T08:17:10.000Z</time>
      </trkpt>
      <trkpt lat="45.00108" lon="5.50784">
        <ele>1278</ele>
        <time>2024-07-14T08:17:11.000Z</time>
      </trkpt>
      <trkpt lat="45.00111" lon="5.50785">
        <ele>1278</ele>
        <time>2024-07-14T08:17:12.000Z</time>
      </trkpt>
      <trkpt lat="45.00113" lon="5.50786">
        <ele>1278.1999511719</ele>
        <time>2024-07-14T08:17:13.000Z</time>
      </trkpt>
      <trkpt lat="45.00116" lon="5.50787">
        <ele>1278.1999511719</ele>
        <time>2024-07-14T08:17:14.000Z</time>
      </trkpt>
      <trkpt lat="45.00118" lon="5.50789">
        <ele>1278.1999511719</ele>
        <time>2024-07-14T08:17:15.000Z</time>
      </trkpt>
      <trkpt lat="45.00121" lon="5.5079">
        <ele>1278.1999511719</ele>
        <time>2024-07-14T08:17:16.000Z</time>
      </trkpt>
      <trkpt lat="45.00123" lon="5.50792">
        <ele>1278.1999511719</ele>
        <time>2024-07-14T08:17:17.000Z</time>
      </trkpt>
      <trkpt lat="45.00125" lon="5.50794">
        <ele>1278</ele>
        <time>2024-07-14T08:17:18.000Z</time>
      </trkpt>
      <trkpt lat="45.00127" lon="5.50796">
        <ele>1278</ele>
        <time>2024-07-14T08:17:19.000Z</time>
      </trkpt>
      <trkpt lat="45.0013" lon="5.50799">
        <ele>1278</ele>
        <time>2024-07-14T08:17:20.000Z</time>
      </trkpt>
      <trkpt lat="45.00131" lon="5.50802">
        <ele>1278</ele>
        <time>2024-07-14T08:17:21.000Z</time>
      </trkpt>
      <trkpt lat="45.00133" lon="5.50805">
        <ele>1278</ele>
        <time>2024-07-14T08:17:22.000Z</time>
      </trkpt>
      <trkpt lat="45.00134" lon="5.50809">
        <ele>1278</ele>
        <time>2024-07-14T08:17:23.000Z</time>
      </trkpt>
      <trkpt lat="45.00135" lon="5.50812">
        <ele>1278.1999511719</ele>
        <time>2024-07-14T08:17:24.000Z</time>
      </trkpt>
      <trkpt lat="45.00136" lon="5.50815">
        <ele>1278.1999511719</ele>
        <time>2024-07-14T08:17:25.000Z</time>
      </trkpt>
      <trkpt lat="45.00137" lon="5.50819">
        <ele>1278.1999511719</ele>
        <time>2024-07-14T08:17:26.000Z</time>
      </trkpt>
      <trkpt lat="45.00138" lon="5.50821">
        <ele>1278.1999511719</ele>
        <time>2024-07-14T08:17:27.000Z</time>
      </trkpt>
      <trkpt lat="45.0014" lon="5.50823">
        <ele>1278.1999511719</ele>
        <time>2024-07-14T08:17:28.000Z</time>
      </trkpt>
      <trkpt lat="45.00141" lon="5.50826">
        <ele>1278.1999511719</ele>
        <time>2024-07-14T08:17:29.000Z</time>
      </trkpt>
      <trkpt lat="45.00143" lon="5.50827">
        <ele>1278.1999511719</ele>
        <time>2024-07-14T08:17:30.000Z</time>
      </trkpt>
      <trkpt lat="45.00145" lon="5.50829">
        <ele>1278</ele>
        <time>2024-07-14T08:17:31.000Z</time>
      </trkpt>
      <trkpt lat="45.00147" lon="5.5083">
        <ele>1277.8000488281</ele>
        <time>2024-07-14T08:17:32.000Z</time>
      </trkpt>
      <trkpt lat="45.00149" lon="5.50832">
        <ele>1277.8000488281</ele>
        <time>2024-07-14T08:17:33.000Z</time>
      </trkpt>
      <trkpt lat="45.00152" lon="5.50833">
        <ele>1277.8000488281</ele>
        <time>2024-07-14T08:17:34.000Z</time>
      </trkpt>
      <trkpt lat="45.00154" lon="5.50834">
        <ele>1277.8000488281</ele>
        <time>2024-07-14T08:17:35.000Z</time>
      </trkpt>
      <trkpt lat="45.00156" lon="5.50835">
        <ele>1277.5999755859</ele>
        <time>2024-07-14T08:17:36.000Z</time>
      </trkpt>
      <trkpt lat="45.00158" lon="5.50836">
        <ele>1277.4000244141</ele>
        <time>2024-07-14T08:17:37.000Z</time>
      </trkpt>
      <trkpt lat="45.0016" lon="5.50837">
        <ele>1277.4000244141</ele>
        <time>2024-07-14T08:17:38.000Z</time>
      </trkpt>
      <trkpt lat="45.00162" lon="5.50839">
        <ele>1276.8000488281</ele>
        <time>2024-07-14T08:17:39.000Z</time>
      </trkpt>
      <trkpt lat="45.00164" lon="5.5084">
        <ele>1276.4000244141</ele>
        <time>2024-07-14T08:17:40.000Z</time>
      </trkpt>
      <trkpt lat="45.00167" lon="5.50843">
        <ele>1276.1999511719</ele>
        <time>2024-07-14T08:17:41.000Z</time>
      </trkpt>
      <trkpt lat="45.00169" lon="5.50845">
        <ele>1276</ele>
        <time>2024-07-14T08:17:42.000Z</time>
      </trkpt>
      <trkpt lat="45.00171" lon="5.50848">
        <ele>1276</ele>
        <time>2024-07-14T08:17:43.000Z</time>
      </trkpt>
      <trkpt lat="45.00172" lon="5.50851">
        <ele>1276</ele>
        <time>2024-07-14T08:17:44.000Z</time>
      </trkpt>
      <trkpt lat="45.00174" lon="5.50854">
        <ele>1276</ele>
        <time>2024-07-14T08:17:45.000Z</time>
      </trkpt>
      <trkpt lat="45.00175" lon="5.50857">
        <ele>1276</ele>
        <time>2024-07-14T08:17:46.000Z</time>
      </trkpt>
      <trkpt lat="45.00177" lon="5.5086">
        <ele>1276</ele>
        <time>2024-07-14T08:17:47.000Z</time>
      </trkpt>
      <trkpt lat="45.00178" lon="5.50864">
        <ele>1276</ele>
        <time>2024-07-14T08:17:48.000Z</time>
      </trkpt>
      <trkpt lat="45.0018" lon="5.50867">
        <ele>1276</ele>
        <time>2024-07-14T08:17:49.000Z</time>
      </trkpt>
      <trkpt lat="45.00182" lon="5.50871">
        <ele>1276</ele>
        <time>2024-07-14T08:17:50.000Z</time>
      </trkpt>
      <trkpt lat="45.00183" lon="5.50874">
        <ele>1276</ele>
        <time>2024-07-14T08:17:51.000Z</time>
      </trkpt>
      <trkpt lat="45.00184" lon="5.50878">
        <ele>1276</ele>
        <time>2024-07-14T08:17:52.000Z</time>
      </trkpt>
      <trkpt lat="45.00185" lon="5.50881">
        <ele>1276</ele>
        <time>2024-07-14T08:17:53.000Z</time>
      </trkpt>
      <trkpt lat="45.00185" lon="5.50885">
        <ele>1276</ele>
        <time>2024-07-14T08:17:54.000Z</time>
      </trkpt>
      <trkpt lat="45.00186" lon="5.50889">
        <ele>1276</ele>
        <time>2024-07-14T08:17:55.000Z</time>
      </trkpt>
      <trkpt lat="45.00186" lon="5.50893">
        <ele>1276.1999511719</ele>
        <time>2024-07-14T08:17:56.000Z</time>
      </trkpt>
      <trkpt lat="45.00186" lon="5.50897">
        <ele>1276.1999511719</ele>
        <time>2024-07-14T08:17:57.000Z</time>
      </trkpt>
      <trkpt lat="45.00186" lon="5.50901">
        <ele>1276.1999511719</ele>
        <time>2024-07-14T08:17:58.000Z</time>
      </trkpt>
      <trkpt lat="45.00185" lon="5.50905">
        <ele>1276.1999511719</ele>
        <time>2024-07-14T08:17:59.000Z</time>
      </trkpt>
      <trkpt lat="45.00185" lon="5.50909">
        <ele>1276.1999511719</ele>
        <time>2024-07-14T08:18:00.000Z</time>
      </trkpt>
      <trkpt lat="45.00184" lon="5.50913">
        <ele>1276.1999511719</ele>
        <time>2024-07-14T08:18:01.000Z</time>
      </trkpt>
      <trkpt lat="45.00184" lon="5.50917">
        <ele>1276.1999511719</ele>
        <time>2024-07-14T08:18:02.000Z</time>
      </trkpt>
      <trkpt lat="45.00184" lon="5.50921">
        <ele>1276.1999511719</ele>
        <time>2024-07-14T08:18:03.000Z</time>
      </trkpt>
      <trkpt lat="45.00184" lon="5.50924">
        <ele>1276.1999511719</ele>
        <time>2024-07-14T08:18:04.000Z</time>
      </trkpt>
      <trkpt lat="45.00184" lon="5.50927">
        <ele>1276.4000244141</ele>
        <time>2024-07-14T08:18:05.000Z</time>
      </trkpt>
      <trkpt lat="45.00184" lon="5.50929">
        <ele>1276.4000244141</ele>
        <time>2024-07-14T08:18:06.000Z</time>
      </trkpt>
      <trkpt lat="45.00184" lon="5.50933">
        <ele>1276.4000244141</ele>
        <time>2024-07-14T08:18:07.000Z</time>
      </trkpt>
      <trkpt lat="45.00185" lon="5.50935">
        <ele>1276.8000488281</ele>
        <time>2024-07-14T08:18:08.000Z</time>
      </trkpt>
      <trkpt lat="45.00186" lon="5.50938">
        <ele>1276.8000488281</ele>
        <time>2024-07-14T08:18:09.000Z</time>
      </trkpt>
      <trkpt lat="45.00186" lon="5.5094">
        <ele>1277</ele>
        <time>2024-07-14T08:18:10.000Z</time>
      </trkpt>
      <trkpt lat="45.00187" lon="5.50943">
        <ele>1277.1999511719</ele>
        <time>2024-07-14T08:18:11.000Z</time>
      </trkpt>
      <trkpt lat="45.00188" lon="5.50946">
        <ele>1277.1999511719</ele>
        <time>2024-07-14T08:18:12.000Z</time>
      </trkpt>
      <trkpt lat="45.00188" lon="5.5095">
        <ele>1277.1999511719</ele>
        <time>2024-07-14T08:18:13.000Z</time>
      </trkpt>
      <trkpt lat="45.00189" lon="5.50952">
        <ele>1277.1999511719</ele>
        <time>2024-07-14T08:18:14.000Z</time>
      </trkpt>
      <trkpt lat="45.00191" lon="5.50955">
        <ele>1277.1999511719</ele>
        <time>2024-07-14T08:18:15.000Z</time>
      </trkpt>
      <trkpt lat="45.00192" lon="5.50957">
        <ele>1277</ele>
        <time>2024-07-14T08:18:16.000Z</time>
      </trkpt>
      <trkpt lat="45.00194" lon="5.50959">
        <ele>1276.5999755859</ele>
        <time>2024-07-14T08:18:17.000Z</time>
      </trkpt>
      <trkpt lat="45.00195" lon="5.50961">
        <ele>1276.1999511719</ele>
        <time>2024-07-14T08:18:18.000Z</time>
      </trkpt>
      <trkpt lat="45.00197" lon="5.50962">
        <ele>1275.8000488281</ele>
        <time>2024-07-14T08:18:19.000Z</time>
      </trkpt>
      <trkpt lat="45.002" lon="5.50963">
        <ele>1275.5999755859</ele>
        <time>2024-07-14T08:18:20.000Z</time>
      </trkpt>
      <trkpt lat="45.00202" lon="5.50963">
        <ele>1275.4000244141</ele>
        <time>2024-07-14T08:18:21.000Z</time>
      </trkpt>
      <trkpt lat="45.00205" lon="5.50962">
        <ele>1275.4000244141</ele>
        <time>2024-07-14T08:18:22.000Z</time>
      </trkpt>
      <trkpt lat="45.00207" lon="5.50962">
        <ele>1275.1999511719</ele>
        <time>2024-07-14T08:18:23.000Z</time>
      </trkpt>
      <trkpt lat="45.0021" lon="5.50961">
        <ele>1275</ele>
        <time>2024-07-14T08:18:24.000Z</time>
      </trkpt>
      <trkpt lat="45.00213" lon="5.50961">
        <ele>1274.8000488281</ele>
        <time>2024-07-14T08:18:25.000Z</time>
      </trkpt>
      <trkpt lat="45.00215" lon="5.50961">
        <ele>1274.5999755859</ele>
        <time>2024-07-14T08:18:26.000Z</time>
      </trkpt>
      <trkpt lat="45.00218" lon="5.50961">
        <ele>1274.5999755859</ele>
        <time>2024-07-14T08:18:27.000Z</time>
      </trkpt>
      <trkpt lat="45.00221" lon="5.50961">
        <ele>1274.4000244141</ele>
        <time>2024-07-14T08:18:28.000Z</time>
      </trkpt>
      <trkpt lat="45.00224" lon="5.50962">
        <ele>1274.4000244141</ele>
        <time>2024-07-14T08:18:29.000Z</time>
      </trkpt>
      <trkpt lat="45.00227" lon="5.50963">
        <ele>1274.1999511719</ele>
        <time>2024-07-14T08:18:30.000Z</time>
      </trkpt>
      <trkpt lat="45.00229" lon="5.50964">
        <ele>1274</ele>
        <time>2024-07-14T08:18:31.000Z</time>
      </trkpt>
      <trkpt lat="45.00231" lon="5.50965">
        <ele>1274</ele>
        <time>2024-07-14T08:18:32.000Z</time>
      </trkpt>
      <trkpt lat="45.00234" lon="5.50967">
        <ele>1273.8000488281</ele>
        <time>2024-07-14T08:18:33.000Z</time>
      </trkpt>
      <trkpt lat="45.00236" lon="5.50968">
        <ele>1273.5999755859</ele>
        <time>2024-07-14T08:18:34.000Z</time>
      </trkpt>
      <trkpt lat="45.00239" lon="5.5097">
        <ele>1273.5999755859</ele>
        <time>2024-07-14T08:18:35.000Z</time>
      </trkpt>
      <trkpt lat="45.00242" lon="5.50971">
        <ele>1273.4000244141</ele>
        <time>2024-07-14T08:18:36.000Z</time>
      </trkpt>
      <trkpt lat="45.00244" lon="5.50972">
        <ele>1273.4000244141</ele>
        <time>2024-07-14T08:18:37.000Z</time>
      </trkpt>
      <trkpt lat="45.00247" lon="5.50973">
        <ele>1273.1999511719</ele>
        <time>2024-07-14T08:18:38.000Z</time>
      </trkpt>
      <trkpt lat="45.00249" lon="5.50974">
        <ele>1273</ele>
        <time>2024-07-14T08:18:39.000Z</time>
      </trkpt>
      <trkpt lat="45.00251" lon="5.50976">
        <ele>1273</ele>
        <time>2024-07-14T08:18:40.000Z</time>
      </trkpt>
      <trkpt lat="45.00254" lon="5.50978">
        <ele>1272.8000488281</ele>
        <time>2024-07-14T08:18:41.000Z</time>
      </trkpt>
      <trkpt lat="45.00256" lon="5.50979">
        <ele>1272.8000488281</ele>
        <time>2024-07-14T08:18:42.000Z</time>
      </trkpt>
      <trkpt lat="45.00258" lon="5.50981">
        <ele>1272.5999755859</ele>
        <time>2024-07-14T08:18:43.000Z</time>
      </trkpt>
      <trkpt lat="45.0026" lon="5.50983">
        <ele>1272.5999755859</ele>
        <time>2024-07-14T08:18:44.000Z</time>
      </trkpt>
      <trkpt lat="45.00262" lon="5.50985">
        <ele>1272.4000244141</ele>
        <time>2024-07-14T08:18:45.000Z</time>
      </trkpt>
      <trkpt lat="45.00264" lon="5.50986">
        <ele>1272.1999511719</ele>
        <time>2024-07-14T08:18:46.000Z</time>
      </trkpt>
      <trkpt lat="45.00267" lon="5.50987">
        <ele>1272.1999511719</ele>
        <time>2024-07-14T08:18:47.000Z</time>
      </trkpt>
      <trkpt lat="45.00269" lon="5.50988">
        <ele>1272.1999511719</ele>
        <time>2024-07-14T08:18:48.000Z</time>
      </trkpt>
      <trkpt lat="45.00272" lon="5.5099">
        <ele>1271.8000488281</ele>
        <time>2024-07-14T08:18:49.000Z</time>
      </trkpt>
      <trkpt lat="45.00274" lon="5.50992">
        <ele>1271.5999755859</ele>
        <time>2024-07-14T08:18:50.000Z</time>
      </trkpt>
      <trkpt lat="45.00277" lon="5.50994">
        <ele>1271.5999755859</ele>
        <time>2024-07-14T08:18:51.000Z</time>
      </trkpt>
      <trkpt lat="45.00279" lon="5.50996">
        <ele>1271.4000244141</ele>
        <time>2024-07-14T08:18:52.000Z</time>
      </trkpt>
      <trkpt lat="45.00282" lon="5.50998">
        <ele>1271.1999511719</ele>
        <time>2024-07-14T08:18:53.000Z</time>
      </trkpt>
      <trkpt lat="45.00284" lon="5.51001">
        <ele>1271</ele>
        <time>2024-07-14T08:18:54.000Z</time>
      </trkpt>
      <trkpt lat="45.00285" lon="5.51003">
        <ele>1271</ele>
        <time>2024-07-14T08:18:55.000Z</time>
      </trkpt>
      <trkpt lat="45.00287" lon="5.51005">
        <ele>1270.8000488281</ele>
        <time>2024-07-14T08:18:56.000Z</time>
      </trkpt>
      <trkpt lat="45.00289" lon="5.51007">
        <ele>1270.5999755859</ele>
        <time>2024-07-14T08:18:57.000Z</time>
      </trkpt>
      <trkpt lat="45.00292" lon="5.5101">
        <ele>1270.4000244141</ele>
        <time>2024-07-14T08:18:58.000Z</time>
      </trkpt>
      <trkpt lat="45.00294" lon="5.51012">
        <ele>1270.1999511719</ele>
        <time>2024-07-14T08:18:59.000Z</time>
      </trkpt>
      <trkpt lat="45.00296" lon="5.51013">
        <ele>1270</ele>
        <time>2024-07-14T08:19:00.000Z</time>
      </trkpt>
      <trkpt lat="45.00298" lon="5.51014">
        <ele>1270</ele>
        <time>2024-07-14T08:19:01.000Z</time>
      </trkpt>
      <trkpt lat="45.00302" lon="5.51015">
        <ele>1269.8000488281</ele>
        <time>2024-07-14T08:19:02.000Z</time>
      </trkpt>
      <trkpt lat="45.00304" lon="5.51016">
        <ele>1269.5999755859</ele>
        <time>2024-07-14T08:19:03.000Z</time>
      </trkpt>
      <trkpt lat="45.00306" lon="5.51017">
        <ele>1269.4000244141</ele>
        <time>2024-07-14T08:19:04.000Z</time>
      </trkpt>
      <trkpt lat="45.00309" lon="5.51017">
        <ele>1269</ele>
        <time>2024-07-14T08:19:05.000Z</time>
      </trkpt>
      <trkpt lat="45.00311" lon="5.51018">
        <ele>1268.8000488281</ele>
        <time>2024-07-14T08:19:06.000Z</time>
      </trkpt>
      <trkpt lat="45.00313" lon="5.51018">
        <ele>1268.4000244141</ele>
        <time>2024-07-14T08:19:07.000Z</time>
      </trkpt>
      <trkpt lat="45.00315" lon="5.51018">
        <ele>1268</ele>
        <time>2024-07-14T08:19:08.000Z</time>
      </trkpt>
      <trkpt lat="45.00317" lon="5.51018">
        <ele>1267.5999755859</ele>
        <time>2024-07-14T08:19:09.000Z</time>
      </trkpt>
      <trkpt lat="45.00319" lon="5.51018">
        <ele>1267</ele>
        <time>2024-07-14T08:19:10.000Z</time>
      </trkpt>
      <trkpt lat="45.00321" lon="5.51019">
        <ele>1267</ele>
        <time>2024-07-14T08:19:11.000Z</time>
      </trkpt>
      <trkpt lat="45.00322" lon="5.51019">
        <ele>1266.5999755859</ele>
        <time>2024-07-14T08:19:12.000Z</time>
      </trkpt>
      <trkpt lat="45.00324" lon="5.51019">
        <ele>1266.4000244141</ele>
        <time>2024-07-14T08:19:13.000Z</time>
      </trkpt>
      <trkpt lat="45.00326" lon="5.51019">
        <ele>1266</ele>
        <time>2024-07-14T08:19:14.000Z</time>
      </trkpt>
      <trkpt lat="45.00328" lon="5.5102">
        <ele>1265.8000488281</ele>
        <time>2024-07-14T08:19:15.000Z</time>
      </trkpt>
      <trkpt lat="45.00329" lon="5.5102">
        <ele>1265.4000244141</ele>
        <time>2024-07-14T08:19:16.000Z</time>
      </trkpt>
      <trkpt lat="45.00331" lon="5.5102">
        <ele>1265.1999511719</ele>
        <time>2024-07-14T08:19:17.000Z</time>
      </trkpt>
      <trkpt lat="45.00333" lon="5.5102">
        <ele>1264.8000488281</ele>
        <time>2024-07-14T08:19:18.000Z</time>
      </trkpt>
      <trkpt lat="45.00335" lon="5.5102">
        <ele>1264</ele>
        <time>2024-07-14T08:19:19.000Z</time>
      </trkpt>
      <trkpt lat="45.00337" lon="5.5102">
        <ele>1263.5999755859</ele>
        <time>2024-07-14T08:19:20.000Z</time>
      </trkpt>
      <trkpt lat="45.00338" lon="5.51019">
        <ele>1263</ele>
        <time>2024-07-14T08:19:21.000Z</time>
      </trkpt>
      <trkpt lat="45.0034" lon="5.51018">
        <ele>1262.5999755859</ele>
        <time>2024-07-14T08:19:22.000Z</time>
      </trkpt>
      <trkpt lat="45.00341" lon="5.51017">
        <ele>1262.1999511719</ele>
        <time>2024-07-14T08:19:23.000Z</time>
      </trkpt>
      <trkpt lat="45.00343" lon="5.51016">
        <ele>1261.5999755859</ele>
        <time>2024-07-14T08:19:24.000Z</time>
      </trkpt>
      <trkpt lat="45.00345" lon="5.51015">
        <ele>1261.4000244141</ele>
        <time>2024-07-14T08:19:25.000Z</time>
      </trkpt>
      <trkpt lat="45.00347" lon="5.51015">
        <ele>1261.1999511719</ele>
        <time>2024-07-14T08:19:26.000Z</time>
      </trkpt>
      <trkpt lat="45.00349" lon="5.51015">
        <ele>1261</ele>
        <time>2024-07-14T08:19:27.000Z</time>
      </trkpt>
      <trkpt lat="45.0035" lon="5.51014">
        <ele>1260.5999755859</ele>
        <time>2024-07-14T08:19:28.000Z</time>
      </trkpt>
      <trkpt lat="45.00352" lon="5.51013">
        <ele>1260.1999511719</ele>
        <time>2024-07-14T08:19:29.000Z</time>
      </trkpt>
      <trkpt lat="45.00354" lon="5.51012">
        <ele>1259.1999511719</ele>
        <time>2024-07-14T08:19:30.000Z</time>
      </trkpt>
      <trkpt lat="45.00356" lon="5.5101">
        <ele>1258.8000488281</ele>
        <time>2024-07-14T08:19:31.000Z</time>
      </trkpt>
      <trkpt lat="45.00357" lon="5.51007">
        <ele>1258.1999511719</ele>
        <time>2024-07-14T08:19:32.000Z</time>
      </trkpt>
      <trkpt lat="45.00359" lon="5.51005">
        <ele>1257.8000488281</ele>
        <time>2024-07-14T08:19:33.000Z</time>
      </trkpt>
      <trkpt lat="45.0036" lon="5.51003">
        <ele>1257.1999511719</ele>
        <time>2024-07-14T08:19:34.000Z</time>
      </trkpt>
      <trkpt lat="45.00361" lon="5.51">
        <ele>1257</ele>
        <time>2024-07-14T08:19:35.000Z</time>
      </trkpt>
      <trkpt lat="45.00363" lon="5.50997">
        <ele>1256.8000488281</ele>
        <time>2024-07-14T08:19:36.000Z</time>
      </trkpt>
      <trkpt lat="45.00366" lon="5.50994">
        <ele>1256.4000244141</ele>
        <time>2024-07-14T08:19:37.000Z</time>
      </trkpt>
      <trkpt lat="45.00369" lon="5.50992">
        <ele>1256</ele>
        <time>2024-07-14T08:19:38.000Z</time>
      </trkpt>
      <trkpt lat="45.00371" lon="5.5099">
        <ele>1255.8000488281</ele>
        <time>2024-07-14T08:19:39.000Z</time>
      </trkpt>
      <trkpt lat="45.00374" lon="5.50988">
        <ele>1255.4000244141</ele>
        <time>2024-07-14T08:19:40.000Z</time>
      </trkpt>
      <trkpt lat="45.00376" lon="5.50987">
        <ele>1255</ele>
        <time>2024-07-14T08:19:41.000Z</time>
      </trkpt>
      <trkpt lat="45.00379" lon="5.50985">
        <ele>1254.8000488281</ele>
        <time>2024-07-14T08:19:42.000Z</time>
      </trkpt>
      <trkpt lat="45.00381" lon="5.50983">
        <ele>1254.4000244141</ele>
        <time>2024-07-14T08:19:43.000Z</time>
      </trkpt>
      <trkpt lat="45.00383" lon="5.50981">
        <ele>1254</ele>
        <time>2024-07-14T08:19:44.000Z</time>
      </trkpt>
      <trkpt lat="45.00385" lon="5.50978">
        <ele>1253.8000488281</ele>
        <time>2024-07-14T08:19:45.000Z</time>
      </trkpt>
      <trkpt lat="45.00386" lon="5.50974">
        <ele>1253.8000488281</ele>
        <time>2024-07-14T08:19:46.000Z</time>
      </trkpt>
      <trkpt lat="45.00386" lon="5.50971">
        <ele>1253.5999755859</ele>
        <time>2024-07-14T08:19:47.000Z</time>
      </trkpt>
      <trkpt lat="45.00386" lon="5.50967">
        <ele>1253.5999755859</ele>
        <time>2024-07-14T08:19:48.000Z</time>
      </trkpt>
      <trkpt lat="45.00385" lon="5.50964">
        <ele>1253.5999755859</ele>
        <time>2024-07-14T08:19:49.000Z</time>
      </trkpt>
      <trkpt lat="45.00384" lon="5.50961">
        <ele>1253.4000244141</ele>
        <time>2024-07-14T08:19:50.000Z</time>
      </trkpt>
      <trkpt lat="45.00383" lon="5.50958">
        <ele>1253.4000244141</ele>
        <time>2024-07-14T08:19:51.000Z</time>
      </trkpt>
      <trkpt lat="45.00381" lon="5.50954">
        <ele>1253.4000244141</ele>
        <time>2024-07-14T08:19:52.000Z</time>
      </trkpt>
      <trkpt lat="45.00379" lon="5.50951">
        <ele>1253.1999511719</ele>
        <time>2024-07-14T08:19:53.000Z</time>
      </trkpt>
      <trkpt lat="45.00378" lon="5.50947">
        <ele>1253.1999511719</ele>
        <time>2024-07-14T08:19:54.000Z</time>
      </trkpt>
      <trkpt lat="45.00377" lon="5.50943">
        <ele>1253.1999511719</ele>
        <time>2024-07-14T08:19:55.000Z</time>
      </trkpt>
      <trkpt lat="45.00375" lon="5.50939">
        <ele>1253</ele>
        <time>2024-07-14T08:19:56.000Z</time>
      </trkpt>
      <trkpt lat="45.00374" lon="5.50936">
        <ele>1253</ele>
        <time>2024-07-14T08:19:57.000Z</time>
      </trkpt>
      <trkpt lat="45.00373" lon="5.50932">
        <ele>1252.8000488281</ele>
        <time>2024-07-14T08:19:58.000Z</time>
      </trkpt>
      <trkpt lat="45.00371" lon="5.50928">
        <ele>1252.8000488281</ele>
        <time>2024-07-14T08:19:59.000Z</time>
      </trkpt>
      <trkpt lat="45.0037" lon="5.50925">
        <ele>1252.5999755859</ele>
        <time>2024-07-14T08:20:00.000Z</time>
      </trkpt>
      <trkpt lat="45.00368" lon="5.50922">
        <ele>1252.5999755859</ele>
        <time>2024-07-14T08:20:01.000Z</time>
      </trkpt>
      <trkpt lat="45.00367" lon="5.50918">
        <ele>1252.5999755859</ele>
        <time>2024-07-14T08:20:02.000Z</time>
      </trkpt>
      <trkpt lat="45.00367" lon="5.50915">
        <ele>1252.4000244141</ele>
        <time>2024-07-14T08:20:03.000Z</time>
      </trkpt>
      <trkpt lat="45.00366" lon="5.50911">
        <ele>1252.4000244141</ele>
        <time>2024-07-14T08:20:04.000Z</time>
      </trkpt>
      <trkpt lat="45.00366" lon="5.50907">
        <ele>1252.4000244141</ele>
        <time>2024-07-14T08:20:05.000Z</time>
      </trkpt>
      <trkpt lat="45.00365" lon="5.50903">
        <ele>1252.4000244141</ele>
        <time>2024-07-14T08:20:06.000Z</time>
      </trkpt>
      <trkpt lat="45.00364" lon="5.50899">
        <ele>1252.4000244141</ele>
        <time>2024-07-14T08:20:07.000Z</time>
      </trkpt>
      <trkpt lat="45.00363" lon="5.50896">
        <ele>1252.1999511719</ele>
        <time>2024-07-14T08:20:08.000Z</time>
      </trkpt>
      <trkpt lat="45.00362" lon="5.50892">
        <ele>1252.1999511719</ele>
        <time>2024-07-14T08:20:09.000Z</time>
      </trkpt>
      <trkpt lat="45.00362" lon="5.50888">
        <ele>1252.1999511719</ele>
        <time>2024-07-14T08:20:10.000Z</time>
      </trkpt>
      <trkpt lat="45.00361" lon="5.50885">
        <ele>1252.1999511719</ele>
        <time>2024-07-14T08:20:11.000Z</time>
      </trkpt>
      <trkpt lat="45.0036" lon="5.50881">
        <ele>1252</ele>
        <time>2024-07-14T08:20:12.000Z</time>
      </trkpt>
      <trkpt lat="45.00359" lon="5.50877">
        <ele>1252</ele>
        <time>2024-07-14T08:20:13.000Z</time>
      </trkpt>
      <trkpt lat="45.00358" lon="5.50874">
        <ele>1252</ele>
        <time>2024-07-14T08:20:14.000Z</time>
      </trkpt>
      <trkpt lat="45.00357" lon="5.5087">
        <ele>1252</ele>
        <time>2024-07-14T08:20:15.000Z</time>
      </trkpt>
      <trkpt lat="45.00356" lon="5.50867">
        <ele>1252.1999511719</ele>
        <time>2024-07-14T08:20:16.000Z</time>
      </trkpt>
      <trkpt lat="45.00355" lon="5.50864">
        <ele>1252.1999511719</ele>
        <time>2024-07-14T08:20:17.000Z</time>
      </trkpt>
      <trkpt lat="45.00354" lon="5.50861">
        <ele>1252.4000244141</ele>
        <time>2024-07-14T08:20:18.000Z</time>
      </trkpt>
      <trkpt lat="45.00354" lon="5.50858">
        <ele>1252.8000488281</ele>
        <time>2024-07-14T08:20:19.000Z</time>
      </trkpt>
      <trkpt lat="45.00354" lon="5.50856">
        <ele>1253.1999511719</ele>
        <time>2024-07-14T08:20:20.000Z</time>
      </trkpt>
      <trkpt lat="45.00354" lon="5.50853">
        <ele>1253.4000244141</ele>
        <time>2024-07-14T08:20:21.000Z</time>
      </trkpt>
      <trkpt lat="45.00354" lon="5.50851">
        <ele>1253.5999755859</ele>
        <time>2024-07-14T08:20:22.000Z</time>
      </trkpt>
      <trkpt lat="45.00353" lon="5.50848">
        <ele>1253.5999755859</ele>
        <time>2024-07-14T08:20:23.000Z</time>
      </trkpt>
      <trkpt lat="45.00353" lon="5.50846">
        <ele>1253.8000488281</ele>
        <time>2024-07-14T08:20:24.000Z</time>
      </trkpt>
      <trkpt lat="45.00353" lon="5.50844">
        <ele>1254</ele>
        <time>2024-07-14T08:20:25.000Z</time>
      </trkpt>
      <trkpt lat="45.00353" lon="5.5084">
        <ele>1254.1999511719</ele>
        <time>2024-07-14T08:20:26.000Z</time>
      </trkpt>
      <trkpt lat="45.00353" lon="5.50837">
        <ele>1254.1999511719</ele>
        <time>2024-07-14T08:20:27.000Z</time>
      </trkpt>
      <trkpt lat="45.00353" lon="5.50834">
        <ele>1254.4000244141</ele>
        <time>2024-07-14T08:20:28.000Z</time>
      </trkpt>
      <trkpt lat="45.00353" lon="5.50831">
        <ele>1254.8000488281</ele>
        <time>2024-07-14T08:20:29.000Z</time>
      </trkpt>
      <trkpt lat="45.00354" lon="5.50828">
        <ele>1255</ele>
        <time>2024-07-14T08:20:30.000Z</time>
      </trkpt>
      <trkpt lat="45.00354" lon="5.50825">
        <ele>1255</ele>
        <time>2024-07-14T08:20:31.000Z</time>
      </trkpt>
      <trkpt lat="45.00355" lon="5.50822">
        <ele>1255.1999511719</ele>
        <time>2024-07-14T08:20:32.000Z</time>
      </trkpt>
      <trkpt lat="45.00356" lon="5.50818">
        <ele>1255.1999511719</ele>
        <time>2024-07-14T08:20:33.000Z</time>
      </trkpt>
      <trkpt lat="45.00356" lon="5.50815">
        <ele>1255.4000244141</ele>
        <time>2024-07-14T08:20:34.000Z</time>
      </trkpt>
      <trkpt lat="45.00358" lon="5.50812">
        <ele>1255.4000244141</ele>
        <time>2024-07-14T08:20:35.000Z</time>
      </trkpt>
      <trkpt lat="45.00359" lon="5.50809">
        <ele>1255.5999755859</ele>
        <time>2024-07-14T08:20:36.000Z</time>
      </trkpt>
      <trkpt lat="45.0036" lon="5.50806">
        <ele>1255.5999755859</ele>
        <time>2024-07-14T08:20:37.000Z</time>
      </trkpt>
      <trkpt lat="45.00361" lon="5.50803">
        <ele>1255.8000488281</ele>
        <time>2024-07-14T08:20:38.000Z</time>
      </trkpt>
      <trkpt lat="45.00362" lon="5.50801">
        <ele>1255.8000488281</ele>
        <time>2024-07-14T08:20:39.000Z</time>
      </trkpt>
      <trkpt lat="45.00362" lon="5.50799">
        <ele>1256</ele>
        <time>2024-07-14T08:20:40.000Z</time>
      </trkpt>
      <trkpt lat="45.00363" lon="5.50796">
        <ele>1256.4000244141</ele>
        <time>2024-07-14T08:20:41.000Z</time>
      </trkpt>
      <trkpt lat="45.00364" lon="5.50794">
        <ele>1256.8000488281</ele>
        <time>2024-07-14T08:20:42.000Z</time>
      </trkpt>
      <trkpt lat="45.00365" lon="5.50792">
        <ele>1257</ele>
        <time>2024-07-14T08:20:43.000Z</time>
      </trkpt>
      <trkpt lat="45.00366" lon="5.50789">
        <ele>1257.4000244141</ele>
        <time>2024-07-14T08:20:44.000Z</time>
      </trkpt>
      <trkpt lat="45.00366" lon="5.50787">
        <ele>1257.5999755859</ele>
        <time>2024-07-14T08:20:45.000Z</time>
      </trkpt>
      <trkpt lat="45.00366" lon="5.50785">
        <ele>1258</ele>
        <time>2024-07-14T08:20:46.000Z</time>
      </trkpt>
      <trkpt lat="45.00366" lon="5.50784">
        <ele>1258.4000244141</ele>
        <time>2024-07-14T08:20:47.000Z</time>
      </trkpt>
      <trkpt lat="45.00365" lon="5.50781">
        <ele>1258.5999755859</ele>
        <time>2024-07-14T08:20:48.000Z</time>
      </trkpt>
      <trkpt lat="45.00364" lon="5.50779">
        <ele>1259</ele>
        <time>2024-07-14T08:20:49.000Z</time>
      </trkpt>
      <trkpt lat="45.00364" lon="5.50778">
        <ele>1259</ele>
        <time>2024-07-14T08:20:50.000Z</time>
      </trkpt>
      <trkpt lat="45.00363" lon="5.50776">
        <ele>1259.1999511719</ele>
        <time>2024-07-14T08:20:51.000Z</time>
      </trkpt>
      <trkpt lat="45.00362" lon="5.50774">
        <ele>1259.4000244141</ele>
        <time>2024-07-14T08:20:52.000Z</time>
      </trkpt>
      <trkpt lat="45.00361" lon="5.50772">
        <ele>1259.4000244141</ele>
        <time>2024-07-14T08:20:53.000Z</time>
      </trkpt>
      <trkpt lat="45.0036" lon="5.50771">
        <ele>1259.5999755859</ele>
        <time>2024-07-14T08:20:54.000Z</time>
      </trkpt>
      <trkpt lat="45.00359" lon="5.50768">
        <ele>1260</ele>
        <time>2024-07-14T08:20:55.000Z</time>
      </trkpt>
      <trkpt lat="45.00359" lon="5.50766">
        <ele>1260.4000244141</ele>
        <time>2024-07-14T08:20:56.000Z</time>
      </trkpt>
      <trkpt lat="45.00358" lon="5.50763">
        <ele>1260.5999755859</ele>
        <time>2024-07-14T08:20:57.000Z</time>
      </trkpt>
      <trkpt lat="45.00358" lon="5.50762">
        <ele>1260.5999755859</ele>
        <time>2024-07-14T08:20:58.000Z</time>
      </trkpt>
      <trkpt lat="45.00358" lon="5.5076">
        <ele>1260.8000488281</ele>
        <time>2024-07-14T08:20:59.000Z</time>
      </trkpt>
      <trkpt lat="45.00357" lon="5.50757">
        <ele>1260.8000488281</ele>
        <time>2024-07-14T08:21:00.000Z</time>
      </trkpt>
      <trkpt lat="45.00358" lon="5.50755">
        <ele>1261</ele>
        <time>2024-07-14T08:21:01.000Z</time>
      </trkpt>
      <trkpt lat="45.00359" lon="5.50751">
        <ele>1261</ele>
        <time>2024-07-14T08:21:02.000Z</time>
      </trkpt>
      <trkpt lat="45.0036" lon="5.50749">
        <ele>1261</ele>
        <time>2024-07-14T08:21:03.000Z</time>
      </trkpt>
      <trkpt lat="45.00361" lon="5.50746">
        <ele>1261</ele>
        <time>2024-07-14T08:21:04.000Z</time>
      </trkpt>
      <trkpt lat="45.00363" lon="5.50743">
        <ele>1260.8000488281</ele>
        <time>2024-07-14T08:21:05.000Z</time>
      </trkpt>
      <trkpt lat="45.00364" lon="5.5074">
        <ele>1260.1999511719</ele>
        <time>2024-07-14T08:21:06.000Z</time>
      </trkpt>
      <trkpt lat="45.00366" lon="5.50738">
        <ele>1260</ele>
        <time>2024-07-14T08:21:07.000Z</time>
      </trkpt>
      <trkpt lat="45.00368" lon="5.50736">
        <ele>1260</ele>
        <time>2024-07-14T08:21:08.000Z</time>
      </trkpt>
      <trkpt lat="45.0037" lon="5.50734">
        <ele>1260</ele>
        <time>2024-07-14T08:21:09.000Z</time>
      </trkpt>
      <trkpt lat="45.00372" lon="5.50733">
        <ele>1260</ele>
        <time>2024-07-14T08:21:10.000Z</time>
      </trkpt>
      <trkpt lat="45.00374" lon="5.50733">
        <ele>1260</ele>
        <time>2024-07-14T08:21:11.000Z</time>
      </trkpt>
      <trkpt lat="45.00375" lon="5.50732">
        <ele>1260.1999511719</ele>
        <time>2024-07-14T08:21:12.000Z</time>
      </trkpt>
      <trkpt lat="45.00377" lon="5.50732">
        <ele>1260.1999511719</ele>
        <time>2024-07-14T08:21:13.000Z</time>
      </trkpt>
      <trkpt lat="45.00379" lon="5.50732">
        <ele>1260.1999511719</ele>
        <time>2024-07-14T08:21:14.000Z</time>
      </trkpt>
      <trkpt lat="45.0038" lon="5.50732">
        <ele>1260.1999511719</ele>
        <time>2024-07-14T08:21:15.000Z</time>
      </trkpt>
      <trkpt lat="45.00382" lon="5.50731">
        <ele>1260.4000244141</ele>
        <time>2024-07-14T08:21:16.000Z</time>
      </trkpt>
      <trkpt lat="45.00383" lon="5.5073">
        <ele>1260.8000488281</ele>
        <time>2024-07-14T08:21:17.000Z</time>
      </trkpt>
      <trkpt lat="45.00385" lon="5.50729">
        <ele>1261</ele>
        <time>2024-07-14T08:21:18.000Z</time>
      </trkpt>
      <trkpt lat="45.00386" lon="5.50728">
        <ele>1261.1999511719</ele>
        <time>2024-07-14T08:21:19.000Z</time>
      </trkpt>
      <trkpt lat="45.00387" lon="5.50727">
        <ele>1261.4000244141</ele>
        <time>2024-07-14T08:21:20.000Z</time>
      </trkpt>
      <trkpt lat="45.00388" lon="5.50726">
        <ele>1261.8000488281</ele>
        <time>2024-07-14T08:21:21.000Z</time>
      </trkpt>
      <trkpt lat="45.00389" lon="5.50725">
        <ele>1262</ele>
        <time>2024-07-14T08:21:22.000Z</time>
      </trkpt>
      <trkpt lat="45.00389" lon="5.50724">
        <ele>1262.4000244141</ele>
        <time>2024-07-14T08:21:23.000Z</time>
      </trkpt>
      <trkpt lat="45.00389" lon="5.50722">
        <ele>1262.5999755859</ele>
        <time>2024-07-14T08:21:24.000Z</time>
      </trkpt>
      <trkpt lat="45.00389" lon="5.5072">
        <ele>1262.8000488281</ele>
        <time>2024-07-14T08:21:25.000Z</time>
      </trkpt>
      <trkpt lat="45.00389" lon="5.50717">
        <ele>1263.1999511719</ele>
        <time>2024-07-14T08:21:26.000Z</time>
      </trkpt>
      <trkpt lat="45.0039" lon="5.50716">
        <ele>1263.4000244141</ele>
        <time>2024-07-14T08:21:27.000Z</time>
      </trkpt>
      <trkpt lat="45.0039" lon="5.50715">
        <ele>1263.5999755859</ele>
        <time>2024-07-14T08:21:28.000Z</time>
      </trkpt>
      <trkpt lat="45.0039" lon="5.50713">
        <ele>1264.1999511719</ele>
        <time>2024-07-14T08:21:29.000Z</time>
      </trkpt>
      <trkpt lat="45.00391" lon="5.50711">
        <ele>1264.5999755859</ele>
        <time>2024-07-14T08:21:30.000Z</time>
      </trkpt>
      <trkpt lat="45.00392" lon="5.50709">
        <ele>1264.8000488281</ele>
        <time>2024-07-14T08:21:31.000Z</time>
      </trkpt>
      <trkpt lat="45.00392" lon="5.50708">
        <ele>1265</ele>
        <time>2024-07-14T08:21:32.000Z</time>
      </trkpt>
      <trkpt lat="45.00392" lon="5.50708">
        <ele>1265.4000244141</ele>
        <time>2024-07-14T08:21:33.000Z</time>
      </trkpt>
      <trkpt lat="45.00392" lon="5.50706">
        <ele>1265.5999755859</ele>
        <time>2024-07-14T08:21:34.000Z</time>
      </trkpt>
      <trkpt lat="45.00393" lon="5.50704">
        <ele>1265.8000488281</ele>
        <time>2024-07-14T08:21:35.000Z</time>
      </trkpt>
      <trkpt lat="45.00394" lon="5.50702">
        <ele>1266.1999511719</ele>
        <time>2024-07-14T08:21:36.000Z</time>
      </trkpt>
      <trkpt lat="45.00394" lon="5.50701">
        <ele>1266.4000244141</ele>
        <time>2024-07-14T08:21:37.000Z</time>
      </trkpt>
      <trkpt lat="45.00394" lon="5.50699">
        <ele>1266.4000244141</ele>
        <time>2024-07-14T08:21:38.000Z</time>
      </trkpt>
      <trkpt lat="45.00394" lon="5.50698">
        <ele>1266.4000244141</ele>
        <time>2024-07-14T08:21:39.000Z</time>
      </trkpt>
      <trkpt lat="45.00394" lon="5.50696">
        <ele>1266.5999755859</ele>
        <time>2024-07-14T08:21:40.000Z</time>
      </trkpt>
      <trkpt lat="45.00395" lon="5.50694">
        <ele>1266.5999755859</ele>
        <time>2024-07-14T08:21:41.000Z</time>
      </trkpt>
      <trkpt lat="45.00395" lon="5.50692">
        <ele>1266.8000488281</ele>
        <time>2024-07-14T08:21:42.000Z</time>
      </trkpt>
      <trkpt lat="45.00395" lon="5.50691">
        <ele>1267</ele>
        <time>2024-07-14T08:21:43.000Z</time>
      </trkpt>
      <trkpt lat="45.00395" lon="5.5069">
        <ele>1267.4000244141</ele>
        <time>2024-07-14T08:21:44.000Z</time>
      </trkpt>
      <trkpt lat="45.00395" lon="5.50688">
        <ele>1267.5999755859</ele>
        <time>2024-07-14T08:21:45.000Z</time>
      </trkpt>
      <trkpt lat="45.00395" lon="5.50687">
        <ele>1267.8000488281</ele>
        <time>2024-07-14T08:21:46.000Z</time>
      </trkpt>
      <trkpt lat="45.00395" lon="5.50684">
        <ele>1268</ele>
        <time>2024-07-14T08:21:47.000Z</time>
      </trkpt>
      <trkpt lat="45.00395" lon="5.50682">
        <ele>1268</ele>
        <time>2024-07-14T08:21:48.000Z</time>
      </trkpt>
      <trkpt lat="45.00395" lon="5.50679">
        <ele>1268.1999511719</ele>
        <time>2024-07-14T08:21:49.000Z</time>
      </trkpt>
      <trkpt lat="45.00395" lon="5.50675">
        <ele>1268.4000244141</ele>
        <time>2024-07-14T08:21:50.000Z</time>
      </trkpt>
      <trkpt lat="45.00396" lon="5.50672">
        <ele>1268.4000244141</ele>
        <time>2024-07-14T08:21:51.000Z</time>
      </trkpt>
      <trkpt lat="45.00396" lon="5.50669">
        <ele>1268.4000244141</ele>
        <time>2024-07-14T08:21:52.000Z</time>
      </trkpt>
      <trkpt lat="45.00398" lon="5.50666">
        <ele>1268.4000244141</ele>
        <time>2024-07-14T08:21:53.000Z</time>
      </trkpt>
      <trkpt lat="45.00399" lon="5.50663">
        <ele>1268.4000244141</ele>
        <time>2024-07-14T08:21:54.000Z</time>
      </trkpt>
      <trkpt lat="45.00401" lon="5.50661">
        <ele>1268.1999511719</ele>
        <time>2024-07-14T08:21:55.000Z</time>
      </trkpt>
      <trkpt lat="45.00402" lon="5.50659">
        <ele>1268.1999511719</ele>
        <time>2024-07-14T08:21:56.000Z</time>
      </trkpt>
      <trkpt lat="45.00404" lon="5.50658">
        <ele>1268.1999511719</ele>
        <time>2024-07-14T08:21:57.000Z</time>
      </trkpt>
      <trkpt lat="45.00405" lon="5.50656">
        <ele>1268.1999511719</ele>
        <time>2024-07-14T08:21:58.000Z</time>
      </trkpt>
      <trkpt lat="45.00406" lon="5.50655">
        <ele>1268.1999511719</ele>
        <time>2024-07-14T08:21:59.000Z</time>
      </trkpt>
      <trkpt lat="45.00408" lon="5.50652">
        <ele>1268.4000244141</ele>
        <time>2024-07-14T08:22:00.000Z</time>
      </trkpt>
      <trkpt lat="45.00409" lon="5.5065">
        <ele>1268.4000244141</ele>
        <time>2024-07-14T08:22:01.000Z</time>
      </trkpt>
      <trkpt lat="45.0041" lon="5.50648">
        <ele>1268.5999755859</ele>
        <time>2024-07-14T08:22:02.000Z</time>
      </trkpt>
      <trkpt lat="45.00411" lon="5.50646">
        <ele>1268.8000488281</ele>
        <time>2024-07-14T08:22:03.000Z</time>
      </trkpt>
      <trkpt lat="45.00412" lon="5.50643">
        <ele>1268.8000488281</ele>
        <time>2024-07-14T08:22:04.000Z</time>
      </trkpt>
      <trkpt lat="45.00413" lon="5.50641">
        <ele>1269</ele>
        <time>2024-07-14T08:22:05.000Z</time>
      </trkpt>
      <trkpt lat="45.00414" lon="5.50639">
        <ele>1269.1999511719</ele>
        <time>2024-07-14T08:22:06.000Z</time>
      </trkpt>
      <trkpt lat="45.00415" lon="5.50637">
        <ele>1269.4000244141</ele>
        <time>2024-07-14T08:22:07.000Z</time>
      </trkpt>
      <trkpt lat="45.00415" lon="5.50634">
        <ele>1269.4000244141</ele>
        <time>2024-07-14T08:22:08.000Z</time>
      </trkpt>
      <trkpt lat="45.00416" lon="5.50633">
        <ele>1269.5999755859</ele>
        <time>2024-07-14T08:22:09.000Z</time>
      </trkpt>
      <trkpt lat="45.00417" lon="5.50631">
        <ele>1270</ele>
        <time>2024-07-14T08:22:10.000Z</time>
      </trkpt>
      <trkpt lat="45.00418" lon="5.50628">
        <ele>1270.1999511719</ele>
        <time>2024-07-14T08:22:11.000Z</time>
      </trkpt>
      <trkpt lat="45.00419" lon="5.50626">
        <ele>1270.1999511719</ele>
        <time>2024-07-14T08:22:12.000Z</time>
      </trkpt>
      <trkpt lat="45.0042" lon="5.50624">
        <ele>1270.1999511719</ele>
        <time>2024-07-14T08:22:13.000Z</time>
      </trkpt>
      <trkpt lat="45.0042" lon="5.50622">
        <ele>1270.4000244141</ele>
        <time>2024-07-14T08:22:14.000Z</time>
      </trkpt>
      <trkpt lat="45.00422" lon="5.5062">
        <ele>1270.4000244141</ele>
        <time>2024-07-14T08:22:15.000Z</time>
      </trkpt>
      <trkpt lat="45.00423" lon="5.50618">
        <ele>1270.5999755859</ele>
        <time>2024-07-14T08:22:16.000Z</time>
      </trkpt>
      <trkpt lat="45.00424" lon="5.50617">
        <ele>1270.8000488281</ele>
        <time>2024-07-14T08:22:17.000Z</time>
      </trkpt>
      <trkpt lat="45.00425" lon="5.50615">
        <ele>1270.8000488281</ele>
        <time>2024-07-14T08:22:18.000Z</time>
      </trkpt>
      <trkpt lat="45.00426" lon="5.50613">
        <ele>1270.8000488281</ele>
        <time>2024-07-14T08:22:19.000Z</time>
      </trkpt>
      <trkpt lat="45.00427" lon="5.50611">
        <ele>1271</ele>
        <time>2024-07-14T08:22:20.000Z</time>
      </trkpt>
      <trkpt lat="45.00427" lon="5.5061">
        <ele>1271</ele>
        <time>2024-07-14T08:22:21.000Z</time>
      </trkpt>
      <trkpt lat="45.00428" lon="5.50606">
        <ele>1271.4000244141</ele>
        <time>2024-07-14T08:22:22.000Z</time>
      </trkpt>
      <trkpt lat="45.00428" lon="5.50604">
        <ele>1271.5999755859</ele>
        <time>2024-07-14T08:22:23.000Z</time>
      </trkpt>
      <trkpt lat="45.00428" lon="5.50601">
        <ele>1271.5999755859</ele>
        <time>2024-07-14T08:22:24.000Z</time>
      </trkpt>
      <trkpt lat="45.00429" lon="5.50599">
        <ele>1271.8000488281</ele>
        <time>2024-07-14T08:22:25.000Z</time>
      </trkpt>
      <trkpt lat="45.00429" lon="5.50596">
        <ele>1272.1999511719</ele>
        <time>2024-07-14T08:22:26.000Z</time>
      </trkpt>
      <trkpt lat="45.00429" lon="5.50594">
        <ele>1272.5999755859</ele>
        <time>2024-07-14T08:22:27.000Z</time>
      </trkpt>
      <trkpt lat="45.00429" lon="5.50592">
        <ele>1273</ele>
        <time>2024-07-14T08:22:28.000Z</time>
      </trkpt>
      <trkpt lat="45.0043" lon="5.50589">
        <ele>1273.1999511719</ele>
        <time>2024-07-14T08:22:29.000Z</time>
      </trkpt>
      <trkpt lat="45.0043" lon="5.50586">
        <ele>1273.1999511719</ele>
        <time>2024-07-14T08:22:30.000Z</time>
      </trkpt>
      <trkpt lat="45.00431" lon="5.50584">
        <ele>1273.5999755859</ele>
        <time>2024-07-14T08:22:31.000Z</time>
      </trkpt>
      <trkpt lat="45.00431" lon="5.50583">
        <ele>1273.8000488281</ele>
        <time>2024-07-14T08:22:32.000Z</time>
      </trkpt>
      <trkpt lat="45.00432" lon="5.50581">
        <ele>1274</ele>
        <time>2024-07-14T08:22:33.000Z</time>
      </trkpt>
      <trkpt lat="45.00432" lon="5.50579">
        <ele>1274.1999511719</ele>
        <time>2024-07-14T08:22:34.000Z</time>
      </trkpt>
      <trkpt lat="45.00433" lon="5.50577">
        <ele>1274.1999511719</ele>
        <time>2024-07-14T08:22:35.000Z</time>
      </trkpt>
      <trkpt lat="45.00432" lon="5.50575">
        <ele>1274.5999755859</ele>
        <time>2024-07-14T08:22:36.000Z</time>
      </trkpt>
      <trkpt lat="45.00432" lon="5.50573">
        <ele>1274.5999755859</ele>
        <time>2024-07-14T08:22:37.000Z</time>
      </trkpt>
      <trkpt lat="45.00433" lon="5.5057">
        <ele>1274.8000488281</ele>
        <time>2024-07-14T08:22:38.000Z</time>
      </trkpt>
      <trkpt lat="45.00433" lon="5.50568">
        <ele>1275.1999511719</ele>
        <time>2024-07-14T08:22:39.000Z</time>
      </trkpt>
      <trkpt lat="45.00433" lon="5.50566">
        <ele>1275.4000244141</ele>
        <time>2024-07-14T08:22:40.000Z</time>
      </trkpt>
      <trkpt lat="45.00434" lon="5.50564">
        <ele>1275.4000244141</ele>
        <time>2024-07-14T08:22:41.000Z</time>
      </trkpt>
      <trkpt lat="45.00436" lon="5.50561">
        <ele>1275.5999755859</ele>
        <time>2024-07-14T08:22:42.000Z</time>
      </trkpt>
      <trkpt lat="45.00437" lon="5.50559">
        <ele>1275.8000488281</ele>
        <time>2024-07-14T08:22:43.000Z</time>
      </trkpt>
      <trkpt lat="45.00437" lon="5.50558">
        <ele>1276.1999511719</ele>
        <time>2024-07-14T08:22:44.000Z</time>
      </trkpt>
      <trkpt lat="45.00438" lon="5.50556">
        <ele>1276.4000244141</ele>
        <time>2024-07-14T08:22:45.000Z</time>
      </trkpt>
      <trkpt lat="45.00439" lon="5.50553">
        <ele>1276.4000244141</ele>
        <time>2024-07-14T08:22:46.000Z</time>
      </trkpt>
      <trkpt lat="45.0044" lon="5.50551">
        <ele>1276.8000488281</ele>
        <time>2024-07-14T08:22:47.000Z</time>
      </trkpt>
      <trkpt lat="45.0044" lon="5.50549">
        <ele>1276.8000488281</ele>
        <time>2024-07-14T08:22:48.000Z</time>
      </trkpt>
      <trkpt lat="45.0044" lon="5.50547">
        <ele>1277</ele>
        <time>2024-07-14T08:22:49.000Z</time>
      </trkpt>
      <trkpt lat="45.00442" lon="5.50545">
        <ele>1277.1999511719</ele>
        <time>2024-07-14T08:22:50.000Z</time>
      </trkpt>
      <trkpt lat="45.00443" lon="5.50543">
        <ele>1277.4000244141</ele>
        <time>2024-07-14T08:22:51.000Z</time>
      </trkpt>
      <trkpt lat="45.00443" lon="5.50541">
        <ele>1277.4000244141</ele>
        <time>2024-07-14T08:22:52.000Z</time>
      </trkpt>
      <trkpt lat="45.00444" lon="5.50539">
        <ele>1277.5999755859</ele>
        <time>2024-07-14T08:22:53.000Z</time>
      </trkpt>
      <trkpt lat="45.00444" lon="5.50537">
        <ele>1278</ele>
        <time>2024-07-14T08:22:54.000Z</time>
      </trkpt>
      <trkpt lat="45.00445" lon="5.50535">
        <ele>1278.1999511719</ele>
        <time>2024-07-14T08:22:55.000Z</time>
      </trkpt>
      <trkpt lat="45.00445" lon="5.50533">
        <ele>1278.4000244141</ele>
        <time>2024-07-14T08:22:56.000Z</time>
      </trkpt>
      <trkpt lat="45.00445" lon="5.50532">
        <ele>1278.8000488281</ele>
        <time>2024-07-14T08:22:57.000Z</time>
      </trkpt>
      <trkpt lat="45.00446" lon="5.50529">
        <ele>1279</ele>
        <time>2024-07-14T08:22:58.000Z</time>
      </trkpt>
      <trkpt lat="45.00447" lon="5.50527">
        <ele>1279.1999511719</ele>
        <time>2024-07-14T08:22:59.000Z</time>
      </trkpt>
      <trkpt lat="45.00448" lon="5.50526">
        <ele>1279.5999755859</ele>
        <time>2024-07-14T08:23:00.000Z</time>
      </trkpt>
      <trkpt lat="45.00449" lon="5.50524">
        <ele>1279.8000488281</ele>
        <time>2024-07-14T08:23:01.000Z</time>
      </trkpt>
      <trkpt lat="45.00451" lon="5.50522">
        <ele>1279.8000488281</ele>
        <time>2024-07-14T08:23:02.000Z</time>
      </trkpt>
      <trkpt lat="45.00453" lon="5.50521">
        <ele>1280</ele>
        <time>2024-07-14T08:23:03.000Z</time>
      </trkpt>
      <trkpt lat="45.00455" lon="5.50521">
        <ele>1280.1999511719</ele>
        <time>2024-07-14T08:23:04.000Z</time>
      </trkpt>
      <trkpt lat="45.00457" lon="5.50521">
        <ele>1280.1999511719</ele>
        <time>2024-07-14T08:23:05.000Z</time>
      </trkpt>
      <trkpt lat="45.00459" lon="5.50521">
        <ele>1280.1999511719</ele>
        <time>2024-07-14T08:23:06.000Z</time>
      </trkpt>
      <trkpt lat="45.00461" lon="5.50521">
        <ele>1280.1999511719</ele>
        <time>2024-07-14T08:23:07.000Z</time>
      </trkpt>
      <trkpt lat="45.00462" lon="5.50522">
        <ele>1280.4000244141</ele>
        <time>2024-07-14T08:23:08.000Z</time>
      </trkpt>
      <trkpt lat="45.00464" lon="5.50521">
        <ele>1280.4000244141</ele>
        <time>2024-07-14T08:23:09.000Z</time>
      </trkpt>
      <trkpt lat="45.00465" lon="5.5052">
        <ele>1280.5999755859</ele>
        <time>2024-07-14T08:23:10.000Z</time>
      </trkpt>
      <trkpt lat="45.00466" lon="5.5052">
        <ele>1280.8000488281</ele>
        <time>2024-07-14T08:23:11.000Z</time>
      </trkpt>
      <trkpt lat="45.00467" lon="5.50519">
        <ele>1281</ele>
        <time>2024-07-14T08:23:12.000Z</time>
      </trkpt>
      <trkpt lat="45.00469" lon="5.50519">
        <ele>1281.1999511719</ele>
        <time>2024-07-14T08:23:13.000Z</time>
      </trkpt>
      <trkpt lat="45.0047" lon="5.50519">
        <ele>1281.4000244141</ele>
        <time>2024-07-14T08:23:14.000Z</time>
      </trkpt>
      <trkpt lat="45.00471" lon="5.50518">
        <ele>1281.5999755859</ele>
        <time>2024-07-14T08:23:15.000Z</time>
      </trkpt>
      <trkpt lat="45.00473" lon="5.50518">
        <ele>1281.8000488281</ele>
        <time>2024-07-14T08:23:16.000Z</time>
      </trkpt>
      <trkpt lat="45.00474" lon="5.50517">
        <ele>1282</ele>
        <time>2024-07-14T08:23:17.000Z</time>
      </trkpt>
      <trkpt lat="45.00476" lon="5.50515">
        <ele>1282.4000244141</ele>
        <time>2024-07-14T08:23:18.000Z</time>
      </trkpt>
      <trkpt lat="45.00478" lon="5.50514">
        <ele>1282.4000244141</ele>
        <time>2024-07-14T08:23:19.000Z</time>
      </trkpt>
      <trkpt lat="45.00479" lon="5.50511">
        <ele>1282.4000244141</ele>
        <time>2024-07-14T08:23:20.000Z</time>
      </trkpt>
      <trkpt lat="45.00481" lon="5.5051">
        <ele>1282.5999755859</ele>
        <time>2024-07-14T08:23:21.000Z</time>
      </trkpt>
      <trkpt lat="45.00482" lon="5.50508">
        <ele>1282.5999755859</ele>
        <time>2024-07-14T08:23:22.000Z</time>
      </trkpt>
      <trkpt lat="45.00482" lon="5.50507">
        <ele>1282.8000488281</ele>
        <time>2024-07-14T08:23:23.000Z</time>
      </trkpt>
      <trkpt lat="45.00482" lon="5.50505">
        <ele>1283.1999511719</ele>
        <time>2024-07-14T08:23:24.000Z</time>
      </trkpt>
      <trkpt lat="45.00483" lon="5.50503">
        <ele>1283.4000244141</ele>
        <time>2024-07-14T08:23:25.000Z</time>
      </trkpt>
      <trkpt lat="45.00483" lon="5.50501">
        <ele>1283.5999755859</ele>
        <time>2024-07-14T08:23:26.000Z</time>
      </trkpt>
      <trkpt lat="45.00484" lon="5.50499">
        <ele>1284</ele>
        <time>2024-07-14T08:23:27.000Z</time>
      </trkpt>
      <trkpt lat="45.00484" lon="5.50498">
        <ele>1284.1999511719</ele>
        <time>2024-07-14T08:23:28.000Z</time>
      </trkpt>
      <trkpt lat="45.00485" lon="5.50496">
        <ele>1284.4000244141</ele>
        <time>2024-07-14T08:23:29.000Z</time>
      </trkpt>
      <trkpt lat="45.00486" lon="5.50496">
        <ele>1284.5999755859</ele>
        <time>2024-07-14T08:23:30.000Z</time>
      </trkpt>
      <trkpt lat="45.00487" lon="5.50494">
        <ele>1284.5999755859</ele>
        <time>2024-07-14T08:23:31.000Z</time>
      </trkpt>
      <trkpt lat="45.00488" lon="5.50493">
        <ele>1285</ele>
        <time>2024-07-14T08:23:32.000Z</time>
      </trkpt>
      <trkpt lat="45.00488" lon="5.50491">
        <ele>1285.1999511719</ele>
        <time>2024-07-14T08:23:33.000Z</time>
      </trkpt>
      <trkpt lat="45.00489" lon="5.5049">
        <ele>1285.4000244141</ele>
        <time>2024-07-14T08:23:34.000Z</time>
      </trkpt>
      <trkpt lat="45.00489" lon="5.50488">
        <ele>1285.5999755859</ele>
        <time>2024-07-14T08:23:35.000Z</time>
      </trkpt>
      <trkpt lat="45.0049" lon="5.50485">
        <ele>1285.5999755859</ele>
        <time>2024-07-14T08:23:36.000Z</time>
      </trkpt>
      <trkpt lat="45.0049" lon="5.50483">
        <ele>1285.8000488281</ele>
        <time>2024-07-14T08:23:37.000Z</time>
      </trkpt>
      <trkpt lat="45.0049" lon="5.50481">
        <ele>1286</ele>
        <time>2024-07-14T08:23:38.000Z</time>
      </trkpt>
      <trkpt lat="45.00491" lon="5.50478">
        <ele>1286.1999511719</ele>
        <time>2024-07-14T08:23:39.000Z</time>
      </trkpt>
      <trkpt lat="45.00491" lon="5.50476">
        <ele>1286.4000244141</ele>
        <time>2024-07-14T08:23:40.000Z</time>
      </trkpt>
      <trkpt lat="45.00492" lon="5.50474">
        <ele>1286.4000244141</ele>
        <time>2024-07-14T08:23:41.000Z</time>
      </trkpt>
      <trkpt lat="45.00493" lon="5.50471">
        <ele>1286.5999755859</ele>
        <time>2024-07-14T08:23:42.000Z</time>
      </trkpt>
      <trkpt lat="45.00494" lon="5.5047">
        <ele>1286.8000488281</ele>
        <time>2024-07-14T08:23:43.000Z</time>
      </trkpt>
      <trkpt lat="45.00496" lon="5.50469">
        <ele>1286.8000488281</ele>
        <time>2024-07-14T08:23:44.000Z</time>
      </trkpt>
      <trkpt lat="45.00498" lon="5.50468">
        <ele>1286.8000488281</ele>
        <time>2024-07-14T08:23:45.000Z</time>
      </trkpt>
      <trkpt lat="45.005" lon="5.50467">
        <ele>1286.8000488281</ele>
        <time>2024-07-14T08:23:46.000Z</time>
      </trkpt>
      <trkpt lat="45.00502" lon="5.50467">
        <ele>1286.1999511719</ele>
        <time>2024-07-14T08:23:47.000Z</time>
      </trkpt>
      <trkpt lat="45.00504" lon="5.50468">
        <ele>1286</ele>
        <time>2024-07-14T08:23:48.000Z</time>
      </trkpt>
      <trkpt lat="45.00506" lon="5.50468">
        <ele>1286</ele>
        <time>2024-07-14T08:23:49.000Z</time>
      </trkpt>
      <trkpt lat="45.00508" lon="5.50469">
        <ele>1285.5999755859</ele>
        <time>2024-07-14T08:23:50.000Z</time>
      </trkpt>
      <trkpt lat="45.00509" lon="5.50469">
        <ele>1285.4000244141</ele>
        <time>2024-07-14T08:23:51.000Z</time>
      </trkpt>
      <trkpt lat="45.00511" lon="5.50471">
        <ele>1285</ele>
        <time>2024-07-14T08:23:52.000Z</time>
      </trkpt>
      <trkpt lat="45.00512" lon="5.50472">
        <ele>1284.8000488281</ele>
        <time>2024-07-14T08:23:53.000Z</time>
      </trkpt>
      <trkpt lat="45.00514" lon="5.50474">
        <ele>1284.5999755859</ele>
        <time>2024-07-14T08:23:54.000Z</time>
      </trkpt>
      <trkpt lat="45.00515" lon="5.50475">
        <ele>1284.5999755859</ele>
        <time>2024-07-14T08:23:55.000Z</time>
      </trkpt>
      <trkpt lat="45.00517" lon="5.50475">
        <ele>1284.4000244141</ele>
        <time>2024-07-14T08:23:56.000Z</time>
      </trkpt>
      <trkpt lat="45.00518" lon="5.50476">
        <ele>1284.4000244141</ele>
        <time>2024-07-14T08:23:57.000Z</time>
      </trkpt>
      <trkpt lat="45.0052" lon="5.50476">
        <ele>1284.1999511719</ele>
        <time>2024-07-14T08:23:58.000Z</time>
      </trkpt>
      <trkpt lat="45.00522" lon="5.50477">
        <ele>1284.1999511719</ele>
        <time>2024-07-14T08:23:59.000Z</time>
      </trkpt>
      <trkpt lat="45.00524" lon="5.50477">
        <ele>1284</ele>
        <time>2024-07-14T08:24:00.000Z</time>
      </trkpt>
      <trkpt lat="45.00525" lon="5.50478">
        <ele>1283.8000488281</ele>
        <time>2024-07-14T08:24:01.000Z</time>
      </trkpt>
      <trkpt lat="45.00527" lon="5.50479">
        <ele>1283.5999755859</ele>
        <time>2024-07-14T08:24:02.000Z</time>
      </trkpt>
      <trkpt lat="45.00528" lon="5.50479">
        <ele>1283.4000244141</ele>
        <time>2024-07-14T08:24:03.000Z</time>
      </trkpt>
      <trkpt lat="45.0053" lon="5.5048">
        <ele>1283.1999511719</ele>
        <time>2024-07-14T08:24:04.000Z</time>
      </trkpt>
      <trkpt lat="45.00531" lon="5.50479">
        <ele>1283</ele>
        <time>2024-07-14T08:24:05.000Z</time>
      </trkpt>
      <trkpt lat="45.00533" lon="5.50479">
        <ele>1282.8000488281</ele>
        <time>2024-07-14T08:24:06.000Z</time>
      </trkpt>
      <trkpt lat="45.00534" lon="5.50479">
        <ele>1282.8000488281</ele>
        <time>2024-07-14T08:24:07.000Z</time>
      </trkpt>
      <trkpt lat="45.00535" lon="5.50477">
        <ele>1282.5999755859</ele>
        <time>2024-07-14T08:24:08.000Z</time>
      </trkpt>
      <trkpt lat="45.00537" lon="5.50477">
        <ele>1282.4000244141</ele>
        <time>2024-07-14T08:24:09.000Z</time>
      </trkpt>
      <trkpt lat="45.00539" lon="5.50477">
        <ele>1282.4000244141</ele>
        <time>2024-07-14T08:24:10.000Z</time>
      </trkpt>
      <trkpt lat="45.00541" lon="5.50477">
        <ele>1282</ele>
        <time>2024-07-14T08:24:11.000Z</time>
      </trkpt>
      <trkpt lat="45.00543" lon="5.50477">
        <ele>1281.5999755859</ele>
        <time>2024-07-14T08:24:12.000Z</time>
      </trkpt>
      <trkpt lat="45.00546" lon="5.50479">
        <ele>1281.1999511719</ele>
        <time>2024-07-14T08:24:13.000Z</time>
      </trkpt>
      <trkpt lat="45.00548" lon="5.50479">
        <ele>1281</ele>
        <time>2024-07-14T08:24:14.000Z</time>
      </trkpt>
      <trkpt lat="45.00551" lon="5.5048">
        <ele>1280.8000488281</ele>
        <time>2024-07-14T08:24:15.000Z</time>
      </trkpt>
      <trkpt lat="45.00553" lon="5.50481">
        <ele>1280.5999755859</ele>
        <time>2024-07-14T08:24:16.000Z</time>
      </trkpt>
      <trkpt lat="45.00555" lon="5.50481">
        <ele>1280.4000244141</ele>
        <time>2024-07-14T08:24:17.000Z</time>
      </trkpt>
      <trkpt lat="45.00557" lon="5.50482">
        <ele>1280.1999511719</ele>
        <time>2024-07-14T08:24:18.000Z</time>
      </trkpt>
      <trkpt lat="45.00559" lon="5.50483">
        <ele>1280.1999511719</ele>
        <time>2024-07-14T08:24:19.000Z</time>
      </trkpt>
      <trkpt lat="45.00562" lon="5.50483">
        <ele>1280</ele>
        <time>2024-07-14T08:24:20.000Z</time>
      </trkpt>
      <trkpt lat="45.00565" lon="5.50483">
        <ele>1279.8000488281</ele>
        <time>2024-07-14T08:24:21.000Z</time>
      </trkpt>
      <trkpt lat="45.00567" lon="5.50484">
        <ele>1279.5999755859</ele>
        <time>2024-07-14T08:24:22.000Z</time>
      </trkpt>
      <trkpt lat="45.00569" lon="5.50484">
        <ele>1279.5999755859</ele>
        <time>2024-07-14T08:24:23.000Z</time>
      </trkpt>
      <trkpt lat="45.00571" lon="5.50485">
        <ele>1279.5999755859</ele>
        <time>2024-07-14T08:24:24.000Z</time>
      </trkpt>
      <trkpt lat="45.00573" lon="5.50485">
        <ele>1279.5999755859</ele>
        <time>2024-07-14T08:24:25.000Z</time>
      </trkpt>
      <trkpt lat="45.00575" lon="5.50486">
        <ele>1279.5999755859</ele>
        <time>2024-07-14T08:24:26.000Z</time>
      </trkpt>
      <trkpt lat="45.00577" lon="5.50487">
        <ele>1279.5999755859</ele>
        <time>2024-07-14T08:24:27.000Z</time>
      </trkpt>
      <trkpt lat="45.00579" lon="5.50488">
        <ele>1279.5999755859</ele>
        <time>2024-07-14T08:24:28.000Z</time>
      </trkpt>
      <trkpt lat="45.00581" lon="5.5049">
        <ele>1279.5999755859</ele>
        <time>2024-07-14T08:24:29.000Z</time>
      </trkpt>
      <trkpt lat="45.00583" lon="5.5049">
        <ele>1279.4000244141</ele>
        <time>2024-07-14T08:24:30.000Z</time>
      </trkpt>
      <trkpt lat="45.00586" lon="5.50491">
        <ele>1279.4000244141</ele>
        <time>2024-07-14T08:24:31.000Z</time>
      </trkpt>
      <trkpt lat="45.00588" lon="5.50491">
        <ele>1279</ele>
        <time>2024-07-14T08:24:32.000Z</time>
      </trkpt>
      <trkpt lat="45.0059" lon="5.50491">
        <ele>1279</ele>
        <time>2024-07-14T08:24:33.000Z</time>
      </trkpt>
      <trkpt lat="45.00591" lon="5.50492">
        <ele>1278.5999755859</ele>
        <time>2024-07-14T08:24:34.000Z</time>
      </trkpt>
      <trkpt lat="45.00593" lon="5.50492">
        <ele>1278.5999755859</ele>
        <time>2024-07-14T08:24:35.000Z</time>
      </trkpt>
      <trkpt lat="45.00595" lon="5.50493">
        <ele>1278.5999755859</ele>
        <time>2024-07-14T08:24:36.000Z</time>
      </trkpt>
      <trkpt lat="45.00596" lon="5.50495">
        <ele>1278.4000244141</ele>
        <time>2024-07-14T08:24:37.000Z</time>
      </trkpt>
      <trkpt lat="45.00598" lon="5.50496">
        <ele>1278.4000244141</ele>
        <time>2024-07-14T08:24:38.000Z</time>
      </trkpt>
      <trkpt lat="45.00599" lon="5.50499">
        <ele>1278.1999511719</ele>
        <time>2024-07-14T08:24:39.000Z</time>
      </trkpt>
      <trkpt lat="45.00601" lon="5.505">
        <ele>1277.8000488281</ele>
        <time>2024-07-14T08:24:40.000Z</time>
      </trkpt>
      <trkpt lat="45.00602" lon="5.50502">
        <ele>1277.4000244141</ele>
        <time>2024-07-14T08:24:41.000Z</time>
      </trkpt>
      <trkpt lat="45.00604" lon="5.50503">
        <ele>1277.4000244141</ele>
        <time>2024-07-14T08:24:42.000Z</time>
      </trkpt>
      <trkpt lat="45.00606" lon="5.50503">
        <ele>1277.1999511719</ele>
        <time>2024-07-14T08:24:43.000Z</time>
      </trkpt>
      <trkpt lat="45.00608" lon="5.50503">
        <ele>1277</ele>
        <time>2024-07-14T08:24:44.000Z</time>
      </trkpt>
      <trkpt lat="45.0061" lon="5.50503">
        <ele>1276.8000488281</ele>
        <time>2024-07-14T08:24:45.000Z</time>
      </trkpt>
      <trkpt lat="45.00612" lon="5.50502">
        <ele>1276.5999755859</ele>
        <time>2024-07-14T08:24:46.000Z</time>
      </trkpt>
      <trkpt lat="45.00614" lon="5.50501">
        <ele>1276.5999755859</ele>
        <time>2024-07-14T08:24:47.000Z</time>
      </trkpt>
      <trkpt lat="45.00616" lon="5.50499">
        <ele>1276.4000244141</ele>
        <time>2024-07-14T08:24:48.000Z</time>
      </trkpt>
      <trkpt lat="45.00618" lon="5.50498">
        <ele>1276.1999511719</ele>
        <time>2024-07-14T08:24:49.000Z</time>
      </trkpt>
      <trkpt lat="45.00619" lon="5.50495">
        <ele>1276</ele>
        <time>2024-07-14T08:24:50.000Z</time>
      </trkpt>
      <trkpt lat="45.00621" lon="5.50493">
        <ele>1275.8000488281</ele>
        <time>2024-07-14T08:24:51.000Z</time>
      </trkpt>
      <trkpt lat="45.00623" lon="5.50491">
        <ele>1275.5999755859</ele>
        <time>2024-07-14T08:24:52.000Z</time>
      </trkpt>
      <trkpt lat="45.00625" lon="5.50489">
        <ele>1275.5999755859</ele>
        <time>2024-07-14T08:24:53.000Z</time>
      </trkpt>
      <trkpt lat="45.00626" lon="5.50488">
        <ele>1275.1999511719</ele>
        <time>2024-07-14T08:24:54.000Z</time>
      </trkpt>
      <trkpt lat="45.00629" lon="5.50488">
        <ele>1275.1999511719</ele>
        <time>2024-07-14T08:24:55.000Z</time>
      </trkpt>
      <trkpt lat="45.00631" lon="5.50487">
        <ele>1275</ele>
        <time>2024-07-14T08:24:56.000Z</time>
      </trkpt>
      <trkpt lat="45.00633" lon="5.50487">
        <ele>1275</ele>
        <time>2024-07-14T08:24:57.000Z</time>
      </trkpt>
      <trkpt lat="45.00636" lon="5.50486">
        <ele>1275</ele>
        <time>2024-07-14T08:24:58.000Z</time>
      </trkpt>
      <trkpt lat="45.00638" lon="5.50486">
        <ele>1274.8000488281</ele>
        <time>2024-07-14T08:24:59.000Z</time>
      </trkpt>
      <trkpt lat="45.00641" lon="5.50486">
        <ele>1274.8000488281</ele>
        <time>2024-07-14T08:25:00.000Z</time>
      </trkpt>
      <trkpt lat="45.00644" lon="5.50486">
        <ele>1274.5999755859</ele>
        <time>2024-07-14T08:25:01.000Z</time>
      </trkpt>
      <trkpt lat="45.00646" lon="5.50486">
        <ele>1274.4000244141</ele>
        <time>2024-07-14T08:25:02.000Z</time>
      </trkpt>
      <trkpt lat="45.00649" lon="5.50486">
        <ele>1274.4000244141</ele>
        <time>2024-07-14T08:25:03.000Z</time>
      </trkpt>
      <trkpt lat="45.00651" lon="5.50487">
        <ele>1274.4000244141</ele>
        <time>2024-07-14T08:25:04.000Z</time>
      </trkpt>
      <trkpt lat="45.00653" lon="5.50487">
        <ele>1274.4000244141</ele>
        <time>2024-07-14T08:25:05.000Z</time>
      </trkpt>
      <trkpt lat="45.00655" lon="5.50488">
        <ele>1274.1999511719</ele>
        <time>2024-07-14T08:25:06.000Z</time>
      </trkpt>
      <trkpt lat="45.00658" lon="5.50488">
        <ele>1274.4000244141</ele>
        <time>2024-07-14T08:25:07.000Z</time>
      </trkpt>
      <trkpt lat="45.0066" lon="5.50488">
        <ele>1274.1999511719</ele>
        <time>2024-07-14T08:25:08.000Z</time>
      </trkpt>
      <trkpt lat="45.00662" lon="5.50488">
        <ele>1274.1999511719</ele>
        <time>2024-07-14T08:25:09.000Z</time>
      </trkpt>
      <trkpt lat="45.00664" lon="5.50489">
        <ele>1274.1999511719</ele>
        <time>2024-07-14T08:25:10.000Z</time>
      </trkpt>
      <trkpt lat="45.00666" lon="5.50489">
        <ele>1274.1999511719</ele>
        <time>2024-07-14T08:25:11.000Z</time>
      </trkpt>
      <trkpt lat="45.00668" lon="5.50489">
        <ele>1274.1999511719</ele>
        <time>2024-07-14T08:25:12.000Z</time>
      </trkpt>
      <trkpt lat="45.0067" lon="5.50489">
        <ele>1274.1999511719</ele>
        <time>2024-07-14T08:25:13.000Z</time>
      </trkpt>
      <trkpt lat="45.00672" lon="5.50489">
        <ele>1274.1999511719</ele>
        <time>2024-07-14T08:25:14.000Z</time>
      </trkpt>
      <trkpt lat="45.00674" lon="5.50489">
        <ele>1274.1999511719</ele>
        <time>2024-07-14T08:25:15.000Z</time>
      </trkpt>
      <trkpt lat="45.00677" lon="5.5049">
        <ele>1274.1999511719</ele>
        <time>2024-07-14T08:25:16.000Z</time>
      </trkpt>
      <trkpt lat="45.0068" lon="5.5049">
        <ele>1274.1999511719</ele>
        <time>2024-07-14T08:25:17.000Z</time>
      </trkpt>
      <trkpt lat="45.00683" lon="5.5049">
        <ele>1274.1999511719</ele>
        <time>2024-07-14T08:25:18.000Z</time>
      </trkpt>
      <trkpt lat="45.00685" lon="5.50491">
        <ele>1274.1999511719</ele>
        <time>2024-07-14T08:25:19.000Z</time>
      </trkpt>
      <trkpt lat="45.00688" lon="5.50492">
        <ele>1274.1999511719</ele>
        <time>2024-07-14T08:25:20.000Z</time>
      </trkpt>
      <trkpt lat="45.0069" lon="5.50492">
        <ele>1274.1999511719</ele>
        <time>2024-07-14T08:25:21.000Z</time>
      </trkpt>
      <trkpt lat="45.00693" lon="5.50492">
        <ele>1274.1999511719</ele>
        <time>2024-07-14T08:25:22.000Z</time>
      </trkpt>
      <trkpt lat="45.00696" lon="5.50492">
        <ele>1274.1999511719</ele>
        <time>2024-07-14T08:25:23.000Z</time>
      </trkpt>
      <trkpt lat="45.00699" lon="5.50493">
        <ele>1274</ele>
        <time>2024-07-14T08:25:24.000Z</time>
      </trkpt>
      <trkpt lat="45.00702" lon="5.50492">
        <ele>1274</ele>
        <time>2024-07-14T08:25:25.000Z</time>
      </trkpt>
      <trkpt lat="45.00705" lon="5.50492">
        <ele>1274</ele>
        <time>2024-07-14T08:25:26.000Z</time>
      </trkpt>
      <trkpt lat="45.00707" lon="5.50492">
        <ele>1273.8000488281</ele>
        <time>2024-07-14T08:25:27.000Z</time>
      </trkpt>
      <trkpt lat="45.00709" lon="5.50491">
        <ele>1273.8000488281</ele>
        <time>2024-07-14T08:25:28.000Z</time>
      </trkpt>
      <trkpt lat="45.00711" lon="5.50491">
        <ele>1273.8000488281</ele>
        <time>2024-07-14T08:25:29.000Z</time>
      </trkpt>
      <trkpt lat="45.00713" lon="5.5049">
        <ele>1274</ele>
        <time>2024-07-14T08:25:30.000Z</time>
      </trkpt>
      <trkpt lat="45.00715" lon="5.50489">
        <ele>1274</ele>
        <time>2024-07-14T08:25:31.000Z</time>
      </trkpt>
      <trkpt lat="45.00717" lon="5.50488">
        <ele>1274</ele>
        <time>2024-07-14T08:25:32.000Z</time>
      </trkpt>
      <trkpt lat="45.00719" lon="5.50488">
        <ele>1274.4000244141</ele>
        <time>2024-07-14T08:25:33.000Z</time>
      </trkpt>
      <trkpt lat="45.00721" lon="5.50487">
        <ele>1274.4000244141</ele>
        <time>2024-07-14T08:25:34.000Z</time>
      </trkpt>
      <trkpt lat="45.00724" lon="5.50487">
        <ele>1274.5999755859</ele>
        <time>2024-07-14T08:25:35.000Z</time>
      </trkpt>
      <trkpt lat="45.00727" lon="5.50487">
        <ele>1274.5999755859</ele>
        <time>2024-07-14T08:25:36.000Z</time>
      </trkpt>
      <trkpt lat="45.0073" lon="5.50486">
        <ele>1274.5999755859</ele>
        <time>2024-07-14T08:25:37.000Z</time>
      </trkpt>
      <trkpt lat="45.00732" lon="5.50486">
        <ele>1274.5999755859</ele>
        <time>2024-07-14T08:25:38.000Z</time>
      </trkpt>
      <trkpt lat="45.00735" lon="5.50486">
        <ele>1274.8000488281</ele>
        <time>2024-07-14T08:25:39.000Z</time>
      </trkpt>
      <trkpt lat="45.00738" lon="5.50486">
        <ele>1274.5999755859</ele>
        <time>2024-07-14T08:25:40.000Z</time>
      </trkpt>
      <trkpt lat="45.0074" lon="5.50485">
        <ele>1274.5999755859</ele>
        <time>2024-07-14T08:25:41.000Z</time>
      </trkpt>
      <trkpt lat="45.00742" lon="5.50485">
        <ele>1274.5999755859</ele>
        <time>2024-07-14T08:25:42.000Z</time>
      </trkpt>
      <trkpt lat="45.00744" lon="5.50484">
        <ele>1274.5999755859</ele>
        <time>2024-07-14T08:25:43.000Z</time>
      </trkpt>
      <trkpt lat="45.00747" lon="5.50484">
        <ele>1274.5999755859</ele>
        <time>2024-07-14T08:25:44.000Z</time>
      </trkpt>
      <trkpt lat="45.00749" lon="5.50484">
        <ele>1274.8000488281</ele>
        <time>2024-07-14T08:25:45.000Z</time>
      </trkpt>
      <trkpt lat="45.00752" lon="5.50484">
        <ele>1274.8000488281</ele>
        <time>2024-07-14T08:25:46.000Z</time>
      </trkpt>
      <trkpt lat="45.00754" lon="5.50484">
        <ele>1274.8000488281</ele>
        <time>2024-07-14T08:25:47.000Z</time>
      </trkpt>
      <trkpt lat="45.00756" lon="5.50483">
        <ele>1274.8000488281</ele>
        <time>2024-07-14T08:25:48.000Z</time>
      </trkpt>
      <trkpt lat="45.00758" lon="5.50481">
        <ele>1274.8000488281</ele>
        <time>2024-07-14T08:25:49.000Z</time>
      </trkpt>
      <trkpt lat="45.00758" lon="5.50479">
        <ele>1274.8000488281</ele>
        <time>2024-07-14T08:25:50.000Z</time>
      </trkpt>
      <trkpt lat="45.00757" lon="5.50478">
        <ele>1274.8000488281</ele>
        <time>2024-07-14T08:25:51.000Z</time>
      </trkpt>
      <trkpt lat="45.00755" lon="5.50477">
        <ele>1274.8000488281</ele>
        <time>2024-07-14T08:25:52.000Z</time>
      </trkpt>
      <trkpt lat="45.00754" lon="5.50476">
        <ele>1274.8000488281</ele>
        <time>2024-07-14T08:25:53.000Z</time>
      </trkpt>
      <trkpt lat="45.00752" lon="5.50475">
        <ele>1274.8000488281</ele>
        <time>2024-07-14T08:25:54.000Z</time>
      </trkpt>
      <trkpt lat="45.0075" lon="5.50474">
        <ele>1275</ele>
        <time>2024-07-14T08:25:55.000Z</time>
      </trkpt>
      <trkpt lat="45.00749" lon="5.50472">
        <ele>1275</ele>
        <time>2024-07-14T08:25:56.000Z</time>
      </trkpt>
      <trkpt lat="45.00748" lon="5.5047">
        <ele>1275.1999511719</ele>
        <time>2024-07-14T08:25:57.000Z</time>
      </trkpt>
      <trkpt lat="45.00748" lon="5.50467">
        <ele>1275.4000244141</ele>
        <time>2024-07-14T08:25:58.000Z</time>
      </trkpt>
      <trkpt lat="45.00748" lon="5.50466">
        <ele>1275.5999755859</ele>
        <time>2024-07-14T08:25:59.000Z</time>
      </trkpt>
      <trkpt lat="45.00747" lon="5.50464">
        <ele>1276</ele>
        <time>2024-07-14T08:26:00.000Z</time>
      </trkpt>
      <trkpt lat="45.00746" lon="5.50462">
        <ele>1276.4000244141</ele>
        <time>2024-07-14T08:26:01.000Z</time>
      </trkpt>
      <trkpt lat="45.00745" lon="5.50461">
        <ele>1276.8000488281</ele>
        <time>2024-07-14T08:26:02.000Z</time>
      </trkpt>
      <trkpt lat="45.00745" lon="5.5046">
        <ele>1277</ele>
        <time>2024-07-14T08:26:03.000Z</time>
      </trkpt>
      <trkpt lat="45.00744" lon="5.50458">
        <ele>1277.4000244141</ele>
        <time>2024-07-14T08:26:04.000Z</time>
      </trkpt>
      <trkpt lat="45.00743" lon="5.50456">
        <ele>1277.5999755859</ele>
        <time>2024-07-14T08:26:05.000Z</time>
      </trkpt>
      <trkpt lat="45.00742" lon="5.50454">
        <ele>1277.8000488281</ele>
        <time>2024-07-14T08:26:06.000Z</time>
      </trkpt>
      <trkpt lat="45.00741" lon="5.50452">
        <ele>1278.1999511719</ele>
        <time>2024-07-14T08:26:07.000Z</time>
      </trkpt>
      <trkpt lat="45.00741" lon="5.50449">
        <ele>1278.1999511719</ele>
        <time>2024-07-14T08:26:08.000Z</time>
      </trkpt>
      <trkpt lat="45.00741" lon="5.50447">
        <ele>1278.4000244141</ele>
        <time>2024-07-14T08:26:09.000Z</time>
      </trkpt>
      <trkpt lat="45.00742" lon="5.50445">
        <ele>1278.4000244141</ele>
        <time>2024-07-14T08:26:10.000Z</time>
      </trkpt>
      <trkpt lat="45.00742" lon="5.50443">
        <ele>1278.4000244141</ele>
        <time>2024-07-14T08:26:11.000Z</time>
      </trkpt>
      <trkpt lat="45.00743" lon="5.50441">
        <ele>1278.5999755859</ele>
        <time>2024-07-14T08:26:12.000Z</time>
      </trkpt>
      <trkpt lat="45.00744" lon="5.50438">
        <ele>1279</ele>
        <time>2024-07-14T08:26:13.000Z</time>
      </trkpt>
      <trkpt lat="45.00744" lon="5.50436">
        <ele>1279.1999511719</ele>
        <time>2024-07-14T08:26:14.000Z</time>
      </trkpt>
      <trkpt lat="45.00744" lon="5.50435">
        <ele>1279.4000244141</ele>
        <time>2024-07-14T08:26:15.000Z</time>
      </trkpt>
      <trkpt lat="45.00745" lon="5.50433">
        <ele>1279.5999755859</ele>
        <time>2024-07-14T08:26:16.000Z</time>
      </trkpt>
      <trkpt lat="45.00745" lon="5.50431">
        <ele>1279.8000488281</ele>
        <time>2024-07-14T08:26:17.000Z</time>
      </trkpt>
      <trkpt lat="45.00745" lon="5.50429">
        <ele>1280.1999511719</ele>
        <time>2024-07-14T08:26:18.000Z</time>
      </trkpt>
      <trkpt lat="45.00745" lon="5.50428">
        <ele>1280.4000244141</ele>
        <time>2024-07-14T08:26:19.000Z</time>
      </trkpt>
      <trkpt lat="45.00744" lon="5.50426">
        <ele>1280.5999755859</ele>
        <time>2024-07-14T08:26:20.000Z</time>
      </trkpt>
      <trkpt lat="45.00745" lon="5.50425">
        <ele>1280.8000488281</ele>
        <time>2024-07-14T08:26:21.000Z</time>
      </trkpt>
      <trkpt lat="45.00745" lon="5.50423">
        <ele>1281</ele>
        <time>2024-07-14T08:26:22.000Z</time>
      </trkpt>
      <trkpt lat="45.00745" lon="5.50421">
        <ele>1281.4000244141</ele>
        <time>2024-07-14T08:26:23.000Z</time>
      </trkpt>
      <trkpt lat="45.00745" lon="5.5042">
        <ele>1281.5999755859</ele>
        <time>2024-07-14T08:26:24.000Z</time>
      </trkpt>
      <trkpt lat="45.00745" lon="5.50418">
        <ele>1281.8000488281</ele>
        <time>2024-07-14T08:26:25.000Z</time>
      </trkpt>
      <trkpt lat="45.00745" lon="5.50417">
        <ele>1282</ele>
        <time>2024-07-14T08:26:26.000Z</time>
      </trkpt>
      <trkpt lat="45.00746" lon="5.50416">
        <ele>1282.4000244141</ele>
        <time>2024-07-14T08:26:27.000Z</time>
      </trkpt>
      <trkpt lat="45.00746" lon="5.50415">
        <ele>1282.8000488281</ele>
        <time>2024-07-14T08:26:28.000Z</time>
      </trkpt>
      <trkpt lat="45.00747" lon="5.50413">
        <ele>1283</ele>
        <time>2024-07-14T08:26:29.000Z</time>
      </trkpt>
      <trkpt lat="45.00748" lon="5.50412">
        <ele>1283.4000244141</ele>
        <time>2024-07-14T08:26:30.000Z</time>
      </trkpt>
      <trkpt lat="45.00749" lon="5.5041">
        <ele>1283.8000488281</ele>
        <time>2024-07-14T08:26:31.000Z</time>
      </trkpt>
      <trkpt lat="45.0075" lon="5.50408">
        <ele>1284</ele>
        <time>2024-07-14T08:26:32.000Z</time>
      </trkpt>
      <trkpt lat="45.00751" lon="5.50408">
        <ele>1284.1999511719</ele>
        <time>2024-07-14T08:26:33.000Z</time>
      </trkpt>
      <trkpt lat="45.00752" lon="5.50407">
        <ele>1284.5999755859</ele>
        <time>2024-07-14T08:26:34.000Z</time>
      </trkpt>
      <trkpt lat="45.00753" lon="5.50406">
        <ele>1284.8000488281</ele>
        <time>2024-07-14T08:26:35.000Z</time>
      </trkpt>
      <trkpt lat="45.00754" lon="5.50405">
        <ele>1285.1999511719</ele>
        <time>2024-07-14T08:26:36.000Z</time>
      </trkpt>
      <trkpt lat="45.00755" lon="5.50405">
        <ele>1285.4000244141</ele>
        <time>2024-07-14T08:26:37.000Z</time>
      </trkpt>
      <trkpt lat="45.00756" lon="5.50404">
        <ele>1285.5999755859</ele>
        <time>2024-07-14T08:26:38.000Z</time>
      </trkpt>
      <trkpt lat="45.00757" lon="5.50403">
        <ele>1285.8000488281</ele>
        <time>2024-07-14T08:26:39.000Z</time>
      </trkpt>
      <trkpt lat="45.00758" lon="5.50402">
        <ele>1286</ele>
        <time>2024-07-14T08:26:40.000Z</time>
      </trkpt>
      <trkpt lat="45.0076" lon="5.50402">
        <ele>1286</ele>
        <time>2024-07-14T08:26:41.000Z</time>
      </trkpt>
      <trkpt lat="45.00762" lon="5.50401">
        <ele>1286.1999511719</ele>
        <time>2024-07-14T08:26:42.000Z</time>
      </trkpt>
      <trkpt lat="45.00763" lon="5.50401">
        <ele>1286.4000244141</ele>
        <time>2024-07-14T08:26:43.000Z</time>
      </trkpt>
      <trkpt lat="45.00764" lon="5.50401">
        <ele>1286.4000244141</ele>
        <time>2024-07-14T08:26:44.000Z</time>
      </trkpt>
      <trkpt lat="45.00765" lon="5.504">
        <ele>1286.4000244141</ele>
        <time>2024-07-14T08:26:45.000Z</time>
      </trkpt>
      <trkpt lat="45.00767" lon="5.50399">
        <ele>1286.5999755859</ele>
        <time>2024-07-14T08:26:46.000Z</time>
      </trkpt>
      <trkpt lat="45.00769" lon="5.50398">
        <ele>1286.5999755859</ele>
        <time>2024-07-14T08:26:47.000Z</time>
      </trkpt>
      <trkpt lat="45.00771" lon="5.50397">
        <ele>1286.5999755859</ele>
        <time>2024-07-14T08:26:48.000Z</time>
      </trkpt>
      <trkpt lat="45.00773" lon="5.50398">
        <ele>1286.5999755859</ele>
        <time>2024-07-14T08:26:49.000Z</time>
      </trkpt>
      <trkpt lat="45.00775" lon="5.50397">
        <ele>1286.8000488281</ele>
        <time>2024-07-14T08:26:50.000Z</time>
      </trkpt>
      <trkpt lat="45.00778" lon="5.50397">
        <ele>1286.8000488281</ele>
        <time>2024-07-14T08:26:51.000Z</time>
      </trkpt>
      <trkpt lat="45.0078" lon="5.50397">
        <ele>1286.5999755859</ele>
        <time>2024-07-14T08:26:52.000Z</time>
      </trkpt>
      <trkpt lat="45.00783" lon="5.50397">
        <ele>1286.5999755859</ele>
        <time>2024-07-14T08:26:53.000Z</time>
      </trkpt>
      <trkpt lat="45.00785" lon="5.50397">
        <ele>1286.5999755859</ele>
        <time>2024-07-14T08:26:54.000Z</time>
      </trkpt>
      <trkpt lat="45.00787" lon="5.50396">
        <ele>1286.5999755859</ele>
        <time>2024-07-14T08:26:55.000Z</time>
      </trkpt>
      <trkpt lat="45.00788" lon="5.50396">
        <ele>1286.5999755859</ele>
        <time>2024-07-14T08:26:56.000Z</time>
      </trkpt>
      <trkpt lat="45.0079" lon="5.50395">
        <ele>1286.5999755859</ele>
        <time>2024-07-14T08:26:57.000Z</time>
      </trkpt>
      <trkpt lat="45.00792" lon="5.50394">
        <ele>1286.5999755859</ele>
        <time>2024-07-14T08:26:58.000Z</time>
      </trkpt>
      <trkpt lat="45.00794" lon="5.50393">
        <ele>1286.5999755859</ele>
        <time>2024-07-14T08:26:59.000Z</time>
      </trkpt>
      <trkpt lat="45.00796" lon="5.50392">
        <ele>1286.5999755859</ele>
        <time>2024-07-14T08:27:00.000Z</time>
      </trkpt>
      <trkpt lat="45.00798" lon="5.50392">
        <ele>1286.8000488281</ele>
        <time>2024-07-14T08:27:01.000Z</time>
      </trkpt>
      <trkpt lat="45.00801" lon="5.50392">
        <ele>1286.8000488281</ele>
        <time>2024-07-14T08:27:02.000Z</time>
      </trkpt>
      <trkpt lat="45.00803" lon="5.50392">
        <ele>1286.8000488281</ele>
        <time>2024-07-14T08:27:03.000Z</time>
      </trkpt>
      <trkpt lat="45.00805" lon="5.50391">
        <ele>1286.8000488281</ele>
        <time>2024-07-14T08:27:04.000Z</time>
      </trkpt>
      <trkpt lat="45.00807" lon="5.5039">
        <ele>1286.8000488281</ele>
        <time>2024-07-14T08:27:05.000Z</time>
      </trkpt>
      <trkpt lat="45.00808" lon="5.50389">
        <ele>1287</ele>
        <time>2024-07-14T08:27:06.000Z</time>
      </trkpt>
      <trkpt lat="45.0081" lon="5.50388">
        <ele>1287</ele>
        <time>2024-07-14T08:27:07.000Z</time>
      </trkpt>
      <trkpt lat="45.00812" lon="5.50386">
        <ele>1287</ele>
        <time>2024-07-14T08:27:08.000Z</time>
      </trkpt>
      <trkpt lat="45.00813" lon="5.50384">
        <ele>1287.1999511719</ele>
        <time>2024-07-14T08:27:09.000Z</time>
      </trkpt>
      <trkpt lat="45.00815" lon="5.50382">
        <ele>1287.1999511719</ele>
        <time>2024-07-14T08:27:10.000Z</time>
      </trkpt>
      <trkpt lat="45.00817" lon="5.5038">
        <ele>1287.1999511719</ele>
        <time>2024-07-14T08:27:11.000Z</time>
      </trkpt>
      <trkpt lat="45.00818" lon="5.50378">
        <ele>1287.1999511719</ele>
        <time>2024-07-14T08:27:12.000Z</time>
      </trkpt>
      <trkpt lat="45.0082" lon="5.50375">
        <ele>1287</ele>
        <time>2024-07-14T08:27:13.000Z</time>
      </trkpt>
      <trkpt lat="45.00822" lon="5.50373">
        <ele>1287</ele>
        <time>2024-07-14T08:27:14.000Z</time>
      </trkpt>
      <trkpt lat="45.00823" lon="5.50371">
        <ele>1287</ele>
        <time>2024-07-14T08:27:15.000Z</time>
      </trkpt>
      <trkpt lat="45.00824" lon="5.50369">
        <ele>1287</ele>
        <time>2024-07-14T08:27:16.000Z</time>
      </trkpt>
      <trkpt lat="45.00826" lon="5.50367">
        <ele>1287</ele>
        <time>2024-07-14T08:27:17.000Z</time>
      </trkpt>
      <trkpt lat="45.00827" lon="5.50365">
        <ele>1287</ele>
        <time>2024-07-14T08:27:18.000Z</time>
      </trkpt>
      <trkpt lat="45.00829" lon="5.50364">
        <ele>1287</ele>
        <time>2024-07-14T08:27:19.000Z</time>
      </trkpt>
      <trkpt lat="45.00831" lon="5.50362">
        <ele>1287.4000244141</ele>
        <time>2024-07-14T08:27:20.000Z</time>
      </trkpt>
      <trkpt lat="45.00832" lon="5.50361">
        <ele>1287.4000244141</ele>
        <time>2024-07-14T08:27:21.000Z</time>
      </trkpt>
      <trkpt lat="45.00833" lon="5.5036">
        <ele>1287.5999755859</ele>
        <time>2024-07-14T08:27:22.000Z</time>
      </trkpt>
      <trkpt lat="45.00835" lon="5.50359">
        <ele>1287.8000488281</ele>
        <time>2024-07-14T08:27:23.000Z</time>
      </trkpt>
      <trkpt lat="45.00837" lon="5.50358">
        <ele>1288.1999511719</ele>
        <time>2024-07-14T08:27:24.000Z</time>
      </trkpt>
      <trkpt lat="45.00838" lon="5.50357">
        <ele>1288.4000244141</ele>
        <time>2024-07-14T08:27:25.000Z</time>
      </trkpt>
      <trkpt lat="45.0084" lon="5.50357">
        <ele>1288.5999755859</ele>
        <time>2024-07-14T08:27:26.000Z</time>
      </trkpt>
      <trkpt lat="45.00841" lon="5.50357">
        <ele>1288.8000488281</ele>
        <time>2024-07-14T08:27:27.000Z</time>
      </trkpt>
      <trkpt lat="45.00843" lon="5.50357">
        <ele>1289</ele>
        <time>2024-07-14T08:27:28.000Z</time>
      </trkpt>
      <trkpt lat="45.00844" lon="5.50357">
        <ele>1289.1999511719</ele>
        <time>2024-07-14T08:27:29.000Z</time>
      </trkpt>
      <trkpt lat="45.00846" lon="5.50357">
        <ele>1289.1999511719</ele>
        <time>2024-07-14T08:27:30.000Z</time>
      </trkpt>
      <trkpt lat="45.00848" lon="5.50356">
        <ele>1289.4000244141</ele>
        <time>2024-07-14T08:27:31.000Z</time>
      </trkpt>
      <trkpt lat="45.0085" lon="5.50355">
        <ele>1289.4000244141</ele>
        <time>2024-07-14T08:27:32.000Z</time>
      </trkpt>
      <trkpt lat="45.00852" lon="5.50355">
        <ele>1289.5999755859</ele>
        <time>2024-07-14T08:27:33.000Z</time>
      </trkpt>
      <trkpt lat="45.00853" lon="5.50354">
        <ele>1290</ele>
        <time>2024-07-14T08:27:34.000Z</time>
      </trkpt>
      <trkpt lat="45.00855" lon="5.50353">
        <ele>1290.1999511719</ele>
        <time>2024-07-14T08:27:35.000Z</time>
      </trkpt>
      <trkpt lat="45.00856" lon="5.50352">
        <ele>1290.4000244141</ele>
        <time>2024-07-14T08:27:36.000Z</time>
      </trkpt>
      <trkpt lat="45.00857" lon="5.50351">
        <ele>1290.5999755859</ele>
        <time>2024-07-14T08:27:37.000Z</time>
      </trkpt>
      <trkpt lat="45.00858" lon="5.50349">
        <ele>1290.5999755859</ele>
        <time>2024-07-14T08:27:38.000Z</time>
      </trkpt>
      <trkpt lat="45.00859" lon="5.50348">
        <ele>1290.8000488281</ele>
        <time>2024-07-14T08:27:39.000Z</time>
      </trkpt>
      <trkpt lat="45.00861" lon="5.50346">
        <ele>1291</ele>
        <time>2024-07-14T08:27:40.000Z</time>
      </trkpt>
      <trkpt lat="45.00863" lon="5.50345">
        <ele>1291.1999511719</ele>
        <time>2024-07-14T08:27:41.000Z</time>
      </trkpt>
      <trkpt lat="45.00864" lon="5.50344">
        <ele>1291.4000244141</ele>
        <time>2024-07-14T08:27:42.000Z</time>
      </trkpt>
      <trkpt lat="45.00866" lon="5.50343">
        <ele>1291.8000488281</ele>
        <time>2024-07-14T08:27:43.000Z</time>
      </trkpt>
      <trkpt lat="45.00868" lon="5.50343">
        <ele>1291.8000488281</ele>
        <time>2024-07-14T08:27:44.000Z</time>
      </trkpt>
      <trkpt lat="45.00871" lon="5.50343">
        <ele>1292</ele>
        <time>2024-07-14T08:27:45.000Z</time>
      </trkpt>
      <trkpt lat="45.00873" lon="5.50343">
        <ele>1292</ele>
        <time>2024-07-14T08:27:46.000Z</time>
      </trkpt>
      <trkpt lat="45.00875" lon="5.50342">
        <ele>1292.1999511719</ele>
        <time>2024-07-14T08:27:47.000Z</time>
      </trkpt>
      <trkpt lat="45.00877" lon="5.50342">
        <ele>1292.1999511719</ele>
        <time>2024-07-14T08:27:48.000Z</time>
      </trkpt>
      <trkpt lat="45.0088" lon="5.50342">
        <ele>1292.4000244141</ele>
        <time>2024-07-14T08:27:49.000Z</time>
      </trkpt>
      <trkpt lat="45.00881" lon="5.50341">
        <ele>1292.5999755859</ele>
        <time>2024-07-14T08:27:50.000Z</time>
      </trkpt>
      <trkpt lat="45.00883" lon="5.50341">
        <ele>1292.5999755859</ele>
        <time>2024-07-14T08:27:51.000Z</time>
      </trkpt>
      <trkpt lat="45.00885" lon="5.5034">
        <ele>1292.5999755859</ele>
        <time>2024-07-14T08:27:52.000Z</time>
      </trkpt>
      <trkpt lat="45.00887" lon="5.50339">
        <ele>1292.8000488281</ele>
        <time>2024-07-14T08:27:53.000Z</time>
      </trkpt>
      <trkpt lat="45.00889" lon="5.50339">
        <ele>1292.8000488281</ele>
        <time>2024-07-14T08:27:54.000Z</time>
      </trkpt>
      <trkpt lat="45.00891" lon="5.50337">
        <ele>1292.8000488281</ele>
        <time>2024-07-14T08:27:55.000Z</time>
      </trkpt>
      <trkpt lat="45.00892" lon="5.50336">
        <ele>1293</ele>
        <time>2024-07-14T08:27:56.000Z</time>
      </trkpt>
      <trkpt lat="45.00894" lon="5.50335">
        <ele>1293.1999511719</ele>
        <time>2024-07-14T08:27:57.000Z</time>
      </trkpt>
      <trkpt lat="45.00895" lon="5.50334">
        <ele>1293.1999511719</ele>
        <time>2024-07-14T08:27:58.000Z</time>
      </trkpt>
      <trkpt lat="45.00896" lon="5.50332">
        <ele>1293.1999511719</ele>
        <time>2024-07-14T08:27:59.000Z</time>
      </trkpt>
      <trkpt lat="45.00896" lon="5.5033">
        <ele>1293.4000244141</ele>
        <time>2024-07-14T08:28:00.000Z</time>
      </trkpt>
      <trkpt lat="45.00895" lon="5.5033">
        <ele>1293.5999755859</ele>
        <time>2024-07-14T08:28:01.000Z</time>
      </trkpt>
      <trkpt lat="45.00895" lon="5.50328">
        <ele>1294</ele>
        <time>2024-07-14T08:28:02.000Z</time>
      </trkpt>
      <trkpt lat="45.00894" lon="5.50327">
        <ele>1294.1999511719</ele>
        <time>2024-07-14T08:28:03.000Z</time>
      </trkpt>
      <trkpt lat="45.00893" lon="5.50325">
        <ele>1294.4000244141</ele>
        <time>2024-07-14T08:28:04.000Z</time>
      </trkpt>
      <trkpt lat="45.00892" lon="5.50324">
        <ele>1294.5999755859</ele>
        <time>2024-07-14T08:28:05.000Z</time>
      </trkpt>
      <trkpt lat="45.00891" lon="5.50322">
        <ele>1294.8000488281</ele>
        <time>2024-07-14T08:28:06.000Z</time>
      </trkpt>
      <trkpt lat="45.0089" lon="5.5032">
        <ele>1295</ele>
        <time>2024-07-14T08:28:07.000Z</time>
      </trkpt>
      <trkpt lat="45.00889" lon="5.50318">
        <ele>1295.4000244141</ele>
        <time>2024-07-14T08:28:08.000Z</time>
      </trkpt>
      <trkpt lat="45.00888" lon="5.50317">
        <ele>1295.4000244141</ele>
        <time>2024-07-14T08:28:09.000Z</time>
      </trkpt>
      <trkpt lat="45.00887" lon="5.50316">
        <ele>1295.5999755859</ele>
        <time>2024-07-14T08:28:10.000Z</time>
      </trkpt>
      <trkpt lat="45.00886" lon="5.50314">
        <ele>1295.8000488281</ele>
        <time>2024-07-14T08:28:11.000Z</time>
      </trkpt>
      <trkpt lat="45.00884" lon="5.50313">
        <ele>1296.1999511719</ele>
        <time>2024-07-14T08:28:12.000Z</time>
      </trkpt>
      <trkpt lat="45.00883" lon="5.50312">
        <ele>1296.4000244141</ele>
        <time>2024-07-14T08:28:13.000Z</time>
      </trkpt>
      <trkpt lat="45.00881" lon="5.50309">
        <ele>1296.4000244141</ele>
        <time>2024-07-14T08:28:14.000Z</time>
      </trkpt>
      <trkpt lat="45.0088" lon="5.50307">
        <ele>1296.8000488281</ele>
        <time>2024-07-14T08:28:15.000Z</time>
      </trkpt>
      <trkpt lat="45.00878" lon="5.50306">
        <ele>1297</ele>
        <time>2024-07-14T08:28:16.000Z</time>
      </trkpt>
      <trkpt lat="45.00877" lon="5.50305">
        <ele>1297.1999511719</ele>
        <time>2024-07-14T08:28:17.000Z</time>
      </trkpt>
      <trkpt lat="45.00876" lon="5.50303">
        <ele>1297.4000244141</ele>
        <time>2024-07-14T08:28:18.000Z</time>
      </trkpt>
      <trkpt lat="45.00875" lon="5.50301">
        <ele>1297.5999755859</ele>
        <time>2024-07-14T08:28:19.000Z</time>
      </trkpt>
      <trkpt lat="45.00874" lon="5.50299">
        <ele>1297.5999755859</ele>
        <time>2024-07-14T08:28:20.000Z</time>
      </trkpt>
      <trkpt lat="45.00873" lon="5.50297">
        <ele>1297.8000488281</ele>
        <time>2024-07-14T08:28:21.000Z</time>
      </trkpt>
      <trkpt lat="45.00873" lon="5.50294">
        <ele>1298.1999511719</ele>
        <time>2024-07-14T08:28:22.000Z</time>
      </trkpt>
      <trkpt lat="45.00872" lon="5.50292">
        <ele>1298.4000244141</ele>
        <time>2024-07-14T08:28:23.000Z</time>
      </trkpt>
      <trkpt lat="45.00871" lon="5.50291">
        <ele>1298.5999755859</ele>
        <time>2024-07-14T08:28:24.000Z</time>
      </trkpt>
      <trkpt lat="45.0087" lon="5.50288">
        <ele>1298.8000488281</ele>
        <time>2024-07-14T08:28:25.000Z</time>
      </trkpt>
      <trkpt lat="45.0087" lon="5.50286">
        <ele>1299</ele>
        <time>2024-07-14T08:28:26.000Z</time>
      </trkpt>
      <trkpt lat="45.00869" lon="5.50284">
        <ele>1299.1999511719</ele>
        <time>2024-07-14T08:28:27.000Z</time>
      </trkpt>
      <trkpt lat="45.00869" lon="5.50282">
        <ele>1299.4000244141</ele>
        <time>2024-07-14T08:28:28.000Z</time>
      </trkpt>
      <trkpt lat="45.00869" lon="5.5028">
        <ele>1299.5999755859</ele>
        <time>2024-07-14T08:28:29.000Z</time>
      </trkpt>
      <trkpt lat="45.00868" lon="5.50278">
        <ele>1300</ele>
        <time>2024-07-14T08:28:30.000Z</time>
      </trkpt>
      <trkpt lat="45.00868" lon="5.50276">
        <ele>1300.1999511719</ele>
        <time>2024-07-14T08:28:31.000Z</time>
      </trkpt>
      <trkpt lat="45.00867" lon="5.50274">
        <ele>1300.5999755859</ele>
        <time>2024-07-14T08:28:32.000Z</time>
      </trkpt>
      <trkpt lat="45.00867" lon="5.50272">
        <ele>1300.8000488281</ele>
        <time>2024-07-14T08:28:33.000Z</time>
      </trkpt>
      <trkpt lat="45.00866" lon="5.5027">
        <ele>1301</ele>
        <time>2024-07-14T08:28:34.000Z</time>
      </trkpt>
      <trkpt lat="45.00865" lon="5.50269">
        <ele>1301.4000244141</ele>
        <time>2024-07-14T08:28:35.000Z</time>
      </trkpt>
      <trkpt lat="45.00865" lon="5.50267">
        <ele>1301.5999755859</ele>
        <time>2024-07-14T08:28:36.000Z</time>
      </trkpt>
      <trkpt lat="45.00865" lon="5.50266">
        <ele>1301.8000488281</ele>
        <time>2024-07-14T08:28:37.000Z</time>
      </trkpt>
      <trkpt lat="45.00864" lon="5.50264">
        <ele>1302</ele>
        <time>2024-07-14T08:28:38.000Z</time>
      </trkpt>
      <trkpt lat="45.00863" lon="5.50262">
        <ele>1302.1999511719</ele>
        <time>2024-07-14T08:28:39.000Z</time>
      </trkpt>
      <trkpt lat="45.00862" lon="5.5026">
        <ele>1302.1999511719</ele>
        <time>2024-07-14T08:28:40.000Z</time>
      </trkpt>
      <trkpt lat="45.00862" lon="5.50258">
        <ele>1302.5999755859</ele>
        <time>2024-07-14T08:28:41.000Z</time>
      </trkpt>
      <trkpt lat="45.00861" lon="5.50257">
        <ele>1302.8000488281</ele>
        <time>2024-07-14T08:28:42.000Z</time>
      </trkpt>
      <trkpt lat="45.00861" lon="5.50255">
        <ele>1303</ele>
        <time>2024-07-14T08:28:43.000Z</time>
      </trkpt>
      <trkpt lat="45.00861" lon="5.50253">
        <ele>1303.1999511719</ele>
        <time>2024-07-14T08:28:44.000Z</time>
      </trkpt>
      <trkpt lat="45.0086" lon="5.5025">
        <ele>1303.4000244141</ele>
        <time>2024-07-14T08:28:45.000Z</time>
      </trkpt>
      <trkpt lat="45.00859" lon="5.50248">
        <ele>1303.5999755859</ele>
        <time>2024-07-14T08:28:46.000Z</time>
      </trkpt>
      <trkpt lat="45.00859" lon="5.50246">
        <ele>1303.8000488281</ele>
        <time>2024-07-14T08:28:47.000Z</time>
      </trkpt>
      <trkpt lat="45.00858" lon="5.50244">
        <ele>1304.1999511719</ele>
        <time>2024-07-14T08:28:48.000Z</time>
      </trkpt>
      <trkpt lat="45.00858" lon="5.50243">
        <ele>1304.4000244141</ele>
        <time>2024-07-14T08:28:49.000Z</time>
      </trkpt>
      <trkpt lat="45.00857" lon="5.50241">
        <ele>1304.5999755859</ele>
        <time>2024-07-14T08:28:50.000Z</time>
      </trkpt>
      <trkpt lat="45.00856" lon="5.50239">
        <ele>1305</ele>
        <time>2024-07-14T08:28:51.000Z</time>
      </trkpt>
      <trkpt lat="45.00856" lon="5.50237">
        <ele>1305.4000244141</ele>
        <time>2024-07-14T08:28:52.000Z</time>
      </trkpt>
      <trkpt lat="45.00855" lon="5.50235">
        <ele>1305.5999755859</ele>
        <time>2024-07-14T08:28:53.000Z</time>
      </trkpt>
      <trkpt lat="45.00854" lon="5.50233">
        <ele>1305.8000488281</ele>
        <time>2024-07-14T08:28:54.000Z</time>
      </trkpt>
      <trkpt lat="45.00853" lon="5.50232">
        <ele>1306.1999511719</ele>
        <time>2024-07-14T08:28:55.000Z</time>
      </trkpt>
      <trkpt lat="45.00853" lon="5.5023">
        <ele>1306.4000244141</ele>
        <time>2024-07-14T08:28:56.000Z</time>
      </trkpt>
      <trkpt lat="45.00853" lon="5.50229">
        <ele>1306.5999755859</ele>
        <time>2024-07-14T08:28:57.000Z</time>
      </trkpt>
      <trkpt lat="45.00853" lon="5.50226">
        <ele>1306.8000488281</ele>
        <time>2024-07-14T08:28:58.000Z</time>
      </trkpt>
      <trkpt lat="45.00853" lon="5.50223">
        <ele>1307</ele>
        <time>2024-07-14T08:28:59.000Z</time>
      </trkpt>
      <trkpt lat="45.00853" lon="5.50221">
        <ele>1307.4000244141</ele>
        <time>2024-07-14T08:29:00.000Z</time>
      </trkpt>
      <trkpt lat="45.00853" lon="5.50218">
        <ele>1307.5999755859</ele>
        <time>2024-07-14T08:29:01.000Z</time>
      </trkpt>
      <trkpt lat="45.00853" lon="5.50216">
        <ele>1308</ele>
        <time>2024-07-14T08:29:02.000Z</time>
      </trkpt>
      <trkpt lat="45.00853" lon="5.50214">
        <ele>1308.1999511719</ele>
        <time>2024-07-14T08:29:03.000Z</time>
      </trkpt>
      <trkpt lat="45.00853" lon="5.50211">
        <ele>1308.5999755859</ele>
        <time>2024-07-14T08:29:04.000Z</time>
      </trkpt>
      <trkpt lat="45.00854" lon="5.50208">
        <ele>1308.8000488281</ele>
        <time>2024-07-14T08:29:05.000Z</time>
      </trkpt>
      <trkpt lat="45.00854" lon="5.50207">
        <ele>1309.1999511719</ele>
        <time>2024-07-14T08:29:06.000Z</time>
      </trkpt>
      <trkpt lat="45.00854" lon="5.50205">
        <ele>1309.4000244141</ele>
        <time>2024-07-14T08:29:07.000Z</time>
      </trkpt>
      <trkpt lat="45.00854" lon="5.50204">
        <ele>1309.8000488281</ele>
        <time>2024-07-14T08:29:08.000Z</time>
      </trkpt>
      <trkpt lat="45.00854" lon="5.50202">
        <ele>1310.1999511719</ele>
        <time>2024-07-14T08:29:09.000Z</time>
      </trkpt>
      <trkpt lat="45.00854" lon="5.502">
        <ele>1310.4000244141</ele>
        <time>2024-07-14T08:29:10.000Z</time>
      </trkpt>
      <trkpt lat="45.00854" lon="5.50198">
        <ele>1310.5999755859</ele>
        <time>2024-07-14T08:29:11.000Z</time>
      </trkpt>
      <trkpt lat="45.00854" lon="5.50196">
        <ele>1310.8000488281</ele>
        <time>2024-07-14T08:29:12.000Z</time>
      </trkpt>
      <trkpt lat="45.00854" lon="5.50194">
        <ele>1311.1999511719</ele>
        <time>2024-07-14T08:29:13.000Z</time>
      </trkpt>
      <trkpt lat="45.00854" lon="5.50192">
        <ele>1311.4000244141</ele>
        <time>2024-07-14T08:29:14.000Z</time>
      </trkpt>
      <trkpt lat="45.00855" lon="5.5019">
        <ele>1311.5999755859</ele>
        <time>2024-07-14T08:29:15.000Z</time>
      </trkpt>
      <trkpt lat="45.00855" lon="5.50188">
        <ele>1312</ele>
        <time>2024-07-14T08:29:16.000Z</time>
      </trkpt>
      <trkpt lat="45.00856" lon="5.50186">
        <ele>1312</ele>
        <time>2024-07-14T08:29:17.000Z</time>
      </trkpt>
      <trkpt lat="45.00857" lon="5.50184">
        <ele>1312.4000244141</ele>
        <time>2024-07-14T08:29:18.000Z</time>
      </trkpt>
      <trkpt lat="45.00857" lon="5.50183">
        <ele>1312.5999755859</ele>
        <time>2024-07-14T08:29:19.000Z</time>
      </trkpt>
      <trkpt lat="45.00857" lon="5.50181">
        <ele>1312.8000488281</ele>
        <time>2024-07-14T08:29:20.000Z</time>
      </trkpt>
      <trkpt lat="45.00858" lon="5.5018">
        <ele>1313</ele>
        <time>2024-07-14T08:29:21.000Z</time>
      </trkpt>
      <trkpt lat="45.00859" lon="5.50178">
        <ele>1313.4000244141</ele>
        <time>2024-07-14T08:29:22.000Z</time>
      </trkpt>
      <trkpt lat="45.00859" lon="5.50175">
        <ele>1313.5999755859</ele>
        <time>2024-07-14T08:29:23.000Z</time>
      </trkpt>
      <trkpt lat="45.0086" lon="5.50173">
        <ele>1313.8000488281</ele>
        <time>2024-07-14T08:29:24.000Z</time>
      </trkpt>
      <trkpt lat="45.0086" lon="5.50172">
        <ele>1314</ele>
        <time>2024-07-14T08:29:25.000Z</time>
      </trkpt>
      <trkpt lat="45.00861" lon="5.5017">
        <ele>1314.1999511719</ele>
        <time>2024-07-14T08:29:26.000Z</time>
      </trkpt>
      <trkpt lat="45.00862" lon="5.50169">
        <ele>1314.5999755859</ele>
        <time>2024-07-14T08:29:27.000Z</time>
      </trkpt>
      <trkpt lat="45.00863" lon="5.50166">
        <ele>1314.8000488281</ele>
        <time>2024-07-14T08:29:28.000Z</time>
      </trkpt>
      <trkpt lat="45.00864" lon="5.50164">
        <ele>1315.1999511719</ele>
        <time>2024-07-14T08:29:29.000Z</time>
      </trkpt>
      <trkpt lat="45.00865" lon="5.50162">
        <ele>1315.1999511719</ele>
        <time>2024-07-14T08:29:30.000Z</time>
      </trkpt>
      <trkpt lat="45.00866" lon="5.50161">
        <ele>1315.4000244141</ele>
        <time>2024-07-14T08:29:31.000Z</time>
      </trkpt>
      <trkpt lat="45.00867" lon="5.50159">
        <ele>1315.5999755859</ele>
        <time>2024-07-14T08:29:32.000Z</time>
      </trkpt>
      <trkpt lat="45.00867" lon="5.50157">
        <ele>1315.8000488281</ele>
        <time>2024-07-14T08:29:33.000Z</time>
      </trkpt>
      <trkpt lat="45.00868" lon="5.50155">
        <ele>1316</ele>
        <time>2024-07-14T08:29:34.000Z</time>
      </trkpt>
      <trkpt lat="45.00869" lon="5.50153">
        <ele>1316.1999511719</ele>
        <time>2024-07-14T08:29:35.000Z</time>
      </trkpt>
      <trkpt lat="45.0087" lon="5.50152">
        <ele>1316.4000244141</ele>
        <time>2024-07-14T08:29:36.000Z</time>
      </trkpt>
      <trkpt lat="45.00871" lon="5.5015">
        <ele>1316.5999755859</ele>
        <time>2024-07-14T08:29:37.000Z</time>
      </trkpt>
      <trkpt lat="45.00872" lon="5.50148">
        <ele>1316.8000488281</ele>
        <time>2024-07-14T08:29:38.000Z</time>
      </trkpt>
      <trkpt lat="45.00873" lon="5.50147">
        <ele>1316.8000488281</ele>
        <time>2024-07-14T08:29:39.000Z</time>
      </trkpt>
      <trkpt lat="45.00874" lon="5.50145">
        <ele>1317</ele>
        <time>2024-07-14T08:29:40.000Z</time>
      </trkpt>
      <trkpt lat="45.00875" lon="5.50144">
        <ele>1317.1999511719</ele>
        <time>2024-07-14T08:29:41.000Z</time>
      </trkpt>
      <trkpt lat="45.00876" lon="5.50142">
        <ele>1317.4000244141</ele>
        <time>2024-07-14T08:29:42.000Z</time>
      </trkpt>
      <trkpt lat="45.00878" lon="5.5014">
        <ele>1317.8000488281</ele>
        <time>2024-07-14T08:29:43.000Z</time>
      </trkpt>
      <trkpt lat="45.00879" lon="5.50139">
        <ele>1318.1999511719</ele>
        <time>2024-07-14T08:29:44.000Z</time>
      </trkpt>
      <trkpt lat="45.0088" lon="5.50137">
        <ele>1318.1999511719</ele>
        <time>2024-07-14T08:29:45.000Z</time>
      </trkpt>
      <trkpt lat="45.00881" lon="5.50136">
        <ele>1318.5999755859</ele>
        <time>2024-07-14T08:29:46.000Z</time>
      </trkpt>
      <trkpt lat="45.00882" lon="5.50134">
        <ele>1318.8000488281</ele>
        <time>2024-07-14T08:29:47.000Z</time>
      </trkpt>
      <trkpt lat="45.00883" lon="5.50133">
        <ele>1319</ele>
        <time>2024-07-14T08:29:48.000Z</time>
      </trkpt>
      <trkpt lat="45.00884" lon="5.50131">
        <ele>1319</ele>
        <time>2024-07-14T08:29:49.000Z</time>
      </trkpt>
      <trkpt lat="45.00885" lon="5.5013">
        <ele>1319.1999511719</ele>
        <time>2024-07-14T08:29:50.000Z</time>
      </trkpt>
      <trkpt lat="45.00887" lon="5.50128">
        <ele>1319.4000244141</ele>
        <time>2024-07-14T08:29:51.000Z</time>
      </trkpt>
      <trkpt lat="45.00888" lon="5.50126">
        <ele>1319.4000244141</ele>
        <time>2024-07-14T08:29:52.000Z</time>
      </trkpt>
      <trkpt lat="45.00889" lon="5.50124">
        <ele>1319.4000244141</ele>
        <time>2024-07-14T08:29:53.000Z</time>
      </trkpt>
      <trkpt lat="45.00891" lon="5.50121">
        <ele>1319.5999755859</ele>
        <time>2024-07-14T08:29:54.000Z</time>
      </trkpt>
      <trkpt lat="45.00892" lon="5.50118">
        <ele>1319.8000488281</ele>
        <time>2024-07-14T08:29:55.000Z</time>
      </trkpt>
      <trkpt lat="45.00893" lon="5.50116">
        <ele>1319.8000488281</ele>
        <time>2024-07-14T08:29:56.000Z</time>
      </trkpt>
      <trkpt lat="45.00895" lon="5.50113">
        <ele>1319.8000488281</ele>
        <time>2024-07-14T08:29:57.000Z</time>
      </trkpt>
      <trkpt lat="45.00896" lon="5.5011">
        <ele>1319.8000488281</ele>
        <time>2024-07-14T08:29:58.000Z</time>
      </trkpt>
      <trkpt lat="45.00897" lon="5.50108">
        <ele>1320</ele>
        <time>2024-07-14T08:29:59.000Z</time>
      </trkpt>
      <trkpt lat="45.00898" lon="5.50105">
        <ele>1320</ele>
        <time>2024-07-14T08:30:00.000Z</time>
      </trkpt>
      <trkpt lat="45.009" lon="5.50102">
        <ele>1320</ele>
        <time>2024-07-14T08:30:01.000Z</time>
      </trkpt>
      <trkpt lat="45.00901" lon="5.501">
        <ele>1320</ele>
        <time>2024-07-14T08:30:02.000Z</time>
      </trkpt>
      <trkpt lat="45.00902" lon="5.50098">
        <ele>1319.8000488281</ele>
        <time>2024-07-14T08:30:03.000Z</time>
      </trkpt>
      <trkpt lat="45.00903" lon="5.50095">
        <ele>1319.8000488281</ele>
        <time>2024-07-14T08:30:04.000Z</time>
      </trkpt>
      <trkpt lat="45.00904" lon="5.50094">
        <ele>1319.5999755859</ele>
        <time>2024-07-14T08:30:05.000Z</time>
      </trkpt>
      <trkpt lat="45.00905" lon="5.50091">
        <ele>1319.5999755859</ele>
        <time>2024-07-14T08:30:06.000Z</time>
      </trkpt>
      <trkpt lat="45.00906" lon="5.50089">
        <ele>1319.5999755859</ele>
        <time>2024-07-14T08:30:07.000Z</time>
      </trkpt>
      <trkpt lat="45.00907" lon="5.50086">
        <ele>1319.5999755859</ele>
        <time>2024-07-14T08:30:08.000Z</time>
      </trkpt>
      <trkpt lat="45.00907" lon="5.50084">
        <ele>1319.8000488281</ele>
        <time>2024-07-14T08:30:09.000Z</time>
      </trkpt>
      <trkpt lat="45.00908" lon="5.50081">
        <ele>1319.8000488281</ele>
        <time>2024-07-14T08:30:10.000Z</time>
      </trkpt>
      <trkpt lat="45.00909" lon="5.50078">
        <ele>1319.8000488281</ele>
        <time>2024-07-14T08:30:11.000Z</time>
      </trkpt>
      <trkpt lat="45.00909" lon="5.50075">
        <ele>1320</ele>
        <time>2024-07-14T08:30:12.000Z</time>
      </trkpt>
      <trkpt lat="45.0091" lon="5.50073">
        <ele>1320</ele>
        <time>2024-07-14T08:30:13.000Z</time>
      </trkpt>
      <trkpt lat="45.0091" lon="5.50071">
        <ele>1320</ele>
        <time>2024-07-14T08:30:14.000Z</time>
      </trkpt>
      <trkpt lat="45.0091" lon="5.50068">
        <ele>1320.1999511719</ele>
        <time>2024-07-14T08:30:15.000Z</time>
      </trkpt>
      <trkpt lat="45.0091" lon="5.50066">
        <ele>1320.4000244141</ele>
        <time>2024-07-14T08:30:16.000Z</time>
      </trkpt>
      <trkpt lat="45.0091" lon="5.50064">
        <ele>1320.8000488281</ele>
        <time>2024-07-14T08:30:17.000Z</time>
      </trkpt>
      <trkpt lat="45.0091" lon="5.50062">
        <ele>1321</ele>
        <time>2024-07-14T08:30:18.000Z</time>
      </trkpt>
      <trkpt lat="45.0091" lon="5.50059">
        <ele>1321.1999511719</ele>
        <time>2024-07-14T08:30:19.000Z</time>
      </trkpt>
      <trkpt lat="45.0091" lon="5.50057">
        <ele>1321.4000244141</ele>
        <time>2024-07-14T08:30:20.000Z</time>
      </trkpt>
      <trkpt lat="45.0091" lon="5.50056">
        <ele>1321.5999755859</ele>
        <time>2024-07-14T08:30:21.000Z</time>
      </trkpt>
      <trkpt lat="45.0091" lon="5.50054">
        <ele>1321.8000488281</ele>
        <time>2024-07-14T08:30:22.000Z</time>
      </trkpt>
      <trkpt lat="45.0091" lon="5.50052">
        <ele>1322</ele>
        <time>2024-07-14T08:30:23.000Z</time>
      </trkpt>
      <trkpt lat="45.0091" lon="5.5005">
        <ele>1322.1999511719</ele>
        <time>2024-07-14T08:30:24.000Z</time>
      </trkpt>
      <trkpt lat="45.00911" lon="5.50048">
        <ele>1322.4000244141</ele>
        <time>2024-07-14T08:30:25.000Z</time>
      </trkpt>
      <trkpt lat="45.00911" lon="5.50046">
        <ele>1322.8000488281</ele>
        <time>2024-07-14T08:30:26.000Z</time>
      </trkpt>
      <trkpt lat="45.00912" lon="5.50044">
        <ele>1323</ele>
        <time>2024-07-14T08:30:27.000Z</time>
      </trkpt>
      <trkpt lat="45.00912" lon="5.50041">
        <ele>1323.1999511719</ele>
        <time>2024-07-14T08:30:28.000Z</time>
      </trkpt>
      <trkpt lat="45.00913" lon="5.50039">
        <ele>1323.4000244141</ele>
        <time>2024-07-14T08:30:29.000Z</time>
      </trkpt>
      <trkpt lat="45.00914" lon="5.50037">
        <ele>1323.5999755859</ele>
        <time>2024-07-14T08:30:30.000Z</time>
      </trkpt>
      <trkpt lat="45.00914" lon="5.50036">
        <ele>1323.8000488281</ele>
        <time>2024-07-14T08:30:31.000Z</time>
      </trkpt>
      <trkpt lat="45.00915" lon="5.50033">
        <ele>1324.1999511719</ele>
        <time>2024-07-14T08:30:32.000Z</time>
      </trkpt>
      <trkpt lat="45.00916" lon="5.50031">
        <ele>1324.4000244141</ele>
        <time>2024-07-14T08:30:33.000Z</time>
      </trkpt>
      <trkpt lat="45.00916" lon="5.5003">
        <ele>1324.5999755859</ele>
        <time>2024-07-14T08:30:34.000Z</time>
      </trkpt>
      <trkpt lat="45.00916" lon="5.50029">
        <ele>1325</ele>
        <time>2024-07-14T08:30:35.000Z</time>
      </trkpt>
      <trkpt lat="45.00917" lon="5.50027">
        <ele>1325.1999511719</ele>
        <time>2024-07-14T08:30:36.000Z</time>
      </trkpt>
      <trkpt lat="45.00918" lon="5.50025">
        <ele>1325.4000244141</ele>
        <time>2024-07-14T08:30:37.000Z</time>
      </trkpt>
      <trkpt lat="45.00919" lon="5.50024">
        <ele>1325.5999755859</ele>
        <time>2024-07-14T08:30:38.000Z</time>
      </trkpt>
      <trkpt lat="45.0092" lon="5.50022">
        <ele>1325.8000488281</ele>
        <time>2024-07-14T08:30:39.000Z</time>
      </trkpt>
      <trkpt lat="45.00921" lon="5.5002">
        <ele>1326</ele>
        <time>2024-07-14T08:30:40.000Z</time>
      </trkpt>
      <trkpt lat="45.00922" lon="5.50019">
        <ele>1326.1999511719</ele>
        <time>2024-07-14T08:30:41.000Z</time>
      </trkpt>
      <trkpt lat="45.00923" lon="5.50017">
        <ele>1326.4000244141</ele>
        <time>2024-07-14T08:30:42.000Z</time>
      </trkpt>
      <trkpt lat="45.00923" lon="5.50016">
        <ele>1326.5999755859</ele>
        <time>2024-07-14T08:30:43.000Z</time>
      </trkpt>
      <trkpt lat="45.00924" lon="5.50014">
        <ele>1327</ele>
        <time>2024-07-14T08:30:44.000Z</time>
      </trkpt>
      <trkpt lat="45.00925" lon="5.50011">
        <ele>1327.1999511719</ele>
        <time>2024-07-14T08:30:45.000Z</time>
      </trkpt>
      <trkpt lat="45.00925" lon="5.50009">
        <ele>1327.4000244141</ele>
        <time>2024-07-14T08:30:46.000Z</time>
      </trkpt>
      <trkpt lat="45.00925" lon="5.50007">
        <ele>1327.5999755859</ele>
        <time>2024-07-14T08:30:47.000Z</time>
      </trkpt>
      <trkpt lat="45.00926" lon="5.50005">
        <ele>1327.8000488281</ele>
        <time>2024-07-14T08:30:48.000Z</time>
      </trkpt>
      <trkpt lat="45.00926" lon="5.50003">
        <ele>1328</ele>
        <time>2024-07-14T08:30:49.000Z</time>
      </trkpt>
      <trkpt lat="45.00926" lon="5.50001">
        <ele>1328.1999511719</ele>
        <time>2024-07-14T08:30:50.000Z</time>
      </trkpt>
      <trkpt lat="45.00926" lon="5.49999">
        <ele>1328.4000244141</ele>
        <time>2024-07-14T08:30:51.000Z</time>
      </trkpt>
      <trkpt lat="45.00926" lon="5.49998">
        <ele>1328.5999755859</ele>
        <time>2024-07-14T08:30:52.000Z</time>
      </trkpt>
      <trkpt lat="45.00926" lon="5.49997">
        <ele>1328.8000488281</ele>
        <time>2024-07-14T08:30:53.000Z</time>
      </trkpt>
      <trkpt lat="45.00926" lon="5.49995">
        <ele>1328.8000488281</ele>
        <time>2024-07-14T08:30:54.000Z</time>
      </trkpt>
      <trkpt lat="45.00927" lon="5.49993">
        <ele>1329.1999511719</ele>
        <time>2024-07-14T08:30:55.000Z</time>
      </trkpt>
      <trkpt lat="45.00928" lon="5.49992">
        <ele>1329.4000244141</ele>
        <time>2024-07-14T08:30:56.000Z</time>
      </trkpt>
      <trkpt lat="45.00928" lon="5.4999">
        <ele>1329.5999755859</ele>
        <time>2024-07-14T08:30:57.000Z</time>
      </trkpt>
      <trkpt lat="45.00929" lon="5.49989">
        <ele>1329.8000488281</ele>
        <time>2024-07-14T08:30:58.000Z</time>
      </trkpt>
      <trkpt lat="45.00929" lon="5.49987">
        <ele>1330</ele>
        <time>2024-07-14T08:30:59.000Z</time>
      </trkpt>
      <trkpt lat="45.00929" lon="5.49985">
        <ele>1330</ele>
        <time>2024-07-14T08:31:00.000Z</time>
      </trkpt>
      <trkpt lat="45.0093" lon="5.49983">
        <ele>1330.4000244141</ele>
        <time>2024-07-14T08:31:01.000Z</time>
      </trkpt>
      <trkpt lat="45.0093" lon="5.49981">
        <ele>1330.5999755859</ele>
        <time>2024-07-14T08:31:02.000Z</time>
      </trkpt>
      <trkpt lat="45.00931" lon="5.49979">
        <ele>1331</ele>
        <time>2024-07-14T08:31:03.000Z</time>
      </trkpt>
      <trkpt lat="45.00932" lon="5.49977">
        <ele>1331.1999511719</ele>
        <time>2024-07-14T08:31:04.000Z</time>
      </trkpt>
      <trkpt lat="45.00933" lon="5.49974">
        <ele>1331.5999755859</ele>
        <time>2024-07-14T08:31:05.000Z</time>
      </trkpt>
      <trkpt lat="45.00933" lon="5.49973">
        <ele>1332</ele>
        <time>2024-07-14T08:31:06.000Z</time>
      </trkpt>
      <trkpt lat="45.00934" lon="5.4997">
        <ele>1332.1999511719</ele>
        <time>2024-07-14T08:31:07.000Z</time>
      </trkpt>
      <trkpt lat="45.00935" lon="5.49968">
        <ele>1332.5999755859</ele>
        <time>2024-07-14T08:31:08.000Z</time>
      </trkpt>
      <trkpt lat="45.00935" lon="5.49966">
        <ele>1332.8000488281</ele>
        <time>2024-07-14T08:31:09.000Z</time>
      </trkpt>
      <trkpt lat="45.00936" lon="5.49964">
        <ele>1333</ele>
        <time>2024-07-14T08:31:10.000Z</time>
      </trkpt>
      <trkpt lat="45.00936" lon="5.49963">
        <ele>1333.4000244141</ele>
        <time>2024-07-14T08:31:11.000Z</time>
      </trkpt>
      <trkpt lat="45.00937" lon="5.49961">
        <ele>1333.8000488281</ele>
        <time>2024-07-14T08:31:12.000Z</time>
      </trkpt>
      <trkpt lat="45.00937" lon="5.49959">
        <ele>1334.1999511719</ele>
        <time>2024-07-14T08:31:13.000Z</time>
      </trkpt>
      <trkpt lat="45.00936" lon="5.49957">
        <ele>1334.5999755859</ele>
        <time>2024-07-14T08:31:14.000Z</time>
      </trkpt>
      <trkpt lat="45.00936" lon="5.49956">
        <ele>1334.8000488281</ele>
        <time>2024-07-14T08:31:15.000Z</time>
      </trkpt>
      <trkpt lat="45.00936" lon="5.49955">
        <ele>1335</ele>
        <time>2024-07-14T08:31:16.000Z</time>
      </trkpt>
      <trkpt lat="45.00935" lon="5.49954">
        <ele>1335.4000244141</ele>
        <time>2024-07-14T08:31:17.000Z</time>
      </trkpt>
      <trkpt lat="45.00935" lon="5.49953">
        <ele>1335.5999755859</ele>
        <time>2024-07-14T08:31:18.000Z</time>
      </trkpt>
      <trkpt lat="45.00935" lon="5.49951">
        <ele>1336</ele>
        <time>2024-07-14T08:31:19.000Z</time>
      </trkpt>
      <trkpt lat="45.00935" lon="5.49949">
        <ele>1336.1999511719</ele>
        <time>2024-07-14T08:31:20.000Z</time>
      </trkpt>
      <trkpt lat="45.00935" lon="5.49947">
        <ele>1336.4000244141</ele>
        <time>2024-07-14T08:31:21.000Z</time>
      </trkpt>
      <trkpt lat="45.00935" lon="5.49946">
        <ele>1336.5999755859</ele>
        <time>2024-07-14T08:31:22.000Z</time>
      </trkpt>
      <trkpt lat="45.00934" lon="5.49946">
        <ele>1336.5999755859</ele>
        <time>2024-07-14T08:31:23.000Z</time>
      </trkpt>
      <trkpt lat="45.00933" lon="5.49945">
        <ele>1337</ele>
        <time>2024-07-14T08:31:24.000Z</time>
      </trkpt>
      <trkpt lat="45.00933" lon="5.49942">
        <ele>1337.1999511719</ele>
        <time>2024-07-14T08:31:25.000Z</time>
      </trkpt>
      <trkpt lat="45.00933" lon="5.49939">
        <ele>1337.4000244141</ele>
        <time>2024-07-14T08:31:26.000Z</time>
      </trkpt>
      <trkpt lat="45.00932" lon="5.49936">
        <ele>1337.5999755859</ele>
        <time>2024-07-14T08:31:27.000Z</time>
      </trkpt>
      <trkpt lat="45.00932" lon="5.49935">
        <ele>1337.8000488281</ele>
        <time>2024-07-14T08:31:28.000Z</time>
      </trkpt>
      <trkpt lat="45.00932" lon="5.49933">
        <ele>1338</ele>
        <time>2024-07-14T08:31:29.000Z</time>
      </trkpt>
      <trkpt lat="45.00932" lon="5.4993">
        <ele>1338.1999511719</ele>
        <time>2024-07-14T08:31:30.000Z</time>
      </trkpt>
      <trkpt lat="45.00932" lon="5.49928">
        <ele>1338.4000244141</ele>
        <time>2024-07-14T08:31:31.000Z</time>
      </trkpt>
      <trkpt lat="45.00931" lon="5.49926">
        <ele>1338.5999755859</ele>
        <time>2024-07-14T08:31:32.000Z</time>
      </trkpt>
      <trkpt lat="45.00931" lon="5.49924">
        <ele>1338.8000488281</ele>
        <time>2024-07-14T08:31:33.000Z</time>
      </trkpt>
      <trkpt lat="45.00931" lon="5.49922">
        <ele>1339</ele>
        <time>2024-07-14T08:31:34.000Z</time>
      </trkpt>
      <trkpt lat="45.0093" lon="5.4992">
        <ele>1339.1999511719</ele>
        <time>2024-07-14T08:31:35.000Z</time>
      </trkpt>
      <trkpt lat="45.0093" lon="5.49917">
        <ele>1339.4000244141</ele>
        <time>2024-07-14T08:31:36.000Z</time>
      </trkpt>
      <trkpt lat="45.00929" lon="5.49916">
        <ele>1339.8000488281</ele>
        <time>2024-07-14T08:31:37.000Z</time>
      </trkpt>
      <trkpt lat="45.00929" lon="5.49914">
        <ele>1340</ele>
        <time>2024-07-14T08:31:38.000Z</time>
      </trkpt>
      <trkpt lat="45.00929" lon="5.49912">
        <ele>1340.1999511719</ele>
        <time>2024-07-14T08:31:39.000Z</time>
      </trkpt>
      <trkpt lat="45.00929" lon="5.4991">
        <ele>1340.4000244141</ele>
        <time>2024-07-14T08:31:40.000Z</time>
      </trkpt>
      <trkpt lat="45.00929" lon="5.49908">
        <ele>1340.8000488281</ele>
        <time>2024-07-14T08:31:41.000Z</time>
      </trkpt>
      <trkpt lat="45.00929" lon="5.49905">
        <ele>1341</ele>
        <time>2024-07-14T08:31:42.000Z</time>
      </trkpt>
      <trkpt lat="45.00929" lon="5.49903">
        <ele>1341.1999511719</ele>
        <time>2024-07-14T08:31:43.000Z</time>
      </trkpt>
      <trkpt lat="45.00929" lon="5.49901">
        <ele>1341.4000244141</ele>
        <time>2024-07-14T08:31:44.000Z</time>
      </trkpt>
      <trkpt lat="45.00929" lon="5.499">
        <ele>1341.5999755859</ele>
        <time>2024-07-14T08:31:45.000Z</time>
      </trkpt>
      <trkpt lat="45.00929" lon="5.49899">
        <ele>1341.8000488281</ele>
        <time>2024-07-14T08:31:46.000Z</time>
      </trkpt>
      <trkpt lat="45.00928" lon="5.49897">
        <ele>1342.1999511719</ele>
        <time>2024-07-14T08:31:47.000Z</time>
      </trkpt>
      <trkpt lat="45.00928" lon="5.49894">
        <ele>1342.4000244141</ele>
        <time>2024-07-14T08:31:48.000Z</time>
      </trkpt>
      <trkpt lat="45.00927" lon="5.49892">
        <ele>1342.5999755859</ele>
        <time>2024-07-14T08:31:49.000Z</time>
      </trkpt>
      <trkpt lat="45.00927" lon="5.49891">
        <ele>1343</ele>
        <time>2024-07-14T08:31:50.000Z</time>
      </trkpt>
      <trkpt lat="45.00927" lon="5.49889">
        <ele>1343.1999511719</ele>
        <time>2024-07-14T08:31:51.000Z</time>
      </trkpt>
      <trkpt lat="45.00927" lon="5.49886">
        <ele>1343.4000244141</ele>
        <time>2024-07-14T08:31:52.000Z</time>
      </trkpt>
      <trkpt lat="45.00927" lon="5.49883">
        <ele>1343.8000488281</ele>
        <time>2024-07-14T08:31:53.000Z</time>
      </trkpt>
      <trkpt lat="45.00927" lon="5.49881">
        <ele>1344</ele>
        <time>2024-07-14T08:31:54.000Z</time>
      </trkpt>
      <trkpt lat="45.00927" lon="5.49879">
        <ele>1344</ele>
        <time>2024-07-14T08:31:55.000Z</time>
      </trkpt>
      <trkpt lat="45.00927" lon="5.49876">
        <ele>1344</ele>
        <time>2024-07-14T08:31:56.000Z</time>
      </trkpt>
      <trkpt lat="45.00927" lon="5.49874">
        <ele>1344.1999511719</ele>
        <time>2024-07-14T08:31:57.000Z</time>
      </trkpt>
      <trkpt lat="45.00927" lon="5.49872">
        <ele>1344.1999511719</ele>
        <time>2024-07-14T08:31:58.000Z</time>
      </trkpt>
      <trkpt lat="45.00927" lon="5.49869">
        <ele>1344.4000244141</ele>
        <time>2024-07-14T08:31:59.000Z</time>
      </trkpt>
      <trkpt lat="45.00928" lon="5.49866">
        <ele>1344.4000244141</ele>
        <time>2024-07-14T08:32:00.000Z</time>
      </trkpt>
      <trkpt lat="45.00928" lon="5.49864">
        <ele>1344.4000244141</ele>
        <time>2024-07-14T08:32:01.000Z</time>
      </trkpt>
      <trkpt lat="45.00928" lon="5.49862">
        <ele>1344.4000244141</ele>
        <time>2024-07-14T08:32:02.000Z</time>
      </trkpt>
      <trkpt lat="45.00929" lon="5.4986">
        <ele>1344.8000488281</ele>
        <time>2024-07-14T08:32:03.000Z</time>
      </trkpt>
      <trkpt lat="45.00929" lon="5.49858">
        <ele>1344.8000488281</ele>
        <time>2024-07-14T08:32:04.000Z</time>
      </trkpt>
      <trkpt lat="45.00929" lon="5.49856">
        <ele>1345</ele>
        <time>2024-07-14T08:32:05.000Z</time>
      </trkpt>
      <trkpt lat="45.00929" lon="5.49855">
        <ele>1345.1999511719</ele>
        <time>2024-07-14T08:32:06.000Z</time>
      </trkpt>
      <trkpt lat="45.00929" lon="5.49853">
        <ele>1345.4000244141</ele>
        <time>2024-07-14T08:32:07.000Z</time>
      </trkpt>
      <trkpt lat="45.00928" lon="5.49851">
        <ele>1345.4000244141</ele>
        <time>2024-07-14T08:32:08.000Z</time>
      </trkpt>
      <trkpt lat="45.00928" lon="5.4985">
        <ele>1345.5999755859</ele>
        <time>2024-07-14T08:32:09.000Z</time>
      </trkpt>
      <trkpt lat="45.00927" lon="5.49847">
        <ele>1345.5999755859</ele>
        <time>2024-07-14T08:32:10.000Z</time>
      </trkpt>
      <trkpt lat="45.00926" lon="5.49845">
        <ele>1345.8000488281</ele>
        <time>2024-07-14T08:32:11.000Z</time>
      </trkpt>
      <trkpt lat="45.00924" lon="5.49843">
        <ele>1345.8000488281</ele>
        <time>2024-07-14T08:32:12.000Z</time>
      </trkpt>
      <trkpt lat="45.00923" lon="5.49841">
        <ele>1346.1999511719</ele>
        <time>2024-07-14T08:32:13.000Z</time>
      </trkpt>
      <trkpt lat="45.00921" lon="5.49839">
        <ele>1346.1999511719</ele>
        <time>2024-07-14T08:32:14.000Z</time>
      </trkpt>
      <trkpt lat="45.00919" lon="5.49838">
        <ele>1346.4000244141</ele>
        <time>2024-07-14T08:32:15.000Z</time>
      </trkpt>
      <trkpt lat="45.00918" lon="5.49837">
        <ele>1346.8000488281</ele>
        <time>2024-07-14T08:32:16.000Z</time>
      </trkpt>
      <trkpt lat="45.00916" lon="5.49836">
        <ele>1347</ele>
        <time>2024-07-14T08:32:17.000Z</time>
      </trkpt>
      <trkpt lat="45.00915" lon="5.49835">
        <ele>1347.1999511719</ele>
        <time>2024-07-14T08:32:18.000Z</time>
      </trkpt>
      <trkpt lat="45.00913" lon="5.49835">
        <ele>1347.4000244141</ele>
        <time>2024-07-14T08:32:19.000Z</time>
      </trkpt>
      <trkpt lat="45.00912" lon="5.49834">
        <ele>1347.5999755859</ele>
        <time>2024-07-14T08:32:20.000Z</time>
      </trkpt>
      <trkpt lat="45.0091" lon="5.49833">
        <ele>1347.8000488281</ele>
        <time>2024-07-14T08:32:21.000Z</time>
      </trkpt>
      <trkpt lat="45.00909" lon="5.49833">
        <ele>1348</ele>
        <time>2024-07-14T08:32:22.000Z</time>
      </trkpt>
      <trkpt lat="45.00908" lon="5.49833">
        <ele>1348.1999511719</ele>
        <time>2024-07-14T08:32:23.000Z</time>
      </trkpt>
      <trkpt lat="45.00906" lon="5.49833">
        <ele>1348.5999755859</ele>
        <time>2024-07-14T08:32:24.000Z</time>
      </trkpt>
      <trkpt lat="45.00905" lon="5.49833">
        <ele>1348.5999755859</ele>
        <time>2024-07-14T08:32:25.000Z</time>
      </trkpt>
      <trkpt lat="45.00903" lon="5.49832">
        <ele>1349</ele>
        <time>2024-07-14T08:32:26.000Z</time>
      </trkpt>
      <trkpt lat="45.00901" lon="5.49832">
        <ele>1349.1999511719</ele>
        <time>2024-07-14T08:32:27.000Z</time>
      </trkpt>
      <trkpt lat="45.00899" lon="5.49832">
        <ele>1349.4000244141</ele>
        <time>2024-07-14T08:32:28.000Z</time>
      </trkpt>
      <trkpt lat="45.00898" lon="5.49831">
        <ele>1349.8000488281</ele>
        <time>2024-07-14T08:32:29.000Z</time>
      </trkpt>
      <trkpt lat="45.00896" lon="5.49831">
        <ele>1350</ele>
        <time>2024-07-14T08:32:30.000Z</time>
      </trkpt>
      <trkpt lat="45.00894" lon="5.49829">
        <ele>1350.4000244141</ele>
        <time>2024-07-14T08:32:31.000Z</time>
      </trkpt>
      <trkpt lat="45.00892" lon="5.49828">
        <ele>1350.4000244141</ele>
        <time>2024-07-14T08:32:32.000Z</time>
      </trkpt>
      <trkpt lat="45.00891" lon="5.49827">
        <ele>1350.5999755859</ele>
        <time>2024-07-14T08:32:33.000Z</time>
      </trkpt>
      <trkpt lat="45.0089" lon="5.49825">
        <ele>1350.8000488281</ele>
        <time>2024-07-14T08:32:34.000Z</time>
      </trkpt>
      <trkpt lat="45.00888" lon="5.49823">
        <ele>1351</ele>
        <time>2024-07-14T08:32:35.000Z</time>
      </trkpt>
      <trkpt lat="45.00886" lon="5.49821">
        <ele>1351.1999511719</ele>
        <time>2024-07-14T08:32:36.000Z</time>
      </trkpt>
      <trkpt lat="45.00885" lon="5.4982">
        <ele>1351.4000244141</ele>
        <time>2024-07-14T08:32:37.000Z</time>
      </trkpt>
      <trkpt lat="45.00883" lon="5.49817">
        <ele>1351.4000244141</ele>
        <time>2024-07-14T08:32:38.000Z</time>
      </trkpt>
      <trkpt lat="45.00882" lon="5.49815">
        <ele>1351.4000244141</ele>
        <time>2024-07-14T08:32:39.000Z</time>
      </trkpt>
      <trkpt lat="45.00881" lon="5.49813">
        <ele>1351.5999755859</ele>
        <time>2024-07-14T08:32:40.000Z</time>
      </trkpt>
      <trkpt lat="45.0088" lon="5.4981">
        <ele>1351.5999755859</ele>
        <time>2024-07-14T08:32:41.000Z</time>
      </trkpt>
      <trkpt lat="45.0088" lon="5.49808">
        <ele>1351.5999755859</ele>
        <time>2024-07-14T08:32:42.000Z</time>
      </trkpt>
      <trkpt lat="45.0088" lon="5.49806">
        <ele>1351.8000488281</ele>
        <time>2024-07-14T08:32:43.000Z</time>
      </trkpt>
      <trkpt lat="45.00881" lon="5.49803">
        <ele>1351.8000488281</ele>
        <time>2024-07-14T08:32:44.000Z</time>
      </trkpt>
      <trkpt lat="45.00882" lon="5.49799">
        <ele>1351.8000488281</ele>
        <time>2024-07-14T08:32:45.000Z</time>
      </trkpt>
      <trkpt lat="45.00883" lon="5.49796">
        <ele>1351.8000488281</ele>
        <time>2024-07-14T08:32:46.000Z</time>
      </trkpt>
      <trkpt lat="45.00884" lon="5.49794">
        <ele>1352</ele>
        <time>2024-07-14T08:32:47.000Z</time>
      </trkpt>
      <trkpt lat="45.00885" lon="5.49791">
        <ele>1352</ele>
        <time>2024-07-14T08:32:48.000Z</time>
      </trkpt>
      <trkpt lat="45.00887" lon="5.49788">
        <ele>1352</ele>
        <time>2024-07-14T08:32:49.000Z</time>
      </trkpt>
      <trkpt lat="45.00888" lon="5.49784">
        <ele>1351.8000488281</ele>
        <time>2024-07-14T08:32:50.000Z</time>
      </trkpt>
      <trkpt lat="45.00889" lon="5.49781">
        <ele>1351.8000488281</ele>
        <time>2024-07-14T08:32:51.000Z</time>
      </trkpt>
      <trkpt lat="45.0089" lon="5.49778">
        <ele>1351.5999755859</ele>
        <time>2024-07-14T08:32:52.000Z</time>
      </trkpt>
      <trkpt lat="45.00891" lon="5.49775">
        <ele>1351.4000244141</ele>
        <time>2024-07-14T08:32:53.000Z</time>
      </trkpt>
      <trkpt lat="45.00892" lon="5.49772">
        <ele>1351</ele>
        <time>2024-07-14T08:32:54.000Z</time>
      </trkpt>
      <trkpt lat="45.00893" lon="5.49768">
        <ele>1351</ele>
        <time>2024-07-14T08:32:55.000Z</time>
      </trkpt>
      <trkpt lat="45.00894" lon="5.49764">
        <ele>1350.8000488281</ele>
        <time>2024-07-14T08:32:56.000Z</time>
      </trkpt>
      <trkpt lat="45.00895" lon="5.4976">
        <ele>1350.8000488281</ele>
        <time>2024-07-14T08:32:57.000Z</time>
      </trkpt>
      <trkpt lat="45.00895" lon="5.49757">
        <ele>1350.8000488281</ele>
        <time>2024-07-14T08:32:58.000Z</time>
      </trkpt>
      <trkpt lat="45.00896" lon="5.49754">
        <ele>1350.8000488281</ele>
        <time>2024-07-14T08:32:59.000Z</time>
      </trkpt>
      <trkpt lat="45.00897" lon="5.49751">
        <ele>1350.5999755859</ele>
        <time>2024-07-14T08:33:00.000Z</time>
      </trkpt>
      <trkpt lat="45.00898" lon="5.49747">
        <ele>1350.5999755859</ele>
        <time>2024-07-14T08:33:01.000Z</time>
      </trkpt>
      <trkpt lat="45.00899" lon="5.49743">
        <ele>1350.5999755859</ele>
        <time>2024-07-14T08:33:02.000Z</time>
      </trkpt>
      <trkpt lat="45.009" lon="5.49739">
        <ele>1350.5999755859</ele>
        <time>2024-07-14T08:33:03.000Z</time>
      </trkpt>
      <trkpt lat="45.009" lon="5.49736">
        <ele>1350.8000488281</ele>
        <time>2024-07-14T08:33:04.000Z</time>
      </trkpt>
      <trkpt lat="45.00901" lon="5.49732">
        <ele>1350.8000488281</ele>
        <time>2024-07-14T08:33:05.000Z</time>
      </trkpt>
      <trkpt lat="45.00902" lon="5.49729">
        <ele>1350.8000488281</ele>
        <time>2024-07-14T08:33:06.000Z</time>
      </trkpt>
      <trkpt lat="45.00902" lon="5.49726">
        <ele>1350.8000488281</ele>
        <time>2024-07-14T08:33:07.000Z</time>
      </trkpt>
      <trkpt lat="45.00903" lon="5.49722">
        <ele>1351</ele>
        <time>2024-07-14T08:33:08.000Z</time>
      </trkpt>
      <trkpt lat="45.00904" lon="5.4972">
        <ele>1351</ele>
        <time>2024-07-14T08:33:09.000Z</time>
      </trkpt>
      <trkpt lat="45.00905" lon="5.49717">
        <ele>1351.1999511719</ele>
        <time>2024-07-14T08:33:10.000Z</time>
      </trkpt>
      <trkpt lat="45.00906" lon="5.49714">
        <ele>1351.1999511719</ele>
        <time>2024-07-14T08:33:11.000Z</time>
      </trkpt>
      <trkpt lat="45.00907" lon="5.49711">
        <ele>1351.1999511719</ele>
        <time>2024-07-14T08:33:12.000Z</time>
      </trkpt>
      <trkpt lat="45.00908" lon="5.49709">
        <ele>1351.4000244141</ele>
        <time>2024-07-14T08:33:13.000Z</time>
      </trkpt>
      <trkpt lat="45.00909" lon="5.49705">
        <ele>1351.5999755859</ele>
        <time>2024-07-14T08:33:14.000Z</time>
      </trkpt>
      <trkpt lat="45.00911" lon="5.49702">
        <ele>1351.5999755859</ele>
        <time>2024-07-14T08:33:15.000Z</time>
      </trkpt>
      <trkpt lat="45.00912" lon="5.49699">
        <ele>1351.8000488281</ele>
        <time>2024-07-14T08:33:16.000Z</time>
      </trkpt>
      <trkpt lat="45.00914" lon="5.49697">
        <ele>1352</ele>
        <time>2024-07-14T08:33:17.000Z</time>
      </trkpt>
      <trkpt lat="45.00915" lon="5.49695">
        <ele>1352.1999511719</ele>
        <time>2024-07-14T08:33:18.000Z</time>
      </trkpt>
      <trkpt lat="45.00916" lon="5.49693">
        <ele>1352.4000244141</ele>
        <time>2024-07-14T08:33:19.000Z</time>
      </trkpt>
      <trkpt lat="45.00918" lon="5.49691">
        <ele>1352.8000488281</ele>
        <time>2024-07-14T08:33:20.000Z</time>
      </trkpt>
      <trkpt lat="45.00921" lon="5.4969">
        <ele>1353</ele>
        <time>2024-07-14T08:33:21.000Z</time>
      </trkpt>
      <trkpt lat="45.00922" lon="5.49689">
        <ele>1353.1999511719</ele>
        <time>2024-07-14T08:33:22.000Z</time>
      </trkpt>
      <trkpt lat="45.00924" lon="5.49688">
        <ele>1353.4000244141</ele>
        <time>2024-07-14T08:33:23.000Z</time>
      </trkpt>
      <trkpt lat="45.00926" lon="5.49686">
        <ele>1353.4000244141</ele>
        <time>2024-07-14T08:33:24.000Z</time>
      </trkpt>
      <trkpt lat="45.00928" lon="5.49685">
        <ele>1353.8000488281</ele>
        <time>2024-07-14T08:33:25.000Z</time>
      </trkpt>
      <trkpt lat="45.00931" lon="5.49684">
        <ele>1353.8000488281</ele>
        <time>2024-07-14T08:33:26.000Z</time>
      </trkpt>
      <trkpt lat="45.00933" lon="5.49684">
        <ele>1353.8000488281</ele>
        <time>2024-07-14T08:33:27.000Z</time>
      </trkpt>
      <trkpt lat="45.00935" lon="5.49683">
        <ele>1354</ele>
        <time>2024-07-14T08:33:28.000Z</time>
      </trkpt>
      <trkpt lat="45.00937" lon="5.49682">
        <ele>1354</ele>
        <time>2024-07-14T08:33:29.000Z</time>
      </trkpt>
      <trkpt lat="45.00939" lon="5.49682">
        <ele>1354</ele>
        <time>2024-07-14T08:33:30.000Z</time>
      </trkpt>
      <trkpt lat="45.00941" lon="5.49681">
        <ele>1354</ele>
        <time>2024-07-14T08:33:31.000Z</time>
      </trkpt>
      <trkpt lat="45.00944" lon="5.49681">
        <ele>1354</ele>
        <time>2024-07-14T08:33:32.000Z</time>
      </trkpt>
      <trkpt lat="45.00946" lon="5.4968">
        <ele>1353.8000488281</ele>
        <time>2024-07-14T08:33:33.000Z</time>
      </trkpt>
      <trkpt lat="45.00949" lon="5.4968">
        <ele>1353.5999755859</ele>
        <time>2024-07-14T08:33:34.000Z</time>
      </trkpt>
      <trkpt lat="45.00951" lon="5.49679">
        <ele>1353.4000244141</ele>
        <time>2024-07-14T08:33:35.000Z</time>
      </trkpt>
      <trkpt lat="45.00954" lon="5.49679">
        <ele>1353.1999511719</ele>
        <time>2024-07-14T08:33:36.000Z</time>
      </trkpt>
      <trkpt lat="45.00956" lon="5.49679">
        <ele>1353.1999511719</ele>
        <time>2024-07-14T08:33:37.000Z</time>
      </trkpt>
      <trkpt lat="45.00959" lon="5.49678">
        <ele>1353.1999511719</ele>
        <time>2024-07-14T08:33:38.000Z</time>
      </trkpt>
      <trkpt lat="45.00961" lon="5.49678">
        <ele>1353.1999511719</ele>
        <time>2024-07-14T08:33:39.000Z</time>
      </trkpt>
      <trkpt lat="45.00963" lon="5.49678">
        <ele>1353.1999511719</ele>
        <time>2024-07-14T08:33:40.000Z</time>
      </trkpt>
      <trkpt lat="45.00966" lon="5.49677">
        <ele>1353.1999511719</ele>
        <time>2024-07-14T08:33:41.000Z</time>
      </trkpt>
      <trkpt lat="45.00968" lon="5.49677">
        <ele>1353.1999511719</ele>
        <time>2024-07-14T08:33:42.000Z</time>
      </trkpt>
      <trkpt lat="45.00971" lon="5.49676">
        <ele>1353.1999511719</ele>
        <time>2024-07-14T08:33:43.000Z</time>
      </trkpt>
      <trkpt lat="45.00973" lon="5.49676">
        <ele>1353.4000244141</ele>
        <time>2024-07-14T08:33:44.000Z</time>
      </trkpt>
      <trkpt lat="45.00975" lon="5.49676">
        <ele>1353.4000244141</ele>
        <time>2024-07-14T08:33:45.000Z</time>
      </trkpt>
      <trkpt lat="45.00977" lon="5.49676">
        <ele>1353.4000244141</ele>
        <time>2024-07-14T08:33:46.000Z</time>
      </trkpt>
      <trkpt lat="45.0098" lon="5.49676">
        <ele>1353.5999755859</ele>
        <time>2024-07-14T08:33:47.000Z</time>
      </trkpt>
      <trkpt lat="45.00982" lon="5.49676">
        <ele>1353.5999755859</ele>
        <time>2024-07-14T08:33:48.000Z</time>
      </trkpt>
      <trkpt lat="45.00985" lon="5.49676">
        <ele>1353.8000488281</ele>
        <time>2024-07-14T08:33:49.000Z</time>
      </trkpt>
      <trkpt lat="45.00987" lon="5.49676">
        <ele>1354</ele>
        <time>2024-07-14T08:33:50.000Z</time>
      </trkpt>
      <trkpt lat="45.0099" lon="5.49676">
        <ele>1354.1999511719</ele>
        <time>2024-07-14T08:33:51.000Z</time>
      </trkpt>
      <trkpt lat="45.00992" lon="5.49676">
        <ele>1354.1999511719</ele>
        <time>2024-07-14T08:33:52.000Z</time>
      </trkpt>
      <trkpt lat="45.00994" lon="5.49676">
        <ele>1354.1999511719</ele>
        <time>2024-07-14T08:33:53.000Z</time>
      </trkpt>
      <trkpt lat="45.00996" lon="5.49677">
        <ele>1354.1999511719</ele>
        <time>2024-07-14T08:33:54.000Z</time>
      </trkpt>
      <trkpt lat="45.00999" lon="5.49677">
        <ele>1354.1999511719</ele>
        <time>2024-07-14T08:33:55.000Z</time>
      </trkpt>
      <trkpt lat="45.01001" lon="5.49678">
        <ele>1354.1999511719</ele>
        <time>2024-07-14T08:33:56.000Z</time>
      </trkpt>
      <trkpt lat="45.01004" lon="5.49679">
        <ele>1354.4000244141</ele>
        <time>2024-07-14T08:33:57.000Z</time>
      </trkpt>
      <trkpt lat="45.01006" lon="5.49679">
        <ele>1354.4000244141</ele>
        <time>2024-07-14T08:33:58.000Z</time>
      </trkpt>
      <trkpt lat="45.01008" lon="5.4968">
        <ele>1354.4000244141</ele>
        <time>2024-07-14T08:33:59.000Z</time>
      </trkpt>
      <trkpt lat="45.01011" lon="5.49681">
        <ele>1354.4000244141</ele>
        <time>2024-07-14T08:34:00.000Z</time>
      </trkpt>
      <trkpt lat="45.01014" lon="5.49682">
        <ele>1354.5999755859</ele>
        <time>2024-07-14T08:34:01.000Z</time>
      </trkpt>
      <trkpt lat="45.01016" lon="5.49684">
        <ele>1354.8000488281</ele>
        <time>2024-07-14T08:34:02.000Z</time>
      </trkpt>
      <trkpt lat="45.01019" lon="5.49686">
        <ele>1354.8000488281</ele>
        <time>2024-07-14T08:34:03.000Z</time>
      </trkpt>
      <trkpt lat="45.01021" lon="5.49687">
        <ele>1354.8000488281</ele>
        <time>2024-07-14T08:34:04.000Z</time>
      </trkpt>
      <trkpt lat="45.01023" lon="5.49689">
        <ele>1355</ele>
        <time>2024-07-14T08:34:05.000Z</time>
      </trkpt>
      <trkpt lat="45.01025" lon="5.49691">
        <ele>1355</ele>
        <time>2024-07-14T08:34:06.000Z</time>
      </trkpt>
      <trkpt lat="45.01027" lon="5.49692">
        <ele>1355.1999511719</ele>
        <time>2024-07-14T08:34:07.000Z</time>
      </trkpt>
      <trkpt lat="45.0103" lon="5.49693">
        <ele>1355.1999511719</ele>
        <time>2024-07-14T08:34:08.000Z</time>
      </trkpt>
      <trkpt lat="45.01032" lon="5.49694">
        <ele>1355.1999511719</ele>
        <time>2024-07-14T08:34:09.000Z</time>
      </trkpt>
      <trkpt lat="45.01034" lon="5.49695">
        <ele>1355</ele>
        <time>2024-07-14T08:34:10.000Z</time>
      </trkpt>
      <trkpt lat="45.01037" lon="5.49696">
        <ele>1354.5999755859</ele>
        <time>2024-07-14T08:34:11.000Z</time>
      </trkpt>
      <trkpt lat="45.01039" lon="5.49697">
        <ele>1354.1999511719</ele>
        <time>2024-07-14T08:34:12.000Z</time>
      </trkpt>
      <trkpt lat="45.01042" lon="5.49697">
        <ele>1354</ele>
        <time>2024-07-14T08:34:13.000Z</time>
      </trkpt>
      <trkpt lat="45.01044" lon="5.49697">
        <ele>1354</ele>
        <time>2024-07-14T08:34:14.000Z</time>
      </trkpt>
      <trkpt lat="45.01047" lon="5.49697">
        <ele>1353.8000488281</ele>
        <time>2024-07-14T08:34:15.000Z</time>
      </trkpt>
      <trkpt lat="45.01049" lon="5.49697">
        <ele>1353.4000244141</ele>
        <time>2024-07-14T08:34:16.000Z</time>
      </trkpt>
      <trkpt lat="45.01052" lon="5.49697">
        <ele>1353.1999511719</ele>
        <time>2024-07-14T08:34:17.000Z</time>
      </trkpt>
      <trkpt lat="45.01054" lon="5.49696">
        <ele>1352.8000488281</ele>
        <time>2024-07-14T08:34:18.000Z</time>
      </trkpt>
      <trkpt lat="45.01056" lon="5.49696">
        <ele>1352.8000488281</ele>
        <time>2024-07-14T08:34:19.000Z</time>
      </trkpt>
      <trkpt lat="45.01059" lon="5.49696">
        <ele>1352.5999755859</ele>
        <time>2024-07-14T08:34:20.000Z</time>
      </trkpt>
      <trkpt lat="45.01062" lon="5.49696">
        <ele>1352.4000244141</ele>
        <time>2024-07-14T08:34:21.000Z</time>
      </trkpt>
      <trkpt lat="45.01065" lon="5.49696">
        <ele>1352.1999511719</ele>
        <time>2024-07-14T08:34:22.000Z</time>
      </trkpt>
      <trkpt lat="45.01068" lon="5.49696">
        <ele>1352</ele>
        <time>2024-07-14T08:34:23.000Z</time>
      </trkpt>
      <trkpt lat="45.01071" lon="5.49696">
        <ele>1351.8000488281</ele>
        <time>2024-07-14T08:34:24.000Z</time>
      </trkpt>
      <trkpt lat="45.01073" lon="5.49696">
        <ele>1351.5999755859</ele>
        <time>2024-07-14T08:34:25.000Z</time>
      </trkpt>
      <trkpt lat="45.01077" lon="5.49697">
        <ele>1351.4000244141</ele>
        <time>2024-07-14T08:34:26.000Z</time>
      </trkpt>
      <trkpt lat="45.01079" lon="5.49698">
        <ele>1351</ele>
        <time>2024-07-14T08:34:27.000Z</time>
      </trkpt>
      <trkpt lat="45.01083" lon="5.49698">
        <ele>1350.8000488281</ele>
        <time>2024-07-14T08:34:28.000Z</time>
      </trkpt>
      <trkpt lat="45.01085" lon="5.49699">
        <ele>1350.1999511719</ele>
        <time>2024-07-14T08:34:29.000Z</time>
      </trkpt>
      <trkpt lat="45.01088" lon="5.497">
        <ele>1349.8000488281</ele>
        <time>2024-07-14T08:34:30.000Z</time>
      </trkpt>
      <trkpt lat="45.01091" lon="5.49701">
        <ele>1349.4000244141</ele>
        <time>2024-07-14T08:34:31.000Z</time>
      </trkpt>
      <trkpt lat="45.01094" lon="5.49702">
        <ele>1349</ele>
        <time>2024-07-14T08:34:32.000Z</time>
      </trkpt>
      <trkpt lat="45.01098" lon="5.49703">
        <ele>1348.8000488281</ele>
        <time>2024-07-14T08:34:33.000Z</time>
      </trkpt>
      <trkpt lat="45.011" lon="5.49704">
        <ele>1348.5999755859</ele>
        <time>2024-07-14T08:34:34.000Z</time>
      </trkpt>
      <trkpt lat="45.01104" lon="5.49706">
        <ele>1348.5999755859</ele>
        <time>2024-07-14T08:34:35.000Z</time>
      </trkpt>
      <trkpt lat="45.01107" lon="5.49707">
        <ele>1348.1999511719</ele>
        <time>2024-07-14T08:34:36.000Z</time>
      </trkpt>
      <trkpt lat="45.0111" lon="5.49708">
        <ele>1348</ele>
        <time>2024-07-14T08:34:37.000Z</time>
      </trkpt>
      <trkpt lat="45.01113" lon="5.49709">
        <ele>1347.8000488281</ele>
        <time>2024-07-14T08:34:38.000Z</time>
      </trkpt>
      <trkpt lat="45.01115" lon="5.4971">
        <ele>1347.5999755859</ele>
        <time>2024-07-14T08:34:39.000Z</time>
      </trkpt>
      <trkpt lat="45.01119" lon="5.4971">
        <ele>1347.5999755859</ele>
        <time>2024-07-14T08:34:40.000Z</time>
      </trkpt>
      <trkpt lat="45.01122" lon="5.49711">
        <ele>1347.4000244141</ele>
        <time>2024-07-14T08:34:41.000Z</time>
      </trkpt>
      <trkpt lat="45.01124" lon="5.49712">
        <ele>1347.1999511719</ele>
        <time>2024-07-14T08:34:42.000Z</time>
      </trkpt>
      <trkpt lat="45.01127" lon="5.49713">
        <ele>1347</ele>
        <time>2024-07-14T08:34:43.000Z</time>
      </trkpt>
      <trkpt lat="45.0113" lon="5.49713">
        <ele>1346.8000488281</ele>
        <time>2024-07-14T08:34:44.000Z</time>
      </trkpt>
      <trkpt lat="45.01132" lon="5.49714">
        <ele>1346.8000488281</ele>
        <time>2024-07-14T08:34:45.000Z</time>
      </trkpt>
      <trkpt lat="45.01135" lon="5.49715">
        <ele>1346.8000488281</ele>
        <time>2024-07-14T08:34:46.000Z</time>
      </trkpt>
      <trkpt lat="45.01137" lon="5.49715">
        <ele>1346.5999755859</ele>
        <time>2024-07-14T08:34:47.000Z</time>
      </trkpt>
      <trkpt lat="45.0114" lon="5.49716">
        <ele>1346.4000244141</ele>
        <time>2024-07-14T08:34:48.000Z</time>
      </trkpt>
      <trkpt lat="45.01143" lon="5.49716">
        <ele>1346.1999511719</ele>
        <time>2024-07-14T08:34:49.000Z</time>
      </trkpt>
      <trkpt lat="45.01145" lon="5.49717">
        <ele>1346.1999511719</ele>
        <time>2024-07-14T08:34:50.000Z</time>
      </trkpt>
      <trkpt lat="45.01148" lon="5.49718">
        <ele>1346</ele>
        <time>2024-07-14T08:34:51.000Z</time>
      </trkpt>
      <trkpt lat="45.01151" lon="5.49719">
        <ele>1345.8000488281</ele>
        <time>2024-07-14T08:34:52.000Z</time>
      </trkpt>
      <trkpt lat="45.01153" lon="5.4972">
        <ele>1345.5999755859</ele>
        <time>2024-07-14T08:34:53.000Z</time>
      </trkpt>
      <trkpt lat="45.01156" lon="5.49722">
        <ele>1345.5999755859</ele>
        <time>2024-07-14T08:34:54.000Z</time>
      </trkpt>
      <trkpt lat="45.01159" lon="5.49724">
        <ele>1345.4000244141</ele>
        <time>2024-07-14T08:34:55.000Z</time>
      </trkpt>
      <trkpt lat="45.01162" lon="5.49726">
        <ele>1345.1999511719</ele>
        <time>2024-07-14T08:34:56.000Z</time>
      </trkpt>
      <trkpt lat="45.01165" lon="5.49729">
        <ele>1345</ele>
        <time>2024-07-14T08:34:57.000Z</time>
      </trkpt>
      <trkpt lat="45.01168" lon="5.49733">
        <ele>1344.8000488281</ele>
        <time>2024-07-14T08:34:58.000Z</time>
      </trkpt>
      <trkpt lat="45.01171" lon="5.49737">
        <ele>1344.5999755859</ele>
        <time>2024-07-14T08:34:59.000Z</time>
      </trkpt>
      <trkpt lat="45.01172" lon="5.4974">
        <ele>1344.4000244141</ele>
        <time>2024-07-14T08:35:00.000Z</time>
      </trkpt>
      <trkpt lat="45.01173" lon="5.49743">
        <ele>1344.1999511719</ele>
        <time>2024-07-14T08:35:01.000Z</time>
      </trkpt>
      <trkpt lat="45.01173" lon="5.49745">
        <ele>1344</ele>
        <time>2024-07-14T08:35:02.000Z</time>
      </trkpt>
      <trkpt lat="45.01172" lon="5.49746">
        <ele>1343.8000488281</ele>
        <time>2024-07-14T08:35:03.000Z</time>
      </trkpt>
      <trkpt lat="45.01172" lon="5.49747">
        <ele>1343.5999755859</ele>
        <time>2024-07-14T08:35:04.000Z</time>
      </trkpt>
      <trkpt lat="45.01171" lon="5.49749">
        <ele>1342.8000488281</ele>
        <time>2024-07-14T08:35:05.000Z</time>
      </trkpt>
      <trkpt lat="45.01171" lon="5.49749">
        <ele>1342.8000488281</ele>
        <time>2024-07-14T08:35:06.000Z</time>
      </trkpt>
      <trkpt lat="45.01171" lon="5.49749">
        <ele>1342.8000488281</ele>
        <time>2024-07-14T08:35:07.000Z</time>
      </trkpt>
      <trkpt lat="45.0117" lon="5.49749">
        <ele>1342.8000488281</ele>
        <time>2024-07-14T08:35:08.000Z</time>
      </trkpt>
      <trkpt lat="45.0117" lon="5.4975">
        <ele>1342.8000488281</ele>
        <time>2024-07-14T08:35:09.000Z</time>
      </trkpt>
      <trkpt lat="45.0117" lon="5.49749">
        <ele>1342.8000488281</ele>
        <time>2024-07-14T08:35:10.000Z</time>
      </trkpt>
      <trkpt lat="45.0117" lon="5.4975">
        <ele>1342.8000488281</ele>
        <time>2024-07-14T08:35:11.000Z</time>
      </trkpt>
      <trkpt lat="45.0117" lon="5.49749">
        <ele>1342.8000488281</ele>
        <time>2024-07-14T08:35:12.000Z</time>
      </trkpt>
      <trkpt lat="45.0117" lon="5.4975">
        <ele>1342.8000488281</ele>
        <time>2024-07-14T08:35:13.000Z</time>
      </trkpt>
      <trkpt lat="45.0117" lon="5.4975">
        <ele>1342.8000488281</ele>
        <time>2024-07-14T08:35:14.000Z</time>
      </trkpt>
      <trkpt lat="45.01169" lon="5.49751">
        <ele>1342.8000488281</ele>
        <time>2024-07-14T08:35:15.000Z</time>
      </trkpt>
      <trkpt lat="45.01169" lon="5.49751">
        <ele>1342.8000488281</ele>
        <time>2024-07-14T08:35:16.000Z</time>
      </trkpt>
      <trkpt lat="45.01168" lon="5.49752">
        <ele>1342.8000488281</ele>
        <time>2024-07-14T08:35:17.000Z</time>
      </trkpt>
      <trkpt lat="45.01168" lon="5.49752">
        <ele>1342.8000488281</ele>
        <time>2024-07-14T08:35:18.000Z</time>
      </trkpt>
      <trkpt lat="45.01167" lon="5.49752">
        <ele>1342.8000488281</ele>
        <time>2024-07-14T08:35:19.000Z</time>
      </trkpt>
      <trkpt lat="45.01167" lon="5.49752">
        <ele>1342.8000488281</ele>
        <time>2024-07-14T08:35:20.000Z</time>
      </trkpt>
      <trkpt lat="45.01167" lon="5.49752">
        <ele>1342.8000488281</ele>
        <time>2024-07-14T08:35:21.000Z</time>
      </trkpt>
      <trkpt lat="45.01168" lon="5.4975">
        <ele>1342.8000488281</ele>
        <time>2024-07-14T08:35:22.000Z</time>
      </trkpt>
      <trkpt lat="45.01168" lon="5.49749">
        <ele>1342.8000488281</ele>
        <time>2024-07-14T08:35:23.000Z</time>
      </trkpt>
      <trkpt lat="45.0117" lon="5.49747">
        <ele>1342.8000488281</ele>
        <time>2024-07-14T08:35:24.000Z</time>
      </trkpt>
      <trkpt lat="45.01172" lon="5.49747">
        <ele>1342.8000488281</ele>
        <time>2024-07-14T08:35:25.000Z</time>
      </trkpt>
      <trkpt lat="45.01173" lon="5.49747">
        <ele>1343</ele>
        <time>2024-07-14T08:35:26.000Z</time>
      </trkpt>
      <trkpt lat="45.01175" lon="5.49748">
        <ele>1343.1999511719</ele>
        <time>2024-07-14T08:35:27.000Z</time>
      </trkpt>
      <trkpt lat="45.01178" lon="5.4975">
        <ele>1343.1999511719</ele>
        <time>2024-07-14T08:35:28.000Z</time>
      </trkpt>
      <trkpt lat="45.0118" lon="5.49752">
        <ele>1343.1999511719</ele>
        <time>2024-07-14T08:35:29.000Z</time>
      </trkpt>
      <trkpt lat="45.01182" lon="5.49755">
        <ele>1343.1999511719</ele>
        <time>2024-07-14T08:35:30.000Z</time>
      </trkpt>
      <trkpt lat="45.01183" lon="5.49758">
        <ele>1343.1999511719</ele>
        <time>2024-07-14T08:35:31.000Z</time>
      </trkpt>
      <trkpt lat="45.01185" lon="5.4976">
        <ele>1343.4000244141</ele>
        <time>2024-07-14T08:35:32.000Z</time>
      </trkpt>
      <trkpt lat="45.01186" lon="5.49763">
        <ele>1343.4000244141</ele>
        <time>2024-07-14T08:35:33.000Z</time>
      </trkpt>
      <trkpt lat="45.01188" lon="5.49765">
        <ele>1343.4000244141</ele>
        <time>2024-07-14T08:35:34.000Z</time>
      </trkpt>
      <trkpt lat="45.01189" lon="5.49768">
        <ele>1343.5999755859</ele>
        <time>2024-07-14T08:35:35.000Z</time>
      </trkpt>
      <trkpt lat="45.01189" lon="5.49771">
        <ele>1343.8000488281</ele>
        <time>2024-07-14T08:35:36.000Z</time>
      </trkpt>
      <trkpt lat="45.0119" lon="5.49774">
        <ele>1343.8000488281</ele>
        <time>2024-07-14T08:35:37.000Z</time>
      </trkpt>
      <trkpt lat="45.01192" lon="5.49777">
        <ele>1343.8000488281</ele>
        <time>2024-07-14T08:35:38.000Z</time>
      </trkpt>
      <trkpt lat="45.01192" lon="5.49779">
        <ele>1344</ele>
        <time>2024-07-14T08:35:39.000Z</time>
      </trkpt>
      <trkpt lat="45.01193" lon="5.49782">
        <ele>1344</ele>
        <time>2024-07-14T08:35:40.000Z</time>
      </trkpt>
      <trkpt lat="45.01194" lon="5.49785">
        <ele>1344</ele>
        <time>2024-07-14T08:35:41.000Z</time>
      </trkpt>
      <trkpt lat="45.01195" lon="5.49787">
        <ele>1344.1999511719</ele>
        <time>2024-07-14T08:35:42.000Z</time>
      </trkpt>
      <trkpt lat="45.01197" lon="5.49791">
        <ele>1344.1999511719</ele>
        <time>2024-07-14T08:35:43.000Z</time>
      </trkpt>
      <trkpt lat="45.01198" lon="5.49793">
        <ele>1344.4000244141</ele>
        <time>2024-07-14T08:35:44.000Z</time>
      </trkpt>
      <trkpt lat="45.01199" lon="5.49796">
        <ele>1344.4000244141</ele>
        <time>2024-07-14T08:35:45.000Z</time>
      </trkpt>
      <trkpt lat="45.01201" lon="5.49799">
        <ele>1344.8000488281</ele>
        <time>2024-07-14T08:35:46.000Z</time>
      </trkpt>
      <trkpt lat="45.01202" lon="5.49801">
        <ele>1344.8000488281</ele>
        <time>2024-07-14T08:35:47.000Z</time>
      </trkpt>
      <trkpt lat="45.01203" lon="5.49804">
        <ele>1344.8000488281</ele>
        <time>2024-07-14T08:35:48.000Z</time>
      </trkpt>
      <trkpt lat="45.01204" lon="5.49808">
        <ele>1345</ele>
        <time>2024-07-14T08:35:49.000Z</time>
      </trkpt>
      <trkpt lat="45.01205" lon="5.49811">
        <ele>1345</ele>
        <time>2024-07-14T08:35:50.000Z</time>
      </trkpt>
      <trkpt lat="45.01206" lon="5.49815">
        <ele>1345.4000244141</ele>
        <time>2024-07-14T08:35:51.000Z</time>
      </trkpt>
      <trkpt lat="45.01206" lon="5.49818">
        <ele>1345.5999755859</ele>
        <time>2024-07-14T08:35:52.000Z</time>
      </trkpt>
      <trkpt lat="45.01207" lon="5.4982">
        <ele>1345.8000488281</ele>
        <time>2024-07-14T08:35:53.000Z</time>
      </trkpt>
      <trkpt lat="45.01207" lon="5.49823">
        <ele>1346.1999511719</ele>
        <time>2024-07-14T08:35:54.000Z</time>
      </trkpt>
      <trkpt lat="45.01207" lon="5.49826">
        <ele>1346.4000244141</ele>
        <time>2024-07-14T08:35:55.000Z</time>
      </trkpt>
      <trkpt lat="45.01207" lon="5.4983">
        <ele>1346.5999755859</ele>
        <time>2024-07-14T08:35:56.000Z</time>
      </trkpt>
      <trkpt lat="45.01207" lon="5.49834">
        <ele>1346.8000488281</ele>
        <time>2024-07-14T08:35:57.000Z</time>
      </trkpt>
      <trkpt lat="45.01207" lon="5.49838">
        <ele>1346.8000488281</ele>
        <time>2024-07-14T08:35:58.000Z</time>
      </trkpt>
      <trkpt lat="45.01207" lon="5.49841">
        <ele>1346.8000488281</ele>
        <time>2024-07-14T08:35:59.000Z</time>
      </trkpt>
      <trkpt lat="45.01208" lon="5.49844">
        <ele>1346.8000488281</ele>
        <time>2024-07-14T08:36:00.000Z</time>
      </trkpt>
      <trkpt lat="45.01208" lon="5.49847">
        <ele>1346.8000488281</ele>
        <time>2024-07-14T08:36:01.000Z</time>
      </trkpt>
      <trkpt lat="45.01209" lon="5.4985">
        <ele>1346.4000244141</ele>
        <time>2024-07-14T08:36:02.000Z</time>
      </trkpt>
      <trkpt lat="45.0121" lon="5.49854">
        <ele>1346.1999511719</ele>
        <time>2024-07-14T08:36:03.000Z</time>
      </trkpt>
      <trkpt lat="45.01211" lon="5.49856">
        <ele>1346</ele>
        <time>2024-07-14T08:36:04.000Z</time>
      </trkpt>
      <trkpt lat="45.01213" lon="5.49859">
        <ele>1345.8000488281</ele>
        <time>2024-07-14T08:36:05.000Z</time>
      </trkpt>
      <trkpt lat="45.01214" lon="5.49861">
        <ele>1345.5999755859</ele>
        <time>2024-07-14T08:36:06.000Z</time>
      </trkpt>
      <trkpt lat="45.01216" lon="5.49862">
        <ele>1345.1999511719</ele>
        <time>2024-07-14T08:36:07.000Z</time>
      </trkpt>
      <trkpt lat="45.01218" lon="5.49864">
        <ele>1344.4000244141</ele>
        <time>2024-07-14T08:36:08.000Z</time>
      </trkpt>
      <trkpt lat="45.0122" lon="5.49865">
        <ele>1344.4000244141</ele>
        <time>2024-07-14T08:36:09.000Z</time>
      </trkpt>
      <trkpt lat="45.01223" lon="5.49866">
        <ele>1344.1999511719</ele>
        <time>2024-07-14T08:36:10.000Z</time>
      </trkpt>
      <trkpt lat="45.01225" lon="5.49866">
        <ele>1343.8000488281</ele>
        <time>2024-07-14T08:36:11.000Z</time>
      </trkpt>
      <trkpt lat="45.01227" lon="5.49866">
        <ele>1343.4000244141</ele>
        <time>2024-07-14T08:36:12.000Z</time>
      </trkpt>
      <trkpt lat="45.01229" lon="5.49866">
        <ele>1343</ele>
        <time>2024-07-14T08:36:13.000Z</time>
      </trkpt>
      <trkpt lat="45.01231" lon="5.49866">
        <ele>1342.5999755859</ele>
        <time>2024-07-14T08:36:14.000Z</time>
      </trkpt>
      <trkpt lat="45.01234" lon="5.49866">
        <ele>1342.5999755859</ele>
        <time>2024-07-14T08:36:15.000Z</time>
      </trkpt>
      <trkpt lat="45.01236" lon="5.49867">
        <ele>1342.1999511719</ele>
        <time>2024-07-14T08:36:16.000Z</time>
      </trkpt>
      <trkpt lat="45.01238" lon="5.49868">
        <ele>1341.5999755859</ele>
        <time>2024-07-14T08:36:17.000Z</time>
      </trkpt>
      <trkpt lat="45.0124" lon="5.4987">
        <ele>1341.1999511719</ele>
        <time>2024-07-14T08:36:18.000Z</time>
      </trkpt>
      <trkpt lat="45.01241" lon="5.49873">
        <ele>1341.1999511719</ele>
        <time>2024-07-14T08:36:19.000Z</time>
      </trkpt>
      <trkpt lat="45.01242" lon="5.49877">
        <ele>1341</ele>
        <time>2024-07-14T08:36:20.000Z</time>
      </trkpt>
      <trkpt lat="45.01242" lon="5.4988">
        <ele>1340.8000488281</ele>
        <time>2024-07-14T08:36:21.000Z</time>
      </trkpt>
      <trkpt lat="45.01242" lon="5.49885">
        <ele>1340.4000244141</ele>
        <time>2024-07-14T08:36:22.000Z</time>
      </trkpt>
      <trkpt lat="45.01242" lon="5.49889">
        <ele>1340.1999511719</ele>
        <time>2024-07-14T08:36:23.000Z</time>
      </trkpt>
      <trkpt lat="45.01241" lon="5.49894">
        <ele>1339.8000488281</ele>
        <time>2024-07-14T08:36:24.000Z</time>
      </trkpt>
      <trkpt lat="45.0124" lon="5.49898">
        <ele>1339.1999511719</ele>
        <time>2024-07-14T08:36:25.000Z</time>
      </trkpt>
      <trkpt lat="45.01238" lon="5.49902">
        <ele>1338.5999755859</ele>
        <time>2024-07-14T08:36:26.000Z</time>
      </trkpt>
      <trkpt lat="45.01236" lon="5.49906">
        <ele>1338.4000244141</ele>
        <time>2024-07-14T08:36:27.000Z</time>
      </trkpt>
      <trkpt lat="45.01234" lon="5.4991">
        <ele>1338</ele>
        <time>2024-07-14T08:36:28.000Z</time>
      </trkpt>
      <trkpt lat="45.01232" lon="5.49913">
        <ele>1337.8000488281</ele>
        <time>2024-07-14T08:36:29.000Z</time>
      </trkpt>
      <trkpt lat="45.0123" lon="5.49915">
        <ele>1337.4000244141</ele>
        <time>2024-07-14T08:36:30.000Z</time>
      </trkpt>
      <trkpt lat="45.01228" lon="5.49918">
        <ele>1337.4000244141</ele>
        <time>2024-07-14T08:36:31.000Z</time>
      </trkpt>
      <trkpt lat="45.01226" lon="5.4992">
        <ele>1337</ele>
        <time>2024-07-14T08:36:32.000Z</time>
      </trkpt>
      <trkpt lat="45.01223" lon="5.49923">
        <ele>1336.5999755859</ele>
        <time>2024-07-14T08:36:33.000Z</time>
      </trkpt>
      <trkpt lat="45.01221" lon="5.49925">
        <ele>1336.4000244141</ele>
        <time>2024-07-14T08:36:34.000Z</time>
      </trkpt>
      <trkpt lat="45.01219" lon="5.49928">
        <ele>1336.1999511719</ele>
        <time>2024-07-14T08:36:35.000Z</time>
      </trkpt>
      <trkpt lat="45.01217" lon="5.4993">
        <ele>1336</ele>
        <time>2024-07-14T08:36:36.000Z</time>
      </trkpt>
      <trkpt lat="45.01215" lon="5.49933">
        <ele>1336</ele>
        <time>2024-07-14T08:36:37.000Z</time>
      </trkpt>
      <trkpt lat="45.01213" lon="5.49935">
        <ele>1335.8000488281</ele>
        <time>2024-07-14T08:36:38.000Z</time>
      </trkpt>
      <trkpt lat="45.0121" lon="5.49938">
        <ele>1335.5999755859</ele>
        <time>2024-07-14T08:36:39.000Z</time>
      </trkpt>
      <trkpt lat="45.01208" lon="5.4994">
        <ele>1335.4000244141</ele>
        <time>2024-07-14T08:36:40.000Z</time>
      </trkpt>
      <trkpt lat="45.01206" lon="5.49942">
        <ele>1335.4000244141</ele>
        <time>2024-07-14T08:36:41.000Z</time>
      </trkpt>
      <trkpt lat="45.01204" lon="5.49944">
        <ele>1335.1999511719</ele>
        <time>2024-07-14T08:36:42.000Z</time>
      </trkpt>
      <trkpt lat="45.01202" lon="5.49947">
        <ele>1335.1999511719</ele>
        <time>2024-07-14T08:36:43.000Z</time>
      </trkpt>
      <trkpt lat="45.012" lon="5.49949">
        <ele>1335</ele>
        <time>2024-07-14T08:36:44.000Z</time>
      </trkpt>
      <trkpt lat="45.01198" lon="5.49953">
        <ele>1334.8000488281</ele>
        <time>2024-07-14T08:36:45.000Z</time>
      </trkpt>
      <trkpt lat="45.01196" lon="5.49956">
        <ele>1334.5999755859</ele>
        <time>2024-07-14T08:36:46.000Z</time>
      </trkpt>
      <trkpt lat="45.01195" lon="5.4996">
        <ele>1334.4000244141</ele>
        <time>2024-07-14T08:36:47.000Z</time>
      </trkpt>
      <trkpt lat="45.01194" lon="5.49964">
        <ele>1334.1999511719</ele>
        <time>2024-07-14T08:36:48.000Z</time>
      </trkpt>
      <trkpt lat="45.01193" lon="5.49967">
        <ele>1333.8000488281</ele>
        <time>2024-07-14T08:36:49.000Z</time>
      </trkpt>
      <trkpt lat="45.01193" lon="5.49971">
        <ele>1333.4000244141</ele>
        <time>2024-07-14T08:36:50.000Z</time>
      </trkpt>
      <trkpt lat="45.01193" lon="5.49975">
        <ele>1333.1999511719</ele>
        <time>2024-07-14T08:36:51.000Z</time>
      </trkpt>
      <trkpt lat="45.01193" lon="5.49978">
        <ele>1333</ele>
        <time>2024-07-14T08:36:52.000Z</time>
      </trkpt>
      <trkpt lat="45.01194" lon="5.49981">
        <ele>1332.8000488281</ele>
        <time>2024-07-14T08:36:53.000Z</time>
      </trkpt>
      <trkpt lat="45.01194" lon="5.49985">
        <ele>1332.4000244141</ele>
        <time>2024-07-14T08:36:54.000Z</time>
      </trkpt>
      <trkpt lat="45.01195" lon="5.49988">
        <ele>1332.4000244141</ele>
        <time>2024-07-14T08:36:55.000Z</time>
      </trkpt>
      <trkpt lat="45.01197" lon="5.4999">
        <ele>1332</ele>
        <time>2024-07-14T08:36:56.000Z</time>
      </trkpt>
      <trkpt lat="45.01198" lon="5.49993">
        <ele>1331.8000488281</ele>
        <time>2024-07-14T08:36:57.000Z</time>
      </trkpt>
      <trkpt lat="45.012" lon="5.49995">
        <ele>1331.5999755859</ele>
        <time>2024-07-14T08:36:58.000Z</time>
      </trkpt>
      <trkpt lat="45.01203" lon="5.49998">
        <ele>1331.4000244141</ele>
        <time>2024-07-14T08:36:59.000Z</time>
      </trkpt>
      <trkpt lat="45.01205" lon="5.5">
        <ele>1331.1999511719</ele>
        <time>2024-07-14T08:37:00.000Z</time>
      </trkpt>
      <trkpt lat="45.01208" lon="5.50002">
        <ele>1330.5999755859</ele>
        <time>2024-07-14T08:37:01.000Z</time>
      </trkpt>
      <trkpt lat="45.0121" lon="5.50004">
        <ele>1330</ele>
        <time>2024-07-14T08:37:02.000Z</time>
      </trkpt>
      <trkpt lat="45.01213" lon="5.50006">
        <ele>1329.8000488281</ele>
        <time>2024-07-14T08:37:03.000Z</time>
      </trkpt>
      <trkpt lat="45.01215" lon="5.50007">
        <ele>1329.5999755859</ele>
        <time>2024-07-14T08:37:04.000Z</time>
      </trkpt>
      <trkpt lat="45.01217" lon="5.50009">
        <ele>1329.4000244141</ele>
        <time>2024-07-14T08:37:05.000Z</time>
      </trkpt>
      <trkpt lat="45.01219" lon="5.5001">
        <ele>1329.1999511719</ele>
        <time>2024-07-14T08:37:06.000Z</time>
      </trkpt>
      <trkpt lat="45.01222" lon="5.50012">
        <ele>1329</ele>
        <time>2024-07-14T08:37:07.000Z</time>
      </trkpt>
      <trkpt lat="45.01224" lon="5.50014">
        <ele>1328.5999755859</ele>
        <time>2024-07-14T08:37:08.000Z</time>
      </trkpt>
      <trkpt lat="45.01227" lon="5.50015">
        <ele>1328.5999755859</ele>
        <time>2024-07-14T08:37:09.000Z</time>
      </trkpt>
      <trkpt lat="45.01229" lon="5.50016">
        <ele>1328.1999511719</ele>
        <time>2024-07-14T08:37:10.000Z</time>
      </trkpt>
      <trkpt lat="45.01232" lon="5.50017">
        <ele>1327.8000488281</ele>
        <time>2024-07-14T08:37:11.000Z</time>
      </trkpt>
      <trkpt lat="45.01235" lon="5.50018">
        <ele>1327.4000244141</ele>
        <time>2024-07-14T08:37:12.000Z</time>
      </trkpt>
      <trkpt lat="45.01238" lon="5.50019">
        <ele>1327</ele>
        <time>2024-07-14T08:37:13.000Z</time>
      </trkpt>
      <trkpt lat="45.01241" lon="5.50019">
        <ele>1326.8000488281</ele>
        <time>2024-07-14T08:37:14.000Z</time>
      </trkpt>
      <trkpt lat="45.01244" lon="5.50021">
        <ele>1326.5999755859</ele>
        <time>2024-07-14T08:37:15.000Z</time>
      </trkpt>
      <trkpt lat="45.01246" lon="5.50022">
        <ele>1326.4000244141</ele>
        <time>2024-07-14T08:37:16.000Z</time>
      </trkpt>
      <trkpt lat="45.01249" lon="5.50024">
        <ele>1326</ele>
        <time>2024-07-14T08:37:17.000Z</time>
      </trkpt>
      <trkpt lat="45.01252" lon="5.50027">
        <ele>1325.8000488281</ele>
        <time>2024-07-14T08:37:18.000Z</time>
      </trkpt>
      <trkpt lat="45.01254" lon="5.50029">
        <ele>1325.4000244141</ele>
        <time>2024-07-14T08:37:19.000Z</time>
      </trkpt>
      <trkpt lat="45.01257" lon="5.50032">
        <ele>1325.1999511719</ele>
        <time>2024-07-14T08:37:20.000Z</time>
      </trkpt>
      <trkpt lat="45.01259" lon="5.50034">
        <ele>1324.8000488281</ele>
        <time>2024-07-14T08:37:21.000Z</time>
      </trkpt>
      <trkpt lat="45.01261" lon="5.50036">
        <ele>1324.5999755859</ele>
        <time>2024-07-14T08:37:22.000Z</time>
      </trkpt>
      <trkpt lat="45.01263" lon="5.50038">
        <ele>1324.4000244141</ele>
        <time>2024-07-14T08:37:23.000Z</time>
      </trkpt>
      <trkpt lat="45.01266" lon="5.50041">
        <ele>1324.4000244141</ele>
        <time>2024-07-14T08:37:24.000Z</time>
      </trkpt>
      <trkpt lat="45.01268" lon="5.50043">
        <ele>1324.4000244141</ele>
        <time>2024-07-14T08:37:25.000Z</time>
      </trkpt>
      <trkpt lat="45.0127" lon="5.50045">
        <ele>1324.4000244141</ele>
        <time>2024-07-14T08:37:26.000Z</time>
      </trkpt>
      <trkpt lat="45.01272" lon="5.50046">
        <ele>1324.1999511719</ele>
        <time>2024-07-14T08:37:27.000Z</time>
      </trkpt>
      <trkpt lat="45.01275" lon="5.50048">
        <ele>1324.1999511719</ele>
        <time>2024-07-14T08:37:28.000Z</time>
      </trkpt>
      <trkpt lat="45.01277" lon="5.5005">
        <ele>1323.8000488281</ele>
        <time>2024-07-14T08:37:29.000Z</time>
      </trkpt>
      <trkpt lat="45.01279" lon="5.50051">
        <ele>1323.5999755859</ele>
        <time>2024-07-14T08:37:30.000Z</time>
      </trkpt>
      <trkpt lat="45.01281" lon="5.50052">
        <ele>1323.5999755859</ele>
        <time>2024-07-14T08:37:31.000Z</time>
      </trkpt>
      <trkpt lat="45.01283" lon="5.50053">
        <ele>1323.5999755859</ele>
        <time>2024-07-14T08:37:32.000Z</time>
      </trkpt>
      <trkpt lat="45.01286" lon="5.50054">
        <ele>1323.4000244141</ele>
        <time>2024-07-14T08:37:33.000Z</time>
      </trkpt>
      <trkpt lat="45.01288" lon="5.50055">
        <ele>1323.4000244141</ele>
        <time>2024-07-14T08:37:34.000Z</time>
      </trkpt>
      <trkpt lat="45.01291" lon="5.50056">
        <ele>1323.1999511719</ele>
        <time>2024-07-14T08:37:35.000Z</time>
      </trkpt>
      <trkpt lat="45.01294" lon="5.50057">
        <ele>1323.1999511719</ele>
        <time>2024-07-14T08:37:36.000Z</time>
      </trkpt>
      <trkpt lat="45.01296" lon="5.50058">
        <ele>1323.1999511719</ele>
        <time>2024-07-14T08:37:37.000Z</time>
      </trkpt>
      <trkpt lat="45.01299" lon="5.50059">
        <ele>1322.8000488281</ele>
        <time>2024-07-14T08:37:38.000Z</time>
      </trkpt>
      <trkpt lat="45.01301" lon="5.5006">
        <ele>1322.5999755859</ele>
        <time>2024-07-14T08:37:39.000Z</time>
      </trkpt>
      <trkpt lat="45.01304" lon="5.50061">
        <ele>1322.4000244141</ele>
        <time>2024-07-14T08:37:40.000Z</time>
      </trkpt>
      <trkpt lat="45.01306" lon="5.50062">
        <ele>1322.1999511719</ele>
        <time>2024-07-14T08:37:41.000Z</time>
      </trkpt>
      <trkpt lat="45.01308" lon="5.50062">
        <ele>1321.8000488281</ele>
        <time>2024-07-14T08:37:42.000Z</time>
      </trkpt>
      <trkpt lat="45.01311" lon="5.50063">
        <ele>1321.4000244141</ele>
        <time>2024-07-14T08:37:43.000Z</time>
      </trkpt>
      <trkpt lat="45.01313" lon="5.50063">
        <ele>1321</ele>
        <time>2024-07-14T08:37:44.000Z</time>
      </trkpt>
      <trkpt lat="45.01316" lon="5.50064">
        <ele>1320.1999511719</ele>
        <time>2024-07-14T08:37:45.000Z</time>
      </trkpt>
      <trkpt lat="45.01318" lon="5.50064">
        <ele>1320</ele>
        <time>2024-07-14T08:37:46.000Z</time>
      </trkpt>
      <trkpt lat="45.0132" lon="5.50064">
        <ele>1319.4000244141</ele>
        <time>2024-07-14T08:37:47.000Z</time>
      </trkpt>
      <trkpt lat="45.01323" lon="5.50064">
        <ele>1318.5999755859</ele>
        <time>2024-07-14T08:37:48.000Z</time>
      </trkpt>
      <trkpt lat="45.01326" lon="5.50065">
        <ele>1318.1999511719</ele>
        <time>2024-07-14T08:37:49.000Z</time>
      </trkpt>
      <trkpt lat="45.01329" lon="5.50065">
        <ele>1317.5999755859</ele>
        <time>2024-07-14T08:37:50.000Z</time>
      </trkpt>
      <trkpt lat="45.01333" lon="5.50066">
        <ele>1316.5999755859</ele>
        <time>2024-07-14T08:37:51.000Z</time>
      </trkpt>
      <trkpt lat="45.01335" lon="5.50067">
        <ele>1316.1999511719</ele>
        <time>2024-07-14T08:37:52.000Z</time>
      </trkpt>
      <trkpt lat="45.01338" lon="5.50068">
        <ele>1316</ele>
        <time>2024-07-14T08:37:53.000Z</time>
      </trkpt>
      <trkpt lat="45.01341" lon="5.50069">
        <ele>1315.8000488281</ele>
        <time>2024-07-14T08:37:54.000Z</time>
      </trkpt>
      <trkpt lat="45.01344" lon="5.50071">
        <ele>1315.4000244141</ele>
        <time>2024-07-14T08:37:55.000Z</time>
      </trkpt>
      <trkpt lat="45.01346" lon="5.50072">
        <ele>1315.1999511719</ele>
        <time>2024-07-14T08:37:56.000Z</time>
      </trkpt>
      <trkpt lat="45.01349" lon="5.50074">
        <ele>1314.5999755859</ele>
        <time>2024-07-14T08:37:57.000Z</time>
      </trkpt>
      <trkpt lat="45.01352" lon="5.50075">
        <ele>1314.4000244141</ele>
        <time>2024-07-14T08:37:58.000Z</time>
      </trkpt>
      <trkpt lat="45.01354" lon="5.50077">
        <ele>1314.1999511719</ele>
        <time>2024-07-14T08:37:59.000Z</time>
      </trkpt>
      <trkpt lat="45.01357" lon="5.50078">
        <ele>1314.1999511719</ele>
        <time>2024-07-14T08:38:00.000Z</time>
      </trkpt>
      <trkpt lat="45.01359" lon="5.50081">
        <ele>1313.8000488281</ele>
        <time>2024-07-14T08:38:01.000Z</time>
      </trkpt>
      <trkpt lat="45.01362" lon="5.50082">
        <ele>1313.8000488281</ele>
        <time>2024-07-14T08:38:02.000Z</time>
      </trkpt>
      <trkpt lat="45.01364" lon="5.50084">
        <ele>1313.5999755859</ele>
        <time>2024-07-14T08:38:03.000Z</time>
      </trkpt>
      <trkpt lat="45.01367" lon="5.50085">
        <ele>1313.4000244141</ele>
        <time>2024-07-14T08:38:04.000Z</time>
      </trkpt>
      <trkpt lat="45.01369" lon="5.50087">
        <ele>1313</ele>
        <time>2024-07-14T08:38:05.000Z</time>
      </trkpt>
      <trkpt lat="45.01371" lon="5.50089">
        <ele>1312.8000488281</ele>
        <time>2024-07-14T08:38:06.000Z</time>
      </trkpt>
      <trkpt lat="45.01373" lon="5.50091">
        <ele>1312.4000244141</ele>
        <time>2024-07-14T08:38:07.000Z</time>
      </trkpt>
      <trkpt lat="45.01375" lon="5.50093">
        <ele>1311.8000488281</ele>
        <time>2024-07-14T08:38:08.000Z</time>
      </trkpt>
      <trkpt lat="45.01377" lon="5.50095">
        <ele>1311.1999511719</ele>
        <time>2024-07-14T08:38:09.000Z</time>
      </trkpt>
      <trkpt lat="45.01379" lon="5.50098">
        <ele>1310.8000488281</ele>
        <time>2024-07-14T08:38:10.000Z</time>
      </trkpt>
      <trkpt lat="45.01381" lon="5.501">
        <ele>1310.5999755859</ele>
        <time>2024-07-14T08:38:11.000Z</time>
      </trkpt>
      <trkpt lat="45.01383" lon="5.50103">
        <ele>1310.1999511719</ele>
        <time>2024-07-14T08:38:12.000Z</time>
      </trkpt>
      <trkpt lat="45.01386" lon="5.50105">
        <ele>1309.5999755859</ele>
        <time>2024-07-14T08:38:13.000Z</time>
      </trkpt>
      <trkpt lat="45.01388" lon="5.50107">
        <ele>1309</ele>
        <time>2024-07-14T08:38:14.000Z</time>
      </trkpt>
      <trkpt lat="45.01391" lon="5.50108">
        <ele>1308.8000488281</ele>
        <time>2024-07-14T08:38:15.000Z</time>
      </trkpt>
      <trkpt lat="45.01393" lon="5.5011">
        <ele>1308.1999511719</ele>
        <time>2024-07-14T08:38:16.000Z</time>
      </trkpt>
      <trkpt lat="45.01396" lon="5.50111">
        <ele>1308</ele>
        <time>2024-07-14T08:38:17.000Z</time>
      </trkpt>
      <trkpt lat="45.01399" lon="5.50111">
        <ele>1307.5999755859</ele>
        <time>2024-07-14T08:38:18.000Z</time>
      </trkpt>
      <trkpt lat="45.01402" lon="5.50113">
        <ele>1307.4000244141</ele>
        <time>2024-07-14T08:38:19.000Z</time>
      </trkpt>
      <trkpt lat="45.01405" lon="5.50114">
        <ele>1307.1999511719</ele>
        <time>2024-07-14T08:38:20.000Z</time>
      </trkpt>
      <trkpt lat="45.01407" lon="5.50115">
        <ele>1307</ele>
        <time>2024-07-14T08:38:21.000Z</time>
      </trkpt>
      <trkpt lat="45.0141" lon="5.50115">
        <ele>1306.8000488281</ele>
        <time>2024-07-14T08:38:22.000Z</time>
      </trkpt>
      <trkpt lat="45.01413" lon="5.50116">
        <ele>1306.5999755859</ele>
        <time>2024-07-14T08:38:23.000Z</time>
      </trkpt>
      <trkpt lat="45.01416" lon="5.50117">
        <ele>1306.4000244141</ele>
        <time>2024-07-14T08:38:24.000Z</time>
      </trkpt>
      <trkpt lat="45.01419" lon="5.50118">
        <ele>1306.1999511719</ele>
        <time>2024-07-14T08:38:25.000Z</time>
      </trkpt>
      <trkpt lat="45.01422" lon="5.50119">
        <ele>1306.1999511719</ele>
        <time>2024-07-14T08:38:26.000Z</time>
      </trkpt>
      <trkpt lat="45.01424" lon="5.50121">
        <ele>1306.1999511719</ele>
        <time>2024-07-14T08:38:27.000Z</time>
      </trkpt>
      <trkpt lat="45.01427" lon="5.50123">
        <ele>1306</ele>
        <time>2024-07-14T08:38:28.000Z</time>
      </trkpt>
      <trkpt lat="45.0143" lon="5.50124">
        <ele>1306</ele>
        <time>2024-07-14T08:38:29.000Z</time>
      </trkpt>
      <trkpt lat="45.01433" lon="5.50126">
        <ele>1306</ele>
        <time>2024-07-14T08:38:30.000Z</time>
      </trkpt>
      <trkpt lat="45.01437" lon="5.50128">
        <ele>1306</ele>
        <time>2024-07-14T08:38:31.000Z</time>
      </trkpt>
      <trkpt lat="45.01439" lon="5.5013">
        <ele>1306</ele>
        <time>2024-07-14T08:38:32.000Z</time>
      </trkpt>
      <trkpt lat="45.01442" lon="5.50133">
        <ele>1305.8000488281</ele>
        <time>2024-07-14T08:38:33.000Z</time>
      </trkpt>
      <trkpt lat="45.01444" lon="5.50136">
        <ele>1305.8000488281</ele>
        <time>2024-07-14T08:38:34.000Z</time>
      </trkpt>
      <trkpt lat="45.01446" lon="5.50139">
        <ele>1305.8000488281</ele>
        <time>2024-07-14T08:38:35.000Z</time>
      </trkpt>
      <trkpt lat="45.01448" lon="5.50142">
        <ele>1305.5999755859</ele>
        <time>2024-07-14T08:38:36.000Z</time>
      </trkpt>
      <trkpt lat="45.0145" lon="5.50146">
        <ele>1305.1999511719</ele>
        <time>2024-07-14T08:38:37.000Z</time>
      </trkpt>
      <trkpt lat="45.01452" lon="5.50149">
        <ele>1305.1999511719</ele>
        <time>2024-07-14T08:38:38.000Z</time>
      </trkpt>
      <trkpt lat="45.01454" lon="5.50152">
        <ele>1304.5999755859</ele>
        <time>2024-07-14T08:38:39.000Z</time>
      </trkpt>
      <trkpt lat="45.01455" lon="5.50155">
        <ele>1304.1999511719</ele>
        <time>2024-07-14T08:38:40.000Z</time>
      </trkpt>
      <trkpt lat="45.01457" lon="5.50158">
        <ele>1303.8000488281</ele>
        <time>2024-07-14T08:38:41.000Z</time>
      </trkpt>
      <trkpt lat="45.01459" lon="5.5016">
        <ele>1303.4000244141</ele>
        <time>2024-07-14T08:38:42.000Z</time>
      </trkpt>
      <trkpt lat="45.01461" lon="5.50162">
        <ele>1303</ele>
        <time>2024-07-14T08:38:43.000Z</time>
      </trkpt>
      <trkpt lat="45.01463" lon="5.50163">
        <ele>1302.8000488281</ele>
        <time>2024-07-14T08:38:44.000Z</time>
      </trkpt>
      <trkpt lat="45.01465" lon="5.50165">
        <ele>1302.4000244141</ele>
        <time>2024-07-14T08:38:45.000Z</time>
      </trkpt>
      <trkpt lat="45.01467" lon="5.50166">
        <ele>1302</ele>
        <time>2024-07-14T08:38:46.000Z</time>
      </trkpt>
      <trkpt lat="45.01469" lon="5.50168">
        <ele>1302</ele>
        <time>2024-07-14T08:38:47.000Z</time>
      </trkpt>
      <trkpt lat="45.01471" lon="5.50169">
        <ele>1301.5999755859</ele>
        <time>2024-07-14T08:38:48.000Z</time>
      </trkpt>
      <trkpt lat="45.01473" lon="5.50171">
        <ele>1301.4000244141</ele>
        <time>2024-07-14T08:38:49.000Z</time>
      </trkpt>
      <trkpt lat="45.01475" lon="5.50172">
        <ele>1300.8000488281</ele>
        <time>2024-07-14T08:38:50.000Z</time>
      </trkpt>
      <trkpt lat="45.01477" lon="5.50174">
        <ele>1300.1999511719</ele>
        <time>2024-07-14T08:38:51.000Z</time>
      </trkpt>
      <trkpt lat="45.01479" lon="5.50176">
        <ele>1299.8000488281</ele>
        <time>2024-07-14T08:38:52.000Z</time>
      </trkpt>
      <trkpt lat="45.0148" lon="5.50178">
        <ele>1299.4000244141</ele>
        <time>2024-07-14T08:38:53.000Z</time>
      </trkpt>
      <trkpt lat="45.01482" lon="5.5018">
        <ele>1299.1999511719</ele>
        <time>2024-07-14T08:38:54.000Z</time>
      </trkpt>
      <trkpt lat="45.01484" lon="5.50181">
        <ele>1299</ele>
        <time>2024-07-14T08:38:55.000Z</time>
      </trkpt>
      <trkpt lat="45.01485" lon="5.50183">
        <ele>1298.5999755859</ele>
        <time>2024-07-14T08:38:56.000Z</time>
      </trkpt>
      <trkpt lat="45.01487" lon="5.50184">
        <ele>1297.8000488281</ele>
        <time>2024-07-14T08:38:57.000Z</time>
      </trkpt>
      <trkpt lat="45.0149" lon="5.50184">
        <ele>1297.4000244141</ele>
        <time>2024-07-14T08:38:58.000Z</time>
      </trkpt>
      <trkpt lat="45.01492" lon="5.50185">
        <ele>1297</ele>
        <time>2024-07-14T08:38:59.000Z</time>
      </trkpt>
      <trkpt lat="45.01494" lon="5.50185">
        <ele>1296.8000488281</ele>
        <time>2024-07-14T08:39:00.000Z</time>
      </trkpt>
      <trkpt lat="45.01495" lon="5.50185">
        <ele>1296.4000244141</ele>
        <time>2024-07-14T08:39:01.000Z</time>
      </trkpt>
      <trkpt lat="45.01498" lon="5.50187">
        <ele>1295.5999755859</ele>
        <time>2024-07-14T08:39:02.000Z</time>
      </trkpt>
      <trkpt lat="45.015" lon="5.50188">
        <ele>1294.8000488281</ele>
        <time>2024-07-14T08:39:03.000Z</time>
      </trkpt>
      <trkpt lat="45.01503" lon="5.50189">
        <ele>1294.5999755859</ele>
        <time>2024-07-14T08:39:04.000Z</time>
      </trkpt>
      <trkpt lat="45.01505" lon="5.50191">
        <ele>1294.1999511719</ele>
        <time>2024-07-14T08:39:05.000Z</time>
      </trkpt>
      <trkpt lat="45.01508" lon="5.50192">
        <ele>1293.5999755859</ele>
        <time>2024-07-14T08:39:06.000Z</time>
      </trkpt>
      <trkpt lat="45.01511" lon="5.50193">
        <ele>1293</ele>
        <time>2024-07-14T08:39:07.000Z</time>
      </trkpt>
      <trkpt lat="45.01513" lon="5.50194">
        <ele>1292.4000244141</ele>
        <time>2024-07-14T08:39:08.000Z</time>
      </trkpt>
      <trkpt lat="45.01516" lon="5.50195">
        <ele>1291.8000488281</ele>
        <time>2024-07-14T08:39:09.000Z</time>
      </trkpt>
      <trkpt lat="45.01519" lon="5.50196">
        <ele>1291.1999511719</ele>
        <time>2024-07-14T08:39:10.000Z</time>
      </trkpt>
      <trkpt lat="45.01521" lon="5.50198">
        <ele>1290.8000488281</ele>
        <time>2024-07-14T08:39:11.000Z</time>
      </trkpt>
      <trkpt lat="45.01524" lon="5.502">
        <ele>1290.4000244141</ele>
        <time>2024-07-14T08:39:12.000Z</time>
      </trkpt>
      <trkpt lat="45.01526" lon="5.50202">
        <ele>1290.1999511719</ele>
        <time>2024-07-14T08:39:13.000Z</time>
      </trkpt>
      <trkpt lat="45.01528" lon="5.50204">
        <ele>1289.8000488281</ele>
        <time>2024-07-14T08:39:14.000Z</time>
      </trkpt>
      <trkpt lat="45.0153" lon="5.50205">
        <ele>1289.1999511719</ele>
        <time>2024-07-14T08:39:15.000Z</time>
      </trkpt>
      <trkpt lat="45.01532" lon="5.50205">
        <ele>1288.8000488281</ele>
        <time>2024-07-14T08:39:16.000Z</time>
      </trkpt>
      <trkpt lat="45.01535" lon="5.50205">
        <ele>1288.4000244141</ele>
        <time>2024-07-14T08:39:17.000Z</time>
      </trkpt>
      <trkpt lat="45.01537" lon="5.50204">
        <ele>1288.1999511719</ele>
        <time>2024-07-14T08:39:18.000Z</time>
      </trkpt>
      <trkpt lat="45.0154" lon="5.50204">
        <ele>1287.8000488281</ele>
        <time>2024-07-14T08:39:19.000Z</time>
      </trkpt>
      <trkpt lat="45.01542" lon="5.50203">
        <ele>1287.5999755859</ele>
        <time>2024-07-14T08:39:20.000Z</time>
      </trkpt>
      <trkpt lat="45.01544" lon="5.50202">
        <ele>1287.4000244141</ele>
        <time>2024-07-14T08:39:21.000Z</time>
      </trkpt>
      <trkpt lat="45.01547" lon="5.502">
        <ele>1287.1999511719</ele>
        <time>2024-07-14T08:39:22.000Z</time>
      </trkpt>
      <trkpt lat="45.01549" lon="5.50199">
        <ele>1287.1999511719</ele>
        <time>2024-07-14T08:39:23.000Z</time>
      </trkpt>
      <trkpt lat="45.01552" lon="5.50198">
        <ele>1287</ele>
        <time>2024-07-14T08:39:24.000Z</time>
      </trkpt>
      <trkpt lat="45.01554" lon="5.50197">
        <ele>1287</ele>
        <time>2024-07-14T08:39:25.000Z</time>
      </trkpt>
      <trkpt lat="45.01557" lon="5.50196">
        <ele>1287.1999511719</ele>
        <time>2024-07-14T08:39:26.000Z</time>
      </trkpt>
      <trkpt lat="45.01559" lon="5.50195">
        <ele>1287.1999511719</ele>
        <time>2024-07-14T08:39:27.000Z</time>
      </trkpt>
      <trkpt lat="45.01561" lon="5.50194">
        <ele>1287.1999511719</ele>
        <time>2024-07-14T08:39:28.000Z</time>
      </trkpt>
      <trkpt lat="45.01563" lon="5.50193">
        <ele>1287.1999511719</ele>
        <time>2024-07-14T08:39:29.000Z</time>
      </trkpt>
      <trkpt lat="45.01566" lon="5.50192">
        <ele>1287.4000244141</ele>
        <time>2024-07-14T08:39:30.000Z</time>
      </trkpt>
      <trkpt lat="45.01568" lon="5.5019">
        <ele>1287.4000244141</ele>
        <time>2024-07-14T08:39:31.000Z</time>
      </trkpt>
      <trkpt lat="45.0157" lon="5.50189">
        <ele>1287.5999755859</ele>
        <time>2024-07-14T08:39:32.000Z</time>
      </trkpt>
      <trkpt lat="45.01571" lon="5.50188">
        <ele>1287.5999755859</ele>
        <time>2024-07-14T08:39:33.000Z</time>
      </trkpt>
      <trkpt lat="45.01573" lon="5.50187">
        <ele>1287.8000488281</ele>
        <time>2024-07-14T08:39:34.000Z</time>
      </trkpt>
      <trkpt lat="45.01575" lon="5.50185">
        <ele>1288</ele>
        <time>2024-07-14T08:39:35.000Z</time>
      </trkpt>
      <trkpt lat="45.01577" lon="5.50184">
        <ele>1288</ele>
        <time>2024-07-14T08:39:36.000Z</time>
      </trkpt>
      <trkpt lat="45.01579" lon="5.50182">
        <ele>1288.1999511719</ele>
        <time>2024-07-14T08:39:37.000Z</time>
      </trkpt>
      <trkpt lat="45.01581" lon="5.50181">
        <ele>1288.4000244141</ele>
        <time>2024-07-14T08:39:38.000Z</time>
      </trkpt>
      <trkpt lat="45.01583" lon="5.50179">
        <ele>1288.5999755859</ele>
        <time>2024-07-14T08:39:39.000Z</time>
      </trkpt>
      <trkpt lat="45.01585" lon="5.50177">
        <ele>1288.8000488281</ele>
        <time>2024-07-14T08:39:40.000Z</time>
      </trkpt>
      <trkpt lat="45.01587" lon="5.50176">
        <ele>1289</ele>
        <time>2024-07-14T08:39:41.000Z</time>
      </trkpt>
      <trkpt lat="45.01589" lon="5.50174">
        <ele>1289</ele>
        <time>2024-07-14T08:39:42.000Z</time>
      </trkpt>
      <trkpt lat="45.01591" lon="5.50172">
        <ele>1289.4000244141</ele>
        <time>2024-07-14T08:39:43.000Z</time>
      </trkpt>
      <trkpt lat="45.01593" lon="5.50171">
        <ele>1289.5999755859</ele>
        <time>2024-07-14T08:39:44.000Z</time>
      </trkpt>
      <trkpt lat="45.01595" lon="5.50169">
        <ele>1289.5999755859</ele>
        <time>2024-07-14T08:39:45.000Z</time>
      </trkpt>
      <trkpt lat="45.01597" lon="5.50167">
        <ele>1289.8000488281</ele>
        <time>2024-07-14T08:39:46.000Z</time>
      </trkpt>
      <trkpt lat="45.01598" lon="5.50165">
        <ele>1289.8000488281</ele>
        <time>2024-07-14T08:39:47.000Z</time>
      </trkpt>
      <trkpt lat="45.01601" lon="5.50164">
        <ele>1290</ele>
        <time>2024-07-14T08:39:48.000Z</time>
      </trkpt>
      <trkpt lat="45.01602" lon="5.50163">
        <ele>1290</ele>
        <time>2024-07-14T08:39:49.000Z</time>
      </trkpt>
      <trkpt lat="45.01604" lon="5.50162">
        <ele>1290.4000244141</ele>
        <time>2024-07-14T08:39:50.000Z</time>
      </trkpt>
      <trkpt lat="45.01606" lon="5.5016">
        <ele>1290.5999755859</ele>
        <time>2024-07-14T08:39:51.000Z</time>
      </trkpt>
      <trkpt lat="45.01608" lon="5.50159">
        <ele>1290.8000488281</ele>
        <time>2024-07-14T08:39:52.000Z</time>
      </trkpt>
      <trkpt lat="45.0161" lon="5.50157">
        <ele>1291</ele>
        <time>2024-07-14T08:39:53.000Z</time>
      </trkpt>
      <trkpt lat="45.01612" lon="5.50156">
        <ele>1291</ele>
        <time>2024-07-14T08:39:54.000Z</time>
      </trkpt>
      <trkpt lat="45.01614" lon="5.50155">
        <ele>1291.1999511719</ele>
        <time>2024-07-14T08:39:55.000Z</time>
      </trkpt>
      <trkpt lat="45.01616" lon="5.50154">
        <ele>1291.4000244141</ele>
        <time>2024-07-14T08:39:56.000Z</time>
      </trkpt>
      <trkpt lat="45.01618" lon="5.50152">
        <ele>1291.4000244141</ele>
        <time>2024-07-14T08:39:57.000Z</time>
      </trkpt>
      <trkpt lat="45.01619" lon="5.50151">
        <ele>1291.4000244141</ele>
        <time>2024-07-14T08:39:58.000Z</time>
      </trkpt>
      <trkpt lat="45.0162" lon="5.5015">
        <ele>1291.4000244141</ele>
        <time>2024-07-14T08:39:59.000Z</time>
      </trkpt>
      <trkpt lat="45.01622" lon="5.50148">
        <ele>1291.4000244141</ele>
        <time>2024-07-14T08:40:00.000Z</time>
      </trkpt>
      <trkpt lat="45.01623" lon="5.50146">
        <ele>1291.4000244141</ele>
        <time>2024-07-14T08:40:01.000Z</time>
      </trkpt>
      <trkpt lat="45.01624" lon="5.50143">
        <ele>1291.4000244141</ele>
        <time>2024-07-14T08:40:02.000Z</time>
      </trkpt>
      <trkpt lat="45.01625" lon="5.50141">
        <ele>1291.4000244141</ele>
        <time>2024-07-14T08:40:03.000Z</time>
      </trkpt>
      <trkpt lat="45.01626" lon="5.50139">
        <ele>1291.4000244141</ele>
        <time>2024-07-14T08:40:04.000Z</time>
      </trkpt>
      <trkpt lat="45.01628" lon="5.50136">
        <ele>1291.1999511719</ele>
        <time>2024-07-14T08:40:05.000Z</time>
      </trkpt>
      <trkpt lat="45.01629" lon="5.50134">
        <ele>1291.1999511719</ele>
        <time>2024-07-14T08:40:06.000Z</time>
      </trkpt>
      <trkpt lat="45.0163" lon="5.50133">
        <ele>1291.1999511719</ele>
        <time>2024-07-14T08:40:07.000Z</time>
      </trkpt>
      <trkpt lat="45.01632" lon="5.50131">
        <ele>1291.4000244141</ele>
        <time>2024-07-14T08:40:08.000Z</time>
      </trkpt>
      <trkpt lat="45.01633" lon="5.5013">
        <ele>1291.4000244141</ele>
        <time>2024-07-14T08:40:09.000Z</time>
      </trkpt>
      <trkpt lat="45.01634" lon="5.50128">
        <ele>1291.5999755859</ele>
        <time>2024-07-14T08:40:10.000Z</time>
      </trkpt>
      <trkpt lat="45.01635" lon="5.50127">
        <ele>1291.8000488281</ele>
        <time>2024-07-14T08:40:11.000Z</time>
      </trkpt>
      <trkpt lat="45.01636" lon="5.50126">
        <ele>1292</ele>
        <time>2024-07-14T08:40:12.000Z</time>
      </trkpt>
      <trkpt lat="45.01637" lon="5.50125">
        <ele>1292.1999511719</ele>
        <time>2024-07-14T08:40:13.000Z</time>
      </trkpt>
      <trkpt lat="45.01639" lon="5.50124">
        <ele>1292.5999755859</ele>
        <time>2024-07-14T08:40:14.000Z</time>
      </trkpt>
      <trkpt lat="45.0164" lon="5.50122">
        <ele>1292.8000488281</ele>
        <time>2024-07-14T08:40:15.000Z</time>
      </trkpt>
      <trkpt lat="45.01641" lon="5.50121">
        <ele>1293</ele>
        <time>2024-07-14T08:40:16.000Z</time>
      </trkpt>
      <trkpt lat="45.01643" lon="5.50121">
        <ele>1293.1999511719</ele>
        <time>2024-07-14T08:40:17.000Z</time>
      </trkpt>
      <trkpt lat="45.01644" lon="5.50119">
        <ele>1293.4000244141</ele>
        <time>2024-07-14T08:40:18.000Z</time>
      </trkpt>
      <trkpt lat="45.01646" lon="5.50117">
        <ele>1293.4000244141</ele>
        <time>2024-07-14T08:40:19.000Z</time>
      </trkpt>
      <trkpt lat="45.01648" lon="5.50115">
        <ele>1293.5999755859</ele>
        <time>2024-07-14T08:40:20.000Z</time>
      </trkpt>
      <trkpt lat="45.01649" lon="5.50114">
        <ele>1293.5999755859</ele>
        <time>2024-07-14T08:40:21.000Z</time>
      </trkpt>
      <trkpt lat="45.01651" lon="5.50112">
        <ele>1293.8000488281</ele>
        <time>2024-07-14T08:40:22.000Z</time>
      </trkpt>
      <trkpt lat="45.01652" lon="5.50111">
        <ele>1293.8000488281</ele>
        <time>2024-07-14T08:40:23.000Z</time>
      </trkpt>
      <trkpt lat="45.01653" lon="5.50109">
        <ele>1294</ele>
        <time>2024-07-14T08:40:24.000Z</time>
      </trkpt>
      <trkpt lat="45.01655" lon="5.50108">
        <ele>1294.4000244141</ele>
        <time>2024-07-14T08:40:25.000Z</time>
      </trkpt>
      <trkpt lat="45.01656" lon="5.50107">
        <ele>1294.4000244141</ele>
        <time>2024-07-14T08:40:26.000Z</time>
      </trkpt>
      <trkpt lat="45.01657" lon="5.50106">
        <ele>1294.5999755859</ele>
        <time>2024-07-14T08:40:27.000Z</time>
      </trkpt>
      <trkpt lat="45.01658" lon="5.50105">
        <ele>1294.8000488281</ele>
        <time>2024-07-14T08:40:28.000Z</time>
      </trkpt>
      <trkpt lat="45.01659" lon="5.50104">
        <ele>1295</ele>
        <time>2024-07-14T08:40:29.000Z</time>
      </trkpt>
      <trkpt lat="45.0166" lon="5.50103">
        <ele>1295</ele>
        <time>2024-07-14T08:40:30.000Z</time>
      </trkpt>
      <trkpt lat="45.01661" lon="5.50102">
        <ele>1295.1999511719</ele>
        <time>2024-07-14T08:40:31.000Z</time>
      </trkpt>
      <trkpt lat="45.01662" lon="5.50101">
        <ele>1295.5999755859</ele>
        <time>2024-07-14T08:40:32.000Z</time>
      </trkpt>
      <trkpt lat="45.01663" lon="5.501">
        <ele>1295.8000488281</ele>
        <time>2024-07-14T08:40:33.000Z</time>
      </trkpt>
      <trkpt lat="45.01664" lon="5.50099">
        <ele>1296</ele>
        <time>2024-07-14T08:40:34.000Z</time>
      </trkpt>
      <trkpt lat="45.01665" lon="5.50098">
        <ele>1296.1999511719</ele>
        <time>2024-07-14T08:40:35.000Z</time>
      </trkpt>
      <trkpt lat="45.01666" lon="5.50098">
        <ele>1296.5999755859</ele>
        <time>2024-07-14T08:40:36.000Z</time>
      </trkpt>
      <trkpt lat="45.01667" lon="5.50097">
        <ele>1296.8000488281</ele>
        <time>2024-07-14T08:40:37.000Z</time>
      </trkpt>
      <trkpt lat="45.01667" lon="5.50095">
        <ele>1297</ele>
        <time>2024-07-14T08:40:38.000Z</time>
      </trkpt>
      <trkpt lat="45.01668" lon="5.50094">
        <ele>1297.1999511719</ele>
        <time>2024-07-14T08:40:39.000Z</time>
      </trkpt>
      <trkpt lat="45.01669" lon="5.50093">
        <ele>1297.4000244141</ele>
        <time>2024-07-14T08:40:40.000Z</time>
      </trkpt>
      <trkpt lat="45.0167" lon="5.50091">
        <ele>1297.5999755859</ele>
        <time>2024-07-14T08:40:41.000Z</time>
      </trkpt>
      <trkpt lat="45.01671" lon="5.5009">
        <ele>1297.8000488281</ele>
        <time>2024-07-14T08:40:42.000Z</time>
      </trkpt>
      <trkpt lat="45.01672" lon="5.50089">
        <ele>1297.8000488281</ele>
        <time>2024-07-14T08:40:43.000Z</time>
      </trkpt>
      <trkpt lat="45.01672" lon="5.50088">
        <ele>1298</ele>
        <time>2024-07-14T08:40:44.000Z</time>
      </trkpt>
      <trkpt lat="45.01673" lon="5.50087">
        <ele>1298.4000244141</ele>
        <time>2024-07-14T08:40:45.000Z</time>
      </trkpt>
      <trkpt lat="45.01675" lon="5.50086">
        <ele>1298.5999755859</ele>
        <time>2024-07-14T08:40:46.000Z</time>
      </trkpt>
      <trkpt lat="45.01676" lon="5.50084">
        <ele>1298.8000488281</ele>
        <time>2024-07-14T08:40:47.000Z</time>
      </trkpt>
      <trkpt lat="45.01676" lon="5.50084">
        <ele>1299</ele>
        <time>2024-07-14T08:40:48.000Z</time>
      </trkpt>
      <trkpt lat="45.01677" lon="5.50083">
        <ele>1299.1999511719</ele>
        <time>2024-07-14T08:40:49.000Z</time>
      </trkpt>
      <trkpt lat="45.01678" lon="5.50081">
        <ele>1299.5999755859</ele>
        <time>2024-07-14T08:40:50.000Z</time>
      </trkpt>
      <trkpt lat="45.01679" lon="5.50079">
        <ele>1299.8000488281</ele>
        <time>2024-07-14T08:40:51.000Z</time>
      </trkpt>
      <trkpt lat="45.01681" lon="5.50077">
        <ele>1300</ele>
        <time>2024-07-14T08:40:52.000Z</time>
      </trkpt>
      <trkpt lat="45.01681" lon="5.50076">
        <ele>1300.1999511719</ele>
        <time>2024-07-14T08:40:53.000Z</time>
      </trkpt>
      <trkpt lat="45.01682" lon="5.50075">
        <ele>1300.4000244141</ele>
        <time>2024-07-14T08:40:54.000Z</time>
      </trkpt>
      <trkpt lat="45.01682" lon="5.50075">
        <ele>1300.5999755859</ele>
        <time>2024-07-14T08:40:55.000Z</time>
      </trkpt>
      <trkpt lat="45.01683" lon="5.50074">
        <ele>1300.8000488281</ele>
        <time>2024-07-14T08:40:56.000Z</time>
      </trkpt>
      <trkpt lat="45.01684" lon="5.50073">
        <ele>1301</ele>
        <time>2024-07-14T08:40:57.000Z</time>
      </trkpt>
      <trkpt lat="45.01685" lon="5.50071">
        <ele>1301.1999511719</ele>
        <time>2024-07-14T08:40:58.000Z</time>
      </trkpt>
      <trkpt lat="45.01686" lon="5.50069">
        <ele>1301.4000244141</ele>
        <time>2024-07-14T08:40:59.000Z</time>
      </trkpt>
      <trkpt lat="45.01687" lon="5.50068">
        <ele>1301.5999755859</ele>
        <time>2024-07-14T08:41:00.000Z</time>
      </trkpt>
      <trkpt lat="45.01689" lon="5.50066">
        <ele>1301.8000488281</ele>
        <time>2024-07-14T08:41:01.000Z</time>
      </trkpt>
      <trkpt lat="45.01689" lon="5.50065">
        <ele>1302</ele>
        <time>2024-07-14T08:41:02.000Z</time>
      </trkpt>
      <trkpt lat="45.0169" lon="5.50064">
        <ele>1302.1999511719</ele>
        <time>2024-07-14T08:41:03.000Z</time>
      </trkpt>
      <trkpt lat="45.01691" lon="5.50063">
        <ele>1302.4000244141</ele>
        <time>2024-07-14T08:41:04.000Z</time>
      </trkpt>
      <trkpt lat="45.01692" lon="5.50062">
        <ele>1302.5999755859</ele>
        <time>2024-07-14T08:41:05.000Z</time>
      </trkpt>
      <trkpt lat="45.01693" lon="5.50061">
        <ele>1302.8000488281</ele>
        <time>2024-07-14T08:41:06.000Z</time>
      </trkpt>
      <trkpt lat="45.01693" lon="5.5006">
        <ele>1303</ele>
        <time>2024-07-14T08:41:07.000Z</time>
      </trkpt>
      <trkpt lat="45.01694" lon="5.50059">
        <ele>1303.1999511719</ele>
        <time>2024-07-14T08:41:08.000Z</time>
      </trkpt>
      <trkpt lat="45.01695" lon="5.50058">
        <ele>1303.4000244141</ele>
        <time>2024-07-14T08:41:09.000Z</time>
      </trkpt>
      <trkpt lat="45.01696" lon="5.50057">
        <ele>1303.5999755859</ele>
        <time>2024-07-14T08:41:10.000Z</time>
      </trkpt>
      <trkpt lat="45.01697" lon="5.50055">
        <ele>1303.8000488281</ele>
        <time>2024-07-14T08:41:11.000Z</time>
      </trkpt>
      <trkpt lat="45.01697" lon="5.50054">
        <ele>1304</ele>
        <time>2024-07-14T08:41:12.000Z</time>
      </trkpt>
      <trkpt lat="45.01698" lon="5.50053">
        <ele>1304.1999511719</ele>
        <time>2024-07-14T08:41:13.000Z</time>
      </trkpt>
      <trkpt lat="45.01699" lon="5.50052">
        <ele>1304.4000244141</ele>
        <time>2024-07-14T08:41:14.000Z</time>
      </trkpt>
      <trkpt lat="45.01699" lon="5.50051">
        <ele>1304.5999755859</ele>
        <time>2024-07-14T08:41:15.000Z</time>
      </trkpt>
      <trkpt lat="45.017" lon="5.5005">
        <ele>1305</ele>
        <time>2024-07-14T08:41:16.000Z</time>
      </trkpt>
      <trkpt lat="45.017" lon="5.50049">
        <ele>1305.1999511719</ele>
        <time>2024-07-14T08:41:17.000Z</time>
      </trkpt>
      <trkpt lat="45.01701" lon="5.50048">
        <ele>1305.4000244141</ele>
        <time>2024-07-14T08:41:18.000Z</time>
      </trkpt>
      <trkpt lat="45.01703" lon="5.50047">
        <ele>1305.5999755859</ele>
        <time>2024-07-14T08:41:19.000Z</time>
      </trkpt>
      <trkpt lat="45.01704" lon="5.50046">
        <ele>1305.8000488281</ele>
        <time>2024-07-14T08:41:20.000Z</time>
      </trkpt>
      <trkpt lat="45.01705" lon="5.50045">
        <ele>1306.1999511719</ele>
        <time>2024-07-14T08:41:21.000Z</time>
      </trkpt>
      <trkpt lat="45.01706" lon="5.50044">
        <ele>1306.4000244141</ele>
        <time>2024-07-14T08:41:22.000Z</time>
      </trkpt>
      <trkpt lat="45.01707" lon="5.50043">
        <ele>1306.5999755859</ele>
        <time>2024-07-14T08:41:23.000Z</time>
      </trkpt>
      <trkpt lat="45.01707" lon="5.50042">
        <ele>1307</ele>
        <time>2024-07-14T08:41:24.000Z</time>
      </trkpt>
      <trkpt lat="45.01708" lon="5.50041">
        <ele>1307.1999511719</ele>
        <time>2024-07-14T08:41:25.000Z</time>
      </trkpt>
      <trkpt lat="45.01708" lon="5.5004">
        <ele>1307.5999755859</ele>
        <time>2024-07-14T08:41:26.000Z</time>
      </trkpt>
      <trkpt lat="45.01709" lon="5.50038">
        <ele>1307.8000488281</ele>
        <time>2024-07-14T08:41:27.000Z</time>
      </trkpt>
      <trkpt lat="45.01709" lon="5.50037">
        <ele>1307.8000488281</ele>
        <time>2024-07-14T08:41:28.000Z</time>
      </trkpt>
      <trkpt lat="45.0171" lon="5.50035">
        <ele>1308</ele>
        <time>2024-07-14T08:41:29.000Z</time>
      </trkpt>
      <trkpt lat="45.01711" lon="5.50034">
        <ele>1308.1999511719</ele>
        <time>2024-07-14T08:41:30.000Z</time>
      </trkpt>
      <trkpt lat="45.01711" lon="5.50032">
        <ele>1308.4000244141</ele>
        <time>2024-07-14T08:41:31.000Z</time>
      </trkpt>
      <trkpt lat="45.01712" lon="5.50031">
        <ele>1308.5999755859</ele>
        <time>2024-07-14T08:41:32.000Z</time>
      </trkpt>
      <trkpt lat="45.01712" lon="5.5003">
        <ele>1308.8000488281</ele>
        <time>2024-07-14T08:41:33.000Z</time>
      </trkpt>
      <trkpt lat="45.01712" lon="5.50028">
        <ele>1309</ele>
        <time>2024-07-14T08:41:34.000Z</time>
      </trkpt>
      <trkpt lat="45.01713" lon="5.50026">
        <ele>1309.1999511719</ele>
        <time>2024-07-14T08:41:35.000Z</time>
      </trkpt>
      <trkpt lat="45.01713" lon="5.50024">
        <ele>1309.4000244141</ele>
        <time>2024-07-14T08:41:36.000Z</time>
      </trkpt>
      <trkpt lat="45.01713" lon="5.50022">
        <ele>1309.4000244141</ele>
        <time>2024-07-14T08:41:37.000Z</time>
      </trkpt>
      <trkpt lat="45.01713" lon="5.5002">
        <ele>1309.8000488281</ele>
        <time>2024-07-14T08:41:38.000Z</time>
      </trkpt>
      <trkpt lat="45.01714" lon="5.50018">
        <ele>1310</ele>
        <time>2024-07-14T08:41:39.000Z</time>
      </trkpt>
      <trkpt lat="45.01714" lon="5.50015">
        <ele>1310.1999511719</ele>
        <time>2024-07-14T08:41:40.000Z</time>
      </trkpt>
      <trkpt lat="45.01715" lon="5.50013">
        <ele>1310.4000244141</ele>
        <time>2024-07-14T08:41:41.000Z</time>
      </trkpt>
      <trkpt lat="45.01715" lon="5.50011">
        <ele>1310.5999755859</ele>
        <time>2024-07-14T08:41:42.000Z</time>
      </trkpt>
      <trkpt lat="45.01716" lon="5.50008">
        <ele>1310.8000488281</ele>
        <time>2024-07-14T08:41:43.000Z</time>
      </trkpt>
      <trkpt lat="45.01717" lon="5.50006">
        <ele>1311</ele>
        <time>2024-07-14T08:41:44.000Z</time>
      </trkpt>
      <trkpt lat="45.01718" lon="5.50004">
        <ele>1311.1999511719</ele>
        <time>2024-07-14T08:41:45.000Z</time>
      </trkpt>
      <trkpt lat="45.01719" lon="5.50002">
        <ele>1311.4000244141</ele>
        <time>2024-07-14T08:41:46.000Z</time>
      </trkpt>
      <trkpt lat="45.01719" lon="5.50001">
        <ele>1311.5999755859</ele>
        <time>2024-07-14T08:41:47.000Z</time>
      </trkpt>
      <trkpt lat="45.0172" lon="5.49999">
        <ele>1311.8000488281</ele>
        <time>2024-07-14T08:41:48.000Z</time>
      </trkpt>
      <trkpt lat="45.01721" lon="5.49997">
        <ele>1312.1999511719</ele>
        <time>2024-07-14T08:41:49.000Z</time>
      </trkpt>
      <trkpt lat="45.01723" lon="5.49996">
        <ele>1312.1999511719</ele>
        <time>2024-07-14T08:41:50.000Z</time>
      </trkpt>
      <trkpt lat="45.01724" lon="5.49994">
        <ele>1312.4000244141</ele>
        <time>2024-07-14T08:41:51.000Z</time>
      </trkpt>
      <trkpt lat="45.01725" lon="5.49993">
        <ele>1312.5999755859</ele>
        <time>2024-07-14T08:41:52.000Z</time>
      </trkpt>
      <trkpt lat="45.01727" lon="5.49991">
        <ele>1312.5999755859</ele>
        <time>2024-07-14T08:41:53.000Z</time>
      </trkpt>
      <trkpt lat="45.01728" lon="5.4999">
        <ele>1312.8000488281</ele>
        <time>2024-07-14T08:41:54.000Z</time>
      </trkpt>
      <trkpt lat="45.01729" lon="5.49989">
        <ele>1313</ele>
        <time>2024-07-14T08:41:55.000Z</time>
      </trkpt>
      <trkpt lat="45.01731" lon="5.49988">
        <ele>1313.1999511719</ele>
        <time>2024-07-14T08:41:56.000Z</time>
      </trkpt>
      <trkpt lat="45.01732" lon="5.49988">
        <ele>1313.4000244141</ele>
        <time>2024-07-14T08:41:57.000Z</time>
      </trkpt>
      <trkpt lat="45.01734" lon="5.49987">
        <ele>1313.5999755859</ele>
        <time>2024-07-14T08:41:58.000Z</time>
      </trkpt>
      <trkpt lat="45.01735" lon="5.49987">
        <ele>1314</ele>
        <time>2024-07-14T08:41:59.000Z</time>
      </trkpt>
      <trkpt lat="45.01736" lon="5.49986">
        <ele>1314</ele>
        <time>2024-07-14T08:42:00.000Z</time>
      </trkpt>
      <trkpt lat="45.01738" lon="5.49986">
        <ele>1314.1999511719</ele>
        <time>2024-07-14T08:42:01.000Z</time>
      </trkpt>
      <trkpt lat="45.0174" lon="5.49986">
        <ele>1314.4000244141</ele>
        <time>2024-07-14T08:42:02.000Z</time>
      </trkpt>
      <trkpt lat="45.01741" lon="5.49986">
        <ele>1314.5999755859</ele>
        <time>2024-07-14T08:42:03.000Z</time>
      </trkpt>
      <trkpt lat="45.01743" lon="5.49986">
        <ele>1314.8000488281</ele>
        <time>2024-07-14T08:42:04.000Z</time>
      </trkpt>
      <trkpt lat="45.01745" lon="5.49986">
        <ele>1315</ele>
        <time>2024-07-14T08:42:05.000Z</time>
      </trkpt>
      <trkpt lat="45.01747" lon="5.49987">
        <ele>1315</ele>
        <time>2024-07-14T08:42:06.000Z</time>
      </trkpt>
      <trkpt lat="45.01749" lon="5.49988">
        <ele>1315.1999511719</ele>
        <time>2024-07-14T08:42:07.000Z</time>
      </trkpt>
      <trkpt lat="45.01751" lon="5.4999">
        <ele>1315.1999511719</ele>
        <time>2024-07-14T08:42:08.000Z</time>
      </trkpt>
      <trkpt lat="45.01753" lon="5.49992">
        <ele>1315.1999511719</ele>
        <time>2024-07-14T08:42:09.000Z</time>
      </trkpt>
      <trkpt lat="45.01754" lon="5.49994">
        <ele>1315.1999511719</ele>
        <time>2024-07-14T08:42:10.000Z</time>
      </trkpt>
      <trkpt lat="45.01756" lon="5.49995">
        <ele>1315.1999511719</ele>
        <time>2024-07-14T08:42:11.000Z</time>
      </trkpt>
      <trkpt lat="45.01758" lon="5.49997">
        <ele>1315</ele>
        <time>2024-07-14T08:42:12.000Z</time>
      </trkpt>
      <trkpt lat="45.0176" lon="5.49998">
        <ele>1314.8000488281</ele>
        <time>2024-07-14T08:42:13.000Z</time>
      </trkpt>
      <trkpt lat="45.01761" lon="5.49999">
        <ele>1314.4000244141</ele>
        <time>2024-07-14T08:42:14.000Z</time>
      </trkpt>
      <trkpt lat="45.01763" lon="5.5">
        <ele>1314.1999511719</ele>
        <time>2024-07-14T08:42:15.000Z</time>
      </trkpt>
      <trkpt lat="45.01765" lon="5.5">
        <ele>1314</ele>
        <time>2024-07-14T08:42:16.000Z</time>
      </trkpt>
      <trkpt lat="45.01767" lon="5.5">
        <ele>1313.8000488281</ele>
        <time>2024-07-14T08:42:17.000Z</time>
      </trkpt>
      <trkpt lat="45.01768" lon="5.5">
        <ele>1313.5999755859</ele>
        <time>2024-07-14T08:42:18.000Z</time>
      </trkpt>
      <trkpt lat="45.0177" lon="5.5">
        <ele>1313.4000244141</ele>
        <time>2024-07-14T08:42:19.000Z</time>
      </trkpt>
      <trkpt lat="45.01772" lon="5.5">
        <ele>1313.1999511719</ele>
        <time>2024-07-14T08:42:20.000Z</time>
      </trkpt>
      <trkpt lat="45.01775" lon="5.5">
        <ele>1312.8000488281</ele>
        <time>2024-07-14T08:42:21.000Z</time>
      </trkpt>
      <trkpt lat="45.01777" lon="5.49999">
        <ele>1312.5999755859</ele>
        <time>2024-07-14T08:42:22.000Z</time>
      </trkpt>
      <trkpt lat="45.01779" lon="5.49999">
        <ele>1312.1999511719</ele>
        <time>2024-07-14T08:42:23.000Z</time>
      </trkpt>
      <trkpt lat="45.01782" lon="5.49998">
        <ele>1312</ele>
        <time>2024-07-14T08:42:24.000Z</time>
      </trkpt>
      <trkpt lat="45.01784" lon="5.49998">
        <ele>1311.8000488281</ele>
        <time>2024-07-14T08:42:25.000Z</time>
      </trkpt>
      <trkpt lat="45.01787" lon="5.49998">
        <ele>1311.1999511719</ele>
        <time>2024-07-14T08:42:26.000Z</time>
      </trkpt>
      <trkpt lat="45.01789" lon="5.49998">
        <ele>1311</ele>
        <time>2024-07-14T08:42:27.000Z</time>
      </trkpt>
      <trkpt lat="45.01791" lon="5.49998">
        <ele>1310.5999755859</ele>
        <time>2024-07-14T08:42:28.000Z</time>
      </trkpt>
      <trkpt lat="45.01793" lon="5.49999">
        <ele>1310.1999511719</ele>
        <time>2024-07-14T08:42:29.000Z</time>
      </trkpt>
      <trkpt lat="45.01796" lon="5.5">
        <ele>1309.1999511719</ele>
        <time>2024-07-14T08:42:30.000Z</time>
      </trkpt>
      <trkpt lat="45.01798" lon="5.50001">
        <ele>1308.8000488281</ele>
        <time>2024-07-14T08:42:31.000Z</time>
      </trkpt>
      <trkpt lat="45.01801" lon="5.50002">
        <ele>1308.1999511719</ele>
        <time>2024-07-14T08:42:32.000Z</time>
      </trkpt>
      <trkpt lat="45.01803" lon="5.50004">
        <ele>1307.5999755859</ele>
        <time>2024-07-14T08:42:33.000Z</time>
      </trkpt>
      <trkpt lat="45.01805" lon="5.50005">
        <ele>1307.1999511719</ele>
        <time>2024-07-14T08:42:34.000Z</time>
      </trkpt>
      <trkpt lat="45.01807" lon="5.50007">
        <ele>1307</ele>
        <time>2024-07-14T08:42:35.000Z</time>
      </trkpt>
      <trkpt lat="45.0181" lon="5.50009">
        <ele>1306.5999755859</ele>
        <time>2024-07-14T08:42:36.000Z</time>
      </trkpt>
      <trkpt lat="45.01812" lon="5.50012">
        <ele>1306.5999755859</ele>
        <time>2024-07-14T08:42:37.000Z</time>
      </trkpt>
      <trkpt lat="45.01814" lon="5.50013">
        <ele>1306.4000244141</ele>
        <time>2024-07-14T08:42:38.000Z</time>
      </trkpt>
      <trkpt lat="45.01817" lon="5.50015">
        <ele>1306</ele>
        <time>2024-07-14T08:42:39.000Z</time>
      </trkpt>
      <trkpt lat="45.01819" lon="5.50017">
        <ele>1305</ele>
        <time>2024-07-14T08:42:40.000Z</time>
      </trkpt>
      <trkpt lat="45.01822" lon="5.50018">
        <ele>1304.5999755859</ele>
        <time>2024-07-14T08:42:41.000Z</time>
      </trkpt>
      <trkpt lat="45.01824" lon="5.50019">
        <ele>1304.4000244141</ele>
        <time>2024-07-14T08:42:42.000Z</time>
      </trkpt>
      <trkpt lat="45.01827" lon="5.5002">
        <ele>1304.1999511719</ele>
        <time>2024-07-14T08:42:43.000Z</time>
      </trkpt>
      <trkpt lat="45.01829" lon="5.5002">
        <ele>1304</ele>
        <time>2024-07-14T08:42:44.000Z</time>
      </trkpt>
      <trkpt lat="45.01832" lon="5.50021">
        <ele>1303.5999755859</ele>
        <time>2024-07-14T08:42:45.000Z</time>
      </trkpt>
      <trkpt lat="45.01834" lon="5.50022">
        <ele>1303.5999755859</ele>
        <time>2024-07-14T08:42:46.000Z</time>
      </trkpt>
      <trkpt lat="45.01837" lon="5.50022">
        <ele>1303.1999511719</ele>
        <time>2024-07-14T08:42:47.000Z</time>
      </trkpt>
      <trkpt lat="45.0184" lon="5.50023">
        <ele>1303</ele>
        <time>2024-07-14T08:42:48.000Z</time>
      </trkpt>
      <trkpt lat="45.01843" lon="5.50025">
        <ele>1302.8000488281</ele>
        <time>2024-07-14T08:42:49.000Z</time>
      </trkpt>
      <trkpt lat="45.01846" lon="5.50026">
        <ele>1302.5999755859</ele>
        <time>2024-07-14T08:42:50.000Z</time>
      </trkpt>
      <trkpt lat="45.0185" lon="5.50028">
        <ele>1302</ele>
        <time>2024-07-14T08:42:51.000Z</time>
      </trkpt>
      <trkpt lat="45.01852" lon="5.50029">
        <ele>1301.8000488281</ele>
        <time>2024-07-14T08:42:52.000Z</time>
      </trkpt>
      <trkpt lat="45.01855" lon="5.50031">
        <ele>1301.5999755859</ele>
        <time>2024-07-14T08:42:53.000Z</time>
      </trkpt>
      <trkpt lat="45.01858" lon="5.50033">
        <ele>1301.1999511719</ele>
        <time>2024-07-14T08:42:54.000Z</time>
      </trkpt>
      <trkpt lat="45.01861" lon="5.50035">
        <ele>1301</ele>
        <time>2024-07-14T08:42:55.000Z</time>
      </trkpt>
      <trkpt lat="45.01863" lon="5.50037">
        <ele>1300.8000488281</ele>
        <time>2024-07-14T08:42:56.000Z</time>
      </trkpt>
      <trkpt lat="45.01866" lon="5.5004">
        <ele>1300.5999755859</ele>
        <time>2024-07-14T08:42:57.000Z</time>
      </trkpt>
      <trkpt lat="45.01868" lon="5.50042">
        <ele>1300.4000244141</ele>
        <time>2024-07-14T08:42:58.000Z</time>
      </trkpt>
      <trkpt lat="45.0187" lon="5.50044">
        <ele>1300.4000244141</ele>
        <time>2024-07-14T08:42:59.000Z</time>
      </trkpt>
      <trkpt lat="45.01872" lon="5.50045">
        <ele>1300.1999511719</ele>
        <time>2024-07-14T08:43:00.000Z</time>
      </trkpt>
      <trkpt lat="45.01874" lon="5.50047">
        <ele>1300</ele>
        <time>2024-07-14T08:43:01.000Z</time>
      </trkpt>
      <trkpt lat="45.01877" lon="5.50048">
        <ele>1299.8000488281</ele>
        <time>2024-07-14T08:43:02.000Z</time>
      </trkpt>
      <trkpt lat="45.01879" lon="5.5005">
        <ele>1299.8000488281</ele>
        <time>2024-07-14T08:43:03.000Z</time>
      </trkpt>
      <trkpt lat="45.01881" lon="5.50051">
        <ele>1299.5999755859</ele>
        <time>2024-07-14T08:43:04.000Z</time>
      </trkpt>
      <trkpt lat="45.01883" lon="5.50051">
        <ele>1299.4000244141</ele>
        <time>2024-07-14T08:43:05.000Z</time>
      </trkpt>
      <trkpt lat="45.01885" lon="5.50051">
        <ele>1299.1999511719</ele>
        <time>2024-07-14T08:43:06.000Z</time>
      </trkpt>
      <trkpt lat="45.01887" lon="5.50051">
        <ele>1299.1999511719</ele>
        <time>2024-07-14T08:43:07.000Z</time>
      </trkpt>
      <trkpt lat="45.0189" lon="5.50052">
        <ele>1299</ele>
        <time>2024-07-14T08:43:08.000Z</time>
      </trkpt>
      <trkpt lat="45.01893" lon="5.50052">
        <ele>1299</ele>
        <time>2024-07-14T08:43:09.000Z</time>
      </trkpt>
      <trkpt lat="45.01896" lon="5.50052">
        <ele>1299</ele>
        <time>2024-07-14T08:43:10.000Z</time>
      </trkpt>
      <trkpt lat="45.01899" lon="5.50052">
        <ele>1299</ele>
        <time>2024-07-14T08:43:11.000Z</time>
      </trkpt>
      <trkpt lat="45.01902" lon="5.50053">
        <ele>1298.8000488281</ele>
        <time>2024-07-14T08:43:12.000Z</time>
      </trkpt>
      <trkpt lat="45.01905" lon="5.50054">
        <ele>1298.8000488281</ele>
        <time>2024-07-14T08:43:13.000Z</time>
      </trkpt>
      <trkpt lat="45.01907" lon="5.50054">
        <ele>1298.8000488281</ele>
        <time>2024-07-14T08:43:14.000Z</time>
      </trkpt>
      <trkpt lat="45.0191" lon="5.50055">
        <ele>1298.5999755859</ele>
        <time>2024-07-14T08:43:15.000Z</time>
      </trkpt>
      <trkpt lat="45.01913" lon="5.50055">
        <ele>1298.5999755859</ele>
        <time>2024-07-14T08:43:16.000Z</time>
      </trkpt>
      <trkpt lat="45.01916" lon="5.50055">
        <ele>1298.4000244141</ele>
        <time>2024-07-14T08:43:17.000Z</time>
      </trkpt>
      <trkpt lat="45.01918" lon="5.50054">
        <ele>1298.4000244141</ele>
        <time>2024-07-14T08:43:18.000Z</time>
      </trkpt>
      <trkpt lat="45.0192" lon="5.50054">
        <ele>1298.4000244141</ele>
        <time>2024-07-14T08:43:19.000Z</time>
      </trkpt>
      <trkpt lat="45.01922" lon="5.50053">
        <ele>1298.4000244141</ele>
        <time>2024-07-14T08:43:20.000Z</time>
      </trkpt>
      <trkpt lat="45.01924" lon="5.50052">
        <ele>1298.4000244141</ele>
        <time>2024-07-14T08:43:21.000Z</time>
      </trkpt>
      <trkpt lat="45.01926" lon="5.50051">
        <ele>1298.4000244141</ele>
        <time>2024-07-14T08:43:22.000Z</time>
      </trkpt>
      <trkpt lat="45.01928" lon="5.5005">
        <ele>1298.4000244141</ele>
        <time>2024-07-14T08:43:23.000Z</time>
      </trkpt>
      <trkpt lat="45.0193" lon="5.50049">
        <ele>1298.5999755859</ele>
        <time>2024-07-14T08:43:24.000Z</time>
      </trkpt>
      <trkpt lat="45.01933" lon="5.50049">
        <ele>1298.5999755859</ele>
        <time>2024-07-14T08:43:25.000Z</time>
      </trkpt>
      <trkpt lat="45.01935" lon="5.50049">
        <ele>1298.5999755859</ele>
        <time>2024-07-14T08:43:26.000Z</time>
      </trkpt>
      <trkpt lat="45.01937" lon="5.50049">
        <ele>1298.8000488281</ele>
        <time>2024-07-14T08:43:27.000Z</time>
      </trkpt>
      <trkpt lat="45.01939" lon="5.50049">
        <ele>1298.8000488281</ele>
        <time>2024-07-14T08:43:28.000Z</time>
      </trkpt>
      <trkpt lat="45.01942" lon="5.5005">
        <ele>1298.8000488281</ele>
        <time>2024-07-14T08:43:29.000Z</time>
      </trkpt>
      <trkpt lat="45.01944" lon="5.5005">
        <ele>1298.8000488281</ele>
        <time>2024-07-14T08:43:30.000Z</time>
      </trkpt>
      <trkpt lat="45.01946" lon="5.50051">
        <ele>1298.8000488281</ele>
        <time>2024-07-14T08:43:31.000Z</time>
      </trkpt>
      <trkpt lat="45.01948" lon="5.50052">
        <ele>1298.5999755859</ele>
        <time>2024-07-14T08:43:32.000Z</time>
      </trkpt>
      <trkpt lat="45.0195" lon="5.50052">
        <ele>1298.1999511719</ele>
        <time>2024-07-14T08:43:33.000Z</time>
      </trkpt>
      <trkpt lat="45.01952" lon="5.50053">
        <ele>1297.8000488281</ele>
        <time>2024-07-14T08:43:34.000Z</time>
      </trkpt>
      <trkpt lat="45.01955" lon="5.50054">
        <ele>1297.5999755859</ele>
        <time>2024-07-14T08:43:35.000Z</time>
      </trkpt>
      <trkpt lat="45.01957" lon="5.50054">
        <ele>1297.4000244141</ele>
        <time>2024-07-14T08:43:36.000Z</time>
      </trkpt>
      <trkpt lat="45.0196" lon="5.50055">
        <ele>1297.4000244141</ele>
        <time>2024-07-14T08:43:37.000Z</time>
      </trkpt>
      <trkpt lat="45.01964" lon="5.50056">
        <ele>1297.1999511719</ele>
        <time>2024-07-14T08:43:38.000Z</time>
      </trkpt>
      <trkpt lat="45.01966" lon="5.50057">
        <ele>1297</ele>
        <time>2024-07-14T08:43:39.000Z</time>
      </trkpt>
      <trkpt lat="45.01969" lon="5.50057">
        <ele>1297</ele>
        <time>2024-07-14T08:43:40.000Z</time>
      </trkpt>
      <trkpt lat="45.01972" lon="5.50058">
        <ele>1296.8000488281</ele>
        <time>2024-07-14T08:43:41.000Z</time>
      </trkpt>
      <trkpt lat="45.01974" lon="5.50058">
        <ele>1296.8000488281</ele>
        <time>2024-07-14T08:43:42.000Z</time>
      </trkpt>
      <trkpt lat="45.01977" lon="5.50059">
        <ele>1296.5999755859</ele>
        <time>2024-07-14T08:43:43.000Z</time>
      </trkpt>
      <trkpt lat="45.01979" lon="5.50059">
        <ele>1296.5999755859</ele>
        <time>2024-07-14T08:43:44.000Z</time>
      </trkpt>
      <trkpt lat="45.01981" lon="5.50059">
        <ele>1296.4000244141</ele>
        <time>2024-07-14T08:43:45.000Z</time>
      </trkpt>
      <trkpt lat="45.01983" lon="5.50059">
        <ele>1296.4000244141</ele>
        <time>2024-07-14T08:43:46.000Z</time>
      </trkpt>
      <trkpt lat="45.01986" lon="5.50058">
        <ele>1296.1999511719</ele>
        <time>2024-07-14T08:43:47.000Z</time>
      </trkpt>
      <trkpt lat="45.01988" lon="5.50058">
        <ele>1296</ele>
        <time>2024-07-14T08:43:48.000Z</time>
      </trkpt>
      <trkpt lat="45.0199" lon="5.50058">
        <ele>1296</ele>
        <time>2024-07-14T08:43:49.000Z</time>
      </trkpt>
      <trkpt lat="45.01993" lon="5.50057">
        <ele>1296</ele>
        <time>2024-07-14T08:43:50.000Z</time>
      </trkpt>
      <trkpt lat="45.01995" lon="5.50057">
        <ele>1296</ele>
        <time>2024-07-14T08:43:51.000Z</time>
      </trkpt>
      <trkpt lat="45.01997" lon="5.50056">
        <ele>1296</ele>
        <time>2024-07-14T08:43:52.000Z</time>
      </trkpt>
      <trkpt lat="45.02" lon="5.50056">
        <ele>1296.1999511719</ele>
        <time>2024-07-14T08:43:53.000Z</time>
      </trkpt>
      <trkpt lat="45.02002" lon="5.50056">
        <ele>1296.1999511719</ele>
        <time>2024-07-14T08:43:54.000Z</time>
      </trkpt>
      <trkpt lat="45.02004" lon="5.50056">
        <ele>1296.1999511719</ele>
        <time>2024-07-14T08:43:55.000Z</time>
      </trkpt>
      <trkpt lat="45.02006" lon="5.50056">
        <ele>1296.1999511719</ele>
        <time>2024-07-14T08:43:56.000Z</time>
      </trkpt>
      <trkpt lat="45.02009" lon="5.50057">
        <ele>1296.1999511719</ele>
        <time>2024-07-14T08:43:57.000Z</time>
      </trkpt>
      <trkpt lat="45.02012" lon="5.50058">
        <ele>1296.4000244141</ele>
        <time>2024-07-14T08:43:58.000Z</time>
      </trkpt>
      <trkpt lat="45.02014" lon="5.50059">
        <ele>1296.4000244141</ele>
        <time>2024-07-14T08:43:59.000Z</time>
      </trkpt>
      <trkpt lat="45.02017" lon="5.5006">
        <ele>1296.4000244141</ele>
        <time>2024-07-14T08:44:00.000Z</time>
      </trkpt>
      <trkpt lat="45.02019" lon="5.5006">
        <ele>1296.4000244141</ele>
        <time>2024-07-14T08:44:01.000Z</time>
      </trkpt>
      <trkpt lat="45.02022" lon="5.5006">
        <ele>1296.5999755859</ele>
        <time>2024-07-14T08:44:02.000Z</time>
      </trkpt>
      <trkpt lat="45.02024" lon="5.50061">
        <ele>1296.5999755859</ele>
        <time>2024-07-14T08:44:03.000Z</time>
      </trkpt>
      <trkpt lat="45.02026" lon="5.50061">
        <ele>1296.8000488281</ele>
        <time>2024-07-14T08:44:04.000Z</time>
      </trkpt>
      <trkpt lat="45.02028" lon="5.50061">
        <ele>1296.8000488281</ele>
        <time>2024-07-14T08:44:05.000Z</time>
      </trkpt>
      <trkpt lat="45.0203" lon="5.50062">
        <ele>1296.5999755859</ele>
        <time>2024-07-14T08:44:06.000Z</time>
      </trkpt>
      <trkpt lat="45.02031" lon="5.50062">
        <ele>1296.5999755859</ele>
        <time>2024-07-14T08:44:07.000Z</time>
      </trkpt>
      <trkpt lat="45.02034" lon="5.50063">
        <ele>1296.5999755859</ele>
        <time>2024-07-14T08:44:08.000Z</time>
      </trkpt>
      <trkpt lat="45.02036" lon="5.50064">
        <ele>1296.4000244141</ele>
        <time>2024-07-14T08:44:09.000Z</time>
      </trkpt>
      <trkpt lat="45.02038" lon="5.50065">
        <ele>1296.1999511719</ele>
        <time>2024-07-14T08:44:10.000Z</time>
      </trkpt>
      <trkpt lat="45.02041" lon="5.50065">
        <ele>1296</ele>
        <time>2024-07-14T08:44:11.000Z</time>
      </trkpt>
      <trkpt lat="45.02044" lon="5.50066">
        <ele>1295.5999755859</ele>
        <time>2024-07-14T08:44:12.000Z</time>
      </trkpt>
      <trkpt lat="45.02047" lon="5.50067">
        <ele>1295.1999511719</ele>
        <time>2024-07-14T08:44:13.000Z</time>
      </trkpt>
      <trkpt lat="45.0205" lon="5.50068">
        <ele>1294.5999755859</ele>
        <time>2024-07-14T08:44:14.000Z</time>
      </trkpt>
      <trkpt lat="45.02053" lon="5.50069">
        <ele>1294.4000244141</ele>
        <time>2024-07-14T08:44:15.000Z</time>
      </trkpt>
      <trkpt lat="45.02055" lon="5.50071">
        <ele>1294</ele>
        <time>2024-07-14T08:44:16.000Z</time>
      </trkpt>
      <trkpt lat="45.02057" lon="5.50072">
        <ele>1293.8000488281</ele>
        <time>2024-07-14T08:44:17.000Z</time>
      </trkpt>
      <trkpt lat="45.0206" lon="5.50073">
        <ele>1293.1999511719</ele>
        <time>2024-07-14T08:44:18.000Z</time>
      </trkpt>
      <trkpt lat="45.02062" lon="5.50074">
        <ele>1292.8000488281</ele>
        <time>2024-07-14T08:44:19.000Z</time>
      </trkpt>
      <trkpt lat="45.02064" lon="5.50075">
        <ele>1292.8000488281</ele>
        <time>2024-07-14T08:44:20.000Z</time>
      </trkpt>
      <trkpt lat="45.02067" lon="5.50076">
        <ele>1292.8000488281</ele>
        <time>2024-07-14T08:44:21.000Z</time>
      </trkpt>
      <trkpt lat="45.02069" lon="5.50076">
        <ele>1292.5999755859</ele>
        <time>2024-07-14T08:44:22.000Z</time>
      </trkpt>
      <trkpt lat="45.02072" lon="5.50077">
        <ele>1292.4000244141</ele>
        <time>2024-07-14T08:44:23.000Z</time>
      </trkpt>
      <trkpt lat="45.02075" lon="5.50079">
        <ele>1292.4000244141</ele>
        <time>2024-07-14T08:44:24.000Z</time>
      </trkpt>
      <trkpt lat="45.02077" lon="5.5008">
        <ele>1292.1999511719</ele>
        <time>2024-07-14T08:44:25.000Z</time>
      </trkpt>
      <trkpt lat="45.02079" lon="5.50082">
        <ele>1292</ele>
        <time>2024-07-14T08:44:26.000Z</time>
      </trkpt>
      <trkpt lat="45.02081" lon="5.50083">
        <ele>1292</ele>
        <time>2024-07-14T08:44:27.000Z</time>
      </trkpt>
      <trkpt lat="45.02083" lon="5.50084">
        <ele>1291.8000488281</ele>
        <time>2024-07-14T08:44:28.000Z</time>
      </trkpt>
      <trkpt lat="45.02086" lon="5.50085">
        <ele>1291.5999755859</ele>
        <time>2024-07-14T08:44:29.000Z</time>
      </trkpt>
      <trkpt lat="45.02088" lon="5.50086">
        <ele>1291.4000244141</ele>
        <time>2024-07-14T08:44:30.000Z</time>
      </trkpt>
      <trkpt lat="45.0209" lon="5.50087">
        <ele>1291</ele>
        <time>2024-07-14T08:44:31.000Z</time>
      </trkpt>
      <trkpt lat="45.02093" lon="5.50088">
        <ele>1290.8000488281</ele>
        <time>2024-07-14T08:44:32.000Z</time>
      </trkpt>
      <trkpt lat="45.02096" lon="5.5009">
        <ele>1290.4000244141</ele>
        <time>2024-07-14T08:44:33.000Z</time>
      </trkpt>
      <trkpt lat="45.02099" lon="5.50091">
        <ele>1290</ele>
        <time>2024-07-14T08:44:34.000Z</time>
      </trkpt>
      <trkpt lat="45.02101" lon="5.50091">
        <ele>1289.5999755859</ele>
        <time>2024-07-14T08:44:35.000Z</time>
      </trkpt>
      <trkpt lat="45.02104" lon="5.50092">
        <ele>1289.4000244141</ele>
        <time>2024-07-14T08:44:36.000Z</time>
      </trkpt>
      <trkpt lat="45.02107" lon="5.50092">
        <ele>1289</ele>
        <time>2024-07-14T08:44:37.000Z</time>
      </trkpt>
      <trkpt lat="45.0211" lon="5.50091">
        <ele>1289</ele>
        <time>2024-07-14T08:44:38.000Z</time>
      </trkpt>
      <trkpt lat="45.02112" lon="5.50091">
        <ele>1289</ele>
        <time>2024-07-14T08:44:39.000Z</time>
      </trkpt>
      <trkpt lat="45.02115" lon="5.50092">
        <ele>1288.8000488281</ele>
        <time>2024-07-14T08:44:40.000Z</time>
      </trkpt>
      <trkpt lat="45.02117" lon="5.50093">
        <ele>1288.5999755859</ele>
        <time>2024-07-14T08:44:41.000Z</time>
      </trkpt>
      <trkpt lat="45.0212" lon="5.50093">
        <ele>1288.1999511719</ele>
        <time>2024-07-14T08:44:42.000Z</time>
      </trkpt>
      <trkpt lat="45.02122" lon="5.50094">
        <ele>1287.8000488281</ele>
        <time>2024-07-14T08:44:43.000Z</time>
      </trkpt>
      <trkpt lat="45.02125" lon="5.50095">
        <ele>1287.4000244141</ele>
        <time>2024-07-14T08:44:44.000Z</time>
      </trkpt>
      <trkpt lat="45.02127" lon="5.50097">
        <ele>1287.1999511719</ele>
        <time>2024-07-14T08:44:45.000Z</time>
      </trkpt>
      <trkpt lat="45.0213" lon="5.50098">
        <ele>1286.8000488281</ele>
        <time>2024-07-14T08:44:46.000Z</time>
      </trkpt>
      <trkpt lat="45.02133" lon="5.50099">
        <ele>1286.5999755859</ele>
        <time>2024-07-14T08:44:47.000Z</time>
      </trkpt>
      <trkpt lat="45.02135" lon="5.50101">
        <ele>1286.1999511719</ele>
        <time>2024-07-14T08:44:48.000Z</time>
      </trkpt>
      <trkpt lat="45.02138" lon="5.50103">
        <ele>1285.5999755859</ele>
        <time>2024-07-14T08:44:49.000Z</time>
      </trkpt>
      <trkpt lat="45.0214" lon="5.50106">
        <ele>1285</ele>
        <time>2024-07-14T08:44:50.000Z</time>
      </trkpt>
      <trkpt lat="45.02142" lon="5.50108">
        <ele>1284.8000488281</ele>
        <time>2024-07-14T08:44:51.000Z</time>
      </trkpt>
      <trkpt lat="45.02145" lon="5.5011">
        <ele>1284.5999755859</ele>
        <time>2024-07-14T08:44:52.000Z</time>
      </trkpt>
      <trkpt lat="45.02146" lon="5.50113">
        <ele>1284.4000244141</ele>
        <time>2024-07-14T08:44:53.000Z</time>
      </trkpt>
      <trkpt lat="45.02148" lon="5.50115">
        <ele>1284.1999511719</ele>
        <time>2024-07-14T08:44:54.000Z</time>
      </trkpt>
      <trkpt lat="45.02149" lon="5.50117">
        <ele>1283.8000488281</ele>
        <time>2024-07-14T08:44:55.000Z</time>
      </trkpt>
      <trkpt lat="45.02151" lon="5.50119">
        <ele>1283</ele>
        <time>2024-07-14T08:44:56.000Z</time>
      </trkpt>
      <trkpt lat="45.02153" lon="5.50122">
        <ele>1282.8000488281</ele>
        <time>2024-07-14T08:44:57.000Z</time>
      </trkpt>
      <trkpt lat="45.02155" lon="5.50124">
        <ele>1282.4000244141</ele>
        <time>2024-07-14T08:44:58.000Z</time>
      </trkpt>
      <trkpt lat="45.02156" lon="5.50127">
        <ele>1282</ele>
        <time>2024-07-14T08:44:59.000Z</time>
      </trkpt>
      <trkpt lat="45.02158" lon="5.50129">
        <ele>1281.5999755859</ele>
        <time>2024-07-14T08:45:00.000Z</time>
      </trkpt>
      <trkpt lat="45.0216" lon="5.50132">
        <ele>1281</ele>
        <time>2024-07-14T08:45:01.000Z</time>
      </trkpt>
      <trkpt lat="45.02162" lon="5.50134">
        <ele>1280.5999755859</ele>
        <time>2024-07-14T08:45:02.000Z</time>
      </trkpt>
      <trkpt lat="45.02164" lon="5.50136">
        <ele>1280.4000244141</ele>
        <time>2024-07-14T08:45:03.000Z</time>
      </trkpt>
      <trkpt lat="45.02165" lon="5.50139">
        <ele>1280</ele>
        <time>2024-07-14T08:45:04.000Z</time>
      </trkpt>
      <trkpt lat="45.02166" lon="5.5014">
        <ele>1279.8000488281</ele>
        <time>2024-07-14T08:45:05.000Z</time>
      </trkpt>
      <trkpt lat="45.02168" lon="5.50142">
        <ele>1279.1999511719</ele>
        <time>2024-07-14T08:45:06.000Z</time>
      </trkpt>
      <trkpt lat="45.02169" lon="5.50144">
        <ele>1278.8000488281</ele>
        <time>2024-07-14T08:45:07.000Z</time>
      </trkpt>
      <trkpt lat="45.0217" lon="5.50145">
        <ele>1278</ele>
        <time>2024-07-14T08:45:08.000Z</time>
      </trkpt>
      <trkpt lat="45.02171" lon="5.50146">
        <ele>1277.5999755859</ele>
        <time>2024-07-14T08:45:09.000Z</time>
      </trkpt>
      <trkpt lat="45.02171" lon="5.50146">
        <ele>1277.4000244141</ele>
        <time>2024-07-14T08:45:10.000Z</time>
      </trkpt>
      <trkpt lat="45.02173" lon="5.50147">
        <ele>1276.8000488281</ele>
        <time>2024-07-14T08:45:11.000Z</time>
      </trkpt>
      <trkpt lat="45.02174" lon="5.50147">
        <ele>1276.4000244141</ele>
        <time>2024-07-14T08:45:12.000Z</time>
      </trkpt>
      <trkpt lat="45.02175" lon="5.50148">
        <ele>1276</ele>
        <time>2024-07-14T08:45:13.000Z</time>
      </trkpt>
      <trkpt lat="45.02176" lon="5.50148">
        <ele>1275.5999755859</ele>
        <time>2024-07-14T08:45:14.000Z</time>
      </trkpt>
      <trkpt lat="45.02178" lon="5.50148">
        <ele>1275.1999511719</ele>
        <time>2024-07-14T08:45:15.000Z</time>
      </trkpt>
      <trkpt lat="45.02178" lon="5.50148">
        <ele>1274.5999755859</ele>
        <time>2024-07-14T08:45:16.000Z</time>
      </trkpt>
      <trkpt lat="45.02179" lon="5.50147">
        <ele>1274.1999511719</ele>
        <time>2024-07-14T08:45:17.000Z</time>
      </trkpt>
      <trkpt lat="45.0218" lon="5.50147">
        <ele>1273.5999755859</ele>
        <time>2024-07-14T08:45:18.000Z</time>
      </trkpt>
      <trkpt lat="45.02182" lon="5.50146">
        <ele>1273</ele>
        <time>2024-07-14T08:45:19.000Z</time>
      </trkpt>
      <trkpt lat="45.02184" lon="5.50147">
        <ele>1272.5999755859</ele>
        <time>2024-07-14T08:45:20.000Z</time>
      </trkpt>
      <trkpt lat="45.02186" lon="5.50148">
        <ele>1272.1999511719</ele>
        <time>2024-07-14T08:45:21.000Z</time>
      </trkpt>
      <trkpt lat="45.02188" lon="5.50149">
        <ele>1271.8000488281</ele>
        <time>2024-07-14T08:45:22.000Z</time>
      </trkpt>
      <trkpt lat="45.02189" lon="5.5015">
        <ele>1271.5999755859</ele>
        <time>2024-07-14T08:45:23.000Z</time>
      </trkpt>
      <trkpt lat="45.0219" lon="5.50152">
        <ele>1271.1999511719</ele>
        <time>2024-07-14T08:45:24.000Z</time>
      </trkpt>
      <trkpt lat="45.02191" lon="5.50153">
        <ele>1270.1999511719</ele>
        <time>2024-07-14T08:45:25.000Z</time>
      </trkpt>
      <trkpt lat="45.02192" lon="5.50155">
        <ele>1269.1999511719</ele>
        <time>2024-07-14T08:45:26.000Z</time>
      </trkpt>
      <trkpt lat="45.02194" lon="5.50158">
        <ele>1268.8000488281</ele>
        <time>2024-07-14T08:45:27.000Z</time>
      </trkpt>
      <trkpt lat="45.02195" lon="5.5016">
        <ele>1268.4000244141</ele>
        <time>2024-07-14T08:45:28.000Z</time>
      </trkpt>
      <trkpt lat="45.02197" lon="5.50162">
        <ele>1268.4000244141</ele>
        <time>2024-07-14T08:45:29.000Z</time>
      </trkpt>
      <trkpt lat="45.02198" lon="5.50165">
        <ele>1268.1999511719</ele>
        <time>2024-07-14T08:45:30.000Z</time>
      </trkpt>
      <trkpt lat="45.02199" lon="5.50166">
        <ele>1267.4000244141</ele>
        <time>2024-07-14T08:45:31.000Z</time>
      </trkpt>
      <trkpt lat="45.02201" lon="5.50168">
        <ele>1266.5999755859</ele>
        <time>2024-07-14T08:45:32.000Z</time>
      </trkpt>
      <trkpt lat="45.02202" lon="5.50171">
        <ele>1266.1999511719</ele>
        <time>2024-07-14T08:45:33.000Z</time>
      </trkpt>
      <trkpt lat="45.02204" lon="5.50173">
        <ele>1265.1999511719</ele>
        <time>2024-07-14T08:45:34.000Z</time>
      </trkpt>
      <trkpt lat="45.02206" lon="5.50176">
        <ele>1264.8000488281</ele>
        <time>2024-07-14T08:45:35.000Z</time>
      </trkpt>
      <trkpt lat="45.02208" lon="5.50177">
        <ele>1264.1999511719</ele>
        <time>2024-07-14T08:45:36.000Z</time>
      </trkpt>
      <trkpt lat="45.02209" lon="5.50179">
        <ele>1263.5999755859</ele>
        <time>2024-07-14T08:45:37.000Z</time>
      </trkpt>
      <trkpt lat="45.0221" lon="5.50181">
        <ele>1263</ele>
        <time>2024-07-14T08:45:38.000Z</time>
      </trkpt>
      <trkpt lat="45.02211" lon="5.50183">
        <ele>1263</ele>
        <time>2024-07-14T08:45:39.000Z</time>
      </trkpt>
      <trkpt lat="45.02212" lon="5.50185">
        <ele>1262.8000488281</ele>
        <time>2024-07-14T08:45:40.000Z</time>
      </trkpt>
      <trkpt lat="45.02213" lon="5.50186">
        <ele>1262.4000244141</ele>
        <time>2024-07-14T08:45:41.000Z</time>
      </trkpt>
      <trkpt lat="45.02214" lon="5.50187">
        <ele>1262</ele>
        <time>2024-07-14T08:45:42.000Z</time>
      </trkpt>
      <trkpt lat="45.02214" lon="5.50189">
        <ele>1261.5999755859</ele>
        <time>2024-07-14T08:45:43.000Z</time>
      </trkpt>
      <trkpt lat="45.02216" lon="5.5019">
        <ele>1260.8000488281</ele>
        <time>2024-07-14T08:45:44.000Z</time>
      </trkpt>
      <trkpt lat="45.02216" lon="5.50192">
        <ele>1260.4000244141</ele>
        <time>2024-07-14T08:45:45.000Z</time>
      </trkpt>
      <trkpt lat="45.02218" lon="5.50194">
        <ele>1260</ele>
        <time>2024-07-14T08:45:46.000Z</time>
      </trkpt>
      <trkpt lat="45.02219" lon="5.50197">
        <ele>1259.8000488281</ele>
        <time>2024-07-14T08:45:47.000Z</time>
      </trkpt>
      <trkpt lat="45.0222" lon="5.50202">
        <ele>1259.4000244141</ele>
        <time>2024-07-14T08:45:48.000Z</time>
      </trkpt>
      <trkpt lat="45.02221" lon="5.50205">
        <ele>1259.1999511719</ele>
        <time>2024-07-14T08:45:49.000Z</time>
      </trkpt>
      <trkpt lat="45.02223" lon="5.50209">
        <ele>1258.8000488281</ele>
        <time>2024-07-14T08:45:50.000Z</time>
      </trkpt>
      <trkpt lat="45.02224" lon="5.50213">
        <ele>1258.4000244141</ele>
        <time>2024-07-14T08:45:51.000Z</time>
      </trkpt>
      <trkpt lat="45.02225" lon="5.50216">
        <ele>1258</ele>
        <time>2024-07-14T08:45:52.000Z</time>
      </trkpt>
      <trkpt lat="45.02227" lon="5.50219">
        <ele>1257.5999755859</ele>
        <time>2024-07-14T08:45:53.000Z</time>
      </trkpt>
      <trkpt lat="45.02228" lon="5.50221">
        <ele>1257.4000244141</ele>
        <time>2024-07-14T08:45:54.000Z</time>
      </trkpt>
      <trkpt lat="45.0223" lon="5.50222">
        <ele>1257</ele>
        <time>2024-07-14T08:45:55.000Z</time>
      </trkpt>
      <trkpt lat="45.02231" lon="5.50222">
        <ele>1256.5999755859</ele>
        <time>2024-07-14T08:45:56.000Z</time>
      </trkpt>
      <trkpt lat="45.02233" lon="5.50222">
        <ele>1256.4000244141</ele>
        <time>2024-07-14T08:45:57.000Z</time>
      </trkpt>
      <trkpt lat="45.02235" lon="5.50221">
        <ele>1256.4000244141</ele>
        <time>2024-07-14T08:45:58.000Z</time>
      </trkpt>
      <trkpt lat="45.02236" lon="5.5022">
        <ele>1256.4000244141</ele>
        <time>2024-07-14T08:45:59.000Z</time>
      </trkpt>
      <trkpt lat="45.02238" lon="5.5022">
        <ele>1256.4000244141</ele>
        <time>2024-07-14T08:46:00.000Z</time>
      </trkpt>
      <trkpt lat="45.0224" lon="5.50219">
        <ele>1256.5999755859</ele>
        <time>2024-07-14T08:46:01.000Z</time>
      </trkpt>
      <trkpt lat="45.02242" lon="5.50218">
        <ele>1256.5999755859</ele>
        <time>2024-07-14T08:46:02.000Z</time>
      </trkpt>
      <trkpt lat="45.02243" lon="5.50217">
        <ele>1256.8000488281</ele>
        <time>2024-07-14T08:46:03.000Z</time>
      </trkpt>
      <trkpt lat="45.02245" lon="5.50216">
        <ele>1257</ele>
        <time>2024-07-14T08:46:04.000Z</time>
      </trkpt>
      <trkpt lat="45.02246" lon="5.50215">
        <ele>1257.4000244141</ele>
        <time>2024-07-14T08:46:05.000Z</time>
      </trkpt>
      <trkpt lat="45.02247" lon="5.50214">
        <ele>1257.8000488281</ele>
        <time>2024-07-14T08:46:06.000Z</time>
      </trkpt>
      <trkpt lat="45.02248" lon="5.50213">
        <ele>1258</ele>
        <time>2024-07-14T08:46:07.000Z</time>
      </trkpt>
      <trkpt lat="45.0225" lon="5.50212">
        <ele>1258.1999511719</ele>
        <time>2024-07-14T08:46:08.000Z</time>
      </trkpt>
      <trkpt lat="45.02252" lon="5.50211">
        <ele>1258.4000244141</ele>
        <time>2024-07-14T08:46:09.000Z</time>
      </trkpt>
      <trkpt lat="45.02254" lon="5.5021">
        <ele>1258.4000244141</ele>
        <time>2024-07-14T08:46:10.000Z</time>
      </trkpt>
      <trkpt lat="45.02256" lon="5.50209">
        <ele>1258.4000244141</ele>
        <time>2024-07-14T08:46:11.000Z</time>
      </trkpt>
      <trkpt lat="45.02258" lon="5.50208">
        <ele>1258.4000244141</ele>
        <time>2024-07-14T08:46:12.000Z</time>
      </trkpt>
      <trkpt lat="45.0226" lon="5.50207">
        <ele>1258.4000244141</ele>
        <time>2024-07-14T08:46:13.000Z</time>
      </trkpt>
      <trkpt lat="45.02261" lon="5.50206">
        <ele>1258.4000244141</ele>
        <time>2024-07-14T08:46:14.000Z</time>
      </trkpt>
      <trkpt lat="45.02263" lon="5.50205">
        <ele>1258.4000244141</ele>
        <time>2024-07-14T08:46:15.000Z</time>
      </trkpt>
      <trkpt lat="45.02265" lon="5.50204">
        <ele>1258.4000244141</ele>
        <time>2024-07-14T08:46:16.000Z</time>
      </trkpt>
      <trkpt lat="45.02267" lon="5.50203">
        <ele>1258.5999755859</ele>
        <time>2024-07-14T08:46:17.000Z</time>
      </trkpt>
      <trkpt lat="45.02268" lon="5.50202">
        <ele>1259</ele>
        <time>2024-07-14T08:46:18.000Z</time>
      </trkpt>
      <trkpt lat="45.0227" lon="5.502">
        <ele>1259.1999511719</ele>
        <time>2024-07-14T08:46:19.000Z</time>
      </trkpt>
      <trkpt lat="45.02272" lon="5.502">
        <ele>1259.1999511719</ele>
        <time>2024-07-14T08:46:20.000Z</time>
      </trkpt>
      <trkpt lat="45.02274" lon="5.50199">
        <ele>1259.1999511719</ele>
        <time>2024-07-14T08:46:21.000Z</time>
      </trkpt>
      <trkpt lat="45.02275" lon="5.50198">
        <ele>1259.4000244141</ele>
        <time>2024-07-14T08:46:22.000Z</time>
      </trkpt>
      <trkpt lat="45.02276" lon="5.50197">
        <ele>1259.4000244141</ele>
        <time>2024-07-14T08:46:23.000Z</time>
      </trkpt>
      <trkpt lat="45.02277" lon="5.50196">
        <ele>1259.4000244141</ele>
        <time>2024-07-14T08:46:24.000Z</time>
      </trkpt>
      <trkpt lat="45.02278" lon="5.50196">
        <ele>1259.5999755859</ele>
        <time>2024-07-14T08:46:25.000Z</time>
      </trkpt>
      <trkpt lat="45.0228" lon="5.50195">
        <ele>1259.5999755859</ele>
        <time>2024-07-14T08:46:26.000Z</time>
      </trkpt>
      <trkpt lat="45.02281" lon="5.50194">
        <ele>1259.8000488281</ele>
        <time>2024-07-14T08:46:27.000Z</time>
      </trkpt>
      <trkpt lat="45.02283" lon="5.50193">
        <ele>1260</ele>
        <time>2024-07-14T08:46:28.000Z</time>
      </trkpt>
      <trkpt lat="45.02284" lon="5.50191">
        <ele>1260.1999511719</ele>
        <time>2024-07-14T08:46:29.000Z</time>
      </trkpt>
      <trkpt lat="45.02285" lon="5.5019">
        <ele>1260.1999511719</ele>
        <time>2024-07-14T08:46:30.000Z</time>
      </trkpt>
      <trkpt lat="45.02286" lon="5.50189">
        <ele>1260.4000244141</ele>
        <time>2024-07-14T08:46:31.000Z</time>
      </trkpt>
      <trkpt lat="45.02287" lon="5.50188">
        <ele>1260.5999755859</ele>
        <time>2024-07-14T08:46:32.000Z</time>
      </trkpt>
      <trkpt lat="45.02288" lon="5.50186">
        <ele>1260.8000488281</ele>
        <time>2024-07-14T08:46:33.000Z</time>
      </trkpt>
      <trkpt lat="45.0229" lon="5.50184">
        <ele>1261</ele>
        <time>2024-07-14T08:46:34.000Z</time>
      </trkpt>
      <trkpt lat="45.02291" lon="5.50183">
        <ele>1261.4000244141</ele>
        <time>2024-07-14T08:46:35.000Z</time>
      </trkpt>
      <trkpt lat="45.02292" lon="5.50182">
        <ele>1261.5999755859</ele>
        <time>2024-07-14T08:46:36.000Z</time>
      </trkpt>
      <trkpt lat="45.02293" lon="5.50181">
        <ele>1261.8000488281</ele>
        <time>2024-07-14T08:46:37.000Z</time>
      </trkpt>
      <trkpt lat="45.02293" lon="5.50181">
        <ele>1262.1999511719</ele>
        <time>2024-07-14T08:46:38.000Z</time>
      </trkpt>
      <trkpt lat="45.02294" lon="5.5018">
        <ele>1262.1999511719</ele>
        <time>2024-07-14T08:46:39.000Z</time>
      </trkpt>
      <trkpt lat="45.02295" lon="5.5018">
        <ele>1262.5999755859</ele>
        <time>2024-07-14T08:46:40.000Z</time>
      </trkpt>
      <trkpt lat="45.02295" lon="5.5018">
        <ele>1262.8000488281</ele>
        <time>2024-07-14T08:46:41.000Z</time>
      </trkpt>
      <trkpt lat="45.02296" lon="5.50179">
        <ele>1263</ele>
        <time>2024-07-14T08:46:42.000Z</time>
      </trkpt>
      <trkpt lat="45.02297" lon="5.50179">
        <ele>1263.1999511719</ele>
        <time>2024-07-14T08:46:43.000Z</time>
      </trkpt>
      <trkpt lat="45.02298" lon="5.50179">
        <ele>1263.4000244141</ele>
        <time>2024-07-14T08:46:44.000Z</time>
      </trkpt>
      <trkpt lat="45.02298" lon="5.50179">
        <ele>1263.8000488281</ele>
        <time>2024-07-14T08:46:45.000Z</time>
      </trkpt>
      <trkpt lat="45.02299" lon="5.50178">
        <ele>1263.8000488281</ele>
        <time>2024-07-14T08:46:46.000Z</time>
      </trkpt>
      <trkpt lat="45.023" lon="5.50178">
        <ele>1264.1999511719</ele>
        <time>2024-07-14T08:46:47.000Z</time>
      </trkpt>
      <trkpt lat="45.02301" lon="5.50178">
        <ele>1264.4000244141</ele>
        <time>2024-07-14T08:46:48.000Z</time>
      </trkpt>
      <trkpt lat="45.02302" lon="5.50177">
        <ele>1264.5999755859</ele>
        <time>2024-07-14T08:46:49.000Z</time>
      </trkpt>
      <trkpt lat="45.02303" lon="5.50176">
        <ele>1264.8000488281</ele>
        <time>2024-07-14T08:46:50.000Z</time>
      </trkpt>
      <trkpt lat="45.02304" lon="5.50175">
        <ele>1265.1999511719</ele>
        <time>2024-07-14T08:46:51.000Z</time>
      </trkpt>
      <trkpt lat="45.02305" lon="5.50174">
        <ele>1265.4000244141</ele>
        <time>2024-07-14T08:46:52.000Z</time>
      </trkpt>
      <trkpt lat="45.02306" lon="5.50173">
        <ele>1265.5999755859</ele>
        <time>2024-07-14T08:46:53.000Z</time>
      </trkpt>
      <trkpt lat="45.02307" lon="5.50172">
        <ele>1266</ele>
        <time>2024-07-14T08:46:54.000Z</time>
      </trkpt>
      <trkpt lat="45.02308" lon="5.5017">
        <ele>1266.1999511719</ele>
        <time>2024-07-14T08:46:55.000Z</time>
      </trkpt>
      <trkpt lat="45.02309" lon="5.50169">
        <ele>1266.4000244141</ele>
        <time>2024-07-14T08:46:56.000Z</time>
      </trkpt>
      <trkpt lat="45.0231" lon="5.50167">
        <ele>1266.5999755859</ele>
        <time>2024-07-14T08:46:57.000Z</time>
      </trkpt>
      <trkpt lat="45.02311" lon="5.50166">
        <ele>1266.5999755859</ele>
        <time>2024-07-14T08:46:58.000Z</time>
      </trkpt>
      <trkpt lat="45.02312" lon="5.50165">
        <ele>1267</ele>
        <time>2024-07-14T08:46:59.000Z</time>
      </trkpt>
      <trkpt lat="45.02313" lon="5.50164">
        <ele>1267.1999511719</ele>
        <time>2024-07-14T08:47:00.000Z</time>
      </trkpt>
      <trkpt lat="45.02313" lon="5.50163">
        <ele>1267.4000244141</ele>
        <time>2024-07-14T08:47:01.000Z</time>
      </trkpt>
      <trkpt lat="45.02313" lon="5.50163">
        <ele>1267.5999755859</ele>
        <time>2024-07-14T08:47:02.000Z</time>
      </trkpt>
      <trkpt lat="45.02313" lon="5.50162">
        <ele>1267.5999755859</ele>
        <time>2024-07-14T08:47:03.000Z</time>
      </trkpt>
      <trkpt lat="45.02314" lon="5.5016">
        <ele>1268</ele>
        <time>2024-07-14T08:47:04.000Z</time>
      </trkpt>
      <trkpt lat="45.02314" lon="5.50159">
        <ele>1268.1999511719</ele>
        <time>2024-07-14T08:47:05.000Z</time>
      </trkpt>
      <trkpt lat="45.02314" lon="5.50158">
        <ele>1268.4000244141</ele>
        <time>2024-07-14T08:47:06.000Z</time>
      </trkpt>
      <trkpt lat="45.02315" lon="5.50157">
        <ele>1268.5999755859</ele>
        <time>2024-07-14T08:47:07.000Z</time>
      </trkpt>
      <trkpt lat="45.02316" lon="5.50155">
        <ele>1268.5999755859</ele>
        <time>2024-07-14T08:47:08.000Z</time>
      </trkpt>
      <trkpt lat="45.02316" lon="5.50155">
        <ele>1268.8000488281</ele>
        <time>2024-07-14T08:47:09.000Z</time>
      </trkpt>
      <trkpt lat="45.02317" lon="5.50154">
        <ele>1269</ele>
        <time>2024-07-14T08:47:10.000Z</time>
      </trkpt>
      <trkpt lat="45.02317" lon="5.50154">
        <ele>1269.1999511719</ele>
        <time>2024-07-14T08:47:11.000Z</time>
      </trkpt>
      <trkpt lat="45.02318" lon="5.50153">
        <ele>1269.5999755859</ele>
        <time>2024-07-14T08:47:12.000Z</time>
      </trkpt>
      <trkpt lat="45.02319" lon="5.50152">
        <ele>1269.5999755859</ele>
        <time>2024-07-14T08:47:13.000Z</time>
      </trkpt>
      <trkpt lat="45.0232" lon="5.50151">
        <ele>1269.8000488281</ele>
        <time>2024-07-14T08:47:14.000Z</time>
      </trkpt>
      <trkpt lat="45.0232" lon="5.5015">
        <ele>1270.1999511719</ele>
        <time>2024-07-14T08:47:15.000Z</time>
      </trkpt>
      <trkpt lat="45.02321" lon="5.50149">
        <ele>1270.5999755859</ele>
        <time>2024-07-14T08:47:16.000Z</time>
      </trkpt>
      <trkpt lat="45.02322" lon="5.50147">
        <ele>1270.5999755859</ele>
        <time>2024-07-14T08:47:17.000Z</time>
      </trkpt>
      <trkpt lat="45.02323" lon="5.50146">
        <ele>1270.8000488281</ele>
        <time>2024-07-14T08:47:18.000Z</time>
      </trkpt>
      <trkpt lat="45.02324" lon="5.50146">
        <ele>1271</ele>
        <time>2024-07-14T08:47:19.000Z</time>
      </trkpt>
      <trkpt lat="45.02325" lon="5.50145">
        <ele>1271.1999511719</ele>
        <time>2024-07-14T08:47:20.000Z</time>
      </trkpt>
      <trkpt lat="45.02326" lon="5.50144">
        <ele>1271.4000244141</ele>
        <time>2024-07-14T08:47:21.000Z</time>
      </trkpt>
      <trkpt lat="45.02327" lon="5.50142">
        <ele>1271.5999755859</ele>
        <time>2024-07-14T08:47:22.000Z</time>
      </trkpt>
      <trkpt lat="45.02329" lon="5.50141">
        <ele>1272</ele>
        <time>2024-07-14T08:47:23.000Z</time>
      </trkpt>
      <trkpt lat="45.0233" lon="5.50139">
        <ele>1272.1999511719</ele>
        <time>2024-07-14T08:47:24.000Z</time>
      </trkpt>
      <trkpt lat="45.02331" lon="5.50138">
        <ele>1272.1999511719</ele>
        <time>2024-07-14T08:47:25.000Z</time>
      </trkpt>
      <trkpt lat="45.02332" lon="5.50138">
        <ele>1272.4000244141</ele>
        <time>2024-07-14T08:47:26.000Z</time>
      </trkpt>
      <trkpt lat="45.02332" lon="5.50137">
        <ele>1272.4000244141</ele>
        <time>2024-07-14T08:47:27.000Z</time>
      </trkpt>
      <trkpt lat="45.02334" lon="5.50136">
        <ele>1272.5999755859</ele>
        <time>2024-07-14T08:47:28.000Z</time>
      </trkpt>
      <trkpt lat="45.02335" lon="5.50135">
        <ele>1272.8000488281</ele>
        <time>2024-07-14T08:47:29.000Z</time>
      </trkpt>
      <trkpt lat="45.02336" lon="5.50135">
        <ele>1273</ele>
        <time>2024-07-14T08:47:30.000Z</time>
      </trkpt>
      <trkpt lat="45.02337" lon="5.50134">
        <ele>1273.1999511719</ele>
        <time>2024-07-14T08:47:31.000Z</time>
      </trkpt>
      <trkpt lat="45.02338" lon="5.50134">
        <ele>1273.4000244141</ele>
        <time>2024-07-14T08:47:32.000Z</time>
      </trkpt>
      <trkpt lat="45.02339" lon="5.50133">
        <ele>1273.5999755859</ele>
        <time>2024-07-14T08:47:33.000Z</time>
      </trkpt>
      <trkpt lat="45.02339" lon="5.50132">
        <ele>1274</ele>
        <time>2024-07-14T08:47:34.000Z</time>
      </trkpt>
      <trkpt lat="45.0234" lon="5.50131">
        <ele>1274.4000244141</ele>
        <time>2024-07-14T08:47:35.000Z</time>
      </trkpt>
      <trkpt lat="45.02341" lon="5.50129">
        <ele>1274.5999755859</ele>
        <time>2024-07-14T08:47:36.000Z</time>
      </trkpt>
      <trkpt lat="45.02341" lon="5.50128">
        <ele>1274.8000488281</ele>
        <time>2024-07-14T08:47:37.000Z</time>
      </trkpt>
      <trkpt lat="45.02343" lon="5.50127">
        <ele>1274.8000488281</ele>
        <time>2024-07-14T08:47:38.000Z</time>
      </trkpt>
      <trkpt lat="45.02344" lon="5.50126">
        <ele>1275</ele>
        <time>2024-07-14T08:47:39.000Z</time>
      </trkpt>
      <trkpt lat="45.02344" lon="5.50125">
        <ele>1275.4000244141</ele>
        <time>2024-07-14T08:47:40.000Z</time>
      </trkpt>
      <trkpt lat="45.02345" lon="5.50124">
        <ele>1275.5999755859</ele>
        <time>2024-07-14T08:47:41.000Z</time>
      </trkpt>
      <trkpt lat="45.02346" lon="5.50123">
        <ele>1275.5999755859</ele>
        <time>2024-07-14T08:47:42.000Z</time>
      </trkpt>
      <trkpt lat="45.02347" lon="5.50122">
        <ele>1275.8000488281</ele>
        <time>2024-07-14T08:47:43.000Z</time>
      </trkpt>
      <trkpt lat="45.02348" lon="5.50121">
        <ele>1275.8000488281</ele>
        <time>2024-07-14T08:47:44.000Z</time>
      </trkpt>
      <trkpt lat="45.02349" lon="5.50121">
        <ele>1276</ele>
        <time>2024-07-14T08:47:45.000Z</time>
      </trkpt>
      <trkpt lat="45.0235" lon="5.5012">
        <ele>1276.4000244141</ele>
        <time>2024-07-14T08:47:46.000Z</time>
      </trkpt>
      <trkpt lat="45.02351" lon="5.50119">
        <ele>1276.5999755859</ele>
        <time>2024-07-14T08:47:47.000Z</time>
      </trkpt>
      <trkpt lat="45.02352" lon="5.50118">
        <ele>1276.8000488281</ele>
        <time>2024-07-14T08:47:48.000Z</time>
      </trkpt>
      <trkpt lat="45.02352" lon="5.50117">
        <ele>1277</ele>
        <time>2024-07-14T08:47:49.000Z</time>
      </trkpt>
      <trkpt lat="45.02353" lon="5.50116">
        <ele>1277.1999511719</ele>
        <time>2024-07-14T08:47:50.000Z</time>
      </trkpt>
      <trkpt lat="45.02354" lon="5.50115">
        <ele>1277.4000244141</ele>
        <time>2024-07-14T08:47:51.000Z</time>
      </trkpt>
      <trkpt lat="45.02355" lon="5.50114">
        <ele>1277.5999755859</ele>
        <time>2024-07-14T08:47:52.000Z</time>
      </trkpt>
      <trkpt lat="45.02356" lon="5.50113">
        <ele>1277.5999755859</ele>
        <time>2024-07-14T08:47:53.000Z</time>
      </trkpt>
      <trkpt lat="45.02357" lon="5.50112">
        <ele>1278</ele>
        <time>2024-07-14T08:47:54.000Z</time>
      </trkpt>
      <trkpt lat="45.02359" lon="5.50111">
        <ele>1278</ele>
        <time>2024-07-14T08:47:55.000Z</time>
      </trkpt>
      <trkpt lat="45.0236" lon="5.5011">
        <ele>1278.1999511719</ele>
        <time>2024-07-14T08:47:56.000Z</time>
      </trkpt>
      <trkpt lat="45.02362" lon="5.5011">
        <ele>1278.4000244141</ele>
        <time>2024-07-14T08:47:57.000Z</time>
      </trkpt>
      <trkpt lat="45.02363" lon="5.5011">
        <ele>1278.4000244141</ele>
        <time>2024-07-14T08:47:58.000Z</time>
      </trkpt>
      <trkpt lat="45.02365" lon="5.50109">
        <ele>1278.4000244141</ele>
        <time>2024-07-14T08:47:59.000Z</time>
      </trkpt>
      <trkpt lat="45.02367" lon="5.5011">
        <ele>1278.5999755859</ele>
        <time>2024-07-14T08:48:00.000Z</time>
      </trkpt>
      <trkpt lat="45.02369" lon="5.50109">
        <ele>1278.5999755859</ele>
        <time>2024-07-14T08:48:01.000Z</time>
      </trkpt>
      <trkpt lat="45.0237" lon="5.50108">
        <ele>1278.8000488281</ele>
        <time>2024-07-14T08:48:02.000Z</time>
      </trkpt>
      <trkpt lat="45.02373" lon="5.50108">
        <ele>1279</ele>
        <time>2024-07-14T08:48:03.000Z</time>
      </trkpt>
      <trkpt lat="45.02374" lon="5.50107">
        <ele>1279</ele>
        <time>2024-07-14T08:48:04.000Z</time>
      </trkpt>
      <trkpt lat="45.02377" lon="5.50107">
        <ele>1279.1999511719</ele>
        <time>2024-07-14T08:48:05.000Z</time>
      </trkpt>
      <trkpt lat="45.02378" lon="5.50106">
        <ele>1279.1999511719</ele>
        <time>2024-07-14T08:48:06.000Z</time>
      </trkpt>
      <trkpt lat="45.0238" lon="5.50106">
        <ele>1279.4000244141</ele>
        <time>2024-07-14T08:48:07.000Z</time>
      </trkpt>
      <trkpt lat="45.02381" lon="5.50106">
        <ele>1279.4000244141</ele>
        <time>2024-07-14T08:48:08.000Z</time>
      </trkpt>
      <trkpt lat="45.02382" lon="5.50105">
        <ele>1279.5999755859</ele>
        <time>2024-07-14T08:48:09.000Z</time>
      </trkpt>
      <trkpt lat="45.02383" lon="5.50104">
        <ele>1279.5999755859</ele>
        <time>2024-07-14T08:48:10.000Z</time>
      </trkpt>
      <trkpt lat="45.02384" lon="5.50103">
        <ele>1279.5999755859</ele>
        <time>2024-07-14T08:48:11.000Z</time>
      </trkpt>
      <trkpt lat="45.02386" lon="5.50102">
        <ele>1279.5999755859</ele>
        <time>2024-07-14T08:48:12.000Z</time>
      </trkpt>
      <trkpt lat="45.02387" lon="5.50101">
        <ele>1279.5999755859</ele>
        <time>2024-07-14T08:48:13.000Z</time>
      </trkpt>
      <trkpt lat="45.02389" lon="5.501">
        <ele>1279.8000488281</ele>
        <time>2024-07-14T08:48:14.000Z</time>
      </trkpt>
      <trkpt lat="45.0239" lon="5.50099">
        <ele>1279.8000488281</ele>
        <time>2024-07-14T08:48:15.000Z</time>
      </trkpt>
      <trkpt lat="45.02391" lon="5.50098">
        <ele>1280</ele>
        <time>2024-07-14T08:48:16.000Z</time>
      </trkpt>
      <trkpt lat="45.02392" lon="5.50097">
        <ele>1280.1999511719</ele>
        <time>2024-07-14T08:48:17.000Z</time>
      </trkpt>
      <trkpt lat="45.02393" lon="5.50096">
        <ele>1280.4000244141</ele>
        <time>2024-07-14T08:48:18.000Z</time>
      </trkpt>
      <trkpt lat="45.02394" lon="5.50094">
        <ele>1280.8000488281</ele>
        <time>2024-07-14T08:48:19.000Z</time>
      </trkpt>
      <trkpt lat="45.02395" lon="5.50093">
        <ele>1281</ele>
        <time>2024-07-14T08:48:20.000Z</time>
      </trkpt>
      <trkpt lat="45.02396" lon="5.50091">
        <ele>1281.1999511719</ele>
        <time>2024-07-14T08:48:21.000Z</time>
      </trkpt>
      <trkpt lat="45.02397" lon="5.5009">
        <ele>1281.4000244141</ele>
        <time>2024-07-14T08:48:22.000Z</time>
      </trkpt>
      <trkpt lat="45.02399" lon="5.50089">
        <ele>1281.5999755859</ele>
        <time>2024-07-14T08:48:23.000Z</time>
      </trkpt>
      <trkpt lat="45.02399" lon="5.50088">
        <ele>1281.8000488281</ele>
        <time>2024-07-14T08:48:24.000Z</time>
      </trkpt>
      <trkpt lat="45.02401" lon="5.50086">
        <ele>1281.8000488281</ele>
        <time>2024-07-14T08:48:25.000Z</time>
      </trkpt>
      <trkpt lat="45.02402" lon="5.50085">
        <ele>1282.1999511719</ele>
        <time>2024-07-14T08:48:26.000Z</time>
      </trkpt>
      <trkpt lat="45.02403" lon="5.50083">
        <ele>1282.1999511719</ele>
        <time>2024-07-14T08:48:27.000Z</time>
      </trkpt>
      <trkpt lat="45.02404" lon="5.50083">
        <ele>1282.4000244141</ele>
        <time>2024-07-14T08:48:28.000Z</time>
      </trkpt>
      <trkpt lat="45.02405" lon="5.50082">
        <ele>1282.5999755859</ele>
        <time>2024-07-14T08:48:29.000Z</time>
      </trkpt>
      <trkpt lat="45.02406" lon="5.50081">
        <ele>1282.5999755859</ele>
        <time>2024-07-14T08:48:30.000Z</time>
      </trkpt>
      <trkpt lat="45.02407" lon="5.50079">
        <ele>1282.8000488281</ele>
        <time>2024-07-14T08:48:31.000Z</time>
      </trkpt>
      <trkpt lat="45.02407" lon="5.50078">
        <ele>1283</ele>
        <time>2024-07-14T08:48:32.000Z</time>
      </trkpt>
      <trkpt lat="45.02408" lon="5.50077">
        <ele>1283.1999511719</ele>
        <time>2024-07-14T08:48:33.000Z</time>
      </trkpt>
      <trkpt lat="45.02408" lon="5.50076">
        <ele>1283.4000244141</ele>
        <time>2024-07-14T08:48:34.000Z</time>
      </trkpt>
      <trkpt lat="45.02409" lon="5.50075">
        <ele>1283.5999755859</ele>
        <time>2024-07-14T08:48:35.000Z</time>
      </trkpt>
      <trkpt lat="45.0241" lon="5.50074">
        <ele>1284</ele>
        <time>2024-07-14T08:48:36.000Z</time>
      </trkpt>
      <trkpt lat="45.02411" lon="5.50072">
        <ele>1284</ele>
        <time>2024-07-14T08:48:37.000Z</time>
      </trkpt>
      <trkpt lat="45.02412" lon="5.50071">
        <ele>1284.4000244141</ele>
        <time>2024-07-14T08:48:38.000Z</time>
      </trkpt>
      <trkpt lat="45.02413" lon="5.5007">
        <ele>1284.5999755859</ele>
        <time>2024-07-14T08:48:39.000Z</time>
      </trkpt>
      <trkpt lat="45.02414" lon="5.50069">
        <ele>1284.8000488281</ele>
        <time>2024-07-14T08:48:40.000Z</time>
      </trkpt>
      <trkpt lat="45.02415" lon="5.50068">
        <ele>1285</ele>
        <time>2024-07-14T08:48:41.000Z</time>
      </trkpt>
      <trkpt lat="45.02416" lon="5.50067">
        <ele>1285.4000244141</ele>
        <time>2024-07-14T08:48:42.000Z</time>
      </trkpt>
      <trkpt lat="45.02417" lon="5.50066">
        <ele>1285.5999755859</ele>
        <time>2024-07-14T08:48:43.000Z</time>
      </trkpt>
      <trkpt lat="45.02418" lon="5.50065">
        <ele>1285.8000488281</ele>
        <time>2024-07-14T08:48:44.000Z</time>
      </trkpt>
      <trkpt lat="45.02419" lon="5.50065">
        <ele>1286</ele>
        <time>2024-07-14T08:48:45.000Z</time>
      </trkpt>
      <trkpt lat="45.0242" lon="5.50064">
        <ele>1286.1999511719</ele>
        <time>2024-07-14T08:48:46.000Z</time>
      </trkpt>
      <trkpt lat="45.02421" lon="5.50064">
        <ele>1286.5999755859</ele>
        <time>2024-07-14T08:48:47.000Z</time>
      </trkpt>
      <trkpt lat="45.02423" lon="5.50064">
        <ele>1286.5999755859</ele>
        <time>2024-07-14T08:48:48.000Z</time>
      </trkpt>
      <trkpt lat="45.02424" lon="5.50064">
        <ele>1286.8000488281</ele>
        <time>2024-07-14T08:48:49.000Z</time>
      </trkpt>
      <trkpt lat="45.02425" lon="5.50063">
        <ele>1287.1999511719</ele>
        <time>2024-07-14T08:48:50.000Z</time>
      </trkpt>
      <trkpt lat="45.02426" lon="5.50063">
        <ele>1287.1999511719</ele>
        <time>2024-07-14T08:48:51.000Z</time>
      </trkpt>
      <trkpt lat="45.02427" lon="5.50063">
        <ele>1287.5999755859</ele>
        <time>2024-07-14T08:48:52.000Z</time>
      </trkpt>
      <trkpt lat="45.02429" lon="5.50063">
        <ele>1287.8000488281</ele>
        <time>2024-07-14T08:48:53.000Z</time>
      </trkpt>
      <trkpt lat="45.0243" lon="5.50062">
        <ele>1288</ele>
        <time>2024-07-14T08:48:54.000Z</time>
      </trkpt>
      <trkpt lat="45.02431" lon="5.50062">
        <ele>1288.4000244141</ele>
        <time>2024-07-14T08:48:55.000Z</time>
      </trkpt>
      <trkpt lat="45.02432" lon="5.50062">
        <ele>1288.5999755859</ele>
        <time>2024-07-14T08:48:56.000Z</time>
      </trkpt>
      <trkpt lat="45.02433" lon="5.50062">
        <ele>1289</ele>
        <time>2024-07-14T08:48:57.000Z</time>
      </trkpt>
      <trkpt lat="45.02435" lon="5.50062">
        <ele>1289.1999511719</ele>
        <time>2024-07-14T08:48:58.000Z</time>
      </trkpt>
      <trkpt lat="45.02435" lon="5.50062">
        <ele>1289.5999755859</ele>
        <time>2024-07-14T08:48:59.000Z</time>
      </trkpt>
      <trkpt lat="45.02436" lon="5.50061">
        <ele>1289.8000488281</ele>
        <time>2024-07-14T08:49:00.000Z</time>
      </trkpt>
      <trkpt lat="45.02437" lon="5.50061">
        <ele>1290</ele>
        <time>2024-07-14T08:49:01.000Z</time>
      </trkpt>
      <trkpt lat="45.02439" lon="5.5006">
        <ele>1290.4000244141</ele>
        <time>2024-07-14T08:49:02.000Z</time>
      </trkpt>
      <trkpt lat="45.02439" lon="5.50059">
        <ele>1290.5999755859</ele>
        <time>2024-07-14T08:49:03.000Z</time>
      </trkpt>
      <trkpt lat="45.0244" lon="5.50058">
        <ele>1291</ele>
        <time>2024-07-14T08:49:04.000Z</time>
      </trkpt>
      <trkpt lat="45.02441" lon="5.50057">
        <ele>1291.1999511719</ele>
        <time>2024-07-14T08:49:05.000Z</time>
      </trkpt>
      <trkpt lat="45.02442" lon="5.50056">
        <ele>1291.4000244141</ele>
        <time>2024-07-14T08:49:06.000Z</time>
      </trkpt>
      <trkpt lat="45.02443" lon="5.50055">
        <ele>1291.5999755859</ele>
        <time>2024-07-14T08:49:07.000Z</time>
      </trkpt>
      <trkpt lat="45.02445" lon="5.50054">
        <ele>1291.8000488281</ele>
        <time>2024-07-14T08:49:08.000Z</time>
      </trkpt>
      <trkpt lat="45.02446" lon="5.50054">
        <ele>1291.8000488281</ele>
        <time>2024-07-14T08:49:09.000Z</time>
      </trkpt>
      <trkpt lat="45.02447" lon="5.50053">
        <ele>1292</ele>
        <time>2024-07-14T08:49:10.000Z</time>
      </trkpt>
      <trkpt lat="45.02448" lon="5.50053">
        <ele>1292.1999511719</ele>
        <time>2024-07-14T08:49:11.000Z</time>
      </trkpt>
      <trkpt lat="45.02449" lon="5.50052">
        <ele>1292.4000244141</ele>
        <time>2024-07-14T08:49:12.000Z</time>
      </trkpt>
      <trkpt lat="45.0245" lon="5.50052">
        <ele>1292.5999755859</ele>
        <time>2024-07-14T08:49:13.000Z</time>
      </trkpt>
      <trkpt lat="45.02451" lon="5.50051">
        <ele>1292.8000488281</ele>
        <time>2024-07-14T08:49:14.000Z</time>
      </trkpt>
      <trkpt lat="45.02452" lon="5.5005">
        <ele>1293</ele>
        <time>2024-07-14T08:49:15.000Z</time>
      </trkpt>
      <trkpt lat="45.02453" lon="5.50049">
        <ele>1293.1999511719</ele>
        <time>2024-07-14T08:49:16.000Z</time>
      </trkpt>
      <trkpt lat="45.02453" lon="5.50048">
        <ele>1293.1999511719</ele>
        <time>2024-07-14T08:49:17.000Z</time>
      </trkpt>
      <trkpt lat="45.02454" lon="5.50047">
        <ele>1293.5999755859</ele>
        <time>2024-07-14T08:49:18.000Z</time>
      </trkpt>
      <trkpt lat="45.02455" lon="5.50046">
        <ele>1293.8000488281</ele>
        <time>2024-07-14T08:49:19.000Z</time>
      </trkpt>
      <trkpt lat="45.02456" lon="5.50045">
        <ele>1294</ele>
        <time>2024-07-14T08:49:20.000Z</time>
      </trkpt>
      <trkpt lat="45.02456" lon="5.50044">
        <ele>1294.1999511719</ele>
        <time>2024-07-14T08:49:21.000Z</time>
      </trkpt>
      <trkpt lat="45.02456" lon="5.50043">
        <ele>1294.4000244141</ele>
        <time>2024-07-14T08:49:22.000Z</time>
      </trkpt>
      <trkpt lat="45.02457" lon="5.50041">
        <ele>1294.5999755859</ele>
        <time>2024-07-14T08:49:23.000Z</time>
      </trkpt>
      <trkpt lat="45.02458" lon="5.50038">
        <ele>1294.8000488281</ele>
        <time>2024-07-14T08:49:24.000Z</time>
      </trkpt>
      <trkpt lat="45.02459" lon="5.50036">
        <ele>1295</ele>
        <time>2024-07-14T08:49:25.000Z</time>
      </trkpt>
      <trkpt lat="45.0246" lon="5.50035">
        <ele>1295.1999511719</ele>
        <time>2024-07-14T08:49:26.000Z</time>
      </trkpt>
      <trkpt lat="45.02461" lon="5.50033">
        <ele>1295.4000244141</ele>
        <time>2024-07-14T08:49:27.000Z</time>
      </trkpt>
      <trkpt lat="45.02463" lon="5.50031">
        <ele>1295.5999755859</ele>
        <time>2024-07-14T08:49:28.000Z</time>
      </trkpt>
      <trkpt lat="45.02464" lon="5.5003">
        <ele>1295.5999755859</ele>
        <time>2024-07-14T08:49:29.000Z</time>
      </trkpt>
      <trkpt lat="45.02465" lon="5.50029">
        <ele>1295.5999755859</ele>
        <time>2024-07-14T08:49:30.000Z</time>
      </trkpt>
      <trkpt lat="45.02467" lon="5.50028">
        <ele>1295.5999755859</ele>
        <time>2024-07-14T08:49:31.000Z</time>
      </trkpt>
      <trkpt lat="45.02469" lon="5.50026">
        <ele>1295.5999755859</ele>
        <time>2024-07-14T08:49:32.000Z</time>
      </trkpt>
      <trkpt lat="45.0247" lon="5.50025">
        <ele>1295.4000244141</ele>
        <time>2024-07-14T08:49:33.000Z</time>
      </trkpt>
      <trkpt lat="45.0247" lon="5.50023">
        <ele>1295.4000244141</ele>
        <time>2024-07-14T08:49:34.000Z</time>
      </trkpt>
      <trkpt lat="45.02471" lon="5.50021">
        <ele>1295.1999511719</ele>
        <time>2024-07-14T08:49:35.000Z</time>
      </trkpt>
      <trkpt lat="45.02473" lon="5.50019">
        <ele>1295</ele>
        <time>2024-07-14T08:49:36.000Z</time>
      </trkpt>
      <trkpt lat="45.02474" lon="5.50016">
        <ele>1295</ele>
        <time>2024-07-14T08:49:37.000Z</time>
      </trkpt>
      <trkpt lat="45.02476" lon="5.50014">
        <ele>1295</ele>
        <time>2024-07-14T08:49:38.000Z</time>
      </trkpt>
      <trkpt lat="45.02477" lon="5.50012">
        <ele>1294.8000488281</ele>
        <time>2024-07-14T08:49:39.000Z</time>
      </trkpt>
      <trkpt lat="45.02479" lon="5.5001">
        <ele>1294.8000488281</ele>
        <time>2024-07-14T08:49:40.000Z</time>
      </trkpt>
      <trkpt lat="45.0248" lon="5.50008">
        <ele>1294.4000244141</ele>
        <time>2024-07-14T08:49:41.000Z</time>
      </trkpt>
      <trkpt lat="45.0248" lon="5.50006">
        <ele>1294</ele>
        <time>2024-07-14T08:49:42.000Z</time>
      </trkpt>
      <trkpt lat="45.02482" lon="5.50005">
        <ele>1294</ele>
        <time>2024-07-14T08:49:43.000Z</time>
      </trkpt>
      <trkpt lat="45.02483" lon="5.50003">
        <ele>1294</ele>
        <time>2024-07-14T08:49:44.000Z</time>
      </trkpt>
      <trkpt lat="45.02484" lon="5.50002">
        <ele>1294</ele>
        <time>2024-07-14T08:49:45.000Z</time>
      </trkpt>
      <trkpt lat="45.02485" lon="5.50001">
        <ele>1294.1999511719</ele>
        <time>2024-07-14T08:49:46.000Z</time>
      </trkpt>
      <trkpt lat="45.02486" lon="5.49999">
        <ele>1294.5999755859</ele>
        <time>2024-07-14T08:49:47.000Z</time>
      </trkpt>
      <trkpt lat="45.02486" lon="5.49998">
        <ele>1294.8000488281</ele>
        <time>2024-07-14T08:49:48.000Z</time>
      </trkpt>
      <trkpt lat="45.02487" lon="5.49997">
        <ele>1295</ele>
        <time>2024-07-14T08:49:49.000Z</time>
      </trkpt>
      <trkpt lat="45.02488" lon="5.49996">
        <ele>1295</ele>
        <time>2024-07-14T08:49:50.000Z</time>
      </trkpt>
      <trkpt lat="45.02489" lon="5.49994">
        <ele>1295.1999511719</ele>
        <time>2024-07-14T08:49:51.000Z</time>
      </trkpt>
      <trkpt lat="45.0249" lon="5.49993">
        <ele>1295.4000244141</ele>
        <time>2024-07-14T08:49:52.000Z</time>
      </trkpt>
      <trkpt lat="45.02491" lon="5.49992">
        <ele>1295.5999755859</ele>
        <time>2024-07-14T08:49:53.000Z</time>
      </trkpt>
      <trkpt lat="45.02491" lon="5.49991">
        <ele>1295.8000488281</ele>
        <time>2024-07-14T08:49:54.000Z</time>
      </trkpt>
      <trkpt lat="45.02492" lon="5.4999">
        <ele>1296.1999511719</ele>
        <time>2024-07-14T08:49:55.000Z</time>
      </trkpt>
      <trkpt lat="45.02493" lon="5.49989">
        <ele>1296.4000244141</ele>
        <time>2024-07-14T08:49:56.000Z</time>
      </trkpt>
      <trkpt lat="45.02494" lon="5.49987">
        <ele>1296.5999755859</ele>
        <time>2024-07-14T08:49:57.000Z</time>
      </trkpt>
      <trkpt lat="45.02495" lon="5.49986">
        <ele>1296.8000488281</ele>
        <time>2024-07-14T08:49:58.000Z</time>
      </trkpt>
      <trkpt lat="45.02496" lon="5.49985">
        <ele>1297.1999511719</ele>
        <time>2024-07-14T08:49:59.000Z</time>
      </trkpt>
      <trkpt lat="45.02496" lon="5.49984">
        <ele>1297.4000244141</ele>
        <time>2024-07-14T08:50:00.000Z</time>
      </trkpt>
      <trkpt lat="45.02497" lon="5.49983">
        <ele>1297.8000488281</ele>
        <time>2024-07-14T08:50:01.000Z</time>
      </trkpt>
      <trkpt lat="45.02498" lon="5.49982">
        <ele>1298</ele>
        <time>2024-07-14T08:50:02.000Z</time>
      </trkpt>
      <trkpt lat="45.02498" lon="5.49981">
        <ele>1298</ele>
        <time>2024-07-14T08:50:03.000Z</time>
      </trkpt>
      <trkpt lat="45.02498" lon="5.4998">
        <ele>1298</ele>
        <time>2024-07-14T08:50:04.000Z</time>
      </trkpt>
      <trkpt lat="45.02499" lon="5.49979">
        <ele>1298.5999755859</ele>
        <time>2024-07-14T08:50:05.000Z</time>
      </trkpt>
      <trkpt lat="45.02499" lon="5.49978">
        <ele>1299</ele>
        <time>2024-07-14T08:50:06.000Z</time>
      </trkpt>
      <trkpt lat="45.02499" lon="5.49977">
        <ele>1299.4000244141</ele>
        <time>2024-07-14T08:50:07.000Z</time>
      </trkpt>
      <trkpt lat="45.025" lon="5.49975">
        <ele>1299.5999755859</ele>
        <time>2024-07-14T08:50:08.000Z</time>
      </trkpt>
      <trkpt lat="45.02501" lon="5.49974">
        <ele>1299.8000488281</ele>
        <time>2024-07-14T08:50:09.000Z</time>
      </trkpt>
      <trkpt lat="45.02502" lon="5.49972">
        <ele>1300.1999511719</ele>
        <time>2024-07-14T08:50:10.000Z</time>
      </trkpt>
      <trkpt lat="45.02502" lon="5.49971">
        <ele>1300.4000244141</ele>
        <time>2024-07-14T08:50:11.000Z</time>
      </trkpt>
      <trkpt lat="45.02503" lon="5.4997">
        <ele>1300.8000488281</ele>
        <time>2024-07-14T08:50:12.000Z</time>
      </trkpt>
      <trkpt lat="45.02503" lon="5.49969">
        <ele>1301</ele>
        <time>2024-07-14T08:50:13.000Z</time>
      </trkpt>
      <trkpt lat="45.02504" lon="5.49968">
        <ele>1301.1999511719</ele>
        <time>2024-07-14T08:50:14.000Z</time>
      </trkpt>
      <trkpt lat="45.02504" lon="5.49967">
        <ele>1301.4000244141</ele>
        <time>2024-07-14T08:50:15.000Z</time>
      </trkpt>
      <trkpt lat="45.02506" lon="5.49966">
        <ele>1301.5999755859</ele>
        <time>2024-07-14T08:50:16.000Z</time>
      </trkpt>
      <trkpt lat="45.02507" lon="5.49965">
        <ele>1301.8000488281</ele>
        <time>2024-07-14T08:50:17.000Z</time>
      </trkpt>
      <trkpt lat="45.02509" lon="5.49963">
        <ele>1302</ele>
        <time>2024-07-14T08:50:18.000Z</time>
      </trkpt>
      <trkpt lat="45.0251" lon="5.49963">
        <ele>1302</ele>
        <time>2024-07-14T08:50:19.000Z</time>
      </trkpt>
      <trkpt lat="45.02511" lon="5.49962">
        <ele>1302.1999511719</ele>
        <time>2024-07-14T08:50:20.000Z</time>
      </trkpt>
      <trkpt lat="45.02512" lon="5.49962">
        <ele>1302.5999755859</ele>
        <time>2024-07-14T08:50:21.000Z</time>
      </trkpt>
      <trkpt lat="45.02513" lon="5.49961">
        <ele>1303</ele>
        <time>2024-07-14T08:50:22.000Z</time>
      </trkpt>
      <trkpt lat="45.02515" lon="5.49961">
        <ele>1303.1999511719</ele>
        <time>2024-07-14T08:50:23.000Z</time>
      </trkpt>
      <trkpt lat="45.02516" lon="5.4996">
        <ele>1303.5999755859</ele>
        <time>2024-07-14T08:50:24.000Z</time>
      </trkpt>
      <trkpt lat="45.02517" lon="5.4996">
        <ele>1304</ele>
        <time>2024-07-14T08:50:25.000Z</time>
      </trkpt>
      <trkpt lat="45.02518" lon="5.49959">
        <ele>1304.1999511719</ele>
        <time>2024-07-14T08:50:26.000Z</time>
      </trkpt>
      <trkpt lat="45.02519" lon="5.49959">
        <ele>1304.4000244141</ele>
        <time>2024-07-14T08:50:27.000Z</time>
      </trkpt>
      <trkpt lat="45.0252" lon="5.49958">
        <ele>1304.5999755859</ele>
        <time>2024-07-14T08:50:28.000Z</time>
      </trkpt>
      <trkpt lat="45.02521" lon="5.49957">
        <ele>1304.8000488281</ele>
        <time>2024-07-14T08:50:29.000Z</time>
      </trkpt>
      <trkpt lat="45.02522" lon="5.49956">
        <ele>1305</ele>
        <time>2024-07-14T08:50:30.000Z</time>
      </trkpt>
      <trkpt lat="45.02524" lon="5.49955">
        <ele>1305.1999511719</ele>
        <time>2024-07-14T08:50:31.000Z</time>
      </trkpt>
      <trkpt lat="45.02525" lon="5.49954">
        <ele>1305.4000244141</ele>
        <time>2024-07-14T08:50:32.000Z</time>
      </trkpt>
      <trkpt lat="45.02527" lon="5.49953">
        <ele>1305.4000244141</ele>
        <time>2024-07-14T08:50:33.000Z</time>
      </trkpt>
      <trkpt lat="45.02528" lon="5.49953">
        <ele>1305.5999755859</ele>
        <time>2024-07-14T08:50:34.000Z</time>
      </trkpt>
      <trkpt lat="45.02529" lon="5.49954">
        <ele>1305.8000488281</ele>
        <time>2024-07-14T08:50:35.000Z</time>
      </trkpt>
      <trkpt lat="45.02531" lon="5.49954">
        <ele>1305.8000488281</ele>
        <time>2024-07-14T08:50:36.000Z</time>
      </trkpt>
      <trkpt lat="45.02532" lon="5.49954">
        <ele>1306</ele>
        <time>2024-07-14T08:50:37.000Z</time>
      </trkpt>
      <trkpt lat="45.02534" lon="5.49954">
        <ele>1306</ele>
        <time>2024-07-14T08:50:38.000Z</time>
      </trkpt>
      <trkpt lat="45.02537" lon="5.49955">
        <ele>1306.1999511719</ele>
        <time>2024-07-14T08:50:39.000Z</time>
      </trkpt>
      <trkpt lat="45.02538" lon="5.49955">
        <ele>1306.4000244141</ele>
        <time>2024-07-14T08:50:40.000Z</time>
      </trkpt>
      <trkpt lat="45.0254" lon="5.49957">
        <ele>1306.4000244141</ele>
        <time>2024-07-14T08:50:41.000Z</time>
      </trkpt>
      <trkpt lat="45.02542" lon="5.49957">
        <ele>1306.5999755859</ele>
        <time>2024-07-14T08:50:42.000Z</time>
      </trkpt>
      <trkpt lat="45.02544" lon="5.49958">
        <ele>1306.5999755859</ele>
        <time>2024-07-14T08:50:43.000Z</time>
      </trkpt>
      <trkpt lat="45.02545" lon="5.49958">
        <ele>1306.5999755859</ele>
        <time>2024-07-14T08:50:44.000Z</time>
      </trkpt>
      <trkpt lat="45.02547" lon="5.49959">
        <ele>1306.5999755859</ele>
        <time>2024-07-14T08:50:45.000Z</time>
      </trkpt>
      <trkpt lat="45.02549" lon="5.4996">
        <ele>1306.8000488281</ele>
        <time>2024-07-14T08:50:46.000Z</time>
      </trkpt>
      <trkpt lat="45.02551" lon="5.4996">
        <ele>1306.8000488281</ele>
        <time>2024-07-14T08:50:47.000Z</time>
      </trkpt>
      <trkpt lat="45.02553" lon="5.49962">
        <ele>1306.8000488281</ele>
        <time>2024-07-14T08:50:48.000Z</time>
      </trkpt>
      <trkpt lat="45.02555" lon="5.49963">
        <ele>1306.8000488281</ele>
        <time>2024-07-14T08:50:49.000Z</time>
      </trkpt>
      <trkpt lat="45.02556" lon="5.49963">
        <ele>1306.8000488281</ele>
        <time>2024-07-14T08:50:50.000Z</time>
      </trkpt>
      <trkpt lat="45.02558" lon="5.49964">
        <ele>1306.8000488281</ele>
        <time>2024-07-14T08:50:51.000Z</time>
      </trkpt>
      <trkpt lat="45.0256" lon="5.49965">
        <ele>1306.8000488281</ele>
        <time>2024-07-14T08:50:52.000Z</time>
      </trkpt>
      <trkpt lat="45.02562" lon="5.49965">
        <ele>1307</ele>
        <time>2024-07-14T08:50:53.000Z</time>
      </trkpt>
      <trkpt lat="45.02563" lon="5.49966">
        <ele>1307</ele>
        <time>2024-07-14T08:50:54.000Z</time>
      </trkpt>
      <trkpt lat="45.02563" lon="5.49966">
        <ele>1307.1999511719</ele>
        <time>2024-07-14T08:50:55.000Z</time>
      </trkpt>
      <trkpt lat="45.02564" lon="5.49967">
        <ele>1307.4000244141</ele>
        <time>2024-07-14T08:50:56.000Z</time>
      </trkpt>
      <trkpt lat="45.02565" lon="5.49967">
        <ele>1307.8000488281</ele>
        <time>2024-07-14T08:50:57.000Z</time>
      </trkpt>
      <trkpt lat="45.02567" lon="5.49968">
        <ele>1308</ele>
        <time>2024-07-14T08:50:58.000Z</time>
      </trkpt>
      <trkpt lat="45.02568" lon="5.49968">
        <ele>1308.4000244141</ele>
        <time>2024-07-14T08:50:59.000Z</time>
      </trkpt>
      <trkpt lat="45.02569" lon="5.49968">
        <ele>1308.5999755859</ele>
        <time>2024-07-14T08:51:00.000Z</time>
      </trkpt>
      <trkpt lat="45.0257" lon="5.49967">
        <ele>1308.8000488281</ele>
        <time>2024-07-14T08:51:01.000Z</time>
      </trkpt>
      <trkpt lat="45.02571" lon="5.49967">
        <ele>1309</ele>
        <time>2024-07-14T08:51:02.000Z</time>
      </trkpt>
      <trkpt lat="45.02572" lon="5.49967">
        <ele>1309.4000244141</ele>
        <time>2024-07-14T08:51:03.000Z</time>
      </trkpt>
      <trkpt lat="45.02573" lon="5.49967">
        <ele>1309.8000488281</ele>
        <time>2024-07-14T08:51:04.000Z</time>
      </trkpt>
      <trkpt lat="45.02574" lon="5.49967">
        <ele>1310</ele>
        <time>2024-07-14T08:51:05.000Z</time>
      </trkpt>
      <trkpt lat="45.02575" lon="5.49967">
        <ele>1310.4000244141</ele>
        <time>2024-07-14T08:51:06.000Z</time>
      </trkpt>
      <trkpt lat="45.02576" lon="5.49967">
        <ele>1310.5999755859</ele>
        <time>2024-07-14T08:51:07.000Z</time>
      </trkpt>
      <trkpt lat="45.02577" lon="5.49966">
        <ele>1310.8000488281</ele>
        <time>2024-07-14T08:51:08.000Z</time>
      </trkpt>
      <trkpt lat="45.02577" lon="5.49966">
        <ele>1311.1999511719</ele>
        <time>2024-07-14T08:51:09.000Z</time>
      </trkpt>
      <trkpt lat="45.02578" lon="5.49965">
        <ele>1311.5999755859</ele>
        <time>2024-07-14T08:51:10.000Z</time>
      </trkpt>
      <trkpt lat="45.02579" lon="5.49964">
        <ele>1311.8000488281</ele>
        <time>2024-07-14T08:51:11.000Z</time>
      </trkpt>
      <trkpt lat="45.02581" lon="5.49963">
        <ele>1312</ele>
        <time>2024-07-14T08:51:12.000Z</time>
      </trkpt>
      <trkpt lat="45.02581" lon="5.49962">
        <ele>1312.1999511719</ele>
        <time>2024-07-14T08:51:13.000Z</time>
      </trkpt>
      <trkpt lat="45.02582" lon="5.49961">
        <ele>1312.4000244141</ele>
        <time>2024-07-14T08:51:14.000Z</time>
      </trkpt>
      <trkpt lat="45.02583" lon="5.4996">
        <ele>1312.5999755859</ele>
        <time>2024-07-14T08:51:15.000Z</time>
      </trkpt>
      <trkpt lat="45.02584" lon="5.49959">
        <ele>1312.8000488281</ele>
        <time>2024-07-14T08:51:16.000Z</time>
      </trkpt>
      <trkpt lat="45.02586" lon="5.49958">
        <ele>1313</ele>
        <time>2024-07-14T08:51:17.000Z</time>
      </trkpt>
      <trkpt lat="45.02587" lon="5.49957">
        <ele>1313</ele>
        <time>2024-07-14T08:51:18.000Z</time>
      </trkpt>
      <trkpt lat="45.02588" lon="5.49955">
        <ele>1313</ele>
        <time>2024-07-14T08:51:19.000Z</time>
      </trkpt>
      <trkpt lat="45.0259" lon="5.49953">
        <ele>1313.1999511719</ele>
        <time>2024-07-14T08:51:20.000Z</time>
      </trkpt>
      <trkpt lat="45.02592" lon="5.49951">
        <ele>1313.1999511719</ele>
        <time>2024-07-14T08:51:21.000Z</time>
      </trkpt>
      <trkpt lat="45.02594" lon="5.49949">
        <ele>1313.1999511719</ele>
        <time>2024-07-14T08:51:22.000Z</time>
      </trkpt>
      <trkpt lat="45.02595" lon="5.49948">
        <ele>1313.1999511719</ele>
        <time>2024-07-14T08:51:23.000Z</time>
      </trkpt>
      <trkpt lat="45.02597" lon="5.49947">
        <ele>1313.1999511719</ele>
        <time>2024-07-14T08:51:24.000Z</time>
      </trkpt>
      <trkpt lat="45.02599" lon="5.49946">
        <ele>1313.1999511719</ele>
        <time>2024-07-14T08:51:25.000Z</time>
      </trkpt>
      <trkpt lat="45.02601" lon="5.49945">
        <ele>1313.1999511719</ele>
        <time>2024-07-14T08:51:26.000Z</time>
      </trkpt>
      <trkpt lat="45.02602" lon="5.49944">
        <ele>1313.1999511719</ele>
        <time>2024-07-14T08:51:27.000Z</time>
      </trkpt>
      <trkpt lat="45.02604" lon="5.49943">
        <ele>1313.1999511719</ele>
        <time>2024-07-14T08:51:28.000Z</time>
      </trkpt>
      <trkpt lat="45.02607" lon="5.49942">
        <ele>1313</ele>
        <time>2024-07-14T08:51:29.000Z</time>
      </trkpt>
      <trkpt lat="45.02609" lon="5.49941">
        <ele>1313</ele>
        <time>2024-07-14T08:51:30.000Z</time>
      </trkpt>
      <trkpt lat="45.02611" lon="5.4994">
        <ele>1313</ele>
        <time>2024-07-14T08:51:31.000Z</time>
      </trkpt>
      <trkpt lat="45.02613" lon="5.4994">
        <ele>1313</ele>
        <time>2024-07-14T08:51:32.000Z</time>
      </trkpt>
      <trkpt lat="45.02615" lon="5.49939">
        <ele>1313</ele>
        <time>2024-07-14T08:51:33.000Z</time>
      </trkpt>
      <trkpt lat="45.02617" lon="5.49939">
        <ele>1313</ele>
        <time>2024-07-14T08:51:34.000Z</time>
      </trkpt>
      <trkpt lat="45.0262" lon="5.49938">
        <ele>1313</ele>
        <time>2024-07-14T08:51:35.000Z</time>
      </trkpt>
      <trkpt lat="45.02621" lon="5.49938">
        <ele>1313</ele>
        <time>2024-07-14T08:51:36.000Z</time>
      </trkpt>
      <trkpt lat="45.02624" lon="5.49938">
        <ele>1313</ele>
        <time>2024-07-14T08:51:37.000Z</time>
      </trkpt>
      <trkpt lat="45.02625" lon="5.49938">
        <ele>1313.1999511719</ele>
        <time>2024-07-14T08:51:38.000Z</time>
      </trkpt>
      <trkpt lat="45.02628" lon="5.49938">
        <ele>1313.5999755859</ele>
        <time>2024-07-14T08:51:39.000Z</time>
      </trkpt>
      <trkpt lat="45.0263" lon="5.49938">
        <ele>1314</ele>
        <time>2024-07-14T08:51:40.000Z</time>
      </trkpt>
      <trkpt lat="45.02631" lon="5.49939">
        <ele>1314.4000244141</ele>
        <time>2024-07-14T08:51:41.000Z</time>
      </trkpt>
      <trkpt lat="45.02633" lon="5.49939">
        <ele>1314.5999755859</ele>
        <time>2024-07-14T08:51:42.000Z</time>
      </trkpt>
      <trkpt lat="45.02635" lon="5.4994">
        <ele>1314.8000488281</ele>
        <time>2024-07-14T08:51:43.000Z</time>
      </trkpt>
      <trkpt lat="45.02637" lon="5.4994">
        <ele>1314.8000488281</ele>
        <time>2024-07-14T08:51:44.000Z</time>
      </trkpt>
      <trkpt lat="45.02639" lon="5.49941">
        <ele>1315</ele>
        <time>2024-07-14T08:51:45.000Z</time>
      </trkpt>
      <trkpt lat="45.02641" lon="5.49942">
        <ele>1315.1999511719</ele>
        <time>2024-07-14T08:51:46.000Z</time>
      </trkpt>
      <trkpt lat="45.02643" lon="5.49943">
        <ele>1315.5999755859</ele>
        <time>2024-07-14T08:51:47.000Z</time>
      </trkpt>
      <trkpt lat="45.02645" lon="5.49943">
        <ele>1315.8000488281</ele>
        <time>2024-07-14T08:51:48.000Z</time>
      </trkpt>
      <trkpt lat="45.02647" lon="5.49943">
        <ele>1316.1999511719</ele>
        <time>2024-07-14T08:51:49.000Z</time>
      </trkpt>
      <trkpt lat="45.02648" lon="5.49943">
        <ele>1316.4000244141</ele>
        <time>2024-07-14T08:51:50.000Z</time>
      </trkpt>
      <trkpt lat="45.0265" lon="5.49943">
        <ele>1316.5999755859</ele>
        <time>2024-07-14T08:51:51.000Z</time>
      </trkpt>
      <trkpt lat="45.02651" lon="5.49942">
        <ele>1316.8000488281</ele>
        <time>2024-07-14T08:51:52.000Z</time>
      </trkpt>
      <trkpt lat="45.02653" lon="5.49941">
        <ele>1317</ele>
        <time>2024-07-14T08:51:53.000Z</time>
      </trkpt>
      <trkpt lat="45.02654" lon="5.4994">
        <ele>1317.1999511719</ele>
        <time>2024-07-14T08:51:54.000Z</time>
      </trkpt>
      <trkpt lat="45.02656" lon="5.49939">
        <ele>1317.4000244141</ele>
        <time>2024-07-14T08:51:55.000Z</time>
      </trkpt>
      <trkpt lat="45.02657" lon="5.49938">
        <ele>1317.5999755859</ele>
        <time>2024-07-14T08:51:56.000Z</time>
      </trkpt>
      <trkpt lat="45.02658" lon="5.49936">
        <ele>1317.8000488281</ele>
        <time>2024-07-14T08:51:57.000Z</time>
      </trkpt>
      <trkpt lat="45.0266" lon="5.49935">
        <ele>1318</ele>
        <time>2024-07-14T08:51:58.000Z</time>
      </trkpt>
      <trkpt lat="45.02661" lon="5.49933">
        <ele>1318.1999511719</ele>
        <time>2024-07-14T08:51:59.000Z</time>
      </trkpt>
      <trkpt lat="45.02662" lon="5.49932">
        <ele>1318.1999511719</ele>
        <time>2024-07-14T08:52:00.000Z</time>
      </trkpt>
      <trkpt lat="45.02663" lon="5.49931">
        <ele>1318.4000244141</ele>
        <time>2024-07-14T08:52:01.000Z</time>
      </trkpt>
      <trkpt lat="45.02664" lon="5.49928">
        <ele>1318.4000244141</ele>
        <time>2024-07-14T08:52:02.000Z</time>
      </trkpt>
      <trkpt lat="45.02666" lon="5.49926">
        <ele>1318.5999755859</ele>
        <time>2024-07-14T08:52:03.000Z</time>
      </trkpt>
      <trkpt lat="45.02666" lon="5.49924">
        <ele>1318.5999755859</ele>
        <time>2024-07-14T08:52:04.000Z</time>
      </trkpt>
      <trkpt lat="45.02668" lon="5.49922">
        <ele>1318.5999755859</ele>
        <time>2024-07-14T08:52:05.000Z</time>
      </trkpt>
      <trkpt lat="45.02669" lon="5.49921">
        <ele>1318.5999755859</ele>
        <time>2024-07-14T08:52:06.000Z</time>
      </trkpt>
      <trkpt lat="45.0267" lon="5.49919">
        <ele>1318.8000488281</ele>
        <time>2024-07-14T08:52:07.000Z</time>
      </trkpt>
      <trkpt lat="45.02672" lon="5.49917">
        <ele>1318.8000488281</ele>
        <time>2024-07-14T08:52:08.000Z</time>
      </trkpt>
      <trkpt lat="45.02673" lon="5.49915">
        <ele>1319</ele>
        <time>2024-07-14T08:52:09.000Z</time>
      </trkpt>
      <trkpt lat="45.02674" lon="5.49914">
        <ele>1319.1999511719</ele>
        <time>2024-07-14T08:52:10.000Z</time>
      </trkpt>
      <trkpt lat="45.02675" lon="5.49912">
        <ele>1319.4000244141</ele>
        <time>2024-07-14T08:52:11.000Z</time>
      </trkpt>
      <trkpt lat="45.02676" lon="5.49911">
        <ele>1319.4000244141</ele>
        <time>2024-07-14T08:52:12.000Z</time>
      </trkpt>
      <trkpt lat="45.02678" lon="5.49909">
        <ele>1319.5999755859</ele>
        <time>2024-07-14T08:52:13.000Z</time>
      </trkpt>
      <trkpt lat="45.02679" lon="5.49908">
        <ele>1319.8000488281</ele>
        <time>2024-07-14T08:52:14.000Z</time>
      </trkpt>
      <trkpt lat="45.0268" lon="5.49906">
        <ele>1320</ele>
        <time>2024-07-14T08:52:15.000Z</time>
      </trkpt>
      <trkpt lat="45.02681" lon="5.49905">
        <ele>1320</ele>
        <time>2024-07-14T08:52:16.000Z</time>
      </trkpt>
      <trkpt lat="45.02682" lon="5.49904">
        <ele>1320.1999511719</ele>
        <time>2024-07-14T08:52:17.000Z</time>
      </trkpt>
      <trkpt lat="45.02683" lon="5.49902">
        <ele>1320.4000244141</ele>
        <time>2024-07-14T08:52:18.000Z</time>
      </trkpt>
      <trkpt lat="45.02684" lon="5.49901">
        <ele>1320.5999755859</ele>
        <time>2024-07-14T08:52:19.000Z</time>
      </trkpt>
      <trkpt lat="45.02685" lon="5.499">
        <ele>1320.8000488281</ele>
        <time>2024-07-14T08:52:20.000Z</time>
      </trkpt>
      <trkpt lat="45.02686" lon="5.49899">
        <ele>1321.1999511719</ele>
        <time>2024-07-14T08:52:21.000Z</time>
      </trkpt>
      <trkpt lat="45.02687" lon="5.49899">
        <ele>1321.4000244141</ele>
        <time>2024-07-14T08:52:22.000Z</time>
      </trkpt>
      <trkpt lat="45.02688" lon="5.49899">
        <ele>1321.5999755859</ele>
        <time>2024-07-14T08:52:23.000Z</time>
      </trkpt>
      <trkpt lat="45.02689" lon="5.49899">
        <ele>1321.8000488281</ele>
        <time>2024-07-14T08:52:24.000Z</time>
      </trkpt>
      <trkpt lat="45.0269" lon="5.49898">
        <ele>1322</ele>
        <time>2024-07-14T08:52:25.000Z</time>
      </trkpt>
      <trkpt lat="45.02691" lon="5.49898">
        <ele>1322.1999511719</ele>
        <time>2024-07-14T08:52:26.000Z</time>
      </trkpt>
      <trkpt lat="45.02692" lon="5.49897">
        <ele>1322.4000244141</ele>
        <time>2024-07-14T08:52:27.000Z</time>
      </trkpt>
      <trkpt lat="45.02693" lon="5.49897">
        <ele>1322.5999755859</ele>
        <time>2024-07-14T08:52:28.000Z</time>
      </trkpt>
      <trkpt lat="45.02695" lon="5.49897">
        <ele>1322.8000488281</ele>
        <time>2024-07-14T08:52:29.000Z</time>
      </trkpt>
      <trkpt lat="45.02696" lon="5.49896">
        <ele>1323.1999511719</ele>
        <time>2024-07-14T08:52:30.000Z</time>
      </trkpt>
      <trkpt lat="45.02698" lon="5.49895">
        <ele>1323.4000244141</ele>
        <time>2024-07-14T08:52:31.000Z</time>
      </trkpt>
      <trkpt lat="45.02699" lon="5.49895">
        <ele>1323.8000488281</ele>
        <time>2024-07-14T08:52:32.000Z</time>
      </trkpt>
      <trkpt lat="45.02701" lon="5.49894">
        <ele>1324</ele>
        <time>2024-07-14T08:52:33.000Z</time>
      </trkpt>
      <trkpt lat="45.02702" lon="5.49894">
        <ele>1324.4000244141</ele>
        <time>2024-07-14T08:52:34.000Z</time>
      </trkpt>
      <trkpt lat="45.02704" lon="5.49893">
        <ele>1324.5999755859</ele>
        <time>2024-07-14T08:52:35.000Z</time>
      </trkpt>
      <trkpt lat="45.02705" lon="5.49893">
        <ele>1324.8000488281</ele>
        <time>2024-07-14T08:52:36.000Z</time>
      </trkpt>
      <trkpt lat="45.02707" lon="5.49892">
        <ele>1324.8000488281</ele>
        <time>2024-07-14T08:52:37.000Z</time>
      </trkpt>
      <trkpt lat="45.02709" lon="5.49891">
        <ele>1324.8000488281</ele>
        <time>2024-07-14T08:52:38.000Z</time>
      </trkpt>
      <trkpt lat="45.02711" lon="5.49891">
        <ele>1324.8000488281</ele>
        <time>2024-07-14T08:52:39.000Z</time>
      </trkpt>
      <trkpt lat="45.02713" lon="5.49891">
        <ele>1325</ele>
        <time>2024-07-14T08:52:40.000Z</time>
      </trkpt>
      <trkpt lat="45.02715" lon="5.4989">
        <ele>1325.1999511719</ele>
        <time>2024-07-14T08:52:41.000Z</time>
      </trkpt>
      <trkpt lat="45.02717" lon="5.4989">
        <ele>1325.1999511719</ele>
        <time>2024-07-14T08:52:42.000Z</time>
      </trkpt>
      <trkpt lat="45.02719" lon="5.4989">
        <ele>1325.1999511719</ele>
        <time>2024-07-14T08:52:43.000Z</time>
      </trkpt>
      <trkpt lat="45.02721" lon="5.49889">
        <ele>1325.1999511719</ele>
        <time>2024-07-14T08:52:44.000Z</time>
      </trkpt>
      <trkpt lat="45.02723" lon="5.49888">
        <ele>1325.1999511719</ele>
        <time>2024-07-14T08:52:45.000Z</time>
      </trkpt>
      <trkpt lat="45.02725" lon="5.49887">
        <ele>1325.1999511719</ele>
        <time>2024-07-14T08:52:46.000Z</time>
      </trkpt>
      <trkpt lat="45.02727" lon="5.49886">
        <ele>1325.1999511719</ele>
        <time>2024-07-14T08:52:47.000Z</time>
      </trkpt>
      <trkpt lat="45.02729" lon="5.49885">
        <ele>1325.1999511719</ele>
        <time>2024-07-14T08:52:48.000Z</time>
      </trkpt>
      <trkpt lat="45.02731" lon="5.49885">
        <ele>1325.1999511719</ele>
        <time>2024-07-14T08:52:49.000Z</time>
      </trkpt>
      <trkpt lat="45.02734" lon="5.49884">
        <ele>1325.1999511719</ele>
        <time>2024-07-14T08:52:50.000Z</time>
      </trkpt>
      <trkpt lat="45.02736" lon="5.49884">
        <ele>1325.1999511719</ele>
        <time>2024-07-14T08:52:51.000Z</time>
      </trkpt>
      <trkpt lat="45.02737" lon="5.49883">
        <ele>1325.4000244141</ele>
        <time>2024-07-14T08:52:52.000Z</time>
      </trkpt>
      <trkpt lat="45.02739" lon="5.49882">
        <ele>1325.4000244141</ele>
        <time>2024-07-14T08:52:53.000Z</time>
      </trkpt>
      <trkpt lat="45.02742" lon="5.49882">
        <ele>1325.5999755859</ele>
        <time>2024-07-14T08:52:54.000Z</time>
      </trkpt>
      <trkpt lat="45.02744" lon="5.49882">
        <ele>1325.8000488281</ele>
        <time>2024-07-14T08:52:55.000Z</time>
      </trkpt>
      <trkpt lat="45.02745" lon="5.49881">
        <ele>1326.1999511719</ele>
        <time>2024-07-14T08:52:56.000Z</time>
      </trkpt>
      <trkpt lat="45.02747" lon="5.49881">
        <ele>1326.4000244141</ele>
        <time>2024-07-14T08:52:57.000Z</time>
      </trkpt>
      <trkpt lat="45.02748" lon="5.4988">
        <ele>1326.5999755859</ele>
        <time>2024-07-14T08:52:58.000Z</time>
      </trkpt>
      <trkpt lat="45.0275" lon="5.4988">
        <ele>1326.8000488281</ele>
        <time>2024-07-14T08:52:59.000Z</time>
      </trkpt>
      <trkpt lat="45.02751" lon="5.49879">
        <ele>1327</ele>
        <time>2024-07-14T08:53:00.000Z</time>
      </trkpt>
      <trkpt lat="45.02752" lon="5.49878">
        <ele>1327</ele>
        <time>2024-07-14T08:53:01.000Z</time>
      </trkpt>
      <trkpt lat="45.02754" lon="5.49877">
        <ele>1327.1999511719</ele>
        <time>2024-07-14T08:53:02.000Z</time>
      </trkpt>
      <trkpt lat="45.02755" lon="5.49876">
        <ele>1327.4000244141</ele>
        <time>2024-07-14T08:53:03.000Z</time>
      </trkpt>
      <trkpt lat="45.02755" lon="5.49875">
        <ele>1327.5999755859</ele>
        <time>2024-07-14T08:53:04.000Z</time>
      </trkpt>
      <trkpt lat="45.02756" lon="5.49874">
        <ele>1327.8000488281</ele>
        <time>2024-07-14T08:53:05.000Z</time>
      </trkpt>
      <trkpt lat="45.02758" lon="5.49873">
        <ele>1328.1999511719</ele>
        <time>2024-07-14T08:53:06.000Z</time>
      </trkpt>
      <trkpt lat="45.02759" lon="5.49872">
        <ele>1328.5999755859</ele>
        <time>2024-07-14T08:53:07.000Z</time>
      </trkpt>
      <trkpt lat="45.0276" lon="5.49871">
        <ele>1328.8000488281</ele>
        <time>2024-07-14T08:53:08.000Z</time>
      </trkpt>
      <trkpt lat="45.02761" lon="5.4987">
        <ele>1329</ele>
        <time>2024-07-14T08:53:09.000Z</time>
      </trkpt>
      <trkpt lat="45.02762" lon="5.49869">
        <ele>1329.1999511719</ele>
        <time>2024-07-14T08:53:10.000Z</time>
      </trkpt>
      <trkpt lat="45.02763" lon="5.49867">
        <ele>1329.4000244141</ele>
        <time>2024-07-14T08:53:11.000Z</time>
      </trkpt>
      <trkpt lat="45.02765" lon="5.49866">
        <ele>1329.5999755859</ele>
        <time>2024-07-14T08:53:12.000Z</time>
      </trkpt>
      <trkpt lat="45.02766" lon="5.49864">
        <ele>1329.8000488281</ele>
        <time>2024-07-14T08:53:13.000Z</time>
      </trkpt>
      <trkpt lat="45.02767" lon="5.49863">
        <ele>1330</ele>
        <time>2024-07-14T08:53:14.000Z</time>
      </trkpt>
      <trkpt lat="45.02769" lon="5.49862">
        <ele>1330.1999511719</ele>
        <time>2024-07-14T08:53:15.000Z</time>
      </trkpt>
      <trkpt lat="45.02771" lon="5.49861">
        <ele>1330.4000244141</ele>
        <time>2024-07-14T08:53:16.000Z</time>
      </trkpt>
      <trkpt lat="45.02772" lon="5.4986">
        <ele>1330.4000244141</ele>
        <time>2024-07-14T08:53:17.000Z</time>
      </trkpt>
      <trkpt lat="45.02775" lon="5.49859">
        <ele>1330.4000244141</ele>
        <time>2024-07-14T08:53:18.000Z</time>
      </trkpt>
      <trkpt lat="45.02776" lon="5.49858">
        <ele>1330.4000244141</ele>
        <time>2024-07-14T08:53:19.000Z</time>
      </trkpt>
      <trkpt lat="45.02778" lon="5.49857">
        <ele>1330.1999511719</ele>
        <time>2024-07-14T08:53:20.000Z</time>
      </trkpt>
      <trkpt lat="45.02781" lon="5.49856">
        <ele>1330.1999511719</ele>
        <time>2024-07-14T08:53:21.000Z</time>
      </trkpt>
      <trkpt lat="45.02783" lon="5.49855">
        <ele>1330</ele>
        <time>2024-07-14T08:53:22.000Z</time>
      </trkpt>
      <trkpt lat="45.02785" lon="5.49855">
        <ele>1330</ele>
        <time>2024-07-14T08:53:23.000Z</time>
      </trkpt>
      <trkpt lat="45.02787" lon="5.49855">
        <ele>1330</ele>
        <time>2024-07-14T08:53:24.000Z</time>
      </trkpt>
      <trkpt lat="45.02789" lon="5.49854">
        <ele>1330</ele>
        <time>2024-07-14T08:53:25.000Z</time>
      </trkpt>
      <trkpt lat="45.02791" lon="5.49854">
        <ele>1329.8000488281</ele>
        <time>2024-07-14T08:53:26.000Z</time>
      </trkpt>
      <trkpt lat="45.02793" lon="5.49854">
        <ele>1329.8000488281</ele>
        <time>2024-07-14T08:53:27.000Z</time>
      </trkpt>
      <trkpt lat="45.02795" lon="5.49853">
        <ele>1329.5999755859</ele>
        <time>2024-07-14T08:53:28.000Z</time>
      </trkpt>
      <trkpt lat="45.02797" lon="5.49852">
        <ele>1329.5999755859</ele>
        <time>2024-07-14T08:53:29.000Z</time>
      </trkpt>
      <trkpt lat="45.02798" lon="5.49851">
        <ele>1329.5999755859</ele>
        <time>2024-07-14T08:53:30.000Z</time>
      </trkpt>
      <trkpt lat="45.028" lon="5.4985">
        <ele>1329.5999755859</ele>
        <time>2024-07-14T08:53:31.000Z</time>
      </trkpt>
      <trkpt lat="45.02802" lon="5.49849">
        <ele>1329.5999755859</ele>
        <time>2024-07-14T08:53:32.000Z</time>
      </trkpt>
      <trkpt lat="45.02805" lon="5.49848">
        <ele>1329.5999755859</ele>
        <time>2024-07-14T08:53:33.000Z</time>
      </trkpt>
      <trkpt lat="45.02807" lon="5.49848">
        <ele>1329.8000488281</ele>
        <time>2024-07-14T08:53:34.000Z</time>
      </trkpt>
      <trkpt lat="45.02809" lon="5.49847">
        <ele>1329.8000488281</ele>
        <time>2024-07-14T08:53:35.000Z</time>
      </trkpt>
      <trkpt lat="45.02812" lon="5.49846">
        <ele>1329.8000488281</ele>
        <time>2024-07-14T08:53:36.000Z</time>
      </trkpt>
      <trkpt lat="45.02814" lon="5.49845">
        <ele>1329.8000488281</ele>
        <time>2024-07-14T08:53:37.000Z</time>
      </trkpt>
      <trkpt lat="45.02817" lon="5.49844">
        <ele>1329.8000488281</ele>
        <time>2024-07-14T08:53:38.000Z</time>
      </trkpt>
      <trkpt lat="45.02819" lon="5.49843">
        <ele>1329.8000488281</ele>
        <time>2024-07-14T08:53:39.000Z</time>
      </trkpt>
      <trkpt lat="45.02821" lon="5.49842">
        <ele>1329.8000488281</ele>
        <time>2024-07-14T08:53:40.000Z</time>
      </trkpt>
      <trkpt lat="45.02824" lon="5.49842">
        <ele>1329.8000488281</ele>
        <time>2024-07-14T08:53:41.000Z</time>
      </trkpt>
      <trkpt lat="45.02826" lon="5.49841">
        <ele>1329.8000488281</ele>
        <time>2024-07-14T08:53:42.000Z</time>
      </trkpt>
      <trkpt lat="45.02829" lon="5.49841">
        <ele>1329.8000488281</ele>
        <time>2024-07-14T08:53:43.000Z</time>
      </trkpt>
      <trkpt lat="45.02831" lon="5.4984">
        <ele>1329.5999755859</ele>
        <time>2024-07-14T08:53:44.000Z</time>
      </trkpt>
      <trkpt lat="45.02833" lon="5.49839">
        <ele>1329.4000244141</ele>
        <time>2024-07-14T08:53:45.000Z</time>
      </trkpt>
      <trkpt lat="45.02835" lon="5.49838">
        <ele>1329.1999511719</ele>
        <time>2024-07-14T08:53:46.000Z</time>
      </trkpt>
      <trkpt lat="45.02837" lon="5.49836">
        <ele>1329.1999511719</ele>
        <time>2024-07-14T08:53:47.000Z</time>
      </trkpt>
      <trkpt lat="45.02839" lon="5.49835">
        <ele>1329.1999511719</ele>
        <time>2024-07-14T08:53:48.000Z</time>
      </trkpt>
      <trkpt lat="45.02841" lon="5.49834">
        <ele>1329.1999511719</ele>
        <time>2024-07-14T08:53:49.000Z</time>
      </trkpt>
      <trkpt lat="45.02843" lon="5.49833">
        <ele>1329.4000244141</ele>
        <time>2024-07-14T08:53:50.000Z</time>
      </trkpt>
      <trkpt lat="45.02845" lon="5.49832">
        <ele>1329.5999755859</ele>
        <time>2024-07-14T08:53:51.000Z</time>
      </trkpt>
      <trkpt lat="45.02848" lon="5.49831">
        <ele>1329.8000488281</ele>
        <time>2024-07-14T08:53:52.000Z</time>
      </trkpt>
      <trkpt lat="45.02849" lon="5.49831">
        <ele>1329.8000488281</ele>
        <time>2024-07-14T08:53:53.000Z</time>
      </trkpt>
      <trkpt lat="45.02851" lon="5.4983">
        <ele>1330</ele>
        <time>2024-07-14T08:53:54.000Z</time>
      </trkpt>
      <trkpt lat="45.02853" lon="5.49829">
        <ele>1330.1999511719</ele>
        <time>2024-07-14T08:53:55.000Z</time>
      </trkpt>
      <trkpt lat="45.02856" lon="5.49828">
        <ele>1330.4000244141</ele>
        <time>2024-07-14T08:53:56.000Z</time>
      </trkpt>
      <trkpt lat="45.02857" lon="5.49827">
        <ele>1330.5999755859</ele>
        <time>2024-07-14T08:53:57.000Z</time>
      </trkpt>
      <trkpt lat="45.02859" lon="5.49826">
        <ele>1330.8000488281</ele>
        <time>2024-07-14T08:53:58.000Z</time>
      </trkpt>
      <trkpt lat="45.02861" lon="5.49825">
        <ele>1331</ele>
        <time>2024-07-14T08:53:59.000Z</time>
      </trkpt>
      <trkpt lat="45.02863" lon="5.49825">
        <ele>1331</ele>
        <time>2024-07-14T08:54:00.000Z</time>
      </trkpt>
      <trkpt lat="45.02866" lon="5.49824">
        <ele>1331.1999511719</ele>
        <time>2024-07-14T08:54:01.000Z</time>
      </trkpt>
      <trkpt lat="45.02868" lon="5.49823">
        <ele>1331.4000244141</ele>
        <time>2024-07-14T08:54:02.000Z</time>
      </trkpt>
      <trkpt lat="45.0287" lon="5.49822">
        <ele>1331.5999755859</ele>
        <time>2024-07-14T08:54:03.000Z</time>
      </trkpt>
      <trkpt lat="45.02872" lon="5.49822">
        <ele>1331.8000488281</ele>
        <time>2024-07-14T08:54:04.000Z</time>
      </trkpt>
      <trkpt lat="45.02874" lon="5.49821">
        <ele>1332</ele>
        <time>2024-07-14T08:54:05.000Z</time>
      </trkpt>
      <trkpt lat="45.02876" lon="5.49821">
        <ele>1332.1999511719</ele>
        <time>2024-07-14T08:54:06.000Z</time>
      </trkpt>
      <trkpt lat="45.02879" lon="5.4982">
        <ele>1332.4000244141</ele>
        <time>2024-07-14T08:54:07.000Z</time>
      </trkpt>
      <trkpt lat="45.02881" lon="5.4982">
        <ele>1332.5999755859</ele>
        <time>2024-07-14T08:54:08.000Z</time>
      </trkpt>
      <trkpt lat="45.02883" lon="5.49819">
        <ele>1332.5999755859</ele>
        <time>2024-07-14T08:54:09.000Z</time>
      </trkpt>
      <trkpt lat="45.02885" lon="5.49818">
        <ele>1332.5999755859</ele>
        <time>2024-07-14T08:54:10.000Z</time>
      </trkpt>
      <trkpt lat="45.02887" lon="5.49817">
        <ele>1332.8000488281</ele>
        <time>2024-07-14T08:54:11.000Z</time>
      </trkpt>
      <trkpt lat="45.02888" lon="5.49815">
        <ele>1332.8000488281</ele>
        <time>2024-07-14T08:54:12.000Z</time>
      </trkpt>
      <trkpt lat="45.0289" lon="5.49814">
        <ele>1332.8000488281</ele>
        <time>2024-07-14T08:54:13.000Z</time>
      </trkpt>
      <trkpt lat="45.02891" lon="5.49812">
        <ele>1333</ele>
        <time>2024-07-14T08:54:14.000Z</time>
      </trkpt>
      <trkpt lat="45.02893" lon="5.49811">
        <ele>1333</ele>
        <time>2024-07-14T08:54:15.000Z</time>
      </trkpt>
      <trkpt lat="45.02894" lon="5.49809">
        <ele>1333.1999511719</ele>
        <time>2024-07-14T08:54:16.000Z</time>
      </trkpt>
      <trkpt lat="45.02896" lon="5.49808">
        <ele>1333.4000244141</ele>
        <time>2024-07-14T08:54:17.000Z</time>
      </trkpt>
      <trkpt lat="45.02897" lon="5.49806">
        <ele>1333.5999755859</ele>
        <time>2024-07-14T08:54:18.000Z</time>
      </trkpt>
      <trkpt lat="45.02898" lon="5.49805">
        <ele>1333.8000488281</ele>
        <time>2024-07-14T08:54:19.000Z</time>
      </trkpt>
      <trkpt lat="45.02899" lon="5.49804">
        <ele>1334</ele>
        <time>2024-07-14T08:54:20.000Z</time>
      </trkpt>
      <trkpt lat="45.02901" lon="5.49803">
        <ele>1334.5999755859</ele>
        <time>2024-07-14T08:54:21.000Z</time>
      </trkpt>
      <trkpt lat="45.02903" lon="5.49801">
        <ele>1334.8000488281</ele>
        <time>2024-07-14T08:54:22.000Z</time>
      </trkpt>
      <trkpt lat="45.02904" lon="5.49799">
        <ele>1335</ele>
        <time>2024-07-14T08:54:23.000Z</time>
      </trkpt>
      <trkpt lat="45.02906" lon="5.49798">
        <ele>1335</ele>
        <time>2024-07-14T08:54:24.000Z</time>
      </trkpt>
      <trkpt lat="45.02908" lon="5.49796">
        <ele>1335</ele>
        <time>2024-07-14T08:54:25.000Z</time>
      </trkpt>
      <trkpt lat="45.0291" lon="5.49794">
        <ele>1335</ele>
        <time>2024-07-14T08:54:26.000Z</time>
      </trkpt>
      <trkpt lat="45.02912" lon="5.49793">
        <ele>1334.5999755859</ele>
        <time>2024-07-14T08:54:27.000Z</time>
      </trkpt>
      <trkpt lat="45.02914" lon="5.49792">
        <ele>1334.1999511719</ele>
        <time>2024-07-14T08:54:28.000Z</time>
      </trkpt>
      <trkpt lat="45.02917" lon="5.49791">
        <ele>1333.8000488281</ele>
        <time>2024-07-14T08:54:29.000Z</time>
      </trkpt>
      <trkpt lat="45.02919" lon="5.49791">
        <ele>1333.4000244141</ele>
        <time>2024-07-14T08:54:30.000Z</time>
      </trkpt>
      <trkpt lat="45.02921" lon="5.4979">
        <ele>1333.1999511719</ele>
        <time>2024-07-14T08:54:31.000Z</time>
      </trkpt>
      <trkpt lat="45.02924" lon="5.4979">
        <ele>1333.1999511719</ele>
        <time>2024-07-14T08:54:32.000Z</time>
      </trkpt>
      <trkpt lat="45.02926" lon="5.4979">
        <ele>1333</ele>
        <time>2024-07-14T08:54:33.000Z</time>
      </trkpt>
      <trkpt lat="45.02929" lon="5.4979">
        <ele>1332.8000488281</ele>
        <time>2024-07-14T08:54:34.000Z</time>
      </trkpt>
      <trkpt lat="45.02931" lon="5.4979">
        <ele>1332.4000244141</ele>
        <time>2024-07-14T08:54:35.000Z</time>
      </trkpt>
      <trkpt lat="45.02933" lon="5.4979">
        <ele>1332</ele>
        <time>2024-07-14T08:54:36.000Z</time>
      </trkpt>
      <trkpt lat="45.02936" lon="5.49789">
        <ele>1331.8000488281</ele>
        <time>2024-07-14T08:54:37.000Z</time>
      </trkpt>
      <trkpt lat="45.02938" lon="5.49789">
        <ele>1331.4000244141</ele>
        <time>2024-07-14T08:54:38.000Z</time>
      </trkpt>
      <trkpt lat="45.02941" lon="5.49788">
        <ele>1331.4000244141</ele>
        <time>2024-07-14T08:54:39.000Z</time>
      </trkpt>
      <trkpt lat="45.02943" lon="5.49788">
        <ele>1331.1999511719</ele>
        <time>2024-07-14T08:54:40.000Z</time>
      </trkpt>
      <trkpt lat="45.02946" lon="5.49787">
        <ele>1331.1999511719</ele>
        <time>2024-07-14T08:54:41.000Z</time>
      </trkpt>
      <trkpt lat="45.02948" lon="5.49787">
        <ele>1331</ele>
        <time>2024-07-14T08:54:42.000Z</time>
      </trkpt>
      <trkpt lat="45.02951" lon="5.49786">
        <ele>1330.8000488281</ele>
        <time>2024-07-14T08:54:43.000Z</time>
      </trkpt>
      <trkpt lat="45.02953" lon="5.49785">
        <ele>1330.8000488281</ele>
        <time>2024-07-14T08:54:44.000Z</time>
      </trkpt>
      <trkpt lat="45.02955" lon="5.49784">
        <ele>1330.8000488281</ele>
        <time>2024-07-14T08:54:45.000Z</time>
      </trkpt>
      <trkpt lat="45.02957" lon="5.49782">
        <ele>1330.8000488281</ele>
        <time>2024-07-14T08:54:46.000Z</time>
      </trkpt>
      <trkpt lat="45.02959" lon="5.4978">
        <ele>1330.8000488281</ele>
        <time>2024-07-14T08:54:47.000Z</time>
      </trkpt>
      <trkpt lat="45.0296" lon="5.49779">
        <ele>1330.8000488281</ele>
        <time>2024-07-14T08:54:48.000Z</time>
      </trkpt>
      <trkpt lat="45.02962" lon="5.49777">
        <ele>1330.8000488281</ele>
        <time>2024-07-14T08:54:49.000Z</time>
      </trkpt>
      <trkpt lat="45.02964" lon="5.49774">
        <ele>1330.5999755859</ele>
        <time>2024-07-14T08:54:50.000Z</time>
      </trkpt>
      <trkpt lat="45.02965" lon="5.49772">
        <ele>1330.4000244141</ele>
        <time>2024-07-14T08:54:51.000Z</time>
      </trkpt>
      <trkpt lat="45.02966" lon="5.49769">
        <ele>1330.1999511719</ele>
        <time>2024-07-14T08:54:52.000Z</time>
      </trkpt>
      <trkpt lat="45.02967" lon="5.49767">
        <ele>1330.1999511719</ele>
        <time>2024-07-14T08:54:53.000Z</time>
      </trkpt>
      <trkpt lat="45.02967" lon="5.49764">
        <ele>1330.1999511719</ele>
        <time>2024-07-14T08:54:54.000Z</time>
      </trkpt>
      <trkpt lat="45.02968" lon="5.49762">
        <ele>1330.1999511719</ele>
        <time>2024-07-14T08:54:55.000Z</time>
      </trkpt>
      <trkpt lat="45.02968" lon="5.49759">
        <ele>1330.1999511719</ele>
        <time>2024-07-14T08:54:56.000Z</time>
      </trkpt>
      <trkpt lat="45.02967" lon="5.49757">
        <ele>1330.4000244141</ele>
        <time>2024-07-14T08:54:57.000Z</time>
      </trkpt>
      <trkpt lat="45.02966" lon="5.49754">
        <ele>1330.4000244141</ele>
        <time>2024-07-14T08:54:58.000Z</time>
      </trkpt>
      <trkpt lat="45.02965" lon="5.49752">
        <ele>1330.5999755859</ele>
        <time>2024-07-14T08:54:59.000Z</time>
      </trkpt>
      <trkpt lat="45.02964" lon="5.49751">
        <ele>1330.8000488281</ele>
        <time>2024-07-14T08:55:00.000Z</time>
      </trkpt>
      <trkpt lat="45.02963" lon="5.49749">
        <ele>1330.8000488281</ele>
        <time>2024-07-14T08:55:01.000Z</time>
      </trkpt>
      <trkpt lat="45.02963" lon="5.49747">
        <ele>1331</ele>
        <time>2024-07-14T08:55:02.000Z</time>
      </trkpt>
      <trkpt lat="45.02962" lon="5.49745">
        <ele>1331</ele>
        <time>2024-07-14T08:55:03.000Z</time>
      </trkpt>
      <trkpt lat="45.02962" lon="5.49743">
        <ele>1331.1999511719</ele>
        <time>2024-07-14T08:55:04.000Z</time>
      </trkpt>
      <trkpt lat="45.02961" lon="5.4974">
        <ele>1331.4000244141</ele>
        <time>2024-07-14T08:55:05.000Z</time>
      </trkpt>
      <trkpt lat="45.02961" lon="5.49737">
        <ele>1331.5999755859</ele>
        <time>2024-07-14T08:55:06.000Z</time>
      </trkpt>
      <trkpt lat="45.02961" lon="5.49734">
        <ele>1331.8000488281</ele>
        <time>2024-07-14T08:55:07.000Z</time>
      </trkpt>
      <trkpt lat="45.02961" lon="5.49731">
        <ele>1332</ele>
        <time>2024-07-14T08:55:08.000Z</time>
      </trkpt>
      <trkpt lat="45.02961" lon="5.49727">
        <ele>1332.1999511719</ele>
        <time>2024-07-14T08:55:09.000Z</time>
      </trkpt>
      <trkpt lat="45.02961" lon="5.49724">
        <ele>1332.4000244141</ele>
        <time>2024-07-14T08:55:10.000Z</time>
      </trkpt>
      <trkpt lat="45.02962" lon="5.49721">
        <ele>1332.8000488281</ele>
        <time>2024-07-14T08:55:11.000Z</time>
      </trkpt>
      <trkpt lat="45.02963" lon="5.49717">
        <ele>1332.8000488281</ele>
        <time>2024-07-14T08:55:12.000Z</time>
      </trkpt>
      <trkpt lat="45.02964" lon="5.49715">
        <ele>1332.8000488281</ele>
        <time>2024-07-14T08:55:13.000Z</time>
      </trkpt>
      <trkpt lat="45.02964" lon="5.49712">
        <ele>1332.8000488281</ele>
        <time>2024-07-14T08:55:14.000Z</time>
      </trkpt>
      <trkpt lat="45.02965" lon="5.49709">
        <ele>1332.5999755859</ele>
        <time>2024-07-14T08:55:15.000Z</time>
      </trkpt>
      <trkpt lat="45.02966" lon="5.49707">
        <ele>1332.4000244141</ele>
        <time>2024-07-14T08:55:16.000Z</time>
      </trkpt>
      <trkpt lat="45.02967" lon="5.49704">
        <ele>1332.1999511719</ele>
        <time>2024-07-14T08:55:17.000Z</time>
      </trkpt>
      <trkpt lat="45.02968" lon="5.49702">
        <ele>1332</ele>
        <time>2024-07-14T08:55:18.000Z</time>
      </trkpt>
      <trkpt lat="45.02969" lon="5.497">
        <ele>1332</ele>
        <time>2024-07-14T08:55:19.000Z</time>
      </trkpt>
      <trkpt lat="45.02969" lon="5.49697">
        <ele>1331.8000488281</ele>
        <time>2024-07-14T08:55:20.000Z</time>
      </trkpt>
      <trkpt lat="45.0297" lon="5.49695">
        <ele>1331.5999755859</ele>
        <time>2024-07-14T08:55:21.000Z</time>
      </trkpt>
      <trkpt lat="45.0297" lon="5.49692">
        <ele>1331.4000244141</ele>
        <time>2024-07-14T08:55:22.000Z</time>
      </trkpt>
      <trkpt lat="45.0297" lon="5.49689">
        <ele>1331</ele>
        <time>2024-07-14T08:55:23.000Z</time>
      </trkpt>
      <trkpt lat="45.02971" lon="5.49686">
        <ele>1330.5999755859</ele>
        <time>2024-07-14T08:55:24.000Z</time>
      </trkpt>
      <trkpt lat="45.02972" lon="5.49682">
        <ele>1330.1999511719</ele>
        <time>2024-07-14T08:55:25.000Z</time>
      </trkpt>
      <trkpt lat="45.02973" lon="5.49679">
        <ele>1329.4000244141</ele>
        <time>2024-07-14T08:55:26.000Z</time>
      </trkpt>
      <trkpt lat="45.02974" lon="5.49675">
        <ele>1329.1999511719</ele>
        <time>2024-07-14T08:55:27.000Z</time>
      </trkpt>
      <trkpt lat="45.02975" lon="5.49673">
        <ele>1329</ele>
        <time>2024-07-14T08:55:28.000Z</time>
      </trkpt>
      <trkpt lat="45.02977" lon="5.49669">
        <ele>1328.5999755859</ele>
        <time>2024-07-14T08:55:29.000Z</time>
      </trkpt>
      <trkpt lat="45.02978" lon="5.49666">
        <ele>1328.5999755859</ele>
        <time>2024-07-14T08:55:30.000Z</time>
      </trkpt>
      <trkpt lat="45.02979" lon="5.49663">
        <ele>1328.1999511719</ele>
        <time>2024-07-14T08:55:31.000Z</time>
      </trkpt>
      <trkpt lat="45.02981" lon="5.4966">
        <ele>1327.8000488281</ele>
        <time>2024-07-14T08:55:32.000Z</time>
      </trkpt>
      <trkpt lat="45.02982" lon="5.49658">
        <ele>1327.4000244141</ele>
        <time>2024-07-14T08:55:33.000Z</time>
      </trkpt>
      <trkpt lat="45.02983" lon="5.49656">
        <ele>1327.1999511719</ele>
        <time>2024-07-14T08:55:34.000Z</time>
      </trkpt>
      <trkpt lat="45.02985" lon="5.49654">
        <ele>1327</ele>
        <time>2024-07-14T08:55:35.000Z</time>
      </trkpt>
      <trkpt lat="45.02987" lon="5.49651">
        <ele>1327</ele>
        <time>2024-07-14T08:55:36.000Z</time>
      </trkpt>
      <trkpt lat="45.02988" lon="5.49648">
        <ele>1326.8000488281</ele>
        <time>2024-07-14T08:55:37.000Z</time>
      </trkpt>
      <trkpt lat="45.02989" lon="5.49646">
        <ele>1326.8000488281</ele>
        <time>2024-07-14T08:55:38.000Z</time>
      </trkpt>
      <trkpt lat="45.0299" lon="5.49642">
        <ele>1326.8000488281</ele>
        <time>2024-07-14T08:55:39.000Z</time>
      </trkpt>
      <trkpt lat="45.02991" lon="5.49639">
        <ele>1326.8000488281</ele>
        <time>2024-07-14T08:55:40.000Z</time>
      </trkpt>
      <trkpt lat="45.02991" lon="5.49636">
        <ele>1326.8000488281</ele>
        <time>2024-07-14T08:55:41.000Z</time>
      </trkpt>
      <trkpt lat="45.02993" lon="5.49632">
        <ele>1326.8000488281</ele>
        <time>2024-07-14T08:55:42.000Z</time>
      </trkpt>
      <trkpt lat="45.02993" lon="5.49628">
        <ele>1326.8000488281</ele>
        <time>2024-07-14T08:55:43.000Z</time>
      </trkpt>
      <trkpt lat="45.02995" lon="5.49624">
        <ele>1326.8000488281</ele>
        <time>2024-07-14T08:55:44.000Z</time>
      </trkpt>
      <trkpt lat="45.02995" lon="5.49621">
        <ele>1326.5999755859</ele>
        <time>2024-07-14T08:55:45.000Z</time>
      </trkpt>
      <trkpt lat="45.02996" lon="5.49617">
        <ele>1326.5999755859</ele>
        <time>2024-07-14T08:55:46.000Z</time>
      </trkpt>
      <trkpt lat="45.02996" lon="5.49615">
        <ele>1326.5999755859</ele>
        <time>2024-07-14T08:55:47.000Z</time>
      </trkpt>
      <trkpt lat="45.02995" lon="5.49612">
        <ele>1326.1999511719</ele>
        <time>2024-07-14T08:55:48.000Z</time>
      </trkpt>
      <trkpt lat="45.02995" lon="5.49609">
        <ele>1326.1999511719</ele>
        <time>2024-07-14T08:55:49.000Z</time>
      </trkpt>
      <trkpt lat="45.02995" lon="5.49606">
        <ele>1326.1999511719</ele>
        <time>2024-07-14T08:55:50.000Z</time>
      </trkpt>
      <trkpt lat="45.02995" lon="5.49603">
        <ele>1326.1999511719</ele>
        <time>2024-07-14T08:55:51.000Z</time>
      </trkpt>
      <trkpt lat="45.02994" lon="5.496">
        <ele>1326.1999511719</ele>
        <time>2024-07-14T08:55:52.000Z</time>
      </trkpt>
      <trkpt lat="45.02995" lon="5.49597">
        <ele>1326.1999511719</ele>
        <time>2024-07-14T08:55:53.000Z</time>
      </trkpt>
      <trkpt lat="45.02995" lon="5.49593">
        <ele>1326.4000244141</ele>
        <time>2024-07-14T08:55:54.000Z</time>
      </trkpt>
      <trkpt lat="45.02995" lon="5.4959">
        <ele>1326.4000244141</ele>
        <time>2024-07-14T08:55:55.000Z</time>
      </trkpt>
      <trkpt lat="45.02996" lon="5.49587">
        <ele>1326.5999755859</ele>
        <time>2024-07-14T08:55:56.000Z</time>
      </trkpt>
      <trkpt lat="45.02997" lon="5.49585">
        <ele>1326.8000488281</ele>
        <time>2024-07-14T08:55:57.000Z</time>
      </trkpt>
      <trkpt lat="45.02999" lon="5.49581">
        <ele>1327</ele>
        <time>2024-07-14T08:55:58.000Z</time>
      </trkpt>
      <trkpt lat="45.03001" lon="5.49579">
        <ele>1327</ele>
        <time>2024-07-14T08:55:59.000Z</time>
      </trkpt>
      <trkpt lat="45.03003" lon="5.49578">
        <ele>1327</ele>
        <time>2024-07-14T08:56:00.000Z</time>
      </trkpt>
      <trkpt lat="45.03004" lon="5.49576">
        <ele>1327.1999511719</ele>
        <time>2024-07-14T08:56:01.000Z</time>
      </trkpt>
      <trkpt lat="45.03006" lon="5.49575">
        <ele>1327.5999755859</ele>
        <time>2024-07-14T08:56:02.000Z</time>
      </trkpt>
      <trkpt lat="45.03008" lon="5.49573">
        <ele>1327.8000488281</ele>
        <time>2024-07-14T08:56:03.000Z</time>
      </trkpt>
      <trkpt lat="45.03009" lon="5.49572">
        <ele>1328</ele>
        <time>2024-07-14T08:56:04.000Z</time>
      </trkpt>
      <trkpt lat="45.03011" lon="5.4957">
        <ele>1328.1999511719</ele>
        <time>2024-07-14T08:56:05.000Z</time>
      </trkpt>
      <trkpt lat="45.03012" lon="5.49569">
        <ele>1328.5999755859</ele>
        <time>2024-07-14T08:56:06.000Z</time>
      </trkpt>
      <trkpt lat="45.03013" lon="5.49568">
        <ele>1328.8000488281</ele>
        <time>2024-07-14T08:56:07.000Z</time>
      </trkpt>
      <trkpt lat="45.03015" lon="5.49567">
        <ele>1329</ele>
        <time>2024-07-14T08:56:08.000Z</time>
      </trkpt>
      <trkpt lat="45.03017" lon="5.49566">
        <ele>1329.4000244141</ele>
        <time>2024-07-14T08:56:09.000Z</time>
      </trkpt>
      <trkpt lat="45.03019" lon="5.49566">
        <ele>1329.5999755859</ele>
        <time>2024-07-14T08:56:10.000Z</time>
      </trkpt>
      <trkpt lat="45.03021" lon="5.49565">
        <ele>1330</ele>
        <time>2024-07-14T08:56:11.000Z</time>
      </trkpt>
      <trkpt lat="45.03023" lon="5.49564">
        <ele>1330.1999511719</ele>
        <time>2024-07-14T08:56:12.000Z</time>
      </trkpt>
      <trkpt lat="45.03025" lon="5.49564">
        <ele>1330.1999511719</ele>
        <time>2024-07-14T08:56:13.000Z</time>
      </trkpt>
      <trkpt lat="45.03027" lon="5.49563">
        <ele>1330.4000244141</ele>
        <time>2024-07-14T08:56:14.000Z</time>
      </trkpt>
      <trkpt lat="45.03028" lon="5.49562">
        <ele>1330.4000244141</ele>
        <time>2024-07-14T08:56:15.000Z</time>
      </trkpt>
      <trkpt lat="45.0303" lon="5.49561">
        <ele>1330.5999755859</ele>
        <time>2024-07-14T08:56:16.000Z</time>
      </trkpt>
      <trkpt lat="45.03032" lon="5.4956">
        <ele>1330.5999755859</ele>
        <time>2024-07-14T08:56:17.000Z</time>
      </trkpt>
      <trkpt lat="45.03034" lon="5.49559">
        <ele>1330.8000488281</ele>
        <time>2024-07-14T08:56:18.000Z</time>
      </trkpt>
      <trkpt lat="45.03036" lon="5.49558">
        <ele>1331</ele>
        <time>2024-07-14T08:56:19.000Z</time>
      </trkpt>
      <trkpt lat="45.03039" lon="5.49558">
        <ele>1331</ele>
        <time>2024-07-14T08:56:20.000Z</time>
      </trkpt>
      <trkpt lat="45.03041" lon="5.49557">
        <ele>1331.1999511719</ele>
        <time>2024-07-14T08:56:21.000Z</time>
      </trkpt>
      <trkpt lat="45.03043" lon="5.49557">
        <ele>1331.1999511719</ele>
        <time>2024-07-14T08:56:22.000Z</time>
      </trkpt>
      <trkpt lat="45.03045" lon="5.49556">
        <ele>1331.4000244141</ele>
        <time>2024-07-14T08:56:23.000Z</time>
      </trkpt>
      <trkpt lat="45.03047" lon="5.49555">
        <ele>1331.4000244141</ele>
        <time>2024-07-14T08:56:24.000Z</time>
      </trkpt>
      <trkpt lat="45.03049" lon="5.49555">
        <ele>1331.5999755859</ele>
        <time>2024-07-14T08:56:25.000Z</time>
      </trkpt>
      <trkpt lat="45.0305" lon="5.49554">
        <ele>1331.8000488281</ele>
        <time>2024-07-14T08:56:26.000Z</time>
      </trkpt>
      <trkpt lat="45.03052" lon="5.49553">
        <ele>1331.8000488281</ele>
        <time>2024-07-14T08:56:27.000Z</time>
      </trkpt>
      <trkpt lat="45.03054" lon="5.49552">
        <ele>1332</ele>
        <time>2024-07-14T08:56:28.000Z</time>
      </trkpt>
      <trkpt lat="45.03055" lon="5.49551">
        <ele>1332</ele>
        <time>2024-07-14T08:56:29.000Z</time>
      </trkpt>
      <trkpt lat="45.03058" lon="5.4955">
        <ele>1332.1999511719</ele>
        <time>2024-07-14T08:56:30.000Z</time>
      </trkpt>
      <trkpt lat="45.0306" lon="5.49549">
        <ele>1332.4000244141</ele>
        <time>2024-07-14T08:56:31.000Z</time>
      </trkpt>
      <trkpt lat="45.03062" lon="5.49549">
        <ele>1332.4000244141</ele>
        <time>2024-07-14T08:56:32.000Z</time>
      </trkpt>
      <trkpt lat="45.03063" lon="5.49548">
        <ele>1332.5999755859</ele>
        <time>2024-07-14T08:56:33.000Z</time>
      </trkpt>
      <trkpt lat="45.03066" lon="5.49548">
        <ele>1332.5999755859</ele>
        <time>2024-07-14T08:56:34.000Z</time>
      </trkpt>
      <trkpt lat="45.03067" lon="5.49548">
        <ele>1332.8000488281</ele>
        <time>2024-07-14T08:56:35.000Z</time>
      </trkpt>
      <trkpt lat="45.03069" lon="5.49548">
        <ele>1332.8000488281</ele>
        <time>2024-07-14T08:56:36.000Z</time>
      </trkpt>
      <trkpt lat="45.03071" lon="5.49547">
        <ele>1332.8000488281</ele>
        <time>2024-07-14T08:56:37.000Z</time>
      </trkpt>
      <trkpt lat="45.03073" lon="5.49547">
        <ele>1333</ele>
        <time>2024-07-14T08:56:38.000Z</time>
      </trkpt>
      <trkpt lat="45.03075" lon="5.49547">
        <ele>1333</ele>
        <time>2024-07-14T08:56:39.000Z</time>
      </trkpt>
      <trkpt lat="45.03077" lon="5.49546">
        <ele>1333.1999511719</ele>
        <time>2024-07-14T08:56:40.000Z</time>
      </trkpt>
      <trkpt lat="45.03078" lon="5.49545">
        <ele>1333.1999511719</ele>
        <time>2024-07-14T08:56:41.000Z</time>
      </trkpt>
      <trkpt lat="45.0308" lon="5.49544">
        <ele>1333.4000244141</ele>
        <time>2024-07-14T08:56:42.000Z</time>
      </trkpt>
      <trkpt lat="45.03082" lon="5.49543">
        <ele>1333.4000244141</ele>
        <time>2024-07-14T08:56:43.000Z</time>
      </trkpt>
      <trkpt lat="45.03084" lon="5.49542">
        <ele>1333.5999755859</ele>
        <time>2024-07-14T08:56:44.000Z</time>
      </trkpt>
      <trkpt lat="45.03086" lon="5.49541">
        <ele>1333.5999755859</ele>
        <time>2024-07-14T08:56:45.000Z</time>
      </trkpt>
      <trkpt lat="45.03089" lon="5.4954">
        <ele>1333.5999755859</ele>
        <time>2024-07-14T08:56:46.000Z</time>
      </trkpt>
      <trkpt lat="45.03091" lon="5.49539">
        <ele>1333.8000488281</ele>
        <time>2024-07-14T08:56:47.000Z</time>
      </trkpt>
      <trkpt lat="45.03094" lon="5.49538">
        <ele>1334</ele>
        <time>2024-07-14T08:56:48.000Z</time>
      </trkpt>
      <trkpt lat="45.03096" lon="5.49537">
        <ele>1334.1999511719</ele>
        <time>2024-07-14T08:56:49.000Z</time>
      </trkpt>
      <trkpt lat="45.03098" lon="5.49536">
        <ele>1334.4000244141</ele>
        <time>2024-07-14T08:56:50.000Z</time>
      </trkpt>
      <trkpt lat="45.03099" lon="5.49535">
        <ele>1334.8000488281</ele>
        <time>2024-07-14T08:56:51.000Z</time>
      </trkpt>
      <trkpt lat="45.03101" lon="5.49535">
        <ele>1335</ele>
        <time>2024-07-14T08:56:52.000Z</time>
      </trkpt>
      <trkpt lat="45.03103" lon="5.49534">
        <ele>1335.1999511719</ele>
        <time>2024-07-14T08:56:53.000Z</time>
      </trkpt>
      <trkpt lat="45.03105" lon="5.49533">
        <ele>1335.4000244141</ele>
        <time>2024-07-14T08:56:54.000Z</time>
      </trkpt>
      <trkpt lat="45.03107" lon="5.49532">
        <ele>1335.5999755859</ele>
        <time>2024-07-14T08:56:55.000Z</time>
      </trkpt>
      <trkpt lat="45.03108" lon="5.49531">
        <ele>1335.8000488281</ele>
        <time>2024-07-14T08:56:56.000Z</time>
      </trkpt>
      <trkpt lat="45.0311" lon="5.4953">
        <ele>1336</ele>
        <time>2024-07-14T08:56:57.000Z</time>
      </trkpt>
      <trkpt lat="45.03111" lon="5.4953">
        <ele>1336</ele>
        <time>2024-07-14T08:56:58.000Z</time>
      </trkpt>
      <trkpt lat="45.03113" lon="5.4953">
        <ele>1336</ele>
        <time>2024-07-14T08:56:59.000Z</time>
      </trkpt>
      <trkpt lat="45.03115" lon="5.49529">
        <ele>1336</ele>
        <time>2024-07-14T08:57:00.000Z</time>
      </trkpt>
      <trkpt lat="45.03117" lon="5.49529">
        <ele>1336</ele>
        <time>2024-07-14T08:57:01.000Z</time>
      </trkpt>
      <trkpt lat="45.03119" lon="5.49528">
        <ele>1335.8000488281</ele>
        <time>2024-07-14T08:57:02.000Z</time>
      </trkpt>
      <trkpt lat="45.03121" lon="5.49528">
        <ele>1335.8000488281</ele>
        <time>2024-07-14T08:57:03.000Z</time>
      </trkpt>
      <trkpt lat="45.03124" lon="5.49528">
        <ele>1335.5999755859</ele>
        <time>2024-07-14T08:57:04.000Z</time>
      </trkpt>
      <trkpt lat="45.03126" lon="5.49528">
        <ele>1335.4000244141</ele>
        <time>2024-07-14T08:57:05.000Z</time>
      </trkpt>
      <trkpt lat="45.03128" lon="5.49528">
        <ele>1335</ele>
        <time>2024-07-14T08:57:06.000Z</time>
      </trkpt>
      <trkpt lat="45.03131" lon="5.49529">
        <ele>1334.5999755859</ele>
        <time>2024-07-14T08:57:07.000Z</time>
      </trkpt>
      <trkpt lat="45.03134" lon="5.4953">
        <ele>1334.5999755859</ele>
        <time>2024-07-14T08:57:08.000Z</time>
      </trkpt>
      <trkpt lat="45.03137" lon="5.49531">
        <ele>1334.4000244141</ele>
        <time>2024-07-14T08:57:09.000Z</time>
      </trkpt>
      <trkpt lat="45.0314" lon="5.49532">
        <ele>1334.1999511719</ele>
        <time>2024-07-14T08:57:10.000Z</time>
      </trkpt>
      <trkpt lat="45.03143" lon="5.49534">
        <ele>1334</ele>
        <time>2024-07-14T08:57:11.000Z</time>
      </trkpt>
      <trkpt lat="45.03146" lon="5.49536">
        <ele>1333.5999755859</ele>
        <time>2024-07-14T08:57:12.000Z</time>
      </trkpt>
      <trkpt lat="45.03149" lon="5.49539">
        <ele>1333.1999511719</ele>
        <time>2024-07-14T08:57:13.000Z</time>
      </trkpt>
      <trkpt lat="45.03151" lon="5.49541">
        <ele>1332.8000488281</ele>
        <time>2024-07-14T08:57:14.000Z</time>
      </trkpt>
      <trkpt lat="45.03154" lon="5.49544">
        <ele>1332.8000488281</ele>
        <time>2024-07-14T08:57:15.000Z</time>
      </trkpt>
      <trkpt lat="45.03156" lon="5.49547">
        <ele>1332.8000488281</ele>
        <time>2024-07-14T08:57:16.000Z</time>
      </trkpt>
      <trkpt lat="45.03157" lon="5.49549">
        <ele>1332.5999755859</ele>
        <time>2024-07-14T08:57:17.000Z</time>
      </trkpt>
      <trkpt lat="45.0316" lon="5.49551">
        <ele>1332.5999755859</ele>
        <time>2024-07-14T08:57:18.000Z</time>
      </trkpt>
      <trkpt lat="45.03162" lon="5.49554">
        <ele>1332.5999755859</ele>
        <time>2024-07-14T08:57:19.000Z</time>
      </trkpt>
      <trkpt lat="45.03164" lon="5.49557">
        <ele>1332.4000244141</ele>
        <time>2024-07-14T08:57:20.000Z</time>
      </trkpt>
      <trkpt lat="45.03166" lon="5.4956">
        <ele>1332.4000244141</ele>
        <time>2024-07-14T08:57:21.000Z</time>
      </trkpt>
      <trkpt lat="45.03168" lon="5.49563">
        <ele>1332.4000244141</ele>
        <time>2024-07-14T08:57:22.000Z</time>
      </trkpt>
      <trkpt lat="45.0317" lon="5.49566">
        <ele>1332.4000244141</ele>
        <time>2024-07-14T08:57:23.000Z</time>
      </trkpt>
      <trkpt lat="45.03172" lon="5.49568">
        <ele>1332.1999511719</ele>
        <time>2024-07-14T08:57:24.000Z</time>
      </trkpt>
      <trkpt lat="45.03173" lon="5.49571">
        <ele>1332.1999511719</ele>
        <time>2024-07-14T08:57:25.000Z</time>
      </trkpt>
      <trkpt lat="45.03175" lon="5.49574">
        <ele>1332.1999511719</ele>
        <time>2024-07-14T08:57:26.000Z</time>
      </trkpt>
      <trkpt lat="45.03177" lon="5.49576">
        <ele>1332</ele>
        <time>2024-07-14T08:57:27.000Z</time>
      </trkpt>
      <trkpt lat="45.03178" lon="5.49578">
        <ele>1332</ele>
        <time>2024-07-14T08:57:28.000Z</time>
      </trkpt>
      <trkpt lat="45.0318" lon="5.49581">
        <ele>1332</ele>
        <time>2024-07-14T08:57:29.000Z</time>
      </trkpt>
      <trkpt lat="45.03181" lon="5.49583">
        <ele>1332</ele>
        <time>2024-07-14T08:57:30.000Z</time>
      </trkpt>
      <trkpt lat="45.03182" lon="5.49585">
        <ele>1331.8000488281</ele>
        <time>2024-07-14T08:57:31.000Z</time>
      </trkpt>
      <trkpt lat="45.03184" lon="5.49587">
        <ele>1331.4000244141</ele>
        <time>2024-07-14T08:57:32.000Z</time>
      </trkpt>
      <trkpt lat="45.03186" lon="5.4959">
        <ele>1331.1999511719</ele>
        <time>2024-07-14T08:57:33.000Z</time>
      </trkpt>
      <trkpt lat="45.03187" lon="5.49592">
        <ele>1331</ele>
        <time>2024-07-14T08:57:34.000Z</time>
      </trkpt>
      <trkpt lat="45.03189" lon="5.49594">
        <ele>1330.8000488281</ele>
        <time>2024-07-14T08:57:35.000Z</time>
      </trkpt>
      <trkpt lat="45.03191" lon="5.49596">
        <ele>1330.8000488281</ele>
        <time>2024-07-14T08:57:36.000Z</time>
      </trkpt>
      <trkpt lat="45.03193" lon="5.49597">
        <ele>1330.4000244141</ele>
        <time>2024-07-14T08:57:37.000Z</time>
      </trkpt>
      <trkpt lat="45.03196" lon="5.49598">
        <ele>1330.1999511719</ele>
        <time>2024-07-14T08:57:38.000Z</time>
      </trkpt>
      <trkpt lat="45.03198" lon="5.49598">
        <ele>1329.8000488281</ele>
        <time>2024-07-14T08:57:39.000Z</time>
      </trkpt>
      <trkpt lat="45.03201" lon="5.49599">
        <ele>1329.5999755859</ele>
        <time>2024-07-14T08:57:40.000Z</time>
      </trkpt>
      <trkpt lat="45.03203" lon="5.496">
        <ele>1329.4000244141</ele>
        <time>2024-07-14T08:57:41.000Z</time>
      </trkpt>
      <trkpt lat="45.03206" lon="5.49599">
        <ele>1329.4000244141</ele>
        <time>2024-07-14T08:57:42.000Z</time>
      </trkpt>
      <trkpt lat="45.03208" lon="5.49599">
        <ele>1329.1999511719</ele>
        <time>2024-07-14T08:57:43.000Z</time>
      </trkpt>
      <trkpt lat="45.03211" lon="5.49599">
        <ele>1329</ele>
        <time>2024-07-14T08:57:44.000Z</time>
      </trkpt>
      <trkpt lat="45.03213" lon="5.49599">
        <ele>1329</ele>
        <time>2024-07-14T08:57:45.000Z</time>
      </trkpt>
      <trkpt lat="45.03216" lon="5.49599">
        <ele>1329</ele>
        <time>2024-07-14T08:57:46.000Z</time>
      </trkpt>
      <trkpt lat="45.03219" lon="5.49598">
        <ele>1329</ele>
        <time>2024-07-14T08:57:47.000Z</time>
      </trkpt>
      <trkpt lat="45.03222" lon="5.49598">
        <ele>1329.1999511719</ele>
        <time>2024-07-14T08:57:48.000Z</time>
      </trkpt>
      <trkpt lat="45.03225" lon="5.49598">
        <ele>1329.1999511719</ele>
        <time>2024-07-14T08:57:49.000Z</time>
      </trkpt>
      <trkpt lat="45.03228" lon="5.49598">
        <ele>1329.1999511719</ele>
        <time>2024-07-14T08:57:50.000Z</time>
      </trkpt>
      <trkpt lat="45.03231" lon="5.49599">
        <ele>1329.1999511719</ele>
        <time>2024-07-14T08:57:51.000Z</time>
      </trkpt>
      <trkpt lat="45.03234" lon="5.49599">
        <ele>1329.1999511719</ele>
        <time>2024-07-14T08:57:52.000Z</time>
      </trkpt>
      <trkpt lat="45.03236" lon="5.49599">
        <ele>1329.1999511719</ele>
        <time>2024-07-14T08:57:53.000Z</time>
      </trkpt>
      <trkpt lat="45.03239" lon="5.49599">
        <ele>1329.1999511719</ele>
        <time>2024-07-14T08:57:54.000Z</time>
      </trkpt>
      <trkpt lat="45.03242" lon="5.496">
        <ele>1329.1999511719</ele>
        <time>2024-07-14T08:57:55.000Z</time>
      </trkpt>
      <trkpt lat="45.03245" lon="5.49601">
        <ele>1329.1999511719</ele>
        <time>2024-07-14T08:57:56.000Z</time>
      </trkpt>
      <trkpt lat="45.03247" lon="5.49602">
        <ele>1329</ele>
        <time>2024-07-14T08:57:57.000Z</time>
      </trkpt>
      <trkpt lat="45.0325" lon="5.49603">
        <ele>1328.8000488281</ele>
        <time>2024-07-14T08:57:58.000Z</time>
      </trkpt>
      <trkpt lat="45.03253" lon="5.49605">
        <ele>1328.5999755859</ele>
        <time>2024-07-14T08:57:59.000Z</time>
      </trkpt>
      <trkpt lat="45.03255" lon="5.49607">
        <ele>1328.5999755859</ele>
        <time>2024-07-14T08:58:00.000Z</time>
      </trkpt>
      <trkpt lat="45.03258" lon="5.49609">
        <ele>1328.4000244141</ele>
        <time>2024-07-14T08:58:01.000Z</time>
      </trkpt>
      <trkpt lat="45.0326" lon="5.49611">
        <ele>1328.1999511719</ele>
        <time>2024-07-14T08:58:02.000Z</time>
      </trkpt>
      <trkpt lat="45.03263" lon="5.49613">
        <ele>1328</ele>
        <time>2024-07-14T08:58:03.000Z</time>
      </trkpt>
      <trkpt lat="45.03266" lon="5.49615">
        <ele>1327.5999755859</ele>
        <time>2024-07-14T08:58:04.000Z</time>
      </trkpt>
      <trkpt lat="45.03269" lon="5.49618">
        <ele>1327.1999511719</ele>
        <time>2024-07-14T08:58:05.000Z</time>
      </trkpt>
      <trkpt lat="45.03272" lon="5.4962">
        <ele>1327</ele>
        <time>2024-07-14T08:58:06.000Z</time>
      </trkpt>
      <trkpt lat="45.03274" lon="5.49622">
        <ele>1327</ele>
        <time>2024-07-14T08:58:07.000Z</time>
      </trkpt>
      <trkpt lat="45.03276" lon="5.49624">
        <ele>1326.5999755859</ele>
        <time>2024-07-14T08:58:08.000Z</time>
      </trkpt>
      <trkpt lat="45.03278" lon="5.49626">
        <ele>1326.4000244141</ele>
        <time>2024-07-14T08:58:09.000Z</time>
      </trkpt>
      <trkpt lat="45.03281" lon="5.49627">
        <ele>1326.4000244141</ele>
        <time>2024-07-14T08:58:10.000Z</time>
      </trkpt>
      <trkpt lat="45.03283" lon="5.49629">
        <ele>1326.1999511719</ele>
        <time>2024-07-14T08:58:11.000Z</time>
      </trkpt>
      <trkpt lat="45.03285" lon="5.4963">
        <ele>1326.1999511719</ele>
        <time>2024-07-14T08:58:12.000Z</time>
      </trkpt>
      <trkpt lat="45.03288" lon="5.49632">
        <ele>1326.1999511719</ele>
        <time>2024-07-14T08:58:13.000Z</time>
      </trkpt>
      <trkpt lat="45.0329" lon="5.49634">
        <ele>1326.1999511719</ele>
        <time>2024-07-14T08:58:14.000Z</time>
      </trkpt>
      <trkpt lat="45.03292" lon="5.49635">
        <ele>1326.1999511719</ele>
        <time>2024-07-14T08:58:15.000Z</time>
      </trkpt>
      <trkpt lat="45.03295" lon="5.49637">
        <ele>1326.1999511719</ele>
        <time>2024-07-14T08:58:16.000Z</time>
      </trkpt>
      <trkpt lat="45.03297" lon="5.49639">
        <ele>1326.1999511719</ele>
        <time>2024-07-14T08:58:17.000Z</time>
      </trkpt>
      <trkpt lat="45.033" lon="5.49641">
        <ele>1326.1999511719</ele>
        <time>2024-07-14T08:58:18.000Z</time>
      </trkpt>
      <trkpt lat="45.03302" lon="5.49644">
        <ele>1326.4000244141</ele>
        <time>2024-07-14T08:58:19.000Z</time>
      </trkpt>
      <trkpt lat="45.03305" lon="5.49645">
        <ele>1326.4000244141</ele>
        <time>2024-07-14T08:58:20.000Z</time>
      </trkpt>
      <trkpt lat="45.03308" lon="5.49647">
        <ele>1326.5999755859</ele>
        <time>2024-07-14T08:58:21.000Z</time>
      </trkpt>
      <trkpt lat="45.0331" lon="5.49648">
        <ele>1326.5999755859</ele>
        <time>2024-07-14T08:58:22.000Z</time>
      </trkpt>
      <trkpt lat="45.03313" lon="5.49649">
        <ele>1326.5999755859</ele>
        <time>2024-07-14T08:58:23.000Z</time>
      </trkpt>
      <trkpt lat="45.03315" lon="5.49649">
        <ele>1326.8000488281</ele>
        <time>2024-07-14T08:58:24.000Z</time>
      </trkpt>
      <trkpt lat="45.03318" lon="5.4965">
        <ele>1326.8000488281</ele>
        <time>2024-07-14T08:58:25.000Z</time>
      </trkpt>
      <trkpt lat="45.03321" lon="5.49649">
        <ele>1326.8000488281</ele>
        <time>2024-07-14T08:58:26.000Z</time>
      </trkpt>
      <trkpt lat="45.03323" lon="5.49649">
        <ele>1326.8000488281</ele>
        <time>2024-07-14T08:58:27.000Z</time>
      </trkpt>
      <trkpt lat="45.03326" lon="5.49649">
        <ele>1327</ele>
        <time>2024-07-14T08:58:28.000Z</time>
      </trkpt>
      <trkpt lat="45.03328" lon="5.49648">
        <ele>1327</ele>
        <time>2024-07-14T08:58:29.000Z</time>
      </trkpt>
      <trkpt lat="45.03331" lon="5.49646">
        <ele>1327.1999511719</ele>
        <time>2024-07-14T08:58:30.000Z</time>
      </trkpt>
      <trkpt lat="45.03333" lon="5.49645">
        <ele>1327.1999511719</ele>
        <time>2024-07-14T08:58:31.000Z</time>
      </trkpt>
      <trkpt lat="45.03335" lon="5.49644">
        <ele>1327.1999511719</ele>
        <time>2024-07-14T08:58:32.000Z</time>
      </trkpt>
      <trkpt lat="45.03338" lon="5.49643">
        <ele>1327</ele>
        <time>2024-07-14T08:58:33.000Z</time>
      </trkpt>
      <trkpt lat="45.03341" lon="5.49641">
        <ele>1326.5999755859</ele>
        <time>2024-07-14T08:58:34.000Z</time>
      </trkpt>
      <trkpt lat="45.03344" lon="5.4964">
        <ele>1326.1999511719</ele>
        <time>2024-07-14T08:58:35.000Z</time>
      </trkpt>
      <trkpt lat="45.03347" lon="5.49639">
        <ele>1326</ele>
        <time>2024-07-14T08:58:36.000Z</time>
      </trkpt>
      <trkpt lat="45.0335" lon="5.49637">
        <ele>1325.8000488281</ele>
        <time>2024-07-14T08:58:37.000Z</time>
      </trkpt>
      <trkpt lat="45.03352" lon="5.49636">
        <ele>1325.1999511719</ele>
        <time>2024-07-14T08:58:38.000Z</time>
      </trkpt>
      <trkpt lat="45.03354" lon="5.49634">
        <ele>1325</ele>
        <time>2024-07-14T08:58:39.000Z</time>
      </trkpt>
      <trkpt lat="45.03357" lon="5.49633">
        <ele>1324.5999755859</ele>
        <time>2024-07-14T08:58:40.000Z</time>
      </trkpt>
      <trkpt lat="45.0336" lon="5.49632">
        <ele>1324.4000244141</ele>
        <time>2024-07-14T08:58:41.000Z</time>
      </trkpt>
      <trkpt lat="45.03363" lon="5.49631">
        <ele>1324.1999511719</ele>
        <time>2024-07-14T08:58:42.000Z</time>
      </trkpt>
      <trkpt lat="45.03365" lon="5.4963">
        <ele>1324.1999511719</ele>
        <time>2024-07-14T08:58:43.000Z</time>
      </trkpt>
      <trkpt lat="45.03368" lon="5.49629">
        <ele>1324</ele>
        <time>2024-07-14T08:58:44.000Z</time>
      </trkpt>
      <trkpt lat="45.03371" lon="5.49629">
        <ele>1324</ele>
        <time>2024-07-14T08:58:45.000Z</time>
      </trkpt>
      <trkpt lat="45.03373" lon="5.49629">
        <ele>1323.8000488281</ele>
        <time>2024-07-14T08:58:46.000Z</time>
      </trkpt>
      <trkpt lat="45.03376" lon="5.49628">
        <ele>1323.8000488281</ele>
        <time>2024-07-14T08:58:47.000Z</time>
      </trkpt>
      <trkpt lat="45.03379" lon="5.49628">
        <ele>1323.8000488281</ele>
        <time>2024-07-14T08:58:48.000Z</time>
      </trkpt>
      <trkpt lat="45.03382" lon="5.49629">
        <ele>1323.5999755859</ele>
        <time>2024-07-14T08:58:49.000Z</time>
      </trkpt>
      <trkpt lat="45.03385" lon="5.4963">
        <ele>1323.5999755859</ele>
        <time>2024-07-14T08:58:50.000Z</time>
      </trkpt>
      <trkpt lat="45.03388" lon="5.49631">
        <ele>1323.1999511719</ele>
        <time>2024-07-14T08:58:51.000Z</time>
      </trkpt>
      <trkpt lat="45.03392" lon="5.49633">
        <ele>1323</ele>
        <time>2024-07-14T08:58:52.000Z</time>
      </trkpt>
      <trkpt lat="45.03395" lon="5.49634">
        <ele>1322.4000244141</ele>
        <time>2024-07-14T08:58:53.000Z</time>
      </trkpt>
      <trkpt lat="45.03397" lon="5.49636">
        <ele>1322.4000244141</ele>
        <time>2024-07-14T08:58:54.000Z</time>
      </trkpt>
      <trkpt lat="45.034" lon="5.49638">
        <ele>1322</ele>
        <time>2024-07-14T08:58:55.000Z</time>
      </trkpt>
      <trkpt lat="45.03402" lon="5.4964">
        <ele>1321.5999755859</ele>
        <time>2024-07-14T08:58:56.000Z</time>
      </trkpt>
      <trkpt lat="45.03405" lon="5.49642">
        <ele>1321.1999511719</ele>
        <time>2024-07-14T08:58:57.000Z</time>
      </trkpt>
      <trkpt lat="45.03407" lon="5.49644">
        <ele>1321.1999511719</ele>
        <time>2024-07-14T08:58:58.000Z</time>
      </trkpt>
      <trkpt lat="45.03409" lon="5.49646">
        <ele>1321</ele>
        <time>2024-07-14T08:58:59.000Z</time>
      </trkpt>
      <trkpt lat="45.03411" lon="5.49648">
        <ele>1320.5999755859</ele>
        <time>2024-07-14T08:59:00.000Z</time>
      </trkpt>
      <trkpt lat="45.03414" lon="5.4965">
        <ele>1320.4000244141</ele>
        <time>2024-07-14T08:59:01.000Z</time>
      </trkpt>
      <trkpt lat="45.03416" lon="5.49652">
        <ele>1320</ele>
        <time>2024-07-14T08:59:02.000Z</time>
      </trkpt>
      <trkpt lat="45.03419" lon="5.49654">
        <ele>1319.5999755859</ele>
        <time>2024-07-14T08:59:03.000Z</time>
      </trkpt>
      <trkpt lat="45.03421" lon="5.49657">
        <ele>1319.4000244141</ele>
        <time>2024-07-14T08:59:04.000Z</time>
      </trkpt>
      <trkpt lat="45.03423" lon="5.49659">
        <ele>1319</ele>
        <time>2024-07-14T08:59:05.000Z</time>
      </trkpt>
      <trkpt lat="45.03425" lon="5.49662">
        <ele>1318.8000488281</ele>
        <time>2024-07-14T08:59:06.000Z</time>
      </trkpt>
      <trkpt lat="45.03427" lon="5.49665">
        <ele>1318.4000244141</ele>
        <time>2024-07-14T08:59:07.000Z</time>
      </trkpt>
      <trkpt lat="45.03428" lon="5.4967">
        <ele>1318.4000244141</ele>
        <time>2024-07-14T08:59:08.000Z</time>
      </trkpt>
      <trkpt lat="45.03429" lon="5.49674">
        <ele>1318</ele>
        <time>2024-07-14T08:59:09.000Z</time>
      </trkpt>
      <trkpt lat="45.03429" lon="5.49678">
        <ele>1317.5999755859</ele>
        <time>2024-07-14T08:59:10.000Z</time>
      </trkpt>
      <trkpt lat="45.03429" lon="5.49683">
        <ele>1317.4000244141</ele>
        <time>2024-07-14T08:59:11.000Z</time>
      </trkpt>
      <trkpt lat="45.03429" lon="5.49687">
        <ele>1317</ele>
        <time>2024-07-14T08:59:12.000Z</time>
      </trkpt>
      <trkpt lat="45.03428" lon="5.49691">
        <ele>1316.5999755859</ele>
        <time>2024-07-14T08:59:13.000Z</time>
      </trkpt>
      <trkpt lat="45.03427" lon="5.49694">
        <ele>1316</ele>
        <time>2024-07-14T08:59:14.000Z</time>
      </trkpt>
      <trkpt lat="45.03425" lon="5.49698">
        <ele>1316</ele>
        <time>2024-07-14T08:59:15.000Z</time>
      </trkpt>
      <trkpt lat="45.03424" lon="5.49702">
        <ele>1315.4000244141</ele>
        <time>2024-07-14T08:59:16.000Z</time>
      </trkpt>
      <trkpt lat="45.03423" lon="5.49706">
        <ele>1315.1999511719</ele>
        <time>2024-07-14T08:59:17.000Z</time>
      </trkpt>
      <trkpt lat="45.03421" lon="5.4971">
        <ele>1314.8000488281</ele>
        <time>2024-07-14T08:59:18.000Z</time>
      </trkpt>
      <trkpt lat="45.0342" lon="5.49713">
        <ele>1314.4000244141</ele>
        <time>2024-07-14T08:59:19.000Z</time>
      </trkpt>
      <trkpt lat="45.03419" lon="5.49717">
        <ele>1314.1999511719</ele>
        <time>2024-07-14T08:59:20.000Z</time>
      </trkpt>
      <trkpt lat="45.03418" lon="5.49721">
        <ele>1313.8000488281</ele>
        <time>2024-07-14T08:59:21.000Z</time>
      </trkpt>
      <trkpt lat="45.03417" lon="5.49725">
        <ele>1313.5999755859</ele>
        <time>2024-07-14T08:59:22.000Z</time>
      </trkpt>
      <trkpt lat="45.03416" lon="5.49729">
        <ele>1313.1999511719</ele>
        <time>2024-07-14T08:59:23.000Z</time>
      </trkpt>
      <trkpt lat="45.03415" lon="5.49733">
        <ele>1313</ele>
        <time>2024-07-14T08:59:24.000Z</time>
      </trkpt>
      <trkpt lat="45.03414" lon="5.49737">
        <ele>1312.5999755859</ele>
        <time>2024-07-14T08:59:25.000Z</time>
      </trkpt>
      <trkpt lat="45.03413" lon="5.49741">
        <ele>1312.4000244141</ele>
        <time>2024-07-14T08:59:26.000Z</time>
      </trkpt>
      <trkpt lat="45.03413" lon="5.49745">
        <ele>1312.1999511719</ele>
        <time>2024-07-14T08:59:27.000Z</time>
      </trkpt>
      <trkpt lat="45.03412" lon="5.49748">
        <ele>1312</ele>
        <time>2024-07-14T08:59:28.000Z</time>
      </trkpt>
      <trkpt lat="45.03412" lon="5.49752">
        <ele>1311.8000488281</ele>
        <time>2024-07-14T08:59:29.000Z</time>
      </trkpt>
      <trkpt lat="45.03411" lon="5.49757">
        <ele>1311.5999755859</ele>
        <time>2024-07-14T08:59:30.000Z</time>
      </trkpt>
      <trkpt lat="45.03411" lon="5.49761">
        <ele>1311.5999755859</ele>
        <time>2024-07-14T08:59:31.000Z</time>
      </trkpt>
      <trkpt lat="45.0341" lon="5.49764">
        <ele>1311.4000244141</ele>
        <time>2024-07-14T08:59:32.000Z</time>
      </trkpt>
      <trkpt lat="45.03411" lon="5.49769">
        <ele>1311.1999511719</ele>
        <time>2024-07-14T08:59:33.000Z</time>
      </trkpt>
      <trkpt lat="45.03411" lon="5.49772">
        <ele>1311.1999511719</ele>
        <time>2024-07-14T08:59:34.000Z</time>
      </trkpt>
      <trkpt lat="45.03411" lon="5.49776">
        <ele>1311.1999511719</ele>
        <time>2024-07-14T08:59:35.000Z</time>
      </trkpt>
      <trkpt lat="45.03411" lon="5.49779">
        <ele>1311.1999511719</ele>
        <time>2024-07-14T08:59:36.000Z</time>
      </trkpt>
      <trkpt lat="45.03411" lon="5.49782">
        <ele>1311</ele>
        <time>2024-07-14T08:59:37.000Z</time>
      </trkpt>
      <trkpt lat="45.03412" lon="5.49786">
        <ele>1311</ele>
        <time>2024-07-14T08:59:38.000Z</time>
      </trkpt>
      <trkpt lat="45.03413" lon="5.49789">
        <ele>1310.8000488281</ele>
        <time>2024-07-14T08:59:39.000Z</time>
      </trkpt>
      <trkpt lat="45.03413" lon="5.49793">
        <ele>1310.4000244141</ele>
        <time>2024-07-14T08:59:40.000Z</time>
      </trkpt>
      <trkpt lat="45.03414" lon="5.49797">
        <ele>1310.1999511719</ele>
        <time>2024-07-14T08:59:41.000Z</time>
      </trkpt>
      <trkpt lat="45.03415" lon="5.49799">
        <ele>1310</ele>
        <time>2024-07-14T08:59:42.000Z</time>
      </trkpt>
      <trkpt lat="45.03417" lon="5.49803">
        <ele>1309.8000488281</ele>
        <time>2024-07-14T08:59:43.000Z</time>
      </trkpt>
      <trkpt lat="45.03418" lon="5.49806">
        <ele>1309.4000244141</ele>
        <time>2024-07-14T08:59:44.000Z</time>
      </trkpt>
      <trkpt lat="45.03421" lon="5.4981">
        <ele>1309.4000244141</ele>
        <time>2024-07-14T08:59:45.000Z</time>
      </trkpt>
      <trkpt lat="45.03423" lon="5.49813">
        <ele>1309.1999511719</ele>
        <time>2024-07-14T08:59:46.000Z</time>
      </trkpt>
      <trkpt lat="45.03425" lon="5.49816">
        <ele>1308.5999755859</ele>
        <time>2024-07-14T08:59:47.000Z</time>
      </trkpt>
      <trkpt lat="45.03427" lon="5.4982">
        <ele>1308.4000244141</ele>
        <time>2024-07-14T08:59:48.000Z</time>
      </trkpt>
      <trkpt lat="45.03429" lon="5.49823">
        <ele>1308.1999511719</ele>
        <time>2024-07-14T08:59:49.000Z</time>
      </trkpt>
      <trkpt lat="45.03432" lon="5.49826">
        <ele>1308</ele>
        <time>2024-07-14T08:59:50.000Z</time>
      </trkpt>
      <trkpt lat="45.03434" lon="5.49828">
        <ele>1307.8000488281</ele>
        <time>2024-07-14T08:59:51.000Z</time>
      </trkpt>
      <trkpt lat="45.03436" lon="5.49831">
        <ele>1307.5999755859</ele>
        <time>2024-07-14T08:59:52.000Z</time>
      </trkpt>
      <trkpt lat="45.03438" lon="5.49834">
        <ele>1307.4000244141</ele>
        <time>2024-07-14T08:59:53.000Z</time>
      </trkpt>
      <trkpt lat="45.0344" lon="5.49836">
        <ele>1307.4000244141</ele>
        <time>2024-07-14T08:59:54.000Z</time>
      </trkpt>
      <trkpt lat="45.03442" lon="5.4984">
        <ele>1307.1999511719</ele>
        <time>2024-07-14T08:59:55.000Z</time>
      </trkpt>
      <trkpt lat="45.03445" lon="5.49843">
        <ele>1307.1999511719</ele>
        <time>2024-07-14T08:59:56.000Z</time>
      </trkpt>
      <trkpt lat="45.03447" lon="5.49846">
        <ele>1307</ele>
        <time>2024-07-14T08:59:57.000Z</time>
      </trkpt>
      <trkpt lat="45.03449" lon="5.49849">
        <ele>1307</ele>
        <time>2024-07-14T08:59:58.000Z</time>
      </trkpt>
      <trkpt lat="45.0345" lon="5.49852">
        <ele>1306.8000488281</ele>
        <time>2024-07-14T08:59:59.000Z</time>
      </trkpt>
      <trkpt lat="45.03452" lon="5.49855">
        <ele>1306.8000488281</ele>
        <time>2024-07-14T09:00:00.000Z</time>
      </trkpt>
      <trkpt lat="45.03453" lon="5.49858">
        <ele>1306.8000488281</ele>
        <time>2024-07-14T09:00:01.000Z</time>
      </trkpt>
      <trkpt lat="45.03455" lon="5.49861">
        <ele>1306.8000488281</ele>
        <time>2024-07-14T09:00:02.000Z</time>
      </trkpt>
      <trkpt lat="45.03456" lon="5.49864">
        <ele>1306.8000488281</ele>
        <time>2024-07-14T09:00:03.000Z</time>
      </trkpt>
      <trkpt lat="45.03458" lon="5.49867">
        <ele>1306.8000488281</ele>
        <time>2024-07-14T09:00:04.000Z</time>
      </trkpt>
      <trkpt lat="45.03459" lon="5.4987">
        <ele>1306.8000488281</ele>
        <time>2024-07-14T09:00:05.000Z</time>
      </trkpt>
      <trkpt lat="45.03461" lon="5.49874">
        <ele>1306.8000488281</ele>
        <time>2024-07-14T09:00:06.000Z</time>
      </trkpt>
      <trkpt lat="45.03463" lon="5.49876">
        <ele>1306.8000488281</ele>
        <time>2024-07-14T09:00:07.000Z</time>
      </trkpt>
      <trkpt lat="45.03465" lon="5.49879">
        <ele>1306.8000488281</ele>
        <time>2024-07-14T09:00:08.000Z</time>
      </trkpt>
      <trkpt lat="45.03466" lon="5.49882">
        <ele>1306.8000488281</ele>
        <time>2024-07-14T09:00:09.000Z</time>
      </trkpt>
      <trkpt lat="45.03468" lon="5.49884">
        <ele>1306.8000488281</ele>
        <time>2024-07-14T09:00:10.000Z</time>
      </trkpt>
      <trkpt lat="45.0347" lon="5.49888">
        <ele>1306.8000488281</ele>
        <time>2024-07-14T09:00:11.000Z</time>
      </trkpt>
      <trkpt lat="45.03471" lon="5.4989">
        <ele>1306.8000488281</ele>
        <time>2024-07-14T09:00:12.000Z</time>
      </trkpt>
      <trkpt lat="45.03472" lon="5.49893">
        <ele>1306.8000488281</ele>
        <time>2024-07-14T09:00:13.000Z</time>
      </trkpt>
      <trkpt lat="45.03474" lon="5.49896">
        <ele>1306.8000488281</ele>
        <time>2024-07-14T09:00:14.000Z</time>
      </trkpt>
      <trkpt lat="45.03475" lon="5.49898">
        <ele>1307</ele>
        <time>2024-07-14T09:00:15.000Z</time>
      </trkpt>
      <trkpt lat="45.03477" lon="5.49901">
        <ele>1307</ele>
        <time>2024-07-14T09:00:16.000Z</time>
      </trkpt>
      <trkpt lat="45.03477" lon="5.49904">
        <ele>1307</ele>
        <time>2024-07-14T09:00:17.000Z</time>
      </trkpt>
      <trkpt lat="45.03479" lon="5.49907">
        <ele>1307.1999511719</ele>
        <time>2024-07-14T09:00:18.000Z</time>
      </trkpt>
      <trkpt lat="45.0348" lon="5.4991">
        <ele>1307.4000244141</ele>
        <time>2024-07-14T09:00:19.000Z</time>
      </trkpt>
      <trkpt lat="45.03481" lon="5.49913">
        <ele>1307.5999755859</ele>
        <time>2024-07-14T09:00:20.000Z</time>
      </trkpt>
      <trkpt lat="45.03482" lon="5.49916">
        <ele>1308</ele>
        <time>2024-07-14T09:00:21.000Z</time>
      </trkpt>
      <trkpt lat="45.03483" lon="5.49919">
        <ele>1308</ele>
        <time>2024-07-14T09:00:22.000Z</time>
      </trkpt>
      <trkpt lat="45.03483" lon="5.49922">
        <ele>1308.1999511719</ele>
        <time>2024-07-14T09:00:23.000Z</time>
      </trkpt>
      <trkpt lat="45.03484" lon="5.49925">
        <ele>1308.1999511719</ele>
        <time>2024-07-14T09:00:24.000Z</time>
      </trkpt>
      <trkpt lat="45.03484" lon="5.49929">
        <ele>1308.1999511719</ele>
        <time>2024-07-14T09:00:25.000Z</time>
      </trkpt>
      <trkpt lat="45.03484" lon="5.49932">
        <ele>1308.1999511719</ele>
        <time>2024-07-14T09:00:26.000Z</time>
      </trkpt>
      <trkpt lat="45.03485" lon="5.49936">
        <ele>1308.4000244141</ele>
        <time>2024-07-14T09:00:27.000Z</time>
      </trkpt>
      <trkpt lat="45.03486" lon="5.49939">
        <ele>1308.5999755859</ele>
        <time>2024-07-14T09:00:28.000Z</time>
      </trkpt>
      <trkpt lat="45.03486" lon="5.49943">
        <ele>1308.5999755859</ele>
        <time>2024-07-14T09:00:29.000Z</time>
      </trkpt>
      <trkpt lat="45.03488" lon="5.49948">
        <ele>1308.5999755859</ele>
        <time>2024-07-14T09:00:30.000Z</time>
      </trkpt>
      <trkpt lat="45.03488" lon="5.49951">
        <ele>1308.8000488281</ele>
        <time>2024-07-14T09:00:31.000Z</time>
      </trkpt>
      <trkpt lat="45.03489" lon="5.49955">
        <ele>1309</ele>
        <time>2024-07-14T09:00:32.000Z</time>
      </trkpt>
      <trkpt lat="45.03489" lon="5.4996">
        <ele>1309.1999511719</ele>
        <time>2024-07-14T09:00:33.000Z</time>
      </trkpt>
      <trkpt lat="45.03489" lon="5.49963">
        <ele>1309.4000244141</ele>
        <time>2024-07-14T09:00:34.000Z</time>
      </trkpt>
      <trkpt lat="45.03489" lon="5.49965">
        <ele>1309.4000244141</ele>
        <time>2024-07-14T09:00:35.000Z</time>
      </trkpt>
      <trkpt lat="45.03489" lon="5.4997">
        <ele>1309.4000244141</ele>
        <time>2024-07-14T09:00:36.000Z</time>
      </trkpt>
      <trkpt lat="45.03488" lon="5.49974">
        <ele>1309.5999755859</ele>
        <time>2024-07-14T09:00:37.000Z</time>
      </trkpt>
      <trkpt lat="45.03487" lon="5.49978">
        <ele>1309.8000488281</ele>
        <time>2024-07-14T09:00:38.000Z</time>
      </trkpt>
      <trkpt lat="45.03486" lon="5.49983">
        <ele>1310</ele>
        <time>2024-07-14T09:00:39.000Z</time>
      </trkpt>
      <trkpt lat="45.03486" lon="5.49986">
        <ele>1310</ele>
        <time>2024-07-14T09:00:40.000Z</time>
      </trkpt>
      <trkpt lat="45.03484" lon="5.4999">
        <ele>1310</ele>
        <time>2024-07-14T09:00:41.000Z</time>
      </trkpt>
      <trkpt lat="45.03482" lon="5.49993">
        <ele>1310</ele>
        <time>2024-07-14T09:00:42.000Z</time>
      </trkpt>
      <trkpt lat="45.0348" lon="5.49996">
        <ele>1309.8000488281</ele>
        <time>2024-07-14T09:00:43.000Z</time>
      </trkpt>
      <trkpt lat="45.03478" lon="5.49999">
        <ele>1309.8000488281</ele>
        <time>2024-07-14T09:00:44.000Z</time>
      </trkpt>
      <trkpt lat="45.03476" lon="5.50002">
        <ele>1309.8000488281</ele>
        <time>2024-07-14T09:00:45.000Z</time>
      </trkpt>
      <trkpt lat="45.03474" lon="5.50004">
        <ele>1309.5999755859</ele>
        <time>2024-07-14T09:00:46.000Z</time>
      </trkpt>
      <trkpt lat="45.03473" lon="5.50007">
        <ele>1309.5999755859</ele>
        <time>2024-07-14T09:00:47.000Z</time>
      </trkpt>
      <trkpt lat="45.03471" lon="5.50009">
        <ele>1309.5999755859</ele>
        <time>2024-07-14T09:00:48.000Z</time>
      </trkpt>
      <trkpt lat="45.03469" lon="5.50011">
        <ele>1309.5999755859</ele>
        <time>2024-07-14T09:00:49.000Z</time>
      </trkpt>
      <trkpt lat="45.03467" lon="5.50013">
        <ele>1309.5999755859</ele>
        <time>2024-07-14T09:00:50.000Z</time>
      </trkpt>
      <trkpt lat="45.03465" lon="5.50014">
        <ele>1309.8000488281</ele>
        <time>2024-07-14T09:00:51.000Z</time>
      </trkpt>
      <trkpt lat="45.03462" lon="5.50016">
        <ele>1310</ele>
        <time>2024-07-14T09:00:52.000Z</time>
      </trkpt>
      <trkpt lat="45.0346" lon="5.50017">
        <ele>1310.1999511719</ele>
        <time>2024-07-14T09:00:53.000Z</time>
      </trkpt>
      <trkpt lat="45.03457" lon="5.5002">
        <ele>1310.1999511719</ele>
        <time>2024-07-14T09:00:54.000Z</time>
      </trkpt>
      <trkpt lat="45.03455" lon="5.50021">
        <ele>1310.1999511719</ele>
        <time>2024-07-14T09:00:55.000Z</time>
      </trkpt>
      <trkpt lat="45.03453" lon="5.50023">
        <ele>1310.1999511719</ele>
        <time>2024-07-14T09:00:56.000Z</time>
      </trkpt>
      <trkpt lat="45.03451" lon="5.50026">
        <ele>1310</ele>
        <time>2024-07-14T09:00:57.000Z</time>
      </trkpt>
      <trkpt lat="45.03449" lon="5.50028">
        <ele>1310</ele>
        <time>2024-07-14T09:00:58.000Z</time>
      </trkpt>
      <trkpt lat="45.03447" lon="5.50031">
        <ele>1309.8000488281</ele>
        <time>2024-07-14T09:00:59.000Z</time>
      </trkpt>
      <trkpt lat="45.03446" lon="5.50033">
        <ele>1309.8000488281</ele>
        <time>2024-07-14T09:01:00.000Z</time>
      </trkpt>
      <trkpt lat="45.03444" lon="5.50036">
        <ele>1309.5999755859</ele>
        <time>2024-07-14T09:01:01.000Z</time>
      </trkpt>
      <trkpt lat="45.03443" lon="5.50039">
        <ele>1309.4000244141</ele>
        <time>2024-07-14T09:01:02.000Z</time>
      </trkpt>
      <trkpt lat="45.03442" lon="5.50041">
        <ele>1309.1999511719</ele>
        <time>2024-07-14T09:01:03.000Z</time>
      </trkpt>
      <trkpt lat="45.03441" lon="5.50043">
        <ele>1308.8000488281</ele>
        <time>2024-07-14T09:01:04.000Z</time>
      </trkpt>
      <trkpt lat="45.0344" lon="5.50046">
        <ele>1308.4000244141</ele>
        <time>2024-07-14T09:01:05.000Z</time>
      </trkpt>
      <trkpt lat="45.03439" lon="5.50049">
        <ele>1308</ele>
        <time>2024-07-14T09:01:06.000Z</time>
      </trkpt>
      <trkpt lat="45.03438" lon="5.50052">
        <ele>1307.4000244141</ele>
        <time>2024-07-14T09:01:07.000Z</time>
      </trkpt>
      <trkpt lat="45.03437" lon="5.50056">
        <ele>1307</ele>
        <time>2024-07-14T09:01:08.000Z</time>
      </trkpt>
      <trkpt lat="45.03437" lon="5.5006">
        <ele>1306.5999755859</ele>
        <time>2024-07-14T09:01:09.000Z</time>
      </trkpt>
      <trkpt lat="45.03436" lon="5.50064">
        <ele>1306.4000244141</ele>
        <time>2024-07-14T09:01:10.000Z</time>
      </trkpt>
      <trkpt lat="45.03435" lon="5.50066">
        <ele>1306.1999511719</ele>
        <time>2024-07-14T09:01:11.000Z</time>
      </trkpt>
      <trkpt lat="45.03434" lon="5.5007">
        <ele>1305.8000488281</ele>
        <time>2024-07-14T09:01:12.000Z</time>
      </trkpt>
      <trkpt lat="45.03434" lon="5.50073">
        <ele>1305.4000244141</ele>
        <time>2024-07-14T09:01:13.000Z</time>
      </trkpt>
      <trkpt lat="45.03433" lon="5.50077">
        <ele>1305.1999511719</ele>
        <time>2024-07-14T09:01:14.000Z</time>
      </trkpt>
      <trkpt lat="45.03432" lon="5.50081">
        <ele>1305</ele>
        <time>2024-07-14T09:01:15.000Z</time>
      </trkpt>
      <trkpt lat="45.03432" lon="5.50084">
        <ele>1304.5999755859</ele>
        <time>2024-07-14T09:01:16.000Z</time>
      </trkpt>
      <trkpt lat="45.03431" lon="5.50088">
        <ele>1304.4000244141</ele>
        <time>2024-07-14T09:01:17.000Z</time>
      </trkpt>
      <trkpt lat="45.0343" lon="5.50092">
        <ele>1304.1999511719</ele>
        <time>2024-07-14T09:01:18.000Z</time>
      </trkpt>
      <trkpt lat="45.03429" lon="5.50095">
        <ele>1304</ele>
        <time>2024-07-14T09:01:19.000Z</time>
      </trkpt>
      <trkpt lat="45.03428" lon="5.50099">
        <ele>1303.8000488281</ele>
        <time>2024-07-14T09:01:20.000Z</time>
      </trkpt>
      <trkpt lat="45.03427" lon="5.50102">
        <ele>1303.5999755859</ele>
        <time>2024-07-14T09:01:21.000Z</time>
      </trkpt>
      <trkpt lat="45.03426" lon="5.50106">
        <ele>1303.1999511719</ele>
        <time>2024-07-14T09:01:22.000Z</time>
      </trkpt>
      <trkpt lat="45.03424" lon="5.50109">
        <ele>1302.8000488281</ele>
        <time>2024-07-14T09:01:23.000Z</time>
      </trkpt>
      <trkpt lat="45.03423" lon="5.50113">
        <ele>1302.8000488281</ele>
        <time>2024-07-14T09:01:24.000Z</time>
      </trkpt>
      <trkpt lat="45.03423" lon="5.50116">
        <ele>1302.5999755859</ele>
        <time>2024-07-14T09:01:25.000Z</time>
      </trkpt>
      <trkpt lat="45.03423" lon="5.5012">
        <ele>1302.1999511719</ele>
        <time>2024-07-14T09:01:26.000Z</time>
      </trkpt>
      <trkpt lat="45.03422" lon="5.50124">
        <ele>1301.5999755859</ele>
        <time>2024-07-14T09:01:27.000Z</time>
      </trkpt>
      <trkpt lat="45.03423" lon="5.50128">
        <ele>1301.5999755859</ele>
        <time>2024-07-14T09:01:28.000Z</time>
      </trkpt>
      <trkpt lat="45.03424" lon="5.50131">
        <ele>1301.1999511719</ele>
        <time>2024-07-14T09:01:29.000Z</time>
      </trkpt>
      <trkpt lat="45.03424" lon="5.50134">
        <ele>1301</ele>
        <time>2024-07-14T09:01:30.000Z</time>
      </trkpt>
      <trkpt lat="45.03425" lon="5.50137">
        <ele>1300.5999755859</ele>
        <time>2024-07-14T09:01:31.000Z</time>
      </trkpt>
      <trkpt lat="45.03426" lon="5.5014">
        <ele>1300.5999755859</ele>
        <time>2024-07-14T09:01:32.000Z</time>
      </trkpt>
      <trkpt lat="45.03427" lon="5.50141">
        <ele>1300.5999755859</ele>
        <time>2024-07-14T09:01:33.000Z</time>
      </trkpt>
      <trkpt lat="45.03427" lon="5.50143">
        <ele>1300.8000488281</ele>
        <time>2024-07-14T09:01:34.000Z</time>
      </trkpt>
      <trkpt lat="45.03428" lon="5.50145">
        <ele>1301</ele>
        <time>2024-07-14T09:01:35.000Z</time>
      </trkpt>
      <trkpt lat="45.03429" lon="5.50147">
        <ele>1301</ele>
        <time>2024-07-14T09:01:36.000Z</time>
      </trkpt>
      <trkpt lat="45.0343" lon="5.50148">
        <ele>1301.1999511719</ele>
        <time>2024-07-14T09:01:37.000Z</time>
      </trkpt>
      <trkpt lat="45.03432" lon="5.50151">
        <ele>1301.5999755859</ele>
        <time>2024-07-14T09:01:38.000Z</time>
      </trkpt>
      <trkpt lat="45.03433" lon="5.50153">
        <ele>1301.5999755859</ele>
        <time>2024-07-14T09:01:39.000Z</time>
      </trkpt>
      <trkpt lat="45.03434" lon="5.50155">
        <ele>1301.5999755859</ele>
        <time>2024-07-14T09:01:40.000Z</time>
      </trkpt>
      <trkpt lat="45.03436" lon="5.50159">
        <ele>1301.5999755859</ele>
        <time>2024-07-14T09:01:41.000Z</time>
      </trkpt>
      <trkpt lat="45.03438" lon="5.50163">
        <ele>1301.5999755859</ele>
        <time>2024-07-14T09:01:42.000Z</time>
      </trkpt>
      <trkpt lat="45.0344" lon="5.50166">
        <ele>1301.5999755859</ele>
        <time>2024-07-14T09:01:43.000Z</time>
      </trkpt>
      <trkpt lat="45.03442" lon="5.50168">
        <ele>1301.1999511719</ele>
        <time>2024-07-14T09:01:44.000Z</time>
      </trkpt>
      <trkpt lat="45.03444" lon="5.5017">
        <ele>1301</ele>
        <time>2024-07-14T09:01:45.000Z</time>
      </trkpt>
      <trkpt lat="45.03446" lon="5.50173">
        <ele>1300.8000488281</ele>
        <time>2024-07-14T09:01:46.000Z</time>
      </trkpt>
      <trkpt lat="45.03448" lon="5.50174">
        <ele>1300.5999755859</ele>
        <time>2024-07-14T09:01:47.000Z</time>
      </trkpt>
      <trkpt lat="45.0345" lon="5.50176">
        <ele>1300.5999755859</ele>
        <time>2024-07-14T09:01:48.000Z</time>
      </trkpt>
      <trkpt lat="45.03452" lon="5.50178">
        <ele>1300.5999755859</ele>
        <time>2024-07-14T09:01:49.000Z</time>
      </trkpt>
      <trkpt lat="45.03453" lon="5.5018">
        <ele>1300.5999755859</ele>
        <time>2024-07-14T09:01:50.000Z</time>
      </trkpt>
      <trkpt lat="45.03454" lon="5.50181">
        <ele>1300.5999755859</ele>
        <time>2024-07-14T09:01:51.000Z</time>
      </trkpt>
      <trkpt lat="45.03456" lon="5.50182">
        <ele>1300.5999755859</ele>
        <time>2024-07-14T09:01:52.000Z</time>
      </trkpt>
      <trkpt lat="45.03457" lon="5.50183">
        <ele>1300.5999755859</ele>
        <time>2024-07-14T09:01:53.000Z</time>
      </trkpt>
      <trkpt lat="45.03459" lon="5.50183">
        <ele>1300.5999755859</ele>
        <time>2024-07-14T09:01:54.000Z</time>
      </trkpt>
      <trkpt lat="45.03461" lon="5.50184">
        <ele>1300.4000244141</ele>
        <time>2024-07-14T09:01:55.000Z</time>
      </trkpt>
      <trkpt lat="45.03463" lon="5.50185">
        <ele>1300</ele>
        <time>2024-07-14T09:01:56.000Z</time>
      </trkpt>
      <trkpt lat="45.03465" lon="5.50187">
        <ele>1299.5999755859</ele>
        <time>2024-07-14T09:01:57.000Z</time>
      </trkpt>
      <trkpt lat="45.03467" lon="5.50189">
        <ele>1299.5999755859</ele>
        <time>2024-07-14T09:01:58.000Z</time>
      </trkpt>
      <trkpt lat="45.03469" lon="5.50193">
        <ele>1299.1999511719</ele>
        <time>2024-07-14T09:01:59.000Z</time>
      </trkpt>
      <trkpt lat="45.0347" lon="5.50195">
        <ele>1298.8000488281</ele>
        <time>2024-07-14T09:02:00.000Z</time>
      </trkpt>
      <trkpt lat="45.03472" lon="5.50199">
        <ele>1298.4000244141</ele>
        <time>2024-07-14T09:02:01.000Z</time>
      </trkpt>
      <trkpt lat="45.03473" lon="5.50202">
        <ele>1298.1999511719</ele>
        <time>2024-07-14T09:02:02.000Z</time>
      </trkpt>
      <trkpt lat="45.03475" lon="5.50205">
        <ele>1297.8000488281</ele>
        <time>2024-07-14T09:02:03.000Z</time>
      </trkpt>
      <trkpt lat="45.03475" lon="5.50208">
        <ele>1297.1999511719</ele>
        <time>2024-07-14T09:02:04.000Z</time>
      </trkpt>
      <trkpt lat="45.03476" lon="5.50211">
        <ele>1296.8000488281</ele>
        <time>2024-07-14T09:02:05.000Z</time>
      </trkpt>
      <trkpt lat="45.03477" lon="5.50214">
        <ele>1296.4000244141</ele>
        <time>2024-07-14T09:02:06.000Z</time>
      </trkpt>
      <trkpt lat="45.03478" lon="5.50217">
        <ele>1296.1999511719</ele>
        <time>2024-07-14T09:02:07.000Z</time>
      </trkpt>
      <trkpt lat="45.03479" lon="5.5022">
        <ele>1295.8000488281</ele>
        <time>2024-07-14T09:02:08.000Z</time>
      </trkpt>
      <trkpt lat="45.0348" lon="5.50222">
        <ele>1295.4000244141</ele>
        <time>2024-07-14T09:02:09.000Z</time>
      </trkpt>
      <trkpt lat="45.03481" lon="5.50225">
        <ele>1295.1999511719</ele>
        <time>2024-07-14T09:02:10.000Z</time>
      </trkpt>
      <trkpt lat="45.03482" lon="5.50227">
        <ele>1295</ele>
        <time>2024-07-14T09:02:11.000Z</time>
      </trkpt>
      <trkpt lat="45.03484" lon="5.50229">
        <ele>1294.8000488281</ele>
        <time>2024-07-14T09:02:12.000Z</time>
      </trkpt>
      <trkpt lat="45.03485" lon="5.50231">
        <ele>1294.4000244141</ele>
        <time>2024-07-14T09:02:13.000Z</time>
      </trkpt>
      <trkpt lat="45.03487" lon="5.50232">
        <ele>1293.8000488281</ele>
        <time>2024-07-14T09:02:14.000Z</time>
      </trkpt>
      <trkpt lat="45.03488" lon="5.50234">
        <ele>1293.4000244141</ele>
        <time>2024-07-14T09:02:15.000Z</time>
      </trkpt>
      <trkpt lat="45.0349" lon="5.50235">
        <ele>1293.1999511719</ele>
        <time>2024-07-14T09:02:16.000Z</time>
      </trkpt>
      <trkpt lat="45.03492" lon="5.50235">
        <ele>1293.1999511719</ele>
        <time>2024-07-14T09:02:17.000Z</time>
      </trkpt>
      <trkpt lat="45.03494" lon="5.50235">
        <ele>1293</ele>
        <time>2024-07-14T09:02:18.000Z</time>
      </trkpt>
      <trkpt lat="45.03497" lon="5.50235">
        <ele>1292.8000488281</ele>
        <time>2024-07-14T09:02:19.000Z</time>
      </trkpt>
      <trkpt lat="45.03499" lon="5.50234">
        <ele>1292.5999755859</ele>
        <time>2024-07-14T09:02:20.000Z</time>
      </trkpt>
      <trkpt lat="45.03501" lon="5.50234">
        <ele>1292.4000244141</ele>
        <time>2024-07-14T09:02:21.000Z</time>
      </trkpt>
      <trkpt lat="45.03504" lon="5.50233">
        <ele>1292.1999511719</ele>
        <time>2024-07-14T09:02:22.000Z</time>
      </trkpt>
      <trkpt lat="45.03506" lon="5.50232">
        <ele>1292</ele>
        <time>2024-07-14T09:02:23.000Z</time>
      </trkpt>
      <trkpt lat="45.03509" lon="5.50231">
        <ele>1291.8000488281</ele>
        <time>2024-07-14T09:02:24.000Z</time>
      </trkpt>
      <trkpt lat="45.03511" lon="5.5023">
        <ele>1291.8000488281</ele>
        <time>2024-07-14T09:02:25.000Z</time>
      </trkpt>
      <trkpt lat="45.03514" lon="5.50229">
        <ele>1291.5999755859</ele>
        <time>2024-07-14T09:02:26.000Z</time>
      </trkpt>
      <trkpt lat="45.03516" lon="5.50228">
        <ele>1291.5999755859</ele>
        <time>2024-07-14T09:02:27.000Z</time>
      </trkpt>
      <trkpt lat="45.03519" lon="5.50228">
        <ele>1291.8000488281</ele>
        <time>2024-07-14T09:02:28.000Z</time>
      </trkpt>
      <trkpt lat="45.03521" lon="5.50228">
        <ele>1291.8000488281</ele>
        <time>2024-07-14T09:02:29.000Z</time>
      </trkpt>
      <trkpt lat="45.03524" lon="5.50228">
        <ele>1292</ele>
        <time>2024-07-14T09:02:30.000Z</time>
      </trkpt>
      <trkpt lat="45.03526" lon="5.50229">
        <ele>1292</ele>
        <time>2024-07-14T09:02:31.000Z</time>
      </trkpt>
      <trkpt lat="45.03529" lon="5.50229">
        <ele>1292</ele>
        <time>2024-07-14T09:02:32.000Z</time>
      </trkpt>
      <trkpt lat="45.03531" lon="5.5023">
        <ele>1292</ele>
        <time>2024-07-14T09:02:33.000Z</time>
      </trkpt>
      <trkpt lat="45.03533" lon="5.5023">
        <ele>1292</ele>
        <time>2024-07-14T09:02:34.000Z</time>
      </trkpt>
      <trkpt lat="45.03536" lon="5.50231">
        <ele>1292</ele>
        <time>2024-07-14T09:02:35.000Z</time>
      </trkpt>
      <trkpt lat="45.03538" lon="5.50231">
        <ele>1291.4000244141</ele>
        <time>2024-07-14T09:02:36.000Z</time>
      </trkpt>
      <trkpt lat="45.0354" lon="5.50232">
        <ele>1291</ele>
        <time>2024-07-14T09:02:37.000Z</time>
      </trkpt>
      <trkpt lat="45.03543" lon="5.50232">
        <ele>1290.8000488281</ele>
        <time>2024-07-14T09:02:38.000Z</time>
      </trkpt>
      <trkpt lat="45.03545" lon="5.50233">
        <ele>1290.4000244141</ele>
        <time>2024-07-14T09:02:39.000Z</time>
      </trkpt>
      <trkpt lat="45.03547" lon="5.50234">
        <ele>1290.4000244141</ele>
        <time>2024-07-14T09:02:40.000Z</time>
      </trkpt>
      <trkpt lat="45.0355" lon="5.50235">
        <ele>1290.1999511719</ele>
        <time>2024-07-14T09:02:41.000Z</time>
      </trkpt>
      <trkpt lat="45.03553" lon="5.50237">
        <ele>1290</ele>
        <time>2024-07-14T09:02:42.000Z</time>
      </trkpt>
      <trkpt lat="45.03556" lon="5.50239">
        <ele>1289.8000488281</ele>
        <time>2024-07-14T09:02:43.000Z</time>
      </trkpt>
      <trkpt lat="45.03558" lon="5.50242">
        <ele>1289.4000244141</ele>
        <time>2024-07-14T09:02:44.000Z</time>
      </trkpt>
      <trkpt lat="45.03559" lon="5.50244">
        <ele>1289.1999511719</ele>
        <time>2024-07-14T09:02:45.000Z</time>
      </trkpt>
      <trkpt lat="45.03561" lon="5.50247">
        <ele>1289</ele>
        <time>2024-07-14T09:02:46.000Z</time>
      </trkpt>
      <trkpt lat="45.03563" lon="5.50249">
        <ele>1288.5999755859</ele>
        <time>2024-07-14T09:02:47.000Z</time>
      </trkpt>
      <trkpt lat="45.03564" lon="5.50251">
        <ele>1288.1999511719</ele>
        <time>2024-07-14T09:02:48.000Z</time>
      </trkpt>
      <trkpt lat="45.03566" lon="5.50253">
        <ele>1287.5999755859</ele>
        <time>2024-07-14T09:02:49.000Z</time>
      </trkpt>
      <trkpt lat="45.03569" lon="5.50255">
        <ele>1287.4000244141</ele>
        <time>2024-07-14T09:02:50.000Z</time>
      </trkpt>
      <trkpt lat="45.03571" lon="5.50256">
        <ele>1287.1999511719</ele>
        <time>2024-07-14T09:02:51.000Z</time>
      </trkpt>
      <trkpt lat="45.03573" lon="5.50257">
        <ele>1287</ele>
        <time>2024-07-14T09:02:52.000Z</time>
      </trkpt>
      <trkpt lat="45.03575" lon="5.50258">
        <ele>1286.4000244141</ele>
        <time>2024-07-14T09:02:53.000Z</time>
      </trkpt>
      <trkpt lat="45.03578" lon="5.5026">
        <ele>1286.1999511719</ele>
        <time>2024-07-14T09:02:54.000Z</time>
      </trkpt>
      <trkpt lat="45.0358" lon="5.50261">
        <ele>1286</ele>
        <time>2024-07-14T09:02:55.000Z</time>
      </trkpt>
      <trkpt lat="45.03583" lon="5.50262">
        <ele>1285.5999755859</ele>
        <time>2024-07-14T09:02:56.000Z</time>
      </trkpt>
      <trkpt lat="45.03585" lon="5.50264">
        <ele>1285.1999511719</ele>
        <time>2024-07-14T09:02:57.000Z</time>
      </trkpt>
      <trkpt lat="45.03587" lon="5.50266">
        <ele>1285</ele>
        <time>2024-07-14T09:02:58.000Z</time>
      </trkpt>
      <trkpt lat="45.03589" lon="5.50269">
        <ele>1284.4000244141</ele>
        <time>2024-07-14T09:02:59.000Z</time>
      </trkpt>
      <trkpt lat="45.03591" lon="5.50271">
        <ele>1284.1999511719</ele>
        <time>2024-07-14T09:03:00.000Z</time>
      </trkpt>
      <trkpt lat="45.03592" lon="5.50274">
        <ele>1283.8000488281</ele>
        <time>2024-07-14T09:03:01.000Z</time>
      </trkpt>
      <trkpt lat="45.03594" lon="5.50276">
        <ele>1283.5999755859</ele>
        <time>2024-07-14T09:03:02.000Z</time>
      </trkpt>
      <trkpt lat="45.03595" lon="5.50278">
        <ele>1283</ele>
        <time>2024-07-14T09:03:03.000Z</time>
      </trkpt>
      <trkpt lat="45.03595" lon="5.5028">
        <ele>1282</ele>
        <time>2024-07-14T09:03:04.000Z</time>
      </trkpt>
      <trkpt lat="45.03596" lon="5.50283">
        <ele>1281.4000244141</ele>
        <time>2024-07-14T09:03:05.000Z</time>
      </trkpt>
      <trkpt lat="45.03596" lon="5.50287">
        <ele>1281</ele>
        <time>2024-07-14T09:03:06.000Z</time>
      </trkpt>
      <trkpt lat="45.03596" lon="5.50291">
        <ele>1280.5999755859</ele>
        <time>2024-07-14T09:03:07.000Z</time>
      </trkpt>
      <trkpt lat="45.03595" lon="5.50294">
        <ele>1280</ele>
        <time>2024-07-14T09:03:08.000Z</time>
      </trkpt>
      <trkpt lat="45.03595" lon="5.50298">
        <ele>1279.5999755859</ele>
        <time>2024-07-14T09:03:09.000Z</time>
      </trkpt>
      <trkpt lat="45.03593" lon="5.503">
        <ele>1279.1999511719</ele>
        <time>2024-07-14T09:03:10.000Z</time>
      </trkpt>
      <trkpt lat="45.03593" lon="5.50303">
        <ele>1278.8000488281</ele>
        <time>2024-07-14T09:03:11.000Z</time>
      </trkpt>
      <trkpt lat="45.03592" lon="5.50305">
        <ele>1278.5999755859</ele>
        <time>2024-07-14T09:03:12.000Z</time>
      </trkpt>
      <trkpt lat="45.03592" lon="5.50308">
        <ele>1278.1999511719</ele>
        <time>2024-07-14T09:03:13.000Z</time>
      </trkpt>
      <trkpt lat="45.03592" lon="5.50311">
        <ele>1277.4000244141</ele>
        <time>2024-07-14T09:03:14.000Z</time>
      </trkpt>
      <trkpt lat="45.03592" lon="5.50314">
        <ele>1277.1999511719</ele>
        <time>2024-07-14T09:03:15.000Z</time>
      </trkpt>
      <trkpt lat="45.03592" lon="5.50317">
        <ele>1277</ele>
        <time>2024-07-14T09:03:16.000Z</time>
      </trkpt>
      <trkpt lat="45.03592" lon="5.5032">
        <ele>1276.1999511719</ele>
        <time>2024-07-14T09:03:17.000Z</time>
      </trkpt>
      <trkpt lat="45.03592" lon="5.50323">
        <ele>1275.8000488281</ele>
        <time>2024-07-14T09:03:18.000Z</time>
      </trkpt>
      <trkpt lat="45.03591" lon="5.50325">
        <ele>1275.5999755859</ele>
        <time>2024-07-14T09:03:19.000Z</time>
      </trkpt>
      <trkpt lat="45.03591" lon="5.50328">
        <ele>1275.4000244141</ele>
        <time>2024-07-14T09:03:20.000Z</time>
      </trkpt>
      <trkpt lat="45.0359" lon="5.50332">
        <ele>1275.1999511719</ele>
        <time>2024-07-14T09:03:21.000Z</time>
      </trkpt>
      <trkpt lat="45.03589" lon="5.50335">
        <ele>1274.5999755859</ele>
        <time>2024-07-14T09:03:22.000Z</time>
      </trkpt>
      <trkpt lat="45.03587" lon="5.50338">
        <ele>1274.1999511719</ele>
        <time>2024-07-14T09:03:23.000Z</time>
      </trkpt>
      <trkpt lat="45.03585" lon="5.5034">
        <ele>1274</ele>
        <time>2024-07-14T09:03:24.000Z</time>
      </trkpt>
      <trkpt lat="45.03583" lon="5.50343">
        <ele>1273.4000244141</ele>
        <time>2024-07-14T09:03:25.000Z</time>
      </trkpt>
      <trkpt lat="45.03582" lon="5.50346">
        <ele>1272.5999755859</ele>
        <time>2024-07-14T09:03:26.000Z</time>
      </trkpt>
      <trkpt lat="45.0358" lon="5.50349">
        <ele>1272.1999511719</ele>
        <time>2024-07-14T09:03:27.000Z</time>
      </trkpt>
      <trkpt lat="45.03578" lon="5.50352">
        <ele>1271.8000488281</ele>
        <time>2024-07-14T09:03:28.000Z</time>
      </trkpt>
      <trkpt lat="45.03577" lon="5.50355">
        <ele>1271.5999755859</ele>
        <time>2024-07-14T09:03:29.000Z</time>
      </trkpt>
      <trkpt lat="45.03576" lon="5.50357">
        <ele>1270.8000488281</ele>
        <time>2024-07-14T09:03:30.000Z</time>
      </trkpt>
      <trkpt lat="45.03576" lon="5.5036">
        <ele>1270.1999511719</ele>
        <time>2024-07-14T09:03:31.000Z</time>
      </trkpt>
      <trkpt lat="45.03576" lon="5.50362">
        <ele>1270.1999511719</ele>
        <time>2024-07-14T09:03:32.000Z</time>
      </trkpt>
      <trkpt lat="45.03576" lon="5.50363">
        <ele>1270</ele>
        <time>2024-07-14T09:03:33.000Z</time>
      </trkpt>
      <trkpt lat="45.03576" lon="5.50366">
        <ele>1269.8000488281</ele>
        <time>2024-07-14T09:03:34.000Z</time>
      </trkpt>
      <trkpt lat="45.03577" lon="5.50368">
        <ele>1269.5999755859</ele>
        <time>2024-07-14T09:03:35.000Z</time>
      </trkpt>
      <trkpt lat="45.03578" lon="5.5037">
        <ele>1269.1999511719</ele>
        <time>2024-07-14T09:03:36.000Z</time>
      </trkpt>
      <trkpt lat="45.0358" lon="5.50371">
        <ele>1269</ele>
        <time>2024-07-14T09:03:37.000Z</time>
      </trkpt>
      <trkpt lat="45.03581" lon="5.50372">
        <ele>1268.4000244141</ele>
        <time>2024-07-14T09:03:38.000Z</time>
      </trkpt>
      <trkpt lat="45.03583" lon="5.50372">
        <ele>1268.1999511719</ele>
        <time>2024-07-14T09:03:39.000Z</time>
      </trkpt>
      <trkpt lat="45.03586" lon="5.50373">
        <ele>1267.8000488281</ele>
        <time>2024-07-14T09:03:40.000Z</time>
      </trkpt>
      <trkpt lat="45.03588" lon="5.50372">
        <ele>1267.5999755859</ele>
        <time>2024-07-14T09:03:41.000Z</time>
      </trkpt>
      <trkpt lat="45.03591" lon="5.50372">
        <ele>1267.5999755859</ele>
        <time>2024-07-14T09:03:42.000Z</time>
      </trkpt>
      <trkpt lat="45.03594" lon="5.50372">
        <ele>1267.4000244141</ele>
        <time>2024-07-14T09:03:43.000Z</time>
      </trkpt>
      <trkpt lat="45.03596" lon="5.50371">
        <ele>1267.4000244141</ele>
        <time>2024-07-14T09:03:44.000Z</time>
      </trkpt>
      <trkpt lat="45.03599" lon="5.50371">
        <ele>1267.4000244141</ele>
        <time>2024-07-14T09:03:45.000Z</time>
      </trkpt>
      <trkpt lat="45.03602" lon="5.5037">
        <ele>1267.4000244141</ele>
        <time>2024-07-14T09:03:46.000Z</time>
      </trkpt>
      <trkpt lat="45.03605" lon="5.50371">
        <ele>1267.1999511719</ele>
        <time>2024-07-14T09:03:47.000Z</time>
      </trkpt>
      <trkpt lat="45.03607" lon="5.50372">
        <ele>1267.1999511719</ele>
        <time>2024-07-14T09:03:48.000Z</time>
      </trkpt>
      <trkpt lat="45.03606" lon="5.50373">
        <ele>1267.1999511719</ele>
        <time>2024-07-14T09:03:49.000Z</time>
      </trkpt>
      <trkpt lat="45.03608" lon="5.50375">
        <ele>1267.1999511719</ele>
        <time>2024-07-14T09:03:50.000Z</time>
      </trkpt>
      <trkpt lat="45.0361" lon="5.50375">
        <ele>1267.1999511719</ele>
        <time>2024-07-14T09:03:51.000Z</time>
      </trkpt>
      <trkpt lat="45.03612" lon="5.50378">
        <ele>1267.1999511719</ele>
        <time>2024-07-14T09:03:52.000Z</time>
      </trkpt>
      <trkpt lat="45.03616" lon="5.50385">
        <ele>1267</ele>
        <time>2024-07-14T09:03:53.000Z</time>
      </trkpt>
      <trkpt lat="45.03617" lon="5.50389">
        <ele>1266.5999755859</ele>
        <time>2024-07-14T09:03:54.000Z</time>
      </trkpt>
      <trkpt lat="45.03619" lon="5.50393">
        <ele>1266.4000244141</ele>
        <time>2024-07-14T09:03:55.000Z</time>
      </trkpt>
      <trkpt lat="45.03621" lon="5.50397">
        <ele>1266</ele>
        <time>2024-07-14T09:03:56.000Z</time>
      </trkpt>
      <trkpt lat="45.03622" lon="5.504">
        <ele>1265.8000488281</ele>
        <time>2024-07-14T09:03:57.000Z</time>
      </trkpt>
      <trkpt lat="45.03624" lon="5.50403">
        <ele>1265.4000244141</ele>
        <time>2024-07-14T09:03:58.000Z</time>
      </trkpt>
      <trkpt lat="45.03625" lon="5.50406">
        <ele>1265.1999511719</ele>
        <time>2024-07-14T09:03:59.000Z</time>
      </trkpt>
      <trkpt lat="45.03626" lon="5.50409">
        <ele>1265</ele>
        <time>2024-07-14T09:04:00.000Z</time>
      </trkpt>
      <trkpt lat="45.03626" lon="5.50412">
        <ele>1265</ele>
        <time>2024-07-14T09:04:01.000Z</time>
      </trkpt>
      <trkpt lat="45.03627" lon="5.50415">
        <ele>1264.8000488281</ele>
        <time>2024-07-14T09:04:02.000Z</time>
      </trkpt>
      <trkpt lat="45.03628" lon="5.50419">
        <ele>1264.5999755859</ele>
        <time>2024-07-14T09:04:03.000Z</time>
      </trkpt>
      <trkpt lat="45.03628" lon="5.50422">
        <ele>1264.4000244141</ele>
        <time>2024-07-14T09:04:04.000Z</time>
      </trkpt>
      <trkpt lat="45.03629" lon="5.50425">
        <ele>1264.1999511719</ele>
        <time>2024-07-14T09:04:05.000Z</time>
      </trkpt>
      <trkpt lat="45.03629" lon="5.50429">
        <ele>1264</ele>
        <time>2024-07-14T09:04:06.000Z</time>
      </trkpt>
      <trkpt lat="45.0363" lon="5.50433">
        <ele>1263.8000488281</ele>
        <time>2024-07-14T09:04:07.000Z</time>
      </trkpt>
      <trkpt lat="45.03631" lon="5.50435">
        <ele>1263.5999755859</ele>
        <time>2024-07-14T09:04:08.000Z</time>
      </trkpt>
      <trkpt lat="45.03632" lon="5.50439">
        <ele>1263.1999511719</ele>
        <time>2024-07-14T09:04:09.000Z</time>
      </trkpt>
      <trkpt lat="45.03632" lon="5.50442">
        <ele>1263</ele>
        <time>2024-07-14T09:04:10.000Z</time>
      </trkpt>
      <trkpt lat="45.03633" lon="5.50446">
        <ele>1262.5999755859</ele>
        <time>2024-07-14T09:04:11.000Z</time>
      </trkpt>
      <trkpt lat="45.03633" lon="5.50449">
        <ele>1262.4000244141</ele>
        <time>2024-07-14T09:04:12.000Z</time>
      </trkpt>
      <trkpt lat="45.03634" lon="5.50452">
        <ele>1262.1999511719</ele>
        <time>2024-07-14T09:04:13.000Z</time>
      </trkpt>
      <trkpt lat="45.03634" lon="5.50455">
        <ele>1262</ele>
        <time>2024-07-14T09:04:14.000Z</time>
      </trkpt>
      <trkpt lat="45.03635" lon="5.50458">
        <ele>1261.5999755859</ele>
        <time>2024-07-14T09:04:15.000Z</time>
      </trkpt>
      <trkpt lat="45.03635" lon="5.50461">
        <ele>1261.4000244141</ele>
        <time>2024-07-14T09:04:16.000Z</time>
      </trkpt>
      <trkpt lat="45.03636" lon="5.50464">
        <ele>1261.4000244141</ele>
        <time>2024-07-14T09:04:17.000Z</time>
      </trkpt>
      <trkpt lat="45.03635" lon="5.50467">
        <ele>1260.5999755859</ele>
        <time>2024-07-14T09:04:18.000Z</time>
      </trkpt>
      <trkpt lat="45.03635" lon="5.50469">
        <ele>1260</ele>
        <time>2024-07-14T09:04:19.000Z</time>
      </trkpt>
      <trkpt lat="45.03636" lon="5.50471">
        <ele>1259.1999511719</ele>
        <time>2024-07-14T09:04:20.000Z</time>
      </trkpt>
      <trkpt lat="45.03636" lon="5.50475">
        <ele>1259</ele>
        <time>2024-07-14T09:04:21.000Z</time>
      </trkpt>
      <trkpt lat="45.03636" lon="5.50477">
        <ele>1258.8000488281</ele>
        <time>2024-07-14T09:04:22.000Z</time>
      </trkpt>
      <trkpt lat="45.03637" lon="5.5048">
        <ele>1258.5999755859</ele>
        <time>2024-07-14T09:04:23.000Z</time>
      </trkpt>
      <trkpt lat="45.03637" lon="5.50484">
        <ele>1258</ele>
        <time>2024-07-14T09:04:24.000Z</time>
      </trkpt>
      <trkpt lat="45.03638" lon="5.50488">
        <ele>1257.5999755859</ele>
        <time>2024-07-14T09:04:25.000Z</time>
      </trkpt>
      <trkpt lat="45.03638" lon="5.50491">
        <ele>1257.1999511719</ele>
        <time>2024-07-14T09:04:26.000Z</time>
      </trkpt>
      <trkpt lat="45.03638" lon="5.50494">
        <ele>1257.1999511719</ele>
        <time>2024-07-14T09:04:27.000Z</time>
      </trkpt>
      <trkpt lat="45.03638" lon="5.50498">
        <ele>1257</ele>
        <time>2024-07-14T09:04:28.000Z</time>
      </trkpt>
      <trkpt lat="45.03638" lon="5.505">
        <ele>1257</ele>
        <time>2024-07-14T09:04:29.000Z</time>
      </trkpt>
      <trkpt lat="45.03639" lon="5.50502">
        <ele>1257</ele>
        <time>2024-07-14T09:04:30.000Z</time>
      </trkpt>
      <trkpt lat="45.03639" lon="5.50504">
        <ele>1257.1999511719</ele>
        <time>2024-07-14T09:04:31.000Z</time>
      </trkpt>
      <trkpt lat="45.0364" lon="5.50506">
        <ele>1257.1999511719</ele>
        <time>2024-07-14T09:04:32.000Z</time>
      </trkpt>
      <trkpt lat="45.0364" lon="5.50508">
        <ele>1257.4000244141</ele>
        <time>2024-07-14T09:04:33.000Z</time>
      </trkpt>
      <trkpt lat="45.03641" lon="5.5051">
        <ele>1257.5999755859</ele>
        <time>2024-07-14T09:04:34.000Z</time>
      </trkpt>
      <trkpt lat="45.03641" lon="5.50512">
        <ele>1257.8000488281</ele>
        <time>2024-07-14T09:04:35.000Z</time>
      </trkpt>
      <trkpt lat="45.03642" lon="5.50514">
        <ele>1258</ele>
        <time>2024-07-14T09:04:36.000Z</time>
      </trkpt>
      <trkpt lat="45.03643" lon="5.50517">
        <ele>1258.4000244141</ele>
        <time>2024-07-14T09:04:37.000Z</time>
      </trkpt>
      <trkpt lat="45.03643" lon="5.50518">
        <ele>1258.5999755859</ele>
        <time>2024-07-14T09:04:38.000Z</time>
      </trkpt>
      <trkpt lat="45.03644" lon="5.50521">
        <ele>1258.5999755859</ele>
        <time>2024-07-14T09:04:39.000Z</time>
      </trkpt>
      <trkpt lat="45.03645" lon="5.50523">
        <ele>1258.8000488281</ele>
        <time>2024-07-14T09:04:40.000Z</time>
      </trkpt>
      <trkpt lat="45.03646" lon="5.50524">
        <ele>1259</ele>
        <time>2024-07-14T09:04:41.000Z</time>
      </trkpt>
      <trkpt lat="45.03647" lon="5.50526">
        <ele>1259.1999511719</ele>
        <time>2024-07-14T09:04:42.000Z</time>
      </trkpt>
      <trkpt lat="45.03647" lon="5.50528">
        <ele>1259.1999511719</ele>
        <time>2024-07-14T09:04:43.000Z</time>
      </trkpt>
      <trkpt lat="45.03648" lon="5.50531">
        <ele>1259.4000244141</ele>
        <time>2024-07-14T09:04:44.000Z</time>
      </trkpt>
      <trkpt lat="45.03648" lon="5.50534">
        <ele>1259.8000488281</ele>
        <time>2024-07-14T09:04:45.000Z</time>
      </trkpt>
      <trkpt lat="45.03648" lon="5.50538">
        <ele>1260</ele>
        <time>2024-07-14T09:04:46.000Z</time>
      </trkpt>
      <trkpt lat="45.03649" lon="5.50542">
        <ele>1260.1999511719</ele>
        <time>2024-07-14T09:04:47.000Z</time>
      </trkpt>
      <trkpt lat="45.03649" lon="5.50545">
        <ele>1260.1999511719</ele>
        <time>2024-07-14T09:04:48.000Z</time>
      </trkpt>
      <trkpt lat="45.03649" lon="5.50548">
        <ele>1260.1999511719</ele>
        <time>2024-07-14T09:04:49.000Z</time>
      </trkpt>
      <trkpt lat="45.03649" lon="5.50551">
        <ele>1260</ele>
        <time>2024-07-14T09:04:50.000Z</time>
      </trkpt>
      <trkpt lat="45.03649" lon="5.50553">
        <ele>1260</ele>
        <time>2024-07-14T09:04:51.000Z</time>
      </trkpt>
      <trkpt lat="45.0365" lon="5.50556">
        <ele>1259.4000244141</ele>
        <time>2024-07-14T09:04:52.000Z</time>
      </trkpt>
      <trkpt lat="45.0365" lon="5.50559">
        <ele>1259.4000244141</ele>
        <time>2024-07-14T09:04:53.000Z</time>
      </trkpt>
      <trkpt lat="45.03651" lon="5.50562">
        <ele>1259.4000244141</ele>
        <time>2024-07-14T09:04:54.000Z</time>
      </trkpt>
      <trkpt lat="45.03651" lon="5.50565">
        <ele>1259.4000244141</ele>
        <time>2024-07-14T09:04:55.000Z</time>
      </trkpt>
      <trkpt lat="45.03651" lon="5.50568">
        <ele>1259.1999511719</ele>
        <time>2024-07-14T09:04:56.000Z</time>
      </trkpt>
      <trkpt lat="45.03651" lon="5.50571">
        <ele>1259.4000244141</ele>
        <time>2024-07-14T09:04:57.000Z</time>
      </trkpt>
      <trkpt lat="45.03652" lon="5.50575">
        <ele>1259.4000244141</ele>
        <time>2024-07-14T09:04:58.000Z</time>
      </trkpt>
      <trkpt lat="45.03653" lon="5.50577">
        <ele>1259.4000244141</ele>
        <time>2024-07-14T09:04:59.000Z</time>
      </trkpt>
      <trkpt lat="45.03654" lon="5.50579">
        <ele>1259.1999511719</ele>
        <time>2024-07-14T09:05:00.000Z</time>
      </trkpt>
      <trkpt lat="45.03656" lon="5.50582">
        <ele>1259.1999511719</ele>
        <time>2024-07-14T09:05:01.000Z</time>
      </trkpt>
      <trkpt lat="45.03657" lon="5.50584">
        <ele>1259.1999511719</ele>
        <time>2024-07-14T09:05:02.000Z</time>
      </trkpt>
      <trkpt lat="45.03658" lon="5.50586">
        <ele>1259</ele>
        <time>2024-07-14T09:05:03.000Z</time>
      </trkpt>
      <trkpt lat="45.03659" lon="5.50589">
        <ele>1258.8000488281</ele>
        <time>2024-07-14T09:05:04.000Z</time>
      </trkpt>
      <trkpt lat="45.03661" lon="5.50592">
        <ele>1258.5999755859</ele>
        <time>2024-07-14T09:05:05.000Z</time>
      </trkpt>
      <trkpt lat="45.03662" lon="5.50595">
        <ele>1258.5999755859</ele>
        <time>2024-07-14T09:05:06.000Z</time>
      </trkpt>
      <trkpt lat="45.03663" lon="5.50598">
        <ele>1258.4000244141</ele>
        <time>2024-07-14T09:05:07.000Z</time>
      </trkpt>
      <trkpt lat="45.03664" lon="5.50602">
        <ele>1258.1999511719</ele>
        <time>2024-07-14T09:05:08.000Z</time>
      </trkpt>
      <trkpt lat="45.03665" lon="5.50605">
        <ele>1258</ele>
        <time>2024-07-14T09:05:09.000Z</time>
      </trkpt>
      <trkpt lat="45.03666" lon="5.50608">
        <ele>1257.5999755859</ele>
        <time>2024-07-14T09:05:10.000Z</time>
      </trkpt>
      <trkpt lat="45.03667" lon="5.50611">
        <ele>1257.5999755859</ele>
        <time>2024-07-14T09:05:11.000Z</time>
      </trkpt>
      <trkpt lat="45.03668" lon="5.50615">
        <ele>1257.4000244141</ele>
        <time>2024-07-14T09:05:12.000Z</time>
      </trkpt>
      <trkpt lat="45.03669" lon="5.50617">
        <ele>1257.1999511719</ele>
        <time>2024-07-14T09:05:13.000Z</time>
      </trkpt>
      <trkpt lat="45.0367" lon="5.5062">
        <ele>1256.8000488281</ele>
        <time>2024-07-14T09:05:14.000Z</time>
      </trkpt>
      <trkpt lat="45.03671" lon="5.50622">
        <ele>1256.4000244141</ele>
        <time>2024-07-14T09:05:15.000Z</time>
      </trkpt>
      <trkpt lat="45.03672" lon="5.50624">
        <ele>1256.1999511719</ele>
        <time>2024-07-14T09:05:16.000Z</time>
      </trkpt>
      <trkpt lat="45.03674" lon="5.50626">
        <ele>1256</ele>
        <time>2024-07-14T09:05:17.000Z</time>
      </trkpt>
      <trkpt lat="45.03675" lon="5.50629">
        <ele>1255.5999755859</ele>
        <time>2024-07-14T09:05:18.000Z</time>
      </trkpt>
      <trkpt lat="45.03675" lon="5.50632">
        <ele>1255.4000244141</ele>
        <time>2024-07-14T09:05:19.000Z</time>
      </trkpt>
      <trkpt lat="45.03676" lon="5.50636">
        <ele>1255</ele>
        <time>2024-07-14T09:05:20.000Z</time>
      </trkpt>
      <trkpt lat="45.03676" lon="5.5064">
        <ele>1254.1999511719</ele>
        <time>2024-07-14T09:05:21.000Z</time>
      </trkpt>
      <trkpt lat="45.03676" lon="5.50644">
        <ele>1253.8000488281</ele>
        <time>2024-07-14T09:05:22.000Z</time>
      </trkpt>
      <trkpt lat="45.03676" lon="5.50648">
        <ele>1253.5999755859</ele>
        <time>2024-07-14T09:05:23.000Z</time>
      </trkpt>
      <trkpt lat="45.03676" lon="5.50651">
        <ele>1253.1999511719</ele>
        <time>2024-07-14T09:05:24.000Z</time>
      </trkpt>
      <trkpt lat="45.03676" lon="5.50655">
        <ele>1253</ele>
        <time>2024-07-14T09:05:25.000Z</time>
      </trkpt>
      <trkpt lat="45.03677" lon="5.50658">
        <ele>1252.8000488281</ele>
        <time>2024-07-14T09:05:26.000Z</time>
      </trkpt>
      <trkpt lat="45.03677" lon="5.50661">
        <ele>1252.8000488281</ele>
        <time>2024-07-14T09:05:27.000Z</time>
      </trkpt>
      <trkpt lat="45.03678" lon="5.50664">
        <ele>1252.8000488281</ele>
        <time>2024-07-14T09:05:28.000Z</time>
      </trkpt>
      <trkpt lat="45.03679" lon="5.50666">
        <ele>1252.5999755859</ele>
        <time>2024-07-14T09:05:29.000Z</time>
      </trkpt>
      <trkpt lat="45.03679" lon="5.50669">
        <ele>1252.5999755859</ele>
        <time>2024-07-14T09:05:30.000Z</time>
      </trkpt>
      <trkpt lat="45.0368" lon="5.50672">
        <ele>1252.4000244141</ele>
        <time>2024-07-14T09:05:31.000Z</time>
      </trkpt>
      <trkpt lat="45.03681" lon="5.50675">
        <ele>1252.1999511719</ele>
        <time>2024-07-14T09:05:32.000Z</time>
      </trkpt>
      <trkpt lat="45.03682" lon="5.50679">
        <ele>1252.1999511719</ele>
        <time>2024-07-14T09:05:33.000Z</time>
      </trkpt>
      <trkpt lat="45.03682" lon="5.50682">
        <ele>1252.1999511719</ele>
        <time>2024-07-14T09:05:34.000Z</time>
      </trkpt>
      <trkpt lat="45.03683" lon="5.50685">
        <ele>1252</ele>
        <time>2024-07-14T09:05:35.000Z</time>
      </trkpt>
      <trkpt lat="45.03683" lon="5.50689">
        <ele>1252</ele>
        <time>2024-07-14T09:05:36.000Z</time>
      </trkpt>
      <trkpt lat="45.03683" lon="5.50692">
        <ele>1251.8000488281</ele>
        <time>2024-07-14T09:05:37.000Z</time>
      </trkpt>
      <trkpt lat="45.03683" lon="5.50696">
        <ele>1251.5999755859</ele>
        <time>2024-07-14T09:05:38.000Z</time>
      </trkpt>
      <trkpt lat="45.03683" lon="5.50701">
        <ele>1251.4000244141</ele>
        <time>2024-07-14T09:05:39.000Z</time>
      </trkpt>
      <trkpt lat="45.03683" lon="5.50705">
        <ele>1251.1999511719</ele>
        <time>2024-07-14T09:05:40.000Z</time>
      </trkpt>
      <trkpt lat="45.03683" lon="5.5071">
        <ele>1251</ele>
        <time>2024-07-14T09:05:41.000Z</time>
      </trkpt>
      <trkpt lat="45.03683" lon="5.50714">
        <ele>1250.5999755859</ele>
        <time>2024-07-14T09:05:42.000Z</time>
      </trkpt>
      <trkpt lat="45.03683" lon="5.50717">
        <ele>1250</ele>
        <time>2024-07-14T09:05:43.000Z</time>
      </trkpt>
      <trkpt lat="45.03682" lon="5.50721">
        <ele>1249.8000488281</ele>
        <time>2024-07-14T09:05:44.000Z</time>
      </trkpt>
      <trkpt lat="45.03682" lon="5.50725">
        <ele>1249.5999755859</ele>
        <time>2024-07-14T09:05:45.000Z</time>
      </trkpt>
      <trkpt lat="45.03682" lon="5.50728">
        <ele>1249.4000244141</ele>
        <time>2024-07-14T09:05:46.000Z</time>
      </trkpt>
      <trkpt lat="45.03682" lon="5.50732">
        <ele>1249.1999511719</ele>
        <time>2024-07-14T09:05:47.000Z</time>
      </trkpt>
      <trkpt lat="45.03682" lon="5.50736">
        <ele>1249.1999511719</ele>
        <time>2024-07-14T09:05:48.000Z</time>
      </trkpt>
      <trkpt lat="45.03682" lon="5.5074">
        <ele>1249</ele>
        <time>2024-07-14T09:05:49.000Z</time>
      </trkpt>
      <trkpt lat="45.03683" lon="5.50744">
        <ele>1248.8000488281</ele>
        <time>2024-07-14T09:05:50.000Z</time>
      </trkpt>
      <trkpt lat="45.03683" lon="5.50748">
        <ele>1248.5999755859</ele>
        <time>2024-07-14T09:05:51.000Z</time>
      </trkpt>
      <trkpt lat="45.03684" lon="5.50751">
        <ele>1248.4000244141</ele>
        <time>2024-07-14T09:05:52.000Z</time>
      </trkpt>
      <trkpt lat="45.03684" lon="5.50755">
        <ele>1248.4000244141</ele>
        <time>2024-07-14T09:05:53.000Z</time>
      </trkpt>
      <trkpt lat="45.03685" lon="5.50758">
        <ele>1248.4000244141</ele>
        <time>2024-07-14T09:05:54.000Z</time>
      </trkpt>
      <trkpt lat="45.03685" lon="5.50762">
        <ele>1248.1999511719</ele>
        <time>2024-07-14T09:05:55.000Z</time>
      </trkpt>
      <trkpt lat="45.03686" lon="5.50765">
        <ele>1248.1999511719</ele>
        <time>2024-07-14T09:05:56.000Z</time>
      </trkpt>
      <trkpt lat="45.03686" lon="5.5077">
        <ele>1248.1999511719</ele>
        <time>2024-07-14T09:05:57.000Z</time>
      </trkpt>
      <trkpt lat="45.03686" lon="5.50773">
        <ele>1248.1999511719</ele>
        <time>2024-07-14T09:05:58.000Z</time>
      </trkpt>
      <trkpt lat="45.03686" lon="5.50778">
        <ele>1248.1999511719</ele>
        <time>2024-07-14T09:05:59.000Z</time>
      </trkpt>
      <trkpt lat="45.03687" lon="5.50782">
        <ele>1248.1999511719</ele>
        <time>2024-07-14T09:06:00.000Z</time>
      </trkpt>
      <trkpt lat="45.03687" lon="5.50785">
        <ele>1248.1999511719</ele>
        <time>2024-07-14T09:06:01.000Z</time>
      </trkpt>
      <trkpt lat="45.03688" lon="5.5079">
        <ele>1248.1999511719</ele>
        <time>2024-07-14T09:06:02.000Z</time>
      </trkpt>
      <trkpt lat="45.03689" lon="5.50793">
        <ele>1248.1999511719</ele>
        <time>2024-07-14T09:06:03.000Z</time>
      </trkpt>
      <trkpt lat="45.03691" lon="5.50796">
        <ele>1248.1999511719</ele>
        <time>2024-07-14T09:06:04.000Z</time>
      </trkpt>
      <trkpt lat="45.03692" lon="5.50799">
        <ele>1248.1999511719</ele>
        <time>2024-07-14T09:06:05.000Z</time>
      </trkpt>
      <trkpt lat="45.03694" lon="5.508">
        <ele>1248.1999511719</ele>
        <time>2024-07-14T09:06:06.000Z</time>
      </trkpt>
      <trkpt lat="45.03696" lon="5.50802">
        <ele>1248.1999511719</ele>
        <time>2024-07-14T09:06:07.000Z</time>
      </trkpt>
      <trkpt lat="45.03698" lon="5.50803">
        <ele>1248.1999511719</ele>
        <time>2024-07-14T09:06:08.000Z</time>
      </trkpt>
      <trkpt lat="45.03701" lon="5.50804">
        <ele>1248.1999511719</ele>
        <time>2024-07-14T09:06:09.000Z</time>
      </trkpt>
      <trkpt lat="45.03704" lon="5.50806">
        <ele>1248.1999511719</ele>
        <time>2024-07-14T09:06:10.000Z</time>
      </trkpt>
      <trkpt lat="45.03707" lon="5.50808">
        <ele>1248.1999511719</ele>
        <time>2024-07-14T09:06:11.000Z</time>
      </trkpt>
      <trkpt lat="45.0371" lon="5.5081">
        <ele>1248.1999511719</ele>
        <time>2024-07-14T09:06:12.000Z</time>
      </trkpt>
      <trkpt lat="45.03713" lon="5.50812">
        <ele>1248</ele>
        <time>2024-07-14T09:06:13.000Z</time>
      </trkpt>
      <trkpt lat="45.03715" lon="5.50814">
        <ele>1248</ele>
        <time>2024-07-14T09:06:14.000Z</time>
      </trkpt>
      <trkpt lat="45.03717" lon="5.50816">
        <ele>1248</ele>
        <time>2024-07-14T09:06:15.000Z</time>
      </trkpt>
      <trkpt lat="45.03719" lon="5.50818">
        <ele>1247.8000488281</ele>
        <time>2024-07-14T09:06:16.000Z</time>
      </trkpt>
      <trkpt lat="45.0372" lon="5.5082">
        <ele>1247.8000488281</ele>
        <time>2024-07-14T09:06:17.000Z</time>
      </trkpt>
      <trkpt lat="45.03722" lon="5.50822">
        <ele>1247.8000488281</ele>
        <time>2024-07-14T09:06:18.000Z</time>
      </trkpt>
      <trkpt lat="45.03724" lon="5.50824">
        <ele>1247.5999755859</ele>
        <time>2024-07-14T09:06:19.000Z</time>
      </trkpt>
      <trkpt lat="45.03727" lon="5.50827">
        <ele>1247.5999755859</ele>
        <time>2024-07-14T09:06:20.000Z</time>
      </trkpt>
      <trkpt lat="45.03729" lon="5.5083">
        <ele>1247.4000244141</ele>
        <time>2024-07-14T09:06:21.000Z</time>
      </trkpt>
      <trkpt lat="45.03731" lon="5.50833">
        <ele>1247.4000244141</ele>
        <time>2024-07-14T09:06:22.000Z</time>
      </trkpt>
      <trkpt lat="45.03733" lon="5.50836">
        <ele>1247.4000244141</ele>
        <time>2024-07-14T09:06:23.000Z</time>
      </trkpt>
      <trkpt lat="45.03736" lon="5.50839">
        <ele>1247.1999511719</ele>
        <time>2024-07-14T09:06:24.000Z</time>
      </trkpt>
      <trkpt lat="45.03738" lon="5.50843">
        <ele>1247.1999511719</ele>
        <time>2024-07-14T09:06:25.000Z</time>
      </trkpt>
      <trkpt lat="45.0374" lon="5.50846">
        <ele>1247.1999511719</ele>
        <time>2024-07-14T09:06:26.000Z</time>
      </trkpt>
      <trkpt lat="45.03741" lon="5.50849">
        <ele>1247</ele>
        <time>2024-07-14T09:06:27.000Z</time>
      </trkpt>
      <trkpt lat="45.03743" lon="5.50852">
        <ele>1247</ele>
        <time>2024-07-14T09:06:28.000Z</time>
      </trkpt>
      <trkpt lat="45.03745" lon="5.50854">
        <ele>1247</ele>
        <time>2024-07-14T09:06:29.000Z</time>
      </trkpt>
      <trkpt lat="45.03747" lon="5.50857">
        <ele>1247</ele>
        <time>2024-07-14T09:06:30.000Z</time>
      </trkpt>
      <trkpt lat="45.03748" lon="5.50861">
        <ele>1247.1999511719</ele>
        <time>2024-07-14T09:06:31.000Z</time>
      </trkpt>
      <trkpt lat="45.0375" lon="5.50864">
        <ele>1247.1999511719</ele>
        <time>2024-07-14T09:06:32.000Z</time>
      </trkpt>
      <trkpt lat="45.03752" lon="5.50868">
        <ele>1247.1999511719</ele>
        <time>2024-07-14T09:06:33.000Z</time>
      </trkpt>
      <trkpt lat="45.03753" lon="5.50871">
        <ele>1247.1999511719</ele>
        <time>2024-07-14T09:06:34.000Z</time>
      </trkpt>
      <trkpt lat="45.03755" lon="5.50874">
        <ele>1247</ele>
        <time>2024-07-14T09:06:35.000Z</time>
      </trkpt>
      <trkpt lat="45.03757" lon="5.50877">
        <ele>1247</ele>
        <time>2024-07-14T09:06:36.000Z</time>
      </trkpt>
      <trkpt lat="45.03758" lon="5.5088">
        <ele>1247</ele>
        <time>2024-07-14T09:06:37.000Z</time>
      </trkpt>
      <trkpt lat="45.03759" lon="5.50882">
        <ele>1246.8000488281</ele>
        <time>2024-07-14T09:06:38.000Z</time>
      </trkpt>
      <trkpt lat="45.03761" lon="5.50885">
        <ele>1246.8000488281</ele>
        <time>2024-07-14T09:06:39.000Z</time>
      </trkpt>
      <trkpt lat="45.03763" lon="5.50887">
        <ele>1246.8000488281</ele>
        <time>2024-07-14T09:06:40.000Z</time>
      </trkpt>
      <trkpt lat="45.03765" lon="5.50889">
        <ele>1246.8000488281</ele>
        <time>2024-07-14T09:06:41.000Z</time>
      </trkpt>
      <trkpt lat="45.03767" lon="5.50891">
        <ele>1246.8000488281</ele>
        <time>2024-07-14T09:06:42.000Z</time>
      </trkpt>
      <trkpt lat="45.03769" lon="5.50892">
        <ele>1246.8000488281</ele>
        <time>2024-07-14T09:06:43.000Z</time>
      </trkpt>
      <trkpt lat="45.03771" lon="5.50894">
        <ele>1246.8000488281</ele>
        <time>2024-07-14T09:06:44.000Z</time>
      </trkpt>
      <trkpt lat="45.03773" lon="5.50895">
        <ele>1247</ele>
        <time>2024-07-14T09:06:45.000Z</time>
      </trkpt>
      <trkpt lat="45.03775" lon="5.50896">
        <ele>1247</ele>
        <time>2024-07-14T09:06:46.000Z</time>
      </trkpt>
      <trkpt lat="45.03777" lon="5.50897">
        <ele>1247</ele>
        <time>2024-07-14T09:06:47.000Z</time>
      </trkpt>
      <trkpt lat="45.03779" lon="5.50897">
        <ele>1247.1999511719</ele>
        <time>2024-07-14T09:06:48.000Z</time>
      </trkpt>
      <trkpt lat="45.03781" lon="5.50898">
        <ele>1247.1999511719</ele>
        <time>2024-07-14T09:06:49.000Z</time>
      </trkpt>
      <trkpt lat="45.03783" lon="5.50898">
        <ele>1247.4000244141</ele>
        <time>2024-07-14T09:06:50.000Z</time>
      </trkpt>
      <trkpt lat="45.03785" lon="5.50898">
        <ele>1247.5999755859</ele>
        <time>2024-07-14T09:06:51.000Z</time>
      </trkpt>
      <trkpt lat="45.03787" lon="5.50898">
        <ele>1247.5999755859</ele>
        <time>2024-07-14T09:06:52.000Z</time>
      </trkpt>
      <trkpt lat="45.03788" lon="5.50898">
        <ele>1247.8000488281</ele>
        <time>2024-07-14T09:06:53.000Z</time>
      </trkpt>
      <trkpt lat="45.0379" lon="5.50898">
        <ele>1248</ele>
        <time>2024-07-14T09:06:54.000Z</time>
      </trkpt>
      <trkpt lat="45.03792" lon="5.50898">
        <ele>1248.1999511719</ele>
        <time>2024-07-14T09:06:55.000Z</time>
      </trkpt>
      <trkpt lat="45.03794" lon="5.50898">
        <ele>1248.4000244141</ele>
        <time>2024-07-14T09:06:56.000Z</time>
      </trkpt>
      <trkpt lat="45.03796" lon="5.50898">
        <ele>1248.5999755859</ele>
        <time>2024-07-14T09:06:57.000Z</time>
      </trkpt>
      <trkpt lat="45.03797" lon="5.50899">
        <ele>1248.8000488281</ele>
        <time>2024-07-14T09:06:58.000Z</time>
      </trkpt>
      <trkpt lat="45.03799" lon="5.50899">
        <ele>1249</ele>
        <time>2024-07-14T09:06:59.000Z</time>
      </trkpt>
      <trkpt lat="45.038" lon="5.50899">
        <ele>1249.1999511719</ele>
        <time>2024-07-14T09:07:00.000Z</time>
      </trkpt>
      <trkpt lat="45.03802" lon="5.50899">
        <ele>1249.5999755859</ele>
        <time>2024-07-14T09:07:01.000Z</time>
      </trkpt>
      <trkpt lat="45.03804" lon="5.50898">
        <ele>1249.8000488281</ele>
        <time>2024-07-14T09:07:02.000Z</time>
      </trkpt>
      <trkpt lat="45.03806" lon="5.50898">
        <ele>1250</ele>
        <time>2024-07-14T09:07:03.000Z</time>
      </trkpt>
      <trkpt lat="45.03808" lon="5.50898">
        <ele>1250.1999511719</ele>
        <time>2024-07-14T09:07:04.000Z</time>
      </trkpt>
      <trkpt lat="45.0381" lon="5.50898">
        <ele>1250.1999511719</ele>
        <time>2024-07-14T09:07:05.000Z</time>
      </trkpt>
      <trkpt lat="45.03811" lon="5.50898">
        <ele>1250.4000244141</ele>
        <time>2024-07-14T09:07:06.000Z</time>
      </trkpt>
      <trkpt lat="45.03812" lon="5.50897">
        <ele>1250.4000244141</ele>
        <time>2024-07-14T09:07:07.000Z</time>
      </trkpt>
      <trkpt lat="45.03814" lon="5.50897">
        <ele>1250.5999755859</ele>
        <time>2024-07-14T09:07:08.000Z</time>
      </trkpt>
      <trkpt lat="45.03816" lon="5.50896">
        <ele>1250.8000488281</ele>
        <time>2024-07-14T09:07:09.000Z</time>
      </trkpt>
      <trkpt lat="45.03817" lon="5.50895">
        <ele>1251</ele>
        <time>2024-07-14T09:07:10.000Z</time>
      </trkpt>
      <trkpt lat="45.03819" lon="5.50894">
        <ele>1251</ele>
        <time>2024-07-14T09:07:11.000Z</time>
      </trkpt>
      <trkpt lat="45.03821" lon="5.50893">
        <ele>1251</ele>
        <time>2024-07-14T09:07:12.000Z</time>
      </trkpt>
      <trkpt lat="45.03822" lon="5.50892">
        <ele>1251.1999511719</ele>
        <time>2024-07-14T09:07:13.000Z</time>
      </trkpt>
      <trkpt lat="45.03823" lon="5.5089">
        <ele>1251.1999511719</ele>
        <time>2024-07-14T09:07:14.000Z</time>
      </trkpt>
      <trkpt lat="45.03826" lon="5.50889">
        <ele>1251.1999511719</ele>
        <time>2024-07-14T09:07:15.000Z</time>
      </trkpt>
      <trkpt lat="45.03827" lon="5.50887">
        <ele>1251.4000244141</ele>
        <time>2024-07-14T09:07:16.000Z</time>
      </trkpt>
      <trkpt lat="45.0383" lon="5.50886">
        <ele>1251.4000244141</ele>
        <time>2024-07-14T09:07:17.000Z</time>
      </trkpt>
      <trkpt lat="45.03831" lon="5.50885">
        <ele>1251.5999755859</ele>
        <time>2024-07-14T09:07:18.000Z</time>
      </trkpt>
      <trkpt lat="45.03833" lon="5.50885">
        <ele>1251.5999755859</ele>
        <time>2024-07-14T09:07:19.000Z</time>
      </trkpt>
      <trkpt lat="45.03835" lon="5.50884">
        <ele>1251.5999755859</ele>
        <time>2024-07-14T09:07:20.000Z</time>
      </trkpt>
      <trkpt lat="45.03838" lon="5.50884">
        <ele>1251.8000488281</ele>
        <time>2024-07-14T09:07:21.000Z</time>
      </trkpt>
      <trkpt lat="45.0384" lon="5.50883">
        <ele>1251.8000488281</ele>
        <time>2024-07-14T09:07:22.000Z</time>
      </trkpt>
      <trkpt lat="45.03842" lon="5.50883">
        <ele>1251.8000488281</ele>
        <time>2024-07-14T09:07:23.000Z</time>
      </trkpt>
      <trkpt lat="45.03845" lon="5.50883">
        <ele>1251.8000488281</ele>
        <time>2024-07-14T09:07:24.000Z</time>
      </trkpt>
      <trkpt lat="45.03847" lon="5.50883">
        <ele>1251.8000488281</ele>
        <time>2024-07-14T09:07:25.000Z</time>
      </trkpt>
      <trkpt lat="45.0385" lon="5.50883">
        <ele>1252</ele>
        <time>2024-07-14T09:07:26.000Z</time>
      </trkpt>
      <trkpt lat="45.03853" lon="5.50883">
        <ele>1252</ele>
        <time>2024-07-14T09:07:27.000Z</time>
      </trkpt>
      <trkpt lat="45.03855" lon="5.50882">
        <ele>1252</ele>
        <time>2024-07-14T09:07:28.000Z</time>
      </trkpt>
      <trkpt lat="45.03858" lon="5.50883">
        <ele>1252.1999511719</ele>
        <time>2024-07-14T09:07:29.000Z</time>
      </trkpt>
      <trkpt lat="45.0386" lon="5.50883">
        <ele>1252.1999511719</ele>
        <time>2024-07-14T09:07:30.000Z</time>
      </trkpt>
      <trkpt lat="45.03862" lon="5.50884">
        <ele>1252.1999511719</ele>
        <time>2024-07-14T09:07:31.000Z</time>
      </trkpt>
      <trkpt lat="45.03864" lon="5.50885">
        <ele>1252.4000244141</ele>
        <time>2024-07-14T09:07:32.000Z</time>
      </trkpt>
      <trkpt lat="45.03866" lon="5.50887">
        <ele>1252.5999755859</ele>
        <time>2024-07-14T09:07:33.000Z</time>
      </trkpt>
      <trkpt lat="45.03869" lon="5.50888">
        <ele>1252.8000488281</ele>
        <time>2024-07-14T09:07:34.000Z</time>
      </trkpt>
      <trkpt lat="45.03871" lon="5.50889">
        <ele>1252.8000488281</ele>
        <time>2024-07-14T09:07:35.000Z</time>
      </trkpt>
      <trkpt lat="45.03873" lon="5.5089">
        <ele>1253</ele>
        <time>2024-07-14T09:07:36.000Z</time>
      </trkpt>
      <trkpt lat="45.03875" lon="5.50891">
        <ele>1253</ele>
        <time>2024-07-14T09:07:37.000Z</time>
      </trkpt>
      <trkpt lat="45.03877" lon="5.50891">
        <ele>1253</ele>
        <time>2024-07-14T09:07:38.000Z</time>
      </trkpt>
      <trkpt lat="45.03879" lon="5.50892">
        <ele>1253</ele>
        <time>2024-07-14T09:07:39.000Z</time>
      </trkpt>
      <trkpt lat="45.03881" lon="5.50893">
        <ele>1253</ele>
        <time>2024-07-14T09:07:40.000Z</time>
      </trkpt>
      <trkpt lat="45.03884" lon="5.50893">
        <ele>1253</ele>
        <time>2024-07-14T09:07:41.000Z</time>
      </trkpt>
      <trkpt lat="45.03886" lon="5.50894">
        <ele>1253</ele>
        <time>2024-07-14T09:07:42.000Z</time>
      </trkpt>
      <trkpt lat="45.03889" lon="5.50894">
        <ele>1253</ele>
        <time>2024-07-14T09:07:43.000Z</time>
      </trkpt>
      <trkpt lat="45.03891" lon="5.50896">
        <ele>1253.1999511719</ele>
        <time>2024-07-14T09:07:44.000Z</time>
      </trkpt>
      <trkpt lat="45.03893" lon="5.50897">
        <ele>1253.4000244141</ele>
        <time>2024-07-14T09:07:45.000Z</time>
      </trkpt>
      <trkpt lat="45.03894" lon="5.50898">
        <ele>1253.4000244141</ele>
        <time>2024-07-14T09:07:46.000Z</time>
      </trkpt>
      <trkpt lat="45.03895" lon="5.50901">
        <ele>1253.4000244141</ele>
        <time>2024-07-14T09:07:47.000Z</time>
      </trkpt>
      <trkpt lat="45.03896" lon="5.50904">
        <ele>1253.5999755859</ele>
        <time>2024-07-14T09:07:48.000Z</time>
      </trkpt>
      <trkpt lat="45.03896" lon="5.50906">
        <ele>1253.8000488281</ele>
        <time>2024-07-14T09:07:49.000Z</time>
      </trkpt>
      <trkpt lat="45.03896" lon="5.50908">
        <ele>1253.8000488281</ele>
        <time>2024-07-14T09:07:50.000Z</time>
      </trkpt>
      <trkpt lat="45.03896" lon="5.50911">
        <ele>1254</ele>
        <time>2024-07-14T09:07:51.000Z</time>
      </trkpt>
      <trkpt lat="45.03895" lon="5.50913">
        <ele>1254.4000244141</ele>
        <time>2024-07-14T09:07:52.000Z</time>
      </trkpt>
      <trkpt lat="45.03895" lon="5.50915">
        <ele>1254.5999755859</ele>
        <time>2024-07-14T09:07:53.000Z</time>
      </trkpt>
      <trkpt lat="45.03895" lon="5.50916">
        <ele>1254.8000488281</ele>
        <time>2024-07-14T09:07:54.000Z</time>
      </trkpt>
      <trkpt lat="45.03895" lon="5.50917">
        <ele>1255</ele>
        <time>2024-07-14T09:07:55.000Z</time>
      </trkpt>
      <trkpt lat="45.03894" lon="5.50919">
        <ele>1255</ele>
        <time>2024-07-14T09:07:56.000Z</time>
      </trkpt>
      <trkpt lat="45.03894" lon="5.5092">
        <ele>1255.1999511719</ele>
        <time>2024-07-14T09:07:57.000Z</time>
      </trkpt>
      <trkpt lat="45.03893" lon="5.50923">
        <ele>1255.5999755859</ele>
        <time>2024-07-14T09:07:58.000Z</time>
      </trkpt>
      <trkpt lat="45.03892" lon="5.50925">
        <ele>1255.5999755859</ele>
        <time>2024-07-14T09:07:59.000Z</time>
      </trkpt>
      <trkpt lat="45.03892" lon="5.50926">
        <ele>1255.8000488281</ele>
        <time>2024-07-14T09:08:00.000Z</time>
      </trkpt>
      <trkpt lat="45.03891" lon="5.50927">
        <ele>1256</ele>
        <time>2024-07-14T09:08:01.000Z</time>
      </trkpt>
      <trkpt lat="45.03891" lon="5.50929">
        <ele>1256.4000244141</ele>
        <time>2024-07-14T09:08:02.000Z</time>
      </trkpt>
      <trkpt lat="45.03889" lon="5.50931">
        <ele>1256.4000244141</ele>
        <time>2024-07-14T09:08:03.000Z</time>
      </trkpt>
      <trkpt lat="45.03889" lon="5.50932">
        <ele>1256.8000488281</ele>
        <time>2024-07-14T09:08:04.000Z</time>
      </trkpt>
      <trkpt lat="45.03888" lon="5.50934">
        <ele>1257</ele>
        <time>2024-07-14T09:08:05.000Z</time>
      </trkpt>
      <trkpt lat="45.03888" lon="5.50935">
        <ele>1257.1999511719</ele>
        <time>2024-07-14T09:08:06.000Z</time>
      </trkpt>
      <trkpt lat="45.03887" lon="5.50937">
        <ele>1257.1999511719</ele>
        <time>2024-07-14T09:08:07.000Z</time>
      </trkpt>
      <trkpt lat="45.03887" lon="5.50938">
        <ele>1257.4000244141</ele>
        <time>2024-07-14T09:08:08.000Z</time>
      </trkpt>
      <trkpt lat="45.03888" lon="5.50939">
        <ele>1257.5999755859</ele>
        <time>2024-07-14T09:08:09.000Z</time>
      </trkpt>
      <trkpt lat="45.03888" lon="5.5094">
        <ele>1257.8000488281</ele>
        <time>2024-07-14T09:08:10.000Z</time>
      </trkpt>
      <trkpt lat="45.03888" lon="5.50941">
        <ele>1258</ele>
        <time>2024-07-14T09:08:11.000Z</time>
      </trkpt>
      <trkpt lat="45.03888" lon="5.50942">
        <ele>1258.1999511719</ele>
        <time>2024-07-14T09:08:12.000Z</time>
      </trkpt>
      <trkpt lat="45.03888" lon="5.50942">
        <ele>1258.5999755859</ele>
        <time>2024-07-14T09:08:13.000Z</time>
      </trkpt>
      <trkpt lat="45.03888" lon="5.50942">
        <ele>1258.8000488281</ele>
        <time>2024-07-14T09:08:14.000Z</time>
      </trkpt>
      <trkpt lat="45.03888" lon="5.50944">
        <ele>1259</ele>
        <time>2024-07-14T09:08:15.000Z</time>
      </trkpt>
      <trkpt lat="45.03888" lon="5.50946">
        <ele>1259.4000244141</ele>
        <time>2024-07-14T09:08:16.000Z</time>
      </trkpt>
      <trkpt lat="45.03888" lon="5.50948">
        <ele>1259.5999755859</ele>
        <time>2024-07-14T09:08:17.000Z</time>
      </trkpt>
      <trkpt lat="45.03887" lon="5.50949">
        <ele>1259.8000488281</ele>
        <time>2024-07-14T09:08:18.000Z</time>
      </trkpt>
      <trkpt lat="45.03887" lon="5.5095">
        <ele>1260</ele>
        <time>2024-07-14T09:08:19.000Z</time>
      </trkpt>
      <trkpt lat="45.03887" lon="5.50951">
        <ele>1260.1999511719</ele>
        <time>2024-07-14T09:08:20.000Z</time>
      </trkpt>
      <trkpt lat="45.03886" lon="5.50952">
        <ele>1260.5999755859</ele>
        <time>2024-07-14T09:08:21.000Z</time>
      </trkpt>
      <trkpt lat="45.03886" lon="5.50954">
        <ele>1260.8000488281</ele>
        <time>2024-07-14T09:08:22.000Z</time>
      </trkpt>
      <trkpt lat="45.03885" lon="5.50955">
        <ele>1261</ele>
        <time>2024-07-14T09:08:23.000Z</time>
      </trkpt>
      <trkpt lat="45.03885" lon="5.50956">
        <ele>1261</ele>
        <time>2024-07-14T09:08:24.000Z</time>
      </trkpt>
      <trkpt lat="45.03885" lon="5.50958">
        <ele>1261.4000244141</ele>
        <time>2024-07-14T09:08:25.000Z</time>
      </trkpt>
      <trkpt lat="45.03884" lon="5.50959">
        <ele>1261.4000244141</ele>
        <time>2024-07-14T09:08:26.000Z</time>
      </trkpt>
      <trkpt lat="45.03884" lon="5.5096">
        <ele>1261.5999755859</ele>
        <time>2024-07-14T09:08:27.000Z</time>
      </trkpt>
      <trkpt lat="45.03884" lon="5.50961">
        <ele>1261.8000488281</ele>
        <time>2024-07-14T09:08:28.000Z</time>
      </trkpt>
      <trkpt lat="45.03883" lon="5.50963">
        <ele>1262.1999511719</ele>
        <time>2024-07-14T09:08:29.000Z</time>
      </trkpt>
      <trkpt lat="45.03883" lon="5.50965">
        <ele>1262.4000244141</ele>
        <time>2024-07-14T09:08:30.000Z</time>
      </trkpt>
      <trkpt lat="45.03882" lon="5.50967">
        <ele>1262.5999755859</ele>
        <time>2024-07-14T09:08:31.000Z</time>
      </trkpt>
      <trkpt lat="45.03882" lon="5.50968">
        <ele>1262.8000488281</ele>
        <time>2024-07-14T09:08:32.000Z</time>
      </trkpt>
      <trkpt lat="45.03881" lon="5.50969">
        <ele>1262.8000488281</ele>
        <time>2024-07-14T09:08:33.000Z</time>
      </trkpt>
      <trkpt lat="45.0388" lon="5.5097">
        <ele>1262.8000488281</ele>
        <time>2024-07-14T09:08:34.000Z</time>
      </trkpt>
      <trkpt lat="45.03879" lon="5.50971">
        <ele>1263</ele>
        <time>2024-07-14T09:08:35.000Z</time>
      </trkpt>
      <trkpt lat="45.03878" lon="5.50972">
        <ele>1263</ele>
        <time>2024-07-14T09:08:36.000Z</time>
      </trkpt>
      <trkpt lat="45.03876" lon="5.50974">
        <ele>1263</ele>
        <time>2024-07-14T09:08:37.000Z</time>
      </trkpt>
      <trkpt lat="45.03875" lon="5.50974">
        <ele>1263</ele>
        <time>2024-07-14T09:08:38.000Z</time>
      </trkpt>
      <trkpt lat="45.03874" lon="5.50975">
        <ele>1263.1999511719</ele>
        <time>2024-07-14T09:08:39.000Z</time>
      </trkpt>
      <trkpt lat="45.03872" lon="5.50975">
        <ele>1263.4000244141</ele>
        <time>2024-07-14T09:08:40.000Z</time>
      </trkpt>
      <trkpt lat="45.03871" lon="5.50976">
        <ele>1263.4000244141</ele>
        <time>2024-07-14T09:08:41.000Z</time>
      </trkpt>
      <trkpt lat="45.03869" lon="5.50977">
        <ele>1263.5999755859</ele>
        <time>2024-07-14T09:08:42.000Z</time>
      </trkpt>
      <trkpt lat="45.03867" lon="5.50978">
        <ele>1263.5999755859</ele>
        <time>2024-07-14T09:08:43.000Z</time>
      </trkpt>
      <trkpt lat="45.03865" lon="5.50978">
        <ele>1263.5999755859</ele>
        <time>2024-07-14T09:08:44.000Z</time>
      </trkpt>
      <trkpt lat="45.03863" lon="5.50979">
        <ele>1263.5999755859</ele>
        <time>2024-07-14T09:08:45.000Z</time>
      </trkpt>
      <trkpt lat="45.03861" lon="5.5098">
        <ele>1263.5999755859</ele>
        <time>2024-07-14T09:08:46.000Z</time>
      </trkpt>
      <trkpt lat="45.03859" lon="5.50981">
        <ele>1263.5999755859</ele>
        <time>2024-07-14T09:08:47.000Z</time>
      </trkpt>
      <trkpt lat="45.03858" lon="5.50982">
        <ele>1263.4000244141</ele>
        <time>2024-07-14T09:08:48.000Z</time>
      </trkpt>
      <trkpt lat="45.03857" lon="5.50983">
        <ele>1263.4000244141</ele>
        <time>2024-07-14T09:08:49.000Z</time>
      </trkpt>
      <trkpt lat="45.03856" lon="5.50984">
        <ele>1263.1999511719</ele>
        <time>2024-07-14T09:08:50.000Z</time>
      </trkpt>
      <trkpt lat="45.03855" lon="5.50986">
        <ele>1263</ele>
        <time>2024-07-14T09:08:51.000Z</time>
      </trkpt>
      <trkpt lat="45.03854" lon="5.50988">
        <ele>1263</ele>
        <time>2024-07-14T09:08:52.000Z</time>
      </trkpt>
      <trkpt lat="45.03852" lon="5.50989">
        <ele>1263</ele>
        <time>2024-07-14T09:08:53.000Z</time>
      </trkpt>
      <trkpt lat="45.03851" lon="5.5099">
        <ele>1263</ele>
        <time>2024-07-14T09:08:54.000Z</time>
      </trkpt>
      <trkpt lat="45.03849" lon="5.50991">
        <ele>1263</ele>
        <time>2024-07-14T09:08:55.000Z</time>
      </trkpt>
      <trkpt lat="45.03848" lon="5.50992">
        <ele>1262.8000488281</ele>
        <time>2024-07-14T09:08:56.000Z</time>
      </trkpt>
      <trkpt lat="45.03847" lon="5.50994">
        <ele>1262.8000488281</ele>
        <time>2024-07-14T09:08:57.000Z</time>
      </trkpt>
      <trkpt lat="45.03846" lon="5.50995">
        <ele>1262.8000488281</ele>
        <time>2024-07-14T09:08:58.000Z</time>
      </trkpt>
      <trkpt lat="45.03844" lon="5.50997">
        <ele>1262.8000488281</ele>
        <time>2024-07-14T09:08:59.000Z</time>
      </trkpt>
      <trkpt lat="45.03842" lon="5.50999">
        <ele>1262.8000488281</ele>
        <time>2024-07-14T09:09:00.000Z</time>
      </trkpt>
      <trkpt lat="45.03841" lon="5.51001">
        <ele>1262.8000488281</ele>
        <time>2024-07-14T09:09:01.000Z</time>
      </trkpt>
      <trkpt lat="45.03839" lon="5.51003">
        <ele>1262.8000488281</ele>
        <time>2024-07-14T09:09:02.000Z</time>
      </trkpt>
      <trkpt lat="45.03838" lon="5.51005">
        <ele>1262.8000488281</ele>
        <time>2024-07-14T09:09:03.000Z</time>
      </trkpt>
      <trkpt lat="45.03837" lon="5.51008">
        <ele>1263</ele>
        <time>2024-07-14T09:09:04.000Z</time>
      </trkpt>
      <trkpt lat="45.03836" lon="5.5101">
        <ele>1263.1999511719</ele>
        <time>2024-07-14T09:09:05.000Z</time>
      </trkpt>
      <trkpt lat="45.03835" lon="5.51013">
        <ele>1263.1999511719</ele>
        <time>2024-07-14T09:09:06.000Z</time>
      </trkpt>
      <trkpt lat="45.03835" lon="5.51014">
        <ele>1263.1999511719</ele>
        <time>2024-07-14T09:09:07.000Z</time>
      </trkpt>
      <trkpt lat="45.03834" lon="5.51016">
        <ele>1263.1999511719</ele>
        <time>2024-07-14T09:09:08.000Z</time>
      </trkpt>
      <trkpt lat="45.03833" lon="5.51018">
        <ele>1263.4000244141</ele>
        <time>2024-07-14T09:09:09.000Z</time>
      </trkpt>
      <trkpt lat="45.03832" lon="5.5102">
        <ele>1263.4000244141</ele>
        <time>2024-07-14T09:09:10.000Z</time>
      </trkpt>
      <trkpt lat="45.03831" lon="5.51023">
        <ele>1263.8000488281</ele>
        <time>2024-07-14T09:09:11.000Z</time>
      </trkpt>
      <trkpt lat="45.0383" lon="5.51024">
        <ele>1264</ele>
        <time>2024-07-14T09:09:12.000Z</time>
      </trkpt>
      <trkpt lat="45.0383" lon="5.51026">
        <ele>1264.1999511719</ele>
        <time>2024-07-14T09:09:13.000Z</time>
      </trkpt>
      <trkpt lat="45.03828" lon="5.51028">
        <ele>1264.4000244141</ele>
        <time>2024-07-14T09:09:14.000Z</time>
      </trkpt>
      <trkpt lat="45.03827" lon="5.5103">
        <ele>1264.8000488281</ele>
        <time>2024-07-14T09:09:15.000Z</time>
      </trkpt>
      <trkpt lat="45.03826" lon="5.51031">
        <ele>1264.8000488281</ele>
        <time>2024-07-14T09:09:16.000Z</time>
      </trkpt>
      <trkpt lat="45.03826" lon="5.51032">
        <ele>1265</ele>
        <time>2024-07-14T09:09:17.000Z</time>
      </trkpt>
      <trkpt lat="45.03825" lon="5.51034">
        <ele>1265.4000244141</ele>
        <time>2024-07-14T09:09:18.000Z</time>
      </trkpt>
      <trkpt lat="45.03824" lon="5.51035">
        <ele>1265.5999755859</ele>
        <time>2024-07-14T09:09:19.000Z</time>
      </trkpt>
      <trkpt lat="45.03823" lon="5.51037">
        <ele>1265.8000488281</ele>
        <time>2024-07-14T09:09:20.000Z</time>
      </trkpt>
      <trkpt lat="45.03822" lon="5.51039">
        <ele>1266</ele>
        <time>2024-07-14T09:09:21.000Z</time>
      </trkpt>
      <trkpt lat="45.03822" lon="5.5104">
        <ele>1266.1999511719</ele>
        <time>2024-07-14T09:09:22.000Z</time>
      </trkpt>
      <trkpt lat="45.03821" lon="5.51042">
        <ele>1266.5999755859</ele>
        <time>2024-07-14T09:09:23.000Z</time>
      </trkpt>
      <trkpt lat="45.03819" lon="5.51044">
        <ele>1266.8000488281</ele>
        <time>2024-07-14T09:09:24.000Z</time>
      </trkpt>
      <trkpt lat="45.03818" lon="5.51045">
        <ele>1267</ele>
        <time>2024-07-14T09:09:25.000Z</time>
      </trkpt>
      <trkpt lat="45.03817" lon="5.51046">
        <ele>1267</ele>
        <time>2024-07-14T09:09:26.000Z</time>
      </trkpt>
      <trkpt lat="45.03816" lon="5.51047">
        <ele>1267</ele>
        <time>2024-07-14T09:09:27.000Z</time>
      </trkpt>
      <trkpt lat="45.03816" lon="5.51048">
        <ele>1267</ele>
        <time>2024-07-14T09:09:28.000Z</time>
      </trkpt>
      <trkpt lat="45.03814" lon="5.5105">
        <ele>1267.1999511719</ele>
        <time>2024-07-14T09:09:29.000Z</time>
      </trkpt>
      <trkpt lat="45.03813" lon="5.51051">
        <ele>1267.5999755859</ele>
        <time>2024-07-14T09:09:30.000Z</time>
      </trkpt>
      <trkpt lat="45.03813" lon="5.51052">
        <ele>1267.5999755859</ele>
        <time>2024-07-14T09:09:31.000Z</time>
      </trkpt>
      <trkpt lat="45.03812" lon="5.51053">
        <ele>1267.8000488281</ele>
        <time>2024-07-14T09:09:32.000Z</time>
      </trkpt>
      <trkpt lat="45.03811" lon="5.51055">
        <ele>1268</ele>
        <time>2024-07-14T09:09:33.000Z</time>
      </trkpt>
      <trkpt lat="45.0381" lon="5.51056">
        <ele>1268</ele>
        <time>2024-07-14T09:09:34.000Z</time>
      </trkpt>
      <trkpt lat="45.03809" lon="5.51057">
        <ele>1268.1999511719</ele>
        <time>2024-07-14T09:09:35.000Z</time>
      </trkpt>
      <trkpt lat="45.03807" lon="5.51058">
        <ele>1268.1999511719</ele>
        <time>2024-07-14T09:09:36.000Z</time>
      </trkpt>
      <trkpt lat="45.03805" lon="5.5106">
        <ele>1268.4000244141</ele>
        <time>2024-07-14T09:09:37.000Z</time>
      </trkpt>
      <trkpt lat="45.03804" lon="5.51061">
        <ele>1268.4000244141</ele>
        <time>2024-07-14T09:09:38.000Z</time>
      </trkpt>
      <trkpt lat="45.03803" lon="5.51063">
        <ele>1268.5999755859</ele>
        <time>2024-07-14T09:09:39.000Z</time>
      </trkpt>
      <trkpt lat="45.03801" lon="5.51065">
        <ele>1268.8000488281</ele>
        <time>2024-07-14T09:09:40.000Z</time>
      </trkpt>
      <trkpt lat="45.038" lon="5.51066">
        <ele>1268.8000488281</ele>
        <time>2024-07-14T09:09:41.000Z</time>
      </trkpt>
      <trkpt lat="45.03799" lon="5.51067">
        <ele>1268.8000488281</ele>
        <time>2024-07-14T09:09:42.000Z</time>
      </trkpt>
      <trkpt lat="45.03798" lon="5.51069">
        <ele>1268.8000488281</ele>
        <time>2024-07-14T09:09:43.000Z</time>
      </trkpt>
      <trkpt lat="45.03797" lon="5.5107">
        <ele>1269</ele>
        <time>2024-07-14T09:09:44.000Z</time>
      </trkpt>
      <trkpt lat="45.03796" lon="5.51071">
        <ele>1269.1999511719</ele>
        <time>2024-07-14T09:09:45.000Z</time>
      </trkpt>
      <trkpt lat="45.03795" lon="5.51073">
        <ele>1269.1999511719</ele>
        <time>2024-07-14T09:09:46.000Z</time>
      </trkpt>
      <trkpt lat="45.03793" lon="5.51075">
        <ele>1269.4000244141</ele>
        <time>2024-07-14T09:09:47.000Z</time>
      </trkpt>
      <trkpt lat="45.03793" lon="5.51076">
        <ele>1269.5999755859</ele>
        <time>2024-07-14T09:09:48.000Z</time>
      </trkpt>
      <trkpt lat="45.03791" lon="5.51078">
        <ele>1269.8000488281</ele>
        <time>2024-07-14T09:09:49.000Z</time>
      </trkpt>
      <trkpt lat="45.0379" lon="5.51079">
        <ele>1270</ele>
        <time>2024-07-14T09:09:50.000Z</time>
      </trkpt>
      <trkpt lat="45.03788" lon="5.51081">
        <ele>1270.4000244141</ele>
        <time>2024-07-14T09:09:51.000Z</time>
      </trkpt>
      <trkpt lat="45.03787" lon="5.51082">
        <ele>1270.5999755859</ele>
        <time>2024-07-14T09:09:52.000Z</time>
      </trkpt>
      <trkpt lat="45.03786" lon="5.51084">
        <ele>1270.8000488281</ele>
        <time>2024-07-14T09:09:53.000Z</time>
      </trkpt>
      <trkpt lat="45.03784" lon="5.51085">
        <ele>1270.8000488281</ele>
        <time>2024-07-14T09:09:54.000Z</time>
      </trkpt>
      <trkpt lat="45.03783" lon="5.51086">
        <ele>1271</ele>
        <time>2024-07-14T09:09:55.000Z</time>
      </trkpt>
      <trkpt lat="45.03782" lon="5.51087">
        <ele>1271.1999511719</ele>
        <time>2024-07-14T09:09:56.000Z</time>
      </trkpt>
      <trkpt lat="45.0378" lon="5.51088">
        <ele>1271.4000244141</ele>
        <time>2024-07-14T09:09:57.000Z</time>
      </trkpt>
      <trkpt lat="45.03779" lon="5.51089">
        <ele>1271.5999755859</ele>
        <time>2024-07-14T09:09:58.000Z</time>
      </trkpt>
      <trkpt lat="45.03778" lon="5.51091">
        <ele>1271.5999755859</ele>
        <time>2024-07-14T09:09:59.000Z</time>
      </trkpt>
      <trkpt lat="45.03778" lon="5.51092">
        <ele>1271.8000488281</ele>
        <time>2024-07-14T09:10:00.000Z</time>
      </trkpt>
      <trkpt lat="45.03777" lon="5.51093">
        <ele>1272</ele>
        <time>2024-07-14T09:10:01.000Z</time>
      </trkpt>
      <trkpt lat="45.03777" lon="5.51094">
        <ele>1272</ele>
        <time>2024-07-14T09:10:02.000Z</time>
      </trkpt>
      <trkpt lat="45.03776" lon="5.51096">
        <ele>1272</ele>
        <time>2024-07-14T09:10:03.000Z</time>
      </trkpt>
      <trkpt lat="45.03775" lon="5.51097">
        <ele>1272.1999511719</ele>
        <time>2024-07-14T09:10:04.000Z</time>
      </trkpt>
      <trkpt lat="45.03774" lon="5.51099">
        <ele>1272.4000244141</ele>
        <time>2024-07-14T09:10:05.000Z</time>
      </trkpt>
      <trkpt lat="45.03773" lon="5.511">
        <ele>1272.5999755859</ele>
        <time>2024-07-14T09:10:06.000Z</time>
      </trkpt>
      <trkpt lat="45.03773" lon="5.51102">
        <ele>1272.8000488281</ele>
        <time>2024-07-14T09:10:07.000Z</time>
      </trkpt>
      <trkpt lat="45.03772" lon="5.51103">
        <ele>1273</ele>
        <time>2024-07-14T09:10:08.000Z</time>
      </trkpt>
      <trkpt lat="45.03772" lon="5.51104">
        <ele>1273</ele>
        <time>2024-07-14T09:10:09.000Z</time>
      </trkpt>
      <trkpt lat="45.03772" lon="5.51105">
        <ele>1273</ele>
        <time>2024-07-14T09:10:10.000Z</time>
      </trkpt>
      <trkpt lat="45.03772" lon="5.51106">
        <ele>1273.1999511719</ele>
        <time>2024-07-14T09:10:11.000Z</time>
      </trkpt>
      <trkpt lat="45.03772" lon="5.51108">
        <ele>1273.1999511719</ele>
        <time>2024-07-14T09:10:12.000Z</time>
      </trkpt>
      <trkpt lat="45.03772" lon="5.5111">
        <ele>1273.4000244141</ele>
        <time>2024-07-14T09:10:13.000Z</time>
      </trkpt>
      <trkpt lat="45.03772" lon="5.51112">
        <ele>1273.5999755859</ele>
        <time>2024-07-14T09:10:14.000Z</time>
      </trkpt>
      <trkpt lat="45.03771" lon="5.51113">
        <ele>1273.8000488281</ele>
        <time>2024-07-14T09:10:15.000Z</time>
      </trkpt>
      <trkpt lat="45.03771" lon="5.51115">
        <ele>1274</ele>
        <time>2024-07-14T09:10:16.000Z</time>
      </trkpt>
      <trkpt lat="45.0377" lon="5.51117">
        <ele>1274.1999511719</ele>
        <time>2024-07-14T09:10:17.000Z</time>
      </trkpt>
      <trkpt lat="45.0377" lon="5.51119">
        <ele>1274.1999511719</ele>
        <time>2024-07-14T09:10:18.000Z</time>
      </trkpt>
      <trkpt lat="45.0377" lon="5.5112">
        <ele>1274.4000244141</ele>
        <time>2024-07-14T09:10:19.000Z</time>
      </trkpt>
      <trkpt lat="45.03769" lon="5.51122">
        <ele>1274.5999755859</ele>
        <time>2024-07-14T09:10:20.000Z</time>
      </trkpt>
      <trkpt lat="45.03769" lon="5.51124">
        <ele>1274.5999755859</ele>
        <time>2024-07-14T09:10:21.000Z</time>
      </trkpt>
      <trkpt lat="45.03768" lon="5.51127">
        <ele>1275</ele>
        <time>2024-07-14T09:10:22.000Z</time>
      </trkpt>
      <trkpt lat="45.03767" lon="5.51129">
        <ele>1275.1999511719</ele>
        <time>2024-07-14T09:10:23.000Z</time>
      </trkpt>
      <trkpt lat="45.03766" lon="5.51131">
        <ele>1275.1999511719</ele>
        <time>2024-07-14T09:10:24.000Z</time>
      </trkpt>
      <trkpt lat="45.03765" lon="5.51133">
        <ele>1275.4000244141</ele>
        <time>2024-07-14T09:10:25.000Z</time>
      </trkpt>
      <trkpt lat="45.03763" lon="5.51136">
        <ele>1275.8000488281</ele>
        <time>2024-07-14T09:10:26.000Z</time>
      </trkpt>
      <trkpt lat="45.03762" lon="5.51138">
        <ele>1275.8000488281</ele>
        <time>2024-07-14T09:10:27.000Z</time>
      </trkpt>
      <trkpt lat="45.0376" lon="5.5114">
        <ele>1275.8000488281</ele>
        <time>2024-07-14T09:10:28.000Z</time>
      </trkpt>
      <trkpt lat="45.03759" lon="5.51142">
        <ele>1276</ele>
        <time>2024-07-14T09:10:29.000Z</time>
      </trkpt>
      <trkpt lat="45.03757" lon="5.51145">
        <ele>1276</ele>
        <time>2024-07-14T09:10:30.000Z</time>
      </trkpt>
      <trkpt lat="45.03755" lon="5.51147">
        <ele>1276</ele>
        <time>2024-07-14T09:10:31.000Z</time>
      </trkpt>
      <trkpt lat="45.03753" lon="5.51149">
        <ele>1276</ele>
        <time>2024-07-14T09:10:32.000Z</time>
      </trkpt>
      <trkpt lat="45.03751" lon="5.5115">
        <ele>1276.1999511719</ele>
        <time>2024-07-14T09:10:33.000Z</time>
      </trkpt>
      <trkpt lat="45.03749" lon="5.51151">
        <ele>1276.5999755859</ele>
        <time>2024-07-14T09:10:34.000Z</time>
      </trkpt>
      <trkpt lat="45.03748" lon="5.51151">
        <ele>1276.8000488281</ele>
        <time>2024-07-14T09:10:35.000Z</time>
      </trkpt>
      <trkpt lat="45.03747" lon="5.51152">
        <ele>1277</ele>
        <time>2024-07-14T09:10:36.000Z</time>
      </trkpt>
      <trkpt lat="45.03745" lon="5.51153">
        <ele>1277.1999511719</ele>
        <time>2024-07-14T09:10:37.000Z</time>
      </trkpt>
      <trkpt lat="45.03743" lon="5.51154">
        <ele>1277.4000244141</ele>
        <time>2024-07-14T09:10:38.000Z</time>
      </trkpt>
      <trkpt lat="45.03741" lon="5.51156">
        <ele>1277.4000244141</ele>
        <time>2024-07-14T09:10:39.000Z</time>
      </trkpt>
      <trkpt lat="45.0374" lon="5.51157">
        <ele>1277.4000244141</ele>
        <time>2024-07-14T09:10:40.000Z</time>
      </trkpt>
      <trkpt lat="45.03738" lon="5.51158">
        <ele>1277.4000244141</ele>
        <time>2024-07-14T09:10:41.000Z</time>
      </trkpt>
      <trkpt lat="45.03736" lon="5.5116">
        <ele>1277.4000244141</ele>
        <time>2024-07-14T09:10:42.000Z</time>
      </trkpt>
      <trkpt lat="45.03734" lon="5.51162">
        <ele>1277.4000244141</ele>
        <time>2024-07-14T09:10:43.000Z</time>
      </trkpt>
      <trkpt lat="45.03733" lon="5.51164">
        <ele>1277.4000244141</ele>
        <time>2024-07-14T09:10:44.000Z</time>
      </trkpt>
      <trkpt lat="45.03732" lon="5.51166">
        <ele>1277.4000244141</ele>
        <time>2024-07-14T09:10:45.000Z</time>
      </trkpt>
      <trkpt lat="45.03731" lon="5.51167">
        <ele>1277.4000244141</ele>
        <time>2024-07-14T09:10:46.000Z</time>
      </trkpt>
      <trkpt lat="45.0373" lon="5.51169">
        <ele>1277.1999511719</ele>
        <time>2024-07-14T09:10:47.000Z</time>
      </trkpt>
      <trkpt lat="45.03729" lon="5.51173">
        <ele>1277.1999511719</ele>
        <time>2024-07-14T09:10:48.000Z</time>
      </trkpt>
      <trkpt lat="45.03727" lon="5.51176">
        <ele>1277.1999511719</ele>
        <time>2024-07-14T09:10:49.000Z</time>
      </trkpt>
      <trkpt lat="45.03725" lon="5.51178">
        <ele>1277</ele>
        <time>2024-07-14T09:10:50.000Z</time>
      </trkpt>
      <trkpt lat="45.03723" lon="5.5118">
        <ele>1277</ele>
        <time>2024-07-14T09:10:51.000Z</time>
      </trkpt>
      <trkpt lat="45.03722" lon="5.51182">
        <ele>1276.8000488281</ele>
        <time>2024-07-14T09:10:52.000Z</time>
      </trkpt>
      <trkpt lat="45.03721" lon="5.51183">
        <ele>1276.5999755859</ele>
        <time>2024-07-14T09:10:53.000Z</time>
      </trkpt>
      <trkpt lat="45.03719" lon="5.51185">
        <ele>1276.4000244141</ele>
        <time>2024-07-14T09:10:54.000Z</time>
      </trkpt>
      <trkpt lat="45.03718" lon="5.51187">
        <ele>1276.1999511719</ele>
        <time>2024-07-14T09:10:55.000Z</time>
      </trkpt>
      <trkpt lat="45.03718" lon="5.5119">
        <ele>1276</ele>
        <time>2024-07-14T09:10:56.000Z</time>
      </trkpt>
      <trkpt lat="45.03717" lon="5.51193">
        <ele>1275.8000488281</ele>
        <time>2024-07-14T09:10:57.000Z</time>
      </trkpt>
      <trkpt lat="45.03717" lon="5.51196">
        <ele>1275.5999755859</ele>
        <time>2024-07-14T09:10:58.000Z</time>
      </trkpt>
      <trkpt lat="45.03717" lon="5.51199">
        <ele>1275.4000244141</ele>
        <time>2024-07-14T09:10:59.000Z</time>
      </trkpt>
      <trkpt lat="45.03717" lon="5.51202">
        <ele>1275.4000244141</ele>
        <time>2024-07-14T09:11:00.000Z</time>
      </trkpt>
      <trkpt lat="45.03717" lon="5.51205">
        <ele>1275.1999511719</ele>
        <time>2024-07-14T09:11:01.000Z</time>
      </trkpt>
      <trkpt lat="45.03716" lon="5.51207">
        <ele>1275.1999511719</ele>
        <time>2024-07-14T09:11:02.000Z</time>
      </trkpt>
      <trkpt lat="45.03716" lon="5.5121">
        <ele>1275.1999511719</ele>
        <time>2024-07-14T09:11:03.000Z</time>
      </trkpt>
      <trkpt lat="45.03715" lon="5.51213">
        <ele>1275</ele>
        <time>2024-07-14T09:11:04.000Z</time>
      </trkpt>
      <trkpt lat="45.03715" lon="5.51216">
        <ele>1275</ele>
        <time>2024-07-14T09:11:05.000Z</time>
      </trkpt>
      <trkpt lat="45.03714" lon="5.51219">
        <ele>1275</ele>
        <time>2024-07-14T09:11:06.000Z</time>
      </trkpt>
      <trkpt lat="45.03713" lon="5.51221">
        <ele>1274.8000488281</ele>
        <time>2024-07-14T09:11:07.000Z</time>
      </trkpt>
      <trkpt lat="45.03712" lon="5.51225">
        <ele>1274.5999755859</ele>
        <time>2024-07-14T09:11:08.000Z</time>
      </trkpt>
      <trkpt lat="45.03711" lon="5.51228">
        <ele>1274.4000244141</ele>
        <time>2024-07-14T09:11:09.000Z</time>
      </trkpt>
      <trkpt lat="45.0371" lon="5.51231">
        <ele>1274</ele>
        <time>2024-07-14T09:11:10.000Z</time>
      </trkpt>
      <trkpt lat="45.0371" lon="5.51234">
        <ele>1273.5999755859</ele>
        <time>2024-07-14T09:11:11.000Z</time>
      </trkpt>
      <trkpt lat="45.03709" lon="5.51237">
        <ele>1273.4000244141</ele>
        <time>2024-07-14T09:11:12.000Z</time>
      </trkpt>
      <trkpt lat="45.03709" lon="5.5124">
        <ele>1273.4000244141</ele>
        <time>2024-07-14T09:11:13.000Z</time>
      </trkpt>
      <trkpt lat="45.03708" lon="5.51243">
        <ele>1273.4000244141</ele>
        <time>2024-07-14T09:11:14.000Z</time>
      </trkpt>
      <trkpt lat="45.03707" lon="5.51246">
        <ele>1273.4000244141</ele>
        <time>2024-07-14T09:11:15.000Z</time>
      </trkpt>
      <trkpt lat="45.03706" lon="5.51248">
        <ele>1273.4000244141</ele>
        <time>2024-07-14T09:11:16.000Z</time>
      </trkpt>
      <trkpt lat="45.03704" lon="5.51251">
        <ele>1273.5999755859</ele>
        <time>2024-07-14T09:11:17.000Z</time>
      </trkpt>
      <trkpt lat="45.03703" lon="5.51252">
        <ele>1273.5999755859</ele>
        <time>2024-07-14T09:11:18.000Z</time>
      </trkpt>
      <trkpt lat="45.03701" lon="5.51254">
        <ele>1273.5999755859</ele>
        <time>2024-07-14T09:11:19.000Z</time>
      </trkpt>
      <trkpt lat="45.037" lon="5.51256">
        <ele>1273.5999755859</ele>
        <time>2024-07-14T09:11:20.000Z</time>
      </trkpt>
      <trkpt lat="45.03698" lon="5.51257">
        <ele>1273.4000244141</ele>
        <time>2024-07-14T09:11:21.000Z</time>
      </trkpt>
      <trkpt lat="45.03696" lon="5.51259">
        <ele>1273.4000244141</ele>
        <time>2024-07-14T09:11:22.000Z</time>
      </trkpt>
      <trkpt lat="45.03694" lon="5.51259">
        <ele>1273.1999511719</ele>
        <time>2024-07-14T09:11:23.000Z</time>
      </trkpt>
      <trkpt lat="45.03693" lon="5.5126">
        <ele>1273</ele>
        <time>2024-07-14T09:11:24.000Z</time>
      </trkpt>
      <trkpt lat="45.03691" lon="5.51261">
        <ele>1272.8000488281</ele>
        <time>2024-07-14T09:11:25.000Z</time>
      </trkpt>
      <trkpt lat="45.03689" lon="5.51262">
        <ele>1272.5999755859</ele>
        <time>2024-07-14T09:11:26.000Z</time>
      </trkpt>
      <trkpt lat="45.03686" lon="5.51264">
        <ele>1272.4000244141</ele>
        <time>2024-07-14T09:11:27.000Z</time>
      </trkpt>
      <trkpt lat="45.03684" lon="5.51265">
        <ele>1272</ele>
        <time>2024-07-14T09:11:28.000Z</time>
      </trkpt>
      <trkpt lat="45.03682" lon="5.51267">
        <ele>1271.5999755859</ele>
        <time>2024-07-14T09:11:29.000Z</time>
      </trkpt>
      <trkpt lat="45.0368" lon="5.51269">
        <ele>1271.4000244141</ele>
        <time>2024-07-14T09:11:30.000Z</time>
      </trkpt>
      <trkpt lat="45.03678" lon="5.51271">
        <ele>1270.8000488281</ele>
        <time>2024-07-14T09:11:31.000Z</time>
      </trkpt>
      <trkpt lat="45.03676" lon="5.51274">
        <ele>1270.5999755859</ele>
        <time>2024-07-14T09:11:32.000Z</time>
      </trkpt>
      <trkpt lat="45.03675" lon="5.51277">
        <ele>1270.5999755859</ele>
        <time>2024-07-14T09:11:33.000Z</time>
      </trkpt>
      <trkpt lat="45.03673" lon="5.51279">
        <ele>1270.4000244141</ele>
        <time>2024-07-14T09:11:34.000Z</time>
      </trkpt>
      <trkpt lat="45.03671" lon="5.51282">
        <ele>1270.1999511719</ele>
        <time>2024-07-14T09:11:35.000Z</time>
      </trkpt>
      <trkpt lat="45.0367" lon="5.51284">
        <ele>1270.1999511719</ele>
        <time>2024-07-14T09:11:36.000Z</time>
      </trkpt>
      <trkpt lat="45.03668" lon="5.51285">
        <ele>1270</ele>
        <time>2024-07-14T09:11:37.000Z</time>
      </trkpt>
      <trkpt lat="45.03666" lon="5.51287">
        <ele>1269.8000488281</ele>
        <time>2024-07-14T09:11:38.000Z</time>
      </trkpt>
      <trkpt lat="45.03664" lon="5.51289">
        <ele>1269.8000488281</ele>
        <time>2024-07-14T09:11:39.000Z</time>
      </trkpt>
      <trkpt lat="45.03662" lon="5.51291">
        <ele>1269.4000244141</ele>
        <time>2024-07-14T09:11:40.000Z</time>
      </trkpt>
      <trkpt lat="45.0366" lon="5.51293">
        <ele>1269.4000244141</ele>
        <time>2024-07-14T09:11:41.000Z</time>
      </trkpt>
      <trkpt lat="45.03657" lon="5.51294">
        <ele>1269.1999511719</ele>
        <time>2024-07-14T09:11:42.000Z</time>
      </trkpt>
      <trkpt lat="45.03655" lon="5.51296">
        <ele>1268.8000488281</ele>
        <time>2024-07-14T09:11:43.000Z</time>
      </trkpt>
      <trkpt lat="45.03653" lon="5.51297">
        <ele>1268.5999755859</ele>
        <time>2024-07-14T09:11:44.000Z</time>
      </trkpt>
      <trkpt lat="45.03651" lon="5.51299">
        <ele>1268.1999511719</ele>
        <time>2024-07-14T09:11:45.000Z</time>
      </trkpt>
      <trkpt lat="45.03649" lon="5.513">
        <ele>1267.8000488281</ele>
        <time>2024-07-14T09:11:46.000Z</time>
      </trkpt>
      <trkpt lat="45.03647" lon="5.51302">
        <ele>1267.8000488281</ele>
        <time>2024-07-14T09:11:47.000Z</time>
      </trkpt>
      <trkpt lat="45.03645" lon="5.51303">
        <ele>1267.5999755859</ele>
        <time>2024-07-14T09:11:48.000Z</time>
      </trkpt>
      <trkpt lat="45.03644" lon="5.51305">
        <ele>1267.4000244141</ele>
        <time>2024-07-14T09:11:49.000Z</time>
      </trkpt>
      <trkpt lat="45.03642" lon="5.51307">
        <ele>1267.1999511719</ele>
        <time>2024-07-14T09:11:50.000Z</time>
      </trkpt>
      <trkpt lat="45.03641" lon="5.51308">
        <ele>1267</ele>
        <time>2024-07-14T09:11:51.000Z</time>
      </trkpt>
      <trkpt lat="45.03639" lon="5.5131">
        <ele>1266.8000488281</ele>
        <time>2024-07-14T09:11:52.000Z</time>
      </trkpt>
      <trkpt lat="45.03637" lon="5.51312">
        <ele>1266.5999755859</ele>
        <time>2024-07-14T09:11:53.000Z</time>
      </trkpt>
      <trkpt lat="45.03636" lon="5.51313">
        <ele>1266.4000244141</ele>
        <time>2024-07-14T09:11:54.000Z</time>
      </trkpt>
      <trkpt lat="45.03634" lon="5.51315">
        <ele>1266</ele>
        <time>2024-07-14T09:11:55.000Z</time>
      </trkpt>
      <trkpt lat="45.03632" lon="5.51315">
        <ele>1265.5999755859</ele>
        <time>2024-07-14T09:11:56.000Z</time>
      </trkpt>
      <trkpt lat="45.03631" lon="5.51316">
        <ele>1265.4000244141</ele>
        <time>2024-07-14T09:11:57.000Z</time>
      </trkpt>
      <trkpt lat="45.03628" lon="5.51317">
        <ele>1265.1999511719</ele>
        <time>2024-07-14T09:11:58.000Z</time>
      </trkpt>
      <trkpt lat="45.03626" lon="5.51318">
        <ele>1265</ele>
        <time>2024-07-14T09:11:59.000Z</time>
      </trkpt>
      <trkpt lat="45.03624" lon="5.51319">
        <ele>1264.8000488281</ele>
        <time>2024-07-14T09:12:00.000Z</time>
      </trkpt>
      <trkpt lat="45.03622" lon="5.51321">
        <ele>1264.4000244141</ele>
        <time>2024-07-14T09:12:01.000Z</time>
      </trkpt>
      <trkpt lat="45.03621" lon="5.51323">
        <ele>1264.1999511719</ele>
        <time>2024-07-14T09:12:02.000Z</time>
      </trkpt>
      <trkpt lat="45.0362" lon="5.51325">
        <ele>1264.1999511719</ele>
        <time>2024-07-14T09:12:03.000Z</time>
      </trkpt>
      <trkpt lat="45.03619" lon="5.51328">
        <ele>1263.8000488281</ele>
        <time>2024-07-14T09:12:04.000Z</time>
      </trkpt>
      <trkpt lat="45.03617" lon="5.51331">
        <ele>1263.5999755859</ele>
        <time>2024-07-14T09:12:05.000Z</time>
      </trkpt>
      <trkpt lat="45.03617" lon="5.51333">
        <ele>1263.4000244141</ele>
        <time>2024-07-14T09:12:06.000Z</time>
      </trkpt>
      <trkpt lat="45.03616" lon="5.51336">
        <ele>1263.1999511719</ele>
        <time>2024-07-14T09:12:07.000Z</time>
      </trkpt>
      <trkpt lat="45.03615" lon="5.51339">
        <ele>1263</ele>
        <time>2024-07-14T09:12:08.000Z</time>
      </trkpt>
      <trkpt lat="45.03614" lon="5.51342">
        <ele>1262.8000488281</ele>
        <time>2024-07-14T09:12:09.000Z</time>
      </trkpt>
      <trkpt lat="45.03612" lon="5.51345">
        <ele>1262.5999755859</ele>
        <time>2024-07-14T09:12:10.000Z</time>
      </trkpt>
      <trkpt lat="45.03611" lon="5.51348">
        <ele>1262.4000244141</ele>
        <time>2024-07-14T09:12:11.000Z</time>
      </trkpt>
      <trkpt lat="45.0361" lon="5.51352">
        <ele>1261.8000488281</ele>
        <time>2024-07-14T09:12:12.000Z</time>
      </trkpt>
      <trkpt lat="45.03609" lon="5.51355">
        <ele>1261.5999755859</ele>
        <time>2024-07-14T09:12:13.000Z</time>
      </trkpt>
      <trkpt lat="45.03608" lon="5.51359">
        <ele>1261.4000244141</ele>
        <time>2024-07-14T09:12:14.000Z</time>
      </trkpt>
      <trkpt lat="45.03608" lon="5.51363">
        <ele>1261.1999511719</ele>
        <time>2024-07-14T09:12:15.000Z</time>
      </trkpt>
      <trkpt lat="45.03607" lon="5.51367">
        <ele>1261</ele>
        <time>2024-07-14T09:12:16.000Z</time>
      </trkpt>
      <trkpt lat="45.03607" lon="5.51371">
        <ele>1260.5999755859</ele>
        <time>2024-07-14T09:12:17.000Z</time>
      </trkpt>
      <trkpt lat="45.03607" lon="5.51375">
        <ele>1260.5999755859</ele>
        <time>2024-07-14T09:12:18.000Z</time>
      </trkpt>
      <trkpt lat="45.03607" lon="5.5138">
        <ele>1260.4000244141</ele>
        <time>2024-07-14T09:12:19.000Z</time>
      </trkpt>
      <trkpt lat="45.03606" lon="5.51384">
        <ele>1260.4000244141</ele>
        <time>2024-07-14T09:12:20.000Z</time>
      </trkpt>
      <trkpt lat="45.03605" lon="5.51387">
        <ele>1260.4000244141</ele>
        <time>2024-07-14T09:12:21.000Z</time>
      </trkpt>
      <trkpt lat="45.03604" lon="5.5139">
        <ele>1260.4000244141</ele>
        <time>2024-07-14T09:12:22.000Z</time>
      </trkpt>
      <trkpt lat="45.03603" lon="5.51392">
        <ele>1260.5999755859</ele>
        <time>2024-07-14T09:12:23.000Z</time>
      </trkpt>
      <trkpt lat="45.03602" lon="5.51395">
        <ele>1260.5999755859</ele>
        <time>2024-07-14T09:12:24.000Z</time>
      </trkpt>
      <trkpt lat="45.03601" lon="5.51398">
        <ele>1260.8000488281</ele>
        <time>2024-07-14T09:12:25.000Z</time>
      </trkpt>
      <trkpt lat="45.036" lon="5.51401">
        <ele>1261</ele>
        <time>2024-07-14T09:12:26.000Z</time>
      </trkpt>
      <trkpt lat="45.03599" lon="5.51404">
        <ele>1261</ele>
        <time>2024-07-14T09:12:27.000Z</time>
      </trkpt>
      <trkpt lat="45.03598" lon="5.51406">
        <ele>1261</ele>
        <time>2024-07-14T09:12:28.000Z</time>
      </trkpt>
      <trkpt lat="45.03598" lon="5.51409">
        <ele>1261.1999511719</ele>
        <time>2024-07-14T09:12:29.000Z</time>
      </trkpt>
      <trkpt lat="45.03597" lon="5.51412">
        <ele>1261.4000244141</ele>
        <time>2024-07-14T09:12:30.000Z</time>
      </trkpt>
      <trkpt lat="45.03596" lon="5.51414">
        <ele>1261.5999755859</ele>
        <time>2024-07-14T09:12:31.000Z</time>
      </trkpt>
      <trkpt lat="45.03594" lon="5.51417">
        <ele>1262</ele>
        <time>2024-07-14T09:12:32.000Z</time>
      </trkpt>
      <trkpt lat="45.03593" lon="5.5142">
        <ele>1262.1999511719</ele>
        <time>2024-07-14T09:12:33.000Z</time>
      </trkpt>
      <trkpt lat="45.03591" lon="5.51422">
        <ele>1262.4000244141</ele>
        <time>2024-07-14T09:12:34.000Z</time>
      </trkpt>
      <trkpt lat="45.0359" lon="5.51425">
        <ele>1262.4000244141</ele>
        <time>2024-07-14T09:12:35.000Z</time>
      </trkpt>
      <trkpt lat="45.03588" lon="5.51426">
        <ele>1262.5999755859</ele>
        <time>2024-07-14T09:12:36.000Z</time>
      </trkpt>
      <trkpt lat="45.03586" lon="5.51428">
        <ele>1262.5999755859</ele>
        <time>2024-07-14T09:12:37.000Z</time>
      </trkpt>
      <trkpt lat="45.03584" lon="5.51429">
        <ele>1262.4000244141</ele>
        <time>2024-07-14T09:12:38.000Z</time>
      </trkpt>
      <trkpt lat="45.03582" lon="5.51431">
        <ele>1262.4000244141</ele>
        <time>2024-07-14T09:12:39.000Z</time>
      </trkpt>
      <trkpt lat="45.0358" lon="5.51432">
        <ele>1262.1999511719</ele>
        <time>2024-07-14T09:12:40.000Z</time>
      </trkpt>
      <trkpt lat="45.03577" lon="5.51433">
        <ele>1262</ele>
        <time>2024-07-14T09:12:41.000Z</time>
      </trkpt>
      <trkpt lat="45.03574" lon="5.51434">
        <ele>1261.8000488281</ele>
        <time>2024-07-14T09:12:42.000Z</time>
      </trkpt>
      <trkpt lat="45.03572" lon="5.51434">
        <ele>1261.8000488281</ele>
        <time>2024-07-14T09:12:43.000Z</time>
      </trkpt>
      <trkpt lat="45.03569" lon="5.51434">
        <ele>1261.8000488281</ele>
        <time>2024-07-14T09:12:44.000Z</time>
      </trkpt>
      <trkpt lat="45.03567" lon="5.51433">
        <ele>1261.5999755859</ele>
        <time>2024-07-14T09:12:45.000Z</time>
      </trkpt>
      <trkpt lat="45.03564" lon="5.51433">
        <ele>1261.5999755859</ele>
        <time>2024-07-14T09:12:46.000Z</time>
      </trkpt>
      <trkpt lat="45.03562" lon="5.51433">
        <ele>1261.5999755859</ele>
        <time>2024-07-14T09:12:47.000Z</time>
      </trkpt>
      <trkpt lat="45.0356" lon="5.51433">
        <ele>1261.5999755859</ele>
        <time>2024-07-14T09:12:48.000Z</time>
      </trkpt>
      <trkpt lat="45.03558" lon="5.51436">
        <ele>1261.8000488281</ele>
        <time>2024-07-14T09:12:49.000Z</time>
      </trkpt>
      <trkpt lat="45.03556" lon="5.51438">
        <ele>1262</ele>
        <time>2024-07-14T09:12:50.000Z</time>
      </trkpt>
      <trkpt lat="45.03555" lon="5.5144">
        <ele>1262.1999511719</ele>
        <time>2024-07-14T09:12:51.000Z</time>
      </trkpt>
      <trkpt lat="45.03553" lon="5.51443">
        <ele>1262.5999755859</ele>
        <time>2024-07-14T09:12:52.000Z</time>
      </trkpt>
      <trkpt lat="45.03552" lon="5.51445">
        <ele>1262.5999755859</ele>
        <time>2024-07-14T09:12:53.000Z</time>
      </trkpt>
      <trkpt lat="45.0355" lon="5.51447">
        <ele>1262.5999755859</ele>
        <time>2024-07-14T09:12:54.000Z</time>
      </trkpt>
      <trkpt lat="45.03549" lon="5.5145">
        <ele>1262.5999755859</ele>
        <time>2024-07-14T09:12:55.000Z</time>
      </trkpt>
      <trkpt lat="45.03547" lon="5.51453">
        <ele>1262.5999755859</ele>
        <time>2024-07-14T09:12:56.000Z</time>
      </trkpt>
      <trkpt lat="45.03546" lon="5.51455">
        <ele>1262.5999755859</ele>
        <time>2024-07-14T09:12:57.000Z</time>
      </trkpt>
      <trkpt lat="45.03545" lon="5.51458">
        <ele>1262.5999755859</ele>
        <time>2024-07-14T09:12:58.000Z</time>
      </trkpt>
      <trkpt lat="45.03543" lon="5.51461">
        <ele>1262.5999755859</ele>
        <time>2024-07-14T09:12:59.000Z</time>
      </trkpt>
      <trkpt lat="45.03542" lon="5.51464">
        <ele>1262.4000244141</ele>
        <time>2024-07-14T09:13:00.000Z</time>
      </trkpt>
      <trkpt lat="45.0354" lon="5.51467">
        <ele>1262.1999511719</ele>
        <time>2024-07-14T09:13:01.000Z</time>
      </trkpt>
      <trkpt lat="45.03539" lon="5.5147">
        <ele>1261.8000488281</ele>
        <time>2024-07-14T09:13:02.000Z</time>
      </trkpt>
      <trkpt lat="45.03537" lon="5.51474">
        <ele>1261.5999755859</ele>
        <time>2024-07-14T09:13:03.000Z</time>
      </trkpt>
      <trkpt lat="45.03536" lon="5.51476">
        <ele>1261.5999755859</ele>
        <time>2024-07-14T09:13:04.000Z</time>
      </trkpt>
      <trkpt lat="45.03534" lon="5.51479">
        <ele>1261.4000244141</ele>
        <time>2024-07-14T09:13:05.000Z</time>
      </trkpt>
      <trkpt lat="45.03533" lon="5.51482">
        <ele>1261.4000244141</ele>
        <time>2024-07-14T09:13:06.000Z</time>
      </trkpt>
      <trkpt lat="45.03532" lon="5.51484">
        <ele>1261.1999511719</ele>
        <time>2024-07-14T09:13:07.000Z</time>
      </trkpt>
      <trkpt lat="45.0353" lon="5.51487">
        <ele>1261</ele>
        <time>2024-07-14T09:13:08.000Z</time>
      </trkpt>
      <trkpt lat="45.03529" lon="5.51489">
        <ele>1260.8000488281</ele>
        <time>2024-07-14T09:13:09.000Z</time>
      </trkpt>
      <trkpt lat="45.03528" lon="5.51491">
        <ele>1260.5999755859</ele>
        <time>2024-07-14T09:13:10.000Z</time>
      </trkpt>
      <trkpt lat="45.03528" lon="5.51494">
        <ele>1260.5999755859</ele>
        <time>2024-07-14T09:13:11.000Z</time>
      </trkpt>
      <trkpt lat="45.03527" lon="5.51497">
        <ele>1260.4000244141</ele>
        <time>2024-07-14T09:13:12.000Z</time>
      </trkpt>
      <trkpt lat="45.03526" lon="5.51501">
        <ele>1260.1999511719</ele>
        <time>2024-07-14T09:13:13.000Z</time>
      </trkpt>
      <trkpt lat="45.03526" lon="5.51504">
        <ele>1260</ele>
        <time>2024-07-14T09:13:14.000Z</time>
      </trkpt>
      <trkpt lat="45.03525" lon="5.51508">
        <ele>1259.5999755859</ele>
        <time>2024-07-14T09:13:15.000Z</time>
      </trkpt>
      <trkpt lat="45.03525" lon="5.51512">
        <ele>1259.1999511719</ele>
        <time>2024-07-14T09:13:16.000Z</time>
      </trkpt>
      <trkpt lat="45.03525" lon="5.51516">
        <ele>1259.1999511719</ele>
        <time>2024-07-14T09:13:17.000Z</time>
      </trkpt>
      <trkpt lat="45.03524" lon="5.51519">
        <ele>1259</ele>
        <time>2024-07-14T09:13:18.000Z</time>
      </trkpt>
      <trkpt lat="45.03523" lon="5.51523">
        <ele>1258.8000488281</ele>
        <time>2024-07-14T09:13:19.000Z</time>
      </trkpt>
      <trkpt lat="45.03523" lon="5.51526">
        <ele>1258.5999755859</ele>
        <time>2024-07-14T09:13:20.000Z</time>
      </trkpt>
      <trkpt lat="45.03522" lon="5.51529">
        <ele>1258.4000244141</ele>
        <time>2024-07-14T09:13:21.000Z</time>
      </trkpt>
      <trkpt lat="45.03521" lon="5.51531">
        <ele>1258</ele>
        <time>2024-07-14T09:13:22.000Z</time>
      </trkpt>
      <trkpt lat="45.0352" lon="5.51534">
        <ele>1257.5999755859</ele>
        <time>2024-07-14T09:13:23.000Z</time>
      </trkpt>
      <trkpt lat="45.03519" lon="5.51537">
        <ele>1257.4000244141</ele>
        <time>2024-07-14T09:13:24.000Z</time>
      </trkpt>
      <trkpt lat="45.03518" lon="5.51539">
        <ele>1257.4000244141</ele>
        <time>2024-07-14T09:13:25.000Z</time>
      </trkpt>
      <trkpt lat="45.03517" lon="5.51542">
        <ele>1257.1999511719</ele>
        <time>2024-07-14T09:13:26.000Z</time>
      </trkpt>
      <trkpt lat="45.03516" lon="5.51545">
        <ele>1257</ele>
        <time>2024-07-14T09:13:27.000Z</time>
      </trkpt>
      <trkpt lat="45.03515" lon="5.51549">
        <ele>1257</ele>
        <time>2024-07-14T09:13:28.000Z</time>
      </trkpt>
      <trkpt lat="45.03513" lon="5.51552">
        <ele>1256.8000488281</ele>
        <time>2024-07-14T09:13:29.000Z</time>
      </trkpt>
      <trkpt lat="45.03512" lon="5.51555">
        <ele>1256.4000244141</ele>
        <time>2024-07-14T09:13:30.000Z</time>
      </trkpt>
      <trkpt lat="45.03511" lon="5.51557">
        <ele>1256.1999511719</ele>
        <time>2024-07-14T09:13:31.000Z</time>
      </trkpt>
      <trkpt lat="45.0351" lon="5.5156">
        <ele>1256</ele>
        <time>2024-07-14T09:13:32.000Z</time>
      </trkpt>
      <trkpt lat="45.03509" lon="5.51562">
        <ele>1255.5999755859</ele>
        <time>2024-07-14T09:13:33.000Z</time>
      </trkpt>
      <trkpt lat="45.03508" lon="5.51564">
        <ele>1255.5999755859</ele>
        <time>2024-07-14T09:13:34.000Z</time>
      </trkpt>
      <trkpt lat="45.03506" lon="5.51566">
        <ele>1255.1999511719</ele>
        <time>2024-07-14T09:13:35.000Z</time>
      </trkpt>
      <trkpt lat="45.03505" lon="5.51567">
        <ele>1254.8000488281</ele>
        <time>2024-07-14T09:13:36.000Z</time>
      </trkpt>
      <trkpt lat="45.03504" lon="5.51569">
        <ele>1254.4000244141</ele>
        <time>2024-07-14T09:13:37.000Z</time>
      </trkpt>
      <trkpt lat="45.03502" lon="5.51571">
        <ele>1254</ele>
        <time>2024-07-14T09:13:38.000Z</time>
      </trkpt>
      <trkpt lat="45.03501" lon="5.51573">
        <ele>1253.8000488281</ele>
        <time>2024-07-14T09:13:39.000Z</time>
      </trkpt>
      <trkpt lat="45.035" lon="5.51575">
        <ele>1253.5999755859</ele>
        <time>2024-07-14T09:13:40.000Z</time>
      </trkpt>
      <trkpt lat="45.03498" lon="5.51577">
        <ele>1253.1999511719</ele>
        <time>2024-07-14T09:13:41.000Z</time>
      </trkpt>
      <trkpt lat="45.03497" lon="5.51579">
        <ele>1253</ele>
        <time>2024-07-14T09:13:42.000Z</time>
      </trkpt>
      <trkpt lat="45.03495" lon="5.51582">
        <ele>1252.8000488281</ele>
        <time>2024-07-14T09:13:43.000Z</time>
      </trkpt>
      <trkpt lat="45.03493" lon="5.51584">
        <ele>1252.4000244141</ele>
        <time>2024-07-14T09:13:44.000Z</time>
      </trkpt>
      <trkpt lat="45.03491" lon="5.51586">
        <ele>1251.8000488281</ele>
        <time>2024-07-14T09:13:45.000Z</time>
      </trkpt>
      <trkpt lat="45.0349" lon="5.51589">
        <ele>1251.5999755859</ele>
        <time>2024-07-14T09:13:46.000Z</time>
      </trkpt>
      <trkpt lat="45.03488" lon="5.51591">
        <ele>1251.1999511719</ele>
        <time>2024-07-14T09:13:47.000Z</time>
      </trkpt>
      <trkpt lat="45.03486" lon="5.51593">
        <ele>1250.8000488281</ele>
        <time>2024-07-14T09:13:48.000Z</time>
      </trkpt>
      <trkpt lat="45.03485" lon="5.51596">
        <ele>1250.1999511719</ele>
        <time>2024-07-14T09:13:49.000Z</time>
      </trkpt>
      <trkpt lat="45.03483" lon="5.51598">
        <ele>1249.5999755859</ele>
        <time>2024-07-14T09:13:50.000Z</time>
      </trkpt>
      <trkpt lat="45.03483" lon="5.516">
        <ele>1249.5999755859</ele>
        <time>2024-07-14T09:13:51.000Z</time>
      </trkpt>
      <trkpt lat="45.03482" lon="5.51602">
        <ele>1249.1999511719</ele>
        <time>2024-07-14T09:13:52.000Z</time>
      </trkpt>
      <trkpt lat="45.0348" lon="5.51604">
        <ele>1248.8000488281</ele>
        <time>2024-07-14T09:13:53.000Z</time>
      </trkpt>
      <trkpt lat="45.03479" lon="5.51606">
        <ele>1248.1999511719</ele>
        <time>2024-07-14T09:13:54.000Z</time>
      </trkpt>
      <trkpt lat="45.03477" lon="5.51607">
        <ele>1247.4000244141</ele>
        <time>2024-07-14T09:13:55.000Z</time>
      </trkpt>
      <trkpt lat="45.03475" lon="5.51609">
        <ele>1247</ele>
        <time>2024-07-14T09:13:56.000Z</time>
      </trkpt>
      <trkpt lat="45.03473" lon="5.51612">
        <ele>1246.8000488281</ele>
        <time>2024-07-14T09:13:57.000Z</time>
      </trkpt>
      <trkpt lat="45.03471" lon="5.51614">
        <ele>1246.4000244141</ele>
        <time>2024-07-14T09:13:58.000Z</time>
      </trkpt>
      <trkpt lat="45.0347" lon="5.51617">
        <ele>1246</ele>
        <time>2024-07-14T09:13:59.000Z</time>
      </trkpt>
      <trkpt lat="45.03468" lon="5.5162">
        <ele>1245.4000244141</ele>
        <time>2024-07-14T09:14:00.000Z</time>
      </trkpt>
      <trkpt lat="45.03467" lon="5.51622">
        <ele>1245.1999511719</ele>
        <time>2024-07-14T09:14:01.000Z</time>
      </trkpt>
      <trkpt lat="45.03465" lon="5.51623">
        <ele>1244.8000488281</ele>
        <time>2024-07-14T09:14:02.000Z</time>
      </trkpt>
      <trkpt lat="45.03463" lon="5.51624">
        <ele>1244.4000244141</ele>
        <time>2024-07-14T09:14:03.000Z</time>
      </trkpt>
      <trkpt lat="45.03462" lon="5.51624">
        <ele>1243.5999755859</ele>
        <time>2024-07-14T09:14:04.000Z</time>
      </trkpt>
      <trkpt lat="45.0346" lon="5.51624">
        <ele>1243.4000244141</ele>
        <time>2024-07-14T09:14:05.000Z</time>
      </trkpt>
      <trkpt lat="45.03458" lon="5.51625">
        <ele>1242.8000488281</ele>
        <time>2024-07-14T09:14:06.000Z</time>
      </trkpt>
      <trkpt lat="45.03456" lon="5.51626">
        <ele>1242.5999755859</ele>
        <time>2024-07-14T09:14:07.000Z</time>
      </trkpt>
      <trkpt lat="45.03456" lon="5.51627">
        <ele>1242</ele>
        <time>2024-07-14T09:14:08.000Z</time>
      </trkpt>
      <trkpt lat="45.03454" lon="5.51629">
        <ele>1241.5999755859</ele>
        <time>2024-07-14T09:14:09.000Z</time>
      </trkpt>
      <trkpt lat="45.03452" lon="5.5163">
        <ele>1241.1999511719</ele>
        <time>2024-07-14T09:14:10.000Z</time>
      </trkpt>
      <trkpt lat="45.03451" lon="5.51632">
        <ele>1240.8000488281</ele>
        <time>2024-07-14T09:14:11.000Z</time>
      </trkpt>
      <trkpt lat="45.03449" lon="5.51633">
        <ele>1240.4000244141</ele>
        <time>2024-07-14T09:14:12.000Z</time>
      </trkpt>
      <trkpt lat="45.03448" lon="5.51636">
        <ele>1240.1999511719</ele>
        <time>2024-07-14T09:14:13.000Z</time>
      </trkpt>
      <trkpt lat="45.03446" lon="5.51637">
        <ele>1239.8000488281</ele>
        <time>2024-07-14T09:14:14.000Z</time>
      </trkpt>
      <trkpt lat="45.03444" lon="5.51639">
        <ele>1239.4000244141</ele>
        <time>2024-07-14T09:14:15.000Z</time>
      </trkpt>
      <trkpt lat="45.03442" lon="5.51642">
        <ele>1239.1999511719</ele>
        <time>2024-07-14T09:14:16.000Z</time>
      </trkpt>
      <trkpt lat="45.03441" lon="5.51644">
        <ele>1239</ele>
        <time>2024-07-14T09:14:17.000Z</time>
      </trkpt>
      <trkpt lat="45.03439" lon="5.51646">
        <ele>1238.5999755859</ele>
        <time>2024-07-14T09:14:18.000Z</time>
      </trkpt>
      <trkpt lat="45.03437" lon="5.51648">
        <ele>1238.4000244141</ele>
        <time>2024-07-14T09:14:19.000Z</time>
      </trkpt>
      <trkpt lat="45.03435" lon="5.5165">
        <ele>1238</ele>
        <time>2024-07-14T09:14:20.000Z</time>
      </trkpt>
      <trkpt lat="45.03433" lon="5.51652">
        <ele>1237.5999755859</ele>
        <time>2024-07-14T09:14:21.000Z</time>
      </trkpt>
      <trkpt lat="45.03431" lon="5.51654">
        <ele>1237.4000244141</ele>
        <time>2024-07-14T09:14:22.000Z</time>
      </trkpt>
      <trkpt lat="45.0343" lon="5.51657">
        <ele>1237.1999511719</ele>
        <time>2024-07-14T09:14:23.000Z</time>
      </trkpt>
      <trkpt lat="45.03429" lon="5.51659">
        <ele>1236.8000488281</ele>
        <time>2024-07-14T09:14:24.000Z</time>
      </trkpt>
      <trkpt lat="45.03428" lon="5.51662">
        <ele>1236.5999755859</ele>
        <time>2024-07-14T09:14:25.000Z</time>
      </trkpt>
      <trkpt lat="45.03427" lon="5.51665">
        <ele>1236.4000244141</ele>
        <time>2024-07-14T09:14:26.000Z</time>
      </trkpt>
      <trkpt lat="45.03426" lon="5.51667">
        <ele>1236.1999511719</ele>
        <time>2024-07-14T09:14:27.000Z</time>
      </trkpt>
      <trkpt lat="45.03425" lon="5.51671">
        <ele>1236</ele>
        <time>2024-07-14T09:14:28.000Z</time>
      </trkpt>
      <trkpt lat="45.03424" lon="5.51673">
        <ele>1235.8000488281</ele>
        <time>2024-07-14T09:14:29.000Z</time>
      </trkpt>
      <trkpt lat="45.03423" lon="5.51676">
        <ele>1235.1999511719</ele>
        <time>2024-07-14T09:14:30.000Z</time>
      </trkpt>
      <trkpt lat="45.03423" lon="5.51679">
        <ele>1234.8000488281</ele>
        <time>2024-07-14T09:14:31.000Z</time>
      </trkpt>
      <trkpt lat="45.03422" lon="5.51682">
        <ele>1234.4000244141</ele>
        <time>2024-07-14T09:14:32.000Z</time>
      </trkpt>
      <trkpt lat="45.03423" lon="5.51685">
        <ele>1234.1999511719</ele>
        <time>2024-07-14T09:14:33.000Z</time>
      </trkpt>
      <trkpt lat="45.03423" lon="5.51688">
        <ele>1234</ele>
        <time>2024-07-14T09:14:34.000Z</time>
      </trkpt>
      <trkpt lat="45.03424" lon="5.51689">
        <ele>1233.5999755859</ele>
        <time>2024-07-14T09:14:35.000Z</time>
      </trkpt>
      <trkpt lat="45.03426" lon="5.51691">
        <ele>1233</ele>
        <time>2024-07-14T09:14:36.000Z</time>
      </trkpt>
      <trkpt lat="45.03428" lon="5.51692">
        <ele>1232.5999755859</ele>
        <time>2024-07-14T09:14:37.000Z</time>
      </trkpt>
      <trkpt lat="45.0343" lon="5.51693">
        <ele>1232.1999511719</ele>
        <time>2024-07-14T09:14:38.000Z</time>
      </trkpt>
      <trkpt lat="45.03433" lon="5.51695">
        <ele>1232.1999511719</ele>
        <time>2024-07-14T09:14:39.000Z</time>
      </trkpt>
      <trkpt lat="45.03436" lon="5.51697">
        <ele>1231.8000488281</ele>
        <time>2024-07-14T09:14:40.000Z</time>
      </trkpt>
      <trkpt lat="45.03439" lon="5.51699">
        <ele>1231.5999755859</ele>
        <time>2024-07-14T09:14:41.000Z</time>
      </trkpt>
      <trkpt lat="45.03441" lon="5.51702">
        <ele>1231.1999511719</ele>
        <time>2024-07-14T09:14:42.000Z</time>
      </trkpt>
      <trkpt lat="45.03444" lon="5.51704">
        <ele>1230.8000488281</ele>
        <time>2024-07-14T09:14:43.000Z</time>
      </trkpt>
      <trkpt lat="45.03446" lon="5.51707">
        <ele>1230.8000488281</ele>
        <time>2024-07-14T09:14:44.000Z</time>
      </trkpt>
      <trkpt lat="45.03448" lon="5.51709">
        <ele>1230.4000244141</ele>
        <time>2024-07-14T09:14:45.000Z</time>
      </trkpt>
      <trkpt lat="45.0345" lon="5.51712">
        <ele>1230</ele>
        <time>2024-07-14T09:14:46.000Z</time>
      </trkpt>
      <trkpt lat="45.03452" lon="5.51714">
        <ele>1229.8000488281</ele>
        <time>2024-07-14T09:14:47.000Z</time>
      </trkpt>
      <trkpt lat="45.03455" lon="5.51717">
        <ele>1229.5999755859</ele>
        <time>2024-07-14T09:14:48.000Z</time>
      </trkpt>
      <trkpt lat="45.03457" lon="5.51719">
        <ele>1229.4000244141</ele>
        <time>2024-07-14T09:14:49.000Z</time>
      </trkpt>
      <trkpt lat="45.03459" lon="5.51721">
        <ele>1229.1999511719</ele>
        <time>2024-07-14T09:14:50.000Z</time>
      </trkpt>
      <trkpt lat="45.03461" lon="5.51724">
        <ele>1229</ele>
        <time>2024-07-14T09:14:51.000Z</time>
      </trkpt>
      <trkpt lat="45.03463" lon="5.51727">
        <ele>1229</ele>
        <time>2024-07-14T09:14:52.000Z</time>
      </trkpt>
      <trkpt lat="45.03464" lon="5.51728">
        <ele>1228.8000488281</ele>
        <time>2024-07-14T09:14:53.000Z</time>
      </trkpt>
      <trkpt lat="45.03467" lon="5.51731">
        <ele>1228.5999755859</ele>
        <time>2024-07-14T09:14:54.000Z</time>
      </trkpt>
      <trkpt lat="45.03469" lon="5.51733">
        <ele>1228.4000244141</ele>
        <time>2024-07-14T09:14:55.000Z</time>
      </trkpt>
      <trkpt lat="45.03471" lon="5.51735">
        <ele>1228.4000244141</ele>
        <time>2024-07-14T09:14:56.000Z</time>
      </trkpt>
      <trkpt lat="45.03473" lon="5.51738">
        <ele>1228.1999511719</ele>
        <time>2024-07-14T09:14:57.000Z</time>
      </trkpt>
      <trkpt lat="45.03475" lon="5.51741">
        <ele>1228.1999511719</ele>
        <time>2024-07-14T09:14:58.000Z</time>
      </trkpt>
      <trkpt lat="45.03477" lon="5.51744">
        <ele>1228</ele>
        <time>2024-07-14T09:14:59.000Z</time>
      </trkpt>
      <trkpt lat="45.03479" lon="5.51746">
        <ele>1227.8000488281</ele>
        <time>2024-07-14T09:15:00.000Z</time>
      </trkpt>
      <trkpt lat="45.03481" lon="5.51749">
        <ele>1227.4000244141</ele>
        <time>2024-07-14T09:15:01.000Z</time>
      </trkpt>
      <trkpt lat="45.03483" lon="5.51752">
        <ele>1226.8000488281</ele>
        <time>2024-07-14T09:15:02.000Z</time>
      </trkpt>
      <trkpt lat="45.03485" lon="5.51754">
        <ele>1226.4000244141</ele>
        <time>2024-07-14T09:15:03.000Z</time>
      </trkpt>
      <trkpt lat="45.03488" lon="5.51757">
        <ele>1226</ele>
        <time>2024-07-14T09:15:04.000Z</time>
      </trkpt>
      <trkpt lat="45.0349" lon="5.5176">
        <ele>1225.8000488281</ele>
        <time>2024-07-14T09:15:05.000Z</time>
      </trkpt>
      <trkpt lat="45.03492" lon="5.51761">
        <ele>1225.5999755859</ele>
        <time>2024-07-14T09:15:06.000Z</time>
      </trkpt>
      <trkpt lat="45.03495" lon="5.51763">
        <ele>1225.4000244141</ele>
        <time>2024-07-14T09:15:07.000Z</time>
      </trkpt>
      <trkpt lat="45.03497" lon="5.51765">
        <ele>1225</ele>
        <time>2024-07-14T09:15:08.000Z</time>
      </trkpt>
      <trkpt lat="45.035" lon="5.51766">
        <ele>1224.8000488281</ele>
        <time>2024-07-14T09:15:09.000Z</time>
      </trkpt>
      <trkpt lat="45.03503" lon="5.51767">
        <ele>1224.5999755859</ele>
        <time>2024-07-14T09:15:10.000Z</time>
      </trkpt>
      <trkpt lat="45.03505" lon="5.51768">
        <ele>1224.1999511719</ele>
        <time>2024-07-14T09:15:11.000Z</time>
      </trkpt>
      <trkpt lat="45.03508" lon="5.51769">
        <ele>1224</ele>
        <time>2024-07-14T09:15:12.000Z</time>
      </trkpt>
      <trkpt lat="45.03511" lon="5.51769">
        <ele>1223.8000488281</ele>
        <time>2024-07-14T09:15:13.000Z</time>
      </trkpt>
      <trkpt lat="45.03514" lon="5.51769">
        <ele>1223.5999755859</ele>
        <time>2024-07-14T09:15:14.000Z</time>
      </trkpt>
      <trkpt lat="45.03517" lon="5.5177">
        <ele>1223.4000244141</ele>
        <time>2024-07-14T09:15:15.000Z</time>
      </trkpt>
      <trkpt lat="45.0352" lon="5.5177">
        <ele>1223.4000244141</ele>
        <time>2024-07-14T09:15:16.000Z</time>
      </trkpt>
      <trkpt lat="45.03522" lon="5.5177">
        <ele>1223.1999511719</ele>
        <time>2024-07-14T09:15:17.000Z</time>
      </trkpt>
      <trkpt lat="45.03525" lon="5.51771">
        <ele>1223.1999511719</ele>
        <time>2024-07-14T09:15:18.000Z</time>
      </trkpt>
      <trkpt lat="45.03527" lon="5.51771">
        <ele>1223</ele>
        <time>2024-07-14T09:15:19.000Z</time>
      </trkpt>
      <trkpt lat="45.0353" lon="5.51771">
        <ele>1222.8000488281</ele>
        <time>2024-07-14T09:15:20.000Z</time>
      </trkpt>
      <trkpt lat="45.03532" lon="5.51772">
        <ele>1222.5999755859</ele>
        <time>2024-07-14T09:15:21.000Z</time>
      </trkpt>
      <trkpt lat="45.03534" lon="5.51773">
        <ele>1222.4000244141</ele>
        <time>2024-07-14T09:15:22.000Z</time>
      </trkpt>
      <trkpt lat="45.03537" lon="5.51774">
        <ele>1222</ele>
        <time>2024-07-14T09:15:23.000Z</time>
      </trkpt>
      <trkpt lat="45.03539" lon="5.51774">
        <ele>1221.8000488281</ele>
        <time>2024-07-14T09:15:24.000Z</time>
      </trkpt>
      <trkpt lat="45.03541" lon="5.51775">
        <ele>1221.1999511719</ele>
        <time>2024-07-14T09:15:25.000Z</time>
      </trkpt>
      <trkpt lat="45.03542" lon="5.51775">
        <ele>1221</ele>
        <time>2024-07-14T09:15:26.000Z</time>
      </trkpt>
      <trkpt lat="45.03544" lon="5.51776">
        <ele>1220.5999755859</ele>
        <time>2024-07-14T09:15:27.000Z</time>
      </trkpt>
      <trkpt lat="45.03546" lon="5.51778">
        <ele>1220</ele>
        <time>2024-07-14T09:15:28.000Z</time>
      </trkpt>
      <trkpt lat="45.03547" lon="5.5178">
        <ele>1219.5999755859</ele>
        <time>2024-07-14T09:15:29.000Z</time>
      </trkpt>
      <trkpt lat="45.03548" lon="5.51783">
        <ele>1219.1999511719</ele>
        <time>2024-07-14T09:15:30.000Z</time>
      </trkpt>
      <trkpt lat="45.03549" lon="5.51786">
        <ele>1218.8000488281</ele>
        <time>2024-07-14T09:15:31.000Z</time>
      </trkpt>
      <trkpt lat="45.03549" lon="5.5179">
        <ele>1218.1999511719</ele>
        <time>2024-07-14T09:15:32.000Z</time>
      </trkpt>
      <trkpt lat="45.03549" lon="5.51793">
        <ele>1217.8000488281</ele>
        <time>2024-07-14T09:15:33.000Z</time>
      </trkpt>
      <trkpt lat="45.03549" lon="5.51797">
        <ele>1217.5999755859</ele>
        <time>2024-07-14T09:15:34.000Z</time>
      </trkpt>
      <trkpt lat="45.03548" lon="5.518">
        <ele>1217.1999511719</ele>
        <time>2024-07-14T09:15:35.000Z</time>
      </trkpt>
      <trkpt lat="45.03547" lon="5.51804">
        <ele>1216.8000488281</ele>
        <time>2024-07-14T09:15:36.000Z</time>
      </trkpt>
      <trkpt lat="45.03547" lon="5.51807">
        <ele>1216.1999511719</ele>
        <time>2024-07-14T09:15:37.000Z</time>
      </trkpt>
      <trkpt lat="45.03547" lon="5.51811">
        <ele>1215.8000488281</ele>
        <time>2024-07-14T09:15:38.000Z</time>
      </trkpt>
      <trkpt lat="45.03547" lon="5.51814">
        <ele>1215.4000244141</ele>
        <time>2024-07-14T09:15:39.000Z</time>
      </trkpt>
      <trkpt lat="45.03546" lon="5.51818">
        <ele>1215</ele>
        <time>2024-07-14T09:15:40.000Z</time>
      </trkpt>
      <trkpt lat="45.03546" lon="5.51822">
        <ele>1214.4000244141</ele>
        <time>2024-07-14T09:15:41.000Z</time>
      </trkpt>
      <trkpt lat="45.03545" lon="5.51825">
        <ele>1213.8000488281</ele>
        <time>2024-07-14T09:15:42.000Z</time>
      </trkpt>
      <trkpt lat="45.03545" lon="5.51829">
        <ele>1213.1999511719</ele>
        <time>2024-07-14T09:15:43.000Z</time>
      </trkpt>
      <trkpt lat="45.03544" lon="5.51832">
        <ele>1212.8000488281</ele>
        <time>2024-07-14T09:15:44.000Z</time>
      </trkpt>
      <trkpt lat="45.03543" lon="5.51836">
        <ele>1212.1999511719</ele>
        <time>2024-07-14T09:15:45.000Z</time>
      </trkpt>
      <trkpt lat="45.03543" lon="5.51839">
        <ele>1212</ele>
        <time>2024-07-14T09:15:46.000Z</time>
      </trkpt>
      <trkpt lat="45.03542" lon="5.51843">
        <ele>1211.5999755859</ele>
        <time>2024-07-14T09:15:47.000Z</time>
      </trkpt>
      <trkpt lat="45.03541" lon="5.51846">
        <ele>1211.4000244141</ele>
        <time>2024-07-14T09:15:48.000Z</time>
      </trkpt>
      <trkpt lat="45.03541" lon="5.51849">
        <ele>1210.8000488281</ele>
        <time>2024-07-14T09:15:49.000Z</time>
      </trkpt>
      <trkpt lat="45.0354" lon="5.51851">
        <ele>1210.5999755859</ele>
        <time>2024-07-14T09:15:50.000Z</time>
      </trkpt>
      <trkpt lat="45.0354" lon="5.51854">
        <ele>1209.5999755859</ele>
        <time>2024-07-14T09:15:51.000Z</time>
      </trkpt>
      <trkpt lat="45.0354" lon="5.51857">
        <ele>1209.1999511719</ele>
        <time>2024-07-14T09:15:52.000Z</time>
      </trkpt>
      <trkpt lat="45.0354" lon="5.5186">
        <ele>1208</ele>
        <time>2024-07-14T09:15:53.000Z</time>
      </trkpt>
      <trkpt lat="45.0354" lon="5.51863">
        <ele>1207.5999755859</ele>
        <time>2024-07-14T09:15:54.000Z</time>
      </trkpt>
      <trkpt lat="45.0354" lon="5.51866">
        <ele>1207.4000244141</ele>
        <time>2024-07-14T09:15:55.000Z</time>
      </trkpt>
      <trkpt lat="45.0354" lon="5.51869">
        <ele>1206.8000488281</ele>
        <time>2024-07-14T09:15:56.000Z</time>
      </trkpt>
      <trkpt lat="45.0354" lon="5.51872">
        <ele>1205.8000488281</ele>
        <time>2024-07-14T09:15:57.000Z</time>
      </trkpt>
      <trkpt lat="45.0354" lon="5.51875">
        <ele>1205</ele>
        <time>2024-07-14T09:15:58.000Z</time>
      </trkpt>
      <trkpt lat="45.03539" lon="5.51876">
        <ele>1204.5999755859</ele>
        <time>2024-07-14T09:15:59.000Z</time>
      </trkpt>
      <trkpt lat="45.03539" lon="5.51878">
        <ele>1204.1999511719</ele>
        <time>2024-07-14T09:16:00.000Z</time>
      </trkpt>
      <trkpt lat="45.03539" lon="5.5188">
        <ele>1203.8000488281</ele>
        <time>2024-07-14T09:16:01.000Z</time>
      </trkpt>
      <trkpt lat="45.03539" lon="5.51883">
        <ele>1203.1999511719</ele>
        <time>2024-07-14T09:16:02.000Z</time>
      </trkpt>
      <trkpt lat="45.0354" lon="5.51885">
        <ele>1202.5999755859</ele>
        <time>2024-07-14T09:16:03.000Z</time>
      </trkpt>
      <trkpt lat="45.03542" lon="5.51886">
        <ele>1202</ele>
        <time>2024-07-14T09:16:04.000Z</time>
      </trkpt>
      <trkpt lat="45.03544" lon="5.51887">
        <ele>1201.4000244141</ele>
        <time>2024-07-14T09:16:05.000Z</time>
      </trkpt>
      <trkpt lat="45.03546" lon="5.51887">
        <ele>1201</ele>
        <time>2024-07-14T09:16:06.000Z</time>
      </trkpt>
      <trkpt lat="45.03548" lon="5.51886">
        <ele>1200.5999755859</ele>
        <time>2024-07-14T09:16:07.000Z</time>
      </trkpt>
      <trkpt lat="45.0355" lon="5.51885">
        <ele>1200.1999511719</ele>
        <time>2024-07-14T09:16:08.000Z</time>
      </trkpt>
      <trkpt lat="45.03553" lon="5.51885">
        <ele>1199.8000488281</ele>
        <time>2024-07-14T09:16:09.000Z</time>
      </trkpt>
      <trkpt lat="45.03555" lon="5.51884">
        <ele>1199.1999511719</ele>
        <time>2024-07-14T09:16:10.000Z</time>
      </trkpt>
      <trkpt lat="45.03558" lon="5.51884">
        <ele>1198.5999755859</ele>
        <time>2024-07-14T09:16:11.000Z</time>
      </trkpt>
      <trkpt lat="45.0356" lon="5.51883">
        <ele>1198.1999511719</ele>
        <time>2024-07-14T09:16:12.000Z</time>
      </trkpt>
      <trkpt lat="45.03562" lon="5.51883">
        <ele>1197.8000488281</ele>
        <time>2024-07-14T09:16:13.000Z</time>
      </trkpt>
      <trkpt lat="45.03564" lon="5.51883">
        <ele>1197.1999511719</ele>
        <time>2024-07-14T09:16:14.000Z</time>
      </trkpt>
      <trkpt lat="45.03565" lon="5.51884">
        <ele>1197</ele>
        <time>2024-07-14T09:16:15.000Z</time>
      </trkpt>
      <trkpt lat="45.03567" lon="5.51884">
        <ele>1196.5999755859</ele>
        <time>2024-07-14T09:16:16.000Z</time>
      </trkpt>
      <trkpt lat="45.03569" lon="5.51886">
        <ele>1196.4000244141</ele>
        <time>2024-07-14T09:16:17.000Z</time>
      </trkpt>
      <trkpt lat="45.03571" lon="5.51888">
        <ele>1196.1999511719</ele>
        <time>2024-07-14T09:16:18.000Z</time>
      </trkpt>
      <trkpt lat="45.03573" lon="5.51891">
        <ele>1195.4000244141</ele>
        <time>2024-07-14T09:16:19.000Z</time>
      </trkpt>
      <trkpt lat="45.03573" lon="5.51894">
        <ele>1195</ele>
        <time>2024-07-14T09:16:20.000Z</time>
      </trkpt>
      <trkpt lat="45.03573" lon="5.51897">
        <ele>1194.8000488281</ele>
        <time>2024-07-14T09:16:21.000Z</time>
      </trkpt>
      <trkpt lat="45.03573" lon="5.519">
        <ele>1194.4000244141</ele>
        <time>2024-07-14T09:16:22.000Z</time>
      </trkpt>
      <trkpt lat="45.03573" lon="5.51903">
        <ele>1194</ele>
        <time>2024-07-14T09:16:23.000Z</time>
      </trkpt>
      <trkpt lat="45.03573" lon="5.51906">
        <ele>1193.5999755859</ele>
        <time>2024-07-14T09:16:24.000Z</time>
      </trkpt>
      <trkpt lat="45.03572" lon="5.51909">
        <ele>1193.1999511719</ele>
        <time>2024-07-14T09:16:25.000Z</time>
      </trkpt>
      <trkpt lat="45.03572" lon="5.51911">
        <ele>1192.5999755859</ele>
        <time>2024-07-14T09:16:26.000Z</time>
      </trkpt>
      <trkpt lat="45.03572" lon="5.51914">
        <ele>1192</ele>
        <time>2024-07-14T09:16:27.000Z</time>
      </trkpt>
      <trkpt lat="45.03571" lon="5.51916">
        <ele>1191.5999755859</ele>
        <time>2024-07-14T09:16:28.000Z</time>
      </trkpt>
      <trkpt lat="45.03571" lon="5.51918">
        <ele>1191.1999511719</ele>
        <time>2024-07-14T09:16:29.000Z</time>
      </trkpt>
      <trkpt lat="45.0357" lon="5.51921">
        <ele>1190.5999755859</ele>
        <time>2024-07-14T09:16:30.000Z</time>
      </trkpt>
      <trkpt lat="45.03569" lon="5.51924">
        <ele>1190.1999511719</ele>
        <time>2024-07-14T09:16:31.000Z</time>
      </trkpt>
      <trkpt lat="45.03568" lon="5.51926">
        <ele>1189.8000488281</ele>
        <time>2024-07-14T09:16:32.000Z</time>
      </trkpt>
      <trkpt lat="45.03567" lon="5.51928">
        <ele>1189.1999511719</ele>
        <time>2024-07-14T09:16:33.000Z</time>
      </trkpt>
      <trkpt lat="45.03566" lon="5.5193">
        <ele>1188.4000244141</ele>
        <time>2024-07-14T09:16:34.000Z</time>
      </trkpt>
      <trkpt lat="45.03565" lon="5.51932">
        <ele>1188</ele>
        <time>2024-07-14T09:16:35.000Z</time>
      </trkpt>
      <trkpt lat="45.03563" lon="5.51935">
        <ele>1187.5999755859</ele>
        <time>2024-07-14T09:16:36.000Z</time>
      </trkpt>
      <trkpt lat="45.03562" lon="5.51937">
        <ele>1186.5999755859</ele>
        <time>2024-07-14T09:16:37.000Z</time>
      </trkpt>
      <trkpt lat="45.03561" lon="5.5194">
        <ele>1186.4000244141</ele>
        <time>2024-07-14T09:16:38.000Z</time>
      </trkpt>
      <trkpt lat="45.03559" lon="5.51942">
        <ele>1186.1999511719</ele>
        <time>2024-07-14T09:16:39.000Z</time>
      </trkpt>
      <trkpt lat="45.03558" lon="5.51945">
        <ele>1186</ele>
        <time>2024-07-14T09:16:40.000Z</time>
      </trkpt>
      <trkpt lat="45.03556" lon="5.51948">
        <ele>1185.1999511719</ele>
        <time>2024-07-14T09:16:41.000Z</time>
      </trkpt>
      <trkpt lat="45.03554" lon="5.51951">
        <ele>1185</ele>
        <time>2024-07-14T09:16:42.000Z</time>
      </trkpt>
      <trkpt lat="45.03552" lon="5.51955">
        <ele>1184.8000488281</ele>
        <time>2024-07-14T09:16:43.000Z</time>
      </trkpt>
      <trkpt lat="45.03551" lon="5.51958">
        <ele>1184.4000244141</ele>
        <time>2024-07-14T09:16:44.000Z</time>
      </trkpt>
      <trkpt lat="45.0355" lon="5.51961">
        <ele>1183.8000488281</ele>
        <time>2024-07-14T09:16:45.000Z</time>
      </trkpt>
      <trkpt lat="45.03548" lon="5.51963">
        <ele>1183.4000244141</ele>
        <time>2024-07-14T09:16:46.000Z</time>
      </trkpt>
      <trkpt lat="45.03547" lon="5.51966">
        <ele>1183</ele>
        <time>2024-07-14T09:16:47.000Z</time>
      </trkpt>
      <trkpt lat="45.03545" lon="5.51969">
        <ele>1182.4000244141</ele>
        <time>2024-07-14T09:16:48.000Z</time>
      </trkpt>
      <trkpt lat="45.03543" lon="5.51972">
        <ele>1182</ele>
        <time>2024-07-14T09:16:49.000Z</time>
      </trkpt>
      <trkpt lat="45.03542" lon="5.51974">
        <ele>1181.8000488281</ele>
        <time>2024-07-14T09:16:50.000Z</time>
      </trkpt>
      <trkpt lat="45.0354" lon="5.51976">
        <ele>1181.5999755859</ele>
        <time>2024-07-14T09:16:51.000Z</time>
      </trkpt>
      <trkpt lat="45.03538" lon="5.51979">
        <ele>1181.4000244141</ele>
        <time>2024-07-14T09:16:52.000Z</time>
      </trkpt>
      <trkpt lat="45.03537" lon="5.51981">
        <ele>1181.1999511719</ele>
        <time>2024-07-14T09:16:53.000Z</time>
      </trkpt>
      <trkpt lat="45.03535" lon="5.51983">
        <ele>1181</ele>
        <time>2024-07-14T09:16:54.000Z</time>
      </trkpt>
      <trkpt lat="45.03533" lon="5.51985">
        <ele>1180.4000244141</ele>
        <time>2024-07-14T09:16:55.000Z</time>
      </trkpt>
      <trkpt lat="45.03532" lon="5.51987">
        <ele>1179.8000488281</ele>
        <time>2024-07-14T09:16:56.000Z</time>
      </trkpt>
      <trkpt lat="45.0353" lon="5.51989">
        <ele>1179.1999511719</ele>
        <time>2024-07-14T09:16:57.000Z</time>
      </trkpt>
      <trkpt lat="45.03527" lon="5.51991">
        <ele>1178.8000488281</ele>
        <time>2024-07-14T09:16:58.000Z</time>
      </trkpt>
      <trkpt lat="45.03525" lon="5.51992">
        <ele>1178.5999755859</ele>
        <time>2024-07-14T09:16:59.000Z</time>
      </trkpt>
      <trkpt lat="45.03522" lon="5.51993">
        <ele>1178.4000244141</ele>
        <time>2024-07-14T09:17:00.000Z</time>
      </trkpt>
      <trkpt lat="45.0352" lon="5.51994">
        <ele>1178</ele>
        <time>2024-07-14T09:17:01.000Z</time>
      </trkpt>
      <trkpt lat="45.03517" lon="5.51994">
        <ele>1177.5999755859</ele>
        <time>2024-07-14T09:17:02.000Z</time>
      </trkpt>
      <trkpt lat="45.03514" lon="5.51995">
        <ele>1177.1999511719</ele>
        <time>2024-07-14T09:17:03.000Z</time>
      </trkpt>
      <trkpt lat="45.03512" lon="5.51996">
        <ele>1177</ele>
        <time>2024-07-14T09:17:04.000Z</time>
      </trkpt>
      <trkpt lat="45.0351" lon="5.51996">
        <ele>1176.8000488281</ele>
        <time>2024-07-14T09:17:05.000Z</time>
      </trkpt>
      <trkpt lat="45.03508" lon="5.51996">
        <ele>1176.1999511719</ele>
        <time>2024-07-14T09:17:06.000Z</time>
      </trkpt>
      <trkpt lat="45.03506" lon="5.51998">
        <ele>1176</ele>
        <time>2024-07-14T09:17:07.000Z</time>
      </trkpt>
      <trkpt lat="45.03504" lon="5.51999">
        <ele>1175.5999755859</ele>
        <time>2024-07-14T09:17:08.000Z</time>
      </trkpt>
      <trkpt lat="45.03502" lon="5.52002">
        <ele>1175.4000244141</ele>
        <time>2024-07-14T09:17:09.000Z</time>
      </trkpt>
      <trkpt lat="45.03499" lon="5.52003">
        <ele>1175.1999511719</ele>
        <time>2024-07-14T09:17:10.000Z</time>
      </trkpt>
      <trkpt lat="45.03497" lon="5.52005">
        <ele>1174.5999755859</ele>
        <time>2024-07-14T09:17:11.000Z</time>
      </trkpt>
      <trkpt lat="45.03495" lon="5.52008">
        <ele>1173.8000488281</ele>
        <time>2024-07-14T09:17:12.000Z</time>
      </trkpt>
      <trkpt lat="45.03493" lon="5.5201">
        <ele>1173.1999511719</ele>
        <time>2024-07-14T09:17:13.000Z</time>
      </trkpt>
      <trkpt lat="45.03491" lon="5.52012">
        <ele>1172.8000488281</ele>
        <time>2024-07-14T09:17:14.000Z</time>
      </trkpt>
      <trkpt lat="45.0349" lon="5.52014">
        <ele>1172.4000244141</ele>
        <time>2024-07-14T09:17:15.000Z</time>
      </trkpt>
      <trkpt lat="45.03488" lon="5.52016">
        <ele>1172.1999511719</ele>
        <time>2024-07-14T09:17:16.000Z</time>
      </trkpt>
      <trkpt lat="45.03485" lon="5.52018">
        <ele>1171.5999755859</ele>
        <time>2024-07-14T09:17:17.000Z</time>
      </trkpt>
      <trkpt lat="45.03484" lon="5.5202">
        <ele>1171.4000244141</ele>
        <time>2024-07-14T09:17:18.000Z</time>
      </trkpt>
      <trkpt lat="45.03481" lon="5.52022">
        <ele>1171</ele>
        <time>2024-07-14T09:17:19.000Z</time>
      </trkpt>
      <trkpt lat="45.0348" lon="5.52023">
        <ele>1170.5999755859</ele>
        <time>2024-07-14T09:17:20.000Z</time>
      </trkpt>
      <trkpt lat="45.03477" lon="5.52025">
        <ele>1169.8000488281</ele>
        <time>2024-07-14T09:17:21.000Z</time>
      </trkpt>
      <trkpt lat="45.03475" lon="5.52026">
        <ele>1169.4000244141</ele>
        <time>2024-07-14T09:17:22.000Z</time>
      </trkpt>
      <trkpt lat="45.03473" lon="5.52028">
        <ele>1169</ele>
        <time>2024-07-14T09:17:23.000Z</time>
      </trkpt>
      <trkpt lat="45.03471" lon="5.5203">
        <ele>1168.5999755859</ele>
        <time>2024-07-14T09:17:24.000Z</time>
      </trkpt>
      <trkpt lat="45.03468" lon="5.52031">
        <ele>1168.1999511719</ele>
        <time>2024-07-14T09:17:25.000Z</time>
      </trkpt>
      <trkpt lat="45.03467" lon="5.52033">
        <ele>1168</ele>
        <time>2024-07-14T09:17:26.000Z</time>
      </trkpt>
      <trkpt lat="45.03464" lon="5.52035">
        <ele>1167.5999755859</ele>
        <time>2024-07-14T09:17:27.000Z</time>
      </trkpt>
      <trkpt lat="45.03462" lon="5.52037">
        <ele>1167</ele>
        <time>2024-07-14T09:17:28.000Z</time>
      </trkpt>
      <trkpt lat="45.03459" lon="5.5204">
        <ele>1166.4000244141</ele>
        <time>2024-07-14T09:17:29.000Z</time>
      </trkpt>
      <trkpt lat="45.03457" lon="5.52043">
        <ele>1166</ele>
        <time>2024-07-14T09:17:30.000Z</time>
      </trkpt>
      <trkpt lat="45.03456" lon="5.52045">
        <ele>1165.5999755859</ele>
        <time>2024-07-14T09:17:31.000Z</time>
      </trkpt>
      <trkpt lat="45.03454" lon="5.52047">
        <ele>1165.1999511719</ele>
        <time>2024-07-14T09:17:32.000Z</time>
      </trkpt>
      <trkpt lat="45.03452" lon="5.52049">
        <ele>1164.8000488281</ele>
        <time>2024-07-14T09:17:33.000Z</time>
      </trkpt>
      <trkpt lat="45.0345" lon="5.52052">
        <ele>1164.4000244141</ele>
        <time>2024-07-14T09:17:34.000Z</time>
      </trkpt>
      <trkpt lat="45.03448" lon="5.52055">
        <ele>1164</ele>
        <time>2024-07-14T09:17:35.000Z</time>
      </trkpt>
      <trkpt lat="45.03446" lon="5.52058">
        <ele>1163.8000488281</ele>
        <time>2024-07-14T09:17:36.000Z</time>
      </trkpt>
      <trkpt lat="45.03445" lon="5.5206">
        <ele>1163.4000244141</ele>
        <time>2024-07-14T09:17:37.000Z</time>
      </trkpt>
      <trkpt lat="45.03443" lon="5.52063">
        <ele>1163</ele>
        <time>2024-07-14T09:17:38.000Z</time>
      </trkpt>
      <trkpt lat="45.03442" lon="5.52066">
        <ele>1162.8000488281</ele>
        <time>2024-07-14T09:17:39.000Z</time>
      </trkpt>
      <trkpt lat="45.03441" lon="5.52069">
        <ele>1162.5999755859</ele>
        <time>2024-07-14T09:17:40.000Z</time>
      </trkpt>
      <trkpt lat="45.03439" lon="5.52071">
        <ele>1162.4000244141</ele>
        <time>2024-07-14T09:17:41.000Z</time>
      </trkpt>
      <trkpt lat="45.03438" lon="5.52073">
        <ele>1161.8000488281</ele>
        <time>2024-07-14T09:17:42.000Z</time>
      </trkpt>
      <trkpt lat="45.03436" lon="5.52076">
        <ele>1161.1999511719</ele>
        <time>2024-07-14T09:17:43.000Z</time>
      </trkpt>
      <trkpt lat="45.03435" lon="5.52077">
        <ele>1160.5999755859</ele>
        <time>2024-07-14T09:17:44.000Z</time>
      </trkpt>
      <trkpt lat="45.03433" lon="5.52079">
        <ele>1159.8000488281</ele>
        <time>2024-07-14T09:17:45.000Z</time>
      </trkpt>
      <trkpt lat="45.03431" lon="5.5208">
        <ele>1159.5999755859</ele>
        <time>2024-07-14T09:17:46.000Z</time>
      </trkpt>
      <trkpt lat="45.03429" lon="5.52081">
        <ele>1158.8000488281</ele>
        <time>2024-07-14T09:17:47.000Z</time>
      </trkpt>
      <trkpt lat="45.03428" lon="5.52082">
        <ele>1158</ele>
        <time>2024-07-14T09:17:48.000Z</time>
      </trkpt>
      <trkpt lat="45.03426" lon="5.52083">
        <ele>1157.5999755859</ele>
        <time>2024-07-14T09:17:49.000Z</time>
      </trkpt>
      <trkpt lat="45.03425" lon="5.52084">
        <ele>1157</ele>
        <time>2024-07-14T09:17:50.000Z</time>
      </trkpt>
      <trkpt lat="45.03423" lon="5.52085">
        <ele>1156.5999755859</ele>
        <time>2024-07-14T09:17:51.000Z</time>
      </trkpt>
      <trkpt lat="45.03422" lon="5.52086">
        <ele>1156.1999511719</ele>
        <time>2024-07-14T09:17:52.000Z</time>
      </trkpt>
      <trkpt lat="45.0342" lon="5.52087">
        <ele>1156</ele>
        <time>2024-07-14T09:17:53.000Z</time>
      </trkpt>
      <trkpt lat="45.03418" lon="5.52088">
        <ele>1155.8000488281</ele>
        <time>2024-07-14T09:17:54.000Z</time>
      </trkpt>
      <trkpt lat="45.03415" lon="5.5209">
        <ele>1155.4000244141</ele>
        <time>2024-07-14T09:17:55.000Z</time>
      </trkpt>
      <trkpt lat="45.03412" lon="5.52091">
        <ele>1154.8000488281</ele>
        <time>2024-07-14T09:17:56.000Z</time>
      </trkpt>
      <trkpt lat="45.0341" lon="5.52093">
        <ele>1154.5999755859</ele>
        <time>2024-07-14T09:17:57.000Z</time>
      </trkpt>
      <trkpt lat="45.03408" lon="5.52095">
        <ele>1154.1999511719</ele>
        <time>2024-07-14T09:17:58.000Z</time>
      </trkpt>
      <trkpt lat="45.03406" lon="5.52096">
        <ele>1153.4000244141</ele>
        <time>2024-07-14T09:17:59.000Z</time>
      </trkpt>
      <trkpt lat="45.03403" lon="5.52098">
        <ele>1153</ele>
        <time>2024-07-14T09:18:00.000Z</time>
      </trkpt>
      <trkpt lat="45.03401" lon="5.52099">
        <ele>1152.5999755859</ele>
        <time>2024-07-14T09:18:01.000Z</time>
      </trkpt>
      <trkpt lat="45.03398" lon="5.52101">
        <ele>1152</ele>
        <time>2024-07-14T09:18:02.000Z</time>
      </trkpt>
      <trkpt lat="45.03397" lon="5.52103">
        <ele>1151.8000488281</ele>
        <time>2024-07-14T09:18:03.000Z</time>
      </trkpt>
      <trkpt lat="45.03396" lon="5.52106">
        <ele>1151</ele>
        <time>2024-07-14T09:18:04.000Z</time>
      </trkpt>
      <trkpt lat="45.03395" lon="5.52108">
        <ele>1150.4000244141</ele>
        <time>2024-07-14T09:18:05.000Z</time>
      </trkpt>
      <trkpt lat="45.03395" lon="5.52111">
        <ele>1149.5999755859</ele>
        <time>2024-07-14T09:18:06.000Z</time>
      </trkpt>
      <trkpt lat="45.03395" lon="5.52113">
        <ele>1149.1999511719</ele>
        <time>2024-07-14T09:18:07.000Z</time>
      </trkpt>
      <trkpt lat="45.03397" lon="5.52115">
        <ele>1148.8000488281</ele>
        <time>2024-07-14T09:18:08.000Z</time>
      </trkpt>
      <trkpt lat="45.03399" lon="5.52116">
        <ele>1148.4000244141</ele>
        <time>2024-07-14T09:18:09.000Z</time>
      </trkpt>
      <trkpt lat="45.03401" lon="5.52117">
        <ele>1148</ele>
        <time>2024-07-14T09:18:10.000Z</time>
      </trkpt>
      <trkpt lat="45.03404" lon="5.52117">
        <ele>1147.5999755859</ele>
        <time>2024-07-14T09:18:11.000Z</time>
      </trkpt>
      <trkpt lat="45.03407" lon="5.52118">
        <ele>1147.1999511719</ele>
        <time>2024-07-14T09:18:12.000Z</time>
      </trkpt>
      <trkpt lat="45.03409" lon="5.52119">
        <ele>1146.8000488281</ele>
        <time>2024-07-14T09:18:13.000Z</time>
      </trkpt>
      <trkpt lat="45.03412" lon="5.52121">
        <ele>1146.4000244141</ele>
        <time>2024-07-14T09:18:14.000Z</time>
      </trkpt>
      <trkpt lat="45.03415" lon="5.52122">
        <ele>1146</ele>
        <time>2024-07-14T09:18:15.000Z</time>
      </trkpt>
      <trkpt lat="45.03418" lon="5.52124">
        <ele>1145.5999755859</ele>
        <time>2024-07-14T09:18:16.000Z</time>
      </trkpt>
      <trkpt lat="45.03421" lon="5.52125">
        <ele>1145.1999511719</ele>
        <time>2024-07-14T09:18:17.000Z</time>
      </trkpt>
      <trkpt lat="45.03423" lon="5.52127">
        <ele>1144.5999755859</ele>
        <time>2024-07-14T09:18:18.000Z</time>
      </trkpt>
      <trkpt lat="45.03426" lon="5.52129">
        <ele>1144.4000244141</ele>
        <time>2024-07-14T09:18:19.000Z</time>
      </trkpt>
      <trkpt lat="45.03429" lon="5.52131">
        <ele>1144</ele>
        <time>2024-07-14T09:18:20.000Z</time>
      </trkpt>
      <trkpt lat="45.03432" lon="5.52133">
        <ele>1143.5999755859</ele>
        <time>2024-07-14T09:18:21.000Z</time>
      </trkpt>
      <trkpt lat="45.03435" lon="5.52135">
        <ele>1143.4000244141</ele>
        <time>2024-07-14T09:18:22.000Z</time>
      </trkpt>
      <trkpt lat="45.03438" lon="5.52136">
        <ele>1143.1999511719</ele>
        <time>2024-07-14T09:18:23.000Z</time>
      </trkpt>
      <trkpt lat="45.03441" lon="5.52138">
        <ele>1142.8000488281</ele>
        <time>2024-07-14T09:18:24.000Z</time>
      </trkpt>
      <trkpt lat="45.03443" lon="5.5214">
        <ele>1142.1999511719</ele>
        <time>2024-07-14T09:18:25.000Z</time>
      </trkpt>
      <trkpt lat="45.03446" lon="5.52141">
        <ele>1141.8000488281</ele>
        <time>2024-07-14T09:18:26.000Z</time>
      </trkpt>
      <trkpt lat="45.03449" lon="5.52144">
        <ele>1141.5999755859</ele>
        <time>2024-07-14T09:18:27.000Z</time>
      </trkpt>
      <trkpt lat="45.03451" lon="5.52145">
        <ele>1141</ele>
        <time>2024-07-14T09:18:28.000Z</time>
      </trkpt>
      <trkpt lat="45.03454" lon="5.52147">
        <ele>1140.5999755859</ele>
        <time>2024-07-14T09:18:29.000Z</time>
      </trkpt>
      <trkpt lat="45.03457" lon="5.52148">
        <ele>1140.1999511719</ele>
        <time>2024-07-14T09:18:30.000Z</time>
      </trkpt>
      <trkpt lat="45.03459" lon="5.5215">
        <ele>1139.8000488281</ele>
        <time>2024-07-14T09:18:31.000Z</time>
      </trkpt>
      <trkpt lat="45.03462" lon="5.52152">
        <ele>1139.4000244141</ele>
        <time>2024-07-14T09:18:32.000Z</time>
      </trkpt>
      <trkpt lat="45.03464" lon="5.52154">
        <ele>1138.8000488281</ele>
        <time>2024-07-14T09:18:33.000Z</time>
      </trkpt>
      <trkpt lat="45.03466" lon="5.52156">
        <ele>1138.4000244141</ele>
        <time>2024-07-14T09:18:34.000Z</time>
      </trkpt>
      <trkpt lat="45.03465" lon="5.5216">
        <ele>1138</ele>
        <time>2024-07-14T09:18:35.000Z</time>
      </trkpt>
      <trkpt lat="45.03465" lon="5.52164">
        <ele>1137.5999755859</ele>
        <time>2024-07-14T09:18:36.000Z</time>
      </trkpt>
      <trkpt lat="45.03464" lon="5.52166">
        <ele>1137.1999511719</ele>
        <time>2024-07-14T09:18:37.000Z</time>
      </trkpt>
      <trkpt lat="45.03461" lon="5.52168">
        <ele>1137</ele>
        <time>2024-07-14T09:18:38.000Z</time>
      </trkpt>
      <trkpt lat="45.03458" lon="5.5217">
        <ele>1136.4000244141</ele>
        <time>2024-07-14T09:18:39.000Z</time>
      </trkpt>
      <trkpt lat="45.03455" lon="5.52171">
        <ele>1136</ele>
        <time>2024-07-14T09:18:40.000Z</time>
      </trkpt>
      <trkpt lat="45.03453" lon="5.52173">
        <ele>1135.4000244141</ele>
        <time>2024-07-14T09:18:41.000Z</time>
      </trkpt>
      <trkpt lat="45.03451" lon="5.52175">
        <ele>1134.8000488281</ele>
        <time>2024-07-14T09:18:42.000Z</time>
      </trkpt>
      <trkpt lat="45.03448" lon="5.52176">
        <ele>1134.4000244141</ele>
        <time>2024-07-14T09:18:43.000Z</time>
      </trkpt>
      <trkpt lat="45.03446" lon="5.52179">
        <ele>1134</ele>
        <time>2024-07-14T09:18:44.000Z</time>
      </trkpt>
      <trkpt lat="45.03444" lon="5.52181">
        <ele>1133.1999511719</ele>
        <time>2024-07-14T09:18:45.000Z</time>
      </trkpt>
      <trkpt lat="45.03442" lon="5.52182">
        <ele>1133</ele>
        <time>2024-07-14T09:18:46.000Z</time>
      </trkpt>
      <trkpt lat="45.0344" lon="5.52183">
        <ele>1132.4000244141</ele>
        <time>2024-07-14T09:18:47.000Z</time>
      </trkpt>
      <trkpt lat="45.03438" lon="5.52184">
        <ele>1131.8000488281</ele>
        <time>2024-07-14T09:18:48.000Z</time>
      </trkpt>
      <trkpt lat="45.03436" lon="5.52184">
        <ele>1131.5999755859</ele>
        <time>2024-07-14T09:18:49.000Z</time>
      </trkpt>
      <trkpt lat="45.03435" lon="5.52185">
        <ele>1131.1999511719</ele>
        <time>2024-07-14T09:18:50.000Z</time>
      </trkpt>
      <trkpt lat="45.03434" lon="5.52186">
        <ele>1130.5999755859</ele>
        <time>2024-07-14T09:18:51.000Z</time>
      </trkpt>
      <trkpt lat="45.03432" lon="5.52187">
        <ele>1130.1999511719</ele>
        <time>2024-07-14T09:18:52.000Z</time>
      </trkpt>
      <trkpt lat="45.0343" lon="5.52189">
        <ele>1129.5999755859</ele>
        <time>2024-07-14T09:18:53.000Z</time>
      </trkpt>
      <trkpt lat="45.03429" lon="5.5219">
        <ele>1129.4000244141</ele>
        <time>2024-07-14T09:18:54.000Z</time>
      </trkpt>
      <trkpt lat="45.03427" lon="5.52192">
        <ele>1129</ele>
        <time>2024-07-14T09:18:55.000Z</time>
      </trkpt>
      <trkpt lat="45.03425" lon="5.52194">
        <ele>1128.8000488281</ele>
        <time>2024-07-14T09:18:56.000Z</time>
      </trkpt>
      <trkpt lat="45.03423" lon="5.52195">
        <ele>1127.8000488281</ele>
        <time>2024-07-14T09:18:57.000Z</time>
      </trkpt>
      <trkpt lat="45.03421" lon="5.52197">
        <ele>1127.1999511719</ele>
        <time>2024-07-14T09:18:58.000Z</time>
      </trkpt>
      <trkpt lat="45.03418" lon="5.52199">
        <ele>1126.8000488281</ele>
        <time>2024-07-14T09:18:59.000Z</time>
      </trkpt>
      <trkpt lat="45.03416" lon="5.52201">
        <ele>1126.1999511719</ele>
        <time>2024-07-14T09:19:00.000Z</time>
      </trkpt>
      <trkpt lat="45.03414" lon="5.52202">
        <ele>1125.5999755859</ele>
        <time>2024-07-14T09:19:01.000Z</time>
      </trkpt>
      <trkpt lat="45.03411" lon="5.52204">
        <ele>1125.1999511719</ele>
        <time>2024-07-14T09:19:02.000Z</time>
      </trkpt>
      <trkpt lat="45.03408" lon="5.52206">
        <ele>1125</ele>
        <time>2024-07-14T09:19:03.000Z</time>
      </trkpt>
      <trkpt lat="45.03405" lon="5.52209">
        <ele>1124.4000244141</ele>
        <time>2024-07-14T09:19:04.000Z</time>
      </trkpt>
      <trkpt lat="45.03403" lon="5.52211">
        <ele>1123.8000488281</ele>
        <time>2024-07-14T09:19:05.000Z</time>
      </trkpt>
      <trkpt lat="45.03401" lon="5.52214">
        <ele>1123.1999511719</ele>
        <time>2024-07-14T09:19:06.000Z</time>
      </trkpt>
      <trkpt lat="45.034" lon="5.52216">
        <ele>1122.4000244141</ele>
        <time>2024-07-14T09:19:07.000Z</time>
      </trkpt>
      <trkpt lat="45.03399" lon="5.52218">
        <ele>1122</ele>
        <time>2024-07-14T09:19:08.000Z</time>
      </trkpt>
      <trkpt lat="45.03398" lon="5.52221">
        <ele>1121.5999755859</ele>
        <time>2024-07-14T09:19:09.000Z</time>
      </trkpt>
      <trkpt lat="45.03396" lon="5.52224">
        <ele>1121.1999511719</ele>
        <time>2024-07-14T09:19:10.000Z</time>
      </trkpt>
      <trkpt lat="45.03394" lon="5.52227">
        <ele>1120.5999755859</ele>
        <time>2024-07-14T09:19:11.000Z</time>
      </trkpt>
      <trkpt lat="45.03393" lon="5.52229">
        <ele>1119.8000488281</ele>
        <time>2024-07-14T09:19:12.000Z</time>
      </trkpt>
      <trkpt lat="45.03391" lon="5.52233">
        <ele>1119.4000244141</ele>
        <time>2024-07-14T09:19:13.000Z</time>
      </trkpt>
      <trkpt lat="45.0339" lon="5.52235">
        <ele>1119</ele>
        <time>2024-07-14T09:19:14.000Z</time>
      </trkpt>
      <trkpt lat="45.03389" lon="5.52238">
        <ele>1118.8000488281</ele>
        <time>2024-07-14T09:19:15.000Z</time>
      </trkpt>
      <trkpt lat="45.03387" lon="5.52242">
        <ele>1118.1999511719</ele>
        <time>2024-07-14T09:19:16.000Z</time>
      </trkpt>
      <trkpt lat="45.03386" lon="5.52245">
        <ele>1118.1999511719</ele>
        <time>2024-07-14T09:19:17.000Z</time>
      </trkpt>
      <trkpt lat="45.03385" lon="5.52249">
        <ele>1117.8000488281</ele>
        <time>2024-07-14T09:19:18.000Z</time>
      </trkpt>
      <trkpt lat="45.03383" lon="5.52253">
        <ele>1117.5999755859</ele>
        <time>2024-07-14T09:19:19.000Z</time>
      </trkpt>
      <trkpt lat="45.03381" lon="5.52257">
        <ele>1117.4000244141</ele>
        <time>2024-07-14T09:19:20.000Z</time>
      </trkpt>
      <trkpt lat="45.0338" lon="5.5226">
        <ele>1117.1999511719</ele>
        <time>2024-07-14T09:19:21.000Z</time>
      </trkpt>
      <trkpt lat="45.03378" lon="5.52263">
        <ele>1116.8000488281</ele>
        <time>2024-07-14T09:19:22.000Z</time>
      </trkpt>
      <trkpt lat="45.03376" lon="5.52267">
        <ele>1116.8000488281</ele>
        <time>2024-07-14T09:19:23.000Z</time>
      </trkpt>
      <trkpt lat="45.03375" lon="5.5227">
        <ele>1116.5999755859</ele>
        <time>2024-07-14T09:19:24.000Z</time>
      </trkpt>
      <trkpt lat="45.03374" lon="5.52273">
        <ele>1116.5999755859</ele>
        <time>2024-07-14T09:19:25.000Z</time>
      </trkpt>
      <trkpt lat="45.03372" lon="5.52276">
        <ele>1116.4000244141</ele>
        <time>2024-07-14T09:19:26.000Z</time>
      </trkpt>
      <trkpt lat="45.0337" lon="5.5228">
        <ele>1116.4000244141</ele>
        <time>2024-07-14T09:19:27.000Z</time>
      </trkpt>
      <trkpt lat="45.03368" lon="5.52284">
        <ele>1116.1999511719</ele>
        <time>2024-07-14T09:19:28.000Z</time>
      </trkpt>
      <trkpt lat="45.03366" lon="5.52287">
        <ele>1116.1999511719</ele>
        <time>2024-07-14T09:19:29.000Z</time>
      </trkpt>
      <trkpt lat="45.03364" lon="5.52291">
        <ele>1116.1999511719</ele>
        <time>2024-07-14T09:19:30.000Z</time>
      </trkpt>
      <trkpt lat="45.03363" lon="5.52293">
        <ele>1116</ele>
        <time>2024-07-14T09:19:31.000Z</time>
      </trkpt>
      <trkpt lat="45.03361" lon="5.52297">
        <ele>1115.8000488281</ele>
        <time>2024-07-14T09:19:32.000Z</time>
      </trkpt>
      <trkpt lat="45.03359" lon="5.523">
        <ele>1115.8000488281</ele>
        <time>2024-07-14T09:19:33.000Z</time>
      </trkpt>
      <trkpt lat="45.03357" lon="5.52302">
        <ele>1115.4000244141</ele>
        <time>2024-07-14T09:19:34.000Z</time>
      </trkpt>
      <trkpt lat="45.03355" lon="5.52304">
        <ele>1115.4000244141</ele>
        <time>2024-07-14T09:19:35.000Z</time>
      </trkpt>
      <trkpt lat="45.03351" lon="5.52304">
        <ele>1115.1999511719</ele>
        <time>2024-07-14T09:19:36.000Z</time>
      </trkpt>
      <trkpt lat="45.03349" lon="5.52305">
        <ele>1115</ele>
        <time>2024-07-14T09:19:37.000Z</time>
      </trkpt>
      <trkpt lat="45.03346" lon="5.52305">
        <ele>1115</ele>
        <time>2024-07-14T09:19:38.000Z</time>
      </trkpt>
      <trkpt lat="45.03344" lon="5.52305">
        <ele>1114.8000488281</ele>
        <time>2024-07-14T09:19:39.000Z</time>
      </trkpt>
      <trkpt lat="45.03342" lon="5.52306">
        <ele>1114.5999755859</ele>
        <time>2024-07-14T09:19:40.000Z</time>
      </trkpt>
      <trkpt lat="45.0334" lon="5.52308">
        <ele>1114.5999755859</ele>
        <time>2024-07-14T09:19:41.000Z</time>
      </trkpt>
      <trkpt lat="45.03338" lon="5.52311">
        <ele>1114</ele>
        <time>2024-07-14T09:19:42.000Z</time>
      </trkpt>
      <trkpt lat="45.03336" lon="5.52314">
        <ele>1114</ele>
        <time>2024-07-14T09:19:43.000Z</time>
      </trkpt>
      <trkpt lat="45.03335" lon="5.52318">
        <ele>1114.1999511719</ele>
        <time>2024-07-14T09:19:44.000Z</time>
      </trkpt>
      <trkpt lat="45.03333" lon="5.52321">
        <ele>1114.1999511719</ele>
        <time>2024-07-14T09:19:45.000Z</time>
      </trkpt>
      <trkpt lat="45.03331" lon="5.52323">
        <ele>1114.1999511719</ele>
        <time>2024-07-14T09:19:46.000Z</time>
      </trkpt>
      <trkpt lat="45.03328" lon="5.52326">
        <ele>1114.1999511719</ele>
        <time>2024-07-14T09:19:47.000Z</time>
      </trkpt>
      <trkpt lat="45.03326" lon="5.52329">
        <ele>1114.1999511719</ele>
        <time>2024-07-14T09:19:48.000Z</time>
      </trkpt>
      <trkpt lat="45.03324" lon="5.52332">
        <ele>1114</ele>
        <time>2024-07-14T09:19:49.000Z</time>
      </trkpt>
      <trkpt lat="45.03322" lon="5.52335">
        <ele>1113.4000244141</ele>
        <time>2024-07-14T09:19:50.000Z</time>
      </trkpt>
      <trkpt lat="45.0332" lon="5.52338">
        <ele>1113.1999511719</ele>
        <time>2024-07-14T09:19:51.000Z</time>
      </trkpt>
      <trkpt lat="45.03318" lon="5.52342">
        <ele>1113</ele>
        <time>2024-07-14T09:19:52.000Z</time>
      </trkpt>
      <trkpt lat="45.03316" lon="5.52345">
        <ele>1112.8000488281</ele>
        <time>2024-07-14T09:19:53.000Z</time>
      </trkpt>
      <trkpt lat="45.03313" lon="5.52348">
        <ele>1112.4000244141</ele>
        <time>2024-07-14T09:19:54.000Z</time>
      </trkpt>
      <trkpt lat="45.03311" lon="5.52352">
        <ele>1112.1999511719</ele>
        <time>2024-07-14T09:19:55.000Z</time>
      </trkpt>
      <trkpt lat="45.03309" lon="5.52356">
        <ele>1111.1999511719</ele>
        <time>2024-07-14T09:19:56.000Z</time>
      </trkpt>
      <trkpt lat="45.03307" lon="5.52358">
        <ele>1111</ele>
        <time>2024-07-14T09:19:57.000Z</time>
      </trkpt>
      <trkpt lat="45.03305" lon="5.52362">
        <ele>1110.5999755859</ele>
        <time>2024-07-14T09:19:58.000Z</time>
      </trkpt>
      <trkpt lat="45.03303" lon="5.52366">
        <ele>1110.5999755859</ele>
        <time>2024-07-14T09:19:59.000Z</time>
      </trkpt>
      <trkpt lat="45.03301" lon="5.52369">
        <ele>1110.1999511719</ele>
        <time>2024-07-14T09:20:00.000Z</time>
      </trkpt>
      <trkpt lat="45.03299" lon="5.52374">
        <ele>1110.1999511719</ele>
        <time>2024-07-14T09:20:01.000Z</time>
      </trkpt>
      <trkpt lat="45.03297" lon="5.52377">
        <ele>1110</ele>
        <time>2024-07-14T09:20:02.000Z</time>
      </trkpt>
      <trkpt lat="45.03295" lon="5.52381">
        <ele>1109.5999755859</ele>
        <time>2024-07-14T09:20:03.000Z</time>
      </trkpt>
      <trkpt lat="45.03293" lon="5.52385">
        <ele>1109.1999511719</ele>
        <time>2024-07-14T09:20:04.000Z</time>
      </trkpt>
      <trkpt lat="45.03291" lon="5.52388">
        <ele>1108.8000488281</ele>
        <time>2024-07-14T09:20:05.000Z</time>
      </trkpt>
      <trkpt lat="45.03289" lon="5.52392">
        <ele>1108.5999755859</ele>
        <time>2024-07-14T09:20:06.000Z</time>
      </trkpt>
      <trkpt lat="45.03287" lon="5.52395">
        <ele>1108.4000244141</ele>
        <time>2024-07-14T09:20:07.000Z</time>
      </trkpt>
      <trkpt lat="45.03284" lon="5.52399">
        <ele>1108.1999511719</ele>
        <time>2024-07-14T09:20:08.000Z</time>
      </trkpt>
      <trkpt lat="45.03283" lon="5.52402">
        <ele>1108</ele>
        <time>2024-07-14T09:20:09.000Z</time>
      </trkpt>
      <trkpt lat="45.03281" lon="5.52405">
        <ele>1107.8000488281</ele>
        <time>2024-07-14T09:20:10.000Z</time>
      </trkpt>
      <trkpt lat="45.03279" lon="5.52409">
        <ele>1107.1999511719</ele>
        <time>2024-07-14T09:20:11.000Z</time>
      </trkpt>
      <trkpt lat="45.03278" lon="5.52413">
        <ele>1107.1999511719</ele>
        <time>2024-07-14T09:20:12.000Z</time>
      </trkpt>
      <trkpt lat="45.03276" lon="5.52416">
        <ele>1107.1999511719</ele>
        <time>2024-07-14T09:20:13.000Z</time>
      </trkpt>
      <trkpt lat="45.03274" lon="5.5242">
        <ele>1107.4000244141</ele>
        <time>2024-07-14T09:20:14.000Z</time>
      </trkpt>
      <trkpt lat="45.03272" lon="5.52423">
        <ele>1107.8000488281</ele>
        <time>2024-07-14T09:20:15.000Z</time>
      </trkpt>
      <trkpt lat="45.0327" lon="5.52427">
        <ele>1108.1999511719</ele>
        <time>2024-07-14T09:20:16.000Z</time>
      </trkpt>
      <trkpt lat="45.03269" lon="5.5243">
        <ele>1108.5999755859</ele>
        <time>2024-07-14T09:20:17.000Z</time>
      </trkpt>
      <trkpt lat="45.03267" lon="5.52435">
        <ele>1108.8000488281</ele>
        <time>2024-07-14T09:20:18.000Z</time>
      </trkpt>
      <trkpt lat="45.03266" lon="5.52439">
        <ele>1109</ele>
        <time>2024-07-14T09:20:19.000Z</time>
      </trkpt>
      <trkpt lat="45.03265" lon="5.52443">
        <ele>1109</ele>
        <time>2024-07-14T09:20:20.000Z</time>
      </trkpt>
      <trkpt lat="45.03264" lon="5.52446">
        <ele>1109.1999511719</ele>
        <time>2024-07-14T09:20:21.000Z</time>
      </trkpt>
      <trkpt lat="45.03262" lon="5.52449">
        <ele>1109.1999511719</ele>
        <time>2024-07-14T09:20:22.000Z</time>
      </trkpt>
      <trkpt lat="45.03261" lon="5.52454">
        <ele>1109.1999511719</ele>
        <time>2024-07-14T09:20:23.000Z</time>
      </trkpt>
      <trkpt lat="45.0326" lon="5.52458">
        <ele>1109.1999511719</ele>
        <time>2024-07-14T09:20:24.000Z</time>
      </trkpt>
      <trkpt lat="45.03258" lon="5.52462">
        <ele>1109.1999511719</ele>
        <time>2024-07-14T09:20:25.000Z</time>
      </trkpt>
      <trkpt lat="45.03257" lon="5.52466">
        <ele>1109.1999511719</ele>
        <time>2024-07-14T09:20:26.000Z</time>
      </trkpt>
      <trkpt lat="45.03256" lon="5.52469">
        <ele>1109.1999511719</ele>
        <time>2024-07-14T09:20:27.000Z</time>
      </trkpt>
      <trkpt lat="45.03255" lon="5.52474">
        <ele>1109.1999511719</ele>
        <time>2024-07-14T09:20:28.000Z</time>
      </trkpt>
      <trkpt lat="45.03254" lon="5.52478">
        <ele>1109.1999511719</ele>
        <time>2024-07-14T09:20:29.000Z</time>
      </trkpt>
      <trkpt lat="45.03253" lon="5.52481">
        <ele>1109.1999511719</ele>
        <time>2024-07-14T09:20:30.000Z</time>
      </trkpt>
      <trkpt lat="45.03251" lon="5.52486">
        <ele>1109.1999511719</ele>
        <time>2024-07-14T09:20:31.000Z</time>
      </trkpt>
      <trkpt lat="45.0325" lon="5.52489">
        <ele>1109.1999511719</ele>
        <time>2024-07-14T09:20:32.000Z</time>
      </trkpt>
      <trkpt lat="45.03249" lon="5.52493">
        <ele>1109.1999511719</ele>
        <time>2024-07-14T09:20:33.000Z</time>
      </trkpt>
      <trkpt lat="45.03248" lon="5.52496">
        <ele>1109.1999511719</ele>
        <time>2024-07-14T09:20:34.000Z</time>
      </trkpt>
      <trkpt lat="45.03247" lon="5.52499">
        <ele>1109</ele>
        <time>2024-07-14T09:20:35.000Z</time>
      </trkpt>
      <trkpt lat="45.03246" lon="5.52502">
        <ele>1108.8000488281</ele>
        <time>2024-07-14T09:20:36.000Z</time>
      </trkpt>
      <trkpt lat="45.03245" lon="5.52506">
        <ele>1108.8000488281</ele>
        <time>2024-07-14T09:20:37.000Z</time>
      </trkpt>
      <trkpt lat="45.03244" lon="5.5251">
        <ele>1108.8000488281</ele>
        <time>2024-07-14T09:20:38.000Z</time>
      </trkpt>
      <trkpt lat="45.03243" lon="5.52514">
        <ele>1108.8000488281</ele>
        <time>2024-07-14T09:20:39.000Z</time>
      </trkpt>
      <trkpt lat="45.03241" lon="5.52518">
        <ele>1109.1999511719</ele>
        <time>2024-07-14T09:20:40.000Z</time>
      </trkpt>
      <trkpt lat="45.0324" lon="5.52521">
        <ele>1109.1999511719</ele>
        <time>2024-07-14T09:20:41.000Z</time>
      </trkpt>
      <trkpt lat="45.03237" lon="5.52524">
        <ele>1109.4000244141</ele>
        <time>2024-07-14T09:20:42.000Z</time>
      </trkpt>
      <trkpt lat="45.03234" lon="5.52527">
        <ele>1109.4000244141</ele>
        <time>2024-07-14T09:20:43.000Z</time>
      </trkpt>
      <trkpt lat="45.0323" lon="5.52526">
        <ele>1109.4000244141</ele>
        <time>2024-07-14T09:20:44.000Z</time>
      </trkpt>
      <trkpt lat="45.03227" lon="5.52525">
        <ele>1109.4000244141</ele>
        <time>2024-07-14T09:20:45.000Z</time>
      </trkpt>
      <trkpt lat="45.03223" lon="5.52523">
        <ele>1109.4000244141</ele>
        <time>2024-07-14T09:20:46.000Z</time>
      </trkpt>
      <trkpt lat="45.0322" lon="5.52521">
        <ele>1109.4000244141</ele>
        <time>2024-07-14T09:20:47.000Z</time>
      </trkpt>
      <trkpt lat="45.03216" lon="5.52519">
        <ele>1109</ele>
        <time>2024-07-14T09:20:48.000Z</time>
      </trkpt>
      <trkpt lat="45.03214" lon="5.52516">
        <ele>1108.8000488281</ele>
        <time>2024-07-14T09:20:49.000Z</time>
      </trkpt>
      <trkpt lat="45.03211" lon="5.52514">
        <ele>1108.5999755859</ele>
        <time>2024-07-14T09:20:50.000Z</time>
      </trkpt>
      <trkpt lat="45.03209" lon="5.52512">
        <ele>1108.5999755859</ele>
        <time>2024-07-14T09:20:51.000Z</time>
      </trkpt>
      <trkpt lat="45.03207" lon="5.5251">
        <ele>1108.4000244141</ele>
        <time>2024-07-14T09:20:52.000Z</time>
      </trkpt>
      <trkpt lat="45.03206" lon="5.52509">
        <ele>1108.4000244141</ele>
        <time>2024-07-14T09:20:53.000Z</time>
      </trkpt>
    </trkseg>
  </trk>
</gpx>